<?xml version='1.0' encoding='UTF-8'?><gpx version="1.1" creator="JPX - https://github.com/jenetics/jpx" xmlns="http://www.topografix.com/GPX/1/1"><trk><trkseg><trkpt lat="45.54871072238807" lon="9.3535321946474"><ele>148.0</ele><time>2026-03-29T12:44:47.999Z</time></trkpt><trkpt lat="45.54878313840374" lon="9.353531843440905"><ele>148.0</ele><time>2026-03-29T12:44:50.999Z</time></trkpt><trkpt lat="45.54889122861767" lon="9.353511622371412"><ele>148.0</ele><time>2026-03-29T12:44:52.999Z</time></trkpt><trkpt lat="45.548958848684876" lon="9.353496257126908"><ele>148.0</ele><time>2026-03-29T12:44:53.999Z</time></trkpt><trkpt lat="45.549020820038265" lon="9.353472864457528"><ele>148.0</ele><time>2026-03-29T12:44:54.999Z</time></trkpt><trkpt lat="45.54909245663119" lon="9.353458141487074"><ele>148.0</ele><time>2026-03-29T12:44:55.999Z</time></trkpt><trkpt lat="45.54917169771431" lon="9.353445209741855"><ele>148.0</ele><time>2026-03-29T12:44:56.999Z</time></trkpt><trkpt lat="45.54925490967048" lon="9.35343452014467"><ele>148.0</ele><time>2026-03-29T12:44:57.999Z</time></trkpt><trkpt lat="45.54932330534648" lon="9.353414475097415"><ele>148.0</ele><time>2026-03-29T12:44:58.999Z</time></trkpt><trkpt lat="45.54939906196419" lon="9.353407147794702"><ele>148.0</ele><time>2026-03-29T12:44:59.999Z</time></trkpt><trkpt lat="45.54948017317458" lon="9.353397721508998"><ele>148.0</ele><time>2026-03-29T12:45:00.999Z</time></trkpt><trkpt lat="45.549559269762035" lon="9.353388881057619"><ele>148.0</ele><time>2026-03-29T12:45:01.999Z</time></trkpt><trkpt lat="45.549636214195544" lon="9.353379009318266"><ele>148.4</ele><time>2026-03-29T12:45:02.999Z</time></trkpt><trkpt lat="45.549712176928516" lon="9.353365318507581"><ele>148.8</ele><time>2026-03-29T12:45:03.999Z</time></trkpt><trkpt lat="45.549827561400654" lon="9.353349167870878"><ele>149.2</ele><time>2026-03-29T12:45:05.999Z</time></trkpt><trkpt lat="45.54987205422116" lon="9.353581589952466"><ele>149.6</ele><time>2026-03-29T12:45:08.999Z</time></trkpt><trkpt lat="45.549892564341995" lon="9.353680361970497"><ele>150.0</ele><time>2026-03-29T12:45:09.999Z</time></trkpt><trkpt lat="45.549892433389125" lon="9.353790880199655"><ele>149.8</ele><time>2026-03-29T12:45:10.999Z</time></trkpt><trkpt lat="45.549900376704166" lon="9.353917842200554"><ele>149.6</ele><time>2026-03-29T12:45:11.999Z</time></trkpt><trkpt lat="45.549908380380074" lon="9.354075280544789"><ele>149.4</ele><time>2026-03-29T12:45:12.999Z</time></trkpt><trkpt lat="45.54991787177472" lon="9.354201687503375"><ele>149.2</ele><time>2026-03-29T12:45:13.999Z</time></trkpt><trkpt lat="45.54992452564703" lon="9.354298426854099"><ele>149.0</ele><time>2026-03-29T12:45:14.999Z</time></trkpt><trkpt lat="45.549889758556944" lon="9.354428885791082"><ele>149.0</ele><time>2026-03-29T12:45:16.999Z</time></trkpt><trkpt lat="45.54986434529192" lon="9.354523663254696"><ele>149.0</ele><time>2026-03-29T12:45:18.999Z</time></trkpt><trkpt lat="45.54998552355895" lon="9.354577755837646"><ele>149.0</ele><time>2026-03-29T12:45:21.999Z</time></trkpt><trkpt lat="45.55004450698798" lon="9.35454460584206"><ele>149.0</ele><time>2026-03-29T12:45:25.999Z</time></trkpt><trkpt lat="45.55010643057691" lon="9.354415199271434"><ele>149.0</ele><time>2026-03-29T12:45:32.999Z</time></trkpt><trkpt lat="45.55012050275774" lon="9.354303786503975"><ele>149.0</ele><time>2026-03-29T12:45:33.999Z</time></trkpt><trkpt lat="45.5501190055458" lon="9.354196905739485"><ele>149.0</ele><time>2026-03-29T12:45:34.999Z</time></trkpt><trkpt lat="45.550116167272314" lon="9.354069253107372"><ele>149.0</ele><time>2026-03-29T12:45:35.999Z</time></trkpt><trkpt lat="45.5501105020808" lon="9.353930553837452"><ele>149.0</ele><time>2026-03-29T12:45:36.999Z</time></trkpt><trkpt lat="45.5501016247774" lon="9.353796295095128"><ele>149.0</ele><time>2026-03-29T12:45:37.999Z</time></trkpt><trkpt lat="45.5500888287803" lon="9.353656189491192"><ele>149.2</ele><time>2026-03-29T12:45:38.999Z</time></trkpt><trkpt lat="45.550078164737926" lon="9.353507392032114"><ele>149.4</ele><time>2026-03-29T12:45:39.999Z</time></trkpt><trkpt lat="45.55006176726955" lon="9.35335514675884"><ele>149.6</ele><time>2026-03-29T12:45:40.999Z</time></trkpt><trkpt lat="45.55004958485277" lon="9.353204376239248"><ele>149.8</ele><time>2026-03-29T12:45:41.999Z</time></trkpt><trkpt lat="45.55003607784747" lon="9.353047801443665"><ele>150.0</ele><time>2026-03-29T12:45:42.999Z</time></trkpt><trkpt lat="45.550017884146506" lon="9.352893394140013"><ele>150.0</ele><time>2026-03-29T12:45:43.999Z</time></trkpt><trkpt lat="45.54999965679467" lon="9.352732673231186"><ele>150.0</ele><time>2026-03-29T12:45:44.999Z</time></trkpt><trkpt lat="45.549980280513815" lon="9.352568535512686"><ele>150.0</ele><time>2026-03-29T12:45:45.999Z</time></trkpt><trkpt lat="45.5499600374836" lon="9.35241271933846"><ele>150.0</ele><time>2026-03-29T12:45:46.999Z</time></trkpt><trkpt lat="45.54993867543907" lon="9.352271637227272"><ele>150.0</ele><time>2026-03-29T12:45:47.999Z</time></trkpt><trkpt lat="45.54991498185732" lon="9.352140603024296"><ele>150.0</ele><time>2026-03-29T12:45:48.999Z</time></trkpt><trkpt lat="45.54989269848051" lon="9.35201018659401"><ele>150.0</ele><time>2026-03-29T12:45:49.999Z</time></trkpt><trkpt lat="45.549864266557606" lon="9.351878065867723"><ele>150.0</ele><time>2026-03-29T12:45:50.999Z</time></trkpt><trkpt lat="45.54983587459264" lon="9.351746189618558"><ele>150.0</ele><time>2026-03-29T12:45:51.999Z</time></trkpt><trkpt lat="45.54979968461651" lon="9.351602270511018"><ele>150.0</ele><time>2026-03-29T12:45:52.999Z</time></trkpt><trkpt lat="45.54975776359277" lon="9.35147320022631"><ele>150.0</ele><time>2026-03-29T12:45:53.999Z</time></trkpt><trkpt lat="45.549711724074" lon="9.351362515361364"><ele>150.0</ele><time>2026-03-29T12:45:54.999Z</time></trkpt><trkpt lat="45.54966734454308" lon="9.35124305708978"><ele>150.0</ele><time>2026-03-29T12:45:55.999Z</time></trkpt><trkpt lat="45.54962816611416" lon="9.351123083367737"><ele>150.0</ele><time>2026-03-29T12:45:56.999Z</time></trkpt><trkpt lat="45.54960210673896" lon="9.351012378010209"><ele>150.0</ele><time>2026-03-29T12:45:57.999Z</time></trkpt><trkpt lat="45.54958086574586" lon="9.350909695876876"><ele>150.0</ele><time>2026-03-29T12:45:58.999Z</time></trkpt><trkpt lat="45.54956748859268" lon="9.350812480438169"><ele>150.0</ele><time>2026-03-29T12:45:59.999Z</time></trkpt><trkpt lat="45.549559934825965" lon="9.350718882316603"><ele>150.0</ele><time>2026-03-29T12:46:00.999Z</time></trkpt><trkpt lat="45.549556854782786" lon="9.350627340871469"><ele>150.0</ele><time>2026-03-29T12:46:01.999Z</time></trkpt><trkpt lat="45.54956748634951" lon="9.350533111906406"><ele>150.0</ele><time>2026-03-29T12:46:02.999Z</time></trkpt><trkpt lat="45.54966450936775" lon="9.350422589413519"><ele>150.0</ele><time>2026-03-29T12:46:04.999Z</time></trkpt><trkpt lat="45.54972974131204" lon="9.350303318109784"><ele>150.0</ele><time>2026-03-29T12:46:06.999Z</time></trkpt><trkpt lat="45.54967834615515" lon="9.350152197993967"><ele>149.8</ele><time>2026-03-29T12:46:08.999Z</time></trkpt><trkpt lat="45.54953629152842" lon="9.350177360417305"><ele>149.6</ele><time>2026-03-29T12:46:10.999Z</time></trkpt><trkpt lat="45.549445965028454" lon="9.350269882717585"><ele>149.4</ele><time>2026-03-29T12:46:12.999Z</time></trkpt><trkpt lat="45.54937634975708" lon="9.350303919868296"><ele>149.2</ele><time>2026-03-29T12:46:13.999Z</time></trkpt><trkpt lat="45.54928609900803" lon="9.350304146290403"><ele>149.0</ele><time>2026-03-29T12:46:14.999Z</time></trkpt><trkpt lat="45.54917814289209" lon="9.350319966323504"><ele>149.0</ele><time>2026-03-29T12:46:15.999Z</time></trkpt><trkpt lat="45.54905881994506" lon="9.350338013510624"><ele>149.0</ele><time>2026-03-29T12:46:16.999Z</time></trkpt><trkpt lat="45.54894700633106" lon="9.35034625142586"><ele>149.0</ele><time>2026-03-29T12:46:17.999Z</time></trkpt><trkpt lat="45.54883823035731" lon="9.350351127769098"><ele>149.0</ele><time>2026-03-29T12:46:18.999Z</time></trkpt><trkpt lat="45.548727700933746" lon="9.35036028301553"><ele>148.6</ele><time>2026-03-29T12:46:19.999Z</time></trkpt><trkpt lat="45.548613360193976" lon="9.350376889408762"><ele>148.2</ele><time>2026-03-29T12:46:20.999Z</time></trkpt><trkpt lat="45.54850456157749" lon="9.350383009214024"><ele>147.79999999999998</ele><time>2026-03-29T12:46:21.999Z</time></trkpt><trkpt lat="45.54839624589445" lon="9.350398828044964"><ele>147.4</ele><time>2026-03-29T12:46:22.999Z</time></trkpt><trkpt lat="45.54829073900677" lon="9.350409635243011"><ele>147.0</ele><time>2026-03-29T12:46:23.999Z</time></trkpt><trkpt lat="45.548185973370295" lon="9.350416977055314"><ele>147.0</ele><time>2026-03-29T12:46:24.999Z</time></trkpt><trkpt lat="45.54807965255217" lon="9.350427438367204"><ele>147.0</ele><time>2026-03-29T12:46:25.999Z</time></trkpt><trkpt lat="45.54797748153553" lon="9.35043774721527"><ele>147.0</ele><time>2026-03-29T12:46:26.999Z</time></trkpt><trkpt lat="45.547879876992255" lon="9.350449455450931"><ele>147.0</ele><time>2026-03-29T12:46:27.999Z</time></trkpt><trkpt lat="45.54779226248609" lon="9.350460155738787"><ele>147.0</ele><time>2026-03-29T12:46:28.999Z</time></trkpt><trkpt lat="45.54770921263221" lon="9.350465995554794"><ele>147.25</ele><time>2026-03-29T12:46:29.999Z</time></trkpt><trkpt lat="45.54763622342164" lon="9.350482979030142"><ele>147.5</ele><time>2026-03-29T12:46:30.999Z</time></trkpt><trkpt lat="45.54751899627728" lon="9.350456319529444"><ele>147.75</ele><time>2026-03-29T12:46:32.999Z</time></trkpt><trkpt lat="45.54747058394868" lon="9.35037231817411"><ele>148.0</ele><time>2026-03-29T12:46:33.999Z</time></trkpt><trkpt lat="45.547451963432664" lon="9.350112216090517"><ele>148.0</ele><time>2026-03-29T12:46:35.999Z</time></trkpt><trkpt lat="45.54741519945412" lon="9.349961574833687"><ele>148.0</ele><time>2026-03-29T12:46:36.999Z</time></trkpt><trkpt lat="45.54740886112282" lon="9.349818660084958"><ele>148.0</ele><time>2026-03-29T12:46:37.999Z</time></trkpt><trkpt lat="45.547396183947214" lon="9.349689976275881"><ele>148.0</ele><time>2026-03-29T12:46:38.999Z</time></trkpt><trkpt lat="45.54738693345433" lon="9.3495563033677"><ele>148.0</ele><time>2026-03-29T12:46:39.999Z</time></trkpt><trkpt lat="45.547378399441165" lon="9.34942242375817"><ele>148.16666666666669</ele><time>2026-03-29T12:46:40.999Z</time></trkpt><trkpt lat="45.54736923115394" lon="9.349286466704"><ele>148.33333333333334</ele><time>2026-03-29T12:46:41.999Z</time></trkpt><trkpt lat="45.547362138960345" lon="9.349152354829387"><ele>148.5</ele><time>2026-03-29T12:46:42.999Z</time></trkpt><trkpt lat="45.54735784750503" lon="9.349030192368781"><ele>148.66666666666666</ele><time>2026-03-29T12:46:43.999Z</time></trkpt><trkpt lat="45.54735862440186" lon="9.348913395410223"><ele>148.83333333333331</ele><time>2026-03-29T12:46:44.999Z</time></trkpt><trkpt lat="45.547363797848725" lon="9.348808654031439"><ele>149.0</ele><time>2026-03-29T12:46:45.999Z</time></trkpt><trkpt lat="45.547374984316846" lon="9.348652112260938"><ele>148.6</ele><time>2026-03-29T12:46:47.999Z</time></trkpt><trkpt lat="45.54735890098228" lon="9.348475679335042"><ele>148.2</ele><time>2026-03-29T12:46:49.999Z</time></trkpt><trkpt lat="45.54731170000529" lon="9.34838281832515"><ele>147.79999999999998</ele><time>2026-03-29T12:46:50.999Z</time></trkpt><trkpt lat="45.54727069297374" lon="9.348279265927617"><ele>147.4</ele><time>2026-03-29T12:46:51.999Z</time></trkpt><trkpt lat="45.547266044477944" lon="9.348137868032982"><ele>147.0</ele><time>2026-03-29T12:46:52.999Z</time></trkpt><trkpt lat="45.54723364974883" lon="9.347995994471095"><ele>147.0</ele><time>2026-03-29T12:46:53.999Z</time></trkpt><trkpt lat="45.547230733384055" lon="9.347847856696093"><ele>147.0</ele><time>2026-03-29T12:46:54.999Z</time></trkpt><trkpt lat="45.547224932373155" lon="9.347708165888772"><ele>147.0</ele><time>2026-03-29T12:46:55.999Z</time></trkpt><trkpt lat="45.547216022251014" lon="9.347571751672271"><ele>147.0</ele><time>2026-03-29T12:46:56.999Z</time></trkpt><trkpt lat="45.547202519315036" lon="9.347425752170917"><ele>147.0</ele><time>2026-03-29T12:46:57.999Z</time></trkpt><trkpt lat="45.547186650003056" lon="9.347278384379953"><ele>147.25</ele><time>2026-03-29T12:46:58.999Z</time></trkpt><trkpt lat="45.54716841303859" lon="9.34712622724424"><ele>147.5</ele><time>2026-03-29T12:46:59.999Z</time></trkpt><trkpt lat="45.54715102766431" lon="9.346964257241456"><ele>147.75</ele><time>2026-03-29T12:47:00.998Z</time></trkpt><trkpt lat="45.54713596121597" lon="9.346799291504526"><ele>148.0</ele><time>2026-03-29T12:47:01.998Z</time></trkpt><trkpt lat="45.54712464050783" lon="9.346628155985911"><ele>148.0</ele><time>2026-03-29T12:47:02.998Z</time></trkpt><trkpt lat="45.54710867238642" lon="9.346460403176161"><ele>148.0</ele><time>2026-03-29T12:47:03.998Z</time></trkpt><trkpt lat="45.54709375694198" lon="9.346291817097718"><ele>148.0</ele><time>2026-03-29T12:47:04.998Z</time></trkpt><trkpt lat="45.54708545597098" lon="9.346122709165583"><ele>148.0</ele><time>2026-03-29T12:47:05.998Z</time></trkpt><trkpt lat="45.54707400548285" lon="9.34595687999591"><ele>148.0</ele><time>2026-03-29T12:47:06.998Z</time></trkpt><trkpt lat="45.5470604954455" lon="9.345808967171536"><ele>148.0</ele><time>2026-03-29T12:47:07.998Z</time></trkpt><trkpt lat="45.547046887685674" lon="9.345678856173107"><ele>148.0</ele><time>2026-03-29T12:47:08.998Z</time></trkpt><trkpt lat="45.54703474651435" lon="9.345558058428228"><ele>148.0</ele><time>2026-03-29T12:47:09.998Z</time></trkpt><trkpt lat="45.54702401738516" lon="9.34544135759469"><ele>148.0</ele><time>2026-03-29T12:47:10.998Z</time></trkpt><trkpt lat="45.547025923119996" lon="9.345325855549612"><ele>148.0</ele><time>2026-03-29T12:47:11.998Z</time></trkpt><trkpt lat="45.54703113309778" lon="9.345198269557763"><ele>147.8</ele><time>2026-03-29T12:47:12.998Z</time></trkpt><trkpt lat="45.54700041220554" lon="9.345063904437362"><ele>147.60000000000002</ele><time>2026-03-29T12:47:13.998Z</time></trkpt><trkpt lat="45.54698930021106" lon="9.34491414944835"><ele>147.39999999999998</ele><time>2026-03-29T12:47:14.999Z</time></trkpt><trkpt lat="45.546968168005144" lon="9.344761075879388"><ele>147.2</ele><time>2026-03-29T12:47:15.999Z</time></trkpt><trkpt lat="45.546955075058904" lon="9.344596162916758"><ele>147.0</ele><time>2026-03-29T12:47:16.999Z</time></trkpt><trkpt lat="45.546944564966175" lon="9.344424592780694"><ele>147.0</ele><time>2026-03-29T12:47:17.999Z</time></trkpt><trkpt lat="45.54692912100391" lon="9.344248885098084"><ele>147.0</ele><time>2026-03-29T12:47:18.999Z</time></trkpt><trkpt lat="45.546914391590924" lon="9.344076450700843"><ele>147.0</ele><time>2026-03-29T12:47:19.999Z</time></trkpt><trkpt lat="45.54689834809026" lon="9.343913110270945"><ele>147.0</ele><time>2026-03-29T12:47:20.999Z</time></trkpt><trkpt lat="45.54688869099079" lon="9.343749360069701"><ele>146.79999999999998</ele><time>2026-03-29T12:47:21.999Z</time></trkpt><trkpt lat="45.546873785342115" lon="9.343592881273667"><ele>146.6</ele><time>2026-03-29T12:47:22.999Z</time></trkpt><trkpt lat="45.546863594964755" lon="9.343451576229942"><ele>146.39999999999998</ele><time>2026-03-29T12:47:23.999Z</time></trkpt><trkpt lat="45.54685124428742" lon="9.34335482101257"><ele>146.2</ele><time>2026-03-29T12:47:24.999Z</time></trkpt><trkpt lat="45.546748787979276" lon="9.343307854483866"><ele>146.0</ele><time>2026-03-29T12:47:27.999Z</time></trkpt><trkpt lat="45.546617054435494" lon="9.343348767443919"><ele>146.0</ele><time>2026-03-29T12:47:29.999Z</time></trkpt><trkpt lat="45.546538662311605" lon="9.343350196804973"><ele>146.0</ele><time>2026-03-29T12:47:30.999Z</time></trkpt><trkpt lat="45.54646070552786" lon="9.343355878230273"><ele>146.0</ele><time>2026-03-29T12:47:31.999Z</time></trkpt><trkpt lat="45.54636834401089" lon="9.343379928053553"><ele>146.0</ele><time>2026-03-29T12:47:32.999Z</time></trkpt><trkpt lat="45.54628181660765" lon="9.34339444765446"><ele>146.0</ele><time>2026-03-29T12:47:33.999Z</time></trkpt><trkpt lat="45.54621143866795" lon="9.34339715211778"><ele>146.0</ele><time>2026-03-29T12:47:34.999Z</time></trkpt><trkpt lat="45.54610829520815" lon="9.343437315779333"><ele>145.8</ele><time>2026-03-29T12:47:36.999Z</time></trkpt><trkpt lat="45.5459927970419" lon="9.343429279673837"><ele>145.6</ele><time>2026-03-29T12:47:38.999Z</time></trkpt><trkpt lat="45.54590500270749" lon="9.343439157973371"><ele>145.4</ele><time>2026-03-29T12:47:39.999Z</time></trkpt><trkpt lat="45.545806520284636" lon="9.343449980507904"><ele>145.2</ele><time>2026-03-29T12:47:40.999Z</time></trkpt><trkpt lat="45.5457198358464" lon="9.343457105227525"><ele>145.0</ele><time>2026-03-29T12:47:41.999Z</time></trkpt><trkpt lat="45.54564750388733" lon="9.343467519962465"><ele>145.0</ele><time>2026-03-29T12:47:42.999Z</time></trkpt><trkpt lat="45.54558192726698" lon="9.343474760181843"><ele>145.0</ele><time>2026-03-29T12:47:43.999Z</time></trkpt><trkpt lat="45.54551686157248" lon="9.343470915032526"><ele>145.0</ele><time>2026-03-29T12:47:44.999Z</time></trkpt><trkpt lat="45.54542204757305" lon="9.343467746525075"><ele>145.0</ele><time>2026-03-29T12:47:46.999Z</time></trkpt><trkpt lat="45.54533968318706" lon="9.343458718952155"><ele>145.0</ele><time>2026-03-29T12:47:48.999Z</time></trkpt><trkpt lat="45.54521379807099" lon="9.3434482006362"><ele>145.0</ele><time>2026-03-29T12:47:50.999Z</time></trkpt><trkpt lat="45.545096849600434" lon="9.34347675901578"><ele>144.8</ele><time>2026-03-29T12:47:52.999Z</time></trkpt><trkpt lat="45.545010626139565" lon="9.343490464723962"><ele>144.6</ele><time>2026-03-29T12:47:54.999Z</time></trkpt><trkpt lat="45.54497856491236" lon="9.343288069355923"><ele>144.4</ele><time>2026-03-29T12:47:56.999Z</time></trkpt><trkpt lat="45.54498041129719" lon="9.34319684495563"><ele>144.2</ele><time>2026-03-29T12:47:57.999Z</time></trkpt><trkpt lat="45.544986714000245" lon="9.343094187262631"><ele>144.0</ele><time>2026-03-29T12:47:58.999Z</time></trkpt><trkpt lat="45.54498304043152" lon="9.342967577116355"><ele>144.0</ele><time>2026-03-29T12:47:59.999Z</time></trkpt><trkpt lat="45.544978442779595" lon="9.34282692107666"><ele>144.0</ele><time>2026-03-29T12:48:00.999Z</time></trkpt><trkpt lat="45.54497479266325" lon="9.342687096242297"><ele>144.0</ele><time>2026-03-29T12:48:01.999Z</time></trkpt><trkpt lat="45.54497261876346" lon="9.342552149087314"><ele>144.0</ele><time>2026-03-29T12:48:02.999Z</time></trkpt><trkpt lat="45.54497050646399" lon="9.342419396451206"><ele>144.0</ele><time>2026-03-29T12:48:03.999Z</time></trkpt><trkpt lat="45.54496060925909" lon="9.342290430278025"><ele>144.0</ele><time>2026-03-29T12:48:04.999Z</time></trkpt><trkpt lat="45.544967209242444" lon="9.342156476632129"><ele>144.0</ele><time>2026-03-29T12:48:05.999Z</time></trkpt><trkpt lat="45.54494388832991" lon="9.342032354358185"><ele>144.0</ele><time>2026-03-29T12:48:06.999Z</time></trkpt><trkpt lat="45.54493859387419" lon="9.341908471947406"><ele>144.0</ele><time>2026-03-29T12:48:07.999Z</time></trkpt><trkpt lat="45.54493394139925" lon="9.341777992391647"><ele>144.0</ele><time>2026-03-29T12:48:08.999Z</time></trkpt><trkpt lat="45.5449281479705" lon="9.341652919329952"><ele>144.0</ele><time>2026-03-29T12:48:09.999Z</time></trkpt><trkpt lat="45.544918998580236" lon="9.34152742137401"><ele>144.0</ele><time>2026-03-29T12:48:10.999Z</time></trkpt><trkpt lat="45.54491324318494" lon="9.341402552351562"><ele>144.0</ele><time>2026-03-29T12:48:11.999Z</time></trkpt><trkpt lat="45.54490463559374" lon="9.341276160692559"><ele>144.0</ele><time>2026-03-29T12:48:12.999Z</time></trkpt><trkpt lat="45.54489972535671" lon="9.341152089079895"><ele>144.0</ele><time>2026-03-29T12:48:13.999Z</time></trkpt><trkpt lat="45.54489116530108" lon="9.341028127404911"><ele>144.0</ele><time>2026-03-29T12:48:14.999Z</time></trkpt><trkpt lat="45.54489747239192" lon="9.340901155079651"><ele>144.0</ele><time>2026-03-29T12:48:15.999Z</time></trkpt><trkpt lat="45.54489054050618" lon="9.340767801533751"><ele>144.0</ele><time>2026-03-29T12:48:16.999Z</time></trkpt><trkpt lat="45.544869442218236" lon="9.340641290347493"><ele>144.0</ele><time>2026-03-29T12:48:17.999Z</time></trkpt><trkpt lat="45.54487573029346" lon="9.34050756844348"><ele>144.0</ele><time>2026-03-29T12:48:18.999Z</time></trkpt><trkpt lat="45.544868164326246" lon="9.340377469889226"><ele>144.0</ele><time>2026-03-29T12:48:19.999Z</time></trkpt><trkpt lat="45.544845154813714" lon="9.340243576161683"><ele>144.0</ele><time>2026-03-29T12:48:20.999Z</time></trkpt><trkpt lat="45.544835740675445" lon="9.340112384977127"><ele>144.0</ele><time>2026-03-29T12:48:21.999Z</time></trkpt><trkpt lat="45.54484411590243" lon="9.339985279029268"><ele>144.0</ele><time>2026-03-29T12:48:22.999Z</time></trkpt><trkpt lat="45.544821791873446" lon="9.339869007041012"><ele>144.0</ele><time>2026-03-29T12:48:23.999Z</time></trkpt><trkpt lat="45.544815177779185" lon="9.339766247205175"><ele>144.0</ele><time>2026-03-29T12:48:24.999Z</time></trkpt><trkpt lat="45.54482396665017" lon="9.3396635542098"><ele>144.0</ele><time>2026-03-29T12:48:25.999Z</time></trkpt><trkpt lat="45.54480255929828" lon="9.339573251015263"><ele>143.8</ele><time>2026-03-29T12:48:26.999Z</time></trkpt><trkpt lat="45.54480223218005" lon="9.33943223543457"><ele>143.60000000000002</ele><time>2026-03-29T12:48:28.999Z</time></trkpt><trkpt lat="45.5448127625677" lon="9.33928879770838"><ele>143.4</ele><time>2026-03-29T12:48:30.999Z</time></trkpt><trkpt lat="45.54479055872664" lon="9.339175912067576"><ele>143.20000000000002</ele><time>2026-03-29T12:48:32.999Z</time></trkpt><trkpt lat="45.54468066237783" lon="9.339140174942724"><ele>143.0</ele><time>2026-03-29T12:48:34.999Z</time></trkpt><trkpt lat="45.54460143476901" lon="9.33915896248775"><ele>143.0</ele><time>2026-03-29T12:48:35.999Z</time></trkpt><trkpt lat="45.544510876410115" lon="9.339169043604949"><ele>143.0</ele><time>2026-03-29T12:48:36.999Z</time></trkpt><trkpt lat="45.54441229782386" lon="9.339165504713819"><ele>143.0</ele><time>2026-03-29T12:48:37.999Z</time></trkpt><trkpt lat="45.54430851584509" lon="9.339152660798927"><ele>143.0</ele><time>2026-03-29T12:48:38.999Z</time></trkpt><trkpt lat="45.544190816529344" lon="9.339134494743059"><ele>143.0</ele><time>2026-03-29T12:48:39.999Z</time></trkpt><trkpt lat="45.54405455640032" lon="9.339116933381428"><ele>143.0</ele><time>2026-03-29T12:48:40.999Z</time></trkpt><trkpt lat="45.543919765761586" lon="9.339102204965636"><ele>143.0</ele><time>2026-03-29T12:48:41.999Z</time></trkpt><trkpt lat="45.543791205355" lon="9.339080081747417"><ele>143.0</ele><time>2026-03-29T12:48:42.999Z</time></trkpt><trkpt lat="45.543662816588416" lon="9.33905765297489"><ele>143.0</ele><time>2026-03-29T12:48:43.999Z</time></trkpt><trkpt lat="45.54353097507445" lon="9.339032580514901"><ele>143.0</ele><time>2026-03-29T12:48:44.999Z</time></trkpt><trkpt lat="45.54340391486966" lon="9.339004527262562"><ele>143.0</ele><time>2026-03-29T12:48:45.999Z</time></trkpt><trkpt lat="45.54327543243498" lon="9.338973452765703"><ele>143.0</ele><time>2026-03-29T12:48:46.999Z</time></trkpt><trkpt lat="45.54315015906926" lon="9.338932874080184"><ele>143.0</ele><time>2026-03-29T12:48:47.999Z</time></trkpt><trkpt lat="45.5430303271696" lon="9.338881560737436"><ele>142.75</ele><time>2026-03-29T12:48:48.999Z</time></trkpt><trkpt lat="45.542914683894594" lon="9.338807462609878"><ele>142.5</ele><time>2026-03-29T12:48:49.999Z</time></trkpt><trkpt lat="45.54279672379866" lon="9.338726863172472"><ele>142.25</ele><time>2026-03-29T12:48:50.999Z</time></trkpt><trkpt lat="45.542684101384445" lon="9.338641815853801"><ele>142.0</ele><time>2026-03-29T12:48:51.999Z</time></trkpt><trkpt lat="45.54257100690034" lon="9.33856353690566"><ele>141.5</ele><time>2026-03-29T12:48:52.999Z</time></trkpt><trkpt lat="45.54245691062456" lon="9.338491560231063"><ele>141.0</ele><time>2026-03-29T12:48:53.999Z</time></trkpt><trkpt lat="45.542342101739216" lon="9.338432742522926"><ele>140.5</ele><time>2026-03-29T12:48:54.999Z</time></trkpt><trkpt lat="45.542222844522534" lon="9.338393396916686"><ele>140.0</ele><time>2026-03-29T12:48:55.999Z</time></trkpt><trkpt lat="45.542098865164476" lon="9.338385837633492"><ele>140.25</ele><time>2026-03-29T12:48:56.999Z</time></trkpt><trkpt lat="45.541974041363616" lon="9.33840011597755"><ele>140.5</ele><time>2026-03-29T12:48:57.999Z</time></trkpt><trkpt lat="45.54185368847402" lon="9.33842498222705"><ele>140.75</ele><time>2026-03-29T12:48:58.999Z</time></trkpt><trkpt lat="45.54173041299615" lon="9.338449572328413"><ele>141.0</ele><time>2026-03-29T12:48:59.999Z</time></trkpt><trkpt lat="45.54160741835952" lon="9.338471611104069"><ele>141.0</ele><time>2026-03-29T12:49:00.999Z</time></trkpt><trkpt lat="45.54148465779638" lon="9.3384925369988"><ele>141.0</ele><time>2026-03-29T12:49:01.999Z</time></trkpt><trkpt lat="45.541358182118074" lon="9.338516199563456"><ele>141.0</ele><time>2026-03-29T12:49:02.999Z</time></trkpt><trkpt lat="45.541229541835925" lon="9.338538397055233"><ele>141.0</ele><time>2026-03-29T12:49:03.999Z</time></trkpt><trkpt lat="45.54110242906962" lon="9.338559037434297"><ele>141.0</ele><time>2026-03-29T12:49:05Z</time></trkpt><trkpt lat="45.54097137699488" lon="9.338583017119461"><ele>141.0</ele><time>2026-03-29T12:49:06Z</time></trkpt><trkpt lat="45.5408386270436" lon="9.338606401477756"><ele>141.0</ele><time>2026-03-29T12:49:06.999Z</time></trkpt><trkpt lat="45.540706438952355" lon="9.33861892834585"><ele>141.0</ele><time>2026-03-29T12:49:07.999Z</time></trkpt><trkpt lat="45.54056971136744" lon="9.338616251347643"><ele>141.0</ele><time>2026-03-29T12:49:08.999Z</time></trkpt><trkpt lat="45.540435545027115" lon="9.338594487615511"><ele>141.0</ele><time>2026-03-29T12:49:09.999Z</time></trkpt><trkpt lat="45.54030226647364" lon="9.338573322743988"><ele>141.0</ele><time>2026-03-29T12:49:10.999Z</time></trkpt><trkpt lat="45.54017594585557" lon="9.338555266076058"><ele>141.0</ele><time>2026-03-29T12:49:11.999Z</time></trkpt><trkpt lat="45.54004436536697" lon="9.338526989587168"><ele>140.8</ele><time>2026-03-29T12:49:12.999Z</time></trkpt><trkpt lat="45.53992963169107" lon="9.338502289382642"><ele>140.6</ele><time>2026-03-29T12:49:13.999Z</time></trkpt><trkpt lat="45.539819348599934" lon="9.338480456162905"><ele>140.4</ele><time>2026-03-29T12:49:14.999Z</time></trkpt><trkpt lat="45.53971179946446" lon="9.338454149559547"><ele>140.2</ele><time>2026-03-29T12:49:15.999Z</time></trkpt><trkpt lat="45.53960518203147" lon="9.33842762804813"><ele>140.0</ele><time>2026-03-29T12:49:16.999Z</time></trkpt><trkpt lat="45.539501731804855" lon="9.33840295823774"><ele>140.0</ele><time>2026-03-29T12:49:17.999Z</time></trkpt><trkpt lat="45.539397217520275" lon="9.338379870166102"><ele>140.0</ele><time>2026-03-29T12:49:18.999Z</time></trkpt><trkpt lat="45.53929530385269" lon="9.33836440795228"><ele>140.0</ele><time>2026-03-29T12:49:19.999Z</time></trkpt><trkpt lat="45.53920103182457" lon="9.338353782072094"><ele>140.0</ele><time>2026-03-29T12:49:20.999Z</time></trkpt><trkpt lat="45.53911535280712" lon="9.338342460236055"><ele>140.0</ele><time>2026-03-29T12:49:21.999Z</time></trkpt><trkpt lat="45.53903210938749" lon="9.338327661795994"><ele>140.0</ele><time>2026-03-29T12:49:22.999Z</time></trkpt><trkpt lat="45.53892946059781" lon="9.338256784502844"><ele>140.0</ele><time>2026-03-29T12:49:24.999Z</time></trkpt><trkpt lat="45.53887731151332" lon="9.338130850819885"><ele>140.0</ele><time>2026-03-29T12:49:26.999Z</time></trkpt><trkpt lat="45.538871633706336" lon="9.337958885254057"><ele>140.0</ele><time>2026-03-29T12:49:28.999Z</time></trkpt><trkpt lat="45.53888330122974" lon="9.33785782346574"><ele>140.0</ele><time>2026-03-29T12:49:29.999Z</time></trkpt><trkpt lat="45.538904330785265" lon="9.337744348502332"><ele>140.0</ele><time>2026-03-29T12:49:30.999Z</time></trkpt><trkpt lat="45.53890901521416" lon="9.337642891618632"><ele>140.0</ele><time>2026-03-29T12:49:31.999Z</time></trkpt><trkpt lat="45.538956892569374" lon="9.337566322645047"><ele>140.0</ele><time>2026-03-29T12:49:32.999Z</time></trkpt><trkpt lat="45.53897893406651" lon="9.337472625985418"><ele>140.0</ele><time>2026-03-29T12:49:33.999Z</time></trkpt><trkpt lat="45.53901022244889" lon="9.33738371788827"><ele>140.0</ele><time>2026-03-29T12:49:34.999Z</time></trkpt><trkpt lat="45.53893269105508" lon="9.337182168306512"><ele>140.0</ele><time>2026-03-29T12:49:36.999Z</time></trkpt><trkpt lat="45.538865784232556" lon="9.337119110620089"><ele>140.0</ele><time>2026-03-29T12:49:37.999Z</time></trkpt><trkpt lat="45.53878379260708" lon="9.337087259984578"><ele>140.0</ele><time>2026-03-29T12:49:38.999Z</time></trkpt><trkpt lat="45.53869518297952" lon="9.337080373151469"><ele>140.0</ele><time>2026-03-29T12:49:39.999Z</time></trkpt><trkpt lat="45.538593285005554" lon="9.337098442933017"><ele>140.0</ele><time>2026-03-29T12:49:40.999Z</time></trkpt><trkpt lat="45.53848696838655" lon="9.337110923353913"><ele>140.0</ele><time>2026-03-29T12:49:41.999Z</time></trkpt><trkpt lat="45.53837550587249" lon="9.337103468765068"><ele>140.0</ele><time>2026-03-29T12:49:42.999Z</time></trkpt><trkpt lat="45.53826751985562" lon="9.337087302119345"><ele>140.0</ele><time>2026-03-29T12:49:43.999Z</time></trkpt><trkpt lat="45.53815570524812" lon="9.337082388361324"><ele>140.0</ele><time>2026-03-29T12:49:44.999Z</time></trkpt><trkpt lat="45.538047391290725" lon="9.337088028313042"><ele>140.0</ele><time>2026-03-29T12:49:45.999Z</time></trkpt><trkpt lat="45.53793828509528" lon="9.337098676614456"><ele>140.0</ele><time>2026-03-29T12:49:46.999Z</time></trkpt><trkpt lat="45.53783552766057" lon="9.337134599731705"><ele>139.75</ele><time>2026-03-29T12:49:47.999Z</time></trkpt><trkpt lat="45.53771764559232" lon="9.337111057257529"><ele>139.5</ele><time>2026-03-29T12:49:48.999Z</time></trkpt><trkpt lat="45.53760615434835" lon="9.337124408319548"><ele>139.25</ele><time>2026-03-29T12:49:49.999Z</time></trkpt><trkpt lat="45.537496598507474" lon="9.337128942061865"><ele>139.0</ele><time>2026-03-29T12:49:50.999Z</time></trkpt><trkpt lat="45.53738603946875" lon="9.337135071587479"><ele>139.0</ele><time>2026-03-29T12:49:52Z</time></trkpt><trkpt lat="45.53727549093537" lon="9.337139072831423"><ele>139.0</ele><time>2026-03-29T12:49:53Z</time></trkpt><trkpt lat="45.53716206445157" lon="9.337141594045875"><ele>139.0</ele><time>2026-03-29T12:49:54Z</time></trkpt><trkpt lat="45.53705125604125" lon="9.337147117195393"><ele>139.0</ele><time>2026-03-29T12:49:55Z</time></trkpt><trkpt lat="45.536939854106926" lon="9.337149395682028"><ele>139.0</ele><time>2026-03-29T12:49:56Z</time></trkpt><trkpt lat="45.53682651206234" lon="9.337151318171973"><ele>138.8</ele><time>2026-03-29T12:49:57Z</time></trkpt><trkpt lat="45.53671179223389" lon="9.337156684671244"><ele>138.60000000000002</ele><time>2026-03-29T12:49:58Z</time></trkpt><trkpt lat="45.536597055702686" lon="9.337160207704137"><ele>138.4</ele><time>2026-03-29T12:49:59Z</time></trkpt><trkpt lat="45.53649342424807" lon="9.337162316669385"><ele>138.20000000000002</ele><time>2026-03-29T12:50:00Z</time></trkpt><trkpt lat="45.53639629563513" lon="9.337163089540692"><ele>138.0</ele><time>2026-03-29T12:50:01Z</time></trkpt><trkpt lat="45.53630234839184" lon="9.337168191859092"><ele>138.4</ele><time>2026-03-29T12:50:02Z</time></trkpt><trkpt lat="45.53620596290682" lon="9.337170199060793"><ele>138.8</ele><time>2026-03-29T12:50:03Z</time></trkpt><trkpt lat="45.53610961167685" lon="9.337178787682832"><ele>139.2</ele><time>2026-03-29T12:50:04Z</time></trkpt><trkpt lat="45.53601343412092" lon="9.337184759591786"><ele>139.6</ele><time>2026-03-29T12:50:05Z</time></trkpt><trkpt lat="45.5359019880566" lon="9.337188657767646"><ele>140.0</ele><time>2026-03-29T12:50:06Z</time></trkpt><trkpt lat="45.53578886627456" lon="9.337191773587639"><ele>140.0</ele><time>2026-03-29T12:50:07Z</time></trkpt><trkpt lat="45.5356767008246" lon="9.337194431063764"><ele>140.0</ele><time>2026-03-29T12:50:08Z</time></trkpt><trkpt lat="45.535563553985384" lon="9.337197375981317"><ele>140.0</ele><time>2026-03-29T12:50:09Z</time></trkpt><trkpt lat="45.53544810294143" lon="9.337199392545585"><ele>140.0</ele><time>2026-03-29T12:50:10Z</time></trkpt><trkpt lat="45.5353314117032" lon="9.337201104114623"><ele>139.75</ele><time>2026-03-29T12:50:11Z</time></trkpt><trkpt lat="45.535207766952574" lon="9.337208033973731"><ele>139.5</ele><time>2026-03-29T12:50:12Z</time></trkpt><trkpt lat="45.53508575857037" lon="9.337212764397053"><ele>139.25</ele><time>2026-03-29T12:50:13Z</time></trkpt><trkpt lat="45.53495991772384" lon="9.337219265774761"><ele>139.0</ele><time>2026-03-29T12:50:14Z</time></trkpt><trkpt lat="45.534834309033066" lon="9.337225987076433"><ele>139.0</ele><time>2026-03-29T12:50:15Z</time></trkpt><trkpt lat="45.534708481893325" lon="9.337232413101587"><ele>139.0</ele><time>2026-03-29T12:50:16Z</time></trkpt><trkpt lat="45.534582551889834" lon="9.337238810289769"><ele>139.0</ele><time>2026-03-29T12:50:17Z</time></trkpt><trkpt lat="45.53445517277455" lon="9.337237553386574"><ele>139.0</ele><time>2026-03-29T12:50:18Z</time></trkpt><trkpt lat="45.5343286327387" lon="9.337238662462564"><ele>138.75</ele><time>2026-03-29T12:50:19Z</time></trkpt><trkpt lat="45.53420431851563" lon="9.337241796672307"><ele>138.5</ele><time>2026-03-29T12:50:20Z</time></trkpt><trkpt lat="45.53408325511027" lon="9.337248313051889"><ele>138.25</ele><time>2026-03-29T12:50:21Z</time></trkpt><trkpt lat="45.53396330278424" lon="9.337255145458835"><ele>138.0</ele><time>2026-03-29T12:50:22Z</time></trkpt><trkpt lat="45.53384603293551" lon="9.337260818173108"><ele>138.0</ele><time>2026-03-29T12:50:23Z</time></trkpt><trkpt lat="45.53372965130837" lon="9.337263863830799"><ele>138.0</ele><time>2026-03-29T12:50:24Z</time></trkpt><trkpt lat="45.53361497045969" lon="9.337268692915371"><ele>138.0</ele><time>2026-03-29T12:50:25Z</time></trkpt><trkpt lat="45.53350153706286" lon="9.33727669626121"><ele>138.0</ele><time>2026-03-29T12:50:26Z</time></trkpt><trkpt lat="45.53338955777667" lon="9.33727977092798"><ele>137.8</ele><time>2026-03-29T12:50:27Z</time></trkpt><trkpt lat="45.53327996716845" lon="9.337283995874797"><ele>137.60000000000002</ele><time>2026-03-29T12:50:28Z</time></trkpt><trkpt lat="45.53317081057536" lon="9.337286795653258"><ele>137.39999999999998</ele><time>2026-03-29T12:50:29Z</time></trkpt><trkpt lat="45.533072155485705" lon="9.337282752599071"><ele>137.2</ele><time>2026-03-29T12:50:30Z</time></trkpt><trkpt lat="45.53297736995277" lon="9.337278578309327"><ele>137.0</ele><time>2026-03-29T12:50:31Z</time></trkpt><trkpt lat="45.53289119429949" lon="9.3372573520256"><ele>136.83333333333331</ele><time>2026-03-29T12:50:32Z</time></trkpt><trkpt lat="45.53281733558643" lon="9.33722018872684"><ele>136.66666666666666</ele><time>2026-03-29T12:50:33Z</time></trkpt><trkpt lat="45.532746547437306" lon="9.337167783883238"><ele>136.5</ele><time>2026-03-29T12:50:34Z</time></trkpt><trkpt lat="45.53268243788637" lon="9.337082797268268"><ele>136.33333333333334</ele><time>2026-03-29T12:50:35Z</time></trkpt><trkpt lat="45.53264895737982" lon="9.336956832763548"><ele>136.16666666666669</ele><time>2026-03-29T12:50:36Z</time></trkpt><trkpt lat="45.532596635281294" lon="9.33683225813398"><ele>136.0</ele><time>2026-03-29T12:50:37Z</time></trkpt><trkpt lat="45.532571668128625" lon="9.336686795849078"><ele>136.0</ele><time>2026-03-29T12:50:38Z</time></trkpt><trkpt lat="45.53254890789961" lon="9.336533829551836"><ele>136.0</ele><time>2026-03-29T12:50:39Z</time></trkpt><trkpt lat="45.53252685662968" lon="9.336377226140284"><ele>136.0</ele><time>2026-03-29T12:50:40Z</time></trkpt><trkpt lat="45.53250309806178" lon="9.336217687762584"><ele>136.0</ele><time>2026-03-29T12:50:41Z</time></trkpt><trkpt lat="45.53249522950807" lon="9.336049620231824"><ele>135.75</ele><time>2026-03-29T12:50:42Z</time></trkpt><trkpt lat="45.53247509543249" lon="9.335882537177547"><ele>135.5</ele><time>2026-03-29T12:50:43Z</time></trkpt><trkpt lat="45.532455624226635" lon="9.33572308522024"><ele>135.25</ele><time>2026-03-29T12:50:44Z</time></trkpt><trkpt lat="45.532435611328644" lon="9.33556428660851"><ele>135.0</ele><time>2026-03-29T12:50:45Z</time></trkpt><trkpt lat="45.53240825352654" lon="9.335397209824276"><ele>135.0</ele><time>2026-03-29T12:50:46Z</time></trkpt><trkpt lat="45.53238131368051" lon="9.335239769383408"><ele>135.0</ele><time>2026-03-29T12:50:47Z</time></trkpt><trkpt lat="45.53236221181637" lon="9.33507706070254"><ele>135.0</ele><time>2026-03-29T12:50:48Z</time></trkpt><trkpt lat="45.53234045835621" lon="9.33492189095419"><ele>135.0</ele><time>2026-03-29T12:50:49Z</time></trkpt><trkpt lat="45.53234637797677" lon="9.334775099177081"><ele>135.0</ele><time>2026-03-29T12:50:50Z</time></trkpt><trkpt lat="45.532336090449014" lon="9.334622383416265"><ele>135.33333333333334</ele><time>2026-03-29T12:50:51Z</time></trkpt><trkpt lat="45.532313680169366" lon="9.334464326176535"><ele>135.66666666666669</ele><time>2026-03-29T12:50:52Z</time></trkpt><trkpt lat="45.53230157348335" lon="9.334142660448494"><ele>136.0</ele><time>2026-03-29T12:50:54Z</time></trkpt><trkpt lat="45.53228972950423" lon="9.333982615912074"><ele>135.75</ele><time>2026-03-29T12:50:55Z</time></trkpt><trkpt lat="45.53227833917376" lon="9.33381710297175"><ele>135.5</ele><time>2026-03-29T12:50:56Z</time></trkpt><trkpt lat="45.53226791999577" lon="9.333650202946203"><ele>135.25</ele><time>2026-03-29T12:50:57Z</time></trkpt><trkpt lat="45.53226025204192" lon="9.333487061924144"><ele>135.0</ele><time>2026-03-29T12:50:58Z</time></trkpt><trkpt lat="45.53224652682234" lon="9.33332531446924"><ele>135.0</ele><time>2026-03-29T12:50:59Z</time></trkpt><trkpt lat="45.532235548758855" lon="9.333158043461493"><ele>135.0</ele><time>2026-03-29T12:51:00Z</time></trkpt><trkpt lat="45.532226191027576" lon="9.3329917342008"><ele>135.0</ele><time>2026-03-29T12:51:01Z</time></trkpt><trkpt lat="45.532217125327215" lon="9.332827718521445"><ele>135.0</ele><time>2026-03-29T12:51:02Z</time></trkpt><trkpt lat="45.532208221893455" lon="9.33266071624255"><ele>135.0</ele><time>2026-03-29T12:51:03Z</time></trkpt><trkpt lat="45.532200479854524" lon="9.332496281132151"><ele>135.0</ele><time>2026-03-29T12:51:04Z</time></trkpt><trkpt lat="45.53218874981655" lon="9.332335264412704"><ele>135.0</ele><time>2026-03-29T12:51:05Z</time></trkpt><trkpt lat="45.5321739646868" lon="9.33217702468891"><ele>135.0</ele><time>2026-03-29T12:51:06Z</time></trkpt><trkpt lat="45.532159253151185" lon="9.33202601671564"><ele>135.0</ele><time>2026-03-29T12:51:07Z</time></trkpt><trkpt lat="45.532145032529094" lon="9.331881900728463"><ele>135.0</ele><time>2026-03-29T12:51:08Z</time></trkpt><trkpt lat="45.532140042833504" lon="9.331739647765756"><ele>135.0</ele><time>2026-03-29T12:51:09Z</time></trkpt><trkpt lat="45.53213858066793" lon="9.331601688464973"><ele>135.0</ele><time>2026-03-29T12:51:10Z</time></trkpt><trkpt lat="45.53213415346559" lon="9.331453143224994"><ele>135.0</ele><time>2026-03-29T12:51:11Z</time></trkpt><trkpt lat="45.532130412855146" lon="9.33130174523718"><ele>135.0</ele><time>2026-03-29T12:51:12Z</time></trkpt><trkpt lat="45.53212634419954" lon="9.331146333597738"><ele>135.0</ele><time>2026-03-29T12:51:12.999Z</time></trkpt><trkpt lat="45.532113400859956" lon="9.330989597377068"><ele>135.0</ele><time>2026-03-29T12:51:13.999Z</time></trkpt><trkpt lat="45.53210767307804" lon="9.330833988589141"><ele>135.0</ele><time>2026-03-29T12:51:14.999Z</time></trkpt><trkpt lat="45.53210208969847" lon="9.330678954486002"><ele>135.0</ele><time>2026-03-29T12:51:15.999Z</time></trkpt><trkpt lat="45.53209137582289" lon="9.330536527922295"><ele>135.0</ele><time>2026-03-29T12:51:16.999Z</time></trkpt><trkpt lat="45.532085204256184" lon="9.330392279452237"><ele>135.0</ele><time>2026-03-29T12:51:17.999Z</time></trkpt><trkpt lat="45.53208144793207" lon="9.330268534762682"><ele>135.0</ele><time>2026-03-29T12:51:18.999Z</time></trkpt><trkpt lat="45.53207324833802" lon="9.330148859424414"><ele>135.0</ele><time>2026-03-29T12:51:19.999Z</time></trkpt><trkpt lat="45.53206164330731" lon="9.330036373648904"><ele>135.0</ele><time>2026-03-29T12:51:20.999Z</time></trkpt><trkpt lat="45.53206042489791" lon="9.329943695106932"><ele>135.0</ele><time>2026-03-29T12:51:21.999Z</time></trkpt><trkpt lat="45.53208890031992" lon="9.329785620732922"><ele>135.0</ele><time>2026-03-29T12:51:23.999Z</time></trkpt><trkpt lat="45.53206939043977" lon="9.329666476083297"><ele>135.2</ele><time>2026-03-29T12:51:25.999Z</time></trkpt><trkpt lat="45.53194915894249" lon="9.329683271213383"><ele>135.4</ele><time>2026-03-29T12:51:27.999Z</time></trkpt><trkpt lat="45.53189082836883" lon="9.32977793405151"><ele>135.6</ele><time>2026-03-29T12:51:28.999Z</time></trkpt><trkpt lat="45.53181141909165" lon="9.3298034057486"><ele>135.8</ele><time>2026-03-29T12:51:29.999Z</time></trkpt><trkpt lat="45.53172763857464" lon="9.329814413358902"><ele>136.0</ele><time>2026-03-29T12:51:31Z</time></trkpt><trkpt lat="45.53163567411378" lon="9.329818759095089"><ele>136.0</ele><time>2026-03-29T12:51:32Z</time></trkpt><trkpt lat="45.531535071420386" lon="9.329836273500161"><ele>136.0</ele><time>2026-03-29T12:51:33Z</time></trkpt><trkpt lat="45.53143124296602" lon="9.329859005586304"><ele>136.0</ele><time>2026-03-29T12:51:34Z</time></trkpt><trkpt lat="45.53132820194618" lon="9.329882205725704"><ele>136.0</ele><time>2026-03-29T12:51:35Z</time></trkpt><trkpt lat="45.5312233912373" lon="9.329902813794808"><ele>136.0</ele><time>2026-03-29T12:51:36Z</time></trkpt><trkpt lat="45.531119713605015" lon="9.32992192033819"><ele>135.8</ele><time>2026-03-29T12:51:37Z</time></trkpt><trkpt lat="45.53101663929661" lon="9.329938757211595"><ele>135.6</ele><time>2026-03-29T12:51:38Z</time></trkpt><trkpt lat="45.530912164924196" lon="9.329954627882506"><ele>135.4</ele><time>2026-03-29T12:51:39Z</time></trkpt><trkpt lat="45.530805077069296" lon="9.329977094210191"><ele>135.2</ele><time>2026-03-29T12:51:40Z</time></trkpt><trkpt lat="45.53069851496836" lon="9.329989974659547"><ele>135.0</ele><time>2026-03-29T12:51:41Z</time></trkpt><trkpt lat="45.53059213884994" lon="9.330002988813563"><ele>135.0</ele><time>2026-03-29T12:51:42Z</time></trkpt><trkpt lat="45.53048520143209" lon="9.330030357172541"><ele>135.0</ele><time>2026-03-29T12:51:43Z</time></trkpt><trkpt lat="45.530374798806996" lon="9.330047052682366"><ele>135.0</ele><time>2026-03-29T12:51:44Z</time></trkpt><trkpt lat="45.53026168061869" lon="9.330070409887565"><ele>135.0</ele><time>2026-03-29T12:51:45Z</time></trkpt><trkpt lat="45.530151129723905" lon="9.330094057437833"><ele>135.0</ele><time>2026-03-29T12:51:46Z</time></trkpt><trkpt lat="45.53003932826139" lon="9.330114501554144"><ele>135.0</ele><time>2026-03-29T12:51:47Z</time></trkpt><trkpt lat="45.529926764428794" lon="9.330133700898743"><ele>135.0</ele><time>2026-03-29T12:51:48Z</time></trkpt><trkpt lat="45.52981782443668" lon="9.33014907853624"><ele>135.0</ele><time>2026-03-29T12:51:49Z</time></trkpt><trkpt lat="45.52972031729938" lon="9.330163019406777"><ele>135.0</ele><time>2026-03-29T12:51:50Z</time></trkpt><trkpt lat="45.52963547146687" lon="9.33017616345644"><ele>135.0</ele><time>2026-03-29T12:51:51Z</time></trkpt><trkpt lat="45.52956234304117" lon="9.330190959766934"><ele>134.83333333333334</ele><time>2026-03-29T12:51:52Z</time></trkpt><trkpt lat="45.52949107933149" lon="9.330199862450781"><ele>134.66666666666666</ele><time>2026-03-29T12:51:53Z</time></trkpt><trkpt lat="45.529416184428094" lon="9.330209155823018"><ele>134.5</ele><time>2026-03-29T12:51:54Z</time></trkpt><trkpt lat="45.52933929541687" lon="9.33022698248275"><ele>134.33333333333331</ele><time>2026-03-29T12:51:55Z</time></trkpt><trkpt lat="45.52924881247938" lon="9.330252676327921"><ele>134.16666666666666</ele><time>2026-03-29T12:51:56Z</time></trkpt><trkpt lat="45.52915906113235" lon="9.330272247528834"><ele>134.0</ele><time>2026-03-29T12:51:57Z</time></trkpt><trkpt lat="45.52906747237167" lon="9.330287861466408"><ele>134.0</ele><time>2026-03-29T12:51:58Z</time></trkpt><trkpt lat="45.528969485047206" lon="9.330306112046832"><ele>134.0</ele><time>2026-03-29T12:51:59Z</time></trkpt><trkpt lat="45.528869038868976" lon="9.330324695331676"><ele>134.0</ele><time>2026-03-29T12:52:00Z</time></trkpt><trkpt lat="45.52876478934768" lon="9.33035133465552"><ele>134.0</ele><time>2026-03-29T12:52:01Z</time></trkpt><trkpt lat="45.52865508755459" lon="9.33036633971041"><ele>134.0</ele><time>2026-03-29T12:52:02Z</time></trkpt><trkpt lat="45.528545743444575" lon="9.33038236174057"><ele>134.2</ele><time>2026-03-29T12:52:03Z</time></trkpt><trkpt lat="45.528439666746955" lon="9.330399688485446"><ele>134.4</ele><time>2026-03-29T12:52:04Z</time></trkpt><trkpt lat="45.528344975073" lon="9.330415542207902"><ele>134.6</ele><time>2026-03-29T12:52:05Z</time></trkpt><trkpt lat="45.5282535376965" lon="9.330432221138425"><ele>134.8</ele><time>2026-03-29T12:52:06Z</time></trkpt><trkpt lat="45.52816391804875" lon="9.33044868299081"><ele>135.0</ele><time>2026-03-29T12:52:07Z</time></trkpt><trkpt lat="45.52807548497376" lon="9.330477500526351"><ele>135.0</ele><time>2026-03-29T12:52:08Z</time></trkpt><trkpt lat="45.5279921714265" lon="9.330495328942705"><ele>135.0</ele><time>2026-03-29T12:52:09Z</time></trkpt><trkpt lat="45.52790709850842" lon="9.330503657585082"><ele>135.0</ele><time>2026-03-29T12:52:10Z</time></trkpt><trkpt lat="45.52783058145019" lon="9.330514953223075"><ele>135.0</ele><time>2026-03-29T12:52:11Z</time></trkpt><trkpt lat="45.52775188724398" lon="9.330536294053038"><ele>135.0</ele><time>2026-03-29T12:52:12Z</time></trkpt><trkpt lat="45.52768675995885" lon="9.330552126126301"><ele>135.0</ele><time>2026-03-29T12:52:13Z</time></trkpt><trkpt lat="45.52758646203965" lon="9.330567202005794"><ele>134.6</ele><time>2026-03-29T12:52:15Z</time></trkpt><trkpt lat="45.52751064755071" lon="9.330430264558347"><ele>134.2</ele><time>2026-03-29T12:52:18Z</time></trkpt><trkpt lat="45.527505256904654" lon="9.330326479559877"><ele>133.8</ele><time>2026-03-29T12:52:19Z</time></trkpt><trkpt lat="45.527501001131604" lon="9.330233735523715"><ele>133.4</ele><time>2026-03-29T12:52:20Z</time></trkpt><trkpt lat="45.52749071911692" lon="9.330100633181955"><ele>133.0</ele><time>2026-03-29T12:52:21Z</time></trkpt><trkpt lat="45.527481329862134" lon="9.329940934672837"><ele>133.0</ele><time>2026-03-29T12:52:22Z</time></trkpt><trkpt lat="45.527468896245914" lon="9.329793601584017"><ele>133.0</ele><time>2026-03-29T12:52:23Z</time></trkpt><trkpt lat="45.52746108424166" lon="9.329637182962337"><ele>133.0</ele><time>2026-03-29T12:52:24Z</time></trkpt><trkpt lat="45.52745787049316" lon="9.32946853077003"><ele>133.0</ele><time>2026-03-29T12:52:25Z</time></trkpt><trkpt lat="45.52744208323501" lon="9.32934892454981"><ele>133.0</ele><time>2026-03-29T12:52:26Z</time></trkpt><trkpt lat="45.52743642380488" lon="9.329179897874633"><ele>133.25</ele><time>2026-03-29T12:52:27Z</time></trkpt><trkpt lat="45.527434198751074" lon="9.329016673978838"><ele>133.5</ele><time>2026-03-29T12:52:28Z</time></trkpt><trkpt lat="45.527422250698685" lon="9.328851899020771"><ele>133.75</ele><time>2026-03-29T12:52:29Z</time></trkpt><trkpt lat="45.527416409871485" lon="9.32867899755879"><ele>134.0</ele><time>2026-03-29T12:52:30Z</time></trkpt><trkpt lat="45.52740044040741" lon="9.328505556154878"><ele>134.0</ele><time>2026-03-29T12:52:31Z</time></trkpt><trkpt lat="45.527385334777364" lon="9.328345840174332"><ele>134.0</ele><time>2026-03-29T12:52:32Z</time></trkpt><trkpt lat="45.527369720181184" lon="9.328193667432549"><ele>134.0</ele><time>2026-03-29T12:52:33Z</time></trkpt><trkpt lat="45.52736318891996" lon="9.328054184758527"><ele>134.0</ele><time>2026-03-29T12:52:34Z</time></trkpt><trkpt lat="45.52735561538131" lon="9.32791170862328"><ele>134.0</ele><time>2026-03-29T12:52:35Z</time></trkpt><trkpt lat="45.52734609621807" lon="9.327763535890085"><ele>134.2</ele><time>2026-03-29T12:52:36Z</time></trkpt><trkpt lat="45.527332762919166" lon="9.327628529418414"><ele>134.4</ele><time>2026-03-29T12:52:37Z</time></trkpt><trkpt lat="45.52732410305666" lon="9.327496176944706"><ele>134.6</ele><time>2026-03-29T12:52:38Z</time></trkpt><trkpt lat="45.52731398111312" lon="9.32735938574765"><ele>134.8</ele><time>2026-03-29T12:52:39Z</time></trkpt><trkpt lat="45.52730173519557" lon="9.32722044956925"><ele>135.0</ele><time>2026-03-29T12:52:40Z</time></trkpt><trkpt lat="45.5272885578403" lon="9.327083622442832"><ele>135.0</ele><time>2026-03-29T12:52:41Z</time></trkpt><trkpt lat="45.5272744379133" lon="9.326943652347987"><ele>135.0</ele><time>2026-03-29T12:52:42Z</time></trkpt><trkpt lat="45.52726433183037" lon="9.326815565643896"><ele>135.0</ele><time>2026-03-29T12:52:43Z</time></trkpt><trkpt lat="45.52725481461364" lon="9.326701052112737"><ele>135.0</ele><time>2026-03-29T12:52:44Z</time></trkpt><trkpt lat="45.52724851068736" lon="9.326600125879454"><ele>135.0</ele><time>2026-03-29T12:52:45Z</time></trkpt><trkpt lat="45.52725837815201" lon="9.326507424496166"><ele>135.0</ele><time>2026-03-29T12:52:46Z</time></trkpt><trkpt lat="45.52724479721783" lon="9.32639292980951"><ele>135.25</ele><time>2026-03-29T12:52:48Z</time></trkpt><trkpt lat="45.52724040085576" lon="9.326280329297525"><ele>135.5</ele><time>2026-03-29T12:52:50Z</time></trkpt><trkpt lat="45.52716974223672" lon="9.326130721884423"><ele>135.75</ele><time>2026-03-29T12:52:54Z</time></trkpt><trkpt lat="45.52701863136226" lon="9.326251677601093"><ele>136.0</ele><time>2026-03-29T12:52:56Z</time></trkpt><trkpt lat="45.526947425909846" lon="9.326269142634374"><ele>135.6</ele><time>2026-03-29T12:52:57Z</time></trkpt><trkpt lat="45.526850428112006" lon="9.326286552530641"><ele>135.2</ele><time>2026-03-29T12:52:58Z</time></trkpt><trkpt lat="45.52674596177875" lon="9.326298401370899"><ele>134.8</ele><time>2026-03-29T12:52:59Z</time></trkpt><trkpt lat="45.526633170175536" lon="9.326311005158399"><ele>134.4</ele><time>2026-03-29T12:53:00Z</time></trkpt><trkpt lat="45.526524963998284" lon="9.326322884748468"><ele>134.0</ele><time>2026-03-29T12:53:01Z</time></trkpt><trkpt lat="45.526414701742695" lon="9.326334935858972"><ele>134.0</ele><time>2026-03-29T12:53:02Z</time></trkpt><trkpt lat="45.52630607880808" lon="9.326348546876277"><ele>134.0</ele><time>2026-03-29T12:53:03Z</time></trkpt><trkpt lat="45.52620563117782" lon="9.326367079247984"><ele>134.0</ele><time>2026-03-29T12:53:04Z</time></trkpt><trkpt lat="45.526105948840694" lon="9.326389018245017"><ele>134.0</ele><time>2026-03-29T12:53:05Z</time></trkpt><trkpt lat="45.526008780563025" lon="9.326414381781385"><ele>134.0</ele><time>2026-03-29T12:53:06Z</time></trkpt><trkpt lat="45.525916180157296" lon="9.326458348362834"><ele>134.0</ele><time>2026-03-29T12:53:07Z</time></trkpt><trkpt lat="45.52584325560512" lon="9.326503003628522"><ele>134.0</ele><time>2026-03-29T12:53:08Z</time></trkpt><trkpt lat="45.525768358467374" lon="9.326548666293366"><ele>134.0</ele><time>2026-03-29T12:53:09Z</time></trkpt><trkpt lat="45.52569788213032" lon="9.326582322512056"><ele>134.0</ele><time>2026-03-29T12:53:10Z</time></trkpt><trkpt lat="45.52563230085048" lon="9.326608087979167"><ele>134.0</ele><time>2026-03-29T12:53:11Z</time></trkpt><trkpt lat="45.525568499698004" lon="9.326605814965726"><ele>134.0</ele><time>2026-03-29T12:53:12Z</time></trkpt><trkpt lat="45.52549857538237" lon="9.32658682124434"><ele>134.0</ele><time>2026-03-29T12:53:13Z</time></trkpt><trkpt lat="45.52541996920601" lon="9.326595229972556"><ele>134.0</ele><time>2026-03-29T12:53:14Z</time></trkpt><trkpt lat="45.525345146913935" lon="9.326640341732514"><ele>134.0</ele><time>2026-03-29T12:53:15Z</time></trkpt><trkpt lat="45.525258784011804" lon="9.326679004957489"><ele>134.0</ele><time>2026-03-29T12:53:16Z</time></trkpt><trkpt lat="45.52515966955182" lon="9.326704439008754"><ele>134.0</ele><time>2026-03-29T12:53:17.001Z</time></trkpt><trkpt lat="45.52505888582463" lon="9.326706460447307"><ele>134.0</ele><time>2026-03-29T12:53:18.001Z</time></trkpt><trkpt lat="45.52495633522664" lon="9.32670849851974"><ele>134.0</ele><time>2026-03-29T12:53:19Z</time></trkpt><trkpt lat="45.524855693545334" lon="9.326720551835308"><ele>134.0</ele><time>2026-03-29T12:53:20Z</time></trkpt><trkpt lat="45.52474332904011" lon="9.32672152243872"><ele>134.0</ele><time>2026-03-29T12:53:21Z</time></trkpt><trkpt lat="45.524634727308445" lon="9.326733203441208"><ele>134.0</ele><time>2026-03-29T12:53:22Z</time></trkpt><trkpt lat="45.524529896636" lon="9.326748700200596"><ele>134.0</ele><time>2026-03-29T12:53:23Z</time></trkpt><trkpt lat="45.524423149931785" lon="9.326747541888091"><ele>134.2</ele><time>2026-03-29T12:53:24Z</time></trkpt><trkpt lat="45.524311738083526" lon="9.326758408579076"><ele>134.4</ele><time>2026-03-29T12:53:25Z</time></trkpt><trkpt lat="45.52420169786216" lon="9.32675853721006"><ele>134.6</ele><time>2026-03-29T12:53:26Z</time></trkpt><trkpt lat="45.524098999291446" lon="9.326774620318284"><ele>134.8</ele><time>2026-03-29T12:53:27Z</time></trkpt><trkpt lat="45.52399288704626" lon="9.326781850741353"><ele>135.0</ele><time>2026-03-29T12:53:28Z</time></trkpt><trkpt lat="45.523891933694756" lon="9.326781780206739"><ele>135.0</ele><time>2026-03-29T12:53:29Z</time></trkpt><trkpt lat="45.52379282324521" lon="9.326790851679739"><ele>135.0</ele><time>2026-03-29T12:53:30Z</time></trkpt><trkpt lat="45.52369756896415" lon="9.326795795490757"><ele>135.0</ele><time>2026-03-29T12:53:31Z</time></trkpt><trkpt lat="45.52359999489244" lon="9.326808012031451"><ele>135.0</ele><time>2026-03-29T12:53:32Z</time></trkpt><trkpt lat="45.523504182569546" lon="9.326816656798778"><ele>135.0</ele><time>2026-03-29T12:53:33Z</time></trkpt><trkpt lat="45.523411265928466" lon="9.326820892793906"><ele>135.0</ele><time>2026-03-29T12:53:34Z</time></trkpt><trkpt lat="45.52332479369222" lon="9.326828171337368"><ele>135.0</ele><time>2026-03-29T12:53:35Z</time></trkpt><trkpt lat="45.5232496998303" lon="9.326831497801717"><ele>135.0</ele><time>2026-03-29T12:53:36Z</time></trkpt><trkpt lat="45.523177621818824" lon="9.32683005557816"><ele>135.0</ele><time>2026-03-29T12:53:37Z</time></trkpt><trkpt lat="45.52308797304083" lon="9.326774387093456"><ele>135.0</ele><time>2026-03-29T12:53:39Z</time></trkpt><trkpt lat="45.52305395566079" lon="9.326623139544822"><ele>135.0</ele><time>2026-03-29T12:53:41Z</time></trkpt><trkpt lat="45.52299242581678" lon="9.326482225900088"><ele>135.0</ele><time>2026-03-29T12:53:43Z</time></trkpt><trkpt lat="45.5229350060947" lon="9.326396096555783"><ele>135.0</ele><time>2026-03-29T12:53:45Z</time></trkpt><trkpt lat="45.52286022130777" lon="9.326475814421315"><ele>135.0</ele><time>2026-03-29T12:53:46Z</time></trkpt><trkpt lat="45.52282856737478" lon="9.326601353088643"><ele>135.0</ele><time>2026-03-29T12:53:48Z</time></trkpt><trkpt lat="45.52282500195386" lon="9.326775211492093"><ele>135.0</ele><time>2026-03-29T12:53:50Z</time></trkpt><trkpt lat="45.52278660897025" lon="9.32684843833965"><ele>134.83333333333334</ele><time>2026-03-29T12:53:51Z</time></trkpt><trkpt lat="45.52272516191699" lon="9.326890396122716"><ele>134.66666666666666</ele><time>2026-03-29T12:53:52Z</time></trkpt><trkpt lat="45.52265047111994" lon="9.326901234509336"><ele>134.5</ele><time>2026-03-29T12:53:53Z</time></trkpt><trkpt lat="45.52256292130477" lon="9.326901646725654"><ele>134.33333333333331</ele><time>2026-03-29T12:53:54Z</time></trkpt><trkpt lat="45.522477064430575" lon="9.326900285760727"><ele>134.16666666666666</ele><time>2026-03-29T12:53:55Z</time></trkpt><trkpt lat="45.52238877342455" lon="9.32690209417681"><ele>134.0</ele><time>2026-03-29T12:53:56Z</time></trkpt><trkpt lat="45.52228450289749" lon="9.326912540642025"><ele>134.0</ele><time>2026-03-29T12:53:57Z</time></trkpt><trkpt lat="45.522167009978055" lon="9.326931736718988"><ele>134.0</ele><time>2026-03-29T12:53:58Z</time></trkpt><trkpt lat="45.52205983687104" lon="9.326931195817076"><ele>134.0</ele><time>2026-03-29T12:53:59Z</time></trkpt><trkpt lat="45.52195153218241" lon="9.326943522654837"><ele>134.0</ele><time>2026-03-29T12:54:00Z</time></trkpt><trkpt lat="45.5218390976414" lon="9.326955415675284"><ele>134.0</ele><time>2026-03-29T12:54:01Z</time></trkpt><trkpt lat="45.52172534958623" lon="9.32695650815864"><ele>133.8</ele><time>2026-03-29T12:54:02Z</time></trkpt><trkpt lat="45.52161456794217" lon="9.326960518276005"><ele>133.60000000000002</ele><time>2026-03-29T12:54:03Z</time></trkpt><trkpt lat="45.52151565081685" lon="9.32697626725475"><ele>133.4</ele><time>2026-03-29T12:54:04Z</time></trkpt><trkpt lat="45.52140587355417" lon="9.32698054568443"><ele>133.20000000000002</ele><time>2026-03-29T12:54:05Z</time></trkpt><trkpt lat="45.521299725456316" lon="9.326987384504296"><ele>133.0</ele><time>2026-03-29T12:54:06Z</time></trkpt><trkpt lat="45.52119239217097" lon="9.326991190832858"><ele>133.0</ele><time>2026-03-29T12:54:07Z</time></trkpt><trkpt lat="45.52108644371434" lon="9.326996753624158"><ele>133.0</ele><time>2026-03-29T12:54:08Z</time></trkpt><trkpt lat="45.52098678712119" lon="9.32699741071075"><ele>133.0</ele><time>2026-03-29T12:54:09Z</time></trkpt><trkpt lat="45.52088516416866" lon="9.327001581505018"><ele>133.0</ele><time>2026-03-29T12:54:10Z</time></trkpt><trkpt lat="45.52078544120796" lon="9.327007396160258"><ele>133.0</ele><time>2026-03-29T12:54:11Z</time></trkpt><trkpt lat="45.520698621621065" lon="9.327005977119983"><ele>133.0</ele><time>2026-03-29T12:54:12Z</time></trkpt><trkpt lat="45.520608055513115" lon="9.327002800308657"><ele>133.0</ele><time>2026-03-29T12:54:13Z</time></trkpt><trkpt lat="45.52052200901012" lon="9.32698763298891"><ele>133.0</ele><time>2026-03-29T12:54:14Z</time></trkpt><trkpt lat="45.520446447082605" lon="9.326964637777914"><ele>133.0</ele><time>2026-03-29T12:54:15Z</time></trkpt><trkpt lat="45.52037943779471" lon="9.326940824590134"><ele>133.0</ele><time>2026-03-29T12:54:16Z</time></trkpt><trkpt lat="45.520315598849486" lon="9.326897269841318"><ele>133.0</ele><time>2026-03-29T12:54:18Z</time></trkpt><trkpt lat="45.52023861668104" lon="9.326820846278272"><ele>132.5</ele><time>2026-03-29T12:54:20Z</time></trkpt><trkpt lat="45.52012807282217" lon="9.326900281300906"><ele>132.0</ele><time>2026-03-29T12:54:22Z</time></trkpt><trkpt lat="45.52007612508033" lon="9.326978209800265"><ele>131.5</ele><time>2026-03-29T12:54:23Z</time></trkpt><trkpt lat="45.52002387963545" lon="9.327033186414617"><ele>131.0</ele><time>2026-03-29T12:54:24Z</time></trkpt><trkpt lat="45.519944477284085" lon="9.327068724436476"><ele>130.5</ele><time>2026-03-29T12:54:25Z</time></trkpt><trkpt lat="45.519853845952156" lon="9.327068985667676"><ele>130.0</ele><time>2026-03-29T12:54:26Z</time></trkpt><trkpt lat="45.51975989320186" lon="9.327056758451883"><ele>130.0</ele><time>2026-03-29T12:54:27Z</time></trkpt><trkpt lat="45.519663941703065" lon="9.327052628122095"><ele>130.0</ele><time>2026-03-29T12:54:28Z</time></trkpt><trkpt lat="45.51956571139228" lon="9.327060746812037"><ele>130.0</ele><time>2026-03-29T12:54:29Z</time></trkpt><trkpt lat="45.51947317613058" lon="9.327070530653398"><ele>130.0</ele><time>2026-03-29T12:54:30Z</time></trkpt><trkpt lat="45.519373913969204" lon="9.327073973220681"><ele>130.0</ele><time>2026-03-29T12:54:31Z</time></trkpt><trkpt lat="45.51927950087845" lon="9.327074860762464"><ele>130.0</ele><time>2026-03-29T12:54:32Z</time></trkpt><trkpt lat="45.51919327687338" lon="9.327075702973653"><ele>130.0</ele><time>2026-03-29T12:54:33Z</time></trkpt><trkpt lat="45.51910201949772" lon="9.32707454064165"><ele>130.0</ele><time>2026-03-29T12:54:34Z</time></trkpt><trkpt lat="45.51900273766785" lon="9.327085264672863"><ele>130.0</ele><time>2026-03-29T12:54:35.001Z</time></trkpt><trkpt lat="45.51890126786492" lon="9.327091429554773"><ele>130.0</ele><time>2026-03-29T12:54:36.001Z</time></trkpt><trkpt lat="45.51879329335337" lon="9.327099511988973"><ele>129.8</ele><time>2026-03-29T12:54:37.001Z</time></trkpt><trkpt lat="45.51868486022394" lon="9.32709919397332"><ele>129.6</ele><time>2026-03-29T12:54:38.001Z</time></trkpt><trkpt lat="45.518576357269964" lon="9.327100336570407"><ele>129.4</ele><time>2026-03-29T12:54:39.001Z</time></trkpt><trkpt lat="45.51847037727785" lon="9.327099267223387"><ele>129.2</ele><time>2026-03-29T12:54:40.001Z</time></trkpt><trkpt lat="45.51836806008429" lon="9.327110528544235"><ele>129.0</ele><time>2026-03-29T12:54:41.001Z</time></trkpt><trkpt lat="45.51827459039044" lon="9.327117384381594"><ele>129.0</ele><time>2026-03-29T12:54:42.001Z</time></trkpt><trkpt lat="45.518177250844616" lon="9.327122511951405"><ele>129.0</ele><time>2026-03-29T12:54:43.001Z</time></trkpt><trkpt lat="45.51808036181617" lon="9.327128740000758"><ele>129.0</ele><time>2026-03-29T12:54:44.001Z</time></trkpt><trkpt lat="45.51797826070457" lon="9.327126874993162"><ele>129.0</ele><time>2026-03-29T12:54:45.001Z</time></trkpt><trkpt lat="45.517880072497036" lon="9.327134082437889"><ele>129.0</ele><time>2026-03-29T12:54:46.001Z</time></trkpt><trkpt lat="45.51777978027858" lon="9.327139134557079"><ele>129.2</ele><time>2026-03-29T12:54:47.001Z</time></trkpt><trkpt lat="45.517676773107574" lon="9.327143618653688"><ele>129.4</ele><time>2026-03-29T12:54:48.001Z</time></trkpt><trkpt lat="45.5175701581421" lon="9.327145067646358"><ele>129.6</ele><time>2026-03-29T12:54:49.001Z</time></trkpt><trkpt lat="45.51747734252466" lon="9.327143384890427"><ele>129.8</ele><time>2026-03-29T12:54:50.001Z</time></trkpt><trkpt lat="45.51738646901795" lon="9.327149134824817"><ele>130.0</ele><time>2026-03-29T12:54:51.001Z</time></trkpt><trkpt lat="45.51730079871183" lon="9.327160642172936"><ele>130.0</ele><time>2026-03-29T12:54:52.001Z</time></trkpt><trkpt lat="45.51722457493794" lon="9.327168062979956"><ele>130.0</ele><time>2026-03-29T12:54:53.001Z</time></trkpt><trkpt lat="45.51715278994624" lon="9.327160461141764"><ele>130.0</ele><time>2026-03-29T12:54:54.001Z</time></trkpt><trkpt lat="45.51708505778297" lon="9.327154836708575"><ele>130.0</ele><time>2026-03-29T12:54:55.001Z</time></trkpt><trkpt lat="45.51702256052417" lon="9.327129047193933"><ele>130.0</ele><time>2026-03-29T12:54:56.001Z</time></trkpt><trkpt lat="45.5169249652742" lon="9.327029273940061"><ele>130.0</ele><time>2026-03-29T12:54:58.001Z</time></trkpt><trkpt lat="45.51681984613388" lon="9.3270832910268"><ele>130.2</ele><time>2026-03-29T12:55:00.001Z</time></trkpt><trkpt lat="45.516769320773705" lon="9.327152531581845"><ele>130.4</ele><time>2026-03-29T12:55:01.001Z</time></trkpt><trkpt lat="45.516696664979165" lon="9.327189637481242"><ele>130.6</ele><time>2026-03-29T12:55:02.001Z</time></trkpt><trkpt lat="45.51660325277167" lon="9.327201724249397"><ele>130.8</ele><time>2026-03-29T12:55:03.001Z</time></trkpt><trkpt lat="45.51649202194583" lon="9.327211246075258"><ele>131.0</ele><time>2026-03-29T12:55:04.001Z</time></trkpt><trkpt lat="45.51637039998007" lon="9.327217581189064"><ele>131.0</ele><time>2026-03-29T12:55:05.001Z</time></trkpt><trkpt lat="45.51625754587207" lon="9.327219785853778"><ele>131.0</ele><time>2026-03-29T12:55:06.001Z</time></trkpt><trkpt lat="45.516142448987615" lon="9.327218679856642"><ele>131.0</ele><time>2026-03-29T12:55:07.001Z</time></trkpt><trkpt lat="45.5160284343729" lon="9.327221818180506"><ele>131.0</ele><time>2026-03-29T12:55:08.001Z</time></trkpt><trkpt lat="45.5159181684676" lon="9.327230885850334"><ele>131.0</ele><time>2026-03-29T12:55:09.001Z</time></trkpt><trkpt lat="45.51581928804902" lon="9.32723492184459"><ele>131.0</ele><time>2026-03-29T12:55:10.001Z</time></trkpt><trkpt lat="45.51571110220253" lon="9.327242494325532"><ele>131.0</ele><time>2026-03-29T12:55:11.001Z</time></trkpt><trkpt lat="45.51560941025815" lon="9.327262755902941"><ele>131.0</ele><time>2026-03-29T12:55:12.001Z</time></trkpt><trkpt lat="45.515511904409756" lon="9.327290405460607"><ele>131.0</ele><time>2026-03-29T12:55:13.001Z</time></trkpt><trkpt lat="45.515417144841294" lon="9.327309368544919"><ele>130.66666666666666</ele><time>2026-03-29T12:55:14.001Z</time></trkpt><trkpt lat="45.515330962021274" lon="9.327333225745164"><ele>130.33333333333331</ele><time>2026-03-29T12:55:15.001Z</time></trkpt><trkpt lat="45.51524978093918" lon="9.32735849218323"><ele>130.0</ele><time>2026-03-29T12:55:16.001Z</time></trkpt><trkpt lat="45.515169972799846" lon="9.32737982592773"><ele>129.66666666666666</ele><time>2026-03-29T12:55:17.001Z</time></trkpt><trkpt lat="45.51510119755202" lon="9.327394573317603"><ele>129.33333333333334</ele><time>2026-03-29T12:55:18.001Z</time></trkpt><trkpt lat="45.51503478008743" lon="9.327397144555098"><ele>129.0</ele><time>2026-03-29T12:55:19.001Z</time></trkpt><trkpt lat="45.51494032958337" lon="9.32738485008557"><ele>129.0</ele><time>2026-03-29T12:55:21.001Z</time></trkpt><trkpt lat="45.51486298187044" lon="9.327353454227453"><ele>129.0</ele><time>2026-03-29T12:55:24.001Z</time></trkpt><trkpt lat="45.514756693753334" lon="9.327264023774601"><ele>129.0</ele><time>2026-03-29T12:55:26Z</time></trkpt><trkpt lat="45.51471103485351" lon="9.327184276731714"><ele>129.0</ele><time>2026-03-29T12:55:27Z</time></trkpt><trkpt lat="45.5146895644235" lon="9.327078792634758"><ele>129.0</ele><time>2026-03-29T12:55:28Z</time></trkpt><trkpt lat="45.514687391463006" lon="9.32696561181333"><ele>129.0</ele><time>2026-03-29T12:55:29Z</time></trkpt><trkpt lat="45.51469314996742" lon="9.326844935796649"><ele>129.0</ele><time>2026-03-29T12:55:30Z</time></trkpt><trkpt lat="45.51470005622871" lon="9.326711174148919"><ele>129.0</ele><time>2026-03-29T12:55:31Z</time></trkpt><trkpt lat="45.51470390638379" lon="9.32655716812212"><ele>129.0</ele><time>2026-03-29T12:55:32Z</time></trkpt><trkpt lat="45.51469785806444" lon="9.326397586947584"><ele>129.0</ele><time>2026-03-29T12:55:33Z</time></trkpt><trkpt lat="45.514680972207735" lon="9.326232639219848"><ele>129.0</ele><time>2026-03-29T12:55:34Z</time></trkpt><trkpt lat="45.5146688351893" lon="9.326059462658836"><ele>129.25</ele><time>2026-03-29T12:55:35Z</time></trkpt><trkpt lat="45.514659161514224" lon="9.325888612933822"><ele>129.5</ele><time>2026-03-29T12:55:36Z</time></trkpt><trkpt lat="45.51464871144139" lon="9.325722431350606"><ele>129.75</ele><time>2026-03-29T12:55:37Z</time></trkpt><trkpt lat="45.51463442367167" lon="9.325547294839266"><ele>130.0</ele><time>2026-03-29T12:55:38Z</time></trkpt><trkpt lat="45.514615597415094" lon="9.32536645953735"><ele>130.0</ele><time>2026-03-29T12:55:39Z</time></trkpt><trkpt lat="45.514596479566265" lon="9.325181410935134"><ele>130.0</ele><time>2026-03-29T12:55:40Z</time></trkpt><trkpt lat="45.51460851797414" lon="9.32500409766319"><ele>130.0</ele><time>2026-03-29T12:55:41Z</time></trkpt><trkpt lat="45.514598122427635" lon="9.324826005509951"><ele>130.0</ele><time>2026-03-29T12:55:42Z</time></trkpt><trkpt lat="45.514574079754915" lon="9.324649823900566"><ele>130.0</ele><time>2026-03-29T12:55:43Z</time></trkpt><trkpt lat="45.514580000228364" lon="9.324465373147648"><ele>130.0</ele><time>2026-03-29T12:55:44Z</time></trkpt><trkpt lat="45.51454760246838" lon="9.324104024525116"><ele>130.0</ele><time>2026-03-29T12:55:46Z</time></trkpt><trkpt lat="45.514537747247836" lon="9.323927755655518"><ele>129.0</ele><time>2026-03-29T12:55:47Z</time></trkpt><trkpt lat="45.5145341878369" lon="9.32374987490682"><ele>128.0</ele><time>2026-03-29T12:55:48Z</time></trkpt><trkpt lat="45.514527201930086" lon="9.323572588278788"><ele>127.0</ele><time>2026-03-29T12:55:49Z</time></trkpt><trkpt lat="45.514516733226436" lon="9.32339176040916"><ele>126.0</ele><time>2026-03-29T12:55:50Z</time></trkpt><trkpt lat="45.5145067918456" lon="9.323209698284911"><ele>126.5</ele><time>2026-03-29T12:55:51Z</time></trkpt><trkpt lat="45.51449643654069" lon="9.323027180872257"><ele>127.0</ele><time>2026-03-29T12:55:52Z</time></trkpt><trkpt lat="45.51448844075035" lon="9.322841611647249"><ele>127.5</ele><time>2026-03-29T12:55:53Z</time></trkpt><trkpt lat="45.51447637946971" lon="9.322660337024793"><ele>128.0</ele><time>2026-03-29T12:55:54Z</time></trkpt><trkpt lat="45.514456911550255" lon="9.322478954191757"><ele>128.0</ele><time>2026-03-29T12:55:55Z</time></trkpt><trkpt lat="45.51443571535089" lon="9.322310799026956"><ele>128.0</ele><time>2026-03-29T12:55:56Z</time></trkpt><trkpt lat="45.514415125265664" lon="9.322146535661613"><ele>128.0</ele><time>2026-03-29T12:55:57Z</time></trkpt><trkpt lat="45.51439584235044" lon="9.321989098090462"><ele>128.0</ele><time>2026-03-29T12:55:58Z</time></trkpt><trkpt lat="45.514378105758986" lon="9.321845550112641"><ele>127.99999999999999</ele><time>2026-03-29T12:55:59Z</time></trkpt><trkpt lat="45.51436154606138" lon="9.321701040461553"><ele>128.0</ele><time>2026-03-29T12:56:00Z</time></trkpt><trkpt lat="45.51434700146974" lon="9.321569814498233"><ele>128.0</ele><time>2026-03-29T12:56:01Z</time></trkpt><trkpt lat="45.514339716492934" lon="9.32144559385046"><ele>128.0</ele><time>2026-03-29T12:56:02Z</time></trkpt><trkpt lat="45.51432982924974" lon="9.321313670259398"><ele>127.99999999999999</ele><time>2026-03-29T12:56:03Z</time></trkpt><trkpt lat="45.51432302444269" lon="9.32121362706362"><ele>128.0</ele><time>2026-03-29T12:56:04Z</time></trkpt><trkpt lat="45.51433242701054" lon="9.321105193011842"><ele>128.20000000000002</ele><time>2026-03-29T12:56:05Z</time></trkpt><trkpt lat="45.51434610597275" lon="9.320998625666325"><ele>128.4</ele><time>2026-03-29T12:56:06Z</time></trkpt><trkpt lat="45.514360269650695" lon="9.320882389322463"><ele>128.60000000000002</ele><time>2026-03-29T12:56:07Z</time></trkpt><trkpt lat="45.51436638015209" lon="9.320752186667532"><ele>128.8</ele><time>2026-03-29T12:56:08Z</time></trkpt><trkpt lat="45.51434662337846" lon="9.32061181145481"><ele>129.0</ele><time>2026-03-29T12:56:09Z</time></trkpt><trkpt lat="45.51430283727607" lon="9.320484093257592"><ele>128.8</ele><time>2026-03-29T12:56:10Z</time></trkpt><trkpt lat="45.51424488940329" lon="9.32037525015965"><ele>128.60000000000002</ele><time>2026-03-29T12:56:11Z</time></trkpt><trkpt lat="45.51419232714957" lon="9.320262104978298"><ele>128.4</ele><time>2026-03-29T12:56:12Z</time></trkpt><trkpt lat="45.51415327896896" lon="9.320112739609895"><ele>128.20000000000002</ele><time>2026-03-29T12:56:13Z</time></trkpt><trkpt lat="45.514123419891526" lon="9.31991814890016"><ele>128.0</ele><time>2026-03-29T12:56:14Z</time></trkpt><trkpt lat="45.51410035723944" lon="9.319701149925368"><ele>128.0</ele><time>2026-03-29T12:56:15Z</time></trkpt><trkpt lat="45.514080062972944" lon="9.319470119112077"><ele>128.0</ele><time>2026-03-29T12:56:16Z</time></trkpt><trkpt lat="45.51408936485686" lon="9.319223303944666"><ele>128.0</ele><time>2026-03-29T12:56:17Z</time></trkpt><trkpt lat="45.514054055579734" lon="9.31897697854974"><ele>127.33333333333333</ele><time>2026-03-29T12:56:18Z</time></trkpt><trkpt lat="45.5140286876081" lon="9.318716375607197"><ele>126.66666666666666</ele><time>2026-03-29T12:56:19Z</time></trkpt><trkpt lat="45.51399524601776" lon="9.318446962543465"><ele>126.0</ele><time>2026-03-29T12:56:20Z</time></trkpt><trkpt lat="45.513957585947274" lon="9.318191919262512"><ele>126.66666666666666</ele><time>2026-03-29T12:56:21Z</time></trkpt><trkpt lat="45.513921302203116" lon="9.317937193724767"><ele>127.33333333333333</ele><time>2026-03-29T12:56:22Z</time></trkpt><trkpt lat="45.5138861726205" lon="9.317673831331511"><ele>128.0</ele><time>2026-03-29T12:56:23Z</time></trkpt><trkpt lat="45.51386881487174" lon="9.317406828737248"><ele>128.66666666666666</ele><time>2026-03-29T12:56:24Z</time></trkpt><trkpt lat="45.51383425045964" lon="9.317138887045779"><ele>129.33333333333334</ele><time>2026-03-29T12:56:25Z</time></trkpt><trkpt lat="45.51379917775166" lon="9.316869153476224"><ele>130.0</ele><time>2026-03-29T12:56:26Z</time></trkpt><trkpt lat="45.51376343088154" lon="9.316600227055968"><ele>128.66666666666669</ele><time>2026-03-29T12:56:27Z</time></trkpt><trkpt lat="45.51371149370667" lon="9.316328118594887"><ele>127.33333333333334</ele><time>2026-03-29T12:56:28Z</time></trkpt><trkpt lat="45.513678697269334" lon="9.316051975917356"><ele>126.0</ele><time>2026-03-29T12:56:29Z</time></trkpt><trkpt lat="45.51365261222777" lon="9.315781620481008"><ele>125.33333333333334</ele><time>2026-03-29T12:56:30Z</time></trkpt><trkpt lat="45.51361905965694" lon="9.315507908569131"><ele>124.66666666666667</ele><time>2026-03-29T12:56:31Z</time></trkpt><trkpt lat="45.51358859266117" lon="9.315231382733636"><ele>124.0</ele><time>2026-03-29T12:56:32Z</time></trkpt><trkpt lat="45.51359190108756" lon="9.314954383212319"><ele>124.66666666666667</ele><time>2026-03-29T12:56:33Z</time></trkpt><trkpt lat="45.51360142512013" lon="9.314676957504446"><ele>125.33333333333334</ele><time>2026-03-29T12:56:34Z</time></trkpt><trkpt lat="45.51361360716655" lon="9.314397719012323"><ele>126.0</ele><time>2026-03-29T12:56:35Z</time></trkpt><trkpt lat="45.51361287319903" lon="9.314115882305478"><ele>126.0</ele><time>2026-03-29T12:56:36Z</time></trkpt><trkpt lat="45.51363631518253" lon="9.313837871141564"><ele>126.0</ele><time>2026-03-29T12:56:37Z</time></trkpt><trkpt lat="45.51366415742129" lon="9.31358472635234"><ele>126.0</ele><time>2026-03-29T12:56:38Z</time></trkpt><trkpt lat="45.51367617423567" lon="9.313319003859757"><ele>125.66666666666666</ele><time>2026-03-29T12:56:39Z</time></trkpt><trkpt lat="45.51369541411686" lon="9.313071015373422"><ele>125.33333333333333</ele><time>2026-03-29T12:56:40Z</time></trkpt><trkpt lat="45.513710546223805" lon="9.312814338133107"><ele>125.0</ele><time>2026-03-29T12:56:41Z</time></trkpt><trkpt lat="45.51372803686019" lon="9.312572503686066"><ele>126.0</ele><time>2026-03-29T12:56:42Z</time></trkpt><trkpt lat="45.51374430366503" lon="9.312340566095541"><ele>127.0</ele><time>2026-03-29T12:56:43Z</time></trkpt><trkpt lat="45.51375596025557" lon="9.31211730476655"><ele>128.0</ele><time>2026-03-29T12:56:44Z</time></trkpt><trkpt lat="45.51376470539057" lon="9.311911197225113"><ele>128.0</ele><time>2026-03-29T12:56:45Z</time></trkpt><trkpt lat="45.51377078087513" lon="9.31171687660011"><ele>128.0</ele><time>2026-03-29T12:56:46Z</time></trkpt><trkpt lat="45.5137811823978" lon="9.311526652990429"><ele>128.0</ele><time>2026-03-29T12:56:47Z</time></trkpt><trkpt lat="45.51379133054715" lon="9.311340439734787"><ele>128.0</ele><time>2026-03-29T12:56:48Z</time></trkpt><trkpt lat="45.513802998640614" lon="9.311163843042428"><ele>128.0</ele><time>2026-03-29T12:56:49.001Z</time></trkpt><trkpt lat="45.513806670251014" lon="9.311004516060397"><ele>128.0</ele><time>2026-03-29T12:56:50.001Z</time></trkpt><trkpt lat="45.5138107961226" lon="9.310842315773776"><ele>128.0</ele><time>2026-03-29T12:56:51.001Z</time></trkpt><trkpt lat="45.513818325931375" lon="9.310676451696517"><ele>128.0</ele><time>2026-03-29T12:56:52.001Z</time></trkpt><trkpt lat="45.51382160110027" lon="9.31051628032227"><ele>128.0</ele><time>2026-03-29T12:56:53.001Z</time></trkpt><trkpt lat="45.51381180654516" lon="9.310351022868021"><ele>128.0</ele><time>2026-03-29T12:56:54.001Z</time></trkpt><trkpt lat="45.51380066026219" lon="9.310183525616774"><ele>128.0</ele><time>2026-03-29T12:56:55.001Z</time></trkpt><trkpt lat="45.513781414479496" lon="9.310013510421445"><ele>128.0</ele><time>2026-03-29T12:56:56.001Z</time></trkpt><trkpt lat="45.513761895942416" lon="9.309837821509714"><ele>128.0</ele><time>2026-03-29T12:56:57.001Z</time></trkpt><trkpt lat="45.51374501677461" lon="9.30965269902442"><ele>128.0</ele><time>2026-03-29T12:56:58.001Z</time></trkpt><trkpt lat="45.51372466698147" lon="9.309465374187875"><ele>128.0</ele><time>2026-03-29T12:56:59.001Z</time></trkpt><trkpt lat="45.513705290425385" lon="9.30927242049629"><ele>128.0</ele><time>2026-03-29T12:57:00.001Z</time></trkpt><trkpt lat="45.51368274371552" lon="9.309080607860182"><ele>127.25</ele><time>2026-03-29T12:57:01.001Z</time></trkpt><trkpt lat="45.51366222043432" lon="9.308882397469318"><ele>126.5</ele><time>2026-03-29T12:57:02.001Z</time></trkpt><trkpt lat="45.51364097658499" lon="9.308684009144008"><ele>125.75</ele><time>2026-03-29T12:57:03.001Z</time></trkpt><trkpt lat="45.51361967732327" lon="9.308485878500894"><ele>125.0</ele><time>2026-03-29T12:57:04.001Z</time></trkpt><trkpt lat="45.51360107352973" lon="9.30828517314509"><ele>125.0</ele><time>2026-03-29T12:57:05.001Z</time></trkpt><trkpt lat="45.51357693278251" lon="9.308085652895075"><ele>125.0</ele><time>2026-03-29T12:57:06.001Z</time></trkpt><trkpt lat="45.51356192811094" lon="9.307879554133478"><ele>125.0</ele><time>2026-03-29T12:57:07.001Z</time></trkpt><trkpt lat="45.513514811942365" lon="9.307461761974146"><ele>125.5</ele><time>2026-03-29T12:57:09.001Z</time></trkpt><trkpt lat="45.513501318109064" lon="9.307239789583276"><ele>126.0</ele><time>2026-03-29T12:57:10.001Z</time></trkpt><trkpt lat="45.51346713498198" lon="9.307032870318073"><ele>126.5</ele><time>2026-03-29T12:57:11.001Z</time></trkpt><trkpt lat="45.513445341765745" lon="9.30683683525212"><ele>127.0</ele><time>2026-03-29T12:57:12.001Z</time></trkpt><trkpt lat="45.513424190559256" lon="9.306648454232269"><ele>127.0</ele><time>2026-03-29T12:57:13.001Z</time></trkpt><trkpt lat="45.51340957165953" lon="9.306468793216789"><ele>127.0</ele><time>2026-03-29T12:57:14.001Z</time></trkpt><trkpt lat="45.513393626978925" lon="9.306293881329635"><ele>127.0</ele><time>2026-03-29T12:57:15.001Z</time></trkpt><trkpt lat="45.513385457252255" lon="9.306115764922927"><ele>127.0</ele><time>2026-03-29T12:57:16.001Z</time></trkpt><trkpt lat="45.51338185774009" lon="9.305951916950288"><ele>127.0</ele><time>2026-03-29T12:57:17.001Z</time></trkpt><trkpt lat="45.51337890969621" lon="9.305785274322126"><ele>127.0</ele><time>2026-03-29T12:57:18.001Z</time></trkpt><trkpt lat="45.51337952023923" lon="9.305629176525775"><ele>127.0</ele><time>2026-03-29T12:57:19.001Z</time></trkpt><trkpt lat="45.51337868526668" lon="9.305458924896936"><ele>127.0</ele><time>2026-03-29T12:57:20.001Z</time></trkpt><trkpt lat="45.513379904535654" lon="9.305259270223482"><ele>127.0</ele><time>2026-03-29T12:57:21.001Z</time></trkpt><trkpt lat="45.513385720488124" lon="9.30503696699738"><ele>127.0</ele><time>2026-03-29T12:57:22.001Z</time></trkpt><trkpt lat="45.51339602568371" lon="9.304815434441876"><ele>127.0</ele><time>2026-03-29T12:57:23.001Z</time></trkpt><trkpt lat="45.51341229630372" lon="9.304609629883918"><ele>127.19999999999999</ele><time>2026-03-29T12:57:24.001Z</time></trkpt><trkpt lat="45.51342350928624" lon="9.304438538895836"><ele>127.39999999999999</ele><time>2026-03-29T12:57:25.001Z</time></trkpt><trkpt lat="45.51342510525933" lon="9.304292874590494"><ele>127.60000000000001</ele><time>2026-03-29T12:57:26.001Z</time></trkpt><trkpt lat="45.51341971618136" lon="9.304164673268394"><ele>127.80000000000001</ele><time>2026-03-29T12:57:27.001Z</time></trkpt><trkpt lat="45.513411216002105" lon="9.304070424031384"><ele>128.0</ele><time>2026-03-29T12:57:28.001Z</time></trkpt><trkpt lat="45.513434606059235" lon="9.303920207886707"><ele>127.80000000000001</ele><time>2026-03-29T12:57:30.001Z</time></trkpt><trkpt lat="45.5134631631463" lon="9.303834833418511"><ele>127.60000000000001</ele><time>2026-03-29T12:57:31Z</time></trkpt><trkpt lat="45.513483139099" lon="9.30372443259753"><ele>127.39999999999999</ele><time>2026-03-29T12:57:32Z</time></trkpt><trkpt lat="45.51346795357686" lon="9.303619473152196"><ele>127.19999999999999</ele><time>2026-03-29T12:57:33Z</time></trkpt><trkpt lat="45.51334111014154" lon="9.303534229822164"><ele>127.0</ele><time>2026-03-29T12:57:35Z</time></trkpt><trkpt lat="45.513227225479234" lon="9.303693435663313"><ele>127.0</ele><time>2026-03-29T12:57:37Z</time></trkpt><trkpt lat="45.51316667447091" lon="9.303782776367678"><ele>126.99999999999999</ele><time>2026-03-29T12:57:38Z</time></trkpt><trkpt lat="45.5131334670104" lon="9.303899991062345"><ele>126.99999999999999</ele><time>2026-03-29T12:57:39Z</time></trkpt><trkpt lat="45.51301921417855" lon="9.303957266416434"><ele>127.0</ele><time>2026-03-29T12:57:40Z</time></trkpt><trkpt lat="45.51290734115777" lon="9.304002803091432"><ele>127.0</ele><time>2026-03-29T12:57:41Z</time></trkpt><trkpt lat="45.512809981077964" lon="9.304010378783056"><ele>126.83333333333334</ele><time>2026-03-29T12:57:42Z</time></trkpt><trkpt lat="45.51273434699211" lon="9.30397800892076"><ele>126.66666666666667</ele><time>2026-03-29T12:57:43Z</time></trkpt><trkpt lat="45.51267036765764" lon="9.303920652896888"><ele>126.5</ele><time>2026-03-29T12:57:44Z</time></trkpt><trkpt lat="45.51262057525676" lon="9.303831506238382"><ele>126.33333333333334</ele><time>2026-03-29T12:57:45Z</time></trkpt><trkpt lat="45.51251409328412" lon="9.303771840039971"><ele>126.16666666666667</ele><time>2026-03-29T12:57:47Z</time></trkpt><trkpt lat="45.512451297744434" lon="9.303764595407069"><ele>126.0</ele><time>2026-03-29T12:57:48Z</time></trkpt><trkpt lat="45.512392893646876" lon="9.303921251935252"><ele>126.0</ele><time>2026-03-29T12:57:49Z</time></trkpt><trkpt lat="45.51233348494341" lon="9.304024666482777"><ele>126.0</ele><time>2026-03-29T12:57:50Z</time></trkpt><trkpt lat="45.51223967369655" lon="9.304083152851993"><ele>126.0</ele><time>2026-03-29T12:57:51Z</time></trkpt><trkpt lat="45.51211543257403" lon="9.3040735011053"><ele>126.0</ele><time>2026-03-29T12:57:52Z</time></trkpt><trkpt lat="45.51199108203614" lon="9.30409617416467"><ele>126.0</ele><time>2026-03-29T12:57:53Z</time></trkpt><trkpt lat="45.51185605816534" lon="9.304092675580458"><ele>126.0</ele><time>2026-03-29T12:57:54Z</time></trkpt><trkpt lat="45.51170971962984" lon="9.304103406213752"><ele>126.0</ele><time>2026-03-29T12:57:55Z</time></trkpt><trkpt lat="45.51155666663721" lon="9.304129256541046"><ele>126.0</ele><time>2026-03-29T12:57:56Z</time></trkpt><trkpt lat="45.51139561175595" lon="9.304152651155434"><ele>126.33333333333334</ele><time>2026-03-29T12:57:57Z</time></trkpt><trkpt lat="45.511235804423244" lon="9.304168674617468"><ele>126.66666666666667</ele><time>2026-03-29T12:57:58Z</time></trkpt><trkpt lat="45.51106751632401" lon="9.304185482589082"><ele>127.0</ele><time>2026-03-29T12:57:59Z</time></trkpt><trkpt lat="45.5109081694353" lon="9.304197921073932"><ele>127.0</ele><time>2026-03-29T12:58:00Z</time></trkpt><trkpt lat="45.5107696272" lon="9.304215953932458"><ele>127.0</ele><time>2026-03-29T12:58:01Z</time></trkpt><trkpt lat="45.51064148723726" lon="9.304233895834859"><ele>127.0</ele><time>2026-03-29T12:58:02Z</time></trkpt><trkpt lat="45.51051474949562" lon="9.304250072518712"><ele>127.0</ele><time>2026-03-29T12:58:03Z</time></trkpt><trkpt lat="45.510390400119796" lon="9.304266976586687"><ele>126.75</ele><time>2026-03-29T12:58:04Z</time></trkpt><trkpt lat="45.51026926353292" lon="9.304284426677333"><ele>126.5</ele><time>2026-03-29T12:58:05Z</time></trkpt><trkpt lat="45.5101512804748" lon="9.30429979805752"><ele>126.25</ele><time>2026-03-29T12:58:06Z</time></trkpt><trkpt lat="45.51003846113401" lon="9.304307501520185"><ele>126.0</ele><time>2026-03-29T12:58:07Z</time></trkpt><trkpt lat="45.509924269890355" lon="9.304299441987533"><ele>126.0</ele><time>2026-03-29T12:58:08Z</time></trkpt><trkpt lat="45.509809152486675" lon="9.30426315019307"><ele>126.0</ele><time>2026-03-29T12:58:09Z</time></trkpt><trkpt lat="45.5096997637674" lon="9.30418776148239"><ele>126.0</ele><time>2026-03-29T12:58:10Z</time></trkpt><trkpt lat="45.50959704702153" lon="9.304077499061401"><ele>126.0</ele><time>2026-03-29T12:58:11Z</time></trkpt><trkpt lat="45.509512207861064" lon="9.3039252741272"><ele>125.75</ele><time>2026-03-29T12:58:12Z</time></trkpt><trkpt lat="45.50945581158239" lon="9.30374000446089"><ele>125.5</ele><time>2026-03-29T12:58:13Z</time></trkpt><trkpt lat="45.509427927229844" lon="9.303543127036077"><ele>125.25</ele><time>2026-03-29T12:58:14Z</time></trkpt><trkpt lat="45.509417160117174" lon="9.303329195749548"><ele>125.0</ele><time>2026-03-29T12:58:15Z</time></trkpt><trkpt lat="45.509412310151" lon="9.303117181345872"><ele>125.5</ele><time>2026-03-29T12:58:16Z</time></trkpt><trkpt lat="45.50940520244231" lon="9.302906121809599"><ele>126.0</ele><time>2026-03-29T12:58:17Z</time></trkpt><trkpt lat="45.50939590816309" lon="9.302706968362251"><ele>126.5</ele><time>2026-03-29T12:58:18Z</time></trkpt><trkpt lat="45.50938554384284" lon="9.302510980757445"><ele>127.0</ele><time>2026-03-29T12:58:19Z</time></trkpt><trkpt lat="45.50937422431875" lon="9.302318384886531"><ele>126.5</ele><time>2026-03-29T12:58:20Z</time></trkpt><trkpt lat="45.50936170197278" lon="9.302116628474856"><ele>126.0</ele><time>2026-03-29T12:58:21Z</time></trkpt><trkpt lat="45.509344969108085" lon="9.301918800926424"><ele>125.5</ele><time>2026-03-29T12:58:22Z</time></trkpt><trkpt lat="45.50931645082732" lon="9.30173029419319"><ele>125.0</ele><time>2026-03-29T12:58:23Z</time></trkpt><trkpt lat="45.50928131588695" lon="9.301565903870237"><ele>125.0</ele><time>2026-03-29T12:58:24Z</time></trkpt><trkpt lat="45.509242611210865" lon="9.301417757021056"><ele>125.0</ele><time>2026-03-29T12:58:25Z</time></trkpt><trkpt lat="45.509221805003136" lon="9.30127682687786"><ele>125.0</ele><time>2026-03-29T12:58:26Z</time></trkpt><trkpt lat="45.50923965103578" lon="9.301136478547114"><ele>125.0</ele><time>2026-03-29T12:58:27Z</time></trkpt><trkpt lat="45.509300960054276" lon="9.301005542587525"><ele>125.0</ele><time>2026-03-29T12:58:28Z</time></trkpt><trkpt lat="45.50937664707136" lon="9.30089696702292"><ele>124.8</ele><time>2026-03-29T12:58:29Z</time></trkpt><trkpt lat="45.5094204736412" lon="9.300778976239705"><ele>124.6</ele><time>2026-03-29T12:58:30Z</time></trkpt><trkpt lat="45.5094202646579" lon="9.300639912193486"><ele>124.4</ele><time>2026-03-29T12:58:31Z</time></trkpt><trkpt lat="45.509378025660794" lon="9.300501799913796"><ele>124.2</ele><time>2026-03-29T12:58:32Z</time></trkpt><trkpt lat="45.50931037696516" lon="9.30039622171217"><ele>124.0</ele><time>2026-03-29T12:58:33Z</time></trkpt><trkpt lat="45.509225797393405" lon="9.3003270821369"><ele>124.0</ele><time>2026-03-29T12:58:34Z</time></trkpt><trkpt lat="45.50912424678202" lon="9.300306613591067"><ele>124.0</ele><time>2026-03-29T12:58:35Z</time></trkpt><trkpt lat="45.50902027636804" lon="9.30034007787692"><ele>124.0</ele><time>2026-03-29T12:58:36Z</time></trkpt><trkpt lat="45.50891916359584" lon="9.30042943815476"><ele>124.0</ele><time>2026-03-29T12:58:37Z</time></trkpt><trkpt lat="45.50885603501081" lon="9.30059002632413"><ele>124.0</ele><time>2026-03-29T12:58:38Z</time></trkpt><trkpt lat="45.5087215843981" lon="9.30068873971043"><ele>124.0</ele><time>2026-03-29T12:58:39Z</time></trkpt><trkpt lat="45.508600559221634" lon="9.300782033503841"><ele>124.0</ele><time>2026-03-29T12:58:40Z</time></trkpt><trkpt lat="45.508431761206644" lon="9.300743010960845"><ele>124.0</ele><time>2026-03-29T12:58:41Z</time></trkpt><trkpt lat="45.508264048807824" lon="9.300762338381235"><ele>124.0</ele><time>2026-03-29T12:58:42Z</time></trkpt><trkpt lat="45.50809751288035" lon="9.300764056794545"><ele>124.0</ele><time>2026-03-29T12:58:43Z</time></trkpt><trkpt lat="45.507926296739825" lon="9.300772470392642"><ele>125.0</ele><time>2026-03-29T12:58:44Z</time></trkpt><trkpt lat="45.50774990039352" lon="9.300787096546474"><ele>126.0</ele><time>2026-03-29T12:58:45Z</time></trkpt><trkpt lat="45.50757211021231" lon="9.300804599911158"><ele>127.0</ele><time>2026-03-29T12:58:46Z</time></trkpt><trkpt lat="45.507391471076396" lon="9.300822222288362"><ele>127.0</ele><time>2026-03-29T12:58:47Z</time></trkpt><trkpt lat="45.50720455009631" lon="9.3008394152522"><ele>127.0</ele><time>2026-03-29T12:58:48Z</time></trkpt><trkpt lat="45.50702556079773" lon="9.30085576075053"><ele>127.0</ele><time>2026-03-29T12:58:49Z</time></trkpt><trkpt lat="45.50683978539833" lon="9.300874006482331"><ele>126.33333333333334</ele><time>2026-03-29T12:58:50Z</time></trkpt><trkpt lat="45.50665448744195" lon="9.300892630704322"><ele>125.66666666666666</ele><time>2026-03-29T12:58:51.001Z</time></trkpt><trkpt lat="45.50647086522452" lon="9.30089924432848"><ele>125.0</ele><time>2026-03-29T12:58:52.001Z</time></trkpt><trkpt lat="45.50629294071048" lon="9.300907410618592"><ele>125.0</ele><time>2026-03-29T12:58:53.001Z</time></trkpt><trkpt lat="45.506115712867555" lon="9.300906719390692"><ele>125.0</ele><time>2026-03-29T12:58:54.001Z</time></trkpt><trkpt lat="45.50593663833401" lon="9.30090193724913"><ele>125.0</ele><time>2026-03-29T12:58:55.001Z</time></trkpt><trkpt lat="45.50576084512853" lon="9.30089716370239"><ele>125.0</ele><time>2026-03-29T12:58:56.001Z</time></trkpt><trkpt lat="45.505587514836826" lon="9.300896366487938"><ele>125.0</ele><time>2026-03-29T12:58:57.001Z</time></trkpt><trkpt lat="45.50541418847463" lon="9.30089513239482"><ele>125.0</ele><time>2026-03-29T12:58:58.001Z</time></trkpt><trkpt lat="45.50524037949105" lon="9.300895877151339"><ele>125.0</ele><time>2026-03-29T12:58:59.001Z</time></trkpt><trkpt lat="45.505068352492444" lon="9.300893548746897"><ele>125.0</ele><time>2026-03-29T12:59:00.001Z</time></trkpt><trkpt lat="45.504900106624035" lon="9.300897420331337"><ele>125.0</ele><time>2026-03-29T12:59:01.001Z</time></trkpt><trkpt lat="45.504746711035146" lon="9.300900087460372"><ele>125.0</ele><time>2026-03-29T12:59:02.001Z</time></trkpt><trkpt lat="45.50460008731646" lon="9.300902003823705"><ele>125.0</ele><time>2026-03-29T12:59:03.001Z</time></trkpt><trkpt lat="45.50446254347831" lon="9.30090191621485"><ele>125.0</ele><time>2026-03-29T12:59:04.001Z</time></trkpt><trkpt lat="45.50433383485172" lon="9.300902521135077"><ele>125.0</ele><time>2026-03-29T12:59:05.001Z</time></trkpt><trkpt lat="45.504203410778274" lon="9.300928040646163"><ele>125.0</ele><time>2026-03-29T12:59:06.001Z</time></trkpt><trkpt lat="45.504064078267994" lon="9.300977327489873"><ele>125.0</ele><time>2026-03-29T12:59:07.001Z</time></trkpt><trkpt lat="45.50391843859282" lon="9.300992735113194"><ele>125.0</ele><time>2026-03-29T12:59:08.001Z</time></trkpt><trkpt lat="45.50376413983256" lon="9.300921249548447"><ele>124.66666666666666</ele><time>2026-03-29T12:59:09.001Z</time></trkpt><trkpt lat="45.50361005928034" lon="9.300914647150536"><ele>124.33333333333334</ele><time>2026-03-29T12:59:10.001Z</time></trkpt><trkpt lat="45.503448898347955" lon="9.300902026805648"><ele>124.0</ele><time>2026-03-29T12:59:11.001Z</time></trkpt><trkpt lat="45.5032847682798" lon="9.300925947748961"><ele>124.0</ele><time>2026-03-29T12:59:12.001Z</time></trkpt><trkpt lat="45.50311645593475" lon="9.300902896510902"><ele>124.0</ele><time>2026-03-29T12:59:13.001Z</time></trkpt><trkpt lat="45.50295061140308" lon="9.300901738951"><ele>124.0</ele><time>2026-03-29T12:59:14.001Z</time></trkpt><trkpt lat="45.50278186269748" lon="9.300899490588304"><ele>124.0</ele><time>2026-03-29T12:59:15.001Z</time></trkpt><trkpt lat="45.50260887380496" lon="9.300899040031375"><ele>124.0</ele><time>2026-03-29T12:59:16.001Z</time></trkpt><trkpt lat="45.50243380339771" lon="9.300897287256236"><ele>124.0</ele><time>2026-03-29T12:59:17.001Z</time></trkpt><trkpt lat="45.50226143798041" lon="9.300898976883134"><ele>124.0</ele><time>2026-03-29T12:59:18.001Z</time></trkpt><trkpt lat="45.50208659690813" lon="9.3009006328278"><ele>124.0</ele><time>2026-03-29T12:59:19.001Z</time></trkpt><trkpt lat="45.501914187040754" lon="9.300901303388624"><ele>124.0</ele><time>2026-03-29T12:59:20.001Z</time></trkpt><trkpt lat="45.50174102598246" lon="9.30089999120079"><ele>124.0</ele><time>2026-03-29T12:59:21.001Z</time></trkpt><trkpt lat="45.5015699253619" lon="9.300901560808928"><ele>124.0</ele><time>2026-03-29T12:59:22.001Z</time></trkpt><trkpt lat="45.50139281579478" lon="9.300906874452929"><ele>124.0</ele><time>2026-03-29T12:59:23.001Z</time></trkpt><trkpt lat="45.501219329602556" lon="9.300906300025213"><ele>124.0</ele><time>2026-03-29T12:59:24.001Z</time></trkpt><trkpt lat="45.501045083682186" lon="9.300904606593594"><ele>124.0</ele><time>2026-03-29T12:59:25.001Z</time></trkpt><trkpt lat="45.50087709619742" lon="9.300908401154336"><ele>124.0</ele><time>2026-03-29T12:59:26.001Z</time></trkpt><trkpt lat="45.50072451945721" lon="9.300911154096172"><ele>124.0</ele><time>2026-03-29T12:59:27.001Z</time></trkpt><trkpt lat="45.5005781775624" lon="9.300916444703644"><ele>124.0</ele><time>2026-03-29T12:59:28.001Z</time></trkpt><trkpt lat="45.50044665038065" lon="9.300925001287148"><ele>124.0</ele><time>2026-03-29T12:59:29.001Z</time></trkpt><trkpt lat="45.5003151026157" lon="9.300946194193742"><ele>124.0</ele><time>2026-03-29T12:59:30.001Z</time></trkpt><trkpt lat="45.500187554592564" lon="9.300981108480215"><ele>124.0</ele><time>2026-03-29T12:59:31.001Z</time></trkpt><trkpt lat="45.500064677677045" lon="9.301019447954822"><ele>124.0</ele><time>2026-03-29T12:59:32.001Z</time></trkpt><trkpt lat="45.49994550467769" lon="9.301063349638557"><ele>124.0</ele><time>2026-03-29T12:59:33.001Z</time></trkpt><trkpt lat="45.49982315857882" lon="9.30109318931591"><ele>124.0</ele><time>2026-03-29T12:59:34.001Z</time></trkpt><trkpt lat="45.49969638006136" lon="9.301066219416954"><ele>124.0</ele><time>2026-03-29T12:59:35.001Z</time></trkpt><trkpt lat="45.49956990513663" lon="9.300973251355908"><ele>124.0</ele><time>2026-03-29T12:59:36.001Z</time></trkpt><trkpt lat="45.4994318854902" lon="9.300998631903884"><ele>124.0</ele><time>2026-03-29T12:59:37.001Z</time></trkpt><trkpt lat="45.49929054049217" lon="9.301027282967684"><ele>124.0</ele><time>2026-03-29T12:59:38.001Z</time></trkpt><trkpt lat="45.499149786218865" lon="9.301007993198828"><ele>124.0</ele><time>2026-03-29T12:59:39.001Z</time></trkpt><trkpt lat="45.499007140587885" lon="9.300948257662547"><ele>124.0</ele><time>2026-03-29T12:59:40.001Z</time></trkpt><trkpt lat="45.49886732313783" lon="9.300913899740959"><ele>124.0</ele><time>2026-03-29T12:59:41Z</time></trkpt><trkpt lat="45.498734499598285" lon="9.300906160608639"><ele>124.0</ele><time>2026-03-29T12:59:42Z</time></trkpt><trkpt lat="45.49861556483066" lon="9.300897640989843"><ele>124.0</ele><time>2026-03-29T12:59:43Z</time></trkpt><trkpt lat="45.498503867441094" lon="9.300887506173643"><ele>124.0</ele><time>2026-03-29T12:59:44Z</time></trkpt><trkpt lat="45.49839749308937" lon="9.300873092831912"><ele>124.0</ele><time>2026-03-29T12:59:45Z</time></trkpt><trkpt lat="45.49828504388712" lon="9.300864219753615"><ele>124.0</ele><time>2026-03-29T12:59:46Z</time></trkpt><trkpt lat="45.4981753126923" lon="9.300855129941748"><ele>124.0</ele><time>2026-03-29T12:59:47Z</time></trkpt><trkpt lat="45.49807481066891" lon="9.300850922860349"><ele>124.0</ele><time>2026-03-29T12:59:48Z</time></trkpt><trkpt lat="45.49798319694292" lon="9.300836901343635"><ele>124.0</ele><time>2026-03-29T12:59:49Z</time></trkpt><trkpt lat="45.497907438061105" lon="9.300849267943654"><ele>124.0</ele><time>2026-03-29T12:59:50Z</time></trkpt><trkpt lat="45.4977971927878" lon="9.300653481649126"><ele>124.0</ele><time>2026-03-29T12:59:52Z</time></trkpt><trkpt lat="45.497771984666976" lon="9.300537144567995"><ele>124.0</ele><time>2026-03-29T12:59:53Z</time></trkpt><trkpt lat="45.4977539565713" lon="9.300424259991155"><ele>123.50000000000001</ele><time>2026-03-29T12:59:54Z</time></trkpt><trkpt lat="45.497734210955734" lon="9.300308047823785"><ele>123.0</ele><time>2026-03-29T12:59:55Z</time></trkpt><trkpt lat="45.49771346140049" lon="9.30020374570032"><ele>122.5</ele><time>2026-03-29T12:59:56Z</time></trkpt><trkpt lat="45.4976909521107" lon="9.300093289841357"><ele>122.0</ele><time>2026-03-29T12:59:57Z</time></trkpt><trkpt lat="45.49767565321944" lon="9.300000467273206"><ele>121.50000000000001</ele><time>2026-03-29T12:59:58Z</time></trkpt><trkpt lat="45.49766304801895" lon="9.299912331835902"><ele>121.0</ele><time>2026-03-29T12:59:59Z</time></trkpt><trkpt lat="45.497647917081785" lon="9.299784293958593"><ele>121.0</ele><time>2026-03-29T13:00:01Z</time></trkpt><trkpt lat="45.49764176253938" lon="9.299645045492621"><ele>121.0</ele><time>2026-03-29T13:00:50.001Z</time></trkpt><trkpt lat="45.49762163527407" lon="9.29948884569787"><ele>121.0</ele><time>2026-03-29T13:00:52.001Z</time></trkpt><trkpt lat="45.49745619417242" lon="9.299493939752983"><ele>121.0</ele><time>2026-03-29T13:00:53.001Z</time></trkpt><trkpt lat="45.49738276566919" lon="9.299510893605635"><ele>121.0</ele><time>2026-03-29T13:00:54.001Z</time></trkpt><trkpt lat="45.497296435564294" lon="9.29955500991411"><ele>121.0</ele><time>2026-03-29T13:00:55.001Z</time></trkpt><trkpt lat="45.497207439320746" lon="9.299599254292946"><ele>121.0</ele><time>2026-03-29T13:00:56.001Z</time></trkpt><trkpt lat="45.497116810981446" lon="9.299649017915367"><ele>121.0</ele><time>2026-03-29T13:00:57.001Z</time></trkpt><trkpt lat="45.49702407026375" lon="9.299697120196576"><ele>121.0</ele><time>2026-03-29T13:00:58.001Z</time></trkpt><trkpt lat="45.49692754386828" lon="9.29974164936638"><ele>121.0</ele><time>2026-03-29T13:00:59.001Z</time></trkpt><trkpt lat="45.496825907488635" lon="9.299788809034558"><ele>121.0</ele><time>2026-03-29T13:01:00.001Z</time></trkpt><trkpt lat="45.49672225820098" lon="9.299835281983736"><ele>121.0</ele><time>2026-03-29T13:01:01.001Z</time></trkpt><trkpt lat="45.496620460745326" lon="9.299873543566004"><ele>121.0</ele><time>2026-03-29T13:01:02.001Z</time></trkpt><trkpt lat="45.49651452114768" lon="9.299906542301727"><ele>121.0</ele><time>2026-03-29T13:01:03.001Z</time></trkpt><trkpt lat="45.496406764378385" lon="9.299906161246948"><ele>121.0</ele><time>2026-03-29T13:01:04.001Z</time></trkpt><trkpt lat="45.496297966441" lon="9.299894595877078"><ele>121.19999999999999</ele><time>2026-03-29T13:01:05.001Z</time></trkpt><trkpt lat="45.49618911007638" lon="9.299884993113023"><ele>121.39999999999999</ele><time>2026-03-29T13:01:06.001Z</time></trkpt><trkpt lat="45.49608074024455" lon="9.299875579234243"><ele>121.6</ele><time>2026-03-29T13:01:07.001Z</time></trkpt><trkpt lat="45.49597226212195" lon="9.299867196560163"><ele>121.8</ele><time>2026-03-29T13:01:08.001Z</time></trkpt><trkpt lat="45.495862188850154" lon="9.299863560122276"><ele>122.0</ele><time>2026-03-29T13:01:09.001Z</time></trkpt><trkpt lat="45.49575014722514" lon="9.299851598724782"><ele>122.0</ele><time>2026-03-29T13:01:10.001Z</time></trkpt><trkpt lat="45.49563166930957" lon="9.299846073602668"><ele>122.0</ele><time>2026-03-29T13:01:11.001Z</time></trkpt><trkpt lat="45.49551002975631" lon="9.29984076018"><ele>122.0</ele><time>2026-03-29T13:01:12.001Z</time></trkpt><trkpt lat="45.49538669403815" lon="9.299831733759634"><ele>122.0</ele><time>2026-03-29T13:01:13.001Z</time></trkpt><trkpt lat="45.495260408131784" lon="9.299825265453542"><ele>121.25</ele><time>2026-03-29T13:01:14.001Z</time></trkpt><trkpt lat="45.49512956435801" lon="9.299817102602404"><ele>120.5</ele><time>2026-03-29T13:01:15.001Z</time></trkpt><trkpt lat="45.494991143802004" lon="9.29981058526851"><ele>119.75</ele><time>2026-03-29T13:01:16.001Z</time></trkpt><trkpt lat="45.49484693050703" lon="9.299805945691284"><ele>119.0</ele><time>2026-03-29T13:01:17.001Z</time></trkpt><trkpt lat="45.494695367214874" lon="9.299800538418664"><ele>119.0</ele><time>2026-03-29T13:01:18.001Z</time></trkpt><trkpt lat="45.49454093621587" lon="9.299791838039722"><ele>119.0</ele><time>2026-03-29T13:01:19.001Z</time></trkpt><trkpt lat="45.49438517038762" lon="9.299772242967698"><ele>119.0</ele><time>2026-03-29T13:01:20.001Z</time></trkpt><trkpt lat="45.49423455324933" lon="9.29975268983105"><ele>119.75</ele><time>2026-03-29T13:01:21.001Z</time></trkpt><trkpt lat="45.49409732024896" lon="9.299738704927094"><ele>120.5</ele><time>2026-03-29T13:01:22.001Z</time></trkpt><trkpt lat="45.49397509703962" lon="9.29972724434858"><ele>121.25</ele><time>2026-03-29T13:01:23.001Z</time></trkpt><trkpt lat="45.493867505904056" lon="9.29971675733622"><ele>122.0</ele><time>2026-03-29T13:01:24.001Z</time></trkpt><trkpt lat="45.49376256198815" lon="9.299697917089386"><ele>121.5</ele><time>2026-03-29T13:01:25.001Z</time></trkpt><trkpt lat="45.49365278015374" lon="9.29967438121272"><ele>121.0</ele><time>2026-03-29T13:01:26.001Z</time></trkpt><trkpt lat="45.49353570692047" lon="9.299668045053679"><ele>120.5</ele><time>2026-03-29T13:01:27.001Z</time></trkpt><trkpt lat="45.49341515982272" lon="9.299670524907595"><ele>120.0</ele><time>2026-03-29T13:01:28.001Z</time></trkpt><trkpt lat="45.49329296054324" lon="9.299666700188357"><ele>120.0</ele><time>2026-03-29T13:01:29.001Z</time></trkpt><trkpt lat="45.493168969194066" lon="9.299649979985054"><ele>120.0</ele><time>2026-03-29T13:01:30.001Z</time></trkpt><trkpt lat="45.49304044284626" lon="9.299619824951161"><ele>120.0</ele><time>2026-03-29T13:01:31.001Z</time></trkpt><trkpt lat="45.49291678479379" lon="9.299580033432802"><ele>120.0</ele><time>2026-03-29T13:01:32.001Z</time></trkpt><trkpt lat="45.49279109315934" lon="9.299533678271601"><ele>119.75</ele><time>2026-03-29T13:01:33.001Z</time></trkpt><trkpt lat="45.49266524222548" lon="9.29947827492335"><ele>119.5</ele><time>2026-03-29T13:01:34.001Z</time></trkpt><trkpt lat="45.492540974033545" lon="9.299415364362531"><ele>119.25</ele><time>2026-03-29T13:01:35.001Z</time></trkpt><trkpt lat="45.49241880265053" lon="9.299347652421964"><ele>119.0</ele><time>2026-03-29T13:01:36.001Z</time></trkpt><trkpt lat="45.49229795289485" lon="9.29927931864554"><ele>119.0</ele><time>2026-03-29T13:01:37.001Z</time></trkpt><trkpt lat="45.4921834541661" lon="9.299208641117088"><ele>119.0</ele><time>2026-03-29T13:01:38.001Z</time></trkpt><trkpt lat="45.492080564867244" lon="9.299136148282328"><ele>119.0</ele><time>2026-03-29T13:01:39.001Z</time></trkpt><trkpt lat="45.491982425792635" lon="9.299068804572613"><ele>119.0</ele><time>2026-03-29T13:01:40.001Z</time></trkpt><trkpt lat="45.49187908883072" lon="9.299003072290208"><ele>119.25</ele><time>2026-03-29T13:01:41.001Z</time></trkpt><trkpt lat="45.491772330123084" lon="9.29893579370622"><ele>119.5</ele><time>2026-03-29T13:01:42.001Z</time></trkpt><trkpt lat="45.49166692640465" lon="9.29886766011309"><ele>119.75</ele><time>2026-03-29T13:01:43Z</time></trkpt><trkpt lat="45.491561306606194" lon="9.298791135356648"><ele>120.0</ele><time>2026-03-29T13:01:44Z</time></trkpt><trkpt lat="45.491454486700206" lon="9.298713937417373"><ele>120.0</ele><time>2026-03-29T13:01:45Z</time></trkpt><trkpt lat="45.49134765278236" lon="9.298644637167271"><ele>120.0</ele><time>2026-03-29T13:01:46Z</time></trkpt><trkpt lat="45.491243101415456" lon="9.298568574343378"><ele>120.0</ele><time>2026-03-29T13:01:47Z</time></trkpt><trkpt lat="45.49112824365095" lon="9.29851682754358"><ele>120.0</ele><time>2026-03-29T13:01:48Z</time></trkpt><trkpt lat="45.491013168879626" lon="9.298473743311341"><ele>119.75</ele><time>2026-03-29T13:01:49Z</time></trkpt><trkpt lat="45.49089468749226" lon="9.29844826296519"><ele>119.5</ele><time>2026-03-29T13:01:50Z</time></trkpt><trkpt lat="45.490777287345466" lon="9.298433721676377"><ele>119.25</ele><time>2026-03-29T13:01:51Z</time></trkpt><trkpt lat="45.49065343322513" lon="9.298441885128115"><ele>119.0</ele><time>2026-03-29T13:01:52Z</time></trkpt><trkpt lat="45.490534860465566" lon="9.29845245963118"><ele>119.5</ele><time>2026-03-29T13:01:53Z</time></trkpt><trkpt lat="45.49041543869572" lon="9.29845581154292"><ele>120.0</ele><time>2026-03-29T13:01:54Z</time></trkpt><trkpt lat="45.49029654839447" lon="9.298452440312136"><ele>120.5</ele><time>2026-03-29T13:01:55Z</time></trkpt><trkpt lat="45.49018098778458" lon="9.298460344219478"><ele>121.0</ele><time>2026-03-29T13:01:56Z</time></trkpt><trkpt lat="45.49006088765086" lon="9.298468701028957"><ele>121.0</ele><time>2026-03-29T13:01:57Z</time></trkpt><trkpt lat="45.4899435161754" lon="9.298480664341325"><ele>121.0</ele><time>2026-03-29T13:01:58Z</time></trkpt><trkpt lat="45.48982266323355" lon="9.298493567216168"><ele>121.0</ele><time>2026-03-29T13:01:59Z</time></trkpt><trkpt lat="45.48970509729354" lon="9.298505807615157"><ele>121.0</ele><time>2026-03-29T13:02:00Z</time></trkpt><trkpt lat="45.48958516554203" lon="9.298513628878236"><ele>121.0</ele><time>2026-03-29T13:02:01Z</time></trkpt><trkpt lat="45.489462742123536" lon="9.29851651235975"><ele>121.0</ele><time>2026-03-29T13:02:02Z</time></trkpt><trkpt lat="45.489339863315266" lon="9.298530451865592"><ele>121.0</ele><time>2026-03-29T13:02:03Z</time></trkpt><trkpt lat="45.489219051632894" lon="9.298537520405675"><ele>121.0</ele><time>2026-03-29T13:02:04Z</time></trkpt><trkpt lat="45.48909875478324" lon="9.298547870427692"><ele>121.0</ele><time>2026-03-29T13:02:05Z</time></trkpt><trkpt lat="45.4889734381869" lon="9.298552662627676"><ele>121.0</ele><time>2026-03-29T13:02:06Z</time></trkpt><trkpt lat="45.48884977954836" lon="9.29856287290791"><ele>121.0</ele><time>2026-03-29T13:02:07Z</time></trkpt><trkpt lat="45.48872682244439" lon="9.298567579471706"><ele>121.0</ele><time>2026-03-29T13:02:08Z</time></trkpt><trkpt lat="45.48860562536373" lon="9.298579047165621"><ele>120.8</ele><time>2026-03-29T13:02:09Z</time></trkpt><trkpt lat="45.48848442066515" lon="9.298584655178974"><ele>120.6</ele><time>2026-03-29T13:02:10Z</time></trkpt><trkpt lat="45.488372553456756" lon="9.298592374721602"><ele>120.4</ele><time>2026-03-29T13:02:11Z</time></trkpt><trkpt lat="45.48827064266311" lon="9.298600890996855"><ele>120.2</ele><time>2026-03-29T13:02:12Z</time></trkpt><trkpt lat="45.48817030165052" lon="9.298598266346241"><ele>120.0</ele><time>2026-03-29T13:02:13Z</time></trkpt><trkpt lat="45.48807640743582" lon="9.298604662701964"><ele>120.0</ele><time>2026-03-29T13:02:14Z</time></trkpt><trkpt lat="45.487987225162534" lon="9.298600097696381"><ele>120.0</ele><time>2026-03-29T13:02:15Z</time></trkpt><trkpt lat="45.48790346341062" lon="9.298593594692589"><ele>120.0</ele><time>2026-03-29T13:02:16Z</time></trkpt><trkpt lat="45.48781586502182" lon="9.298581395777918"><ele>120.0</ele><time>2026-03-29T13:02:17Z</time></trkpt><trkpt lat="45.48772653382852" lon="9.298538736324293"><ele>120.0</ele><time>2026-03-29T13:02:18Z</time></trkpt><trkpt lat="45.48764578283936" lon="9.298531737884288"><ele>120.0</ele><time>2026-03-29T13:02:19Z</time></trkpt><trkpt lat="45.48755834972088" lon="9.298601653324374"><ele>119.4</ele><time>2026-03-29T13:02:20Z</time></trkpt><trkpt lat="45.48746287954372" lon="9.29864113431794"><ele>118.8</ele><time>2026-03-29T13:02:21Z</time></trkpt><trkpt lat="45.48736895558647" lon="9.298672994816014"><ele>118.19999999999999</ele><time>2026-03-29T13:02:22Z</time></trkpt><trkpt lat="45.487268561035535" lon="9.298699391135765"><ele>117.6</ele><time>2026-03-29T13:02:23Z</time></trkpt><trkpt lat="45.48716523734505" lon="9.298725781669061"><ele>117.0</ele><time>2026-03-29T13:02:24Z</time></trkpt><trkpt lat="45.48705468437199" lon="9.2987524596657"><ele>116.75</ele><time>2026-03-29T13:02:25Z</time></trkpt><trkpt lat="45.48694000879707" lon="9.298776632203806"><ele>116.5</ele><time>2026-03-29T13:02:26Z</time></trkpt><trkpt lat="45.486819845199804" lon="9.298801488067943"><ele>116.25</ele><time>2026-03-29T13:02:27Z</time></trkpt><trkpt lat="45.486694670850525" lon="9.298822514858124"><ele>116.0</ele><time>2026-03-29T13:02:28Z</time></trkpt><trkpt lat="45.48656324930367" lon="9.298844588285608"><ele>116.0</ele><time>2026-03-29T13:02:29Z</time></trkpt><trkpt lat="45.48642498850947" lon="9.298873543504873"><ele>116.0</ele><time>2026-03-29T13:02:30Z</time></trkpt><trkpt lat="45.48629907071976" lon="9.298895580246656"><ele>116.0</ele><time>2026-03-29T13:02:31Z</time></trkpt><trkpt lat="45.48619259658543" lon="9.298917083018377"><ele>116.0</ele><time>2026-03-29T13:02:32Z</time></trkpt><trkpt lat="45.48609209158094" lon="9.29893558426844"><ele>115.83333333333333</ele><time>2026-03-29T13:02:33Z</time></trkpt><trkpt lat="45.48600454721094" lon="9.298953629931598"><ele>115.66666666666666</ele><time>2026-03-29T13:02:34Z</time></trkpt><trkpt lat="45.48592512490948" lon="9.298964982713295"><ele>115.5</ele><time>2026-03-29T13:02:35Z</time></trkpt><trkpt lat="45.48584775725725" lon="9.298955076261624"><ele>115.33333333333334</ele><time>2026-03-29T13:02:36Z</time></trkpt><trkpt lat="45.48577330443196" lon="9.298909582213856"><ele>115.16666666666667</ele><time>2026-03-29T13:02:37Z</time></trkpt><trkpt lat="45.48570657909056" lon="9.298817381023525"><ele>115.0</ele><time>2026-03-29T13:02:38Z</time></trkpt><trkpt lat="45.485648449828425" lon="9.298724498850516"><ele>115.0</ele><time>2026-03-29T13:02:39Z</time></trkpt><trkpt lat="45.48556689718128" lon="9.298663726540596"><ele>115.0</ele><time>2026-03-29T13:02:40Z</time></trkpt><trkpt lat="45.485459853952165" lon="9.298640573905399"><ele>115.0</ele><time>2026-03-29T13:02:41Z</time></trkpt><trkpt lat="45.48535221746392" lon="9.298652826924572"><ele>115.0</ele><time>2026-03-29T13:02:42Z</time></trkpt><trkpt lat="45.485266440826166" lon="9.298688501980363"><ele>115.0</ele><time>2026-03-29T13:02:43Z</time></trkpt><trkpt lat="45.48518960722576" lon="9.298730236191826"><ele>115.2</ele><time>2026-03-29T13:02:44Z</time></trkpt><trkpt lat="45.485121854413535" lon="9.298802358588373"><ele>115.4</ele><time>2026-03-29T13:02:45Z</time></trkpt><trkpt lat="45.48506890901827" lon="9.298928362245965"><ele>115.6</ele><time>2026-03-29T13:02:46Z</time></trkpt><trkpt lat="45.48501755897218" lon="9.299052697399189"><ele>115.8</ele><time>2026-03-29T13:02:47Z</time></trkpt><trkpt lat="45.48495045890774" lon="9.299138969793049"><ele>116.0</ele><time>2026-03-29T13:02:48Z</time></trkpt><trkpt lat="45.484860851562395" lon="9.299192781918954"><ele>115.75</ele><time>2026-03-29T13:02:49Z</time></trkpt><trkpt lat="45.48475093578165" lon="9.299187443515178"><ele>115.5</ele><time>2026-03-29T13:02:50Z</time></trkpt><trkpt lat="45.48463685845828" lon="9.299229707019737"><ele>115.25</ele><time>2026-03-29T13:02:51Z</time></trkpt><trkpt lat="45.48451816249175" lon="9.299243206588663"><ele>115.0</ele><time>2026-03-29T13:02:52Z</time></trkpt><trkpt lat="45.48439606270978" lon="9.29926210085832"><ele>115.0</ele><time>2026-03-29T13:02:53Z</time></trkpt><trkpt lat="45.48427193234554" lon="9.299282734420752"><ele>115.0</ele><time>2026-03-29T13:02:54Z</time></trkpt><trkpt lat="45.48414930418798" lon="9.299304029253173"><ele>115.0</ele><time>2026-03-29T13:02:55Z</time></trkpt><trkpt lat="45.48404198460043" lon="9.29932706088274"><ele>115.0</ele><time>2026-03-29T13:02:56Z</time></trkpt><trkpt lat="45.48394392208189" lon="9.29934587361805"><ele>115.0</ele><time>2026-03-29T13:02:57Z</time></trkpt><trkpt lat="45.4838547147359" lon="9.299362872006046"><ele>115.0</ele><time>2026-03-29T13:02:58Z</time></trkpt><trkpt lat="45.48377218700593" lon="9.299376227510349"><ele>115.0</ele><time>2026-03-29T13:02:59Z</time></trkpt><trkpt lat="45.483690113922464" lon="9.29938747542135"><ele>115.0</ele><time>2026-03-29T13:03:00Z</time></trkpt><trkpt lat="45.48359849915204" lon="9.299359129447723"><ele>115.0</ele><time>2026-03-29T13:03:01Z</time></trkpt><trkpt lat="45.48350262930136" lon="9.299421953476152"><ele>115.0</ele><time>2026-03-29T13:03:02Z</time></trkpt><trkpt lat="45.48328946782742" lon="9.299567290667817"><ele>115.0</ele><time>2026-03-29T13:03:04Z</time></trkpt><trkpt lat="45.483169632025735" lon="9.299636616208577"><ele>115.0</ele><time>2026-03-29T13:03:05Z</time></trkpt><trkpt lat="45.483038979284714" lon="9.299696013813781"><ele>115.25</ele><time>2026-03-29T13:03:06Z</time></trkpt><trkpt lat="45.48289978583461" lon="9.299754744394761"><ele>115.5</ele><time>2026-03-29T13:03:07Z</time></trkpt><trkpt lat="45.48275570838201" lon="9.299817793357771"><ele>115.75</ele><time>2026-03-29T13:03:08Z</time></trkpt><trkpt lat="45.482608644510755" lon="9.299873543124866"><ele>116.0</ele><time>2026-03-29T13:03:09Z</time></trkpt><trkpt lat="45.48245618338955" lon="9.299930041166572"><ele>116.0</ele><time>2026-03-29T13:03:10Z</time></trkpt><trkpt lat="45.48229699115411" lon="9.299990962021592"><ele>116.0</ele><time>2026-03-29T13:03:11Z</time></trkpt><trkpt lat="45.48213455966309" lon="9.300053464825957"><ele>116.0</ele><time>2026-03-29T13:03:12Z</time></trkpt><trkpt lat="45.48196977228065" lon="9.30011495913509"><ele>116.33333333333333</ele><time>2026-03-29T13:03:13Z</time></trkpt><trkpt lat="45.48180539120743" lon="9.300171033127615"><ele>116.66666666666666</ele><time>2026-03-29T13:03:14Z</time></trkpt><trkpt lat="45.48164482297801" lon="9.30022820887713"><ele>117.0</ele><time>2026-03-29T13:03:15Z</time></trkpt><trkpt lat="45.481493517850986" lon="9.30028228060699"><ele>117.0</ele><time>2026-03-29T13:03:16Z</time></trkpt><trkpt lat="45.48135083540706" lon="9.300332056817236"><ele>117.0</ele><time>2026-03-29T13:03:17Z</time></trkpt><trkpt lat="45.4812053772936" lon="9.30038646725651"><ele>117.0</ele><time>2026-03-29T13:03:18Z</time></trkpt><trkpt lat="45.481066036239284" lon="9.300439538513334"><ele>117.0</ele><time>2026-03-29T13:03:19Z</time></trkpt><trkpt lat="45.48091843400337" lon="9.300491841507844"><ele>116.66666666666666</ele><time>2026-03-29T13:03:20Z</time></trkpt><trkpt lat="45.48076383355045" lon="9.30054593716548"><ele>116.33333333333333</ele><time>2026-03-29T13:03:21Z</time></trkpt><trkpt lat="45.48060877780253" lon="9.300600070572163"><ele>116.0</ele><time>2026-03-29T13:03:22Z</time></trkpt><trkpt lat="45.4804591514277" lon="9.300657780711692"><ele>115.66666666666666</ele><time>2026-03-29T13:03:23Z</time></trkpt><trkpt lat="45.4803084711637" lon="9.300716064416898"><ele>115.33333333333334</ele><time>2026-03-29T13:03:24Z</time></trkpt><trkpt lat="45.48015826775134" lon="9.300767588728217"><ele>115.0</ele><time>2026-03-29T13:03:25Z</time></trkpt><trkpt lat="45.48000412677035" lon="9.300825890326502"><ele>115.0</ele><time>2026-03-29T13:03:26Z</time></trkpt><trkpt lat="45.479855381463686" lon="9.300880371749491"><ele>115.0</ele><time>2026-03-29T13:03:27Z</time></trkpt><trkpt lat="45.47970704424417" lon="9.300933822280701"><ele>115.0</ele><time>2026-03-29T13:03:28Z</time></trkpt><trkpt lat="45.47956031969062" lon="9.300987458720337"><ele>115.25</ele><time>2026-03-29T13:03:29Z</time></trkpt><trkpt lat="45.479414050679" lon="9.301046020080527"><ele>115.5</ele><time>2026-03-29T13:03:30Z</time></trkpt><trkpt lat="45.47926874049295" lon="9.301090304777032"><ele>115.75</ele><time>2026-03-29T13:03:31Z</time></trkpt><trkpt lat="45.479129796515664" lon="9.301147233619261"><ele>116.0</ele><time>2026-03-29T13:03:32Z</time></trkpt><trkpt lat="45.478986103581455" lon="9.301196827445947"><ele>116.0</ele><time>2026-03-29T13:03:33Z</time></trkpt><trkpt lat="45.478847551576955" lon="9.301253143545972"><ele>116.0</ele><time>2026-03-29T13:03:34Z</time></trkpt><trkpt lat="45.478713881790945" lon="9.301301273961458"><ele>116.0</ele><time>2026-03-29T13:03:35Z</time></trkpt><trkpt lat="45.47859141079513" lon="9.301344614751978"><ele>116.0</ele><time>2026-03-29T13:03:36Z</time></trkpt><trkpt lat="45.47846424760246" lon="9.301390078110748"><ele>115.5</ele><time>2026-03-29T13:03:37Z</time></trkpt><trkpt lat="45.47834447636303" lon="9.301429811064374"><ele>115.0</ele><time>2026-03-29T13:03:38Z</time></trkpt><trkpt lat="45.47822875029194" lon="9.301470036473411"><ele>114.5</ele><time>2026-03-29T13:03:39Z</time></trkpt><trkpt lat="45.47811715448618" lon="9.301506106253493"><ele>114.0</ele><time>2026-03-29T13:03:40Z</time></trkpt><trkpt lat="45.478015675641245" lon="9.301527126162519"><ele>113.80000000000001</ele><time>2026-03-29T13:03:41Z</time></trkpt><trkpt lat="45.47792547755121" lon="9.3015843107064"><ele>113.60000000000001</ele><time>2026-03-29T13:03:42Z</time></trkpt><trkpt lat="45.47786593190843" lon="9.30169184728937"><ele>113.4</ele><time>2026-03-29T13:03:43.001Z</time></trkpt><trkpt lat="45.47782682950329" lon="9.301837090562438"><ele>113.2</ele><time>2026-03-29T13:03:44.001Z</time></trkpt><trkpt lat="45.47783812845224" lon="9.301985434478668"><ele>113.0</ele><time>2026-03-29T13:03:45.001Z</time></trkpt><trkpt lat="45.477886936483" lon="9.302127024799862"><ele>113.25</ele><time>2026-03-29T13:03:46.001Z</time></trkpt><trkpt lat="45.47797270562041" lon="9.30226189468571"><ele>113.5</ele><time>2026-03-29T13:03:47.001Z</time></trkpt><trkpt lat="45.4780602494853" lon="9.302404216194537"><ele>113.75</ele><time>2026-03-29T13:03:48.001Z</time></trkpt><trkpt lat="45.47814540914288" lon="9.302559202114177"><ele>114.0</ele><time>2026-03-29T13:03:49Z</time></trkpt><trkpt lat="45.47822680463264" lon="9.30271224159088"><ele>114.0</ele><time>2026-03-29T13:03:50Z</time></trkpt><trkpt lat="45.47830854233765" lon="9.302859676876125"><ele>114.0</ele><time>2026-03-29T13:03:51Z</time></trkpt><trkpt lat="45.478385321486826" lon="9.302999328647301"><ele>114.0</ele><time>2026-03-29T13:03:52Z</time></trkpt><trkpt lat="45.478455327526596" lon="9.303128992047327"><ele>114.0</ele><time>2026-03-29T13:03:53Z</time></trkpt><trkpt lat="45.47851571813824" lon="9.303253452217836"><ele>114.0</ele><time>2026-03-29T13:03:54Z</time></trkpt><trkpt lat="45.478554936345894" lon="9.303363689493054"><ele>114.0</ele><time>2026-03-29T13:03:55Z</time></trkpt><trkpt lat="45.47856571907212" lon="9.303480582427246"><ele>114.0</ele><time>2026-03-29T13:03:56Z</time></trkpt><trkpt lat="45.4785491751689" lon="9.303601944560594"><ele>114.0</ele><time>2026-03-29T13:03:57Z</time></trkpt><trkpt lat="45.478503862993215" lon="9.303712505966956"><ele>114.0</ele><time>2026-03-29T13:03:58Z</time></trkpt><trkpt lat="45.478438825757706" lon="9.303803406327425"><ele>114.0</ele><time>2026-03-29T13:03:59Z</time></trkpt><trkpt lat="45.47835440138653" lon="9.3038549264899"><ele>114.0</ele><time>2026-03-29T13:04:00Z</time></trkpt><trkpt lat="45.478269022544886" lon="9.30387514941109"><ele>114.0</ele><time>2026-03-29T13:04:01Z</time></trkpt><trkpt lat="45.4781818955756" lon="9.303873179018398"><ele>114.0</ele><time>2026-03-29T13:04:02Z</time></trkpt><trkpt lat="45.47808121584847" lon="9.303841047071595"><ele>114.0</ele><time>2026-03-29T13:04:03Z</time></trkpt><trkpt lat="45.477978763993605" lon="9.303778543252097"><ele>114.0</ele><time>2026-03-29T13:04:04Z</time></trkpt><trkpt lat="45.477877360482424" lon="9.303700999061848"><ele>114.0</ele><time>2026-03-29T13:04:05Z</time></trkpt><trkpt lat="45.47777384027576" lon="9.303635723666398"><ele>114.0</ele><time>2026-03-29T13:04:06Z</time></trkpt><trkpt lat="45.47767249802108" lon="9.303599242731195"><ele>114.0</ele><time>2026-03-29T13:04:07Z</time></trkpt><trkpt lat="45.47757337270866" lon="9.303595611804793"><ele>114.0</ele><time>2026-03-29T13:04:08Z</time></trkpt><trkpt lat="45.47747138332626" lon="9.303627382128036"><ele>114.0</ele><time>2026-03-29T13:04:09Z</time></trkpt><trkpt lat="45.47736380642181" lon="9.303685422129425"><ele>114.0</ele><time>2026-03-29T13:04:10Z</time></trkpt><trkpt lat="45.47726279758493" lon="9.303812211130717"><ele>114.0</ele><time>2026-03-29T13:04:11Z</time></trkpt><trkpt lat="45.477121868535136" lon="9.303866192873032"><ele>114.0</ele><time>2026-03-29T13:04:12Z</time></trkpt><trkpt lat="45.476981493853906" lon="9.303905986706903"><ele>114.0</ele><time>2026-03-29T13:04:13Z</time></trkpt><trkpt lat="45.476836450302464" lon="9.303875662541875"><ele>113.33333333333334</ele><time>2026-03-29T13:04:14Z</time></trkpt><trkpt lat="45.47668436989293" lon="9.30389244658717"><ele>112.66666666666667</ele><time>2026-03-29T13:04:15Z</time></trkpt><trkpt lat="45.47652967405468" lon="9.30388994138048"><ele>112.0</ele><time>2026-03-29T13:04:16Z</time></trkpt><trkpt lat="45.47636643729033" lon="9.30389237073231"><ele>111.66666666666667</ele><time>2026-03-29T13:04:17Z</time></trkpt><trkpt lat="45.476200102171624" lon="9.303895383178077"><ele>111.33333333333334</ele><time>2026-03-29T13:04:18Z</time></trkpt><trkpt lat="45.476034578684796" lon="9.303898992695888"><ele>111.0</ele><time>2026-03-29T13:04:19Z</time></trkpt><trkpt lat="45.47586359970146" lon="9.303905680824341"><ele>111.0</ele><time>2026-03-29T13:04:20Z</time></trkpt><trkpt lat="45.47569335726457" lon="9.30391128606598"><ele>111.0</ele><time>2026-03-29T13:04:21Z</time></trkpt><trkpt lat="45.47554408311086" lon="9.303913582219092"><ele>111.0</ele><time>2026-03-29T13:04:22Z</time></trkpt><trkpt lat="45.47541086690621" lon="9.303915694634503"><ele>111.4</ele><time>2026-03-29T13:04:23Z</time></trkpt><trkpt lat="45.475298056858485" lon="9.303910366360507"><ele>111.8</ele><time>2026-03-29T13:04:24Z</time></trkpt><trkpt lat="45.47519416070636" lon="9.303911999960594"><ele>112.20000000000002</ele><time>2026-03-29T13:04:25Z</time></trkpt><trkpt lat="45.475102755907" lon="9.303907204697618"><ele>112.60000000000001</ele><time>2026-03-29T13:04:26Z</time></trkpt><trkpt lat="45.4750183803036" lon="9.303900598401011"><ele>113.0</ele><time>2026-03-29T13:04:27Z</time></trkpt><trkpt lat="45.47494882258295" lon="9.303888602818402"><ele>112.99999999999999</ele><time>2026-03-29T13:04:28Z</time></trkpt><trkpt lat="45.474878615568116" lon="9.30388276456759"><ele>113.0</ele><time>2026-03-29T13:04:29Z</time></trkpt><trkpt lat="45.474799033965404" lon="9.303877678286625"><ele>113.0</ele><time>2026-03-29T13:04:30Z</time></trkpt><trkpt lat="45.47470871885549" lon="9.303859925597614"><ele>113.0</ele><time>2026-03-29T13:04:31Z</time></trkpt><trkpt lat="45.47462945258915" lon="9.303832268598567"><ele>112.99999999999999</ele><time>2026-03-29T13:04:32Z</time></trkpt><trkpt lat="45.4745624260646" lon="9.303795560652556"><ele>113.0</ele><time>2026-03-29T13:04:33Z</time></trkpt><trkpt lat="45.47449213543692" lon="9.30376065200132"><ele>113.2</ele><time>2026-03-29T13:04:34Z</time></trkpt><trkpt lat="45.47440587872451" lon="9.3037774813638"><ele>113.4</ele><time>2026-03-29T13:04:35Z</time></trkpt><trkpt lat="45.47430552643997" lon="9.303839941734038"><ele>113.60000000000001</ele><time>2026-03-29T13:04:36Z</time></trkpt><trkpt lat="45.4741935388312" lon="9.303891285256196"><ele>113.80000000000001</ele><time>2026-03-29T13:04:37Z</time></trkpt><trkpt lat="45.4740626387568" lon="9.303916728694432"><ele>114.0</ele><time>2026-03-29T13:04:38Z</time></trkpt><trkpt lat="45.47392244809368" lon="9.303912725517382"><ele>114.0</ele><time>2026-03-29T13:04:39Z</time></trkpt><trkpt lat="45.47376835731226" lon="9.303907121233651"><ele>114.0</ele><time>2026-03-29T13:04:40Z</time></trkpt><trkpt lat="45.47360315979052" lon="9.303903681470272"><ele>114.0</ele><time>2026-03-29T13:04:41Z</time></trkpt><trkpt lat="45.47343514800908" lon="9.303909278973853"><ele>114.0</ele><time>2026-03-29T13:04:42Z</time></trkpt><trkpt lat="45.47325860352648" lon="9.303909160524707"><ele>114.0</ele><time>2026-03-29T13:04:43Z</time></trkpt><trkpt lat="45.47307922059739" lon="9.303916036630497"><ele>114.0</ele><time>2026-03-29T13:04:44Z</time></trkpt><trkpt lat="45.47289733039763" lon="9.303919402913019"><ele>114.33333333333334</ele><time>2026-03-29T13:04:45Z</time></trkpt><trkpt lat="45.47270689991778" lon="9.30391988773716"><ele>114.66666666666667</ele><time>2026-03-29T13:04:46Z</time></trkpt><trkpt lat="45.4725133751916" lon="9.3039199966179"><ele>115.0</ele><time>2026-03-29T13:04:47Z</time></trkpt><trkpt lat="45.47231936917852" lon="9.303919654855687"><ele>115.0</ele><time>2026-03-29T13:04:48Z</time></trkpt><trkpt lat="45.472133327310864" lon="9.303922111016085"><ele>115.0</ele><time>2026-03-29T13:04:49Z</time></trkpt><trkpt lat="45.47193990963901" lon="9.303924661014735"><ele>115.0</ele><time>2026-03-29T13:04:50Z</time></trkpt><trkpt lat="45.47174373287831" lon="9.303926130088133"><ele>115.0</ele><time>2026-03-29T13:04:51Z</time></trkpt><trkpt lat="45.471548865130984" lon="9.303927860895909"><ele>115.0</ele><time>2026-03-29T13:04:52Z</time></trkpt><trkpt lat="45.47135375626864" lon="9.303928739921787"><ele>115.0</ele><time>2026-03-29T13:04:53Z</time></trkpt><trkpt lat="45.47115597184026" lon="9.30393117724169"><ele>114.33333333333334</ele><time>2026-03-29T13:04:54Z</time></trkpt><trkpt lat="45.470959142224075" lon="9.303921023493325"><ele>113.66666666666666</ele><time>2026-03-29T13:04:55Z</time></trkpt><trkpt lat="45.47075886352841" lon="9.303891590401417"><ele>113.0</ele><time>2026-03-29T13:04:56Z</time></trkpt><trkpt lat="45.47056479899058" lon="9.303829988879473"><ele>111.66666666666666</ele><time>2026-03-29T13:04:57Z</time></trkpt><trkpt lat="45.47038491590964" lon="9.303742089301227"><ele>110.33333333333334</ele><time>2026-03-29T13:04:58Z</time></trkpt><trkpt lat="45.47022032147631" lon="9.303659200464253"><ele>109.0</ele><time>2026-03-29T13:04:59Z</time></trkpt><trkpt lat="45.47006231739503" lon="9.30363502246628"><ele>109.0</ele><time>2026-03-29T13:05:00Z</time></trkpt><trkpt lat="45.46992059628057" lon="9.303576792602636"><ele>109.0</ele><time>2026-03-29T13:05:01Z</time></trkpt><trkpt lat="45.46980965494752" lon="9.303546312624265"><ele>109.0</ele><time>2026-03-29T13:05:02Z</time></trkpt><trkpt lat="45.4697079923328" lon="9.303458091877115"><ele>109.0</ele><time>2026-03-29T13:05:03Z</time></trkpt><trkpt lat="45.469622990583154" lon="9.303319839601398"><ele>108.5</ele><time>2026-03-29T13:05:04Z</time></trkpt><trkpt lat="45.469548234915635" lon="9.303208031181098"><ele>108.0</ele><time>2026-03-29T13:05:05Z</time></trkpt><trkpt lat="45.469461992937575" lon="9.30313479610417"><ele>107.5</ele><time>2026-03-29T13:05:06Z</time></trkpt><trkpt lat="45.46934422108448" lon="9.303188763627036"><ele>107.0</ele><time>2026-03-29T13:05:07Z</time></trkpt><trkpt lat="45.46923990824476" lon="9.303283938448448"><ele>107.0</ele><time>2026-03-29T13:05:08Z</time></trkpt><trkpt lat="45.469177317278834" lon="9.303441216353145"><ele>107.0</ele><time>2026-03-29T13:05:09Z</time></trkpt><trkpt lat="45.46904370622759" lon="9.3034891577916"><ele>107.0</ele><time>2026-03-29T13:05:10Z</time></trkpt><trkpt lat="45.46890776467286" lon="9.303503168441402"><ele>107.0</ele><time>2026-03-29T13:05:11Z</time></trkpt><trkpt lat="45.4687492008941" lon="9.303474818408574"><ele>107.66666666666666</ele><time>2026-03-29T13:05:12Z</time></trkpt><trkpt lat="45.46858316304081" lon="9.30342764665927"><ele>108.33333333333334</ele><time>2026-03-29T13:05:13Z</time></trkpt><trkpt lat="45.468416948678986" lon="9.303371714586193"><ele>109.0</ele><time>2026-03-29T13:05:14Z</time></trkpt><trkpt lat="45.468251121865386" lon="9.303313576709412"><ele>109.0</ele><time>2026-03-29T13:05:15Z</time></trkpt><trkpt lat="45.468074214014024" lon="9.303242556015194"><ele>109.0</ele><time>2026-03-29T13:05:16Z</time></trkpt><trkpt lat="45.467897954812784" lon="9.303178984754048"><ele>109.0</ele><time>2026-03-29T13:05:17Z</time></trkpt><trkpt lat="45.467716336608014" lon="9.303107365044557"><ele>109.33333333333334</ele><time>2026-03-29T13:05:18Z</time></trkpt><trkpt lat="45.46753817332575" lon="9.303023501317362"><ele>109.66666666666666</ele><time>2026-03-29T13:05:19Z</time></trkpt><trkpt lat="45.46735939746008" lon="9.302931267299844"><ele>110.0</ele><time>2026-03-29T13:05:20Z</time></trkpt><trkpt lat="45.46718068699604" lon="9.30283674799686"><ele>109.66666666666666</ele><time>2026-03-29T13:05:21Z</time></trkpt><trkpt lat="45.467006375991424" lon="9.302757531572212"><ele>109.33333333333334</ele><time>2026-03-29T13:05:22Z</time></trkpt><trkpt lat="45.466830208373835" lon="9.302691621467357"><ele>109.0</ele><time>2026-03-29T13:05:23Z</time></trkpt><trkpt lat="45.466658746693405" lon="9.302645088144065"><ele>109.0</ele><time>2026-03-29T13:05:24Z</time></trkpt><trkpt lat="45.46650182529886" lon="9.302608395719066"><ele>109.0</ele><time>2026-03-29T13:05:25Z</time></trkpt><trkpt lat="45.46636674320403" lon="9.302580591673273"><ele>109.0</ele><time>2026-03-29T13:05:26Z</time></trkpt><trkpt lat="45.46625176101461" lon="9.302555112464669"><ele>109.0</ele><time>2026-03-29T13:05:27Z</time></trkpt><trkpt lat="45.466149943354786" lon="9.30252759838752"><ele>109.4</ele><time>2026-03-29T13:05:28Z</time></trkpt><trkpt lat="45.466051956615914" lon="9.302485500951581"><ele>109.80000000000001</ele><time>2026-03-29T13:05:29Z</time></trkpt><trkpt lat="45.46596204867704" lon="9.30241464748143"><ele>110.19999999999999</ele><time>2026-03-29T13:05:30Z</time></trkpt><trkpt lat="45.46588124109487" lon="9.30233243823241"><ele>110.6</ele><time>2026-03-29T13:05:31Z</time></trkpt><trkpt lat="45.46579037400622" lon="9.302284659497108"><ele>111.0</ele><time>2026-03-29T13:05:32.001Z</time></trkpt><trkpt lat="45.46569866956431" lon="9.302307235355153"><ele>111.0</ele><time>2026-03-29T13:05:33.001Z</time></trkpt><trkpt lat="45.46562090640201" lon="9.302399883322199"><ele>111.0</ele><time>2026-03-29T13:05:34.001Z</time></trkpt><trkpt lat="45.46557341349607" lon="9.30253228568592"><ele>111.0</ele><time>2026-03-29T13:05:35.001Z</time></trkpt><trkpt lat="45.46559516336969" lon="9.302685986419565"><ele>111.0</ele><time>2026-03-29T13:05:36.001Z</time></trkpt><trkpt lat="45.465470971627134" lon="9.30279163997561"><ele>110.25</ele><time>2026-03-29T13:05:37.001Z</time></trkpt><trkpt lat="45.465358084872406" lon="9.302869421504798"><ele>109.5</ele><time>2026-03-29T13:05:38.001Z</time></trkpt><trkpt lat="45.4652213710183" lon="9.302931218254058"><ele>108.75</ele><time>2026-03-29T13:05:39.001Z</time></trkpt><trkpt lat="45.46506939194566" lon="9.302980286782804"><ele>108.0</ele><time>2026-03-29T13:05:40.001Z</time></trkpt><trkpt lat="45.46490361051051" lon="9.303014724009687"><ele>108.0</ele><time>2026-03-29T13:05:41.001Z</time></trkpt><trkpt lat="45.46473422970939" lon="9.303029870512823"><ele>108.0</ele><time>2026-03-29T13:05:42.001Z</time></trkpt><trkpt lat="45.464560223708396" lon="9.303037355260333"><ele>108.0</ele><time>2026-03-29T13:05:43.001Z</time></trkpt><trkpt lat="45.46437971070355" lon="9.303039742949906"><ele>108.33333333333334</ele><time>2026-03-29T13:05:44.001Z</time></trkpt><trkpt lat="45.46418983226995" lon="9.303045956443336"><ele>108.66666666666667</ele><time>2026-03-29T13:05:45.001Z</time></trkpt><trkpt lat="45.4640036336496" lon="9.303056234306357"><ele>109.0</ele><time>2026-03-29T13:05:46.001Z</time></trkpt><trkpt lat="45.46383365581509" lon="9.303065143237964"><ele>109.0</ele><time>2026-03-29T13:05:47.001Z</time></trkpt><trkpt lat="45.46367255253585" lon="9.303072341999833"><ele>109.0</ele><time>2026-03-29T13:05:48.001Z</time></trkpt><trkpt lat="45.463527168655766" lon="9.303079735718033"><ele>109.0</ele><time>2026-03-29T13:05:49.001Z</time></trkpt><trkpt lat="45.4633878744701" lon="9.303085376037892"><ele>109.0</ele><time>2026-03-29T13:05:50.001Z</time></trkpt><trkpt lat="45.46325521313902" lon="9.303092233688297"><ele>109.0</ele><time>2026-03-29T13:05:51.001Z</time></trkpt><trkpt lat="45.46313056966545" lon="9.303093039216048"><ele>109.0</ele><time>2026-03-29T13:05:52.001Z</time></trkpt><trkpt lat="45.46300988048908" lon="9.303093224632468"><ele>109.0</ele><time>2026-03-29T13:05:53.001Z</time></trkpt><trkpt lat="45.46290108541495" lon="9.303096775517979"><ele>109.0</ele><time>2026-03-29T13:05:54.001Z</time></trkpt><trkpt lat="45.46281365998378" lon="9.303107962634272"><ele>109.0</ele><time>2026-03-29T13:05:55Z</time></trkpt><trkpt lat="45.46270940439419" lon="9.303095772871215"><ele>109.0</ele><time>2026-03-29T13:05:57Z</time></trkpt><trkpt lat="45.46270440384116" lon="9.303445752204349"><ele>109.0</ele><time>2026-03-29T13:05:59Z</time></trkpt><trkpt lat="45.46272836504498" lon="9.303561993800137"><ele>109.0</ele><time>2026-03-29T13:06:00Z</time></trkpt><trkpt lat="45.46275448579974" lon="9.303692715922313"><ele>109.0</ele><time>2026-03-29T13:06:01Z</time></trkpt><trkpt lat="45.462777411530574" lon="9.303817398586887"><ele>109.0</ele><time>2026-03-29T13:06:02Z</time></trkpt><trkpt lat="45.462801166489804" lon="9.303963466112322"><ele>109.0</ele><time>2026-03-29T13:06:03Z</time></trkpt><trkpt lat="45.462821360779365" lon="9.304110766955368"><ele>109.0</ele><time>2026-03-29T13:06:04Z</time></trkpt><trkpt lat="45.46284463447023" lon="9.304255734600872"><ele>109.0</ele><time>2026-03-29T13:06:05Z</time></trkpt><trkpt lat="45.462867518076564" lon="9.30440135641546"><ele>109.0</ele><time>2026-03-29T13:06:06Z</time></trkpt><trkpt lat="45.46289297628198" lon="9.304550415768817"><ele>109.0</ele><time>2026-03-29T13:06:07Z</time></trkpt><trkpt lat="45.46291788903242" lon="9.304701670200428"><ele>109.0</ele><time>2026-03-29T13:06:08Z</time></trkpt><trkpt lat="45.46294227918463" lon="9.304851706538289"><ele>109.0</ele><time>2026-03-29T13:06:09Z</time></trkpt><trkpt lat="45.462966150378634" lon="9.30500449549688"><ele>109.0</ele><time>2026-03-29T13:06:10Z</time></trkpt><trkpt lat="45.46299081039895" lon="9.305150485323008"><ele>109.0</ele><time>2026-03-29T13:06:11Z</time></trkpt><trkpt lat="45.46301438689954" lon="9.305290734279774"><ele>108.4</ele><time>2026-03-29T13:06:12Z</time></trkpt><trkpt lat="45.463036398577806" lon="9.305429053925039"><ele>107.80000000000001</ele><time>2026-03-29T13:06:13Z</time></trkpt><trkpt lat="45.46305894231036" lon="9.3055736341508"><ele>107.19999999999999</ele><time>2026-03-29T13:06:14Z</time></trkpt><trkpt lat="45.46308083134312" lon="9.305730265705792"><ele>106.6</ele><time>2026-03-29T13:06:15Z</time></trkpt><trkpt lat="45.46310352898835" lon="9.305893685243358"><ele>106.0</ele><time>2026-03-29T13:06:16Z</time></trkpt><trkpt lat="45.46312800847304" lon="9.306053688973622"><ele>106.0</ele><time>2026-03-29T13:06:17Z</time></trkpt><trkpt lat="45.463153534744166" lon="9.306219501096736"><ele>106.0</ele><time>2026-03-29T13:06:18Z</time></trkpt><trkpt lat="45.463181159475745" lon="9.306396757004226"><ele>106.0</ele><time>2026-03-29T13:06:19Z</time></trkpt><trkpt lat="45.463205341990175" lon="9.30657353930284"><ele>106.0</ele><time>2026-03-29T13:06:20Z</time></trkpt><trkpt lat="45.463230001408284" lon="9.30674724911476"><ele>106.25</ele><time>2026-03-29T13:06:21Z</time></trkpt><trkpt lat="45.463254359560445" lon="9.306921305884861"><ele>106.5</ele><time>2026-03-29T13:06:22Z</time></trkpt><trkpt lat="45.463275418041206" lon="9.307091689460455"><ele>106.75</ele><time>2026-03-29T13:06:23Z</time></trkpt><trkpt lat="45.46330156522233" lon="9.307262512350565"><ele>107.0</ele><time>2026-03-29T13:06:24Z</time></trkpt><trkpt lat="45.463326283835585" lon="9.307433483929842"><ele>107.5</ele><time>2026-03-29T13:06:25Z</time></trkpt><trkpt lat="45.46334902172497" lon="9.30760394651432"><ele>108.0</ele><time>2026-03-29T13:06:26Z</time></trkpt><trkpt lat="45.46337019135553" lon="9.307769604790339"><ele>108.5</ele><time>2026-03-29T13:06:27Z</time></trkpt><trkpt lat="45.46339339286095" lon="9.307936888545449"><ele>109.0</ele><time>2026-03-29T13:06:28Z</time></trkpt><trkpt lat="45.46341553632021" lon="9.308104765721124"><ele>110.0</ele><time>2026-03-29T13:06:29Z</time></trkpt><trkpt lat="45.46343571023806" lon="9.308274709042403"><ele>111.0</ele><time>2026-03-29T13:06:30Z</time></trkpt><trkpt lat="45.463455474715055" lon="9.3084457160646"><ele>112.0</ele><time>2026-03-29T13:06:31Z</time></trkpt><trkpt lat="45.46347702944219" lon="9.308615693717174"><ele>113.0</ele><time>2026-03-29T13:06:32Z</time></trkpt><trkpt lat="45.463500944507025" lon="9.308786327896051"><ele>112.25</ele><time>2026-03-29T13:06:33Z</time></trkpt><trkpt lat="45.463529459154095" lon="9.308961160017306"><ele>111.5</ele><time>2026-03-29T13:06:34Z</time></trkpt><trkpt lat="45.46355349614465" lon="9.309140176934035"><ele>110.75</ele><time>2026-03-29T13:06:35Z</time></trkpt><trkpt lat="45.46358091250153" lon="9.309319298152959"><ele>110.0</ele><time>2026-03-29T13:06:36Z</time></trkpt><trkpt lat="45.46360805633221" lon="9.309493999398763"><ele>110.0</ele><time>2026-03-29T13:06:37Z</time></trkpt><trkpt lat="45.46363343120331" lon="9.309657573541202"><ele>110.0</ele><time>2026-03-29T13:06:38Z</time></trkpt><trkpt lat="45.463660838762785" lon="9.309819899002058"><ele>110.0</ele><time>2026-03-29T13:06:39Z</time></trkpt><trkpt lat="45.46368585282898" lon="9.309986961216866"><ele>110.0</ele><time>2026-03-29T13:06:40Z</time></trkpt><trkpt lat="45.463711053003216" lon="9.31015790385418"><ele>110.0</ele><time>2026-03-29T13:06:41Z</time></trkpt><trkpt lat="45.46373577684169" lon="9.310331272943401"><ele>110.0</ele><time>2026-03-29T13:06:42Z</time></trkpt><trkpt lat="45.463761804558686" lon="9.310503744611442"><ele>110.0</ele><time>2026-03-29T13:06:43Z</time></trkpt><trkpt lat="45.46378388183403" lon="9.310671739796838"><ele>110.0</ele><time>2026-03-29T13:06:44Z</time></trkpt><trkpt lat="45.4638089375431" lon="9.310842002771501"><ele>110.0</ele><time>2026-03-29T13:06:45Z</time></trkpt><trkpt lat="45.463833134774774" lon="9.311008163823754"><ele>110.0</ele><time>2026-03-29T13:06:46Z</time></trkpt><trkpt lat="45.46385634550593" lon="9.311173832267935"><ele>110.0</ele><time>2026-03-29T13:06:47Z</time></trkpt><trkpt lat="45.46387309288314" lon="9.311336756170773"><ele>110.0</ele><time>2026-03-29T13:06:48Z</time></trkpt><trkpt lat="45.46388605808742" lon="9.311496312654567"><ele>110.2</ele><time>2026-03-29T13:06:49Z</time></trkpt><trkpt lat="45.46389491136956" lon="9.31164231479281"><ele>110.4</ele><time>2026-03-29T13:06:50Z</time></trkpt><trkpt lat="45.46390145496885" lon="9.311784798372301"><ele>110.6</ele><time>2026-03-29T13:06:51Z</time></trkpt><trkpt lat="45.46390140357065" lon="9.311915312498687"><ele>110.8</ele><time>2026-03-29T13:06:52Z</time></trkpt><trkpt lat="45.46390002475734" lon="9.312038771744005"><ele>111.0</ele><time>2026-03-29T13:06:53Z</time></trkpt><trkpt lat="45.46389944213295" lon="9.312159459725041"><ele>110.66666666666667</ele><time>2026-03-29T13:06:54Z</time></trkpt><trkpt lat="45.46389644166396" lon="9.31228064002683"><ele>110.33333333333334</ele><time>2026-03-29T13:06:55Z</time></trkpt><trkpt lat="45.46389040361835" lon="9.312402259110028"><ele>110.0</ele><time>2026-03-29T13:06:56Z</time></trkpt><trkpt lat="45.463890282723995" lon="9.312527942798805"><ele>109.66666666666667</ele><time>2026-03-29T13:06:57Z</time></trkpt><trkpt lat="45.463910093925364" lon="9.312652521860963"><ele>109.33333333333334</ele><time>2026-03-29T13:06:58Z</time></trkpt><trkpt lat="45.46392562079581" lon="9.312776885283169"><ele>109.0</ele><time>2026-03-29T13:06:59Z</time></trkpt><trkpt lat="45.46392447294867" lon="9.312910098483435"><ele>109.0</ele><time>2026-03-29T13:07:00Z</time></trkpt><trkpt lat="45.463915953237056" lon="9.31304866157233"><ele>109.0</ele><time>2026-03-29T13:07:01Z</time></trkpt><trkpt lat="45.463911461793415" lon="9.313182545982698"><ele>109.0</ele><time>2026-03-29T13:07:02Z</time></trkpt><trkpt lat="45.463905736892116" lon="9.313326767335159"><ele>109.0</ele><time>2026-03-29T13:07:03Z</time></trkpt><trkpt lat="45.46390110988304" lon="9.313467741726045"><ele>109.0</ele><time>2026-03-29T13:07:04Z</time></trkpt><trkpt lat="45.46390021035215" lon="9.313609270694146"><ele>109.0</ele><time>2026-03-29T13:07:05Z</time></trkpt><trkpt lat="45.463898599224116" lon="9.313753478195421"><ele>109.0</ele><time>2026-03-29T13:07:06Z</time></trkpt><trkpt lat="45.46389178611125" lon="9.313899140049923"><ele>109.0</ele><time>2026-03-29T13:07:07Z</time></trkpt><trkpt lat="45.46389482543286" lon="9.314049148634705"><ele>109.0</ele><time>2026-03-29T13:07:08Z</time></trkpt><trkpt lat="45.46390864513836" lon="9.314197628711318"><ele>109.0</ele><time>2026-03-29T13:07:09Z</time></trkpt><trkpt lat="45.46392947535855" lon="9.314347263628923"><ele>109.0</ele><time>2026-03-29T13:07:10Z</time></trkpt><trkpt lat="45.46395219688898" lon="9.314489061112118"><ele>109.0</ele><time>2026-03-29T13:07:11Z</time></trkpt><trkpt lat="45.46397072890361" lon="9.314632759709419"><ele>109.0</ele><time>2026-03-29T13:07:12Z</time></trkpt><trkpt lat="45.46397579840538" lon="9.314776804305934"><ele>109.0</ele><time>2026-03-29T13:07:13Z</time></trkpt><trkpt lat="45.46397750160946" lon="9.314919273341362"><ele>109.0</ele><time>2026-03-29T13:07:14Z</time></trkpt><trkpt lat="45.4639869740777" lon="9.31506085358566"><ele>108.6</ele><time>2026-03-29T13:07:15Z</time></trkpt><trkpt lat="45.463999851466426" lon="9.315200593114003"><ele>108.2</ele><time>2026-03-29T13:07:16Z</time></trkpt><trkpt lat="45.464008434046036" lon="9.315338740077202"><ele>107.79999999999998</ele><time>2026-03-29T13:07:17Z</time></trkpt><trkpt lat="45.46401937880251" lon="9.315476783828133"><ele>107.39999999999999</ele><time>2026-03-29T13:07:18Z</time></trkpt><trkpt lat="45.464029266961646" lon="9.3156134530181"><ele>107.0</ele><time>2026-03-29T13:07:19Z</time></trkpt><trkpt lat="45.46403556212044" lon="9.315738858141447"><ele>107.0</ele><time>2026-03-29T13:07:20Z</time></trkpt><trkpt lat="45.46404376305091" lon="9.315854842269312"><ele>106.99999999999999</ele><time>2026-03-29T13:07:21Z</time></trkpt><trkpt lat="45.46404953138566" lon="9.315967197130112"><ele>106.99999999999999</ele><time>2026-03-29T13:07:22Z</time></trkpt><trkpt lat="45.464058223957124" lon="9.316066933593463"><ele>107.0</ele><time>2026-03-29T13:07:23Z</time></trkpt><trkpt lat="45.46407124344141" lon="9.316237292310557"><ele>107.0</ele><time>2026-03-29T13:07:25Z</time></trkpt><trkpt lat="45.46408913002689" lon="9.31639998777181"><ele>107.19999999999999</ele><time>2026-03-29T13:07:27Z</time></trkpt><trkpt lat="45.464123432026426" lon="9.316551653496614"><ele>107.39999999999999</ele><time>2026-03-29T13:07:29Z</time></trkpt><trkpt lat="45.464159704624464" lon="9.316677391620685"><ele>107.60000000000001</ele><time>2026-03-29T13:07:31Z</time></trkpt><trkpt lat="45.46417854538191" lon="9.316786848401373"><ele>107.80000000000001</ele><time>2026-03-29T13:07:33.001Z</time></trkpt><trkpt lat="45.46418450467602" lon="9.316905336052377"><ele>108.0</ele><time>2026-03-29T13:07:37.001Z</time></trkpt><trkpt lat="45.464192589604906" lon="9.317034836826846"><ele>108.0</ele><time>2026-03-29T13:07:40.001Z</time></trkpt><trkpt lat="45.46417821616266" lon="9.316746008646518"><ele>108.0</ele><time>2026-03-29T13:07:51.001Z</time></trkpt><trkpt lat="45.46415405984802" lon="9.316584825724672"><ele>108.0</ele><time>2026-03-29T13:07:53.001Z</time></trkpt><trkpt lat="45.46411094622665" lon="9.316435271206709"><ele>108.0</ele><time>2026-03-29T13:07:55.001Z</time></trkpt><trkpt lat="45.464003105128235" lon="9.316377717040771"><ele>108.0</ele><time>2026-03-29T13:07:57.001Z</time></trkpt><trkpt lat="45.463945824286796" lon="9.316415455863009"><ele>108.0</ele><time>2026-03-29T13:07:58.001Z</time></trkpt><trkpt lat="45.46389494862085" lon="9.316474571904099"><ele>108.0</ele><time>2026-03-29T13:07:59.001Z</time></trkpt><trkpt lat="45.46383977296707" lon="9.316544283089323"><ele>108.0</ele><time>2026-03-29T13:08:00.001Z</time></trkpt><trkpt lat="45.46377267216909" lon="9.316604831477646"><ele>108.0</ele><time>2026-03-29T13:08:01Z</time></trkpt><trkpt lat="45.46368778096536" lon="9.316654964733193"><ele>108.0</ele><time>2026-03-29T13:08:02Z</time></trkpt><trkpt lat="45.463595996780555" lon="9.316701046768166"><ele>108.2</ele><time>2026-03-29T13:08:03Z</time></trkpt><trkpt lat="45.463507224829925" lon="9.316752819329736"><ele>108.4</ele><time>2026-03-29T13:08:04Z</time></trkpt><trkpt lat="45.463416771829536" lon="9.316807764610918"><ele>108.60000000000001</ele><time>2026-03-29T13:08:05Z</time></trkpt><trkpt lat="45.46332541637856" lon="9.316864677909257"><ele>108.80000000000001</ele><time>2026-03-29T13:08:06Z</time></trkpt><trkpt lat="45.463236514577666" lon="9.316917046745367"><ele>109.0</ele><time>2026-03-29T13:08:07Z</time></trkpt><trkpt lat="45.46315526812184" lon="9.31696677974205"><ele>109.0</ele><time>2026-03-29T13:08:08Z</time></trkpt><trkpt lat="45.46307409954675" lon="9.317011782595541"><ele>109.0</ele><time>2026-03-29T13:08:09Z</time></trkpt><trkpt lat="45.46299094178897" lon="9.317049404498949"><ele>109.0</ele><time>2026-03-29T13:08:10Z</time></trkpt><trkpt lat="45.462900600326265" lon="9.317079685894244"><ele>109.0</ele><time>2026-03-29T13:08:11Z</time></trkpt><trkpt lat="45.46281011560458" lon="9.31711232262144"><ele>109.0</ele><time>2026-03-29T13:08:12Z</time></trkpt><trkpt lat="45.46272020524645" lon="9.317148992897904"><ele>109.2</ele><time>2026-03-29T13:08:13Z</time></trkpt><trkpt lat="45.462630267481174" lon="9.31718072860773"><ele>109.4</ele><time>2026-03-29T13:08:14Z</time></trkpt><trkpt lat="45.46253837272192" lon="9.317220282997198"><ele>109.6</ele><time>2026-03-29T13:08:15Z</time></trkpt><trkpt lat="45.46244633186962" lon="9.317268747022467"><ele>109.8</ele><time>2026-03-29T13:08:16Z</time></trkpt><trkpt lat="45.462356647247276" lon="9.317339126434332"><ele>110.0</ele><time>2026-03-29T13:08:17Z</time></trkpt><trkpt lat="45.46226816272598" lon="9.317434761099259"><ele>110.0</ele><time>2026-03-29T13:08:18Z</time></trkpt><trkpt lat="45.46218228369374" lon="9.317546055583076"><ele>110.0</ele><time>2026-03-29T13:08:19Z</time></trkpt><trkpt lat="45.46208681213829" lon="9.317670671006129"><ele>110.0</ele><time>2026-03-29T13:08:20Z</time></trkpt><trkpt lat="45.46198522254789" lon="9.317804127303557"><ele>110.0</ele><time>2026-03-29T13:08:21Z</time></trkpt><trkpt lat="45.461879778736765" lon="9.31794119061986"><ele>110.0</ele><time>2026-03-29T13:08:22Z</time></trkpt><trkpt lat="45.46177914832152" lon="9.318076928248606"><ele>110.0</ele><time>2026-03-29T13:08:23Z</time></trkpt><trkpt lat="45.461675909017586" lon="9.3182081553475"><ele>110.0</ele><time>2026-03-29T13:08:24Z</time></trkpt><trkpt lat="45.46157757742951" lon="9.31833594735924"><ele>110.0</ele><time>2026-03-29T13:08:25Z</time></trkpt><trkpt lat="45.46148529837528" lon="9.318463286532559"><ele>110.0</ele><time>2026-03-29T13:08:26Z</time></trkpt><trkpt lat="45.4613945045817" lon="9.318599189138606"><ele>110.0</ele><time>2026-03-29T13:08:27Z</time></trkpt><trkpt lat="45.46130387728306" lon="9.318726288208202"><ele>110.0</ele><time>2026-03-29T13:08:28Z</time></trkpt><trkpt lat="45.461217053733" lon="9.318861115085186"><ele>110.0</ele><time>2026-03-29T13:08:29Z</time></trkpt><trkpt lat="45.46113895061518" lon="9.319006606373414"><ele>109.25</ele><time>2026-03-29T13:08:30Z</time></trkpt><trkpt lat="45.46107368910071" lon="9.31916887314113"><ele>108.5</ele><time>2026-03-29T13:08:31Z</time></trkpt><trkpt lat="45.46101097568263" lon="9.319334641136242"><ele>107.75</ele><time>2026-03-29T13:08:32Z</time></trkpt><trkpt lat="45.460953410957835" lon="9.319499076709294"><ele>107.0</ele><time>2026-03-29T13:08:33Z</time></trkpt><trkpt lat="45.46090143048274" lon="9.319647528387746"><ele>107.19999999999999</ele><time>2026-03-29T13:08:34Z</time></trkpt><trkpt lat="45.4608416112067" lon="9.31978946573759"><ele>107.39999999999999</ele><time>2026-03-29T13:08:35Z</time></trkpt><trkpt lat="45.46076777998616" lon="9.319910723772411"><ele>107.60000000000001</ele><time>2026-03-29T13:08:36Z</time></trkpt><trkpt lat="45.46067916619104" lon="9.320004106162374"><ele>107.80000000000001</ele><time>2026-03-29T13:08:37Z</time></trkpt><trkpt lat="45.46058054904537" lon="9.320073069916536"><ele>108.0</ele><time>2026-03-29T13:08:38Z</time></trkpt><trkpt lat="45.46048103301666" lon="9.320115242229532"><ele>108.0</ele><time>2026-03-29T13:08:39Z</time></trkpt><trkpt lat="45.46039595934211" lon="9.320138116560289"><ele>108.00000000000001</ele><time>2026-03-29T13:08:40Z</time></trkpt><trkpt lat="45.460332552337775" lon="9.320160969420693"><ele>108.00000000000001</ele><time>2026-03-29T13:08:41Z</time></trkpt><trkpt lat="45.46022223422384" lon="9.320189475203595"><ele>108.0</ele><time>2026-03-29T13:08:43Z</time></trkpt><trkpt lat="45.46019042985776" lon="9.320370206219673"><ele>108.0</ele><time>2026-03-29T13:08:45Z</time></trkpt><trkpt lat="45.46016963143303" lon="9.320474968206799"><ele>108.0</ele><time>2026-03-29T13:08:46Z</time></trkpt><trkpt lat="45.460115056114034" lon="9.32056308230263"><ele>108.00000000000001</ele><time>2026-03-29T13:08:47Z</time></trkpt><trkpt lat="45.46006645140503" lon="9.32067111644673"><ele>108.00000000000001</ele><time>2026-03-29T13:08:48Z</time></trkpt><trkpt lat="45.4600303543297" lon="9.32079201300087"><ele>108.0</ele><time>2026-03-29T13:08:49Z</time></trkpt><trkpt lat="45.45997156082668" lon="9.320897156866993"><ele>108.0</ele><time>2026-03-29T13:08:50Z</time></trkpt><trkpt lat="45.4599094525667" lon="9.320997756833501"><ele>108.25</ele><time>2026-03-29T13:08:51Z</time></trkpt><trkpt lat="45.45984009336896" lon="9.321119556623543"><ele>108.5</ele><time>2026-03-29T13:08:52Z</time></trkpt><trkpt lat="45.45976156199381" lon="9.321263626292142"><ele>108.75</ele><time>2026-03-29T13:08:53Z</time></trkpt><trkpt lat="45.45967578438466" lon="9.321420208883096"><ele>109.0</ele><time>2026-03-29T13:08:54Z</time></trkpt><trkpt lat="45.459591359263314" lon="9.321590841635674"><ele>108.0</ele><time>2026-03-29T13:08:55Z</time></trkpt><trkpt lat="45.45950217803327" lon="9.321772865044526"><ele>107.0</ele><time>2026-03-29T13:08:56Z</time></trkpt><trkpt lat="45.45941671235062" lon="9.32195350656629"><ele>106.0</ele><time>2026-03-29T13:08:57Z</time></trkpt><trkpt lat="45.459329690855625" lon="9.322133297610602"><ele>106.33333333333334</ele><time>2026-03-29T13:08:58Z</time></trkpt><trkpt lat="45.45924159577566" lon="9.322314165284554"><ele>106.66666666666666</ele><time>2026-03-29T13:08:59Z</time></trkpt><trkpt lat="45.45914740177577" lon="9.322502802654569"><ele>107.0</ele><time>2026-03-29T13:09:00Z</time></trkpt><trkpt lat="45.45906068948699" lon="9.322673319623934"><ele>107.0</ele><time>2026-03-29T13:09:01Z</time></trkpt><trkpt lat="45.45898632371374" lon="9.322832304445333"><ele>107.0</ele><time>2026-03-29T13:09:02Z</time></trkpt><trkpt lat="45.45891208821158" lon="9.322987184050612"><ele>107.0</ele><time>2026-03-29T13:09:03Z</time></trkpt><trkpt lat="45.458847783275246" lon="9.323117160046964"><ele>107.0</ele><time>2026-03-29T13:09:04Z</time></trkpt><trkpt lat="45.45877769451347" lon="9.323260484804905"><ele>107.16666666666666</ele><time>2026-03-29T13:09:05Z</time></trkpt><trkpt lat="45.45871668158994" lon="9.323384833016632"><ele>107.33333333333333</ele><time>2026-03-29T13:09:06Z</time></trkpt><trkpt lat="45.45866694051839" lon="9.32349444749644"><ele>107.5</ele><time>2026-03-29T13:09:07Z</time></trkpt><trkpt lat="45.45860310020909" lon="9.323566591818508"><ele>107.66666666666666</ele><time>2026-03-29T13:09:08Z</time></trkpt><trkpt lat="45.458557309688516" lon="9.323645740539781"><ele>107.83333333333333</ele><time>2026-03-29T13:09:09Z</time></trkpt><trkpt lat="45.458511618350435" lon="9.32371207829418"><ele>108.0</ele><time>2026-03-29T13:09:10Z</time></trkpt><trkpt lat="45.45842936605789" lon="9.323735202413589"><ele>108.0</ele><time>2026-03-29T13:09:11Z</time></trkpt><trkpt lat="45.45831539094518" lon="9.323706346486771"><ele>108.00000000000001</ele><time>2026-03-29T13:09:12Z</time></trkpt><trkpt lat="45.458205306014676" lon="9.323721456817378"><ele>108.00000000000001</ele><time>2026-03-29T13:09:13Z</time></trkpt><trkpt lat="45.45810889085254" lon="9.323748810591361"><ele>108.0</ele><time>2026-03-29T13:09:14Z</time></trkpt><trkpt lat="45.458023163492086" lon="9.323758519051449"><ele>108.0</ele><time>2026-03-29T13:09:15Z</time></trkpt><trkpt lat="45.45794082239578" lon="9.323764739639882"><ele>107.42857142857143</ele><time>2026-03-29T13:09:16Z</time></trkpt><trkpt lat="45.45785460349578" lon="9.323776812522194"><ele>106.85714285714286</ele><time>2026-03-29T13:09:17Z</time></trkpt><trkpt lat="45.45777863717642" lon="9.323785586730981"><ele>106.28571428571428</ele><time>2026-03-29T13:09:18Z</time></trkpt><trkpt lat="45.45770130545653" lon="9.323794781261519"><ele>105.71428571428572</ele><time>2026-03-29T13:09:19Z</time></trkpt><trkpt lat="45.45763175645275" lon="9.32380764362505"><ele>105.14285714285715</ele><time>2026-03-29T13:09:20Z</time></trkpt><trkpt lat="45.45756485314243" lon="9.323829537042242"><ele>104.57142857142857</ele><time>2026-03-29T13:09:21Z</time></trkpt><trkpt lat="45.45750339068787" lon="9.323850514473824"><ele>104.0</ele><time>2026-03-29T13:09:22Z</time></trkpt><trkpt lat="45.45740791971653" lon="9.323872031673659"><ele>103.99999999999999</ele><time>2026-03-29T13:09:24Z</time></trkpt><trkpt lat="45.45731033623593" lon="9.323877322855052"><ele>104.0</ele><time>2026-03-29T13:09:26Z</time></trkpt><trkpt lat="45.457198277688086" lon="9.323900393843799"><ele>104.0</ele><time>2026-03-29T13:09:28Z</time></trkpt><trkpt lat="45.457134150900785" lon="9.3239249699677"><ele>104.0</ele><time>2026-03-29T13:09:29Z</time></trkpt><trkpt lat="45.45706857389052" lon="9.323954634897882"><ele>103.99999999999999</ele><time>2026-03-29T13:09:30Z</time></trkpt><trkpt lat="45.45698276774313" lon="9.323978476611924"><ele>104.0</ele><time>2026-03-29T13:09:31Z</time></trkpt><trkpt lat="45.45687543338182" lon="9.323983747441305"><ele>104.25</ele><time>2026-03-29T13:09:32Z</time></trkpt><trkpt lat="45.456759463035006" lon="9.324031523203923"><ele>104.5</ele><time>2026-03-29T13:09:33Z</time></trkpt><trkpt lat="45.45664525183424" lon="9.324052595582472"><ele>104.75</ele><time>2026-03-29T13:09:34Z</time></trkpt><trkpt lat="45.4565260606979" lon="9.324071956987257"><ele>105.0</ele><time>2026-03-29T13:09:35Z</time></trkpt><trkpt lat="45.456409830130426" lon="9.324104039405965"><ele>105.0</ele><time>2026-03-29T13:09:36Z</time></trkpt><trkpt lat="45.456296776728955" lon="9.324142822932691"><ele>105.0</ele><time>2026-03-29T13:09:37Z</time></trkpt><trkpt lat="45.45618265085369" lon="9.324190424389418"><ele>105.0</ele><time>2026-03-29T13:09:38Z</time></trkpt><trkpt lat="45.45607604894831" lon="9.3242352323437"><ele>105.0</ele><time>2026-03-29T13:09:39Z</time></trkpt><trkpt lat="45.45597119840196" lon="9.32426940278693"><ele>104.8</ele><time>2026-03-29T13:09:40Z</time></trkpt><trkpt lat="45.45587053066162" lon="9.324317904720562"><ele>104.6</ele><time>2026-03-29T13:09:41Z</time></trkpt><trkpt lat="45.45576954670866" lon="9.324355497140873"><ele>104.4</ele><time>2026-03-29T13:09:42Z</time></trkpt><trkpt lat="45.45567798144908" lon="9.324387359287783"><ele>104.2</ele><time>2026-03-29T13:09:43Z</time></trkpt><trkpt lat="45.455583629372704" lon="9.32442542899638"><ele>104.0</ele><time>2026-03-29T13:09:44Z</time></trkpt><trkpt lat="45.455492249234375" lon="9.324464746202299"><ele>104.6</ele><time>2026-03-29T13:09:45Z</time></trkpt><trkpt lat="45.45539813522281" lon="9.324505743402302"><ele>105.2</ele><time>2026-03-29T13:09:46Z</time></trkpt><trkpt lat="45.45530301592308" lon="9.324547485677854"><ele>105.79999999999998</ele><time>2026-03-29T13:09:47Z</time></trkpt><trkpt lat="45.45521780264748" lon="9.32458563681266"><ele>106.39999999999999</ele><time>2026-03-29T13:09:48Z</time></trkpt><trkpt lat="45.455127514495494" lon="9.324625949112882"><ele>107.0</ele><time>2026-03-29T13:09:49Z</time></trkpt><trkpt lat="45.45504280532822" lon="9.324659921087699"><ele>106.99999999999999</ele><time>2026-03-29T13:09:50Z</time></trkpt><trkpt lat="45.454957975405804" lon="9.324697539720711"><ele>107.0</ele><time>2026-03-29T13:09:51Z</time></trkpt><trkpt lat="45.45488168440141" lon="9.32473164707863"><ele>107.0</ele><time>2026-03-29T13:09:52Z</time></trkpt><trkpt lat="45.45480484069991" lon="9.324741506131575"><ele>107.0</ele><time>2026-03-29T13:09:53Z</time></trkpt><trkpt lat="45.45474303091758" lon="9.324779053956146"><ele>106.99999999999999</ele><time>2026-03-29T13:09:54Z</time></trkpt><trkpt lat="45.45466987841545" lon="9.324803423159102"><ele>107.0</ele><time>2026-03-29T13:09:55Z</time></trkpt><trkpt lat="45.45460056981578" lon="9.324832735028844"><ele>106.66666666666666</ele><time>2026-03-29T13:09:56Z</time></trkpt><trkpt lat="45.454528314203216" lon="9.324859432338382"><ele>106.33333333333333</ele><time>2026-03-29T13:09:57Z</time></trkpt><trkpt lat="45.45445571428063" lon="9.324888361508114"><ele>106.0</ele><time>2026-03-29T13:09:58Z</time></trkpt><trkpt lat="45.45437574701466" lon="9.324912349656033"><ele>105.66666666666666</ele><time>2026-03-29T13:09:59Z</time></trkpt><trkpt lat="45.45429226072293" lon="9.324940856637587"><ele>105.33333333333333</ele><time>2026-03-29T13:10:00Z</time></trkpt><trkpt lat="45.45419300152129" lon="9.324967712770988"><ele>105.0</ele><time>2026-03-29T13:10:01Z</time></trkpt><trkpt lat="45.45408141052426" lon="9.325015959328502"><ele>105.0</ele><time>2026-03-29T13:10:02Z</time></trkpt><trkpt lat="45.45396205383962" lon="9.325080421219017"><ele>105.0</ele><time>2026-03-29T13:10:03Z</time></trkpt><trkpt lat="45.453845098757796" lon="9.325165116463268"><ele>105.0</ele><time>2026-03-29T13:10:04Z</time></trkpt><trkpt lat="45.453719788030966" lon="9.325268917395572"><ele>105.0</ele><time>2026-03-29T13:10:05Z</time></trkpt><trkpt lat="45.45358460976384" lon="9.325393322311088"><ele>105.0</ele><time>2026-03-29T13:10:06Z</time></trkpt><trkpt lat="45.453439485517904" lon="9.325513650416552"><ele>105.0</ele><time>2026-03-29T13:10:07Z</time></trkpt><trkpt lat="45.45331204545894" lon="9.325636767994865"><ele>105.0</ele><time>2026-03-29T13:10:08Z</time></trkpt><trkpt lat="45.4531867259705" lon="9.32574097717326"><ele>105.0</ele><time>2026-03-29T13:10:09Z</time></trkpt><trkpt lat="45.45305697634268" lon="9.325835005773817"><ele>105.0</ele><time>2026-03-29T13:10:10Z</time></trkpt><trkpt lat="45.45290335772893" lon="9.3258931417277"><ele>105.0</ele><time>2026-03-29T13:10:11Z</time></trkpt><trkpt lat="45.452750061725325" lon="9.325965443786338"><ele>105.0</ele><time>2026-03-29T13:10:12Z</time></trkpt><trkpt lat="45.452590274556705" lon="9.32604379081687"><ele>105.0</ele><time>2026-03-29T13:10:13Z</time></trkpt><trkpt lat="45.45242551835874" lon="9.32612616879853"><ele>105.0</ele><time>2026-03-29T13:10:14Z</time></trkpt><trkpt lat="45.45227176096316" lon="9.326235688977157"><ele>104.66666666666666</ele><time>2026-03-29T13:10:15Z</time></trkpt><trkpt lat="45.452112696755734" lon="9.326318750183356"><ele>104.33333333333333</ele><time>2026-03-29T13:10:16Z</time></trkpt><trkpt lat="45.45196115503456" lon="9.326395950582189"><ele>104.0</ele><time>2026-03-29T13:10:17Z</time></trkpt><trkpt lat="45.45181518013709" lon="9.326477196462195"><ele>104.66666666666666</ele><time>2026-03-29T13:10:18Z</time></trkpt><trkpt lat="45.451669649635406" lon="9.326554669199588"><ele>105.33333333333334</ele><time>2026-03-29T13:10:19Z</time></trkpt><trkpt lat="45.45152453901561" lon="9.326631421339632"><ele>106.0</ele><time>2026-03-29T13:10:20Z</time></trkpt><trkpt lat="45.45136596018073" lon="9.326682281677455"><ele>105.0</ele><time>2026-03-29T13:10:21Z</time></trkpt><trkpt lat="45.45121631201891" lon="9.326737488203825"><ele>104.0</ele><time>2026-03-29T13:10:22Z</time></trkpt><trkpt lat="45.45106556034329" lon="9.326787513587783"><ele>103.0</ele><time>2026-03-29T13:10:23Z</time></trkpt><trkpt lat="45.45090992935771" lon="9.32683867628309"><ele>103.0</ele><time>2026-03-29T13:10:24Z</time></trkpt><trkpt lat="45.45075531918949" lon="9.3268895037409"><ele>103.0</ele><time>2026-03-29T13:10:25Z</time></trkpt><trkpt lat="45.45060400672182" lon="9.32693767045436"><ele>103.0</ele><time>2026-03-29T13:10:26Z</time></trkpt><trkpt lat="45.45046893761112" lon="9.326980590872715"><ele>103.25</ele><time>2026-03-29T13:10:27Z</time></trkpt><trkpt lat="45.45034749197938" lon="9.327038148342385"><ele>103.5</ele><time>2026-03-29T13:10:28Z</time></trkpt><trkpt lat="45.450232043267846" lon="9.32706552810561"><ele>103.75</ele><time>2026-03-29T13:10:29Z</time></trkpt><trkpt lat="45.45011656197924" lon="9.327083521145413"><ele>104.0</ele><time>2026-03-29T13:10:30Z</time></trkpt><trkpt lat="45.4500165302758" lon="9.32712993927902"><ele>103.99999999999999</ele><time>2026-03-29T13:10:31Z</time></trkpt><trkpt lat="45.4499215109681" lon="9.327156837329685"><ele>104.0</ele><time>2026-03-29T13:10:32Z</time></trkpt><trkpt lat="45.44982936561023" lon="9.327185149040728"><ele>104.0</ele><time>2026-03-29T13:10:33Z</time></trkpt><trkpt lat="45.44974321475274" lon="9.327210516809632"><ele>104.0</ele><time>2026-03-29T13:10:34Z</time></trkpt><trkpt lat="45.44966330239081" lon="9.327231110111589"><ele>103.99999999999999</ele><time>2026-03-29T13:10:35Z</time></trkpt><trkpt lat="45.44958469164777" lon="9.327256556524402"><ele>104.0</ele><time>2026-03-29T13:10:36Z</time></trkpt><trkpt lat="45.44950149638354" lon="9.327279219255752"><ele>103.6</ele><time>2026-03-29T13:10:37Z</time></trkpt><trkpt lat="45.44941765940396" lon="9.327302737471875"><ele>103.2</ele><time>2026-03-29T13:10:38Z</time></trkpt><trkpt lat="45.44932137216918" lon="9.327339098446425"><ele>102.8</ele><time>2026-03-29T13:10:39Z</time></trkpt><trkpt lat="45.44920745622695" lon="9.32737416604008"><ele>102.39999999999999</ele><time>2026-03-29T13:10:40Z</time></trkpt><trkpt lat="45.4490916867302" lon="9.327413781129861"><ele>102.0</ele><time>2026-03-29T13:10:41Z</time></trkpt><trkpt lat="45.44899481830007" lon="9.32744460858304"><ele>102.0</ele><time>2026-03-29T13:10:42Z</time></trkpt><trkpt lat="45.44890747306604" lon="9.32745980691934"><ele>102.0</ele><time>2026-03-29T13:10:43Z</time></trkpt><trkpt lat="45.44882199838327" lon="9.327478156781313"><ele>102.0</ele><time>2026-03-29T13:10:44Z</time></trkpt><trkpt lat="45.448731471174064" lon="9.32750713436169"><ele>102.0</ele><time>2026-03-29T13:10:45Z</time></trkpt><trkpt lat="45.44863730489234" lon="9.327543562882072"><ele>102.0</ele><time>2026-03-29T13:10:46Z</time></trkpt><trkpt lat="45.44853821230536" lon="9.327573574446816"><ele>102.39999999999999</ele><time>2026-03-29T13:10:47Z</time></trkpt><trkpt lat="45.44844549773846" lon="9.327595871425029"><ele>102.8</ele><time>2026-03-29T13:10:48Z</time></trkpt><trkpt lat="45.448350856774304" lon="9.327628530092765"><ele>103.2</ele><time>2026-03-29T13:10:49Z</time></trkpt><trkpt lat="45.44824866677669" lon="9.327651050024748"><ele>103.6</ele><time>2026-03-29T13:10:50Z</time></trkpt><trkpt lat="45.44814824120536" lon="9.32767036448637"><ele>104.0</ele><time>2026-03-29T13:10:51Z</time></trkpt><trkpt lat="45.44802845155536" lon="9.327697228476694"><ele>104.0</ele><time>2026-03-29T13:10:52Z</time></trkpt><trkpt lat="45.44790109464056" lon="9.327716867470395"><ele>104.0</ele><time>2026-03-29T13:10:53Z</time></trkpt><trkpt lat="45.44777156530965" lon="9.327745862325735"><ele>104.0</ele><time>2026-03-29T13:10:54Z</time></trkpt><trkpt lat="45.44763114580934" lon="9.327770707197452"><ele>104.0</ele><time>2026-03-29T13:10:55Z</time></trkpt><trkpt lat="45.44747949131738" lon="9.327805617211924"><ele>104.0</ele><time>2026-03-29T13:10:56Z</time></trkpt><trkpt lat="45.44732436573859" lon="9.32783832632196"><ele>104.0</ele><time>2026-03-29T13:10:57Z</time></trkpt><trkpt lat="45.447165576843645" lon="9.32786234120961"><ele>104.0</ele><time>2026-03-29T13:10:58Z</time></trkpt><trkpt lat="45.44701158700858" lon="9.327865103689565"><ele>104.0</ele><time>2026-03-29T13:10:59Z</time></trkpt><trkpt lat="45.446863027957185" lon="9.327888003584931"><ele>104.0</ele><time>2026-03-29T13:11:00Z</time></trkpt><trkpt lat="45.44672410164854" lon="9.327909362678517"><ele>104.0</ele><time>2026-03-29T13:11:01Z</time></trkpt><trkpt lat="45.44658563977608" lon="9.327930650351734"><ele>104.0</ele><time>2026-03-29T13:11:02Z</time></trkpt><trkpt lat="45.446450889259054" lon="9.327951367434213"><ele>104.0</ele><time>2026-03-29T13:11:03Z</time></trkpt><trkpt lat="45.44632437634825" lon="9.327970054086322"><ele>104.0</ele><time>2026-03-29T13:11:04Z</time></trkpt><trkpt lat="45.44621238308232" lon="9.328001502553509"><ele>104.0</ele><time>2026-03-29T13:11:05Z</time></trkpt><trkpt lat="45.446101282111854" lon="9.328013358634642"><ele>104.0</ele><time>2026-03-29T13:11:06Z</time></trkpt><trkpt lat="45.445978283283" lon="9.32803426249348"><ele>104.0</ele><time>2026-03-29T13:11:07Z</time></trkpt><trkpt lat="45.44585158341056" lon="9.328047428809237"><ele>104.0</ele><time>2026-03-29T13:11:08Z</time></trkpt><trkpt lat="45.44572566278827" lon="9.328063761908249"><ele>104.0</ele><time>2026-03-29T13:11:09Z</time></trkpt><trkpt lat="45.44559948065501" lon="9.328081123686099"><ele>104.0</ele><time>2026-03-29T13:11:10Z</time></trkpt><trkpt lat="45.445476097877844" lon="9.328105163341977"><ele>103.5</ele><time>2026-03-29T13:11:11Z</time></trkpt><trkpt lat="45.44535440762572" lon="9.328117171455599"><ele>103.0</ele><time>2026-03-29T13:11:12Z</time></trkpt><trkpt lat="45.4452364911285" lon="9.328134667627548"><ele>102.5</ele><time>2026-03-29T13:11:13Z</time></trkpt><trkpt lat="45.44511982286307" lon="9.328141916656532"><ele>102.0</ele><time>2026-03-29T13:11:14Z</time></trkpt><trkpt lat="45.44499854858762" lon="9.328166186918471"><ele>102.0</ele><time>2026-03-29T13:11:15Z</time></trkpt><trkpt lat="45.44487924780152" lon="9.328179002036029"><ele>102.0</ele><time>2026-03-29T13:11:16Z</time></trkpt><trkpt lat="45.44477308187412" lon="9.328177438979354"><ele>102.0</ele><time>2026-03-29T13:11:17Z</time></trkpt><trkpt lat="45.444690564363626" lon="9.32820884121233"><ele>102.0</ele><time>2026-03-29T13:11:18Z</time></trkpt><trkpt lat="45.444567674626946" lon="9.328227721690086"><ele>102.0</ele><time>2026-03-29T13:11:20Z</time></trkpt><trkpt lat="45.44445485880841" lon="9.328243230931058"><ele>101.8</ele><time>2026-03-29T13:11:22Z</time></trkpt><trkpt lat="45.44434360574568" lon="9.328257991285808"><ele>101.6</ele><time>2026-03-29T13:11:24Z</time></trkpt><trkpt lat="45.44421834124744" lon="9.328274722418572"><ele>101.39999999999999</ele><time>2026-03-29T13:11:26Z</time></trkpt><trkpt lat="45.44413831405198" lon="9.328274875814945"><ele>101.19999999999999</ele><time>2026-03-29T13:11:27Z</time></trkpt><trkpt lat="45.444047016676144" lon="9.328276067154938"><ele>101.0</ele><time>2026-03-29T13:11:28Z</time></trkpt><trkpt lat="45.44394283714173" lon="9.328277650333638"><ele>101.0</ele><time>2026-03-29T13:11:29Z</time></trkpt><trkpt lat="45.44383059988893" lon="9.328295521336825"><ele>101.0</ele><time>2026-03-29T13:11:30Z</time></trkpt><trkpt lat="45.4437165540865" lon="9.32831663107946"><ele>101.0</ele><time>2026-03-29T13:11:31Z</time></trkpt><trkpt lat="45.44358657525425" lon="9.328341272147679"><ele>101.0</ele><time>2026-03-29T13:11:32Z</time></trkpt><trkpt lat="45.44344698532558" lon="9.328361330216655"><ele>101.0</ele><time>2026-03-29T13:11:33Z</time></trkpt><trkpt lat="45.443292148234256" lon="9.328382941715834"><ele>101.0</ele><time>2026-03-29T13:11:34Z</time></trkpt><trkpt lat="45.4431366970412" lon="9.32839769039259"><ele>101.0</ele><time>2026-03-29T13:11:35Z</time></trkpt><trkpt lat="45.44297617885107" lon="9.328415268642923"><ele>101.33333333333333</ele><time>2026-03-29T13:11:36Z</time></trkpt><trkpt lat="45.44281040523231" lon="9.32843557925415"><ele>101.66666666666666</ele><time>2026-03-29T13:11:37Z</time></trkpt><trkpt lat="45.44264800853134" lon="9.328459928870679"><ele>102.0</ele><time>2026-03-29T13:11:38Z</time></trkpt><trkpt lat="45.442500891255975" lon="9.328478030121573"><ele>102.0</ele><time>2026-03-29T13:11:39Z</time></trkpt><trkpt lat="45.44237176247533" lon="9.32849171057106"><ele>102.0</ele><time>2026-03-29T13:11:40Z</time></trkpt><trkpt lat="45.44224174655117" lon="9.328510228378933"><ele>102.0</ele><time>2026-03-29T13:11:41Z</time></trkpt><trkpt lat="45.442103147831034" lon="9.328505228160372"><ele>102.0</ele><time>2026-03-29T13:11:42Z</time></trkpt><trkpt lat="45.44196849048671" lon="9.328522684048766"><ele>101.75</ele><time>2026-03-29T13:11:43Z</time></trkpt><trkpt lat="45.441821448423994" lon="9.328541706595082"><ele>101.5</ele><time>2026-03-29T13:11:44Z</time></trkpt><trkpt lat="45.44168373512647" lon="9.328582194728735"><ele>101.25</ele><time>2026-03-29T13:11:45Z</time></trkpt><trkpt lat="45.44153723441853" lon="9.328601125590477"><ele>101.0</ele><time>2026-03-29T13:11:46Z</time></trkpt><trkpt lat="45.44139509877358" lon="9.328619857615246"><ele>101.0</ele><time>2026-03-29T13:11:47Z</time></trkpt><trkpt lat="45.441258031754025" lon="9.328640021172157"><ele>101.0</ele><time>2026-03-29T13:11:48Z</time></trkpt><trkpt lat="45.44110942181414" lon="9.328661146459158"><ele>101.0</ele><time>2026-03-29T13:11:49Z</time></trkpt><trkpt lat="45.44095998445449" lon="9.32868057597523"><ele>101.0</ele><time>2026-03-29T13:11:50Z</time></trkpt><trkpt lat="45.44081026997537" lon="9.32870025547171"><ele>101.0</ele><time>2026-03-29T13:11:51Z</time></trkpt><trkpt lat="45.44066663095547" lon="9.328717768077821"><ele>101.0</ele><time>2026-03-29T13:11:52Z</time></trkpt><trkpt lat="45.44052868242708" lon="9.328735975229195"><ele>101.0</ele><time>2026-03-29T13:11:53Z</time></trkpt><trkpt lat="45.44038319453823" lon="9.328740274871528"><ele>101.0</ele><time>2026-03-29T13:11:54Z</time></trkpt><trkpt lat="45.44023665660613" lon="9.328747745497955"><ele>101.0</ele><time>2026-03-29T13:11:55Z</time></trkpt><trkpt lat="45.44008211537907" lon="9.328774550862839"><ele>101.0</ele><time>2026-03-29T13:11:56Z</time></trkpt><trkpt lat="45.43993125051323" lon="9.328802809938681"><ele>101.0</ele><time>2026-03-29T13:11:57Z</time></trkpt><trkpt lat="45.43978522002343" lon="9.328827425288862"><ele>101.0</ele><time>2026-03-29T13:11:58Z</time></trkpt><trkpt lat="45.43964117449607" lon="9.32884969181329"><ele>101.0</ele><time>2026-03-29T13:11:59Z</time></trkpt><trkpt lat="45.439502450120486" lon="9.328861525441225"><ele>101.0</ele><time>2026-03-29T13:12:00Z</time></trkpt><trkpt lat="45.43936604056846" lon="9.328873848149101"><ele>101.0</ele><time>2026-03-29T13:12:01Z</time></trkpt><trkpt lat="45.439229034054364" lon="9.328854326175822"><ele>101.0</ele><time>2026-03-29T13:12:02Z</time></trkpt><trkpt lat="45.439097915728865" lon="9.328851106573264"><ele>101.0</ele><time>2026-03-29T13:12:03Z</time></trkpt><trkpt lat="45.43896108027267" lon="9.328842856961632"><ele>101.0</ele><time>2026-03-29T13:12:04Z</time></trkpt><trkpt lat="45.438812463969505" lon="9.328848561455931"><ele>101.0</ele><time>2026-03-29T13:12:05Z</time></trkpt><trkpt lat="45.438670686786345" lon="9.328837848315985"><ele>101.0</ele><time>2026-03-29T13:12:06Z</time></trkpt><trkpt lat="45.43852756216901" lon="9.328835244771351"><ele>101.0</ele><time>2026-03-29T13:12:07Z</time></trkpt><trkpt lat="45.43838091837954" lon="9.32882042496506"><ele>101.0</ele><time>2026-03-29T13:12:08Z</time></trkpt><trkpt lat="45.4382395011962" lon="9.32880508442136"><ele>101.0</ele><time>2026-03-29T13:12:09Z</time></trkpt><trkpt lat="45.43809867670902" lon="9.32879406573043"><ele>101.0</ele><time>2026-03-29T13:12:10Z</time></trkpt><trkpt lat="45.43797781716345" lon="9.328786871175824"><ele>101.0</ele><time>2026-03-29T13:12:11Z</time></trkpt><trkpt lat="45.4378668600839" lon="9.328777913759776"><ele>101.0</ele><time>2026-03-29T13:12:12Z</time></trkpt><trkpt lat="45.437762254134604" lon="9.328763018114937"><ele>101.0</ele><time>2026-03-29T13:12:13Z</time></trkpt><trkpt lat="45.43767141716647" lon="9.328753945498205"><ele>101.0</ele><time>2026-03-29T13:12:14Z</time></trkpt><trkpt lat="45.43758227979759" lon="9.328748038340606"><ele>101.16666666666666</ele><time>2026-03-29T13:12:15Z</time></trkpt><trkpt lat="45.437508546893376" lon="9.328736292747955"><ele>101.33333333333333</ele><time>2026-03-29T13:12:16Z</time></trkpt><trkpt lat="45.43744091347419" lon="9.32873475358492"><ele>101.5</ele><time>2026-03-29T13:12:17Z</time></trkpt><trkpt lat="45.43734198542273" lon="9.328724538333399"><ele>101.66666666666666</ele><time>2026-03-29T13:12:19Z</time></trkpt><trkpt lat="45.437268343088995" lon="9.328704280497258"><ele>101.83333333333333</ele><time>2026-03-29T13:12:21Z</time></trkpt><trkpt lat="45.43720703211152" lon="9.32866538876871"><ele>102.0</ele><time>2026-03-29T13:12:24Z</time></trkpt><trkpt lat="45.4371895002284" lon="9.3285531125177"><ele>102.0</ele><time>2026-03-29T13:12:27Z</time></trkpt><trkpt lat="45.437184609900925" lon="9.328448288797087"><ele>102.0</ele><time>2026-03-29T13:12:30Z</time></trkpt><trkpt lat="45.43716272614775" lon="9.328335118057051"><ele>102.0</ele><time>2026-03-29T13:12:33Z</time></trkpt><trkpt lat="45.43715306465869" lon="9.32823118543455"><ele>102.0</ele><time>2026-03-29T13:12:35Z</time></trkpt><trkpt lat="45.43713738359825" lon="9.328112566985249"><ele>102.0</ele><time>2026-03-29T13:12:38Z</time></trkpt><trkpt lat="45.43712078011762" lon="9.327999383143473"><ele>102.0</ele><time>2026-03-29T13:12:41Z</time></trkpt><trkpt lat="45.43711178964239" lon="9.327903446972913"><ele>102.0</ele><time>2026-03-29T13:12:43Z</time></trkpt><trkpt lat="45.43708869060903" lon="9.327774338639408"><ele>102.0</ele><time>2026-03-29T13:12:45Z</time></trkpt><trkpt lat="45.43707475756991" lon="9.327627196257755"><ele>102.0</ele><time>2026-03-29T13:12:47Z</time></trkpt><trkpt lat="45.437057397743104" lon="9.327471655675906"><ele>102.0</ele><time>2026-03-29T13:12:49Z</time></trkpt><trkpt lat="45.43704471234544" lon="9.327376656178203"><ele>102.0</ele><time>2026-03-29T13:12:50Z</time></trkpt><trkpt lat="45.43702809394058" lon="9.327256555457975"><ele>102.8</ele><time>2026-03-29T13:12:51Z</time></trkpt><trkpt lat="45.43700853937949" lon="9.327121771704451"><ele>103.6</ele><time>2026-03-29T13:12:52Z</time></trkpt><trkpt lat="45.436990388054284" lon="9.326980586641355"><ele>104.39999999999999</ele><time>2026-03-29T13:12:53Z</time></trkpt><trkpt lat="45.436974238619015" lon="9.326854094737547"><ele>105.19999999999999</ele><time>2026-03-29T13:12:54Z</time></trkpt><trkpt lat="45.43695852131382" lon="9.326730723205324"><ele>106.0</ele><time>2026-03-29T13:12:55Z</time></trkpt><trkpt lat="45.43693919260596" lon="9.326610841764872"><ele>106.00000000000001</ele><time>2026-03-29T13:12:56Z</time></trkpt><trkpt lat="45.4369228332943" lon="9.326488368706444"><ele>106.0</ele><time>2026-03-29T13:12:57Z</time></trkpt><trkpt lat="45.436906106148506" lon="9.326365303727652"><ele>106.0</ele><time>2026-03-29T13:12:58Z</time></trkpt><trkpt lat="45.436892695127135" lon="9.326240976916809"><ele>106.0</ele><time>2026-03-29T13:12:59Z</time></trkpt><trkpt lat="45.43687320028016" lon="9.326112085889687"><ele>106.00000000000001</ele><time>2026-03-29T13:13:00Z</time></trkpt><trkpt lat="45.43686006664985" lon="9.325990375684354"><ele>106.0</ele><time>2026-03-29T13:13:01Z</time></trkpt><trkpt lat="45.436836635618214" lon="9.325866870583924"><ele>106.16666666666667</ele><time>2026-03-29T13:13:02Z</time></trkpt><trkpt lat="45.43682998903112" lon="9.32574778400232"><ele>106.33333333333334</ele><time>2026-03-29T13:13:03Z</time></trkpt><trkpt lat="45.43681759587328" lon="9.325637769385947"><ele>106.5</ele><time>2026-03-29T13:13:04Z</time></trkpt><trkpt lat="45.436803971097376" lon="9.325526641338087"><ele>106.66666666666666</ele><time>2026-03-29T13:13:05Z</time></trkpt><trkpt lat="45.43678670964558" lon="9.325413986434185"><ele>106.83333333333333</ele><time>2026-03-29T13:13:06Z</time></trkpt><trkpt lat="45.4367706151428" lon="9.325301135317089"><ele>107.0</ele><time>2026-03-29T13:13:07Z</time></trkpt><trkpt lat="45.436756148467374" lon="9.32519494817703"><ele>106.99999999999999</ele><time>2026-03-29T13:13:08Z</time></trkpt><trkpt lat="45.436740686420436" lon="9.325084855983839"><ele>107.0</ele><time>2026-03-29T13:13:09Z</time></trkpt><trkpt lat="45.43672314410243" lon="9.324972069131434"><ele>107.0</ele><time>2026-03-29T13:13:10Z</time></trkpt><trkpt lat="45.43670675091801" lon="9.324858958099496"><ele>107.0</ele><time>2026-03-29T13:13:11Z</time></trkpt><trkpt lat="45.43669620106981" lon="9.324739411338618"><ele>106.99999999999999</ele><time>2026-03-29T13:13:12Z</time></trkpt><trkpt lat="45.43669021405898" lon="9.3246320896768"><ele>107.0</ele><time>2026-03-29T13:13:13Z</time></trkpt><trkpt lat="45.43666325735022" lon="9.324544292007108"><ele>106.49999999999999</ele><time>2026-03-29T13:13:14Z</time></trkpt><trkpt lat="45.436657464318124" lon="9.324452752413553"><ele>106.0</ele><time>2026-03-29T13:13:15Z</time></trkpt><trkpt lat="45.43664863123484" lon="9.324307523923448"><ele>105.5</ele><time>2026-03-29T13:13:17Z</time></trkpt><trkpt lat="45.436627727406574" lon="9.324215455380257"><ele>105.0</ele><time>2026-03-29T13:13:20Z</time></trkpt><trkpt lat="45.43651278145252" lon="9.324150137474774"><ele>104.49999999999999</ele><time>2026-03-29T13:13:23Z</time></trkpt><trkpt lat="45.436435330173104" lon="9.32416449039615"><ele>104.0</ele><time>2026-03-29T13:13:24Z</time></trkpt><trkpt lat="45.436363312705524" lon="9.324178179119173"><ele>103.71428571428571</ele><time>2026-03-29T13:13:25Z</time></trkpt><trkpt lat="45.436295167969284" lon="9.324180975480049"><ele>103.42857142857143</ele><time>2026-03-29T13:13:26Z</time></trkpt><trkpt lat="45.43623220310372" lon="9.32419299144427"><ele>103.14285714285714</ele><time>2026-03-29T13:13:27Z</time></trkpt><trkpt lat="45.43615874201077" lon="9.324190302559165"><ele>102.85714285714286</ele><time>2026-03-29T13:13:28Z</time></trkpt><trkpt lat="45.436082347950915" lon="9.324195464318167"><ele>102.57142857142858</ele><time>2026-03-29T13:13:29Z</time></trkpt><trkpt lat="45.43600134500962" lon="9.324203784076333"><ele>102.28571428571429</ele><time>2026-03-29T13:13:30Z</time></trkpt><trkpt lat="45.435915389787645" lon="9.324208913306464"><ele>102.0</ele><time>2026-03-29T13:13:31Z</time></trkpt><trkpt lat="45.43584409838152" lon="9.324203755791496"><ele>102.0</ele><time>2026-03-29T13:13:32Z</time></trkpt><trkpt lat="45.43576771482726" lon="9.324213049886758"><ele>102.0</ele><time>2026-03-29T13:13:33Z</time></trkpt><trkpt lat="45.435677505657026" lon="9.32422024003221"><ele>102.0</ele><time>2026-03-29T13:13:34Z</time></trkpt><trkpt lat="45.435581450720804" lon="9.324233847724324"><ele>102.0</ele><time>2026-03-29T13:13:35Z</time></trkpt><trkpt lat="45.43548143026852" lon="9.32424316294457"><ele>102.0</ele><time>2026-03-29T13:13:36Z</time></trkpt><trkpt lat="45.43537906079195" lon="9.32425061310464"><ele>101.6</ele><time>2026-03-29T13:13:37Z</time></trkpt><trkpt lat="45.435278622035575" lon="9.324254949332493"><ele>101.19999999999999</ele><time>2026-03-29T13:13:38Z</time></trkpt><trkpt lat="45.435182907979986" lon="9.32425999990979"><ele>100.8</ele><time>2026-03-29T13:13:39Z</time></trkpt><trkpt lat="45.435085690806716" lon="9.32426913175338"><ele>100.4</ele><time>2026-03-29T13:13:40Z</time></trkpt><trkpt lat="45.43499559308419" lon="9.324282327181676"><ele>100.0</ele><time>2026-03-29T13:13:41Z</time></trkpt><trkpt lat="45.43490641603688" lon="9.324283977904336"><ele>100.00000000000001</ele><time>2026-03-29T13:13:42Z</time></trkpt><trkpt lat="45.434819085368545" lon="9.324293230383228"><ele>100.0</ele><time>2026-03-29T13:13:43Z</time></trkpt><trkpt lat="45.434730533999804" lon="9.324296923004985"><ele>100.0</ele><time>2026-03-29T13:13:44Z</time></trkpt><trkpt lat="45.434652336585614" lon="9.32427986616909"><ele>100.0</ele><time>2026-03-29T13:13:45Z</time></trkpt><trkpt lat="45.43457007947082" lon="9.324293643998645"><ele>100.00000000000001</ele><time>2026-03-29T13:13:46Z</time></trkpt><trkpt lat="45.43448166916191" lon="9.324308629737592"><ele>100.0</ele><time>2026-03-29T13:13:47Z</time></trkpt><trkpt lat="45.434407296058644" lon="9.324311864032762"><ele>100.16666666666667</ele><time>2026-03-29T13:13:48Z</time></trkpt><trkpt lat="45.43432883623724" lon="9.324311053788747"><ele>100.33333333333334</ele><time>2026-03-29T13:13:50Z</time></trkpt><trkpt lat="45.43424013138966" lon="9.324319451699635"><ele>100.5</ele><time>2026-03-29T13:13:57Z</time></trkpt><trkpt lat="45.434163262630086" lon="9.324326759093626"><ele>100.66666666666666</ele><time>2026-03-29T13:13:59Z</time></trkpt><trkpt lat="45.43405283661293" lon="9.324338665272302"><ele>100.83333333333333</ele><time>2026-03-29T13:14:01Z</time></trkpt><trkpt lat="45.43398811969047" lon="9.32434399069945"><ele>101.0</ele><time>2026-03-29T13:14:02Z</time></trkpt><trkpt lat="45.43386798376922" lon="9.324357533417748"><ele>100.99999999999999</ele><time>2026-03-29T13:14:04Z</time></trkpt><trkpt lat="45.433804488129105" lon="9.324369086627948"><ele>101.0</ele><time>2026-03-29T13:14:05Z</time></trkpt><trkpt lat="45.43373496527341" lon="9.324366548897595"><ele>101.0</ele><time>2026-03-29T13:14:07Z</time></trkpt><trkpt lat="45.433653056439255" lon="9.324365557674163"><ele>101.0</ele><time>2026-03-29T13:14:09Z</time></trkpt><trkpt lat="45.433573604756575" lon="9.324388490740505"><ele>100.99999999999999</ele><time>2026-03-29T13:14:12Z</time></trkpt><trkpt lat="45.43354665622356" lon="9.324528570351875"><ele>101.0</ele><time>2026-03-29T13:14:14Z</time></trkpt><trkpt lat="45.433568308685665" lon="9.324644786690838"><ele>100.83333333333333</ele><time>2026-03-29T13:14:15Z</time></trkpt><trkpt lat="45.433587597024676" lon="9.32474154219467"><ele>100.66666666666666</ele><time>2026-03-29T13:14:16Z</time></trkpt><trkpt lat="45.43359556847345" lon="9.324839255615775"><ele>100.5</ele><time>2026-03-29T13:14:17Z</time></trkpt><trkpt lat="45.4336181519716" lon="9.324957467639756"><ele>100.33333333333334</ele><time>2026-03-29T13:14:18Z</time></trkpt><trkpt lat="45.43364428225759" lon="9.325099827485069"><ele>100.16666666666667</ele><time>2026-03-29T13:14:19Z</time></trkpt><trkpt lat="45.43366819355846" lon="9.325237458478"><ele>100.0</ele><time>2026-03-29T13:14:20Z</time></trkpt><trkpt lat="45.43368794584426" lon="9.325366049028956"><ele>100.0</ele><time>2026-03-29T13:14:21Z</time></trkpt><trkpt lat="45.43370794669659" lon="9.325508189192663"><ele>100.0</ele><time>2026-03-29T13:14:22Z</time></trkpt><trkpt lat="45.433728807827734" lon="9.325659521015156"><ele>100.0</ele><time>2026-03-29T13:14:23Z</time></trkpt><trkpt lat="45.4337539177818" lon="9.325820685373081"><ele>100.0</ele><time>2026-03-29T13:14:24Z</time></trkpt><trkpt lat="45.43378348130579" lon="9.326003017625977"><ele>100.0</ele><time>2026-03-29T13:14:25Z</time></trkpt><trkpt lat="45.4338127777181" lon="9.32620936317691"><ele>100.0</ele><time>2026-03-29T13:14:26Z</time></trkpt><trkpt lat="45.43384328658371" lon="9.32640511903238"><ele>100.0</ele><time>2026-03-29T13:14:27Z</time></trkpt><trkpt lat="45.433875231054685" lon="9.326609714777149"><ele>100.0</ele><time>2026-03-29T13:14:28Z</time></trkpt><trkpt lat="45.43390746404493" lon="9.326835870036037"><ele>100.0</ele><time>2026-03-29T13:14:29Z</time></trkpt><trkpt lat="45.43394175835874" lon="9.327053377498192"><ele>100.0</ele><time>2026-03-29T13:14:30Z</time></trkpt><trkpt lat="45.43397574997712" lon="9.327279568597302"><ele>100.0</ele><time>2026-03-29T13:14:31Z</time></trkpt><trkpt lat="45.434010182204524" lon="9.327509123905122"><ele>100.66666666666667</ele><time>2026-03-29T13:14:32Z</time></trkpt><trkpt lat="45.434043635386786" lon="9.327728282900397"><ele>101.33333333333334</ele><time>2026-03-29T13:14:33Z</time></trkpt><trkpt lat="45.43407746504186" lon="9.327955597574844"><ele>102.0</ele><time>2026-03-29T13:14:34Z</time></trkpt><trkpt lat="45.43410941606242" lon="9.328186210297462"><ele>102.33333333333334</ele><time>2026-03-29T13:14:35Z</time></trkpt><trkpt lat="45.434143950466776" lon="9.328422007318984"><ele>102.66666666666667</ele><time>2026-03-29T13:14:36Z</time></trkpt><trkpt lat="45.43417792382142" lon="9.328658190599787"><ele>103.0</ele><time>2026-03-29T13:14:37Z</time></trkpt><trkpt lat="45.43421274422162" lon="9.3288943934047"><ele>102.0</ele><time>2026-03-29T13:14:38Z</time></trkpt><trkpt lat="45.434250604883545" lon="9.329132475790194"><ele>101.0</ele><time>2026-03-29T13:14:39Z</time></trkpt><trkpt lat="45.43428807785762" lon="9.3293763517506"><ele>100.0</ele><time>2026-03-29T13:14:40Z</time></trkpt><trkpt lat="45.434324190673465" lon="9.329622565891023"><ele>100.0</ele><time>2026-03-29T13:14:41Z</time></trkpt><trkpt lat="45.43435555757219" lon="9.329871864911583"><ele>100.0</ele><time>2026-03-29T13:14:42Z</time></trkpt><trkpt lat="45.434378425480546" lon="9.330120988688561"><ele>100.0</ele><time>2026-03-29T13:14:43Z</time></trkpt><trkpt lat="45.43438982024993" lon="9.33037558636547"><ele>100.0</ele><time>2026-03-29T13:14:44Z</time></trkpt><trkpt lat="45.43439512479829" lon="9.330639079032615"><ele>100.0</ele><time>2026-03-29T13:14:45Z</time></trkpt><trkpt lat="45.434391449108965" lon="9.330899016005253"><ele>100.0</ele><time>2026-03-29T13:14:46Z</time></trkpt><trkpt lat="45.43437779072848" lon="9.331157668718804"><ele>100.0</ele><time>2026-03-29T13:14:47Z</time></trkpt><trkpt lat="45.43435233998862" lon="9.331420575843243"><ele>100.0</ele><time>2026-03-29T13:14:48Z</time></trkpt><trkpt lat="45.43431518263943" lon="9.331670706546012"><ele>100.0</ele><time>2026-03-29T13:14:49Z</time></trkpt><trkpt lat="45.43427285384468" lon="9.331922485068295"><ele>100.0</ele><time>2026-03-29T13:14:50Z</time></trkpt><trkpt lat="45.4342291730024" lon="9.33217113685737"><ele>100.0</ele><time>2026-03-29T13:14:51Z</time></trkpt><trkpt lat="45.43418961962452" lon="9.332420638067575"><ele>100.0</ele><time>2026-03-29T13:14:52Z</time></trkpt><trkpt lat="45.43414645692572" lon="9.332646446072454"><ele>99.66666666666667</ele><time>2026-03-29T13:14:53Z</time></trkpt><trkpt lat="45.43410639679985" lon="9.33287233391485"><ele>99.33333333333334</ele><time>2026-03-29T13:14:54Z</time></trkpt><trkpt lat="45.43406644136708" lon="9.333100547323255"><ele>99.0</ele><time>2026-03-29T13:14:55Z</time></trkpt><trkpt lat="45.43402636169326" lon="9.333333237278698"><ele>98.66666666666666</ele><time>2026-03-29T13:14:56Z</time></trkpt><trkpt lat="45.43398772042063" lon="9.333569764843702"><ele>98.33333333333333</ele><time>2026-03-29T13:14:57Z</time></trkpt><trkpt lat="45.43395114502243" lon="9.333804469984518"><ele>98.0</ele><time>2026-03-29T13:14:58Z</time></trkpt><trkpt lat="45.43391424522348" lon="9.334040807799719"><ele>98.0</ele><time>2026-03-29T13:14:59Z</time></trkpt><trkpt lat="45.43387357670158" lon="9.334264771895882"><ele>98.0</ele><time>2026-03-29T13:15:00Z</time></trkpt><trkpt lat="45.43383629287739" lon="9.334491739832199"><ele>98.0</ele><time>2026-03-29T13:15:01Z</time></trkpt><trkpt lat="45.43379515530557" lon="9.334716247306973"><ele>98.0</ele><time>2026-03-29T13:15:02Z</time></trkpt><trkpt lat="45.43375632689796" lon="9.3349299110647"><ele>98.0</ele><time>2026-03-29T13:15:03Z</time></trkpt><trkpt lat="45.43372389551727" lon="9.335150057318339"><ele>98.0</ele><time>2026-03-29T13:15:04Z</time></trkpt><trkpt lat="45.43368657688125" lon="9.335365611503507"><ele>98.33333333333333</ele><time>2026-03-29T13:15:05Z</time></trkpt><trkpt lat="45.43365003764137" lon="9.335577710045637"><ele>98.66666666666666</ele><time>2026-03-29T13:15:06Z</time></trkpt><trkpt lat="45.4336119497068" lon="9.335790571163612"><ele>99.0</ele><time>2026-03-29T13:15:07Z</time></trkpt><trkpt lat="45.43357762122352" lon="9.335996481660795"><ele>99.0</ele><time>2026-03-29T13:15:08Z</time></trkpt><trkpt lat="45.433541984664586" lon="9.336200127987196"><ele>99.0</ele><time>2026-03-29T13:15:09Z</time></trkpt><trkpt lat="45.43350867287814" lon="9.336398269338433"><ele>99.0</ele><time>2026-03-29T13:15:10Z</time></trkpt><trkpt lat="45.433475009253215" lon="9.33659623507889"><ele>99.0</ele><time>2026-03-29T13:15:11Z</time></trkpt><trkpt lat="45.43344124971803" lon="9.336789870170746"><ele>99.25</ele><time>2026-03-29T13:15:12Z</time></trkpt><trkpt lat="45.43340857905669" lon="9.336976246808067"><ele>99.5</ele><time>2026-03-29T13:15:13Z</time></trkpt><trkpt lat="45.43337582571956" lon="9.337164307643087"><ele>99.75</ele><time>2026-03-29T13:15:14Z</time></trkpt><trkpt lat="45.43334393946738" lon="9.33734591177053"><ele>100.0</ele><time>2026-03-29T13:15:15Z</time></trkpt><trkpt lat="45.433313304951334" lon="9.337529596916925"><ele>100.25</ele><time>2026-03-29T13:15:16Z</time></trkpt><trkpt lat="45.4332818316289" lon="9.337708494705407"><ele>100.5</ele><time>2026-03-29T13:15:17Z</time></trkpt><trkpt lat="45.43324957403324" lon="9.337883099279173"><ele>100.75</ele><time>2026-03-29T13:15:18Z</time></trkpt><trkpt lat="45.43321610241987" lon="9.338054063886982"><ele>101.0</ele><time>2026-03-29T13:15:19Z</time></trkpt><trkpt lat="45.43318359443849" lon="9.33821818605052"><ele>101.5</ele><time>2026-03-29T13:15:20Z</time></trkpt><trkpt lat="45.43315811901787" lon="9.338383805891176"><ele>102.0</ele><time>2026-03-29T13:15:21Z</time></trkpt><trkpt lat="45.433128676194585" lon="9.338542709138222"><ele>102.5</ele><time>2026-03-29T13:15:22Z</time></trkpt><trkpt lat="45.43310225098619" lon="9.338700473950944"><ele>103.0</ele><time>2026-03-29T13:15:23Z</time></trkpt><trkpt lat="45.43307626914038" lon="9.338854731881227"><ele>103.2</ele><time>2026-03-29T13:15:24Z</time></trkpt><trkpt lat="45.433052718889506" lon="9.339008157304486"><ele>103.4</ele><time>2026-03-29T13:15:25Z</time></trkpt><trkpt lat="45.43302395070936" lon="9.339157194431639"><ele>103.60000000000001</ele><time>2026-03-29T13:15:26Z</time></trkpt><trkpt lat="45.432996433926036" lon="9.339305664349947"><ele>103.80000000000001</ele><time>2026-03-29T13:15:27Z</time></trkpt><trkpt lat="45.432970093277206" lon="9.339455729118788"><ele>104.0</ele><time>2026-03-29T13:15:28Z</time></trkpt><trkpt lat="45.43295099619344" lon="9.33960475159103"><ele>103.4</ele><time>2026-03-29T13:15:29Z</time></trkpt><trkpt lat="45.43293386520597" lon="9.339750168581089"><ele>102.80000000000001</ele><time>2026-03-29T13:15:30Z</time></trkpt><trkpt lat="45.432909115114036" lon="9.33989438865778"><ele>102.19999999999999</ele><time>2026-03-29T13:15:31Z</time></trkpt><trkpt lat="45.43288498018504" lon="9.340038726265025"><ele>101.6</ele><time>2026-03-29T13:15:32Z</time></trkpt><trkpt lat="45.43286388128963" lon="9.340182324875595"><ele>101.0</ele><time>2026-03-29T13:15:33Z</time></trkpt><trkpt lat="45.432845853429654" lon="9.340324868405608"><ele>100.99999999999999</ele><time>2026-03-29T13:15:34Z</time></trkpt><trkpt lat="45.43282604578628" lon="9.340466396983874"><ele>101.0</ele><time>2026-03-29T13:15:35Z</time></trkpt><trkpt lat="45.43280279170296" lon="9.340606838280358"><ele>101.0</ele><time>2026-03-29T13:15:36Z</time></trkpt><trkpt lat="45.43277968982199" lon="9.340736384185247"><ele>101.0</ele><time>2026-03-29T13:15:37Z</time></trkpt><trkpt lat="45.43275159759518" lon="9.340816760145097"><ele>100.99999999999999</ele><time>2026-03-29T13:15:38Z</time></trkpt><trkpt lat="45.432723951341195" lon="9.340937557125581"><ele>101.0</ele><time>2026-03-29T13:15:41Z</time></trkpt><trkpt lat="45.43262773427715" lon="9.340949145821083"><ele>100.99999999999999</ele><time>2026-03-29T13:15:42Z</time></trkpt><trkpt lat="45.43258730589512" lon="9.34102439458664"><ele>101.0</ele><time>2026-03-29T13:17:15Z</time></trkpt><trkpt lat="45.43257522182178" lon="9.341117552805263"><ele>101.0</ele><time>2026-03-29T13:17:21Z</time></trkpt><trkpt lat="45.43257530990474" lon="9.34121413233949"><ele>101.0</ele><time>2026-03-29T13:20:34Z</time></trkpt><trkpt lat="45.43255697627438" lon="9.341334392705763"><ele>100.99999999999999</ele><time>2026-03-29T13:21:17Z</time></trkpt><trkpt lat="45.43254017307728" lon="9.34142089138999"><ele>101.0</ele><time>2026-03-29T13:21:22Z</time></trkpt><trkpt lat="45.432659122562164" lon="9.341435129529762"><ele>101.0</ele><time>2026-03-29T13:21:29Z</time></trkpt><trkpt lat="45.43264335856581" lon="9.34159924308736"><ele>101.0</ele><time>2026-03-29T13:21:40Z</time></trkpt><trkpt lat="45.43260314454291" lon="9.341702735738302"><ele>101.0</ele><time>2026-03-29T13:21:41Z</time></trkpt><trkpt lat="45.432554895818065" lon="9.341865321549244"><ele>101.0</ele><time>2026-03-29T13:21:43Z</time></trkpt><trkpt lat="45.43253302618573" lon="9.341953367151238"><ele>101.0</ele><time>2026-03-29T13:21:44Z</time></trkpt><trkpt lat="45.43251168029029" lon="9.34205122260893"><ele>100.99999999999999</ele><time>2026-03-29T13:21:45Z</time></trkpt><trkpt lat="45.43249133515496" lon="9.342159493513035"><ele>101.0</ele><time>2026-03-29T13:21:46Z</time></trkpt><trkpt lat="45.43247360284147" lon="9.342273460492423"><ele>101.0</ele><time>2026-03-29T13:21:47Z</time></trkpt><trkpt lat="45.43245520348212" lon="9.342392111870549"><ele>101.0</ele><time>2026-03-29T13:21:48Z</time></trkpt><trkpt lat="45.43243544570395" lon="9.342513611706456"><ele>100.99999999999999</ele><time>2026-03-29T13:21:49Z</time></trkpt><trkpt lat="45.432414884323954" lon="9.342644970876977"><ele>101.0</ele><time>2026-03-29T13:21:50Z</time></trkpt><trkpt lat="45.4323910113178" lon="9.342780060931167"><ele>101.0</ele><time>2026-03-29T13:21:51Z</time></trkpt><trkpt lat="45.432363539657544" lon="9.342921713694617"><ele>101.0</ele><time>2026-03-29T13:21:52Z</time></trkpt><trkpt lat="45.43233771663312" lon="9.343066919807276"><ele>101.0</ele><time>2026-03-29T13:21:53Z</time></trkpt><trkpt lat="45.43231185362233" lon="9.343213502228359"><ele>101.0</ele><time>2026-03-29T13:21:54Z</time></trkpt><trkpt lat="45.43228794347616" lon="9.343360421315063"><ele>101.0</ele><time>2026-03-29T13:21:55Z</time></trkpt><trkpt lat="45.43226425356217" lon="9.343510376639667"><ele>101.0</ele><time>2026-03-29T13:21:56Z</time></trkpt><trkpt lat="45.43223891828103" lon="9.343663947247572"><ele>101.0</ele><time>2026-03-29T13:21:57Z</time></trkpt><trkpt lat="45.432213187241196" lon="9.343821854327787"><ele>101.0</ele><time>2026-03-29T13:21:58Z</time></trkpt><trkpt lat="45.43218714016756" lon="9.343980250730972"><ele>101.0</ele><time>2026-03-29T13:21:59Z</time></trkpt><trkpt lat="45.43215970984309" lon="9.344136256760113"><ele>100.5</ele><time>2026-03-29T13:22:00Z</time></trkpt><trkpt lat="45.43213363348791" lon="9.344301328734595"><ele>100.0</ele><time>2026-03-29T13:22:01Z</time></trkpt><trkpt lat="45.432108094727795" lon="9.344465249517876"><ele>99.5</ele><time>2026-03-29T13:22:02Z</time></trkpt><trkpt lat="45.432079991760446" lon="9.344631441580567"><ele>99.0</ele><time>2026-03-29T13:22:03Z</time></trkpt><trkpt lat="45.43205085175865" lon="9.344798603055363"><ele>99.0</ele><time>2026-03-29T13:22:04Z</time></trkpt><trkpt lat="45.43202330377029" lon="9.344965502218011"><ele>99.0</ele><time>2026-03-29T13:22:05Z</time></trkpt><trkpt lat="45.43199529434618" lon="9.345135046967842"><ele>99.0</ele><time>2026-03-29T13:22:06Z</time></trkpt><trkpt lat="45.43196575306344" lon="9.345307071366161"><ele>99.0</ele><time>2026-03-29T13:22:07Z</time></trkpt><trkpt lat="45.431937945378294" lon="9.345474330507644"><ele>99.25</ele><time>2026-03-29T13:22:08Z</time></trkpt><trkpt lat="45.43190654731438" lon="9.345645971007137"><ele>99.5</ele><time>2026-03-29T13:22:09Z</time></trkpt><trkpt lat="45.43187748000017" lon="9.34583880749343"><ele>99.75</ele><time>2026-03-29T13:22:10Z</time></trkpt><trkpt lat="45.43185473949013" lon="9.345944972716508"><ele>100.0</ele><time>2026-03-29T13:22:11Z</time></trkpt><trkpt lat="45.43182643644512" lon="9.34610734285912"><ele>100.0</ele><time>2026-03-29T13:22:12Z</time></trkpt><trkpt lat="45.43180047323473" lon="9.346269817260335"><ele>100.0</ele><time>2026-03-29T13:22:13Z</time></trkpt><trkpt lat="45.43177415438614" lon="9.346427883034222"><ele>100.0</ele><time>2026-03-29T13:22:14Z</time></trkpt><trkpt lat="45.43174785141526" lon="9.346583954723535"><ele>100.0</ele><time>2026-03-29T13:22:15Z</time></trkpt><trkpt lat="45.43172624043212" lon="9.346732910623441"><ele>100.0</ele><time>2026-03-29T13:22:16Z</time></trkpt><trkpt lat="45.43170174283078" lon="9.346879974320979"><ele>100.0</ele><time>2026-03-29T13:22:17Z</time></trkpt><trkpt lat="45.43167822855709" lon="9.347024324555047"><ele>100.0</ele><time>2026-03-29T13:22:18Z</time></trkpt><trkpt lat="45.431652837608624" lon="9.347159251347598"><ele>100.0</ele><time>2026-03-29T13:22:19Z</time></trkpt><trkpt lat="45.431631957787225" lon="9.347280106711555"><ele>100.0</ele><time>2026-03-29T13:22:20Z</time></trkpt><trkpt lat="45.43161096693737" lon="9.347404338082683"><ele>100.00000000000001</ele><time>2026-03-29T13:22:21Z</time></trkpt><trkpt lat="45.43158608807841" lon="9.347509831940371"><ele>100.0</ele><time>2026-03-29T13:22:22Z</time></trkpt><trkpt lat="45.43154003628455" lon="9.347587845172576"><ele>100.0</ele><time>2026-03-29T13:22:23Z</time></trkpt><trkpt lat="45.43147161187095" lon="9.34761119991125"><ele>100.0</ele><time>2026-03-29T13:22:24Z</time></trkpt><trkpt lat="45.431401973217845" lon="9.347609194331623"><ele>100.0</ele><time>2026-03-29T13:22:25Z</time></trkpt><trkpt lat="45.431335660961" lon="9.347616586618"><ele>100.00000000000001</ele><time>2026-03-29T13:22:26Z</time></trkpt><trkpt lat="45.43128000173536" lon="9.347664003062757"><ele>100.0</ele><time>2026-03-29T13:22:27Z</time></trkpt><trkpt lat="45.43124006938557" lon="9.347751010694887"><ele>100.0</ele><time>2026-03-29T13:22:28Z</time></trkpt><trkpt lat="45.43123020581276" lon="9.347849944759483"><ele>100.0</ele><time>2026-03-29T13:22:29Z</time></trkpt><trkpt lat="45.4312904690808" lon="9.348055344551792"><ele>100.0</ele><time>2026-03-29T13:22:31Z</time></trkpt><trkpt lat="45.43135975038625" lon="9.348133103204463"><ele>100.0</ele><time>2026-03-29T13:22:32Z</time></trkpt><trkpt lat="45.431431863902354" lon="9.348225930804107"><ele>100.0</ele><time>2026-03-29T13:22:33Z</time></trkpt><trkpt lat="45.43142335627208" lon="9.348386021050294"><ele>100.00000000000001</ele><time>2026-03-29T13:22:34Z</time></trkpt><trkpt lat="45.43142286905775" lon="9.348511213391326"><ele>100.0</ele><time>2026-03-29T13:22:35Z</time></trkpt><trkpt lat="45.43140953093003" lon="9.348619260722785"><ele>100.0</ele><time>2026-03-29T13:22:36Z</time></trkpt><trkpt lat="45.431385989098146" lon="9.348730530299415"><ele>100.0</ele><time>2026-03-29T13:22:37Z</time></trkpt><trkpt lat="45.43135542056726" lon="9.34884880828298"><ele>100.00000000000001</ele><time>2026-03-29T13:22:38Z</time></trkpt><trkpt lat="45.431331788927615" lon="9.34897318935295"><ele>100.0</ele><time>2026-03-29T13:22:39Z</time></trkpt><trkpt lat="45.43131589382892" lon="9.349111810316876"><ele>100.4</ele><time>2026-03-29T13:22:40Z</time></trkpt><trkpt lat="45.43129233375035" lon="9.349249055113539"><ele>100.8</ele><time>2026-03-29T13:22:41Z</time></trkpt><trkpt lat="45.4312714838767" lon="9.349388164372865"><ele>101.19999999999999</ele><time>2026-03-29T13:22:42Z</time></trkpt><trkpt lat="45.43124773252397" lon="9.349524756631718"><ele>101.6</ele><time>2026-03-29T13:22:42.999Z</time></trkpt><trkpt lat="45.4312248670534" lon="9.349668889645068"><ele>102.0</ele><time>2026-03-29T13:22:43.999Z</time></trkpt><trkpt lat="45.43120051288423" lon="9.349821962677984"><ele>102.25</ele><time>2026-03-29T13:22:44.999Z</time></trkpt><trkpt lat="45.43117456433589" lon="9.349978933572592"><ele>102.5</ele><time>2026-03-29T13:22:45.999Z</time></trkpt><trkpt lat="45.431145046586096" lon="9.35013791095198"><ele>102.75</ele><time>2026-03-29T13:22:46.999Z</time></trkpt><trkpt lat="45.431117605222276" lon="9.350300674947405"><ele>103.0</ele><time>2026-03-29T13:22:47.999Z</time></trkpt><trkpt lat="45.431095079366486" lon="9.350456878810624"><ele>102.80000000000001</ele><time>2026-03-29T13:22:48.999Z</time></trkpt><trkpt lat="45.43107517162647" lon="9.350599735837338"><ele>102.6</ele><time>2026-03-29T13:22:49.999Z</time></trkpt><trkpt lat="45.43105303893877" lon="9.35073354313702"><ele>102.4</ele><time>2026-03-29T13:22:50.999Z</time></trkpt><trkpt lat="45.4310323767302" lon="9.35086798994816"><ele>102.19999999999999</ele><time>2026-03-29T13:22:51.999Z</time></trkpt><trkpt lat="45.431004630534936" lon="9.351005752119038"><ele>102.0</ele><time>2026-03-29T13:22:52.999Z</time></trkpt><trkpt lat="45.43098463379099" lon="9.351145073063512"><ele>102.0</ele><time>2026-03-29T13:22:54Z</time></trkpt><trkpt lat="45.43096293728404" lon="9.351281951905154"><ele>102.0</ele><time>2026-03-29T13:22:55Z</time></trkpt><trkpt lat="45.430940562638305" lon="9.351420190503068"><ele>102.0</ele><time>2026-03-29T13:22:56Z</time></trkpt><trkpt lat="45.430917823524894" lon="9.351562612089586"><ele>102.0</ele><time>2026-03-29T13:22:57Z</time></trkpt><trkpt lat="45.43088881404825" lon="9.351701908518741"><ele>102.0</ele><time>2026-03-29T13:22:58Z</time></trkpt><trkpt lat="45.430856293857744" lon="9.351841731093568"><ele>102.0</ele><time>2026-03-29T13:22:59Z</time></trkpt><trkpt lat="45.430827034154994" lon="9.351980166420583"><ele>102.0</ele><time>2026-03-29T13:23:00Z</time></trkpt><trkpt lat="45.43079090362709" lon="9.352118453582209"><ele>102.0</ele><time>2026-03-29T13:23:01Z</time></trkpt><trkpt lat="45.43075544864184" lon="9.35224107655042"><ele>102.0</ele><time>2026-03-29T13:23:02Z</time></trkpt><trkpt lat="45.43072298325046" lon="9.352360190795224"><ele>102.0</ele><time>2026-03-29T13:23:03Z</time></trkpt><trkpt lat="45.43070095796679" lon="9.352471529395231"><ele>102.0</ele><time>2026-03-29T13:23:04Z</time></trkpt><trkpt lat="45.43068914332528" lon="9.35257709209783"><ele>102.0</ele><time>2026-03-29T13:23:05Z</time></trkpt><trkpt lat="45.43068899141833" lon="9.352684897182654"><ele>102.0</ele><time>2026-03-29T13:23:06Z</time></trkpt><trkpt lat="45.43070074361304" lon="9.352778863112825"><ele>102.0</ele><time>2026-03-29T13:23:07Z</time></trkpt><trkpt lat="45.43072188678645" lon="9.35287948816569"><ele>102.0</ele><time>2026-03-29T13:23:08Z</time></trkpt><trkpt lat="45.43075345132779" lon="9.352979855298871"><ele>102.0</ele><time>2026-03-29T13:23:09Z</time></trkpt><trkpt lat="45.43079742738654" lon="9.353081220739794"><ele>102.0</ele><time>2026-03-29T13:23:10Z</time></trkpt><trkpt lat="45.43084087000047" lon="9.353177671940172"><ele>102.0</ele><time>2026-03-29T13:23:11Z</time></trkpt><trkpt lat="45.4308860555257" lon="9.353270261117506"><ele>102.0</ele><time>2026-03-29T13:23:12Z</time></trkpt><trkpt lat="45.430928966825874" lon="9.353349076453659"><ele>102.0</ele><time>2026-03-29T13:23:13Z</time></trkpt><trkpt lat="45.43090610468488" lon="9.353507532727381"><ele>102.0</ele><time>2026-03-29T13:23:15Z</time></trkpt><trkpt lat="45.43084380255489" lon="9.353553563160018"><ele>102.0</ele><time>2026-03-29T13:23:16Z</time></trkpt><trkpt lat="45.43078109491838" lon="9.353562386018082"><ele>102.0</ele><time>2026-03-29T13:23:17Z</time></trkpt><trkpt lat="45.43070215879759" lon="9.353525672960062"><ele>102.0</ele><time>2026-03-29T13:23:18Z</time></trkpt><trkpt lat="45.4306295497633" lon="9.353476879556839"><ele>102.0</ele><time>2026-03-29T13:23:19Z</time></trkpt><trkpt lat="45.43055572937709" lon="9.35343030286445"><ele>102.0</ele><time>2026-03-29T13:23:20Z</time></trkpt><trkpt lat="45.43047234327976" lon="9.353416331689594"><ele>102.0</ele><time>2026-03-29T13:23:21Z</time></trkpt><trkpt lat="45.430386828145906" lon="9.353455005963797"><ele>102.0</ele><time>2026-03-29T13:23:22Z</time></trkpt><trkpt lat="45.43030935504098" lon="9.35352740739301"><ele>101.8</ele><time>2026-03-29T13:23:23Z</time></trkpt><trkpt lat="45.43025294610585" lon="9.353626817155643"><ele>101.6</ele><time>2026-03-29T13:23:24Z</time></trkpt><trkpt lat="45.43019087248615" lon="9.35372727070175"><ele>101.39999999999999</ele><time>2026-03-29T13:23:25Z</time></trkpt><trkpt lat="45.43011121899075" lon="9.353814095086243"><ele>101.19999999999999</ele><time>2026-03-29T13:23:26Z</time></trkpt><trkpt lat="45.4300325410431" lon="9.353876108562176"><ele>101.0</ele><time>2026-03-29T13:23:27Z</time></trkpt><trkpt lat="45.429974687671674" lon="9.353954841105727"><ele>101.0</ele><time>2026-03-29T13:23:28Z</time></trkpt><trkpt lat="45.42995224818917" lon="9.354060043351751"><ele>101.0</ele><time>2026-03-29T13:23:29Z</time></trkpt><trkpt lat="45.42995601979067" lon="9.354183611951127"><ele>101.0</ele><time>2026-03-29T13:23:30Z</time></trkpt><trkpt lat="45.42999354885152" lon="9.354302573302927"><ele>101.0</ele><time>2026-03-29T13:23:31Z</time></trkpt><trkpt lat="45.43005181764905" lon="9.35442097633171"><ele>101.0</ele><time>2026-03-29T13:23:32Z</time></trkpt><trkpt lat="45.430112611791365" lon="9.354530655438248"><ele>101.0</ele><time>2026-03-29T13:23:33Z</time></trkpt><trkpt lat="45.43016884014698" lon="9.354658388202177"><ele>101.0</ele><time>2026-03-29T13:23:34Z</time></trkpt><trkpt lat="45.430215143867734" lon="9.354815147645661"><ele>101.0</ele><time>2026-03-29T13:23:35Z</time></trkpt><trkpt lat="45.4302535152093" lon="9.35499750033277"><ele>101.0</ele><time>2026-03-29T13:23:36Z</time></trkpt><trkpt lat="45.430275377739086" lon="9.355183725792424"><ele>100.75</ele><time>2026-03-29T13:23:37Z</time></trkpt><trkpt lat="45.43027274506708" lon="9.355381081236054"><ele>100.5</ele><time>2026-03-29T13:23:38Z</time></trkpt><trkpt lat="45.43024155572945" lon="9.355586417652813"><ele>100.25</ele><time>2026-03-29T13:23:39Z</time></trkpt><trkpt lat="45.430197240982935" lon="9.3557983528827"><ele>100.0</ele><time>2026-03-29T13:23:40Z</time></trkpt><trkpt lat="45.430155872821565" lon="9.35600934139829"><ele>99.5</ele><time>2026-03-29T13:23:41Z</time></trkpt><trkpt lat="45.43011746248535" lon="9.356221692383167"><ele>99.0</ele><time>2026-03-29T13:23:42Z</time></trkpt><trkpt lat="45.43008131743475" lon="9.356432326947356"><ele>98.5</ele><time>2026-03-29T13:23:43Z</time></trkpt><trkpt lat="45.43004619642683" lon="9.356629843204532"><ele>98.0</ele><time>2026-03-29T13:23:44Z</time></trkpt><trkpt lat="45.43001535204786" lon="9.35680653966992"><ele>98.0</ele><time>2026-03-29T13:23:45Z</time></trkpt><trkpt lat="45.42998587297155" lon="9.356968482048563"><ele>98.0</ele><time>2026-03-29T13:23:46Z</time></trkpt><trkpt lat="45.42995644902395" lon="9.357124736338292"><ele>98.0</ele><time>2026-03-29T13:23:47Z</time></trkpt><trkpt lat="45.429936945425254" lon="9.357270157097997"><ele>98.0</ele><time>2026-03-29T13:23:48Z</time></trkpt><trkpt lat="45.42991510630627" lon="9.357402631559637"><ele>98.0</ele><time>2026-03-29T13:23:49Z</time></trkpt><trkpt lat="45.42989728319279" lon="9.357524605425295"><ele>98.16666666666666</ele><time>2026-03-29T13:23:50Z</time></trkpt><trkpt lat="45.42987588127685" lon="9.357643261904682"><ele>98.33333333333333</ele><time>2026-03-29T13:23:51Z</time></trkpt><trkpt lat="45.42985318666808" lon="9.357752550682806"><ele>98.5</ele><time>2026-03-29T13:23:52Z</time></trkpt><trkpt lat="45.429830166596645" lon="9.357846762705954"><ele>98.66666666666666</ele><time>2026-03-29T13:23:53Z</time></trkpt><trkpt lat="45.42982031871398" lon="9.357946350144873"><ele>98.83333333333333</ele><time>2026-03-29T13:23:54Z</time></trkpt><trkpt lat="45.42978912177645" lon="9.358118367938003"><ele>99.0</ele><time>2026-03-29T13:23:56Z</time></trkpt><trkpt lat="45.42975766901175" lon="9.358275786313976"><ele>99.0</ele><time>2026-03-29T13:23:58Z</time></trkpt><trkpt lat="45.42973411935177" lon="9.358423902166527"><ele>99.0</ele><time>2026-03-29T13:24:00Z</time></trkpt><trkpt lat="45.42971197932937" lon="9.358556071493648"><ele>99.0</ele><time>2026-03-29T13:24:02Z</time></trkpt><trkpt lat="45.42969066461163" lon="9.358673049639211"><ele>99.0</ele><time>2026-03-29T13:24:04Z</time></trkpt><trkpt lat="45.42967281695752" lon="9.358774281733396"><ele>99.0</ele><time>2026-03-29T13:24:06Z</time></trkpt><trkpt lat="45.42965343234846" lon="9.358874576810683"><ele>99.0</ele><time>2026-03-29T13:24:09Z</time></trkpt><trkpt lat="45.42963767378144" lon="9.359021134175848"><ele>98.33333333333334</ele><time>2026-03-29T13:24:13Z</time></trkpt><trkpt lat="45.42973541116849" lon="9.359042705170308"><ele>97.66666666666667</ele><time>2026-03-29T13:24:16Z</time></trkpt><trkpt lat="45.42998665064708" lon="9.359062199793813"><ele>97.0</ele><time>2026-03-29T13:24:20Z</time></trkpt><trkpt lat="45.42975486932913" lon="9.358962265685753"><ele>97.33333333333334</ele><time>2026-03-29T13:24:21Z</time></trkpt><trkpt lat="45.42971904101257" lon="9.358853490562122"><ele>97.66666666666667</ele><time>2026-03-29T13:24:25Z</time></trkpt><trkpt lat="45.429736582368434" lon="9.358717319921592"><ele>98.0</ele><time>2026-03-29T13:24:27Z</time></trkpt><trkpt lat="45.429750363578115" lon="9.358618389343855"><ele>98.33333333333334</ele><time>2026-03-29T13:24:28Z</time></trkpt><trkpt lat="45.42976251750903" lon="9.358520164135554"><ele>98.66666666666667</ele><time>2026-03-29T13:24:29Z</time></trkpt><trkpt lat="45.42978085191777" lon="9.358404361243245"><ele>99.0</ele><time>2026-03-29T13:24:30Z</time></trkpt><trkpt lat="45.42979948554165" lon="9.358280045338827"><ele>99.0</ele><time>2026-03-29T13:24:31Z</time></trkpt><trkpt lat="45.42982333273513" lon="9.358148100464941"><ele>99.0</ele><time>2026-03-29T13:24:32Z</time></trkpt><trkpt lat="45.42984967130255" lon="9.358012810527978"><ele>99.0</ele><time>2026-03-29T13:24:33Z</time></trkpt><trkpt lat="45.42987518814635" lon="9.357867620623539"><ele>99.0</ele><time>2026-03-29T13:24:34Z</time></trkpt><trkpt lat="45.42990213192552" lon="9.35771854468667"><ele>99.0</ele><time>2026-03-29T13:24:35Z</time></trkpt><trkpt lat="45.429929288772705" lon="9.357561920941583"><ele>99.0</ele><time>2026-03-29T13:24:36Z</time></trkpt><trkpt lat="45.42995949790096" lon="9.357413728893805"><ele>99.0</ele><time>2026-03-29T13:24:37Z</time></trkpt><trkpt lat="45.429981140341944" lon="9.357260948387227"><ele>99.0</ele><time>2026-03-29T13:24:38Z</time></trkpt><trkpt lat="45.43000664270741" lon="9.35711375734407"><ele>99.0</ele><time>2026-03-29T13:24:39Z</time></trkpt><trkpt lat="45.43003404242897" lon="9.356965851870912"><ele>99.0</ele><time>2026-03-29T13:24:40Z</time></trkpt><trkpt lat="45.430062552479775" lon="9.356821943203705"><ele>98.80000000000001</ele><time>2026-03-29T13:24:41Z</time></trkpt><trkpt lat="45.43009030465729" lon="9.356678162669363"><ele>98.60000000000001</ele><time>2026-03-29T13:24:42Z</time></trkpt><trkpt lat="45.4301162032944" lon="9.35653113123554"><ele>98.4</ele><time>2026-03-29T13:24:43Z</time></trkpt><trkpt lat="45.43014225713885" lon="9.356389311501593"><ele>98.2</ele><time>2026-03-29T13:24:44Z</time></trkpt><trkpt lat="45.43016399608503" lon="9.356247664006993"><ele>98.0</ele><time>2026-03-29T13:24:45Z</time></trkpt><trkpt lat="45.430183500357586" lon="9.356110083840464"><ele>98.0</ele><time>2026-03-29T13:24:46Z</time></trkpt><trkpt lat="45.43020600487907" lon="9.355971380981075"><ele>98.0</ele><time>2026-03-29T13:24:47Z</time></trkpt><trkpt lat="45.43022821406983" lon="9.355837069728013"><ele>98.0</ele><time>2026-03-29T13:24:48Z</time></trkpt><trkpt lat="45.430249619081394" lon="9.355703374035192"><ele>98.0</ele><time>2026-03-29T13:24:48.999Z</time></trkpt><trkpt lat="45.43027723545896" lon="9.35557612241011"><ele>98.0</ele><time>2026-03-29T13:24:49.999Z</time></trkpt><trkpt lat="45.430297786002505" lon="9.355441170776471"><ele>98.33333333333333</ele><time>2026-03-29T13:24:50.999Z</time></trkpt><trkpt lat="45.43031428048514" lon="9.355316299352596"><ele>98.66666666666666</ele><time>2026-03-29T13:24:51.999Z</time></trkpt><trkpt lat="45.430323209079255" lon="9.355196907343247"><ele>99.0</ele><time>2026-03-29T13:24:52.999Z</time></trkpt><trkpt lat="45.43031674775201" lon="9.35509821761197"><ele>99.33333333333334</ele><time>2026-03-29T13:24:53.999Z</time></trkpt><trkpt lat="45.430313619750926" lon="9.355006080597692"><ele>99.66666666666667</ele><time>2026-03-29T13:24:54.999Z</time></trkpt><trkpt lat="45.43030266430127" lon="9.354888531967942"><ele>100.0</ele><time>2026-03-29T13:24:56.999Z</time></trkpt><trkpt lat="45.43028353867774" lon="9.354798058741657"><ele>100.0</ele><time>2026-03-29T13:24:59.999Z</time></trkpt><trkpt lat="45.43022828766408" lon="9.354709524961299"><ele>100.0</ele><time>2026-03-29T13:25:12.999Z</time></trkpt><trkpt lat="45.43020975449904" lon="9.354850161786903"><ele>100.0</ele><time>2026-03-29T13:25:16.999Z</time></trkpt><trkpt lat="45.43024441989483" lon="9.354954942299884"><ele>100.0</ele><time>2026-03-29T13:25:18.999Z</time></trkpt><trkpt lat="45.43026797080136" lon="9.355122875493324"><ele>100.0</ele><time>2026-03-29T13:25:20.999Z</time></trkpt><trkpt lat="45.43026825399195" lon="9.355330027213292"><ele>100.00000000000001</ele><time>2026-03-29T13:25:22.999Z</time></trkpt><trkpt lat="45.43024830398058" lon="9.355436960784164"><ele>100.0</ele><time>2026-03-29T13:25:23.999Z</time></trkpt><trkpt lat="45.430237072453195" lon="9.355569267344782"><ele>100.0</ele><time>2026-03-29T13:25:24.999Z</time></trkpt><trkpt lat="45.430204916489586" lon="9.355690939241457"><ele>100.0</ele><time>2026-03-29T13:25:26.999Z</time></trkpt><trkpt lat="45.430183268693476" lon="9.355804163792424"><ele>100.00000000000001</ele><time>2026-03-29T13:25:27.999Z</time></trkpt><trkpt lat="45.430166249987046" lon="9.35592117638552"><ele>100.0</ele><time>2026-03-29T13:25:28.999Z</time></trkpt><trkpt lat="45.43014242531494" lon="9.356047180709593"><ele>99.6</ele><time>2026-03-29T13:25:29.999Z</time></trkpt><trkpt lat="45.43012279166415" lon="9.356177164360714"><ele>99.2</ele><time>2026-03-29T13:25:30.999Z</time></trkpt><trkpt lat="45.43009904038539" lon="9.35631402178007"><ele>98.80000000000001</ele><time>2026-03-29T13:25:31.999Z</time></trkpt><trkpt lat="45.43007345477593" lon="9.356451904782471"><ele>98.4</ele><time>2026-03-29T13:25:32.999Z</time></trkpt><trkpt lat="45.43004774169084" lon="9.35659004096328"><ele>98.0</ele><time>2026-03-29T13:25:33.999Z</time></trkpt><trkpt lat="45.43002348096588" lon="9.356722704378106"><ele>98.0</ele><time>2026-03-29T13:25:34.999Z</time></trkpt><trkpt lat="45.43000008663625" lon="9.35685825615245"><ele>98.0</ele><time>2026-03-29T13:25:35.999Z</time></trkpt><trkpt lat="45.42997520951749" lon="9.356994236527225"><ele>98.0</ele><time>2026-03-29T13:25:36.999Z</time></trkpt><trkpt lat="45.429952644593556" lon="9.357129168745262"><ele>98.0</ele><time>2026-03-29T13:25:37.999Z</time></trkpt><trkpt lat="45.42993121049146" lon="9.357261539182948"><ele>98.0</ele><time>2026-03-29T13:25:38.999Z</time></trkpt><trkpt lat="45.429911538858974" lon="9.357394611264034"><ele>98.2</ele><time>2026-03-29T13:25:39.999Z</time></trkpt><trkpt lat="45.42988913685425" lon="9.357530908178346"><ele>98.4</ele><time>2026-03-29T13:25:40.999Z</time></trkpt><trkpt lat="45.429867428941186" lon="9.357663014744752"><ele>98.60000000000001</ele><time>2026-03-29T13:25:41.999Z</time></trkpt><trkpt lat="45.42984207843111" lon="9.357797304800886"><ele>98.80000000000001</ele><time>2026-03-29T13:25:42.999Z</time></trkpt><trkpt lat="45.42981901595411" lon="9.357933961736146"><ele>99.0</ele><time>2026-03-29T13:25:43.999Z</time></trkpt><trkpt lat="45.429794689107936" lon="9.35807504029615"><ele>99.0</ele><time>2026-03-29T13:25:44.999Z</time></trkpt><trkpt lat="45.42976969988593" lon="9.358230835337206"><ele>99.0</ele><time>2026-03-29T13:25:45.999Z</time></trkpt><trkpt lat="45.42973988535399" lon="9.358394108140711"><ele>99.0</ele><time>2026-03-29T13:25:46.999Z</time></trkpt><trkpt lat="45.42970861445459" lon="9.358574623827657"><ele>99.0</ele><time>2026-03-29T13:25:48Z</time></trkpt><trkpt lat="45.42967747905861" lon="9.358742410064174"><ele>99.0</ele><time>2026-03-29T13:25:49Z</time></trkpt><trkpt lat="45.42964855581554" lon="9.358917764780172"><ele>99.0</ele><time>2026-03-29T13:25:50Z</time></trkpt><trkpt lat="45.42961792631714" lon="9.359094303008092"><ele>99.0</ele><time>2026-03-29T13:25:51Z</time></trkpt><trkpt lat="45.42958673281664" lon="9.359272211082041"><ele>99.0</ele><time>2026-03-29T13:25:52Z</time></trkpt><trkpt lat="45.42955851017209" lon="9.35944287697048"><ele>99.0</ele><time>2026-03-29T13:25:53Z</time></trkpt><trkpt lat="45.429528130727945" lon="9.359616447935062"><ele>99.0</ele><time>2026-03-29T13:25:54Z</time></trkpt><trkpt lat="45.429500221342806" lon="9.359784723003045"><ele>99.0</ele><time>2026-03-29T13:25:55Z</time></trkpt><trkpt lat="45.42947234682198" lon="9.35994935061085"><ele>99.0</ele><time>2026-03-29T13:25:56Z</time></trkpt><trkpt lat="45.42944473789034" lon="9.360116738021588"><ele>99.0</ele><time>2026-03-29T13:25:57Z</time></trkpt><trkpt lat="45.4294188899373" lon="9.360272941896143"><ele>99.0</ele><time>2026-03-29T13:25:58Z</time></trkpt><trkpt lat="45.429397281802785" lon="9.360416421522874"><ele>99.0</ele><time>2026-03-29T13:25:59Z</time></trkpt><trkpt lat="45.42937668909023" lon="9.360552184147203"><ele>99.0</ele><time>2026-03-29T13:26:00Z</time></trkpt><trkpt lat="45.429353275003095" lon="9.360679761571431"><ele>99.0</ele><time>2026-03-29T13:26:01Z</time></trkpt><trkpt lat="45.42933365245596" lon="9.36079836527714"><ele>99.16666666666667</ele><time>2026-03-29T13:26:02Z</time></trkpt><trkpt lat="45.42930403521373" lon="9.360903096660875"><ele>99.33333333333334</ele><time>2026-03-29T13:26:03Z</time></trkpt><trkpt lat="45.42924705272366" lon="9.36099086542712"><ele>99.5</ele><time>2026-03-29T13:26:04Z</time></trkpt><trkpt lat="45.42916943962567" lon="9.360961657644971"><ele>99.66666666666667</ele><time>2026-03-29T13:26:05Z</time></trkpt><trkpt lat="45.429084527517695" lon="9.360983136433084"><ele>99.83333333333334</ele><time>2026-03-29T13:26:06Z</time></trkpt><trkpt lat="45.42899014334882" lon="9.36100780543323"><ele>100.0</ele><time>2026-03-29T13:26:07Z</time></trkpt><trkpt lat="45.42890228342353" lon="9.361050230096982"><ele>100.0</ele><time>2026-03-29T13:26:08Z</time></trkpt><trkpt lat="45.428808138983825" lon="9.36106914735385"><ele>100.0</ele><time>2026-03-29T13:26:09Z</time></trkpt><trkpt lat="45.428708766002586" lon="9.361098186497369"><ele>100.0</ele><time>2026-03-29T13:26:10Z</time></trkpt><trkpt lat="45.428610090292985" lon="9.361123656428607"><ele>100.0</ele><time>2026-03-29T13:26:11Z</time></trkpt><trkpt lat="45.428511266265346" lon="9.361149974432415"><ele>100.0</ele><time>2026-03-29T13:26:12Z</time></trkpt><trkpt lat="45.428414546204436" lon="9.361176333364481"><ele>100.00000000000001</ele><time>2026-03-29T13:26:13Z</time></trkpt><trkpt lat="45.42832246037647" lon="9.361199053200043"><ele>100.0</ele><time>2026-03-29T13:26:14Z</time></trkpt><trkpt lat="45.428235403407186" lon="9.361216646310682"><ele>100.0</ele><time>2026-03-29T13:26:15Z</time></trkpt><trkpt lat="45.428153854057506" lon="9.361237884304947"><ele>100.0</ele><time>2026-03-29T13:26:16Z</time></trkpt><trkpt lat="45.428080103867735" lon="9.361254547599415"><ele>100.00000000000001</ele><time>2026-03-29T13:26:17Z</time></trkpt><trkpt lat="45.428012314429424" lon="9.361265344131484"><ele>100.0</ele><time>2026-03-29T13:26:18Z</time></trkpt><trkpt lat="45.427943117685686" lon="9.361288102649384"><ele>99.6</ele><time>2026-03-29T13:26:19Z</time></trkpt><trkpt lat="45.427862859004264" lon="9.361309802331663"><ele>99.2</ele><time>2026-03-29T13:26:20Z</time></trkpt><trkpt lat="45.42777095967975" lon="9.361325024691077"><ele>98.80000000000001</ele><time>2026-03-29T13:26:21Z</time></trkpt><trkpt lat="45.42767398492333" lon="9.361323326045648"><ele>98.4</ele><time>2026-03-29T13:26:22Z</time></trkpt><trkpt lat="45.42757596427699" lon="9.361322921072178"><ele>98.0</ele><time>2026-03-29T13:26:23Z</time></trkpt><trkpt lat="45.427483022615206" lon="9.361313959593819"><ele>97.99999999999999</ele><time>2026-03-29T13:26:24Z</time></trkpt><trkpt lat="45.4273949480145" lon="9.36130645501368"><ele>98.0</ele><time>2026-03-29T13:26:25Z</time></trkpt><trkpt lat="45.42731231206859" lon="9.361302978735932"><ele>98.0</ele><time>2026-03-29T13:26:26Z</time></trkpt><trkpt lat="45.42722808322236" lon="9.361300154389749"><ele>98.0</ele><time>2026-03-29T13:26:27Z</time></trkpt><trkpt lat="45.42714321456562" lon="9.361294742875687"><ele>97.99999999999999</ele><time>2026-03-29T13:26:28Z</time></trkpt><trkpt lat="45.42706021494829" lon="9.361287571541938"><ele>98.0</ele><time>2026-03-29T13:26:29Z</time></trkpt><trkpt lat="45.42698545246943" lon="9.361293482595219"><ele>97.83333333333333</ele><time>2026-03-29T13:26:30Z</time></trkpt><trkpt lat="45.42689903556774" lon="9.36130679346702"><ele>97.66666666666666</ele><time>2026-03-29T13:26:31Z</time></trkpt><trkpt lat="45.42681925278636" lon="9.361317317062767"><ele>97.5</ele><time>2026-03-29T13:26:32Z</time></trkpt><trkpt lat="45.4267381049932" lon="9.361329639004238"><ele>97.33333333333334</ele><time>2026-03-29T13:26:33Z</time></trkpt><trkpt lat="45.42665499000872" lon="9.361332837320534"><ele>97.16666666666667</ele><time>2026-03-29T13:26:34Z</time></trkpt><trkpt lat="45.4265736031731" lon="9.361333855674202"><ele>97.0</ele><time>2026-03-29T13:26:35Z</time></trkpt><trkpt lat="45.426488338377546" lon="9.361354210281435"><ele>97.50000000000001</ele><time>2026-03-29T13:26:36Z</time></trkpt><trkpt lat="45.42640733154357" lon="9.361372504309372"><ele>98.0</ele><time>2026-03-29T13:26:37Z</time></trkpt><trkpt lat="45.426328384304064" lon="9.361383782902791"><ele>98.5</ele><time>2026-03-29T13:26:38Z</time></trkpt><trkpt lat="45.42625491124825" lon="9.361389723313525"><ele>99.0</ele><time>2026-03-29T13:26:39Z</time></trkpt><trkpt lat="45.42617653594482" lon="9.361401660033781"><ele>99.50000000000001</ele><time>2026-03-29T13:26:40Z</time></trkpt><trkpt lat="45.426100268483935" lon="9.361406873284706"><ele>100.0</ele><time>2026-03-29T13:26:41Z</time></trkpt><trkpt lat="45.426017041520936" lon="9.361418288793635"><ele>100.00000000000001</ele><time>2026-03-29T13:26:42Z</time></trkpt><trkpt lat="45.425936686878146" lon="9.361419381269787"><ele>100.0</ele><time>2026-03-29T13:26:43Z</time></trkpt><trkpt lat="45.42585364858473" lon="9.361433184841884"><ele>100.0</ele><time>2026-03-29T13:26:44Z</time></trkpt><trkpt lat="45.42577240503241" lon="9.361449119587538"><ele>100.0</ele><time>2026-03-29T13:26:45Z</time></trkpt><trkpt lat="45.42570638346474" lon="9.361466001567345"><ele>100.00000000000001</ele><time>2026-03-29T13:26:46Z</time></trkpt><trkpt lat="45.42561196989163" lon="9.361478843647436"><ele>100.0</ele><time>2026-03-29T13:26:48Z</time></trkpt><trkpt lat="45.425536935172865" lon="9.361486634899025"><ele>100.0</ele><time>2026-03-29T13:26:50Z</time></trkpt><trkpt lat="45.425441363329114" lon="9.361508995471308"><ele>100.0</ele><time>2026-03-29T13:26:52Z</time></trkpt><trkpt lat="45.425324023893744" lon="9.361554417802985"><ele>100.0</ele><time>2026-03-29T13:26:54Z</time></trkpt><trkpt lat="45.42522737744524" lon="9.361573399733201"><ele>100.0</ele><time>2026-03-29T13:26:55.999Z</time></trkpt><trkpt lat="45.425147039001615" lon="9.361584580744923"><ele>100.0</ele><time>2026-03-29T13:26:57.999Z</time></trkpt><trkpt lat="45.425066639961706" lon="9.361596076741872"><ele>100.0</ele><time>2026-03-29T13:26:59.999Z</time></trkpt><trkpt lat="45.42502110609503" lon="9.361710574017552"><ele>100.0</ele><time>2026-03-29T13:27:01.999Z</time></trkpt><trkpt lat="45.42505778461039" lon="9.3618570555095"><ele>100.0</ele><time>2026-03-29T13:27:03.999Z</time></trkpt><trkpt lat="45.42507668271221" lon="9.362024016320529"><ele>100.0</ele><time>2026-03-29T13:27:05.999Z</time></trkpt><trkpt lat="45.42508889441072" lon="9.362134908459861"><ele>100.0</ele><time>2026-03-29T13:27:06.999Z</time></trkpt><trkpt lat="45.42511470998057" lon="9.362244181553454"><ele>100.16666666666667</ele><time>2026-03-29T13:27:07.999Z</time></trkpt><trkpt lat="45.425153705401065" lon="9.362350745133181"><ele>100.33333333333334</ele><time>2026-03-29T13:27:08.999Z</time></trkpt><trkpt lat="45.42518572006129" lon="9.362461036196397"><ele>100.5</ele><time>2026-03-29T13:27:09.999Z</time></trkpt><trkpt lat="45.425217801058544" lon="9.362560615614084"><ele>100.66666666666666</ele><time>2026-03-29T13:27:10.999Z</time></trkpt><trkpt lat="45.42525826368543" lon="9.362646868449277"><ele>100.83333333333333</ele><time>2026-03-29T13:27:11.999Z</time></trkpt><trkpt lat="45.425288720825826" lon="9.362742690980646"><ele>101.0</ele><time>2026-03-29T13:27:12.999Z</time></trkpt><trkpt lat="45.42531650588904" lon="9.362829629208562"><ele>100.99999999999999</ele><time>2026-03-29T13:27:13.999Z</time></trkpt><trkpt lat="45.425346166215014" lon="9.362921159034503"><ele>101.0</ele><time>2026-03-29T13:27:14.999Z</time></trkpt><trkpt lat="45.42537482591253" lon="9.363018838580288"><ele>101.0</ele><time>2026-03-29T13:27:15.999Z</time></trkpt><trkpt lat="45.42539934618962" lon="9.363115576608728"><ele>101.0</ele><time>2026-03-29T13:27:17Z</time></trkpt><trkpt lat="45.42541480789984" lon="9.363229660856987"><ele>100.99999999999999</ele><time>2026-03-29T13:27:18Z</time></trkpt><trkpt lat="45.425426130721505" lon="9.363357696813704"><ele>101.0</ele><time>2026-03-29T13:27:19Z</time></trkpt><trkpt lat="45.42544018435033" lon="9.363482598694127"><ele>100.83333333333333</ele><time>2026-03-29T13:27:20Z</time></trkpt><trkpt lat="45.42545305163395" lon="9.36361200270555"><ele>100.66666666666666</ele><time>2026-03-29T13:27:21Z</time></trkpt><trkpt lat="45.42546815224443" lon="9.363728874312642"><ele>100.5</ele><time>2026-03-29T13:27:22Z</time></trkpt><trkpt lat="45.42548487423161" lon="9.363831563475491"><ele>100.33333333333334</ele><time>2026-03-29T13:27:23Z</time></trkpt><trkpt lat="45.42550333339906" lon="9.363921782299471"><ele>100.16666666666667</ele><time>2026-03-29T13:27:24Z</time></trkpt><trkpt lat="45.42552243364713" lon="9.364038716623607"><ele>100.0</ele><time>2026-03-29T13:27:26Z</time></trkpt><trkpt lat="45.425427097937764" lon="9.364116263011503"><ele>99.8</ele><time>2026-03-29T13:27:29Z</time></trkpt><trkpt lat="45.42529688174073" lon="9.364145607170565"><ele>99.6</ele><time>2026-03-29T13:27:31Z</time></trkpt><trkpt lat="45.42520998694718" lon="9.36416653832446"><ele>99.4</ele><time>2026-03-29T13:27:32Z</time></trkpt><trkpt lat="45.42511216123348" lon="9.364194280874058"><ele>99.2</ele><time>2026-03-29T13:27:33Z</time></trkpt><trkpt lat="45.42502550905177" lon="9.364223560316779"><ele>99.0</ele><time>2026-03-29T13:27:34Z</time></trkpt><trkpt lat="45.42494224967199" lon="9.36424388257908"><ele>99.0</ele><time>2026-03-29T13:27:35Z</time></trkpt><trkpt lat="45.42486052574341" lon="9.364260342513287"><ele>99.0</ele><time>2026-03-29T13:27:36Z</time></trkpt><trkpt lat="45.424786931179334" lon="9.364281222912172"><ele>99.0</ele><time>2026-03-29T13:27:37Z</time></trkpt><trkpt lat="45.42472023994166" lon="9.364300942705333"><ele>99.0</ele><time>2026-03-29T13:27:38Z</time></trkpt><trkpt lat="45.4246493084532" lon="9.36431727026971"><ele>99.0</ele><time>2026-03-29T13:27:39Z</time></trkpt><trkpt lat="45.42458295429178" lon="9.364333424797593"><ele>99.0</ele><time>2026-03-29T13:27:40Z</time></trkpt><trkpt lat="45.42451927963839" lon="9.364348894019203"><ele>99.0</ele><time>2026-03-29T13:27:41Z</time></trkpt><trkpt lat="45.424393839181064" lon="9.364382034016929"><ele>99.16666666666667</ele><time>2026-03-29T13:27:43Z</time></trkpt><trkpt lat="45.42432563154372" lon="9.364396795969194"><ele>99.33333333333334</ele><time>2026-03-29T13:27:44Z</time></trkpt><trkpt lat="45.42424870832607" lon="9.364412024646256"><ele>99.5</ele><time>2026-03-29T13:27:45Z</time></trkpt><trkpt lat="45.42417130713422" lon="9.36443098049969"><ele>99.66666666666667</ele><time>2026-03-29T13:27:46Z</time></trkpt><trkpt lat="45.42408889280142" lon="9.364455416448807"><ele>99.83333333333334</ele><time>2026-03-29T13:27:47Z</time></trkpt><trkpt lat="45.42400395376121" lon="9.364477494586318"><ele>100.0</ele><time>2026-03-29T13:27:48Z</time></trkpt><trkpt lat="45.423926063408665" lon="9.364499222276395"><ele>100.00000000000001</ele><time>2026-03-29T13:27:49Z</time></trkpt><trkpt lat="45.42385517054451" lon="9.364519267698002"><ele>100.0</ele><time>2026-03-29T13:27:50Z</time></trkpt><trkpt lat="45.42378989557484" lon="9.364533091259576"><ele>100.0</ele><time>2026-03-29T13:27:51Z</time></trkpt><trkpt lat="45.42372080187863" lon="9.36455322476954"><ele>100.0</ele><time>2026-03-29T13:27:52Z</time></trkpt><trkpt lat="45.42365193358262" lon="9.364564104317854"><ele>100.00000000000001</ele><time>2026-03-29T13:27:53Z</time></trkpt><trkpt lat="45.42353112032489" lon="9.364590638812556"><ele>100.0</ele><time>2026-03-29T13:27:55Z</time></trkpt><trkpt lat="45.42341989601487" lon="9.364616495605555"><ele>100.0</ele><time>2026-03-29T13:27:57Z</time></trkpt><trkpt lat="45.42331878769869" lon="9.364647641183819"><ele>100.0</ele><time>2026-03-29T13:27:59Z</time></trkpt><trkpt lat="45.42320777398409" lon="9.364675243461294"><ele>100.0</ele><time>2026-03-29T13:28:01Z</time></trkpt><trkpt lat="45.423112715489864" lon="9.364698543021163"><ele>100.0</ele><time>2026-03-29T13:28:03Z</time></trkpt><trkpt lat="45.42302593812349" lon="9.364726809804854"><ele>100.0</ele><time>2026-03-29T13:28:05Z</time></trkpt><trkpt lat="45.42294950191047" lon="9.364749700693913"><ele>99.6</ele><time>2026-03-29T13:28:07Z</time></trkpt><trkpt lat="45.42288297897049" lon="9.364763341582877"><ele>99.2</ele><time>2026-03-29T13:28:10Z</time></trkpt><trkpt lat="45.422820587549786" lon="9.36475005784613"><ele>98.80000000000001</ele><time>2026-03-29T13:28:33Z</time></trkpt><trkpt lat="45.42281784064407" lon="9.364509261958908"><ele>98.4</ele><time>2026-03-29T13:28:37Z</time></trkpt><trkpt lat="45.422797061053764" lon="9.364410767559376"><ele>98.0</ele><time>2026-03-29T13:28:38Z</time></trkpt><trkpt lat="45.42278881894873" lon="9.364243200217393"><ele>98.0</ele><time>2026-03-29T13:28:40Z</time></trkpt><trkpt lat="45.42277430723327" lon="9.364155720630212"><ele>98.0</ele><time>2026-03-29T13:28:41Z</time></trkpt><trkpt lat="45.422757207153204" lon="9.364063357205648"><ele>98.0</ele><time>2026-03-29T13:28:42Z</time></trkpt><trkpt lat="45.422731202462714" lon="9.363886133293224"><ele>98.0</ele><time>2026-03-29T13:28:44Z</time></trkpt><trkpt lat="45.42271216031489" lon="9.363716171496703"><ele>98.0</ele><time>2026-03-29T13:28:46Z</time></trkpt><trkpt lat="45.42269296075945" lon="9.363552068371757"><ele>98.25</ele><time>2026-03-29T13:28:48Z</time></trkpt><trkpt lat="45.42267634479582" lon="9.363382365605482"><ele>98.5</ele><time>2026-03-29T13:28:50Z</time></trkpt><trkpt lat="45.42265381212772" lon="9.363212012455152"><ele>98.75</ele><time>2026-03-29T13:28:52Z</time></trkpt><trkpt lat="45.42262999515851" lon="9.363047856468864"><ele>99.0</ele><time>2026-03-29T13:28:54Z</time></trkpt><trkpt lat="45.4226057205763" lon="9.362882422224265"><ele>98.6</ele><time>2026-03-29T13:28:56Z</time></trkpt><trkpt lat="45.422461350424456" lon="9.362831884113497"><ele>98.2</ele><time>2026-03-29T13:28:57Z</time></trkpt><trkpt lat="45.42244838850454" lon="9.362728567318637"><ele>97.8</ele><time>2026-03-29T13:28:58Z</time></trkpt><trkpt lat="45.42243266662638" lon="9.362603889147135"><ele>97.39999999999999</ele><time>2026-03-29T13:29:00.999Z</time></trkpt><trkpt lat="45.42251215196058" lon="9.362608117714219"><ele>97.0</ele><time>2026-03-29T13:29:05Z</time></trkpt><trkpt lat="45.422544585999574" lon="9.362691236543577"><ele>97.00000000000001</ele><time>2026-03-29T13:29:07Z</time></trkpt><trkpt lat="45.422577671073334" lon="9.362828421675207"><ele>97.0</ele><time>2026-03-29T13:29:09Z</time></trkpt><trkpt lat="45.4225952337254" lon="9.362965373623702"><ele>97.0</ele><time>2026-03-29T13:29:10Z</time></trkpt><trkpt lat="45.42260873019215" lon="9.363082554745086"><ele>97.0</ele><time>2026-03-29T13:29:11Z</time></trkpt><trkpt lat="45.422621014041944" lon="9.363183357581782"><ele>97.00000000000001</ele><time>2026-03-29T13:29:12Z</time></trkpt><trkpt lat="45.42263202573859" lon="9.363272662076978"><ele>97.0</ele><time>2026-03-29T13:29:13Z</time></trkpt><trkpt lat="45.422647161303374" lon="9.363395411962177"><ele>97.19999999999999</ele><time>2026-03-29T13:29:15Z</time></trkpt><trkpt lat="45.42265838200117" lon="9.36354288002935"><ele>97.4</ele><time>2026-03-29T13:29:18Z</time></trkpt><trkpt lat="45.42267230939812" lon="9.363649534326148"><ele>97.6</ele><time>2026-03-29T13:29:19Z</time></trkpt><trkpt lat="45.42270076377309" lon="9.363779517862149"><ele>97.80000000000001</ele><time>2026-03-29T13:29:20Z</time></trkpt><trkpt lat="45.42271416093836" lon="9.363939991090136"><ele>98.0</ele><time>2026-03-29T13:29:21Z</time></trkpt><trkpt lat="45.42274182403449" lon="9.364092065384733"><ele>97.99999999999999</ele><time>2026-03-29T13:29:22Z</time></trkpt><trkpt lat="45.422763799006745" lon="9.364255598430272"><ele>98.0</ele><time>2026-03-29T13:29:23Z</time></trkpt><trkpt lat="45.422782279635435" lon="9.364398552993439"><ele>98.0</ele><time>2026-03-29T13:29:24Z</time></trkpt><trkpt lat="45.42279560851724" lon="9.364519166235187"><ele>98.0</ele><time>2026-03-29T13:29:25Z</time></trkpt><trkpt lat="45.422808824541235" lon="9.36462433174098"><ele>97.99999999999999</ele><time>2026-03-29T13:29:26Z</time></trkpt><trkpt lat="45.42282130417724" lon="9.36471589637452"><ele>98.0</ele><time>2026-03-29T13:29:27Z</time></trkpt><trkpt lat="45.42283509770122" lon="9.36486892920269"><ele>97.99999999999999</ele><time>2026-03-29T13:29:29Z</time></trkpt><trkpt lat="45.42285974614002" lon="9.365054823928482"><ele>98.0</ele><time>2026-03-29T13:29:31Z</time></trkpt><trkpt lat="45.422874021381965" lon="9.365153608093044"><ele>98.0</ele><time>2026-03-29T13:29:32Z</time></trkpt><trkpt lat="45.42288768826596" lon="9.36524644927098"><ele>98.0</ele><time>2026-03-29T13:29:33Z</time></trkpt><trkpt lat="45.42290493855834" lon="9.36533970436917"><ele>97.99999999999999</ele><time>2026-03-29T13:29:34Z</time></trkpt><trkpt lat="45.422917679582014" lon="9.365434853189027"><ele>98.0</ele><time>2026-03-29T13:29:35Z</time></trkpt><trkpt lat="45.42292978171098" lon="9.365529922822896"><ele>98.33333333333333</ele><time>2026-03-29T13:29:36Z</time></trkpt><trkpt lat="45.42293910862444" lon="9.365620508196136"><ele>98.66666666666666</ele><time>2026-03-29T13:29:37Z</time></trkpt><trkpt lat="45.42292687774103" lon="9.365757530597627"><ele>99.0</ele><time>2026-03-29T13:29:39Z</time></trkpt><trkpt lat="45.422958981390146" lon="9.365882130323445"><ele>99.33333333333334</ele><time>2026-03-29T13:29:41Z</time></trkpt><trkpt lat="45.42297975707078" lon="9.366050399349906"><ele>99.66666666666667</ele><time>2026-03-29T13:29:43Z</time></trkpt><trkpt lat="45.42298767470473" lon="9.366144118678749"><ele>100.0</ele><time>2026-03-29T13:29:44Z</time></trkpt><trkpt lat="45.423000508790324" lon="9.366248559948794"><ele>99.66666666666667</ele><time>2026-03-29T13:29:45Z</time></trkpt><trkpt lat="45.42302218663376" lon="9.36635389355345"><ele>99.33333333333334</ele><time>2026-03-29T13:29:46Z</time></trkpt><trkpt lat="45.42304398480894" lon="9.36647056220243"><ele>99.0</ele><time>2026-03-29T13:29:47Z</time></trkpt><trkpt lat="45.42305919972384" lon="9.366591241648546"><ele>98.66666666666666</ele><time>2026-03-29T13:29:48Z</time></trkpt><trkpt lat="45.4230565770099" lon="9.366709433306044"><ele>98.33333333333333</ele><time>2026-03-29T13:29:49Z</time></trkpt><trkpt lat="45.423058352435035" lon="9.366827138904366"><ele>98.0</ele><time>2026-03-29T13:29:50Z</time></trkpt><trkpt lat="45.423085481103115" lon="9.367001231726528"><ele>98.0</ele><time>2026-03-29T13:29:51Z</time></trkpt><trkpt lat="45.42310020753963" lon="9.367186294519968"><ele>98.0</ele><time>2026-03-29T13:29:52Z</time></trkpt><trkpt lat="45.42313313151898" lon="9.367372552437287"><ele>98.0</ele><time>2026-03-29T13:29:53Z</time></trkpt><trkpt lat="45.423165636239524" lon="9.36756686660954"><ele>98.0</ele><time>2026-03-29T13:29:54Z</time></trkpt><trkpt lat="45.42319220121833" lon="9.36774976197703"><ele>98.2</ele><time>2026-03-29T13:29:55Z</time></trkpt><trkpt lat="45.42321395109096" lon="9.367913560904531"><ele>98.4</ele><time>2026-03-29T13:29:56Z</time></trkpt><trkpt lat="45.42323412578765" lon="9.368065047828546"><ele>98.60000000000001</ele><time>2026-03-29T13:29:57Z</time></trkpt><trkpt lat="45.42324964998361" lon="9.368203706175404"><ele>98.80000000000001</ele><time>2026-03-29T13:29:58Z</time></trkpt><trkpt lat="45.423265036484345" lon="9.368333887254579"><ele>99.0</ele><time>2026-03-29T13:29:59Z</time></trkpt><trkpt lat="45.42327997152798" lon="9.368464923211882"><ele>99.0</ele><time>2026-03-29T13:30:00Z</time></trkpt><trkpt lat="45.42329813922639" lon="9.368603014236967"><ele>99.0</ele><time>2026-03-29T13:30:01Z</time></trkpt><trkpt lat="45.42331488674323" lon="9.368736120762554"><ele>99.0</ele><time>2026-03-29T13:30:02Z</time></trkpt><trkpt lat="45.42332535838477" lon="9.368871296703576"><ele>99.0</ele><time>2026-03-29T13:30:03Z</time></trkpt><trkpt lat="45.42334200842746" lon="9.36900354165572"><ele>99.0</ele><time>2026-03-29T13:30:04Z</time></trkpt><trkpt lat="45.42334943837264" lon="9.369142266705358"><ele>99.0</ele><time>2026-03-29T13:30:05Z</time></trkpt><trkpt lat="45.42332379907331" lon="9.36927507137658"><ele>99.0</ele><time>2026-03-29T13:30:06Z</time></trkpt><trkpt lat="45.42328490634327" lon="9.369392726845481"><ele>99.0</ele><time>2026-03-29T13:30:07Z</time></trkpt><trkpt lat="45.423231887859465" lon="9.369493733720129"><ele>99.0</ele><time>2026-03-29T13:30:08Z</time></trkpt><trkpt lat="45.42318327161365" lon="9.369579892912421"><ele>99.0</ele><time>2026-03-29T13:30:09Z</time></trkpt><trkpt lat="45.423140917039724" lon="9.369646313278391"><ele>99.0</ele><time>2026-03-29T13:30:10Z</time></trkpt><trkpt lat="45.423094354439165" lon="9.369764728033882"><ele>99.0</ele><time>2026-03-29T13:30:12Z</time></trkpt><trkpt lat="45.42291981518848" lon="9.369719458018281"><ele>99.0</ele><time>2026-03-29T13:30:15Z</time></trkpt><trkpt lat="45.422852222243776" lon="9.369662787939994"><ele>99.0</ele><time>2026-03-29T13:30:16Z</time></trkpt><trkpt lat="45.42276670806759" lon="9.369589445382536"><ele>99.0</ele><time>2026-03-29T13:30:17Z</time></trkpt><trkpt lat="45.42267456537383" lon="9.369511586193138"><ele>99.0</ele><time>2026-03-29T13:30:18Z</time></trkpt><trkpt lat="45.42258039581872" lon="9.369427618127052"><ele>99.0</ele><time>2026-03-29T13:30:19Z</time></trkpt><trkpt lat="45.4224810796735" lon="9.369340432522993"><ele>99.0</ele><time>2026-03-29T13:30:20Z</time></trkpt><trkpt lat="45.42237817451026" lon="9.369246095820799"><ele>99.0</ele><time>2026-03-29T13:30:21Z</time></trkpt><trkpt lat="45.422081047495936" lon="9.368994593362281"><ele>98.66666666666666</ele><time>2026-03-29T13:30:24Z</time></trkpt><trkpt lat="45.42192843475545" lon="9.368843266746936"><ele>98.33333333333333</ele><time>2026-03-29T13:30:25Z</time></trkpt><trkpt lat="45.42180496067059" lon="9.368735103363697"><ele>98.0</ele><time>2026-03-29T13:30:26Z</time></trkpt><trkpt lat="45.42167967168838" lon="9.368625874759466"><ele>98.0</ele><time>2026-03-29T13:30:27Z</time></trkpt><trkpt lat="45.421546756856664" lon="9.36851409161913"><ele>98.0</ele><time>2026-03-29T13:30:28Z</time></trkpt><trkpt lat="45.421418564272386" lon="9.368399513064835"><ele>98.0</ele><time>2026-03-29T13:30:29Z</time></trkpt><trkpt lat="45.421292162430504" lon="9.368290868650867"><ele>98.0</ele><time>2026-03-29T13:30:30Z</time></trkpt><trkpt lat="45.42116200928522" lon="9.36818195450934"><ele>98.0</ele><time>2026-03-29T13:30:31Z</time></trkpt><trkpt lat="45.42103080829622" lon="9.368075753441579"><ele>98.0</ele><time>2026-03-29T13:30:32Z</time></trkpt><trkpt lat="45.42090096269074" lon="9.367964907667172"><ele>98.0</ele><time>2026-03-29T13:30:33Z</time></trkpt><trkpt lat="45.42076697046829" lon="9.367856146180081"><ele>98.0</ele><time>2026-03-29T13:30:34Z</time></trkpt><trkpt lat="45.42063582015974" lon="9.367743202472594"><ele>98.0</ele><time>2026-03-29T13:30:35Z</time></trkpt><trkpt lat="45.420507418264734" lon="9.367627514788474"><ele>98.0</ele><time>2026-03-29T13:30:36Z</time></trkpt><trkpt lat="45.42037377545063" lon="9.367513466839586"><ele>98.0</ele><time>2026-03-29T13:30:37Z</time></trkpt><trkpt lat="45.42024326706221" lon="9.367406052921853"><ele>98.0</ele><time>2026-03-29T13:30:38Z</time></trkpt><trkpt lat="45.420123955131196" lon="9.367305189586345"><ele>98.0</ele><time>2026-03-29T13:30:39Z</time></trkpt><trkpt lat="45.420009957692194" lon="9.3672132727685"><ele>98.25</ele><time>2026-03-29T13:30:40Z</time></trkpt><trkpt lat="45.41989364385964" lon="9.3671316425304"><ele>98.5</ele><time>2026-03-29T13:30:41Z</time></trkpt><trkpt lat="45.41978257491639" lon="9.367075174898451"><ele>98.75</ele><time>2026-03-29T13:30:42Z</time></trkpt><trkpt lat="45.41967319140703" lon="9.36702534145213"><ele>99.0</ele><time>2026-03-29T13:30:43Z</time></trkpt><trkpt lat="45.41957284536832" lon="9.366952439816604"><ele>99.0</ele><time>2026-03-29T13:30:44Z</time></trkpt><trkpt lat="45.41948070227356" lon="9.36684303014284"><ele>99.0</ele><time>2026-03-29T13:30:45Z</time></trkpt><trkpt lat="45.419378744934946" lon="9.366747566454825"><ele>99.0</ele><time>2026-03-29T13:30:46Z</time></trkpt><trkpt lat="45.41926517965098" lon="9.366668915510076"><ele>99.0</ele><time>2026-03-29T13:30:47Z</time></trkpt><trkpt lat="45.419160448132175" lon="9.36656260183274"><ele>99.0</ele><time>2026-03-29T13:30:48Z</time></trkpt><trkpt lat="45.41905931779011" lon="9.366434492032544"><ele>99.0</ele><time>2026-03-29T13:30:49Z</time></trkpt><trkpt lat="45.41895455806283" lon="9.36630809083035"><ele>99.0</ele><time>2026-03-29T13:30:50Z</time></trkpt><trkpt lat="45.4188436727144" lon="9.366198068696246"><ele>99.0</ele><time>2026-03-29T13:30:51Z</time></trkpt><trkpt lat="45.41872750423199" lon="9.366100678210236"><ele>98.75</ele><time>2026-03-29T13:30:52Z</time></trkpt><trkpt lat="45.41861176099869" lon="9.366006027777052"><ele>98.5</ele><time>2026-03-29T13:30:53Z</time></trkpt><trkpt lat="45.418498981944474" lon="9.365910850825342"><ele>98.25</ele><time>2026-03-29T13:30:54Z</time></trkpt><trkpt lat="45.41838731325773" lon="9.365813869572882"><ele>98.0</ele><time>2026-03-29T13:30:55Z</time></trkpt><trkpt lat="45.418280779504094" lon="9.365718972663515"><ele>98.0</ele><time>2026-03-29T13:30:56Z</time></trkpt><trkpt lat="45.41817046461374" lon="9.365620633536274"><ele>98.0</ele><time>2026-03-29T13:30:57Z</time></trkpt><trkpt lat="45.418055537713826" lon="9.365519848431441"><ele>98.0</ele><time>2026-03-29T13:30:58Z</time></trkpt><trkpt lat="45.417941553440706" lon="9.3654156169933"><ele>98.0</ele><time>2026-03-29T13:30:59Z</time></trkpt><trkpt lat="45.41782453888906" lon="9.365308440356777"><ele>97.5</ele><time>2026-03-29T13:31:00Z</time></trkpt><trkpt lat="45.417705148423074" lon="9.365204450041977"><ele>97.0</ele><time>2026-03-29T13:31:01Z</time></trkpt><trkpt lat="45.41758495501292" lon="9.365104306324717"><ele>96.5</ele><time>2026-03-29T13:31:02Z</time></trkpt><trkpt lat="45.417467248563376" lon="9.364999047005892"><ele>96.0</ele><time>2026-03-29T13:31:03Z</time></trkpt><trkpt lat="45.41734308132844" lon="9.364892922956228"><ele>96.0</ele><time>2026-03-29T13:31:04Z</time></trkpt><trkpt lat="45.41721914717252" lon="9.364783019231659"><ele>96.0</ele><time>2026-03-29T13:31:05Z</time></trkpt><trkpt lat="45.41709438269421" lon="9.364669565104103"><ele>96.0</ele><time>2026-03-29T13:31:06Z</time></trkpt><trkpt lat="45.416971465899124" lon="9.36455279700825"><ele>96.0</ele><time>2026-03-29T13:31:07Z</time></trkpt><trkpt lat="45.416842694840824" lon="9.364435225433956"><ele>96.0</ele><time>2026-03-29T13:31:08Z</time></trkpt><trkpt lat="45.41671245268563" lon="9.364321854822439"><ele>96.0</ele><time>2026-03-29T13:31:09Z</time></trkpt><trkpt lat="45.41657905618294" lon="9.36420036273934"><ele>96.0</ele><time>2026-03-29T13:31:10Z</time></trkpt><trkpt lat="45.41644346067258" lon="9.3640864986915"><ele>96.33333333333334</ele><time>2026-03-29T13:31:11Z</time></trkpt><trkpt lat="45.416306773453144" lon="9.36396274050764"><ele>96.66666666666667</ele><time>2026-03-29T13:31:12Z</time></trkpt><trkpt lat="45.41617522672334" lon="9.363848993513695"><ele>97.0</ele><time>2026-03-29T13:31:13Z</time></trkpt><trkpt lat="45.41603175871547" lon="9.363730012488498"><ele>97.0</ele><time>2026-03-29T13:31:14Z</time></trkpt><trkpt lat="45.415892983437445" lon="9.363599608662787"><ele>97.0</ele><time>2026-03-29T13:31:15Z</time></trkpt><trkpt lat="45.415747409727174" lon="9.363475136552127"><ele>97.0</ele><time>2026-03-29T13:31:16Z</time></trkpt><trkpt lat="45.41560963528629" lon="9.36335571580635"><ele>97.0</ele><time>2026-03-29T13:31:17Z</time></trkpt><trkpt lat="45.415472272703454" lon="9.36323017821658"><ele>97.0</ele><time>2026-03-29T13:31:18Z</time></trkpt><trkpt lat="45.41533200046919" lon="9.363101083151104"><ele>97.0</ele><time>2026-03-29T13:31:19Z</time></trkpt><trkpt lat="45.41519766006647" lon="9.362980932842564"><ele>97.33333333333334</ele><time>2026-03-29T13:31:20Z</time></trkpt><trkpt lat="45.41505913079226" lon="9.3628573288748"><ele>97.66666666666666</ele><time>2026-03-29T13:31:21Z</time></trkpt><trkpt lat="45.41492438839494" lon="9.362735245212008"><ele>98.0</ele><time>2026-03-29T13:31:22Z</time></trkpt><trkpt lat="45.41478968906211" lon="9.362618203480315"><ele>98.0</ele><time>2026-03-29T13:31:23Z</time></trkpt><trkpt lat="45.414660201070625" lon="9.362499122366328"><ele>98.0</ele><time>2026-03-29T13:31:24Z</time></trkpt><trkpt lat="45.41452780132533" lon="9.362384112052103"><ele>98.0</ele><time>2026-03-29T13:31:25Z</time></trkpt><trkpt lat="45.41439938534031" lon="9.362272656933124"><ele>97.75</ele><time>2026-03-29T13:31:26Z</time></trkpt><trkpt lat="45.414273183811595" lon="9.362160036770495"><ele>97.5</ele><time>2026-03-29T13:31:27Z</time></trkpt><trkpt lat="45.414147837163384" lon="9.362057953676642"><ele>97.25</ele><time>2026-03-29T13:31:28Z</time></trkpt><trkpt lat="45.41402719002046" lon="9.361947032483878"><ele>97.0</ele><time>2026-03-29T13:31:29Z</time></trkpt><trkpt lat="45.413907439382534" lon="9.361836497888099"><ele>97.0</ele><time>2026-03-29T13:31:30Z</time></trkpt><trkpt lat="45.4137878291683" lon="9.361729418499118"><ele>97.0</ele><time>2026-03-29T13:31:31Z</time></trkpt><trkpt lat="45.41366949986336" lon="9.361621882915076"><ele>97.0</ele><time>2026-03-29T13:31:32Z</time></trkpt><trkpt lat="45.41354683937628" lon="9.361512152386883"><ele>97.0</ele><time>2026-03-29T13:31:33Z</time></trkpt><trkpt lat="45.413423928382954" lon="9.361403847501292"><ele>97.0</ele><time>2026-03-29T13:31:34Z</time></trkpt><trkpt lat="45.41329970864853" lon="9.36129191339642"><ele>97.0</ele><time>2026-03-29T13:31:35Z</time></trkpt><trkpt lat="45.413179846422736" lon="9.361181082004991"><ele>97.0</ele><time>2026-03-29T13:31:36Z</time></trkpt><trkpt lat="45.41305849955144" lon="9.361069414225584"><ele>97.0</ele><time>2026-03-29T13:31:37Z</time></trkpt><trkpt lat="45.41293207006762" lon="9.36095791645251"><ele>97.0</ele><time>2026-03-29T13:31:38Z</time></trkpt><trkpt lat="45.41281038132689" lon="9.360850262708773"><ele>97.0</ele><time>2026-03-29T13:31:39Z</time></trkpt><trkpt lat="45.412689391510575" lon="9.360741210190241"><ele>97.0</ele><time>2026-03-29T13:31:40Z</time></trkpt><trkpt lat="45.41256574093288" lon="9.36063473252623"><ele>97.0</ele><time>2026-03-29T13:31:41Z</time></trkpt><trkpt lat="45.412443828960996" lon="9.360527337505728"><ele>97.0</ele><time>2026-03-29T13:31:42Z</time></trkpt><trkpt lat="45.412320658137" lon="9.360420417636325"><ele>97.0</ele><time>2026-03-29T13:31:43Z</time></trkpt><trkpt lat="45.41219971122107" lon="9.360310982458746"><ele>97.0</ele><time>2026-03-29T13:31:44Z</time></trkpt><trkpt lat="45.4120737164924" lon="9.360205115379115"><ele>97.0</ele><time>2026-03-29T13:31:45Z</time></trkpt><trkpt lat="45.41194618110515" lon="9.36009169290284"><ele>96.66666666666667</ele><time>2026-03-29T13:31:46Z</time></trkpt><trkpt lat="45.41181672904752" lon="9.35997888351681"><ele>96.33333333333334</ele><time>2026-03-29T13:31:47Z</time></trkpt><trkpt lat="45.411688603415385" lon="9.359871643798032"><ele>96.0</ele><time>2026-03-29T13:31:48Z</time></trkpt><trkpt lat="45.411555343006725" lon="9.359762989046079"><ele>96.0</ele><time>2026-03-29T13:31:49Z</time></trkpt><trkpt lat="45.41142698925335" lon="9.35965290084302"><ele>96.0</ele><time>2026-03-29T13:31:50Z</time></trkpt><trkpt lat="45.41130280515691" lon="9.359548099819076"><ele>96.0</ele><time>2026-03-29T13:31:51Z</time></trkpt><trkpt lat="45.41118178222887" lon="9.359444008449186"><ele>96.0</ele><time>2026-03-29T13:31:52Z</time></trkpt><trkpt lat="45.411059183164696" lon="9.359338722616892"><ele>96.0</ele><time>2026-03-29T13:31:53Z</time></trkpt><trkpt lat="45.41094509995504" lon="9.359232292732202"><ele>96.0</ele><time>2026-03-29T13:31:54Z</time></trkpt><trkpt lat="45.41083158337809" lon="9.359132399180579"><ele>96.0</ele><time>2026-03-29T13:31:55Z</time></trkpt><trkpt lat="45.410719452754684" lon="9.35903677372923"><ele>96.0</ele><time>2026-03-29T13:31:56Z</time></trkpt><trkpt lat="45.41060713835344" lon="9.358949209398546"><ele>96.0</ele><time>2026-03-29T13:31:57Z</time></trkpt><trkpt lat="45.41049976233233" lon="9.358869356057683"><ele>96.0</ele><time>2026-03-29T13:31:58Z</time></trkpt><trkpt lat="45.41040528887471" lon="9.358810180030563"><ele>96.0</ele><time>2026-03-29T13:31:59Z</time></trkpt><trkpt lat="45.410323427418334" lon="9.358769605378614"><ele>96.0</ele><time>2026-03-29T13:32:00Z</time></trkpt><trkpt lat="45.41025159539784" lon="9.358716090242256"><ele>96.0</ele><time>2026-03-29T13:32:01Z</time></trkpt><trkpt lat="45.410191226564976" lon="9.35868742637613"><ele>96.19999999999999</ele><time>2026-03-29T13:32:02Z</time></trkpt><trkpt lat="45.41009279787492" lon="9.358875203182318"><ele>96.39999999999999</ele><time>2026-03-29T13:32:03Z</time></trkpt><trkpt lat="45.41002826645097" lon="9.35891582646001"><ele>96.6</ele><time>2026-03-29T13:32:04Z</time></trkpt><trkpt lat="45.409945925435835" lon="9.358967479076101"><ele>96.8</ele><time>2026-03-29T13:32:05Z</time></trkpt><trkpt lat="45.40985476406705" lon="9.359019927999805"><ele>97.0</ele><time>2026-03-29T13:32:06Z</time></trkpt><trkpt lat="45.409748225147226" lon="9.359067969164585"><ele>97.0</ele><time>2026-03-29T13:32:07Z</time></trkpt><trkpt lat="45.40963849536097" lon="9.359128469783057"><ele>97.0</ele><time>2026-03-29T13:32:08Z</time></trkpt><trkpt lat="45.40951938756727" lon="9.359183047299831"><ele>97.0</ele><time>2026-03-29T13:32:09Z</time></trkpt><trkpt lat="45.40939047725193" lon="9.359241753577644"><ele>97.0</ele><time>2026-03-29T13:32:10Z</time></trkpt><trkpt lat="45.409257414196546" lon="9.359301837380212"><ele>97.0</ele><time>2026-03-29T13:32:11Z</time></trkpt><trkpt lat="45.40912778017436" lon="9.359363130558862"><ele>97.0</ele><time>2026-03-29T13:32:12Z</time></trkpt><trkpt lat="45.40899578711831" lon="9.359424596726294"><ele>97.0</ele><time>2026-03-29T13:32:13Z</time></trkpt><trkpt lat="45.40887248157484" lon="9.359476349842325"><ele>97.0</ele><time>2026-03-29T13:32:14Z</time></trkpt><trkpt lat="45.408752622597" lon="9.359532359035134"><ele>97.0</ele><time>2026-03-29T13:32:15Z</time></trkpt><trkpt lat="45.40863066580581" lon="9.359603714392389"><ele>97.0</ele><time>2026-03-29T13:32:16Z</time></trkpt><trkpt lat="45.40852186271252" lon="9.359697082506909"><ele>97.0</ele><time>2026-03-29T13:32:17Z</time></trkpt><trkpt lat="45.40841716762682" lon="9.359792311620792"><ele>97.0</ele><time>2026-03-29T13:32:18Z</time></trkpt><trkpt lat="45.408288834246235" lon="9.359839646571666"><ele>97.25</ele><time>2026-03-29T13:32:19Z</time></trkpt><trkpt lat="45.40816503850648" lon="9.359918234306088"><ele>97.5</ele><time>2026-03-29T13:32:20Z</time></trkpt><trkpt lat="45.40803090174383" lon="9.359978789820778"><ele>97.75</ele><time>2026-03-29T13:32:21Z</time></trkpt><trkpt lat="45.40789593802394" lon="9.36003490480646"><ele>98.0</ele><time>2026-03-29T13:32:22Z</time></trkpt><trkpt lat="45.407762934889405" lon="9.36009993159172"><ele>97.25</ele><time>2026-03-29T13:32:23Z</time></trkpt><trkpt lat="45.40762062532641" lon="9.360167258559082"><ele>96.5</ele><time>2026-03-29T13:32:24Z</time></trkpt><trkpt lat="45.40747843274107" lon="9.360235143830463"><ele>95.75</ele><time>2026-03-29T13:32:25Z</time></trkpt><trkpt lat="45.407335392427775" lon="9.36029744042142"><ele>95.0</ele><time>2026-03-29T13:32:26Z</time></trkpt><trkpt lat="45.40719080081579" lon="9.360367573237516"><ele>95.25</ele><time>2026-03-29T13:32:27Z</time></trkpt><trkpt lat="45.4070501780089" lon="9.360425861891468"><ele>95.5</ele><time>2026-03-29T13:32:28Z</time></trkpt><trkpt lat="45.40690849207266" lon="9.360508902201532"><ele>95.75</ele><time>2026-03-29T13:32:29Z</time></trkpt><trkpt lat="45.406785027854156" lon="9.360556078949918"><ele>96.0</ele><time>2026-03-29T13:32:30Z</time></trkpt><trkpt lat="45.40664895395853" lon="9.360618032149578"><ele>96.25</ele><time>2026-03-29T13:32:31Z</time></trkpt><trkpt lat="45.40651219353134" lon="9.360681330127191"><ele>96.5</ele><time>2026-03-29T13:32:32Z</time></trkpt><trkpt lat="45.40638681207029" lon="9.360738750734434"><ele>96.75</ele><time>2026-03-29T13:32:33Z</time></trkpt><trkpt lat="45.40626886034972" lon="9.360794324037244"><ele>97.0</ele><time>2026-03-29T13:32:34Z</time></trkpt><trkpt lat="45.40615530063641" lon="9.36085062984177"><ele>97.0</ele><time>2026-03-29T13:32:35Z</time></trkpt><trkpt lat="45.40604377172659" lon="9.360907471642788"><ele>97.0</ele><time>2026-03-29T13:32:36.001Z</time></trkpt><trkpt lat="45.40594344653079" lon="9.360951466162572"><ele>97.0</ele><time>2026-03-29T13:32:37.001Z</time></trkpt><trkpt lat="45.405865897671205" lon="9.360984810915044"><ele>97.0</ele><time>2026-03-29T13:32:38.001Z</time></trkpt><trkpt lat="45.40578245387117" lon="9.361014856827214"><ele>97.0</ele><time>2026-03-29T13:32:39.001Z</time></trkpt><trkpt lat="45.40569700401477" lon="9.361043210050076"><ele>97.00000000000001</ele><time>2026-03-29T13:32:40.001Z</time></trkpt><trkpt lat="45.40556512605004" lon="9.361060129847557"><ele>97.0</ele><time>2026-03-29T13:32:42.001Z</time></trkpt><trkpt lat="45.40548859319198" lon="9.361106811379754"><ele>97.0</ele><time>2026-03-29T13:32:43.001Z</time></trkpt><trkpt lat="45.4054203125529" lon="9.361118897936224"><ele>97.0</ele><time>2026-03-29T13:32:44.001Z</time></trkpt><trkpt lat="45.405343925720494" lon="9.36114102250936"><ele>97.00000000000001</ele><time>2026-03-29T13:32:45.001Z</time></trkpt><trkpt lat="45.40526493581441" lon="9.361170419826282"><ele>97.0</ele><time>2026-03-29T13:32:46.001Z</time></trkpt><trkpt lat="45.40520053388362" lon="9.361222370150836"><ele>97.16666666666667</ele><time>2026-03-29T13:32:47.001Z</time></trkpt><trkpt lat="45.40511659634726" lon="9.361258051721151"><ele>97.33333333333334</ele><time>2026-03-29T13:32:48.001Z</time></trkpt><trkpt lat="45.40504446835708" lon="9.36129993345908"><ele>97.5</ele><time>2026-03-29T13:32:49.001Z</time></trkpt><trkpt lat="45.404962803148635" lon="9.361331641189786"><ele>97.66666666666666</ele><time>2026-03-29T13:32:50.001Z</time></trkpt><trkpt lat="45.40488096060466" lon="9.361376855096147"><ele>97.83333333333333</ele><time>2026-03-29T13:32:51.001Z</time></trkpt><trkpt lat="45.4048013710064" lon="9.361422267068376"><ele>98.0</ele><time>2026-03-29T13:32:52.001Z</time></trkpt><trkpt lat="45.40471608723231" lon="9.361464900657916"><ele>97.83333333333333</ele><time>2026-03-29T13:32:53.001Z</time></trkpt><trkpt lat="45.40463390149174" lon="9.361495261328226"><ele>97.66666666666666</ele><time>2026-03-29T13:32:54.001Z</time></trkpt><trkpt lat="45.40454306909381" lon="9.361520959449118"><ele>97.5</ele><time>2026-03-29T13:32:55.001Z</time></trkpt><trkpt lat="45.404451931623065" lon="9.361544275458643"><ele>97.33333333333334</ele><time>2026-03-29T13:32:56.001Z</time></trkpt><trkpt lat="45.40436277526969" lon="9.361571273819688"><ele>97.16666666666667</ele><time>2026-03-29T13:32:57.001Z</time></trkpt><trkpt lat="45.40428321630821" lon="9.361613101982927"><ele>97.0</ele><time>2026-03-29T13:32:58.001Z</time></trkpt><trkpt lat="45.40420666957698" lon="9.361633728873459"><ele>97.0</ele><time>2026-03-29T13:32:59.001Z</time></trkpt><trkpt lat="45.40413542280071" lon="9.36166573211616"><ele>97.0</ele><time>2026-03-29T13:33:00.001Z</time></trkpt><trkpt lat="45.40406267572202" lon="9.361695057419938"><ele>97.0</ele><time>2026-03-29T13:33:01.001Z</time></trkpt><trkpt lat="45.403995638944025" lon="9.36172609093462"><ele>97.0</ele><time>2026-03-29T13:33:02.001Z</time></trkpt><trkpt lat="45.40393409175843" lon="9.361755517677521"><ele>97.0</ele><time>2026-03-29T13:33:03.001Z</time></trkpt><trkpt lat="45.40387017767482" lon="9.36176565737216"><ele>97.0</ele><time>2026-03-29T13:33:04.001Z</time></trkpt><trkpt lat="45.40379918570612" lon="9.361767204469688"><ele>97.0</ele><time>2026-03-29T13:33:05.001Z</time></trkpt><trkpt lat="45.40367708909565" lon="9.361740391024593"><ele>96.16666666666667</ele><time>2026-03-29T13:33:07.001Z</time></trkpt><trkpt lat="45.403606647830664" lon="9.361713828404612"><ele>95.33333333333334</ele><time>2026-03-29T13:33:08.001Z</time></trkpt><trkpt lat="45.403538108940786" lon="9.361671169526725"><ele>94.5</ele><time>2026-03-29T13:33:09.001Z</time></trkpt><trkpt lat="45.40346561615007" lon="9.361611470199243"><ele>93.66666666666667</ele><time>2026-03-29T13:33:10.001Z</time></trkpt><trkpt lat="45.403379722083194" lon="9.361557259502028"><ele>92.83333333333334</ele><time>2026-03-29T13:33:11.001Z</time></trkpt><trkpt lat="45.40331237650869" lon="9.361528844973668"><ele>92.0</ele><time>2026-03-29T13:33:12.001Z</time></trkpt><trkpt lat="45.403212577563984" lon="9.3614459796738"><ele>92.0</ele><time>2026-03-29T13:33:13Z</time></trkpt><trkpt lat="45.403108916655604" lon="9.3613556356711"><ele>92.0</ele><time>2026-03-29T13:33:14Z</time></trkpt><trkpt lat="45.40302299326686" lon="9.361234950653898"><ele>92.0</ele><time>2026-03-29T13:33:15Z</time></trkpt><trkpt lat="45.40293415330703" lon="9.361144458127677"><ele>92.0</ele><time>2026-03-29T13:33:16Z</time></trkpt><trkpt lat="45.40287280760265" lon="9.361052894320656"><ele>92.0</ele><time>2026-03-29T13:33:17Z</time></trkpt><trkpt lat="45.40281488139547" lon="9.360960877266182"><ele>92.16666666666667</ele><time>2026-03-29T13:33:18Z</time></trkpt><trkpt lat="45.402765528752745" lon="9.360883924890038"><ele>92.33333333333334</ele><time>2026-03-29T13:33:19Z</time></trkpt><trkpt lat="45.40272004047239" lon="9.360821920299793"><ele>92.5</ele><time>2026-03-29T13:33:20Z</time></trkpt><trkpt lat="45.40265604840149" lon="9.360747558634586"><ele>92.66666666666667</ele><time>2026-03-29T13:33:22Z</time></trkpt><trkpt lat="45.40257641071206" lon="9.360837418806977"><ele>92.83333333333333</ele><time>2026-03-29T13:33:25Z</time></trkpt><trkpt lat="45.402508745868495" lon="9.360857593086932"><ele>93.0</ele><time>2026-03-29T13:33:27Z</time></trkpt><trkpt lat="45.40251451360495" lon="9.361038337212065"><ele>93.0</ele><time>2026-03-29T13:33:28Z</time></trkpt><trkpt lat="45.40251851920376" lon="9.361156117468665"><ele>93.0</ele><time>2026-03-29T13:33:29Z</time></trkpt><trkpt lat="45.402515229850486" lon="9.361283356598719"><ele>93.0</ele><time>2026-03-29T13:33:30Z</time></trkpt><trkpt lat="45.40250278286631" lon="9.361423901290149"><ele>93.0</ele><time>2026-03-29T13:33:31Z</time></trkpt><trkpt lat="45.40249390760448" lon="9.361593369607636"><ele>93.0</ele><time>2026-03-29T13:33:32Z</time></trkpt><trkpt lat="45.40246627299374" lon="9.362003214918218"><ele>92.66666666666667</ele><time>2026-03-29T13:33:34Z</time></trkpt><trkpt lat="45.40246528525501" lon="9.362223311979449"><ele>92.33333333333334</ele><time>2026-03-29T13:33:35Z</time></trkpt><trkpt lat="45.40247392684714" lon="9.3624500664272"><ele>92.0</ele><time>2026-03-29T13:33:36Z</time></trkpt><trkpt lat="45.40249201604737" lon="9.362678702236462"><ele>92.0</ele><time>2026-03-29T13:33:37Z</time></trkpt><trkpt lat="45.402518473267214" lon="9.362920965782742"><ele>92.0</ele><time>2026-03-29T13:33:38Z</time></trkpt><trkpt lat="45.40256684048573" lon="9.363155126980347"><ele>92.0</ele><time>2026-03-29T13:33:39Z</time></trkpt><trkpt lat="45.402626997887644" lon="9.363383283279994"><ele>92.33333333333334</ele><time>2026-03-29T13:33:40Z</time></trkpt><trkpt lat="45.402697234048716" lon="9.363612380872086"><ele>92.66666666666667</ele><time>2026-03-29T13:33:41Z</time></trkpt><trkpt lat="45.40277009257085" lon="9.363840481470449"><ele>93.0</ele><time>2026-03-29T13:33:42Z</time></trkpt><trkpt lat="45.402849018507986" lon="9.364066137626256"><ele>93.0</ele><time>2026-03-29T13:33:43Z</time></trkpt><trkpt lat="45.40293379141746" lon="9.364296598139711"><ele>93.0</ele><time>2026-03-29T13:33:44Z</time></trkpt><trkpt lat="45.403020938068664" lon="9.364523899405123"><ele>93.0</ele><time>2026-03-29T13:33:45Z</time></trkpt><trkpt lat="45.403098583406134" lon="9.364735631483153"><ele>92.66666666666667</ele><time>2026-03-29T13:33:46Z</time></trkpt><trkpt lat="45.40317323521057" lon="9.364932633864695"><ele>92.33333333333334</ele><time>2026-03-29T13:33:47Z</time></trkpt><trkpt lat="45.40324478586689" lon="9.36513489967975"><ele>92.0</ele><time>2026-03-29T13:33:48Z</time></trkpt><trkpt lat="45.4033157147915" lon="9.365333751824929"><ele>92.0</ele><time>2026-03-29T13:33:49Z</time></trkpt><trkpt lat="45.403382241810036" lon="9.365519753878829"><ele>92.0</ele><time>2026-03-29T13:33:50Z</time></trkpt><trkpt lat="45.403454157551536" lon="9.365707013242032"><ele>92.0</ele><time>2026-03-29T13:33:51Z</time></trkpt><trkpt lat="45.40352345524278" lon="9.3658849223293"><ele>92.0</ele><time>2026-03-29T13:33:52Z</time></trkpt><trkpt lat="45.403589907667474" lon="9.366061925013154"><ele>92.0</ele><time>2026-03-29T13:33:53Z</time></trkpt><trkpt lat="45.40365160589484" lon="9.36623435771725"><ele>92.0</ele><time>2026-03-29T13:33:54Z</time></trkpt><trkpt lat="45.40371943920679" lon="9.36640608471983"><ele>92.0</ele><time>2026-03-29T13:33:55Z</time></trkpt><trkpt lat="45.403787128359376" lon="9.366573856051822"><ele>92.0</ele><time>2026-03-29T13:33:56Z</time></trkpt><trkpt lat="45.40385968921959" lon="9.366727214248352"><ele>93.25</ele><time>2026-03-29T13:33:57Z</time></trkpt><trkpt lat="45.403938784870014" lon="9.36686933602259"><ele>94.5</ele><time>2026-03-29T13:33:58Z</time></trkpt><trkpt lat="45.40402114556946" lon="9.366989988659052"><ele>95.75</ele><time>2026-03-29T13:33:59Z</time></trkpt><trkpt lat="45.40410442074833" lon="9.367102029836337"><ele>97.0</ele><time>2026-03-29T13:34:00Z</time></trkpt><trkpt lat="45.40418080678588" lon="9.36720252834554"><ele>97.0</ele><time>2026-03-29T13:34:01Z</time></trkpt><trkpt lat="45.40426538254114" lon="9.367297638407253"><ele>97.0</ele><time>2026-03-29T13:34:02Z</time></trkpt><trkpt lat="45.404357746392485" lon="9.367393137653949"><ele>97.0</ele><time>2026-03-29T13:34:03Z</time></trkpt><trkpt lat="45.4044516902219" lon="9.367486696416183"><ele>97.0</ele><time>2026-03-29T13:34:04Z</time></trkpt><trkpt lat="45.40454507696853" lon="9.367580160176502"><ele>97.0</ele><time>2026-03-29T13:34:05Z</time></trkpt><trkpt lat="45.40463802162666" lon="9.367675989146074"><ele>97.0</ele><time>2026-03-29T13:34:06Z</time></trkpt><trkpt lat="45.40473615192709" lon="9.367763715829668"><ele>97.0</ele><time>2026-03-29T13:34:07Z</time></trkpt><trkpt lat="45.404833469637516" lon="9.3678612356223"><ele>97.0</ele><time>2026-03-29T13:34:08Z</time></trkpt><trkpt lat="45.40492827529547" lon="9.367969815566955"><ele>97.0</ele><time>2026-03-29T13:34:09Z</time></trkpt><trkpt lat="45.40501866570062" lon="9.368077123726895"><ele>97.0</ele><time>2026-03-29T13:34:10Z</time></trkpt><trkpt lat="45.405111317783856" lon="9.368206770679796"><ele>97.0</ele><time>2026-03-29T13:34:11Z</time></trkpt><trkpt lat="45.405201792901295" lon="9.368357904874674"><ele>97.0</ele><time>2026-03-29T13:34:12Z</time></trkpt><trkpt lat="45.4052934640995" lon="9.368521059393924"><ele>97.0</ele><time>2026-03-29T13:34:13Z</time></trkpt><trkpt lat="45.40538995165656" lon="9.368690967592585"><ele>97.0</ele><time>2026-03-29T13:34:14Z</time></trkpt><trkpt lat="45.40548938634376" lon="9.36886644805287"><ele>97.0</ele><time>2026-03-29T13:34:15Z</time></trkpt><trkpt lat="45.40558947305897" lon="9.369038219875664"><ele>97.0</ele><time>2026-03-29T13:34:16Z</time></trkpt><trkpt lat="45.40569378612077" lon="9.369210746396153"><ele>97.0</ele><time>2026-03-29T13:34:17Z</time></trkpt><trkpt lat="45.40579014235167" lon="9.36938877853221"><ele>97.0</ele><time>2026-03-29T13:34:18Z</time></trkpt><trkpt lat="45.405891790972746" lon="9.369570217599442"><ele>97.0</ele><time>2026-03-29T13:34:19Z</time></trkpt><trkpt lat="45.40599571485185" lon="9.369739235949254"><ele>97.0</ele><time>2026-03-29T13:34:20Z</time></trkpt><trkpt lat="45.40609550965777" lon="9.369910087960248"><ele>97.0</ele><time>2026-03-29T13:34:21Z</time></trkpt><trkpt lat="45.40619066494172" lon="9.370078791575814"><ele>97.0</ele><time>2026-03-29T13:34:22Z</time></trkpt><trkpt lat="45.406291406303545" lon="9.37024693031255"><ele>97.0</ele><time>2026-03-29T13:34:23Z</time></trkpt><trkpt lat="45.40637964527512" lon="9.370405274572473"><ele>97.0</ele><time>2026-03-29T13:34:24Z</time></trkpt><trkpt lat="45.40646546455499" lon="9.370559908151575"><ele>97.0</ele><time>2026-03-29T13:34:25Z</time></trkpt><trkpt lat="45.40654325498174" lon="9.370730125731749"><ele>96.75</ele><time>2026-03-29T13:34:26Z</time></trkpt><trkpt lat="45.40661291005032" lon="9.370906636170186"><ele>96.5</ele><time>2026-03-29T13:34:27Z</time></trkpt><trkpt lat="45.406674132334004" lon="9.37108534232734"><ele>96.25</ele><time>2026-03-29T13:34:28Z</time></trkpt><trkpt lat="45.40674414801997" lon="9.371259583716842"><ele>96.0</ele><time>2026-03-29T13:34:29Z</time></trkpt><trkpt lat="45.40682652501533" lon="9.371426982218978"><ele>96.0</ele><time>2026-03-29T13:34:30Z</time></trkpt><trkpt lat="45.40691508431313" lon="9.37158565545792"><ele>96.0</ele><time>2026-03-29T13:34:31.001Z</time></trkpt><trkpt lat="45.407012626521386" lon="9.371730492708886"><ele>96.0</ele><time>2026-03-29T13:34:32.001Z</time></trkpt><trkpt lat="45.407121601391964" lon="9.371864237958262"><ele>96.0</ele><time>2026-03-29T13:34:33.001Z</time></trkpt><trkpt lat="45.40724042894479" lon="9.37198517234174"><ele>95.25</ele><time>2026-03-29T13:34:34.001Z</time></trkpt><trkpt lat="45.407361319601556" lon="9.372097230545009"><ele>94.5</ele><time>2026-03-29T13:34:35.001Z</time></trkpt><trkpt lat="45.407487136254794" lon="9.372206556547797"><ele>93.75</ele><time>2026-03-29T13:34:36.001Z</time></trkpt><trkpt lat="45.407616725893604" lon="9.372311344754754"><ele>93.0</ele><time>2026-03-29T13:34:37.001Z</time></trkpt><trkpt lat="45.40774650627877" lon="9.372413896027641"><ele>92.75</ele><time>2026-03-29T13:34:38.001Z</time></trkpt><trkpt lat="45.407876803459494" lon="9.372488894360172"><ele>92.5</ele><time>2026-03-29T13:34:39.001Z</time></trkpt><trkpt lat="45.40801439180623" lon="9.372570179426258"><ele>92.25</ele><time>2026-03-29T13:34:40.001Z</time></trkpt><trkpt lat="45.40814593194188" lon="9.372655959028574"><ele>92.0</ele><time>2026-03-29T13:34:41.001Z</time></trkpt><trkpt lat="45.40827893055845" lon="9.372746592995364"><ele>92.75</ele><time>2026-03-29T13:34:42.001Z</time></trkpt><trkpt lat="45.408412310459724" lon="9.372851289671017"><ele>93.5</ele><time>2026-03-29T13:34:43.001Z</time></trkpt><trkpt lat="45.40853664251945" lon="9.372964390031076"><ele>94.25</ele><time>2026-03-29T13:34:44.001Z</time></trkpt><trkpt lat="45.40864762431291" lon="9.373091400059419"><ele>95.0</ele><time>2026-03-29T13:34:45.001Z</time></trkpt><trkpt lat="45.4087411746784" lon="9.37322288954742"><ele>94.5</ele><time>2026-03-29T13:34:46.001Z</time></trkpt><trkpt lat="45.408827351498566" lon="9.373353094579954"><ele>94.0</ele><time>2026-03-29T13:34:47.001Z</time></trkpt><trkpt lat="45.408906456617075" lon="9.373467184713862"><ele>93.5</ele><time>2026-03-29T13:34:48.001Z</time></trkpt><trkpt lat="45.408964478764936" lon="9.373600508057553"><ele>93.0</ele><time>2026-03-29T13:34:49.001Z</time></trkpt><trkpt lat="45.40902286327275" lon="9.373719847410607"><ele>93.0</ele><time>2026-03-29T13:34:50.001Z</time></trkpt><trkpt lat="45.40908299362708" lon="9.373839092394807"><ele>93.0</ele><time>2026-03-29T13:34:51.001Z</time></trkpt><trkpt lat="45.409106246858826" lon="9.373993223485309"><ele>93.0</ele><time>2026-03-29T13:34:52.001Z</time></trkpt><trkpt lat="45.40908795733486" lon="9.374164450126422"><ele>93.0</ele><time>2026-03-29T13:34:53.001Z</time></trkpt><trkpt lat="45.40906760903129" lon="9.374346757037705"><ele>92.5</ele><time>2026-03-29T13:34:54.001Z</time></trkpt><trkpt lat="45.40907997085774" lon="9.374534126918022"><ele>92.0</ele><time>2026-03-29T13:34:55.001Z</time></trkpt><trkpt lat="45.40903154035116" lon="9.374695815852663"><ele>91.5</ele><time>2026-03-29T13:34:56.001Z</time></trkpt><trkpt lat="45.408981670366686" lon="9.374864005257615"><ele>91.0</ele><time>2026-03-29T13:34:57.001Z</time></trkpt><trkpt lat="45.40892755740347" lon="9.375041564917911"><ele>92.0</ele><time>2026-03-29T13:34:58.001Z</time></trkpt><trkpt lat="45.40887978431235" lon="9.375235751260826"><ele>93.0</ele><time>2026-03-29T13:34:59.001Z</time></trkpt><trkpt lat="45.408823480508296" lon="9.375407987576901"><ele>94.0</ele><time>2026-03-29T13:35:00.001Z</time></trkpt><trkpt lat="45.408773108692706" lon="9.375594933402603"><ele>95.0</ele><time>2026-03-29T13:35:01.001Z</time></trkpt><trkpt lat="45.408716731431596" lon="9.375782560620744"><ele>95.0</ele><time>2026-03-29T13:35:02.001Z</time></trkpt><trkpt lat="45.4086564072122" lon="9.375970984301151"><ele>95.0</ele><time>2026-03-29T13:35:03.001Z</time></trkpt><trkpt lat="45.40860184587488" lon="9.376151096105552"><ele>95.0</ele><time>2026-03-29T13:35:04.001Z</time></trkpt><trkpt lat="45.40855338775996" lon="9.376341201078857"><ele>95.0</ele><time>2026-03-29T13:35:05.001Z</time></trkpt><trkpt lat="45.408521672938505" lon="9.37653261192007"><ele>95.0</ele><time>2026-03-29T13:35:06.001Z</time></trkpt><trkpt lat="45.408520585171416" lon="9.376728084090995"><ele>95.0</ele><time>2026-03-29T13:35:07.001Z</time></trkpt><trkpt lat="45.40854966508949" lon="9.376923470868604"><ele>95.0</ele><time>2026-03-29T13:35:08.001Z</time></trkpt><trkpt lat="45.40860404787352" lon="9.37711300761159"><ele>95.0</ele><time>2026-03-29T13:35:09.001Z</time></trkpt><trkpt lat="45.408669709012116" lon="9.377291700013071"><ele>94.75</ele><time>2026-03-29T13:35:10.001Z</time></trkpt><trkpt lat="45.40872645966739" lon="9.377463386653725"><ele>94.5</ele><time>2026-03-29T13:35:11.001Z</time></trkpt><trkpt lat="45.4087790122713" lon="9.377635802739313"><ele>94.25</ele><time>2026-03-29T13:35:12.001Z</time></trkpt><trkpt lat="45.40882214178802" lon="9.37778699062154"><ele>94.0</ele><time>2026-03-29T13:35:13.001Z</time></trkpt><trkpt lat="45.4088642919397" lon="9.377928974004405"><ele>93.80000000000001</ele><time>2026-03-29T13:35:14.001Z</time></trkpt><trkpt lat="45.40889796474812" lon="9.378060051555723"><ele>93.60000000000001</ele><time>2026-03-29T13:35:15.001Z</time></trkpt><trkpt lat="45.408936686111964" lon="9.37819605785012"><ele>93.4</ele><time>2026-03-29T13:35:16.001Z</time></trkpt><trkpt lat="45.40897925302183" lon="9.378340280266041"><ele>93.2</ele><time>2026-03-29T13:35:17.001Z</time></trkpt><trkpt lat="45.40902030496698" lon="9.378468019038895"><ele>93.0</ele><time>2026-03-29T13:35:18.001Z</time></trkpt><trkpt lat="45.40905711143014" lon="9.378585523099401"><ele>93.0</ele><time>2026-03-29T13:35:19Z</time></trkpt><trkpt lat="45.40909197227043" lon="9.37870489674032"><ele>93.0</ele><time>2026-03-29T13:35:20Z</time></trkpt><trkpt lat="45.40912365880549" lon="9.378814609310977"><ele>93.0</ele><time>2026-03-29T13:35:21Z</time></trkpt><trkpt lat="45.40915399994881" lon="9.378920078600324"><ele>93.0</ele><time>2026-03-29T13:35:22Z</time></trkpt><trkpt lat="45.40918290818485" lon="9.379025855611541"><ele>93.0</ele><time>2026-03-29T13:35:23Z</time></trkpt><trkpt lat="45.40921431123475" lon="9.379137327130087"><ele>93.0</ele><time>2026-03-29T13:35:24Z</time></trkpt><trkpt lat="45.40924380104627" lon="9.379243558843786"><ele>93.2</ele><time>2026-03-29T13:35:25Z</time></trkpt><trkpt lat="45.40928036276076" lon="9.379362418254336"><ele>93.4</ele><time>2026-03-29T13:35:26Z</time></trkpt><trkpt lat="45.40931772185212" lon="9.379487106486765"><ele>93.60000000000001</ele><time>2026-03-29T13:35:27Z</time></trkpt><trkpt lat="45.40935517481811" lon="9.379623085366463"><ele>93.80000000000001</ele><time>2026-03-29T13:35:28Z</time></trkpt><trkpt lat="45.40939505173346" lon="9.379774174327139"><ele>94.0</ele><time>2026-03-29T13:35:29Z</time></trkpt><trkpt lat="45.40943574268499" lon="9.379939530043723"><ele>94.5</ele><time>2026-03-29T13:35:30Z</time></trkpt><trkpt lat="45.409482493886046" lon="9.38011706404182"><ele>95.0</ele><time>2026-03-29T13:35:31Z</time></trkpt><trkpt lat="45.409530015968876" lon="9.380299585668325"><ele>95.5</ele><time>2026-03-29T13:35:32Z</time></trkpt><trkpt lat="45.409574262476845" lon="9.380465964357544"><ele>96.0</ele><time>2026-03-29T13:35:33Z</time></trkpt><trkpt lat="45.409612566651944" lon="9.38061887326948"><ele>96.19999999999999</ele><time>2026-03-29T13:35:34Z</time></trkpt><trkpt lat="45.409648531993774" lon="9.380758536799744"><ele>96.39999999999999</ele><time>2026-03-29T13:35:35Z</time></trkpt><trkpt lat="45.40968457214844" lon="9.380894629152104"><ele>96.6</ele><time>2026-03-29T13:35:36Z</time></trkpt><trkpt lat="45.409719687296" lon="9.381016616172912"><ele>96.8</ele><time>2026-03-29T13:35:37Z</time></trkpt><trkpt lat="45.409750197912636" lon="9.381132030103803"><ele>97.0</ele><time>2026-03-29T13:35:38Z</time></trkpt><trkpt lat="45.40977634873077" lon="9.381240775700565"><ele>97.00000000000001</ele><time>2026-03-29T13:35:39Z</time></trkpt><trkpt lat="45.40979129465752" lon="9.381353019608401"><ele>97.0</ele><time>2026-03-29T13:35:40Z</time></trkpt><trkpt lat="45.40978642533759" lon="9.381464252038993"><ele>97.0</ele><time>2026-03-29T13:35:41Z</time></trkpt><trkpt lat="45.40975161020683" lon="9.381573658014238"><ele>97.0</ele><time>2026-03-29T13:35:42Z</time></trkpt><trkpt lat="45.40968214815405" lon="9.38167038497192"><ele>97.00000000000001</ele><time>2026-03-29T13:35:43Z</time></trkpt><trkpt lat="45.409589921420825" lon="9.381735821411075"><ele>97.0</ele><time>2026-03-29T13:35:44Z</time></trkpt><trkpt lat="45.40947986180507" lon="9.381776372718505"><ele>97.0</ele><time>2026-03-29T13:35:45Z</time></trkpt><trkpt lat="45.4093469966453" lon="9.38177733866346"><ele>97.0</ele><time>2026-03-29T13:35:46Z</time></trkpt><trkpt lat="45.409219324773986" lon="9.38184703482265"><ele>97.0</ele><time>2026-03-29T13:35:47Z</time></trkpt><trkpt lat="45.40907173045867" lon="9.381893323342524"><ele>97.0</ele><time>2026-03-29T13:35:48Z</time></trkpt><trkpt lat="45.40892700325704" lon="9.381944933157259"><ele>96.33333333333334</ele><time>2026-03-29T13:35:49Z</time></trkpt><trkpt lat="45.408773162108076" lon="9.382008596558176"><ele>95.66666666666667</ele><time>2026-03-29T13:35:50Z</time></trkpt><trkpt lat="45.40861245453304" lon="9.382070953269213"><ele>95.0</ele><time>2026-03-29T13:35:51Z</time></trkpt><trkpt lat="45.40844564238377" lon="9.382135143755736"><ele>95.33333333333334</ele><time>2026-03-29T13:35:52Z</time></trkpt><trkpt lat="45.40827718916786" lon="9.38220113938618"><ele>95.66666666666667</ele><time>2026-03-29T13:35:53Z</time></trkpt><trkpt lat="45.40811620756101" lon="9.382266385530727"><ele>96.0</ele><time>2026-03-29T13:35:54Z</time></trkpt><trkpt lat="45.40795227069096" lon="9.382330518891143"><ele>96.0</ele><time>2026-03-29T13:35:55Z</time></trkpt><trkpt lat="45.407788069741535" lon="9.382394797571953"><ele>96.0</ele><time>2026-03-29T13:35:56Z</time></trkpt><trkpt lat="45.407621359305374" lon="9.382459023326698"><ele>96.0</ele><time>2026-03-29T13:35:57Z</time></trkpt><trkpt lat="45.407456085172626" lon="9.382524839994048"><ele>96.0</ele><time>2026-03-29T13:35:58Z</time></trkpt><trkpt lat="45.40728868866468" lon="9.382594335673945"><ele>96.0</ele><time>2026-03-29T13:35:59Z</time></trkpt><trkpt lat="45.407125734176574" lon="9.382658458977383"><ele>96.0</ele><time>2026-03-29T13:36:00Z</time></trkpt><trkpt lat="45.40696246673482" lon="9.382720238709375"><ele>96.33333333333334</ele><time>2026-03-29T13:36:01Z</time></trkpt><trkpt lat="45.406798139649034" lon="9.382782643003706"><ele>96.66666666666667</ele><time>2026-03-29T13:36:02Z</time></trkpt><trkpt lat="45.406637541946644" lon="9.382845358198631"><ele>97.0</ele><time>2026-03-29T13:36:03Z</time></trkpt><trkpt lat="45.40647647158496" lon="9.382909889703226"><ele>96.66666666666667</ele><time>2026-03-29T13:36:04Z</time></trkpt><trkpt lat="45.40631577255933" lon="9.382972660015577"><ele>96.33333333333334</ele><time>2026-03-29T13:36:05Z</time></trkpt><trkpt lat="45.40615275015195" lon="9.383038972733642"><ele>96.0</ele><time>2026-03-29T13:36:06Z</time></trkpt><trkpt lat="45.40599063931042" lon="9.383106121665259"><ele>95.33333333333333</ele><time>2026-03-29T13:36:07Z</time></trkpt><trkpt lat="45.405832423204146" lon="9.383168193660632"><ele>94.66666666666666</ele><time>2026-03-29T13:36:08Z</time></trkpt><trkpt lat="45.40567200182408" lon="9.383227540159137"><ele>94.0</ele><time>2026-03-29T13:36:09Z</time></trkpt><trkpt lat="45.40550442637607" lon="9.383289069366185"><ele>93.66666666666666</ele><time>2026-03-29T13:36:10Z</time></trkpt><trkpt lat="45.40533974167905" lon="9.383349678390294"><ele>93.33333333333333</ele><time>2026-03-29T13:36:11Z</time></trkpt><trkpt lat="45.4051715094968" lon="9.38341305717975"><ele>93.0</ele><time>2026-03-29T13:36:12Z</time></trkpt><trkpt lat="45.405002090229516" lon="9.383480006984144"><ele>93.0</ele><time>2026-03-29T13:36:13Z</time></trkpt><trkpt lat="45.40483012967773" lon="9.383545835109109"><ele>93.0</ele><time>2026-03-29T13:36:14Z</time></trkpt><trkpt lat="45.40466121055568" lon="9.383610906174674"><ele>93.0</ele><time>2026-03-29T13:36:15Z</time></trkpt><trkpt lat="45.404490441562416" lon="9.383671311953757"><ele>93.33333333333333</ele><time>2026-03-29T13:36:16Z</time></trkpt><trkpt lat="45.40431705459975" lon="9.383726996824622"><ele>93.66666666666666</ele><time>2026-03-29T13:36:17Z</time></trkpt><trkpt lat="45.40414624866549" lon="9.3837743694658"><ele>94.0</ele><time>2026-03-29T13:36:18Z</time></trkpt><trkpt lat="45.40397695655548" lon="9.383812544499442"><ele>93.66666666666666</ele><time>2026-03-29T13:36:19Z</time></trkpt><trkpt lat="45.40380631183978" lon="9.383854181625074"><ele>93.33333333333333</ele><time>2026-03-29T13:36:20Z</time></trkpt><trkpt lat="45.40363282779098" lon="9.383898811596673"><ele>93.0</ele><time>2026-03-29T13:36:21Z</time></trkpt><trkpt lat="45.40345998791957" lon="9.383949823627882"><ele>93.0</ele><time>2026-03-29T13:36:22Z</time></trkpt><trkpt lat="45.403282937718075" lon="9.383998975414013"><ele>93.0</ele><time>2026-03-29T13:36:23Z</time></trkpt><trkpt lat="45.40312730369636" lon="9.38404326516953"><ele>93.0</ele><time>2026-03-29T13:36:24Z</time></trkpt><trkpt lat="45.40297840662055" lon="9.384081848901593"><ele>93.25</ele><time>2026-03-29T13:36:25Z</time></trkpt><trkpt lat="45.402839099040605" lon="9.38411650702469"><ele>93.5</ele><time>2026-03-29T13:36:26Z</time></trkpt><trkpt lat="45.40270157695887" lon="9.384150834349821"><ele>93.75</ele><time>2026-03-29T13:36:27Z</time></trkpt><trkpt lat="45.402569614761354" lon="9.384184932161832"><ele>94.0</ele><time>2026-03-29T13:36:28Z</time></trkpt><trkpt lat="45.4024448547696" lon="9.384218792287466"><ele>94.0</ele><time>2026-03-29T13:36:29Z</time></trkpt><trkpt lat="45.40233668076035" lon="9.384251244304432"><ele>94.0</ele><time>2026-03-29T13:36:30Z</time></trkpt><trkpt lat="45.40223875554185" lon="9.384242288656589"><ele>94.0</ele><time>2026-03-29T13:36:31Z</time></trkpt><trkpt lat="45.402126798704025" lon="9.38416168579358"><ele>94.0</ele><time>2026-03-29T13:36:33Z</time></trkpt><trkpt lat="45.40211092818907" lon="9.384022756353655"><ele>94.0</ele><time>2026-03-29T13:36:34Z</time></trkpt><trkpt lat="45.40209264242618" lon="9.383863054456855"><ele>94.0</ele><time>2026-03-29T13:36:35Z</time></trkpt><trkpt lat="45.402059355513146" lon="9.383669643102897"><ele>94.0</ele><time>2026-03-29T13:36:36Z</time></trkpt><trkpt lat="45.402036849462064" lon="9.383469435841295"><ele>94.0</ele><time>2026-03-29T13:36:37Z</time></trkpt><trkpt lat="45.402015176270595" lon="9.383307677389192"><ele>94.0</ele><time>2026-03-29T13:36:38Z</time></trkpt><trkpt lat="45.401994102248786" lon="9.38318396521296"><ele>94.0</ele><time>2026-03-29T13:36:39Z</time></trkpt><trkpt lat="45.40195637738171" lon="9.38309199124877"><ele>94.0</ele><time>2026-03-29T13:36:40Z</time></trkpt><trkpt lat="45.40191707530328" lon="9.383003598762762"><ele>94.0</ele><time>2026-03-29T13:36:41Z</time></trkpt><trkpt lat="45.40183020008711" lon="9.382996770739856"><ele>94.0</ele><time>2026-03-29T13:36:42Z</time></trkpt><trkpt lat="45.40173899551935" lon="9.383035209886724"><ele>94.0</ele><time>2026-03-29T13:36:43Z</time></trkpt><trkpt lat="45.40163245998316" lon="9.383093434095102"><ele>94.0</ele><time>2026-03-29T13:36:44Z</time></trkpt><trkpt lat="45.40150028830679" lon="9.383123432592308"><ele>94.0</ele><time>2026-03-29T13:36:45Z</time></trkpt><trkpt lat="45.4013736558395" lon="9.38311729034261"><ele>94.0</ele><time>2026-03-29T13:36:46Z</time></trkpt><trkpt lat="45.40122342195321" lon="9.383115317484645"><ele>94.0</ele><time>2026-03-29T13:36:47Z</time></trkpt><trkpt lat="45.401070539333524" lon="9.38316219102978"><ele>94.0</ele><time>2026-03-29T13:36:48Z</time></trkpt><trkpt lat="45.400929195462666" lon="9.383274893843764"><ele>94.0</ele><time>2026-03-29T13:36:49Z</time></trkpt><trkpt lat="45.400769660432694" lon="9.383354657046429"><ele>94.0</ele><time>2026-03-29T13:36:50Z</time></trkpt><trkpt lat="45.40060991830258" lon="9.383452754938904"><ele>94.0</ele><time>2026-03-29T13:36:51Z</time></trkpt><trkpt lat="45.40045300141148" lon="9.383549785139685"><ele>94.0</ele><time>2026-03-29T13:36:52Z</time></trkpt><trkpt lat="45.400301380478226" lon="9.383643540562208"><ele>94.0</ele><time>2026-03-29T13:36:53Z</time></trkpt><trkpt lat="45.40015177593008" lon="9.383736049141584"><ele>94.0</ele><time>2026-03-29T13:36:54Z</time></trkpt><trkpt lat="45.400000695511714" lon="9.383829470330388"><ele>94.0</ele><time>2026-03-29T13:36:55Z</time></trkpt><trkpt lat="45.39984804569514" lon="9.383926884479974"><ele>94.0</ele><time>2026-03-29T13:36:56Z</time></trkpt><trkpt lat="45.39969324805495" lon="9.384034670455739"><ele>94.0</ele><time>2026-03-29T13:36:57Z</time></trkpt><trkpt lat="45.39954925564055" lon="9.384124638422943"><ele>94.0</ele><time>2026-03-29T13:36:58Z</time></trkpt><trkpt lat="45.39940291196351" lon="9.384201173452821"><ele>94.0</ele><time>2026-03-29T13:36:59Z</time></trkpt><trkpt lat="45.399248582607115" lon="9.384271481655137"><ele>94.0</ele><time>2026-03-29T13:37:00Z</time></trkpt><trkpt lat="45.39908626726204" lon="9.384332187853303"><ele>94.0</ele><time>2026-03-29T13:37:01Z</time></trkpt><trkpt lat="45.398929198728126" lon="9.384372651084739"><ele>94.0</ele><time>2026-03-29T13:37:02Z</time></trkpt><trkpt lat="45.39876797513291" lon="9.38441734714142"><ele>94.0</ele><time>2026-03-29T13:37:03Z</time></trkpt><trkpt lat="45.398604425499975" lon="9.384428691625448"><ele>93.5</ele><time>2026-03-29T13:37:04Z</time></trkpt><trkpt lat="45.398447204902936" lon="9.384439839459244"><ele>93.0</ele><time>2026-03-29T13:37:05Z</time></trkpt><trkpt lat="45.39830667831744" lon="9.384454055088135"><ele>92.5</ele><time>2026-03-29T13:37:06Z</time></trkpt><trkpt lat="45.39817829143219" lon="9.384481816422069"><ele>92.0</ele><time>2026-03-29T13:37:07Z</time></trkpt><trkpt lat="45.398049107971175" lon="9.384529046336333"><ele>92.0</ele><time>2026-03-29T13:37:08Z</time></trkpt><trkpt lat="45.39792579313179" lon="9.384604371828448"><ele>92.0</ele><time>2026-03-29T13:37:09Z</time></trkpt><trkpt lat="45.39780724068904" lon="9.384703301133822"><ele>92.0</ele><time>2026-03-29T13:37:10.001Z</time></trkpt><trkpt lat="45.39768830718783" lon="9.384799220030784"><ele>92.0</ele><time>2026-03-29T13:37:11.001Z</time></trkpt><trkpt lat="45.39757903084543" lon="9.384926034979536"><ele>92.33333333333334</ele><time>2026-03-29T13:37:12.001Z</time></trkpt><trkpt lat="45.39746820952003" lon="9.385056424298844"><ele>92.66666666666667</ele><time>2026-03-29T13:37:13.001Z</time></trkpt><trkpt lat="45.397358087674334" lon="9.385209331448268"><ele>93.0</ele><time>2026-03-29T13:37:14.001Z</time></trkpt><trkpt lat="45.3972340746727" lon="9.385354227422955"><ele>92.66666666666667</ele><time>2026-03-29T13:37:15.001Z</time></trkpt><trkpt lat="45.397095894067235" lon="9.385496937954331"><ele>92.33333333333334</ele><time>2026-03-29T13:37:16.001Z</time></trkpt><trkpt lat="45.39697718833958" lon="9.385671058436445"><ele>92.0</ele><time>2026-03-29T13:37:17.001Z</time></trkpt><trkpt lat="45.39686492649474" lon="9.385838113947608"><ele>92.0</ele><time>2026-03-29T13:37:18.001Z</time></trkpt><trkpt lat="45.396762974574465" lon="9.386020346198816"><ele>92.0</ele><time>2026-03-29T13:37:19.001Z</time></trkpt><trkpt lat="45.396677905646854" lon="9.386221322899207"><ele>92.0</ele><time>2026-03-29T13:37:20.001Z</time></trkpt><trkpt lat="45.39662017772306" lon="9.386444810703697"><ele>92.33333333333334</ele><time>2026-03-29T13:37:21.001Z</time></trkpt><trkpt lat="45.396592761620326" lon="9.386697995067456"><ele>92.66666666666667</ele><time>2026-03-29T13:37:22.001Z</time></trkpt><trkpt lat="45.39658854108398" lon="9.386974969995652"><ele>93.0</ele><time>2026-03-29T13:37:23.001Z</time></trkpt><trkpt lat="45.396598855074906" lon="9.387248229996775"><ele>93.0</ele><time>2026-03-29T13:37:24.001Z</time></trkpt><trkpt lat="45.396622894029925" lon="9.387536920096279"><ele>93.0</ele><time>2026-03-29T13:37:25Z</time></trkpt><trkpt lat="45.396645596770625" lon="9.38782079467687"><ele>93.0</ele><time>2026-03-29T13:37:26Z</time></trkpt><trkpt lat="45.39667084810711" lon="9.388102175288441"><ele>93.0</ele><time>2026-03-29T13:37:27Z</time></trkpt><trkpt lat="45.39668770750963" lon="9.388379323835622"><ele>93.0</ele><time>2026-03-29T13:37:28Z</time></trkpt><trkpt lat="45.39670853499623" lon="9.388637925288482"><ele>93.0</ele><time>2026-03-29T13:37:29Z</time></trkpt><trkpt lat="45.39673180431239" lon="9.388888688084153"><ele>93.0</ele><time>2026-03-29T13:37:30Z</time></trkpt><trkpt lat="45.396753986632774" lon="9.389128271380008"><ele>93.0</ele><time>2026-03-29T13:37:31Z</time></trkpt><trkpt lat="45.39677230968167" lon="9.389362047299741"><ele>93.0</ele><time>2026-03-29T13:37:32Z</time></trkpt><trkpt lat="45.39678508174232" lon="9.389593415219498"><ele>93.33333333333333</ele><time>2026-03-29T13:37:33Z</time></trkpt><trkpt lat="45.39678941541857" lon="9.389826330856875"><ele>93.66666666666666</ele><time>2026-03-29T13:37:34Z</time></trkpt><trkpt lat="45.396761608633994" lon="9.39005360833096"><ele>94.0</ele><time>2026-03-29T13:37:35Z</time></trkpt><trkpt lat="45.3967246072901" lon="9.390281861793913"><ele>94.0</ele><time>2026-03-29T13:37:36Z</time></trkpt><trkpt lat="45.39666816531912" lon="9.390505940074123"><ele>94.0</ele><time>2026-03-29T13:37:37Z</time></trkpt><trkpt lat="45.39658874151219" lon="9.39071978490798"><ele>94.0</ele><time>2026-03-29T13:37:38Z</time></trkpt><trkpt lat="45.39648392040137" lon="9.39091993415114"><ele>94.0</ele><time>2026-03-29T13:37:39Z</time></trkpt><trkpt lat="45.39635973625807" lon="9.391104272001387"><ele>94.0</ele><time>2026-03-29T13:37:40Z</time></trkpt><trkpt lat="45.39621320974302" lon="9.391261879974081"><ele>94.0</ele><time>2026-03-29T13:37:41Z</time></trkpt><trkpt lat="45.39605872772738" lon="9.391386027204138"><ele>93.33333333333333</ele><time>2026-03-29T13:37:42Z</time></trkpt><trkpt lat="45.39589096613777" lon="9.39147169659541"><ele>92.66666666666667</ele><time>2026-03-29T13:37:43Z</time></trkpt><trkpt lat="45.39571683214421" lon="9.391530294195451"><ele>92.0</ele><time>2026-03-29T13:37:44Z</time></trkpt><trkpt lat="45.39554165549312" lon="9.39155421078809"><ele>91.33333333333334</ele><time>2026-03-29T13:37:45Z</time></trkpt><trkpt lat="45.395370501054686" lon="9.391587790573924"><ele>90.66666666666667</ele><time>2026-03-29T13:37:46Z</time></trkpt><trkpt lat="45.39519956919818" lon="9.391599904826508"><ele>90.0</ele><time>2026-03-29T13:37:47Z</time></trkpt><trkpt lat="45.39504171306798" lon="9.391646046154445"><ele>90.0</ele><time>2026-03-29T13:37:48Z</time></trkpt><trkpt lat="45.3949023451015" lon="9.391707358429594"><ele>90.0</ele><time>2026-03-29T13:37:49Z</time></trkpt><trkpt lat="45.3947741792341" lon="9.391765605243325"><ele>90.0</ele><time>2026-03-29T13:37:50Z</time></trkpt><trkpt lat="45.39464902894579" lon="9.391813358618178"><ele>90.0</ele><time>2026-03-29T13:37:51Z</time></trkpt><trkpt lat="45.394531903768" lon="9.391849257857825"><ele>90.5</ele><time>2026-03-29T13:37:52Z</time></trkpt><trkpt lat="45.39441509957766" lon="9.391882068691576"><ele>91.0</ele><time>2026-03-29T13:37:53Z</time></trkpt><trkpt lat="45.3943052166882" lon="9.391915027884664"><ele>91.5</ele><time>2026-03-29T13:37:54Z</time></trkpt><trkpt lat="45.394191965361046" lon="9.391943880003874"><ele>92.0</ele><time>2026-03-29T13:37:55Z</time></trkpt><trkpt lat="45.394070733094544" lon="9.391970268883563"><ele>92.0</ele><time>2026-03-29T13:37:56Z</time></trkpt><trkpt lat="45.39395913929322" lon="9.39199431242623"><ele>92.0</ele><time>2026-03-29T13:37:57Z</time></trkpt><trkpt lat="45.393856211333954" lon="9.392017491562116"><ele>92.0</ele><time>2026-03-29T13:37:58Z</time></trkpt><trkpt lat="45.393759104870085" lon="9.392038850994794"><ele>92.0</ele><time>2026-03-29T13:37:59Z</time></trkpt><trkpt lat="45.39365973081166" lon="9.392064608471868"><ele>92.0</ele><time>2026-03-29T13:38:00Z</time></trkpt><trkpt lat="45.39355991619556" lon="9.39208366038968"><ele>92.39999999999999</ele><time>2026-03-29T13:38:01Z</time></trkpt><trkpt lat="45.393459262700134" lon="9.392101454287051"><ele>92.8</ele><time>2026-03-29T13:38:02Z</time></trkpt><trkpt lat="45.39335927553118" lon="9.392139080553756"><ele>93.2</ele><time>2026-03-29T13:38:03Z</time></trkpt><trkpt lat="45.393255290485094" lon="9.39218325488594"><ele>93.6</ele><time>2026-03-29T13:38:04Z</time></trkpt><trkpt lat="45.393163687060834" lon="9.392249348558254"><ele>94.0</ele><time>2026-03-29T13:38:05Z</time></trkpt><trkpt lat="45.39306842977171" lon="9.392277363552715"><ele>94.16666666666666</ele><time>2026-03-29T13:38:06Z</time></trkpt><trkpt lat="45.392983478374994" lon="9.392325648890727"><ele>94.33333333333333</ele><time>2026-03-29T13:38:07Z</time></trkpt><trkpt lat="45.39291002061226" lon="9.392369457433475"><ele>94.5</ele><time>2026-03-29T13:38:08Z</time></trkpt><trkpt lat="45.392833918161976" lon="9.392417119355912"><ele>94.66666666666667</ele><time>2026-03-29T13:38:09Z</time></trkpt><trkpt lat="45.39276472496213" lon="9.392462056985671"><ele>94.83333333333334</ele><time>2026-03-29T13:38:10Z</time></trkpt><trkpt lat="45.392695730715104" lon="9.392509490647521"><ele>95.0</ele><time>2026-03-29T13:38:11Z</time></trkpt><trkpt lat="45.39264078134931" lon="9.392579192533663"><ele>95.0</ele><time>2026-03-29T13:38:12Z</time></trkpt><trkpt lat="45.39253103308956" lon="9.39259261283674"><ele>95.0</ele><time>2026-03-29T13:38:14Z</time></trkpt><trkpt lat="45.39242331045602" lon="9.392709096225923"><ele>95.0</ele><time>2026-03-29T13:38:16Z</time></trkpt><trkpt lat="45.39234885718211" lon="9.392766685798128"><ele>95.0</ele><time>2026-03-29T13:38:17Z</time></trkpt><trkpt lat="45.392275573960134" lon="9.392873440976945"><ele>95.0</ele><time>2026-03-29T13:38:18Z</time></trkpt><trkpt lat="45.39215955155096" lon="9.392911390026761"><ele>94.25</ele><time>2026-03-29T13:38:19Z</time></trkpt><trkpt lat="45.392025906445504" lon="9.392921373187155"><ele>93.5</ele><time>2026-03-29T13:38:20Z</time></trkpt><trkpt lat="45.391888520752154" lon="9.392959219173314"><ele>92.75</ele><time>2026-03-29T13:38:21Z</time></trkpt><trkpt lat="45.39173894665721" lon="9.392959298131768"><ele>92.0</ele><time>2026-03-29T13:38:22Z</time></trkpt><trkpt lat="45.39158895678894" lon="9.393020779596807"><ele>92.0</ele><time>2026-03-29T13:38:23Z</time></trkpt><trkpt lat="45.3914373949743" lon="9.39313045501482"><ele>92.0</ele><time>2026-03-29T13:38:24Z</time></trkpt><trkpt lat="45.39128223713502" lon="9.393253808795542"><ele>92.0</ele><time>2026-03-29T13:38:25Z</time></trkpt><trkpt lat="45.39113857462998" lon="9.39338771425365"><ele>92.5</ele><time>2026-03-29T13:38:26Z</time></trkpt><trkpt lat="45.39101209048873" lon="9.39351263898885"><ele>93.0</ele><time>2026-03-29T13:38:27Z</time></trkpt><trkpt lat="45.39090366419647" lon="9.393618400406563"><ele>93.5</ele><time>2026-03-29T13:38:28Z</time></trkpt><trkpt lat="45.39080903237524" lon="9.393704006561196"><ele>94.0</ele><time>2026-03-29T13:38:29Z</time></trkpt><trkpt lat="45.39074431712552" lon="9.393756314679388"><ele>94.0</ele><time>2026-03-29T13:38:30Z</time></trkpt><trkpt lat="45.390669174875526" lon="9.393796780400027"><ele>94.0</ele><time>2026-03-29T13:38:32Z</time></trkpt><trkpt lat="45.39061953713368" lon="9.393857112379276"><ele>94.0</ele><time>2026-03-29T13:38:37Z</time></trkpt><trkpt lat="45.39066956042432" lon="9.394136862697238"><ele>94.0</ele><time>2026-03-29T13:38:39Z</time></trkpt><trkpt lat="45.390597314902074" lon="9.394220107355771"><ele>94.0</ele><time>2026-03-29T13:38:41Z</time></trkpt><trkpt lat="45.39050453524646" lon="9.394317974442135"><ele>93.66666666666666</ele><time>2026-03-29T13:38:43Z</time></trkpt><trkpt lat="45.390453806978286" lon="9.394384526426931"><ele>93.33333333333333</ele><time>2026-03-29T13:38:44Z</time></trkpt><trkpt lat="45.39040431436904" lon="9.394444889280413"><ele>93.0</ele><time>2026-03-29T13:38:45Z</time></trkpt><trkpt lat="45.39031765734268" lon="9.394546884324749"><ele>92.66666666666667</ele><time>2026-03-29T13:38:47Z</time></trkpt><trkpt lat="45.39024431019741" lon="9.394632288747196"><ele>92.33333333333334</ele><time>2026-03-29T13:38:49Z</time></trkpt><trkpt lat="45.39018403097544" lon="9.394694773222083"><ele>92.0</ele><time>2026-03-29T13:38:51Z</time></trkpt><trkpt lat="45.390126478464204" lon="9.394743162714802"><ele>92.0</ele><time>2026-03-29T13:38:53Z</time></trkpt><trkpt lat="45.39007082950164" lon="9.394792939908898"><ele>92.0</ele><time>2026-03-29T13:38:56Z</time></trkpt><trkpt lat="45.3900104057165" lon="9.394826789563803"><ele>92.0</ele><time>2026-03-29T13:39:08Z</time></trkpt><trkpt lat="45.38993026436959" lon="9.394830723919592"><ele>92.0</ele><time>2026-03-29T13:39:11Z</time></trkpt><trkpt lat="45.39003088703754" lon="9.394828076532098"><ele>92.0</ele><time>2026-03-29T13:39:21.001Z</time></trkpt><trkpt lat="45.39014258913807" lon="9.394726081778256"><ele>92.0</ele><time>2026-03-29T13:39:23.001Z</time></trkpt><trkpt lat="45.39021688832374" lon="9.394659454507726"><ele>92.0</ele><time>2026-03-29T13:39:24.001Z</time></trkpt><trkpt lat="45.39028269095171" lon="9.39459725380127"><ele>92.0</ele><time>2026-03-29T13:39:25.001Z</time></trkpt><trkpt lat="45.39033823782544" lon="9.3945366248823"><ele>92.0</ele><time>2026-03-29T13:39:26.001Z</time></trkpt><trkpt lat="45.390385178822854" lon="9.394474754150712"><ele>92.0</ele><time>2026-03-29T13:39:27.001Z</time></trkpt><trkpt lat="45.3904325380619" lon="9.394404659277694"><ele>92.0</ele><time>2026-03-29T13:39:28.001Z</time></trkpt><trkpt lat="45.39048030273379" lon="9.394341064333444"><ele>92.0</ele><time>2026-03-29T13:39:29.001Z</time></trkpt><trkpt lat="45.39056839728939" lon="9.394248218122927"><ele>92.0</ele><time>2026-03-29T13:39:31Z</time></trkpt><trkpt lat="45.39063593237357" lon="9.394202670155389"><ele>92.0</ele><time>2026-03-29T13:39:33Z</time></trkpt><trkpt lat="45.39071823299939" lon="9.394238815138852"><ele>92.0</ele><time>2026-03-29T13:39:36Z</time></trkpt><trkpt lat="45.39075187397965" lon="9.394314662192699"><ele>92.0</ele><time>2026-03-29T13:39:38Z</time></trkpt><trkpt lat="45.39076611486343" lon="9.394462395728713"><ele>92.0</ele><time>2026-03-29T13:39:40Z</time></trkpt><trkpt lat="45.39078642726051" lon="9.394559054990495"><ele>92.0</ele><time>2026-03-29T13:39:41Z</time></trkpt><trkpt lat="45.39080006074762" lon="9.394649297332977"><ele>91.83333333333334</ele><time>2026-03-29T13:39:42Z</time></trkpt><trkpt lat="45.39079889175249" lon="9.394757842982582"><ele>91.66666666666667</ele><time>2026-03-29T13:39:43Z</time></trkpt><trkpt lat="45.39078612688558" lon="9.394866334443176"><ele>91.5</ele><time>2026-03-29T13:39:44Z</time></trkpt><trkpt lat="45.3907670298529" lon="9.394962231915201"><ele>91.33333333333333</ele><time>2026-03-29T13:39:45Z</time></trkpt><trkpt lat="45.39074004607374" lon="9.395063044766333"><ele>91.16666666666666</ele><time>2026-03-29T13:39:46Z</time></trkpt><trkpt lat="45.39072142417199" lon="9.39517311123914"><ele>91.0</ele><time>2026-03-29T13:39:47Z</time></trkpt><trkpt lat="45.390722602104766" lon="9.395284818143915"><ele>91.0</ele><time>2026-03-29T13:39:48Z</time></trkpt><trkpt lat="45.39073576525394" lon="9.395404209599423"><ele>91.0</ele><time>2026-03-29T13:39:49Z</time></trkpt><trkpt lat="45.39075523773298" lon="9.395528373446767"><ele>91.0</ele><time>2026-03-29T13:39:50Z</time></trkpt><trkpt lat="45.39077354710438" lon="9.395665102018727"><ele>91.0</ele><time>2026-03-29T13:39:51Z</time></trkpt><trkpt lat="45.39079117103611" lon="9.39580237475917"><ele>91.0</ele><time>2026-03-29T13:39:52Z</time></trkpt><trkpt lat="45.390805997449974" lon="9.395939829051708"><ele>91.0</ele><time>2026-03-29T13:39:53Z</time></trkpt><trkpt lat="45.39081624218079" lon="9.396080534699356"><ele>91.0</ele><time>2026-03-29T13:39:54Z</time></trkpt><trkpt lat="45.39082711785244" lon="9.396216761582819"><ele>91.0</ele><time>2026-03-29T13:39:55Z</time></trkpt><trkpt lat="45.39084131672148" lon="9.39635037872986"><ele>91.0</ele><time>2026-03-29T13:39:56Z</time></trkpt><trkpt lat="45.39085501084493" lon="9.396484161869276"><ele>91.0</ele><time>2026-03-29T13:39:57Z</time></trkpt><trkpt lat="45.3908680631386" lon="9.396621914234862"><ele>91.19999999999999</ele><time>2026-03-29T13:39:58Z</time></trkpt><trkpt lat="45.39088058510225" lon="9.396766934881132"><ele>91.39999999999999</ele><time>2026-03-29T13:39:59Z</time></trkpt><trkpt lat="45.390892987144944" lon="9.39691577554458"><ele>91.6</ele><time>2026-03-29T13:40:00Z</time></trkpt><trkpt lat="45.3909041341817" lon="9.397064826061314"><ele>91.8</ele><time>2026-03-29T13:40:01Z</time></trkpt><trkpt lat="45.39091273654992" lon="9.39721296665483"><ele>92.0</ele><time>2026-03-29T13:40:02Z</time></trkpt><trkpt lat="45.39091777848294" lon="9.397358899659176"><ele>92.0</ele><time>2026-03-29T13:40:03Z</time></trkpt><trkpt lat="45.390923422217234" lon="9.397511734894302"><ele>92.0</ele><time>2026-03-29T13:40:04Z</time></trkpt><trkpt lat="45.39093325057818" lon="9.397658038037992"><ele>92.0</ele><time>2026-03-29T13:40:05Z</time></trkpt><trkpt lat="45.39094937794933" lon="9.397805065002236"><ele>92.0</ele><time>2026-03-29T13:40:06Z</time></trkpt><trkpt lat="45.39096672470633" lon="9.397953490175972"><ele>92.0</ele><time>2026-03-29T13:40:07Z</time></trkpt><trkpt lat="45.390983247924844" lon="9.39809906947306"><ele>92.0</ele><time>2026-03-29T13:40:08Z</time></trkpt><trkpt lat="45.39099874561462" lon="9.398248411343285"><ele>92.0</ele><time>2026-03-29T13:40:09Z</time></trkpt><trkpt lat="45.391018090894924" lon="9.3983903124349"><ele>92.0</ele><time>2026-03-29T13:40:10Z</time></trkpt><trkpt lat="45.39102872075611" lon="9.398530101486816"><ele>92.0</ele><time>2026-03-29T13:40:11Z</time></trkpt><trkpt lat="45.39103742275743" lon="9.3986631365047"><ele>92.0</ele><time>2026-03-29T13:40:12Z</time></trkpt><trkpt lat="45.39105154862177" lon="9.398789397836527"><ele>92.0</ele><time>2026-03-29T13:40:13Z</time></trkpt><trkpt lat="45.391053614089934" lon="9.398925614187318"><ele>92.0</ele><time>2026-03-29T13:40:14Z</time></trkpt><trkpt lat="45.39107219537682" lon="9.399060390359788"><ele>92.0</ele><time>2026-03-29T13:40:15Z</time></trkpt><trkpt lat="45.39110208634649" lon="9.399183771564214"><ele>92.0</ele><time>2026-03-29T13:40:16Z</time></trkpt><trkpt lat="45.391130252884615" lon="9.399294194284455"><ele>92.0</ele><time>2026-03-29T13:40:17Z</time></trkpt><trkpt lat="45.39114761225439" lon="9.399404267424096"><ele>92.0</ele><time>2026-03-29T13:40:18Z</time></trkpt><trkpt lat="45.391172119936186" lon="9.39952050117435"><ele>92.0</ele><time>2026-03-29T13:40:19Z</time></trkpt><trkpt lat="45.39119525641554" lon="9.399633661637399"><ele>92.0</ele><time>2026-03-29T13:40:20Z</time></trkpt><trkpt lat="45.39121280363347" lon="9.399752900445232"><ele>92.0</ele><time>2026-03-29T13:40:21Z</time></trkpt><trkpt lat="45.39124702520247" lon="9.399874576848731"><ele>92.0</ele><time>2026-03-29T13:40:22Z</time></trkpt><trkpt lat="45.39127565451022" lon="9.399971927021824"><ele>92.0</ele><time>2026-03-29T13:40:23Z</time></trkpt><trkpt lat="45.391300013068644" lon="9.400065486149321"><ele>92.0</ele><time>2026-03-29T13:40:24Z</time></trkpt><trkpt lat="45.39131111317568" lon="9.400235987666145"><ele>92.0</ele><time>2026-03-29T13:40:26Z</time></trkpt><trkpt lat="45.3912792054547" lon="9.400327294846331"><ele>92.0</ele><time>2026-03-29T13:40:28Z</time></trkpt><trkpt lat="45.39120992396617" lon="9.400364807990975"><ele>92.0</ele><time>2026-03-29T13:40:30Z</time></trkpt><trkpt lat="45.39113327427105" lon="9.400309617355056"><ele>92.0</ele><time>2026-03-29T13:40:32Z</time></trkpt><trkpt lat="45.391087416673074" lon="9.400241222292912"><ele>92.0</ele><time>2026-03-29T13:40:33Z</time></trkpt><trkpt lat="45.39103132761993" lon="9.400137436851729"><ele>92.0</ele><time>2026-03-29T13:40:34Z</time></trkpt><trkpt lat="45.39096831828087" lon="9.400040569878964"><ele>92.0</ele><time>2026-03-29T13:40:35Z</time></trkpt><trkpt lat="45.390869025651476" lon="9.399930320183216"><ele>92.0</ele><time>2026-03-29T13:40:36Z</time></trkpt><trkpt lat="45.39076517027611" lon="9.399811799453563"><ele>92.0</ele><time>2026-03-29T13:40:37Z</time></trkpt><trkpt lat="45.39066091928937" lon="9.399708908496484"><ele>92.0</ele><time>2026-03-29T13:40:38Z</time></trkpt><trkpt lat="45.39057656881732" lon="9.399623262240127"><ele>92.0</ele><time>2026-03-29T13:40:39Z</time></trkpt><trkpt lat="45.39049537425809" lon="9.399546807756199"><ele>92.0</ele><time>2026-03-29T13:40:40Z</time></trkpt><trkpt lat="45.390407809107835" lon="9.39948960462658"><ele>92.0</ele><time>2026-03-29T13:40:41Z</time></trkpt><trkpt lat="45.390314541863376" lon="9.399466175758729"><ele>92.0</ele><time>2026-03-29T13:40:42Z</time></trkpt><trkpt lat="45.39022661450763" lon="9.399469194992028"><ele>92.0</ele><time>2026-03-29T13:40:43Z</time></trkpt><trkpt lat="45.39015371430649" lon="9.399492648042235"><ele>92.0</ele><time>2026-03-29T13:40:44Z</time></trkpt><trkpt lat="45.390055427258694" lon="9.399529036990213"><ele>92.0</ele><time>2026-03-29T13:40:46Z</time></trkpt><trkpt lat="45.38998334731326" lon="9.399569387882005"><ele>92.0</ele><time>2026-03-29T13:40:48Z</time></trkpt><trkpt lat="45.389950730120965" lon="9.399693712525961"><ele>92.0</ele><time>2026-03-29T13:40:51.001Z</time></trkpt><trkpt lat="45.38995375518262" lon="9.399812746458723"><ele>92.0</ele><time>2026-03-29T13:40:53.001Z</time></trkpt><trkpt lat="45.38997190031342" lon="9.399969831502034"><ele>92.0</ele><time>2026-03-29T13:40:55.001Z</time></trkpt><trkpt lat="45.3899818019286" lon="9.40013392437117"><ele>92.0</ele><time>2026-03-29T13:40:57.001Z</time></trkpt><trkpt lat="45.38998574944411" lon="9.400291894802287"><ele>92.0</ele><time>2026-03-29T13:40:59.001Z</time></trkpt><trkpt lat="45.38999246595534" lon="9.400451008278852"><ele>92.0</ele><time>2026-03-29T13:41:01.001Z</time></trkpt><trkpt lat="45.3900010728535" lon="9.40060864786803"><ele>92.0</ele><time>2026-03-29T13:41:03.001Z</time></trkpt><trkpt lat="45.39001265313882" lon="9.40077028070601"><ele>92.0</ele><time>2026-03-29T13:41:05.001Z</time></trkpt><trkpt lat="45.390016809651776" lon="9.400935578932078"><ele>92.0</ele><time>2026-03-29T13:41:07.001Z</time></trkpt><trkpt lat="45.390019555432445" lon="9.401095891859583"><ele>92.0</ele><time>2026-03-29T13:41:09.001Z</time></trkpt><trkpt lat="45.39002052320452" lon="9.401266227530467"><ele>91.83333333333334</ele><time>2026-03-29T13:41:11.001Z</time></trkpt><trkpt lat="45.39001703858493" lon="9.401355924418155"><ele>91.66666666666667</ele><time>2026-03-29T13:41:12.001Z</time></trkpt><trkpt lat="45.39001937031822" lon="9.401451469206682"><ele>91.5</ele><time>2026-03-29T13:41:13.001Z</time></trkpt><trkpt lat="45.390028303936035" lon="9.401569794508925"><ele>91.33333333333333</ele><time>2026-03-29T13:41:14.001Z</time></trkpt><trkpt lat="45.39003892379534" lon="9.401701080586035"><ele>91.16666666666666</ele><time>2026-03-29T13:41:15.001Z</time></trkpt><trkpt lat="45.39005147423942" lon="9.401858074695596"><ele>91.0</ele><time>2026-03-29T13:41:16.001Z</time></trkpt><trkpt lat="45.39006562856188" lon="9.402030305615607"><ele>91.0</ele><time>2026-03-29T13:41:17.001Z</time></trkpt><trkpt lat="45.39008167357499" lon="9.402222833525604"><ele>91.0</ele><time>2026-03-29T13:41:18.001Z</time></trkpt><trkpt lat="45.390095697916216" lon="9.40239376433272"><ele>91.0</ele><time>2026-03-29T13:41:19.001Z</time></trkpt><trkpt lat="45.3901080640295" lon="9.402535447002737"><ele>91.0</ele><time>2026-03-29T13:41:20.001Z</time></trkpt><trkpt lat="45.39011929317031" lon="9.402656487484382"><ele>91.0</ele><time>2026-03-29T13:41:21.001Z</time></trkpt><trkpt lat="45.390125421332215" lon="9.402757140344063"><ele>91.0</ele><time>2026-03-29T13:41:22.001Z</time></trkpt><trkpt lat="45.39011456647134" lon="9.402898356452203"><ele>91.0</ele><time>2026-03-29T13:41:24.001Z</time></trkpt><trkpt lat="45.3900212245718" lon="9.40298618266628"><ele>91.0</ele><time>2026-03-29T13:41:26.001Z</time></trkpt><trkpt lat="45.38988904367249" lon="9.402991183177202"><ele>91.0</ele><time>2026-03-29T13:41:28.001Z</time></trkpt><trkpt lat="45.38979744248901" lon="9.402980406254878"><ele>91.0</ele><time>2026-03-29T13:41:29.001Z</time></trkpt><trkpt lat="45.38968770522829" lon="9.402975031115664"><ele>91.25</ele><time>2026-03-29T13:41:30.001Z</time></trkpt><trkpt lat="45.38956621066722" lon="9.40296838186528"><ele>91.5</ele><time>2026-03-29T13:41:31.001Z</time></trkpt><trkpt lat="45.3894392921787" lon="9.402963867908236"><ele>91.75</ele><time>2026-03-29T13:41:32.001Z</time></trkpt><trkpt lat="45.38929846638404" lon="9.402953056143653"><ele>92.0</ele><time>2026-03-29T13:41:33.001Z</time></trkpt><trkpt lat="45.38916947045558" lon="9.402934398490672"><ele>92.0</ele><time>2026-03-29T13:41:34.001Z</time></trkpt><trkpt lat="45.38905555120929" lon="9.402914630565173"><ele>92.0</ele><time>2026-03-29T13:41:35.001Z</time></trkpt><trkpt lat="45.38894215399708" lon="9.402894194202037"><ele>92.0</ele><time>2026-03-29T13:41:36.001Z</time></trkpt><trkpt lat="45.38882567153245" lon="9.40287848844728"><ele>92.0</ele><time>2026-03-29T13:41:37Z</time></trkpt><trkpt lat="45.38870961371897" lon="9.402870677875054"><ele>92.0</ele><time>2026-03-29T13:41:38Z</time></trkpt><trkpt lat="45.388598768799675" lon="9.402872956994306"><ele>92.0</ele><time>2026-03-29T13:41:39Z</time></trkpt><trkpt lat="45.38849388998071" lon="9.402874430614833"><ele>92.0</ele><time>2026-03-29T13:41:40Z</time></trkpt><trkpt lat="45.388400557566506" lon="9.402874599341494"><ele>92.0</ele><time>2026-03-29T13:41:41Z</time></trkpt><trkpt lat="45.3883166053958" lon="9.40287674334382"><ele>92.0</ele><time>2026-03-29T13:41:42Z</time></trkpt><trkpt lat="45.388250513842735" lon="9.402880424294253"><ele>92.0</ele><time>2026-03-29T13:41:43Z</time></trkpt><trkpt lat="45.388182570491395" lon="9.402882963713473"><ele>92.0</ele><time>2026-03-29T13:41:44Z</time></trkpt><trkpt lat="45.388087522800724" lon="9.402878293947598"><ele>92.0</ele><time>2026-03-29T13:41:46Z</time></trkpt><trkpt lat="45.388012833664405" lon="9.402865791422734"><ele>92.0</ele><time>2026-03-29T13:41:48Z</time></trkpt><trkpt lat="45.38796108939877" lon="9.402808027959395"><ele>92.0</ele><time>2026-03-29T13:41:50Z</time></trkpt><trkpt lat="45.38795599637389" lon="9.40270464118214"><ele>92.0</ele><time>2026-03-29T13:41:52Z</time></trkpt><trkpt lat="45.38798137823104" lon="9.402550487397376"><ele>92.0</ele><time>2026-03-29T13:41:54Z</time></trkpt><trkpt lat="45.38798089126193" lon="9.40244990508346"><ele>92.0</ele><time>2026-03-29T13:41:55Z</time></trkpt><trkpt lat="45.38797050152984" lon="9.402341702130876"><ele>92.0</ele><time>2026-03-29T13:41:56Z</time></trkpt><trkpt lat="45.387961137230086" lon="9.402218420242708"><ele>92.0</ele><time>2026-03-29T13:41:57Z</time></trkpt><trkpt lat="45.387951742796325" lon="9.402093646718848"><ele>92.0</ele><time>2026-03-29T13:41:58Z</time></trkpt><trkpt lat="45.38794013834232" lon="9.401963092338406"><ele>92.0</ele><time>2026-03-29T13:41:59Z</time></trkpt><trkpt lat="45.38792354088411" lon="9.401832493590268"><ele>91.8</ele><time>2026-03-29T13:42:00Z</time></trkpt><trkpt lat="45.38790954325665" lon="9.401704652124964"><ele>91.6</ele><time>2026-03-29T13:42:01Z</time></trkpt><trkpt lat="45.38789952980402" lon="9.401573174467126"><ele>91.39999999999999</ele><time>2026-03-29T13:42:02Z</time></trkpt><trkpt lat="45.38788934447291" lon="9.401443860708401"><ele>91.19999999999999</ele><time>2026-03-29T13:42:03Z</time></trkpt><trkpt lat="45.38787870687817" lon="9.401317109392066"><ele>91.0</ele><time>2026-03-29T13:42:04Z</time></trkpt><trkpt lat="45.3878660753405" lon="9.401193848754618"><ele>91.4</ele><time>2026-03-29T13:42:05Z</time></trkpt><trkpt lat="45.38785190532486" lon="9.401072435376378"><ele>91.8</ele><time>2026-03-29T13:42:06Z</time></trkpt><trkpt lat="45.387837434726535" lon="9.400963487202368"><ele>92.2</ele><time>2026-03-29T13:42:07Z</time></trkpt><trkpt lat="45.387825845684034" lon="9.400862079996624"><ele>92.60000000000001</ele><time>2026-03-29T13:42:08Z</time></trkpt><trkpt lat="45.387817736305706" lon="9.400690674013351"><ele>93.0</ele><time>2026-03-29T13:42:10Z</time></trkpt><trkpt lat="45.387851724342234" lon="9.400539930996741"><ele>92.71428571428572</ele><time>2026-03-29T13:42:12Z</time></trkpt><trkpt lat="45.38789899252019" lon="9.400472876145864"><ele>92.42857142857143</ele><time>2026-03-29T13:42:13Z</time></trkpt><trkpt lat="45.387967779731355" lon="9.400388374818915"><ele>92.14285714285714</ele><time>2026-03-29T13:42:14Z</time></trkpt><trkpt lat="45.38803056852218" lon="9.400301522363531"><ele>91.85714285714286</ele><time>2026-03-29T13:42:15Z</time></trkpt><trkpt lat="45.38805724851911" lon="9.400217680668367"><ele>91.57142857142857</ele><time>2026-03-29T13:42:16Z</time></trkpt><trkpt lat="45.38805982436512" lon="9.400120468849876"><ele>91.28571428571429</ele><time>2026-03-29T13:42:17Z</time></trkpt><trkpt lat="45.38804207214538" lon="9.400023425110582"><ele>91.0</ele><time>2026-03-29T13:42:18Z</time></trkpt><trkpt lat="45.38802544370464" lon="9.399897606690795"><ele>91.0</ele><time>2026-03-29T13:42:19Z</time></trkpt><trkpt lat="45.38801034755603" lon="9.399762133150388"><ele>91.0</ele><time>2026-03-29T13:42:20Z</time></trkpt><trkpt lat="45.388005174072624" lon="9.399637192210712"><ele>91.0</ele><time>2026-03-29T13:42:21Z</time></trkpt><trkpt lat="45.38799707541011" lon="9.399500701492997"><ele>91.0</ele><time>2026-03-29T13:42:22Z</time></trkpt><trkpt lat="45.38798886142904" lon="9.399377748749442"><ele>91.0</ele><time>2026-03-29T13:42:23Z</time></trkpt><trkpt lat="45.38798183450759" lon="9.399275749464188"><ele>91.0</ele><time>2026-03-29T13:42:24Z</time></trkpt><trkpt lat="45.387980000848394" lon="9.399167403078872"><ele>91.0</ele><time>2026-03-29T13:42:25Z</time></trkpt><trkpt lat="45.38798521709898" lon="9.39906485443622"><ele>91.0</ele><time>2026-03-29T13:42:26Z</time></trkpt><trkpt lat="45.38800771474019" lon="9.39897028399328"><ele>91.0</ele><time>2026-03-29T13:42:27Z</time></trkpt><trkpt lat="45.3880442525527" lon="9.398879623938935"><ele>91.0</ele><time>2026-03-29T13:42:28Z</time></trkpt><trkpt lat="45.3880948563032" lon="9.398799757075944"><ele>91.0</ele><time>2026-03-29T13:42:29Z</time></trkpt><trkpt lat="45.388154940160256" lon="9.398729023163384"><ele>91.0</ele><time>2026-03-29T13:42:30Z</time></trkpt><trkpt lat="45.388218602285086" lon="9.398655837399536"><ele>91.16666666666666</ele><time>2026-03-29T13:42:31Z</time></trkpt><trkpt lat="45.38827978971306" lon="9.39858030329784"><ele>91.33333333333333</ele><time>2026-03-29T13:42:32Z</time></trkpt><trkpt lat="45.38834569468136" lon="9.398509541082314"><ele>91.5</ele><time>2026-03-29T13:42:33Z</time></trkpt><trkpt lat="45.38840414239735" lon="9.39845954448404"><ele>91.66666666666667</ele><time>2026-03-29T13:42:34Z</time></trkpt><trkpt lat="45.38846295720551" lon="9.398427265451708"><ele>91.83333333333334</ele><time>2026-03-29T13:42:35Z</time></trkpt><trkpt lat="45.388539712009724" lon="9.398363351147417"><ele>92.0</ele><time>2026-03-29T13:42:37Z</time></trkpt><trkpt lat="45.38856637891013" lon="9.398264770704506"><ele>92.0</ele><time>2026-03-29T13:42:39Z</time></trkpt><trkpt lat="45.38857648630923" lon="9.398119554974347"><ele>92.0</ele><time>2026-03-29T13:42:41Z</time></trkpt><trkpt lat="45.38856471555578" lon="9.39802149105835"><ele>92.0</ele><time>2026-03-29T13:42:42Z</time></trkpt><trkpt lat="45.388545830452024" lon="9.397898162774592"><ele>92.0</ele><time>2026-03-29T13:42:43Z</time></trkpt><trkpt lat="45.388532649935016" lon="9.397789124450641"><ele>92.0</ele><time>2026-03-29T13:42:44Z</time></trkpt><trkpt lat="45.38851854560791" lon="9.397671251125571"><ele>92.0</ele><time>2026-03-29T13:42:45Z</time></trkpt><trkpt lat="45.388507394977914" lon="9.397566697470353"><ele>91.83333333333334</ele><time>2026-03-29T13:42:46Z</time></trkpt><trkpt lat="45.38849560411922" lon="9.397458637202359"><ele>91.66666666666667</ele><time>2026-03-29T13:42:47Z</time></trkpt><trkpt lat="45.38849062548435" lon="9.397363575461315"><ele>91.5</ele><time>2026-03-29T13:42:48Z</time></trkpt><trkpt lat="45.38848179148685" lon="9.397267878153281"><ele>91.33333333333333</ele><time>2026-03-29T13:42:49Z</time></trkpt><trkpt lat="45.38846722705528" lon="9.397106224693749"><ele>91.16666666666666</ele><time>2026-03-29T13:42:51Z</time></trkpt><trkpt lat="45.38841993446954" lon="9.396991266145424"><ele>91.0</ele><time>2026-03-29T13:42:53Z</time></trkpt><trkpt lat="45.38833461123761" lon="9.397002648612963"><ele>91.0</ele><time>2026-03-29T13:42:55Z</time></trkpt><trkpt lat="45.388231351574674" lon="9.397051227374284"><ele>91.0</ele><time>2026-03-29T13:42:57Z</time></trkpt><trkpt lat="45.38815889471524" lon="9.39705830554876"><ele>91.0</ele><time>2026-03-29T13:42:58Z</time></trkpt><trkpt lat="45.38808618990418" lon="9.397067653313771"><ele>91.0</ele><time>2026-03-29T13:42:59Z</time></trkpt><trkpt lat="45.388007907201725" lon="9.3970821512536"><ele>91.0</ele><time>2026-03-29T13:43:00Z</time></trkpt><trkpt lat="45.387936359383545" lon="9.397094578875652"><ele>91.0</ele><time>2026-03-29T13:43:01Z</time></trkpt><trkpt lat="45.38786538123469" lon="9.397108155586936"><ele>91.0</ele><time>2026-03-29T13:43:02Z</time></trkpt><trkpt lat="45.387794476766835" lon="9.397124829528707"><ele>91.0</ele><time>2026-03-29T13:43:03Z</time></trkpt><trkpt lat="45.387726811437496" lon="9.397140058042002"><ele>91.0</ele><time>2026-03-29T13:43:04Z</time></trkpt><trkpt lat="45.387657728166566" lon="9.397151729873006"><ele>91.0</ele><time>2026-03-29T13:43:05Z</time></trkpt><trkpt lat="45.387587528599965" lon="9.397160936518137"><ele>91.0</ele><time>2026-03-29T13:43:06Z</time></trkpt><trkpt lat="45.38751679874988" lon="9.397185234540427"><ele>91.0</ele><time>2026-03-29T13:43:07.001Z</time></trkpt><trkpt lat="45.38744740336478" lon="9.397215014473531"><ele>91.0</ele><time>2026-03-29T13:43:08.001Z</time></trkpt><trkpt lat="45.387326724253874" lon="9.39724179966616"><ele>90.83333333333333</ele><time>2026-03-29T13:43:10.001Z</time></trkpt><trkpt lat="45.38725619382233" lon="9.397254009060145"><ele>90.66666666666666</ele><time>2026-03-29T13:43:11.001Z</time></trkpt><trkpt lat="45.387184041458845" lon="9.397259141147854"><ele>90.5</ele><time>2026-03-29T13:43:12.001Z</time></trkpt><trkpt lat="45.38710820710347" lon="9.397261797024646"><ele>90.33333333333333</ele><time>2026-03-29T13:43:13.001Z</time></trkpt><trkpt lat="45.3870298997899" lon="9.397271323691584"><ele>90.16666666666667</ele><time>2026-03-29T13:43:14.001Z</time></trkpt><trkpt lat="45.38693803658379" lon="9.397289944024378"><ele>90.0</ele><time>2026-03-29T13:43:15.001Z</time></trkpt><trkpt lat="45.386827554285965" lon="9.397321179690481"><ele>90.0</ele><time>2026-03-29T13:43:16.001Z</time></trkpt><trkpt lat="45.386718006649545" lon="9.397340216760046"><ele>90.0</ele><time>2026-03-29T13:43:17.001Z</time></trkpt><trkpt lat="45.38660030041622" lon="9.397364483268646"><ele>90.0</ele><time>2026-03-29T13:43:18.001Z</time></trkpt><trkpt lat="45.38647310401459" lon="9.397389575539576"><ele>90.0</ele><time>2026-03-29T13:43:19.001Z</time></trkpt><trkpt lat="45.38633376111042" lon="9.39743671047602"><ele>90.0</ele><time>2026-03-29T13:43:20.001Z</time></trkpt><trkpt lat="45.38619941234553" lon="9.397458438405415"><ele>90.0</ele><time>2026-03-29T13:43:21.001Z</time></trkpt><trkpt lat="45.38606409502134" lon="9.39748925478274"><ele>90.0</ele><time>2026-03-29T13:43:22.001Z</time></trkpt><trkpt lat="45.385923343172266" lon="9.397522380012589"><ele>90.0</ele><time>2026-03-29T13:43:23.001Z</time></trkpt><trkpt lat="45.385792300713746" lon="9.397545239217838"><ele>90.0</ele><time>2026-03-29T13:43:24.001Z</time></trkpt><trkpt lat="45.3856677152296" lon="9.39757203284327"><ele>90.0</ele><time>2026-03-29T13:43:25.001Z</time></trkpt><trkpt lat="45.38554202342615" lon="9.397595400808594"><ele>90.0</ele><time>2026-03-29T13:43:26.001Z</time></trkpt><trkpt lat="45.38542632013905" lon="9.397608197562674"><ele>90.0</ele><time>2026-03-29T13:43:27.001Z</time></trkpt><trkpt lat="45.385309041576626" lon="9.397635855100127"><ele>90.2</ele><time>2026-03-29T13:43:28.001Z</time></trkpt><trkpt lat="45.38519914346867" lon="9.397660546015318"><ele>90.4</ele><time>2026-03-29T13:43:29.001Z</time></trkpt><trkpt lat="45.3851011135294" lon="9.397681377373619"><ele>90.6</ele><time>2026-03-29T13:43:30.001Z</time></trkpt><trkpt lat="45.385005548622374" lon="9.397706638587184"><ele>90.8</ele><time>2026-03-29T13:43:31.001Z</time></trkpt><trkpt lat="45.384916606833166" lon="9.397723080780235"><ele>91.0</ele><time>2026-03-29T13:43:32.001Z</time></trkpt><trkpt lat="45.38483579858755" lon="9.397740782428995"><ele>91.0</ele><time>2026-03-29T13:43:33.001Z</time></trkpt><trkpt lat="45.38476541346549" lon="9.397765232305812"><ele>91.0</ele><time>2026-03-29T13:43:34.001Z</time></trkpt><trkpt lat="45.38470845984788" lon="9.397814191431914"><ele>91.0</ele><time>2026-03-29T13:43:35.001Z</time></trkpt><trkpt lat="45.384638113521575" lon="9.397923958254477"><ele>91.0</ele><time>2026-03-29T13:43:37.001Z</time></trkpt><trkpt lat="45.38465489814581" lon="9.3980621350938"><ele>91.0</ele><time>2026-03-29T13:43:39.001Z</time></trkpt><trkpt lat="45.38468943622508" lon="9.398161601728173"><ele>91.0</ele><time>2026-03-29T13:43:40.001Z</time></trkpt><trkpt lat="45.384716865681284" lon="9.398281480105522"><ele>90.8</ele><time>2026-03-29T13:43:41.001Z</time></trkpt><trkpt lat="45.384735219104726" lon="9.398418647861662"><ele>90.6</ele><time>2026-03-29T13:43:42.001Z</time></trkpt><trkpt lat="45.384751659899905" lon="9.398554874221457"><ele>90.4</ele><time>2026-03-29T13:43:43Z</time></trkpt><trkpt lat="45.384776064020635" lon="9.39869391762586"><ele>90.2</ele><time>2026-03-29T13:43:44Z</time></trkpt><trkpt lat="45.38480531222172" lon="9.39883698764475"><ele>90.0</ele><time>2026-03-29T13:43:45Z</time></trkpt><trkpt lat="45.384833854062194" lon="9.398988533254595"><ele>90.0</ele><time>2026-03-29T13:43:46Z</time></trkpt><trkpt lat="45.38485019236599" lon="9.39913997756431"><ele>90.0</ele><time>2026-03-29T13:43:47Z</time></trkpt><trkpt lat="45.384867237127075" lon="9.399298291797068"><ele>90.0</ele><time>2026-03-29T13:43:48Z</time></trkpt><trkpt lat="45.384894257522724" lon="9.399459942728917"><ele>90.0</ele><time>2026-03-29T13:43:49Z</time></trkpt><trkpt lat="45.38492288313247" lon="9.399630033193473"><ele>90.25</ele><time>2026-03-29T13:43:50Z</time></trkpt><trkpt lat="45.384954236270026" lon="9.399800526855053"><ele>90.5</ele><time>2026-03-29T13:43:51Z</time></trkpt><trkpt lat="45.38498277790704" lon="9.399976856034291"><ele>90.75</ele><time>2026-03-29T13:43:52Z</time></trkpt><trkpt lat="45.38501135204358" lon="9.400151524644428"><ele>91.0</ele><time>2026-03-29T13:43:53Z</time></trkpt><trkpt lat="45.385039996332665" lon="9.400332354465212"><ele>91.0</ele><time>2026-03-29T13:43:54Z</time></trkpt><trkpt lat="45.38506511709433" lon="9.400511230132814"><ele>91.0</ele><time>2026-03-29T13:43:55Z</time></trkpt><trkpt lat="45.38508857744557" lon="9.400695427265639"><ele>91.0</ele><time>2026-03-29T13:43:56Z</time></trkpt><trkpt lat="45.3851093588096" lon="9.400874480446776"><ele>91.0</ele><time>2026-03-29T13:43:57Z</time></trkpt><trkpt lat="45.38512700393795" lon="9.401059372250993"><ele>91.0</ele><time>2026-03-29T13:43:58Z</time></trkpt><trkpt lat="45.38514242971214" lon="9.401247740912124"><ele>91.0</ele><time>2026-03-29T13:43:59Z</time></trkpt><trkpt lat="45.38516754551416" lon="9.40142941033185"><ele>91.0</ele><time>2026-03-29T13:44:00Z</time></trkpt><trkpt lat="45.38520086613265" lon="9.401610793294934"><ele>91.0</ele><time>2026-03-29T13:44:01Z</time></trkpt><trkpt lat="45.38522678903248" lon="9.401787101283222"><ele>91.0</ele><time>2026-03-29T13:44:02Z</time></trkpt><trkpt lat="45.38524940649515" lon="9.401972182720021"><ele>91.0</ele><time>2026-03-29T13:44:03Z</time></trkpt><trkpt lat="45.385277659596255" lon="9.402144366002908"><ele>91.0</ele><time>2026-03-29T13:44:04Z</time></trkpt><trkpt lat="45.38530163880987" lon="9.402313768585039"><ele>91.0</ele><time>2026-03-29T13:44:05Z</time></trkpt><trkpt lat="45.38531958755212" lon="9.402469292062795"><ele>91.0</ele><time>2026-03-29T13:44:06Z</time></trkpt><trkpt lat="45.38533633862544" lon="9.402604339721506"><ele>91.0</ele><time>2026-03-29T13:44:07Z</time></trkpt><trkpt lat="45.38535110511251" lon="9.40272920118121"><ele>91.0</ele><time>2026-03-29T13:44:08Z</time></trkpt><trkpt lat="45.38535883003193" lon="9.402845528234547"><ele>91.0</ele><time>2026-03-29T13:44:09Z</time></trkpt><trkpt lat="45.385360452152284" lon="9.402936259039151"><ele>91.0</ele><time>2026-03-29T13:44:10Z</time></trkpt><trkpt lat="45.385335320049315" lon="9.403040053558437"><ele>91.0</ele><time>2026-03-29T13:44:12Z</time></trkpt><trkpt lat="45.38524609271121" lon="9.403086545776548"><ele>91.19999999999999</ele><time>2026-03-29T13:44:14Z</time></trkpt><trkpt lat="45.385167109390345" lon="9.403080115706295"><ele>91.39999999999999</ele><time>2026-03-29T13:44:15Z</time></trkpt><trkpt lat="45.3850720660864" lon="9.403060169205535"><ele>91.6</ele><time>2026-03-29T13:44:16Z</time></trkpt><trkpt lat="45.384964495095716" lon="9.4030442356799"><ele>91.8</ele><time>2026-03-29T13:44:17Z</time></trkpt><trkpt lat="45.38483964746573" lon="9.403031744405373"><ele>92.0</ele><time>2026-03-29T13:44:18Z</time></trkpt><trkpt lat="45.38471305631744" lon="9.403017756255615"><ele>91.75</ele><time>2026-03-29T13:44:19Z</time></trkpt><trkpt lat="45.38457597869557" lon="9.402999407287787"><ele>91.5</ele><time>2026-03-29T13:44:20Z</time></trkpt><trkpt lat="45.38443513175977" lon="9.402968975885681"><ele>91.25</ele><time>2026-03-29T13:44:21Z</time></trkpt><trkpt lat="45.38429144992228" lon="9.402943960928074"><ele>91.0</ele><time>2026-03-29T13:44:22Z</time></trkpt><trkpt lat="45.38414598603461" lon="9.402935836335109"><ele>91.0</ele><time>2026-03-29T13:44:23Z</time></trkpt><trkpt lat="45.38399801379286" lon="9.402936232033086"><ele>91.0</ele><time>2026-03-29T13:44:24Z</time></trkpt><trkpt lat="45.383849129838005" lon="9.40294073178473"><ele>91.0</ele><time>2026-03-29T13:44:25Z</time></trkpt><trkpt lat="45.38370645631694" lon="9.402944673006745"><ele>91.0</ele><time>2026-03-29T13:44:26Z</time></trkpt><trkpt lat="45.38357293070977" lon="9.402948755831934"><ele>91.0</ele><time>2026-03-29T13:44:27Z</time></trkpt><trkpt lat="45.38344802659952" lon="9.402961741739915"><ele>91.0</ele><time>2026-03-29T13:44:28Z</time></trkpt><trkpt lat="45.38332188143985" lon="9.402989287747172"><ele>91.0</ele><time>2026-03-29T13:44:29Z</time></trkpt><trkpt lat="45.38319850088713" lon="9.403009969818026"><ele>91.0</ele><time>2026-03-29T13:44:30Z</time></trkpt><trkpt lat="45.383079209216824" lon="9.403018053075233"><ele>91.0</ele><time>2026-03-29T13:44:31Z</time></trkpt><trkpt lat="45.38297087845941" lon="9.403014165546864"><ele>91.0</ele><time>2026-03-29T13:44:32Z</time></trkpt><trkpt lat="45.38286000137094" lon="9.403002676084455"><ele>91.0</ele><time>2026-03-29T13:44:33Z</time></trkpt><trkpt lat="45.382742935648004" lon="9.402982236974832"><ele>91.0</ele><time>2026-03-29T13:44:34Z</time></trkpt><trkpt lat="45.382619564729204" lon="9.402960138139786"><ele>91.0</ele><time>2026-03-29T13:44:35Z</time></trkpt><trkpt lat="45.38249387832942" lon="9.402942532672656"><ele>91.0</ele><time>2026-03-29T13:44:36Z</time></trkpt><trkpt lat="45.38237031906954" lon="9.402944276334017"><ele>91.0</ele><time>2026-03-29T13:44:37Z</time></trkpt><trkpt lat="45.38225023333443" lon="9.402955463942824"><ele>91.0</ele><time>2026-03-29T13:44:38Z</time></trkpt><trkpt lat="45.382131274487996" lon="9.402974991352599"><ele>91.0</ele><time>2026-03-29T13:44:39Z</time></trkpt><trkpt lat="45.38201180471211" lon="9.402989371253978"><ele>91.0</ele><time>2026-03-29T13:44:40Z</time></trkpt><trkpt lat="45.3818897082598" lon="9.402991668973876"><ele>91.0</ele><time>2026-03-29T13:44:41Z</time></trkpt><trkpt lat="45.38177147547466" lon="9.402991184044845"><ele>91.0</ele><time>2026-03-29T13:44:42Z</time></trkpt><trkpt lat="45.38164983639308" lon="9.402985511125852"><ele>91.0</ele><time>2026-03-29T13:44:43Z</time></trkpt><trkpt lat="45.38153078193139" lon="9.402967667417991"><ele>91.0</ele><time>2026-03-29T13:44:44Z</time></trkpt><trkpt lat="45.38140944668206" lon="9.402937948644633"><ele>91.0</ele><time>2026-03-29T13:44:45Z</time></trkpt><trkpt lat="45.38129001962299" lon="9.402907482750878"><ele>91.0</ele><time>2026-03-29T13:44:46Z</time></trkpt><trkpt lat="45.38116834823274" lon="9.402882647461768"><ele>90.6</ele><time>2026-03-29T13:44:47Z</time></trkpt><trkpt lat="45.381053867810586" lon="9.402859631163349"><ele>90.19999999999999</ele><time>2026-03-29T13:44:48Z</time></trkpt><trkpt lat="45.38094264682265" lon="9.402839910609366"><ele>89.80000000000001</ele><time>2026-03-29T13:44:49Z</time></trkpt><trkpt lat="45.380833542462874" lon="9.402821788264779"><ele>89.4</ele><time>2026-03-29T13:44:50Z</time></trkpt><trkpt lat="45.3807238652879" lon="9.402792879348956"><ele>89.0</ele><time>2026-03-29T13:44:51Z</time></trkpt><trkpt lat="45.38060788109452" lon="9.40274850122874"><ele>89.4</ele><time>2026-03-29T13:44:52Z</time></trkpt><trkpt lat="45.38050368015012" lon="9.402700214113917"><ele>89.80000000000001</ele><time>2026-03-29T13:44:53Z</time></trkpt><trkpt lat="45.38039938647143" lon="9.402647819093435"><ele>90.19999999999999</ele><time>2026-03-29T13:44:54Z</time></trkpt><trkpt lat="45.380300260635494" lon="9.40258571458874"><ele>90.6</ele><time>2026-03-29T13:44:55Z</time></trkpt><trkpt lat="45.3801997289438" lon="9.402524878818262"><ele>91.0</ele><time>2026-03-29T13:44:56Z</time></trkpt><trkpt lat="45.38009661438886" lon="9.402479053083585"><ele>91.0</ele><time>2026-03-29T13:44:57Z</time></trkpt><trkpt lat="45.38000169549104" lon="9.402450552533653"><ele>91.0</ele><time>2026-03-29T13:44:58Z</time></trkpt><trkpt lat="45.37992023045903" lon="9.402435570774621"><ele>91.0</ele><time>2026-03-29T13:44:59Z</time></trkpt><trkpt lat="45.37984198442405" lon="9.402415431306357"><ele>91.0</ele><time>2026-03-29T13:45:00Z</time></trkpt><trkpt lat="45.379770513036924" lon="9.402394816408613"><ele>91.0</ele><time>2026-03-29T13:45:01Z</time></trkpt><trkpt lat="45.379694678236554" lon="9.4023784340208"><ele>91.0</ele><time>2026-03-29T13:45:02Z</time></trkpt><trkpt lat="45.37961783581114" lon="9.402365017303852"><ele>91.16666666666666</ele><time>2026-03-29T13:45:03Z</time></trkpt><trkpt lat="45.379540251449775" lon="9.402350505663776"><ele>91.33333333333333</ele><time>2026-03-29T13:45:04Z</time></trkpt><trkpt lat="45.379465322161934" lon="9.402334788323312"><ele>91.5</ele><time>2026-03-29T13:45:05Z</time></trkpt><trkpt lat="45.37938741820269" lon="9.40231802592315"><ele>91.66666666666667</ele><time>2026-03-29T13:45:06Z</time></trkpt><trkpt lat="45.37931189917456" lon="9.402304411700541"><ele>91.83333333333334</ele><time>2026-03-29T13:45:07Z</time></trkpt><trkpt lat="45.37923946260153" lon="9.402290346124932"><ele>92.0</ele><time>2026-03-29T13:45:08Z</time></trkpt><trkpt lat="45.37916892748477" lon="9.402276559360724"><ele>92.0</ele><time>2026-03-29T13:45:09Z</time></trkpt><trkpt lat="45.37910371737267" lon="9.402262693895052"><ele>92.0</ele><time>2026-03-29T13:45:10Z</time></trkpt><trkpt lat="45.379036916679894" lon="9.402250959474163"><ele>92.0</ele><time>2026-03-29T13:45:11Z</time></trkpt><trkpt lat="45.37891810091122" lon="9.402209813964747"><ele>92.0</ele><time>2026-03-29T13:45:13Z</time></trkpt><trkpt lat="45.37881337113903" lon="9.402141081025368"><ele>92.0</ele><time>2026-03-29T13:45:15Z</time></trkpt><trkpt lat="45.378700468891246" lon="9.402071745761642"><ele>91.57142857142857</ele><time>2026-03-29T13:45:17Z</time></trkpt><trkpt lat="45.3786394166857" lon="9.402037389473357"><ele>91.14285714285714</ele><time>2026-03-29T13:45:18Z</time></trkpt><trkpt lat="45.37857529705694" lon="9.402006827887575"><ele>90.71428571428571</ele><time>2026-03-29T13:45:19Z</time></trkpt><trkpt lat="45.37850497099854" lon="9.40198240089523"><ele>90.28571428571428</ele><time>2026-03-29T13:45:20Z</time></trkpt><trkpt lat="45.3784366182601" lon="9.401978998528582"><ele>89.85714285714286</ele><time>2026-03-29T13:45:21Z</time></trkpt><trkpt lat="45.37836203635169" lon="9.401984594921831"><ele>89.42857142857142</ele><time>2026-03-29T13:45:22Z</time></trkpt><trkpt lat="45.378289953585956" lon="9.402002913354849"><ele>89.0</ele><time>2026-03-29T13:45:23Z</time></trkpt><trkpt lat="45.378216923390404" lon="9.40202785879741"><ele>89.0</ele><time>2026-03-29T13:45:24Z</time></trkpt><trkpt lat="45.37814534325264" lon="9.402053518551343"><ele>89.0</ele><time>2026-03-29T13:45:25Z</time></trkpt><trkpt lat="45.3780707065157" lon="9.402086648242271"><ele>89.0</ele><time>2026-03-29T13:45:26Z</time></trkpt><trkpt lat="45.37798109657125" lon="9.402121582753749"><ele>89.0</ele><time>2026-03-29T13:45:27Z</time></trkpt><trkpt lat="45.377888872098936" lon="9.402146685012909"><ele>89.0</ele><time>2026-03-29T13:45:28Z</time></trkpt><trkpt lat="45.37779240625188" lon="9.40216985206394"><ele>89.0</ele><time>2026-03-29T13:45:29Z</time></trkpt><trkpt lat="45.377693445834076" lon="9.402190160839003"><ele>89.4</ele><time>2026-03-29T13:45:30Z</time></trkpt><trkpt lat="45.3776123016692" lon="9.40221154452281"><ele>89.80000000000001</ele><time>2026-03-29T13:45:31Z</time></trkpt><trkpt lat="45.377542241996444" lon="9.402225380882712"><ele>90.19999999999999</ele><time>2026-03-29T13:45:32Z</time></trkpt><trkpt lat="45.37744956552059" lon="9.402227099565101"><ele>90.6</ele><time>2026-03-29T13:45:34Z</time></trkpt><trkpt lat="45.3773770603997" lon="9.402157926059019"><ele>91.0</ele><time>2026-03-29T13:45:36Z</time></trkpt><trkpt lat="45.37733462584899" lon="9.401959466329034"><ele>91.0</ele><time>2026-03-29T13:45:38Z</time></trkpt><trkpt lat="45.37732948787558" lon="9.401830997280511"><ele>91.0</ele><time>2026-03-29T13:45:39Z</time></trkpt><trkpt lat="45.377323477730634" lon="9.401684493657802"><ele>91.0</ele><time>2026-03-29T13:45:40Z</time></trkpt><trkpt lat="45.37731734188099" lon="9.401513540298751"><ele>91.0</ele><time>2026-03-29T13:45:41Z</time></trkpt><trkpt lat="45.377297793792565" lon="9.401327271792699"><ele>91.0</ele><time>2026-03-29T13:45:42Z</time></trkpt><trkpt lat="45.377270709634466" lon="9.401134342210815"><ele>91.0</ele><time>2026-03-29T13:45:43Z</time></trkpt><trkpt lat="45.37725074847334" lon="9.400955819886475"><ele>91.0</ele><time>2026-03-29T13:45:44Z</time></trkpt><trkpt lat="45.377235092414175" lon="9.400791893778472"><ele>91.0</ele><time>2026-03-29T13:45:45Z</time></trkpt><trkpt lat="45.377215121897336" lon="9.400613916194743"><ele>91.0</ele><time>2026-03-29T13:45:46Z</time></trkpt><trkpt lat="45.37719270159747" lon="9.400439566343092"><ele>91.0</ele><time>2026-03-29T13:45:47Z</time></trkpt><trkpt lat="45.37717497038049" lon="9.400251697968141"><ele>91.0</ele><time>2026-03-29T13:45:48Z</time></trkpt><trkpt lat="45.377157000068486" lon="9.400081488609453"><ele>91.0</ele><time>2026-03-29T13:45:49Z</time></trkpt><trkpt lat="45.377139847687836" lon="9.399940380330312"><ele>91.0</ele><time>2026-03-29T13:45:50Z</time></trkpt><trkpt lat="45.3771237480413" lon="9.399815112529781"><ele>91.0</ele><time>2026-03-29T13:45:51Z</time></trkpt><trkpt lat="45.37710554126169" lon="9.39969996442211"><ele>91.0</ele><time>2026-03-29T13:45:52Z</time></trkpt><trkpt lat="45.377084064321785" lon="9.399600481866674"><ele>91.0</ele><time>2026-03-29T13:45:53Z</time></trkpt><trkpt lat="45.37706615986293" lon="9.399513054651324"><ele>91.0</ele><time>2026-03-29T13:45:54Z</time></trkpt><trkpt lat="45.377063728431274" lon="9.399357081663256"><ele>91.0</ele><time>2026-03-29T13:45:56Z</time></trkpt><trkpt lat="45.37711868849117" lon="9.399217843561837"><ele>91.0</ele><time>2026-03-29T13:45:58Z</time></trkpt><trkpt lat="45.377181465039946" lon="9.39908341448265"><ele>91.0</ele><time>2026-03-29T13:46:00Z</time></trkpt><trkpt lat="45.37717375086725" lon="9.398919111729239"><ele>91.0</ele><time>2026-03-29T13:46:02Z</time></trkpt><trkpt lat="45.377147973173905" lon="9.398745966331186"><ele>91.0</ele><time>2026-03-29T13:46:04Z</time></trkpt><trkpt lat="45.37713790519977" lon="9.398652148814573"><ele>91.0</ele><time>2026-03-29T13:46:05Z</time></trkpt><trkpt lat="45.37712717862268" lon="9.398557170598151"><ele>91.0</ele><time>2026-03-29T13:46:06Z</time></trkpt><trkpt lat="45.37711745271538" lon="9.398461199229748"><ele>91.0</ele><time>2026-03-29T13:46:07Z</time></trkpt><trkpt lat="45.37710680851342" lon="9.398358170565523"><ele>91.16666666666666</ele><time>2026-03-29T13:46:08Z</time></trkpt><trkpt lat="45.377092083761475" lon="9.398264590404752"><ele>91.33333333333333</ele><time>2026-03-29T13:46:09Z</time></trkpt><trkpt lat="45.377070848371154" lon="9.398083013122614"><ele>91.5</ele><time>2026-03-29T13:46:11Z</time></trkpt><trkpt lat="45.37705346107818" lon="9.397939994066613"><ele>91.66666666666667</ele><time>2026-03-29T13:46:13Z</time></trkpt><trkpt lat="45.377078673981856" lon="9.397849599317109"><ele>91.83333333333334</ele><time>2026-03-29T13:46:16Z</time></trkpt><trkpt lat="45.37702172731162" lon="9.397776351502547"><ele>92.0</ele><time>2026-03-29T13:47:11Z</time></trkpt><trkpt lat="45.376998276401295" lon="9.39767922731677"><ele>91.8</ele><time>2026-03-29T13:47:13Z</time></trkpt><trkpt lat="45.377044315529076" lon="9.397600255053566"><ele>91.6</ele><time>2026-03-29T13:47:14Z</time></trkpt><trkpt lat="45.37702576996511" lon="9.397444850454836"><ele>91.39999999999999</ele><time>2026-03-29T13:47:16Z</time></trkpt><trkpt lat="45.37700334922915" lon="9.39721168217519"><ele>91.19999999999999</ele><time>2026-03-29T13:47:18Z</time></trkpt><trkpt lat="45.37699560390596" lon="9.397094513538002"><ele>91.0</ele><time>2026-03-29T13:47:19Z</time></trkpt><trkpt lat="45.37699486502366" lon="9.396994817503252"><ele>91.0</ele><time>2026-03-29T13:47:20Z</time></trkpt><trkpt lat="45.37700153015194" lon="9.396901168101138"><ele>91.0</ele><time>2026-03-29T13:47:21Z</time></trkpt><trkpt lat="45.37693231943582" lon="9.39680407752223"><ele>91.0</ele><time>2026-03-29T13:47:22Z</time></trkpt><trkpt lat="45.37690552919943" lon="9.396712148740995"><ele>91.0</ele><time>2026-03-29T13:47:23Z</time></trkpt><trkpt lat="45.37688263698658" lon="9.39661961576168"><ele>91.0</ele><time>2026-03-29T13:47:24Z</time></trkpt><trkpt lat="45.37684716326182" lon="9.396481989106865"><ele>91.0</ele><time>2026-03-29T13:47:26Z</time></trkpt><trkpt lat="45.37679527935761" lon="9.396389767887605"><ele>91.0</ele><time>2026-03-29T13:47:28Z</time></trkpt><trkpt lat="45.3766931047883" lon="9.396416875697147"><ele>91.0</ele><time>2026-03-29T13:47:30Z</time></trkpt><trkpt lat="45.37663351303538" lon="9.396457849814457"><ele>91.0</ele><time>2026-03-29T13:47:31Z</time></trkpt><trkpt lat="45.376568617505285" lon="9.396507972101833"><ele>91.0</ele><time>2026-03-29T13:47:32Z</time></trkpt><trkpt lat="45.37650284594819" lon="9.396543942780015"><ele>91.0</ele><time>2026-03-29T13:47:33Z</time></trkpt><trkpt lat="45.37643260076247" lon="9.396577277567772"><ele>91.0</ele><time>2026-03-29T13:47:34Z</time></trkpt><trkpt lat="45.376355304016144" lon="9.39659917714076"><ele>91.33333333333333</ele><time>2026-03-29T13:47:35Z</time></trkpt><trkpt lat="45.376278621496176" lon="9.396630121564408"><ele>91.66666666666666</ele><time>2026-03-29T13:47:36Z</time></trkpt><trkpt lat="45.376205552087505" lon="9.396665042562631"><ele>92.0</ele><time>2026-03-29T13:47:37Z</time></trkpt><trkpt lat="45.376134315141194" lon="9.396709109828159"><ele>92.33333333333333</ele><time>2026-03-29T13:47:38Z</time></trkpt><trkpt lat="45.37606354391316" lon="9.39674908649116"><ele>92.66666666666667</ele><time>2026-03-29T13:47:39Z</time></trkpt><trkpt lat="45.375989961624384" lon="9.396765527726135"><ele>93.0</ele><time>2026-03-29T13:47:40Z</time></trkpt><trkpt lat="45.37592860883804" lon="9.39680631986494"><ele>93.0</ele><time>2026-03-29T13:47:41Z</time></trkpt><trkpt lat="45.37587044242248" lon="9.396841447458126"><ele>93.0</ele><time>2026-03-29T13:47:42Z</time></trkpt><trkpt lat="45.37576580746675" lon="9.396895527766784"><ele>93.0</ele><time>2026-03-29T13:47:44Z</time></trkpt><trkpt lat="45.37564891140058" lon="9.396931536452978"><ele>93.0</ele><time>2026-03-29T13:47:46Z</time></trkpt><trkpt lat="45.375583755130926" lon="9.396951659705644"><ele>93.0</ele><time>2026-03-29T13:47:47Z</time></trkpt><trkpt lat="45.37545978201644" lon="9.396986633650494"><ele>93.0</ele><time>2026-03-29T13:47:49Z</time></trkpt><trkpt lat="45.37534691921546" lon="9.397014936633937"><ele>93.0</ele><time>2026-03-29T13:47:51Z</time></trkpt><trkpt lat="45.3752423129464" lon="9.397038211347883"><ele>93.0</ele><time>2026-03-29T13:47:53Z</time></trkpt><trkpt lat="45.37513228379728" lon="9.397069112588392"><ele>93.0</ele><time>2026-03-29T13:47:55Z</time></trkpt><trkpt lat="45.37504658103511" lon="9.397084439430897"><ele>93.0</ele><time>2026-03-29T13:47:57Z</time></trkpt><trkpt lat="45.37498240175947" lon="9.397111287386862"><ele>93.0</ele><time>2026-03-29T13:48:00Z</time></trkpt><trkpt lat="45.37492303333031" lon="9.397142968541331"><ele>93.0</ele><time>2026-03-29T13:48:04Z</time></trkpt><trkpt lat="45.374935329835374" lon="9.397362056816586"><ele>93.0</ele><time>2026-03-29T13:48:31Z</time></trkpt><trkpt lat="45.374898724425606" lon="9.397281417133057"><ele>93.0</ele><time>2026-03-29T13:48:56Z</time></trkpt><trkpt lat="45.374935003805305" lon="9.397203428613324"><ele>93.0</ele><time>2026-03-29T13:49:00Z</time></trkpt><trkpt lat="45.374980381305164" lon="9.39712288671172"><ele>93.0</ele><time>2026-03-29T13:49:03Z</time></trkpt><trkpt lat="45.37497710905191" lon="9.396988253345457"><ele>93.0</ele><time>2026-03-29T13:49:05Z</time></trkpt><trkpt lat="45.37499883651459" lon="9.396838246098024"><ele>93.0</ele><time>2026-03-29T13:49:07Z</time></trkpt><trkpt lat="45.37500685488813" lon="9.39669323945861"><ele>93.0</ele><time>2026-03-29T13:49:09Z</time></trkpt><trkpt lat="45.37501494169907" lon="9.396528614992086"><ele>93.0</ele><time>2026-03-29T13:49:11Z</time></trkpt><trkpt lat="45.375014002668195" lon="9.396433007477432"><ele>93.0</ele><time>2026-03-29T13:49:12Z</time></trkpt><trkpt lat="45.375008356851225" lon="9.396269421464932"><ele>93.0</ele><time>2026-03-29T13:49:14Z</time></trkpt><trkpt lat="45.37499178563394" lon="9.396108168394468"><ele>93.0</ele><time>2026-03-29T13:49:16Z</time></trkpt><trkpt lat="45.37495391343964" lon="9.395974469606395"><ele>93.0</ele><time>2026-03-29T13:49:18Z</time></trkpt><trkpt lat="45.37493303160875" lon="9.395844949247405"><ele>93.0</ele><time>2026-03-29T13:49:20Z</time></trkpt><trkpt lat="45.37491085728046" lon="9.395721220205687"><ele>93.0</ele><time>2026-03-29T13:49:22Z</time></trkpt><trkpt lat="45.374899295931165" lon="9.395577725239525"><ele>92.60000000000001</ele><time>2026-03-29T13:49:24Z</time></trkpt><trkpt lat="45.37486370305395" lon="9.395426254073499"><ele>92.2</ele><time>2026-03-29T13:49:26Z</time></trkpt><trkpt lat="45.37484130882234" lon="9.395296807001577"><ele>91.8</ele><time>2026-03-29T13:49:28Z</time></trkpt><trkpt lat="45.37482591078279" lon="9.395170451297597"><ele>91.4</ele><time>2026-03-29T13:49:30Z</time></trkpt><trkpt lat="45.37480841188382" lon="9.395049582363336"><ele>91.0</ele><time>2026-03-29T13:49:32Z</time></trkpt><trkpt lat="45.37479923459744" lon="9.39494041244533"><ele>91.0</ele><time>2026-03-29T13:49:34Z</time></trkpt><trkpt lat="45.37479918682528" lon="9.394815716095744"><ele>91.0</ele><time>2026-03-29T13:49:36Z</time></trkpt><trkpt lat="45.37478842295671" lon="9.394681740398413"><ele>91.0</ele><time>2026-03-29T13:49:38Z</time></trkpt><trkpt lat="45.374778829357965" lon="9.394564324958829"><ele>91.0</ele><time>2026-03-29T13:49:40Z</time></trkpt><trkpt lat="45.374768501094586" lon="9.394464851340897"><ele>91.0</ele><time>2026-03-29T13:49:44Z</time></trkpt><trkpt lat="45.37477649057114" lon="9.394333975790893"><ele>91.0</ele><time>2026-03-29T13:49:54Z</time></trkpt><trkpt lat="45.374778106882225" lon="9.394200469180802"><ele>91.0</ele><time>2026-03-29T13:49:56Z</time></trkpt><trkpt lat="45.3746391703903" lon="9.394124610251975"><ele>91.0</ele><time>2026-03-29T13:49:58Z</time></trkpt><trkpt lat="45.37457425285092" lon="9.39413845838386"><ele>91.0</ele><time>2026-03-29T13:49:59Z</time></trkpt><trkpt lat="45.37451221000182" lon="9.394167338610092"><ele>91.0</ele><time>2026-03-29T13:50:00Z</time></trkpt><trkpt lat="45.3744374819476" lon="9.394192613850834"><ele>91.0</ele><time>2026-03-29T13:50:01Z</time></trkpt><trkpt lat="45.37436452829808" lon="9.394212434417955"><ele>91.0</ele><time>2026-03-29T13:50:02Z</time></trkpt><trkpt lat="45.37429271673475" lon="9.394234585498952"><ele>91.0</ele><time>2026-03-29T13:50:03Z</time></trkpt><trkpt lat="45.3742170156623" lon="9.394260821150233"><ele>91.0</ele><time>2026-03-29T13:50:04Z</time></trkpt><trkpt lat="45.374148050562745" lon="9.394285564268891"><ele>91.0</ele><time>2026-03-29T13:50:05Z</time></trkpt><trkpt lat="45.37407781828543" lon="9.39430930030329"><ele>91.0</ele><time>2026-03-29T13:50:06Z</time></trkpt><trkpt lat="45.37400204029384" lon="9.394336756034388"><ele>91.0</ele><time>2026-03-29T13:50:07Z</time></trkpt><trkpt lat="45.37393100183003" lon="9.394366530943042"><ele>91.0</ele><time>2026-03-29T13:50:08Z</time></trkpt><trkpt lat="45.3738523523535" lon="9.394396298044676"><ele>90.8</ele><time>2026-03-29T13:50:09Z</time></trkpt><trkpt lat="45.37377648418696" lon="9.394423145957312"><ele>90.6</ele><time>2026-03-29T13:50:10Z</time></trkpt><trkpt lat="45.373705763341206" lon="9.39444937742937"><ele>90.4</ele><time>2026-03-29T13:50:11Z</time></trkpt><trkpt lat="45.373560283368576" lon="9.394501623528564"><ele>90.2</ele><time>2026-03-29T13:50:13Z</time></trkpt><trkpt lat="45.37347774402261" lon="9.394528229587777"><ele>90.0</ele><time>2026-03-29T13:50:14Z</time></trkpt><trkpt lat="45.373386562478174" lon="9.394555098528876"><ele>90.0</ele><time>2026-03-29T13:50:15Z</time></trkpt><trkpt lat="45.373296211789494" lon="9.394589499832522"><ele>90.0</ele><time>2026-03-29T13:50:16Z</time></trkpt><trkpt lat="45.3732115987201" lon="9.394614514924275"><ele>90.0</ele><time>2026-03-29T13:50:17Z</time></trkpt><trkpt lat="45.37313653821892" lon="9.394631409094512"><ele>90.0</ele><time>2026-03-29T13:50:18Z</time></trkpt><trkpt lat="45.373069825360595" lon="9.394644977624905"><ele>90.0</ele><time>2026-03-29T13:50:19Z</time></trkpt><trkpt lat="45.37298073808933" lon="9.394665181714073"><ele>90.0</ele><time>2026-03-29T13:50:21Z</time></trkpt><trkpt lat="45.372917295204644" lon="9.39468552468886"><ele>90.16666666666667</ele><time>2026-03-29T13:50:23Z</time></trkpt><trkpt lat="45.372853773134466" lon="9.39469920792355"><ele>90.33333333333333</ele><time>2026-03-29T13:50:26Z</time></trkpt><trkpt lat="45.3727880406084" lon="9.394738981428773"><ele>90.5</ele><time>2026-03-29T13:50:30Z</time></trkpt><trkpt lat="45.37277788927839" lon="9.394863127128364"><ele>90.66666666666666</ele><time>2026-03-29T13:50:32Z</time></trkpt><trkpt lat="45.37280548276477" lon="9.394962574325323"><ele>90.83333333333333</ele><time>2026-03-29T13:50:33Z</time></trkpt><trkpt lat="45.37283330881241" lon="9.395060996157302"><ele>91.0</ele><time>2026-03-29T13:50:34Z</time></trkpt><trkpt lat="45.37287334171241" lon="9.395230519090662"><ele>91.0</ele><time>2026-03-29T13:50:36Z</time></trkpt><trkpt lat="45.37289708395331" lon="9.39533385019039"><ele>91.0</ele><time>2026-03-29T13:50:37Z</time></trkpt><trkpt lat="45.372924450424584" lon="9.395444539499795"><ele>91.0</ele><time>2026-03-29T13:50:38Z</time></trkpt><trkpt lat="45.37295220538605" lon="9.39555389151732"><ele>91.0</ele><time>2026-03-29T13:50:39Z</time></trkpt><trkpt lat="45.372975196533744" lon="9.39566443410423"><ele>91.0</ele><time>2026-03-29T13:50:40Z</time></trkpt><trkpt lat="45.373000225715785" lon="9.3957796229706"><ele>91.0</ele><time>2026-03-29T13:50:41Z</time></trkpt><trkpt lat="45.37302203176518" lon="9.395902586597657"><ele>91.0</ele><time>2026-03-29T13:50:42Z</time></trkpt><trkpt lat="45.37304009107051" lon="9.39604387739146"><ele>91.0</ele><time>2026-03-29T13:50:43Z</time></trkpt><trkpt lat="45.373046512301414" lon="9.396201471230617"><ele>91.0</ele><time>2026-03-29T13:50:44Z</time></trkpt><trkpt lat="45.37308333826914" lon="9.396345764176504"><ele>91.0</ele><time>2026-03-29T13:50:45Z</time></trkpt><trkpt lat="45.37312042999696" lon="9.396502975031053"><ele>91.0</ele><time>2026-03-29T13:50:46Z</time></trkpt><trkpt lat="45.37316266681937" lon="9.396683476111006"><ele>91.0</ele><time>2026-03-29T13:50:47Z</time></trkpt><trkpt lat="45.373196035303984" lon="9.396595372783624"><ele>91.0</ele><time>2026-03-29T13:50:48Z</time></trkpt><trkpt lat="45.3732237083567" lon="9.39672170213943"><ele>91.0</ele><time>2026-03-29T13:50:49Z</time></trkpt><trkpt lat="45.37324604578559" lon="9.396840262851072"><ele>91.0</ele><time>2026-03-29T13:50:50Z</time></trkpt><trkpt lat="45.373278549964446" lon="9.39695153903115"><ele>91.0</ele><time>2026-03-29T13:50:51Z</time></trkpt><trkpt lat="45.37330574041549" lon="9.397060979804534"><ele>91.0</ele><time>2026-03-29T13:50:52Z</time></trkpt><trkpt lat="45.37332817682477" lon="9.397167935607945"><ele>91.14285714285714</ele><time>2026-03-29T13:50:53Z</time></trkpt><trkpt lat="45.37335176177712" lon="9.397264943771027"><ele>91.28571428571428</ele><time>2026-03-29T13:50:54Z</time></trkpt><trkpt lat="45.37337368645757" lon="9.397363953516107"><ele>91.42857142857143</ele><time>2026-03-29T13:50:55Z</time></trkpt><trkpt lat="45.37339892177333" lon="9.397458201462657"><ele>91.57142857142857</ele><time>2026-03-29T13:50:56Z</time></trkpt><trkpt lat="45.3734215654309" lon="9.397550038737293"><ele>91.71428571428571</ele><time>2026-03-29T13:50:57Z</time></trkpt><trkpt lat="45.37343856171989" lon="9.397652660585646"><ele>91.85714285714286</ele><time>2026-03-29T13:50:58Z</time></trkpt><trkpt lat="45.373459619620306" lon="9.397744071963828"><ele>92.0</ele><time>2026-03-29T13:50:59Z</time></trkpt><trkpt lat="45.37350046394389" lon="9.39791702614127"><ele>92.0</ele><time>2026-03-29T13:51:01Z</time></trkpt><trkpt lat="45.373526167474594" lon="9.398009151664109"><ele>92.0</ele><time>2026-03-29T13:51:02Z</time></trkpt><trkpt lat="45.37354286796122" lon="9.398104843899024"><ele>92.0</ele><time>2026-03-29T13:51:03Z</time></trkpt><trkpt lat="45.37357898167907" lon="9.39826531942822"><ele>92.0</ele><time>2026-03-29T13:51:05Z</time></trkpt><trkpt lat="45.373606201022085" lon="9.398420581634928"><ele>92.0</ele><time>2026-03-29T13:51:07Z</time></trkpt><trkpt lat="45.373643359685275" lon="9.398580967634206"><ele>92.0</ele><time>2026-03-29T13:51:09Z</time></trkpt><trkpt lat="45.373679047856974" lon="9.398729132450132"><ele>92.0</ele><time>2026-03-29T13:51:11Z</time></trkpt><trkpt lat="45.373713431817706" lon="9.398871882629173"><ele>92.0</ele><time>2026-03-29T13:51:13Z</time></trkpt><trkpt lat="45.373735739348746" lon="9.398964495704375"><ele>92.0</ele><time>2026-03-29T13:51:14Z</time></trkpt><trkpt lat="45.373760654231525" lon="9.399067921486656"><ele>92.0</ele><time>2026-03-29T13:51:15Z</time></trkpt><trkpt lat="45.373794755290426" lon="9.399145495109217"><ele>92.0</ele><time>2026-03-29T13:51:16Z</time></trkpt><trkpt lat="45.37380235545477" lon="9.399240951562614"><ele>92.0</ele><time>2026-03-29T13:51:17Z</time></trkpt><trkpt lat="45.373857625861824" lon="9.399415667946977"><ele>92.0</ele><time>2026-03-29T13:51:19Z</time></trkpt><trkpt lat="45.37386733836063" lon="9.399520727373783"><ele>92.0</ele><time>2026-03-29T13:51:20Z</time></trkpt><trkpt lat="45.37386137889312" lon="9.399621755050015"><ele>92.0</ele><time>2026-03-29T13:51:21Z</time></trkpt><trkpt lat="45.37383751456365" lon="9.399713001600622"><ele>92.0</ele><time>2026-03-29T13:51:22Z</time></trkpt><trkpt lat="45.37378713942925" lon="9.399791550566757"><ele>92.0</ele><time>2026-03-29T13:51:23Z</time></trkpt><trkpt lat="45.37374900825884" lon="9.399888793900956"><ele>92.16666666666667</ele><time>2026-03-29T13:51:24Z</time></trkpt><trkpt lat="45.373689050734484" lon="9.399971800696553"><ele>92.33333333333334</ele><time>2026-03-29T13:51:25Z</time></trkpt><trkpt lat="45.373620846825794" lon="9.400044883450908"><ele>92.5</ele><time>2026-03-29T13:51:26Z</time></trkpt><trkpt lat="45.373554703256794" lon="9.40010843988636"><ele>92.66666666666667</ele><time>2026-03-29T13:51:27Z</time></trkpt><trkpt lat="45.37349457948366" lon="9.40016471872983"><ele>92.83333333333333</ele><time>2026-03-29T13:51:28Z</time></trkpt><trkpt lat="45.373436841691074" lon="9.400204429443859"><ele>93.0</ele><time>2026-03-29T13:51:29Z</time></trkpt><trkpt lat="45.37334669452315" lon="9.40024590629023"><ele>93.0</ele><time>2026-03-29T13:51:31Z</time></trkpt><trkpt lat="45.3732515682805" lon="9.400320761246913"><ele>93.0</ele><time>2026-03-29T13:51:33Z</time></trkpt><trkpt lat="45.37315593906051" lon="9.400352836658005"><ele>93.0</ele><time>2026-03-29T13:51:35Z</time></trkpt><trkpt lat="45.37303702501646" lon="9.40039063610639"><ele>93.0</ele><time>2026-03-29T13:51:37Z</time></trkpt><trkpt lat="45.37295754723217" lon="9.400416492272955"><ele>93.0</ele><time>2026-03-29T13:51:38Z</time></trkpt><trkpt lat="45.372883663930956" lon="9.400422051973784"><ele>92.83333333333333</ele><time>2026-03-29T13:51:39Z</time></trkpt><trkpt lat="45.37279685360434" lon="9.400443194265334"><ele>92.66666666666667</ele><time>2026-03-29T13:51:40Z</time></trkpt><trkpt lat="45.37270738294971" lon="9.400475876442847"><ele>92.5</ele><time>2026-03-29T13:51:41Z</time></trkpt><trkpt lat="45.37263012899514" lon="9.400476417288441"><ele>92.33333333333334</ele><time>2026-03-29T13:51:42Z</time></trkpt><trkpt lat="45.372559218890565" lon="9.40047275881978"><ele>92.16666666666667</ele><time>2026-03-29T13:51:43Z</time></trkpt><trkpt lat="45.372484875611384" lon="9.400474637713025"><ele>92.0</ele><time>2026-03-29T13:51:44Z</time></trkpt><trkpt lat="45.37238311378728" lon="9.400477313585387"><ele>92.0</ele><time>2026-03-29T13:51:46Z</time></trkpt><trkpt lat="45.372298957051264" lon="9.400470960516543"><ele>92.0</ele><time>2026-03-29T13:51:48Z</time></trkpt><trkpt lat="45.372178579526825" lon="9.40047485123292"><ele>92.0</ele><time>2026-03-29T13:51:50Z</time></trkpt><trkpt lat="45.37210590975316" lon="9.400477467037621"><ele>92.0</ele><time>2026-03-29T13:51:51Z</time></trkpt><trkpt lat="45.372034245641466" lon="9.400478854709002"><ele>92.0</ele><time>2026-03-29T13:51:52Z</time></trkpt><trkpt lat="45.3719446654429" lon="9.400448170042274"><ele>92.0</ele><time>2026-03-29T13:51:54Z</time></trkpt><trkpt lat="45.37187936752787" lon="9.400448811182091"><ele>91.83333333333334</ele><time>2026-03-29T13:51:56Z</time></trkpt><trkpt lat="45.3718100859547" lon="9.400441019242889"><ele>91.66666666666667</ele><time>2026-03-29T13:51:57Z</time></trkpt><trkpt lat="45.37173385864507" lon="9.40042797945793"><ele>91.5</ele><time>2026-03-29T13:51:58Z</time></trkpt><trkpt lat="45.37166076794613" lon="9.40041569890459"><ele>91.33333333333333</ele><time>2026-03-29T13:51:59Z</time></trkpt><trkpt lat="45.371578604751846" lon="9.400393029839313"><ele>91.16666666666666</ele><time>2026-03-29T13:52:00Z</time></trkpt><trkpt lat="45.37147764971152" lon="9.40043021711861"><ele>91.0</ele><time>2026-03-29T13:52:01Z</time></trkpt><trkpt lat="45.371362553378404" lon="9.400433114519963"><ele>91.0</ele><time>2026-03-29T13:52:02Z</time></trkpt><trkpt lat="45.371238187262875" lon="9.400453614962666"><ele>91.0</ele><time>2026-03-29T13:52:03Z</time></trkpt><trkpt lat="45.371111237422625" lon="9.400494463519523"><ele>91.0</ele><time>2026-03-29T13:52:04Z</time></trkpt><trkpt lat="45.37098924572487" lon="9.400547307785823"><ele>91.0</ele><time>2026-03-29T13:52:05Z</time></trkpt><trkpt lat="45.370864304812955" lon="9.400607571803706"><ele>90.75</ele><time>2026-03-29T13:52:06Z</time></trkpt><trkpt lat="45.3707327647202" lon="9.400669715124076"><ele>90.5</ele><time>2026-03-29T13:52:07Z</time></trkpt><trkpt lat="45.370599333684396" lon="9.400736407742821"><ele>90.25</ele><time>2026-03-29T13:52:08Z</time></trkpt><trkpt lat="45.37046371544968" lon="9.40080541268905"><ele>90.0</ele><time>2026-03-29T13:52:09Z</time></trkpt><trkpt lat="45.37033294214341" lon="9.40088515402287"><ele>89.5</ele><time>2026-03-29T13:52:10Z</time></trkpt><trkpt lat="45.37019677659209" lon="9.400971433316228"><ele>89.0</ele><time>2026-03-29T13:52:11Z</time></trkpt><trkpt lat="45.370062777383644" lon="9.401063457930421"><ele>88.5</ele><time>2026-03-29T13:52:12Z</time></trkpt><trkpt lat="45.36994271119141" lon="9.401144577717318"><ele>88.0</ele><time>2026-03-29T13:52:13Z</time></trkpt><trkpt lat="45.369837375166234" lon="9.401208466326088"><ele>88.0</ele><time>2026-03-29T13:52:14Z</time></trkpt><trkpt lat="45.36973764032839" lon="9.401268703896319"><ele>88.0</ele><time>2026-03-29T13:52:15Z</time></trkpt><trkpt lat="45.3696504033993" lon="9.401315772977552"><ele>88.0</ele><time>2026-03-29T13:52:16Z</time></trkpt><trkpt lat="45.36956997000681" lon="9.401353433208369"><ele>88.0</ele><time>2026-03-29T13:52:17Z</time></trkpt><trkpt lat="45.36949818150522" lon="9.401378153650457"><ele>88.0</ele><time>2026-03-29T13:52:18Z</time></trkpt><trkpt lat="45.369435249299876" lon="9.401396068196682"><ele>88.0</ele><time>2026-03-29T13:52:19Z</time></trkpt><trkpt lat="45.36935229756672" lon="9.401377122454218"><ele>88.25</ele><time>2026-03-29T13:52:21Z</time></trkpt><trkpt lat="45.36934710666123" lon="9.401245826772469"><ele>88.5</ele><time>2026-03-29T13:52:23Z</time></trkpt><trkpt lat="45.369310256159174" lon="9.401034253680432"><ele>88.75</ele><time>2026-03-29T13:52:25Z</time></trkpt><trkpt lat="45.369271971942204" lon="9.400878935139605"><ele>89.0</ele><time>2026-03-29T13:52:26Z</time></trkpt><trkpt lat="45.369242876541094" lon="9.400709223691157"><ele>89.0</ele><time>2026-03-29T13:52:26.999Z</time></trkpt><trkpt lat="45.36922232016182" lon="9.400537394063335"><ele>89.0</ele><time>2026-03-29T13:52:27.999Z</time></trkpt><trkpt lat="45.36918067165157" lon="9.40037938908848"><ele>89.0</ele><time>2026-03-29T13:52:28.999Z</time></trkpt><trkpt lat="45.369161023742436" lon="9.400214105430354"><ele>89.0</ele><time>2026-03-29T13:52:29.999Z</time></trkpt><trkpt lat="45.36913201124423" lon="9.40004834490272"><ele>89.25</ele><time>2026-03-29T13:52:30.999Z</time></trkpt><trkpt lat="45.369116938519134" lon="9.399882066887924"><ele>89.5</ele><time>2026-03-29T13:52:31.999Z</time></trkpt><trkpt lat="45.36908074992668" lon="9.399729408968033"><ele>89.75</ele><time>2026-03-29T13:52:32.999Z</time></trkpt><trkpt lat="45.36905471828278" lon="9.399571407273529"><ele>90.0</ele><time>2026-03-29T13:52:33.999Z</time></trkpt><trkpt lat="45.36903887281622" lon="9.39940584326501"><ele>90.0</ele><time>2026-03-29T13:52:34.999Z</time></trkpt><trkpt lat="45.36899946222954" lon="9.399250912232118"><ele>90.0</ele><time>2026-03-29T13:52:35.999Z</time></trkpt><trkpt lat="45.36897388847782" lon="9.39908794163207"><ele>90.0</ele><time>2026-03-29T13:52:36.999Z</time></trkpt><trkpt lat="45.36895036496911" lon="9.398936847763245"><ele>90.0</ele><time>2026-03-29T13:52:37.999Z</time></trkpt><trkpt lat="45.36892469460893" lon="9.39878522598807"><ele>89.8</ele><time>2026-03-29T13:52:38.999Z</time></trkpt><trkpt lat="45.3688992757167" lon="9.39863260795166"><ele>89.6</ele><time>2026-03-29T13:52:39.999Z</time></trkpt><trkpt lat="45.368873976465174" lon="9.398480799257316"><ele>89.4</ele><time>2026-03-29T13:52:40.999Z</time></trkpt><trkpt lat="45.36884739296174" lon="9.398335634226568"><ele>89.2</ele><time>2026-03-29T13:52:41.999Z</time></trkpt><trkpt lat="45.368826763011356" lon="9.398180570505396"><ele>89.0</ele><time>2026-03-29T13:52:42.999Z</time></trkpt><trkpt lat="45.36881520604422" lon="9.3980213360168"><ele>89.0</ele><time>2026-03-29T13:52:43.999Z</time></trkpt><trkpt lat="45.368793852537465" lon="9.397878937615028"><ele>89.0</ele><time>2026-03-29T13:52:44.999Z</time></trkpt><trkpt lat="45.368759072361705" lon="9.397761413177392"><ele>89.0</ele><time>2026-03-29T13:52:45.999Z</time></trkpt><trkpt lat="45.36874509679953" lon="9.39766748866212"><ele>89.0</ele><time>2026-03-29T13:52:46.999Z</time></trkpt><trkpt lat="45.36871744844584" lon="9.397503248128942"><ele>89.0</ele><time>2026-03-29T13:52:48.999Z</time></trkpt><trkpt lat="45.36870070137398" lon="9.39740042929265"><ele>89.0</ele><time>2026-03-29T13:52:49.999Z</time></trkpt><trkpt lat="45.368642094457414" lon="9.397331235807455"><ele>89.0</ele><time>2026-03-29T13:52:50.999Z</time></trkpt><trkpt lat="45.368599667979446" lon="9.39722832637448"><ele>89.0</ele><time>2026-03-29T13:52:51.999Z</time></trkpt><trkpt lat="45.36863151735924" lon="9.39704704233527"><ele>89.0</ele><time>2026-03-29T13:52:52.999Z</time></trkpt><trkpt lat="45.36861745964758" lon="9.396915328513098"><ele>89.0</ele><time>2026-03-29T13:52:53.999Z</time></trkpt><trkpt lat="45.368605225649766" lon="9.396791409177817"><ele>89.0</ele><time>2026-03-29T13:52:54.999Z</time></trkpt><trkpt lat="45.3685975789423" lon="9.396675555772976"><ele>89.0</ele><time>2026-03-29T13:52:55.999Z</time></trkpt><trkpt lat="45.36827289543873" lon="9.396614942960875"><ele>89.0</ele><time>2026-03-29T13:52:56.999Z</time></trkpt><trkpt lat="45.3685692539669" lon="9.39647065923658"><ele>89.0</ele><time>2026-03-29T13:52:57.999Z</time></trkpt><trkpt lat="45.36855204717754" lon="9.396382395798863"><ele>89.0</ele><time>2026-03-29T13:52:58.999Z</time></trkpt><trkpt lat="45.36853863694535" lon="9.396293756076354"><ele>89.0</ele><time>2026-03-29T13:52:59.999Z</time></trkpt><trkpt lat="45.3685246899551" lon="9.39612638933396"><ele>89.0</ele><time>2026-03-29T13:53:01.999Z</time></trkpt><trkpt lat="45.36849883884897" lon="9.395941061269243"><ele>89.0</ele><time>2026-03-29T13:53:03.999Z</time></trkpt><trkpt lat="45.368478494864625" lon="9.395852614954716"><ele>89.0</ele><time>2026-03-29T13:53:04.999Z</time></trkpt><trkpt lat="45.36845127297327" lon="9.395770199698507"><ele>88.99999999999999</ele><time>2026-03-29T13:53:05.999Z</time></trkpt><trkpt lat="45.368436108857686" lon="9.395667230187255"><ele>89.0</ele><time>2026-03-29T13:53:06.999Z</time></trkpt><trkpt lat="45.368416912817814" lon="9.395566353678053"><ele>89.0</ele><time>2026-03-29T13:53:07.999Z</time></trkpt><trkpt lat="45.36839785938916" lon="9.395478482042858"><ele>89.0</ele><time>2026-03-29T13:53:08.999Z</time></trkpt><trkpt lat="45.368376622222016" lon="9.395390235746135"><ele>89.0</ele><time>2026-03-29T13:53:09.999Z</time></trkpt><trkpt lat="45.3683436062933" lon="9.3952545444972"><ele>88.99999999999999</ele><time>2026-03-29T13:53:11.999Z</time></trkpt><trkpt lat="45.368308787896225" lon="9.39516903822621"><ele>89.0</ele><time>2026-03-29T13:53:13.999Z</time></trkpt><trkpt lat="45.36823606437962" lon="9.395202880201994"><ele>89.0</ele><time>2026-03-29T13:53:18.999Z</time></trkpt><trkpt lat="45.368216843222655" lon="9.39532186862181"><ele>89.0</ele><time>2026-03-29T13:53:19.999Z</time></trkpt><trkpt lat="45.36815214968329" lon="9.395400618811404"><ele>89.0</ele><time>2026-03-29T13:53:20.999Z</time></trkpt><trkpt lat="45.36808412271114" lon="9.395444806302587"><ele>89.0</ele><time>2026-03-29T13:53:21.999Z</time></trkpt><trkpt lat="45.36802906124551" lon="9.395514397759959"><ele>89.0</ele><time>2026-03-29T13:53:22.999Z</time></trkpt><trkpt lat="45.36794189712833" lon="9.39552396227209"><ele>89.0</ele><time>2026-03-29T13:53:23.999Z</time></trkpt><trkpt lat="45.36786232609755" lon="9.39558845825039"><ele>88.80000000000001</ele><time>2026-03-29T13:53:24.999Z</time></trkpt><trkpt lat="45.36777045215245" lon="9.395630571037731"><ele>88.60000000000001</ele><time>2026-03-29T13:53:25.999Z</time></trkpt><trkpt lat="45.36768043345073" lon="9.39567280830092"><ele>88.4</ele><time>2026-03-29T13:53:26.999Z</time></trkpt><trkpt lat="45.36759613134269" lon="9.395717620596177"><ele>88.2</ele><time>2026-03-29T13:53:27.999Z</time></trkpt><trkpt lat="45.36751494128805" lon="9.395753034609161"><ele>88.0</ele><time>2026-03-29T13:53:28.999Z</time></trkpt><trkpt lat="45.36742571926878" lon="9.39575673543926"><ele>88.0</ele><time>2026-03-29T13:53:29.999Z</time></trkpt><trkpt lat="45.3673381748034" lon="9.395754885473105"><ele>88.0</ele><time>2026-03-29T13:53:30.999Z</time></trkpt><trkpt lat="45.36725186149682" lon="9.395747771753665"><ele>88.0</ele><time>2026-03-29T13:53:31.999Z</time></trkpt><trkpt lat="45.36715072316625" lon="9.39575448652381"><ele>88.0</ele><time>2026-03-29T13:53:32.999Z</time></trkpt><trkpt lat="45.367040560735894" lon="9.395726632666209"><ele>88.0</ele><time>2026-03-29T13:53:33.999Z</time></trkpt><trkpt lat="45.36693653945916" lon="9.395705852822946"><ele>87.80000000000001</ele><time>2026-03-29T13:53:34.999Z</time></trkpt><trkpt lat="45.366828555124506" lon="9.395680870136847"><ele>87.6</ele><time>2026-03-29T13:53:35.999Z</time></trkpt><trkpt lat="45.36673006777336" lon="9.395640865295581"><ele>87.4</ele><time>2026-03-29T13:53:36.999Z</time></trkpt><trkpt lat="45.36662312433673" lon="9.395616712174252"><ele>87.19999999999999</ele><time>2026-03-29T13:53:37.999Z</time></trkpt><trkpt lat="45.36652377840825" lon="9.395593632812998"><ele>87.0</ele><time>2026-03-29T13:53:38.999Z</time></trkpt><trkpt lat="45.366427824952474" lon="9.395571341560453"><ele>87.0</ele><time>2026-03-29T13:53:39.999Z</time></trkpt><trkpt lat="45.36632932886701" lon="9.395548459639393"><ele>87.0</ele><time>2026-03-29T13:53:40.999Z</time></trkpt><trkpt lat="45.36622188047415" lon="9.395545580450277"><ele>87.0</ele><time>2026-03-29T13:53:41.999Z</time></trkpt><trkpt lat="45.36611137879151" lon="9.395515136594387"><ele>87.0</ele><time>2026-03-29T13:53:42.999Z</time></trkpt><trkpt lat="45.36601154585943" lon="9.39547518936981"><ele>87.0</ele><time>2026-03-29T13:53:43.999Z</time></trkpt><trkpt lat="45.36591830728405" lon="9.395453746742788"><ele>87.0</ele><time>2026-03-29T13:53:44.999Z</time></trkpt><trkpt lat="45.365826827479" lon="9.395456310598522"><ele>87.0</ele><time>2026-03-29T13:53:45.999Z</time></trkpt><trkpt lat="45.36573876629561" lon="9.395414271836247"><ele>87.0</ele><time>2026-03-29T13:53:46.999Z</time></trkpt><trkpt lat="45.36563781055595" lon="9.395396956652903"><ele>87.0</ele><time>2026-03-29T13:53:47.999Z</time></trkpt><trkpt lat="45.36552517464061" lon="9.395371116650804"><ele>87.0</ele><time>2026-03-29T13:53:48.999Z</time></trkpt><trkpt lat="45.36541587424965" lon="9.395351608902182"><ele>87.5</ele><time>2026-03-29T13:53:49.999Z</time></trkpt><trkpt lat="45.365301259966024" lon="9.39532739769303"><ele>88.0</ele><time>2026-03-29T13:53:50.999Z</time></trkpt><trkpt lat="45.365182709616114" lon="9.3953033206137"><ele>88.5</ele><time>2026-03-29T13:53:51.999Z</time></trkpt><trkpt lat="45.36506496524943" lon="9.395278056512774"><ele>89.0</ele><time>2026-03-29T13:53:52.999Z</time></trkpt><trkpt lat="45.364958111863444" lon="9.39525466528205"><ele>89.0</ele><time>2026-03-29T13:53:53.999Z</time></trkpt><trkpt lat="45.36485496995498" lon="9.395243358632701"><ele>89.0</ele><time>2026-03-29T13:53:54.999Z</time></trkpt><trkpt lat="45.36475465867649" lon="9.395254038923738"><ele>89.0</ele><time>2026-03-29T13:53:55.999Z</time></trkpt><trkpt lat="45.36465483389542" lon="9.395296265230426"><ele>89.0</ele><time>2026-03-29T13:53:56.999Z</time></trkpt><trkpt lat="45.364545129856616" lon="9.395367247817807"><ele>89.0</ele><time>2026-03-29T13:53:57.999Z</time></trkpt><trkpt lat="45.36442059193809" lon="9.395431413109256"><ele>89.0</ele><time>2026-03-29T13:53:58.999Z</time></trkpt><trkpt lat="45.364300039378676" lon="9.395488606640313"><ele>89.0</ele><time>2026-03-29T13:53:59.999Z</time></trkpt><trkpt lat="45.36418551391938" lon="9.395536672300961"><ele>89.0</ele><time>2026-03-29T13:54:00.999Z</time></trkpt><trkpt lat="45.36407300238476" lon="9.395561702821857"><ele>89.0</ele><time>2026-03-29T13:54:01.999Z</time></trkpt><trkpt lat="45.36396755623097" lon="9.39562772261247"><ele>88.6</ele><time>2026-03-29T13:54:02.999Z</time></trkpt><trkpt lat="45.36385771651977" lon="9.395672239492193"><ele>88.2</ele><time>2026-03-29T13:54:03.999Z</time></trkpt><trkpt lat="45.36374823566685" lon="9.395697308558384"><ele>87.8</ele><time>2026-03-29T13:54:04.999Z</time></trkpt><trkpt lat="45.363651408443914" lon="9.395761842610604"><ele>87.39999999999999</ele><time>2026-03-29T13:54:05.999Z</time></trkpt><trkpt lat="45.363541313971844" lon="9.395790432740966"><ele>87.0</ele><time>2026-03-29T13:54:06.999Z</time></trkpt><trkpt lat="45.363430921828204" lon="9.395841144781814"><ele>87.0</ele><time>2026-03-29T13:54:07.999Z</time></trkpt><trkpt lat="45.36332348549938" lon="9.39589099325047"><ele>87.0</ele><time>2026-03-29T13:54:08.999Z</time></trkpt><trkpt lat="45.36322077777646" lon="9.395939465767134"><ele>87.0</ele><time>2026-03-29T13:54:09.999Z</time></trkpt><trkpt lat="45.363117491589044" lon="9.396007301739655"><ele>87.0</ele><time>2026-03-29T13:54:10.999Z</time></trkpt><trkpt lat="45.363000090632454" lon="9.396039488039621"><ele>86.6</ele><time>2026-03-29T13:54:11.999Z</time></trkpt><trkpt lat="45.36288751968321" lon="9.396089016616308"><ele>86.19999999999999</ele><time>2026-03-29T13:54:12.999Z</time></trkpt><trkpt lat="45.362788673506245" lon="9.396132506473101"><ele>85.8</ele><time>2026-03-29T13:54:13.999Z</time></trkpt><trkpt lat="45.362700582603665" lon="9.396195693471865"><ele>85.4</ele><time>2026-03-29T13:54:14.999Z</time></trkpt><trkpt lat="45.36260080461466" lon="9.396236476049257"><ele>85.0</ele><time>2026-03-29T13:54:15.999Z</time></trkpt><trkpt lat="45.36250128750871" lon="9.396283835874463"><ele>85.0</ele><time>2026-03-29T13:54:16.999Z</time></trkpt><trkpt lat="45.36240020272856" lon="9.396325649544334"><ele>85.0</ele><time>2026-03-29T13:54:17.999Z</time></trkpt><trkpt lat="45.36229643093719" lon="9.396372036241727"><ele>85.0</ele><time>2026-03-29T13:54:18.999Z</time></trkpt><trkpt lat="45.362196797924796" lon="9.396415325635484"><ele>85.0</ele><time>2026-03-29T13:54:19.999Z</time></trkpt><trkpt lat="45.36209898806623" lon="9.396460749270423"><ele>85.0</ele><time>2026-03-29T13:54:20.999Z</time></trkpt><trkpt lat="45.36199718800572" lon="9.396506469212806"><ele>85.0</ele><time>2026-03-29T13:54:21.999Z</time></trkpt><trkpt lat="45.361893204769785" lon="9.396529315278114"><ele>85.0</ele><time>2026-03-29T13:54:22.999Z</time></trkpt><trkpt lat="45.36180311569119" lon="9.396587236131692"><ele>85.0</ele><time>2026-03-29T13:54:23.999Z</time></trkpt><trkpt lat="45.3617128068574" lon="9.396623491295896"><ele>85.0</ele><time>2026-03-29T13:54:24.999Z</time></trkpt><trkpt lat="45.36162742877091" lon="9.396658913079637"><ele>85.0</ele><time>2026-03-29T13:54:25.999Z</time></trkpt><trkpt lat="45.36153449540255" lon="9.396672214169737"><ele>85.0</ele><time>2026-03-29T13:54:26.999Z</time></trkpt><trkpt lat="45.361448968499474" lon="9.396705423177448"><ele>85.0</ele><time>2026-03-29T13:54:27.999Z</time></trkpt><trkpt lat="45.36136809170886" lon="9.396740666304966"><ele>85.0</ele><time>2026-03-29T13:54:29Z</time></trkpt><trkpt lat="45.36129155878864" lon="9.396775910677793"><ele>85.0</ele><time>2026-03-29T13:54:30Z</time></trkpt><trkpt lat="45.36121986133231" lon="9.396809977216527"><ele>85.0</ele><time>2026-03-29T13:54:32Z</time></trkpt><trkpt lat="45.36124288188354" lon="9.397034052005733"><ele>85.0</ele><time>2026-03-29T13:54:35Z</time></trkpt><trkpt lat="45.36128978882129" lon="9.397122996053024"><ele>85.0</ele><time>2026-03-29T13:54:36Z</time></trkpt><trkpt lat="45.36131335172138" lon="9.397228283521759"><ele>85.0</ele><time>2026-03-29T13:54:37Z</time></trkpt><trkpt lat="45.36135380034182" lon="9.397325562620189"><ele>85.0</ele><time>2026-03-29T13:54:38Z</time></trkpt><trkpt lat="45.361382919214" lon="9.39743296536647"><ele>85.0</ele><time>2026-03-29T13:54:39Z</time></trkpt><trkpt lat="45.36142413822167" lon="9.397537662431041"><ele>85.0</ele><time>2026-03-29T13:54:40Z</time></trkpt><trkpt lat="45.36145876439804" lon="9.397650555467756"><ele>85.0</ele><time>2026-03-29T13:54:41Z</time></trkpt><trkpt lat="45.36147453636401" lon="9.397777591645752"><ele>85.0</ele><time>2026-03-29T13:54:42Z</time></trkpt><trkpt lat="45.36149493065444" lon="9.397882977052472"><ele>85.0</ele><time>2026-03-29T13:54:43Z</time></trkpt><trkpt lat="45.36150396265113" lon="9.397977431951153"><ele>85.0</ele><time>2026-03-29T13:54:44Z</time></trkpt><trkpt lat="45.36147622776729" lon="9.398156708584908"><ele>85.0</ele><time>2026-03-29T13:54:46Z</time></trkpt><trkpt lat="45.36144448719395" lon="9.398264477771566"><ele>85.0</ele><time>2026-03-29T13:54:47Z</time></trkpt><trkpt lat="45.36143505686004" lon="9.398383070005204"><ele>85.0</ele><time>2026-03-29T13:54:48Z</time></trkpt><trkpt lat="45.36141369116001" lon="9.39848546854593"><ele>85.0</ele><time>2026-03-29T13:54:49Z</time></trkpt><trkpt lat="45.36139259248412" lon="9.398642643610359"><ele>85.0</ele><time>2026-03-29T13:54:51Z</time></trkpt><trkpt lat="45.36137605247347" lon="9.398776511342856"><ele>85.0</ele><time>2026-03-29T13:54:53Z</time></trkpt><trkpt lat="45.36134762382225" lon="9.398889003308236"><ele>85.0</ele><time>2026-03-29T13:54:55Z</time></trkpt><trkpt lat="45.36133671489137" lon="9.399021886929003"><ele>85.5</ele><time>2026-03-29T13:54:57Z</time></trkpt><trkpt lat="45.36130668314529" lon="9.399113140231256"><ele>86.0</ele><time>2026-03-29T13:54:59Z</time></trkpt><trkpt lat="45.36122011851188" lon="9.399068358259186"><ele>86.5</ele><time>2026-03-29T13:55:00Z</time></trkpt><trkpt lat="45.36115739548642" lon="9.399055533097247"><ele>87.0</ele><time>2026-03-29T13:55:01Z</time></trkpt><trkpt lat="45.36107289772831" lon="9.39906210306645"><ele>87.5</ele><time>2026-03-29T13:55:02Z</time></trkpt><trkpt lat="45.36100125511727" lon="9.399028450940536"><ele>88.0</ele><time>2026-03-29T13:55:03Z</time></trkpt><trkpt lat="45.36091619518325" lon="9.399009695755712"><ele>88.0</ele><time>2026-03-29T13:55:04Z</time></trkpt><trkpt lat="45.36083817333785" lon="9.39898635856541"><ele>88.0</ele><time>2026-03-29T13:55:05Z</time></trkpt><trkpt lat="45.36076422215166" lon="9.398963520715045"><ele>88.0</ele><time>2026-03-29T13:55:06Z</time></trkpt><trkpt lat="45.360685865058514" lon="9.398941209304109"><ele>88.0</ele><time>2026-03-29T13:55:07Z</time></trkpt><trkpt lat="45.360603298584664" lon="9.398939522197121"><ele>88.0</ele><time>2026-03-29T13:55:08Z</time></trkpt><trkpt lat="45.36052716259786" lon="9.398917739523739"><ele>88.0</ele><time>2026-03-29T13:55:09Z</time></trkpt><trkpt lat="45.360461271706676" lon="9.398892461634244"><ele>88.0</ele><time>2026-03-29T13:55:10Z</time></trkpt><trkpt lat="45.36034475868509" lon="9.39887034846158"><ele>88.0</ele><time>2026-03-29T13:55:12Z</time></trkpt><trkpt lat="45.36028102210845" lon="9.398833503074375"><ele>88.0</ele><time>2026-03-29T13:55:14Z</time></trkpt><trkpt lat="45.36023106355023" lon="9.399055187130338"><ele>88.0</ele><time>2026-03-29T13:55:16Z</time></trkpt><trkpt lat="45.36024075438684" lon="9.399176350821126"><ele>88.0</ele><time>2026-03-29T13:55:17Z</time></trkpt><trkpt lat="45.36024061744928" lon="9.399304971790478"><ele>88.0</ele><time>2026-03-29T13:55:18Z</time></trkpt><trkpt lat="45.36025413624522" lon="9.399449130232016"><ele>88.0</ele><time>2026-03-29T13:55:19Z</time></trkpt><trkpt lat="45.360249846196396" lon="9.399614411390413"><ele>88.0</ele><time>2026-03-29T13:55:20Z</time></trkpt><trkpt lat="45.36022730037341" lon="9.399775940855957"><ele>88.0</ele><time>2026-03-29T13:55:21Z</time></trkpt><trkpt lat="45.360212532473575" lon="9.39994821903875"><ele>87.75</ele><time>2026-03-29T13:55:22Z</time></trkpt><trkpt lat="45.360178081859445" lon="9.400127650641029"><ele>87.5</ele><time>2026-03-29T13:55:23Z</time></trkpt><trkpt lat="45.36015827124776" lon="9.400326498013738"><ele>87.25</ele><time>2026-03-29T13:55:24Z</time></trkpt><trkpt lat="45.36012191844886" lon="9.400532076016836"><ele>87.0</ele><time>2026-03-29T13:55:25Z</time></trkpt><trkpt lat="45.36010473625169" lon="9.400740534129614"><ele>87.0</ele><time>2026-03-29T13:55:26Z</time></trkpt><trkpt lat="45.36009331887379" lon="9.400960638480264"><ele>87.0</ele><time>2026-03-29T13:55:27Z</time></trkpt><trkpt lat="45.36008513685645" lon="9.40117960526336"><ele>87.0</ele><time>2026-03-29T13:55:28Z</time></trkpt><trkpt lat="45.36007579509121" lon="9.401402580869561"><ele>87.33333333333333</ele><time>2026-03-29T13:55:29Z</time></trkpt><trkpt lat="45.36004843572409" lon="9.401624949568445"><ele>87.66666666666666</ele><time>2026-03-29T13:55:30Z</time></trkpt><trkpt lat="45.360036277099624" lon="9.40184814642807"><ele>88.0</ele><time>2026-03-29T13:55:31Z</time></trkpt><trkpt lat="45.360020258094416" lon="9.402065244645783"><ele>87.66666666666666</ele><time>2026-03-29T13:55:32Z</time></trkpt><trkpt lat="45.36000276213226" lon="9.402289350839576"><ele>87.33333333333333</ele><time>2026-03-29T13:55:33Z</time></trkpt><trkpt lat="45.36000247747113" lon="9.402515377752803"><ele>87.0</ele><time>2026-03-29T13:55:34Z</time></trkpt><trkpt lat="45.35998498449311" lon="9.402733358840054"><ele>87.0</ele><time>2026-03-29T13:55:35Z</time></trkpt><trkpt lat="45.35997051972676" lon="9.402950428819889"><ele>87.0</ele><time>2026-03-29T13:55:36Z</time></trkpt><trkpt lat="45.3599591694131" lon="9.403173197114985"><ele>87.0</ele><time>2026-03-29T13:55:37Z</time></trkpt><trkpt lat="45.35994718583523" lon="9.403383537441274"><ele>87.0</ele><time>2026-03-29T13:55:38Z</time></trkpt><trkpt lat="45.35993743320949" lon="9.403567504145844"><ele>87.0</ele><time>2026-03-29T13:55:39Z</time></trkpt><trkpt lat="45.35990647820572" lon="9.403702145367726"><ele>87.0</ele><time>2026-03-29T13:55:40Z</time></trkpt><trkpt lat="45.359891328049805" lon="9.403836707408633"><ele>87.0</ele><time>2026-03-29T13:55:41Z</time></trkpt><trkpt lat="45.3598384401158" lon="9.403950238490358"><ele>87.0</ele><time>2026-03-29T13:55:42Z</time></trkpt><trkpt lat="45.35975134721948" lon="9.404015849572625"><ele>87.19999999999999</ele><time>2026-03-29T13:55:43Z</time></trkpt><trkpt lat="45.3596541463371" lon="9.404065980546624"><ele>87.4</ele><time>2026-03-29T13:55:44Z</time></trkpt><trkpt lat="45.35955286078676" lon="9.404112757505015"><ele>87.6</ele><time>2026-03-29T13:55:45Z</time></trkpt><trkpt lat="45.35945793467506" lon="9.404151193477936"><ele>87.80000000000001</ele><time>2026-03-29T13:55:46Z</time></trkpt><trkpt lat="45.35937147339204" lon="9.40420019394386"><ele>88.0</ele><time>2026-03-29T13:55:47Z</time></trkpt><trkpt lat="45.35928400915111" lon="9.404225809309832"><ele>88.0</ele><time>2026-03-29T13:55:48Z</time></trkpt><trkpt lat="45.359200360995374" lon="9.404254555135903"><ele>88.0</ele><time>2026-03-29T13:55:49Z</time></trkpt><trkpt lat="45.35912561654892" lon="9.404301436890979"><ele>88.0</ele><time>2026-03-29T13:55:50Z</time></trkpt><trkpt lat="45.3590513059647" lon="9.404358418234558"><ele>88.0</ele><time>2026-03-29T13:55:51Z</time></trkpt><trkpt lat="45.35901550310862" lon="9.404464141308102"><ele>88.0</ele><time>2026-03-29T13:55:52Z</time></trkpt><trkpt lat="45.358989160187505" lon="9.404565875851262"><ele>88.0</ele><time>2026-03-29T13:55:53Z</time></trkpt><trkpt lat="45.35897774569022" lon="9.404668179759614"><ele>88.0</ele><time>2026-03-29T13:55:54Z</time></trkpt><trkpt lat="45.35897075678541" lon="9.404766631000914"><ele>88.0</ele><time>2026-03-29T13:55:55Z</time></trkpt><trkpt lat="45.358967793044684" lon="9.404932003395988"><ele>88.0</ele><time>2026-03-29T13:55:57Z</time></trkpt><trkpt lat="45.35896044439307" lon="9.405078226369156"><ele>88.0</ele><time>2026-03-29T13:55:59Z</time></trkpt><trkpt lat="45.35896554722038" lon="9.40520092166035"><ele>88.0</ele><time>2026-03-29T13:56:01Z</time></trkpt><trkpt lat="45.358970506383265" lon="9.40536615240993"><ele>88.0</ele><time>2026-03-29T13:56:03Z</time></trkpt><trkpt lat="45.35897310217213" lon="9.40554102036047"><ele>88.0</ele><time>2026-03-29T13:56:05Z</time></trkpt><trkpt lat="45.35897746917785" lon="9.405632705205543"><ele>88.0</ele><time>2026-03-29T13:56:06Z</time></trkpt><trkpt lat="45.358980753535704" lon="9.405729879695226"><ele>88.0</ele><time>2026-03-29T13:56:07Z</time></trkpt><trkpt lat="45.35898747856336" lon="9.405819421516101"><ele>88.0</ele><time>2026-03-29T13:56:08Z</time></trkpt><trkpt lat="45.358992388843845" lon="9.406022446996902"><ele>88.0</ele><time>2026-03-29T13:56:10Z</time></trkpt><trkpt lat="45.35899463058267" lon="9.406132838177609"><ele>88.0</ele><time>2026-03-29T13:56:11Z</time></trkpt><trkpt lat="45.35899621565273" lon="9.406263088691986"><ele>88.0</ele><time>2026-03-29T13:56:12Z</time></trkpt><trkpt lat="45.35899980439182" lon="9.406397549108073"><ele>88.0</ele><time>2026-03-29T13:56:13Z</time></trkpt><trkpt lat="45.35901116778708" lon="9.406539915570669"><ele>88.0</ele><time>2026-03-29T13:56:14Z</time></trkpt><trkpt lat="45.3590269843804" lon="9.40669757788719"><ele>87.75</ele><time>2026-03-29T13:56:15Z</time></trkpt><trkpt lat="45.35906124014217" lon="9.406860872702268"><ele>87.5</ele><time>2026-03-29T13:56:16Z</time></trkpt><trkpt lat="45.35908200135198" lon="9.407020598057803"><ele>87.25</ele><time>2026-03-29T13:56:17Z</time></trkpt><trkpt lat="45.35909984601871" lon="9.407182412668746"><ele>87.0</ele><time>2026-03-29T13:56:18Z</time></trkpt><trkpt lat="45.35911351149817" lon="9.407331180062096"><ele>87.39999999999999</ele><time>2026-03-29T13:56:19Z</time></trkpt><trkpt lat="45.35913015197475" lon="9.407476602771165"><ele>87.8</ele><time>2026-03-29T13:56:20Z</time></trkpt><trkpt lat="45.359147272197426" lon="9.407619840859677"><ele>88.2</ele><time>2026-03-29T13:56:21Z</time></trkpt><trkpt lat="45.35916147858926" lon="9.407754358686025"><ele>88.6</ele><time>2026-03-29T13:56:22Z</time></trkpt><trkpt lat="45.35917827013058" lon="9.407872826838046"><ele>89.0</ele><time>2026-03-29T13:56:23Z</time></trkpt><trkpt lat="45.35919258005891" lon="9.407989906808536"><ele>89.0</ele><time>2026-03-29T13:56:24Z</time></trkpt><trkpt lat="45.35920426695047" lon="9.408108158822467"><ele>89.0</ele><time>2026-03-29T13:56:25Z</time></trkpt><trkpt lat="45.35921458692339" lon="9.408222858338663"><ele>89.0</ele><time>2026-03-29T13:56:26Z</time></trkpt><trkpt lat="45.359225399331" lon="9.408327457345353"><ele>89.0</ele><time>2026-03-29T13:56:27Z</time></trkpt><trkpt lat="45.359240381345735" lon="9.408414777426477"><ele>89.0</ele><time>2026-03-29T13:56:28Z</time></trkpt><trkpt lat="45.359252406188716" lon="9.40853683343697"><ele>89.0</ele><time>2026-03-29T13:56:30Z</time></trkpt><trkpt lat="45.359117774960964" lon="9.408574022459877"><ele>89.0</ele><time>2026-03-29T13:56:33Z</time></trkpt><trkpt lat="45.359037606838214" lon="9.408575091875596"><ele>89.0</ele><time>2026-03-29T13:56:34Z</time></trkpt><trkpt lat="45.3589394911939" lon="9.408588592184177"><ele>89.0</ele><time>2026-03-29T13:56:35Z</time></trkpt><trkpt lat="45.35882733016596" lon="9.408621798356974"><ele>89.0</ele><time>2026-03-29T13:56:36Z</time></trkpt><trkpt lat="45.35870426976409" lon="9.408658555082212"><ele>89.0</ele><time>2026-03-29T13:56:37Z</time></trkpt><trkpt lat="45.3585810506785" lon="9.408694180915024"><ele>88.75</ele><time>2026-03-29T13:56:38Z</time></trkpt><trkpt lat="45.35844217106193" lon="9.408724923945071"><ele>88.5</ele><time>2026-03-29T13:56:39Z</time></trkpt><trkpt lat="45.35829097134562" lon="9.408759791226622"><ele>88.25</ele><time>2026-03-29T13:56:40Z</time></trkpt><trkpt lat="45.35814252269942" lon="9.40880095614618"><ele>88.0</ele><time>2026-03-29T13:56:41Z</time></trkpt><trkpt lat="45.35798944195106" lon="9.408859903478133"><ele>88.0</ele><time>2026-03-29T13:56:42Z</time></trkpt><trkpt lat="45.357829658801435" lon="9.408934971298649"><ele>88.0</ele><time>2026-03-29T13:56:43Z</time></trkpt><trkpt lat="45.357668869210165" lon="9.409008326470017"><ele>88.0</ele><time>2026-03-29T13:56:44Z</time></trkpt><trkpt lat="45.35751002785455" lon="9.409072871103588"><ele>88.0</ele><time>2026-03-29T13:56:45Z</time></trkpt><trkpt lat="45.35734256636088" lon="9.409141640471779"><ele>88.0</ele><time>2026-03-29T13:56:46Z</time></trkpt><trkpt lat="45.357180978615126" lon="9.409206742165422"><ele>88.0</ele><time>2026-03-29T13:56:47Z</time></trkpt><trkpt lat="45.35702583690456" lon="9.409284320948485"><ele>88.0</ele><time>2026-03-29T13:56:48Z</time></trkpt><trkpt lat="45.35688276197099" lon="9.409395353437667"><ele>88.0</ele><time>2026-03-29T13:56:49Z</time></trkpt><trkpt lat="45.35674234873308" lon="9.40952561397174"><ele>88.0</ele><time>2026-03-29T13:56:50Z</time></trkpt><trkpt lat="45.35660619151156" lon="9.409683113768466"><ele>88.0</ele><time>2026-03-29T13:56:51Z</time></trkpt><trkpt lat="45.356478057590856" lon="9.409855484905583"><ele>88.0</ele><time>2026-03-29T13:56:52Z</time></trkpt><trkpt lat="45.356363083903396" lon="9.410054407343946"><ele>88.0</ele><time>2026-03-29T13:56:53Z</time></trkpt><trkpt lat="45.356265267126595" lon="9.410265990217509"><ele>87.66666666666666</ele><time>2026-03-29T13:56:54Z</time></trkpt><trkpt lat="45.356196275033184" lon="9.41046886293441"><ele>87.33333333333333</ele><time>2026-03-29T13:56:55Z</time></trkpt><trkpt lat="45.35614100608023" lon="9.410663953637327"><ele>87.0</ele><time>2026-03-29T13:56:56Z</time></trkpt><trkpt lat="45.356098477541835" lon="9.410863896718434"><ele>87.0</ele><time>2026-03-29T13:56:57Z</time></trkpt><trkpt lat="45.356095737975366" lon="9.411080621604675"><ele>87.0</ele><time>2026-03-29T13:56:58Z</time></trkpt><trkpt lat="45.35605641225021" lon="9.411258640628125"><ele>87.0</ele><time>2026-03-29T13:56:59Z</time></trkpt><trkpt lat="45.356042612011365" lon="9.411425847740025"><ele>87.0</ele><time>2026-03-29T13:57:00Z</time></trkpt><trkpt lat="45.35604049316949" lon="9.411589092022302"><ele>87.0</ele><time>2026-03-29T13:57:01Z</time></trkpt><trkpt lat="45.35596611620134" lon="9.411761219497041"><ele>87.0</ele><time>2026-03-29T13:57:02Z</time></trkpt><trkpt lat="45.3558434282632" lon="9.411898004455935"><ele>87.0</ele><time>2026-03-29T13:57:03Z</time></trkpt><trkpt lat="45.3557484854621" lon="9.41205919542995"><ele>87.0</ele><time>2026-03-29T13:57:04Z</time></trkpt><trkpt lat="45.355596625036725" lon="9.412145541150233"><ele>87.33333333333333</ele><time>2026-03-29T13:57:05Z</time></trkpt><trkpt lat="45.35545867071973" lon="9.412243660099481"><ele>87.66666666666666</ele><time>2026-03-29T13:57:06Z</time></trkpt><trkpt lat="45.355321429632276" lon="9.412338413642207"><ele>88.0</ele><time>2026-03-29T13:57:07Z</time></trkpt><trkpt lat="45.355185397289155" lon="9.412440503648828"><ele>88.0</ele><time>2026-03-29T13:57:08Z</time></trkpt><trkpt lat="45.35504908984866" lon="9.412544745531116"><ele>88.0</ele><time>2026-03-29T13:57:09Z</time></trkpt><trkpt lat="45.354912816334696" lon="9.412655043134732"><ele>88.0</ele><time>2026-03-29T13:57:10Z</time></trkpt><trkpt lat="45.354771543416994" lon="9.412766089611367"><ele>87.66666666666666</ele><time>2026-03-29T13:57:11Z</time></trkpt><trkpt lat="45.35463451841125" lon="9.412882226675537"><ele>87.33333333333333</ele><time>2026-03-29T13:57:12Z</time></trkpt><trkpt lat="45.35450752601483" lon="9.413001059044909"><ele>87.0</ele><time>2026-03-29T13:57:13Z</time></trkpt><trkpt lat="45.35438958175385" lon="9.413110636522697"><ele>87.0</ele><time>2026-03-29T13:57:14Z</time></trkpt><trkpt lat="45.354276129187205" lon="9.413217906615888"><ele>87.0</ele><time>2026-03-29T13:57:15Z</time></trkpt><trkpt lat="45.35416324926663" lon="9.413328965067056"><ele>87.0</ele><time>2026-03-29T13:57:16Z</time></trkpt><trkpt lat="45.35404990925069" lon="9.413442039811098"><ele>87.0</ele><time>2026-03-29T13:57:17Z</time></trkpt><trkpt lat="45.35393829937903" lon="9.413554585439107"><ele>87.19999999999999</ele><time>2026-03-29T13:57:18Z</time></trkpt><trkpt lat="45.353832538359406" lon="9.413657550021567"><ele>87.4</ele><time>2026-03-29T13:57:19Z</time></trkpt><trkpt lat="45.353735114275324" lon="9.413743776320564"><ele>87.6</ele><time>2026-03-29T13:57:20Z</time></trkpt><trkpt lat="45.353649578565864" lon="9.413818770215773"><ele>87.80000000000001</ele><time>2026-03-29T13:57:21Z</time></trkpt><trkpt lat="45.353571583020454" lon="9.41389652465285"><ele>88.0</ele><time>2026-03-29T13:57:22Z</time></trkpt><trkpt lat="45.35350450941301" lon="9.4139633650847"><ele>88.0</ele><time>2026-03-29T13:57:23Z</time></trkpt><trkpt lat="45.35344548393286" lon="9.414024807909119"><ele>88.0</ele><time>2026-03-29T13:57:24Z</time></trkpt><trkpt lat="45.35336381743234" lon="9.414120628702886"><ele>88.0</ele><time>2026-03-29T13:57:26Z</time></trkpt><trkpt lat="45.3532885297569" lon="9.414199406206597"><ele>88.0</ele><time>2026-03-29T13:57:28Z</time></trkpt><trkpt lat="45.35321554610648" lon="9.414278667892688"><ele>88.0</ele><time>2026-03-29T13:57:30Z</time></trkpt><trkpt lat="45.35315505235966" lon="9.414334660559188"><ele>88.0</ele><time>2026-03-29T13:57:32Z</time></trkpt><trkpt lat="45.35310748903949" lon="9.414432619125035"><ele>88.0</ele><time>2026-03-29T13:57:53Z</time></trkpt><trkpt lat="45.35304700873515" lon="9.414518200661483"><ele>88.0</ele><time>2026-03-29T13:57:55Z</time></trkpt><trkpt lat="45.35296463120071" lon="9.414635659776446"><ele>88.0</ele><time>2026-03-29T13:57:57Z</time></trkpt><trkpt lat="45.35290697086157" lon="9.414684406343845"><ele>88.0</ele><time>2026-03-29T13:57:58Z</time></trkpt><trkpt lat="45.3528666539623" lon="9.41475458139973"><ele>88.0</ele><time>2026-03-29T13:57:59Z</time></trkpt><trkpt lat="45.35279515260897" lon="9.414801579054604"><ele>88.0</ele><time>2026-03-29T13:58:00Z</time></trkpt><trkpt lat="45.35271145554424" lon="9.414886921637974"><ele>87.25</ele><time>2026-03-29T13:58:01Z</time></trkpt><trkpt lat="45.35261867051322" lon="9.41498126399462"><ele>86.5</ele><time>2026-03-29T13:58:02Z</time></trkpt><trkpt lat="45.35251921040032" lon="9.415082500658825"><ele>85.75</ele><time>2026-03-29T13:58:03Z</time></trkpt><trkpt lat="45.3524120660556" lon="9.415192464736538"><ele>85.0</ele><time>2026-03-29T13:58:04Z</time></trkpt><trkpt lat="45.35230150216967" lon="9.415296663374928"><ele>84.75</ele><time>2026-03-29T13:58:05Z</time></trkpt><trkpt lat="45.35218094606148" lon="9.415400824447337"><ele>84.5</ele><time>2026-03-29T13:58:06Z</time></trkpt><trkpt lat="45.35206325526092" lon="9.415520506759426"><ele>84.25</ele><time>2026-03-29T13:58:07Z</time></trkpt><trkpt lat="45.35195638514365" lon="9.415613669783975"><ele>84.0</ele><time>2026-03-29T13:58:08Z</time></trkpt><trkpt lat="45.351849846808584" lon="9.415710132372679"><ele>84.0</ele><time>2026-03-29T13:58:09Z</time></trkpt><trkpt lat="45.35174787551021" lon="9.41578960821388"><ele>84.0</ele><time>2026-03-29T13:58:10Z</time></trkpt><trkpt lat="45.35166109773193" lon="9.415875941621879"><ele>84.0</ele><time>2026-03-29T13:58:11Z</time></trkpt><trkpt lat="45.35158301278142" lon="9.41594406602796"><ele>84.0</ele><time>2026-03-29T13:58:12Z</time></trkpt><trkpt lat="45.35150781762596" lon="9.416024791431722"><ele>84.0</ele><time>2026-03-29T13:58:13Z</time></trkpt><trkpt lat="45.35145243783113" lon="9.41612988727629"><ele>84.0</ele><time>2026-03-29T13:58:14Z</time></trkpt><trkpt lat="45.3514125808286" lon="9.416249224687661"><ele>84.0</ele><time>2026-03-29T13:58:15Z</time></trkpt><trkpt lat="45.3513907252644" lon="9.416371766238044"><ele>84.0</ele><time>2026-03-29T13:58:16Z</time></trkpt><trkpt lat="45.35137288339879" lon="9.416512253657535"><ele>84.0</ele><time>2026-03-29T13:58:17Z</time></trkpt><trkpt lat="45.351335045193274" lon="9.41667092306704"><ele>84.0</ele><time>2026-03-29T13:58:18Z</time></trkpt><trkpt lat="45.351274761243396" lon="9.416815426828283"><ele>84.25</ele><time>2026-03-29T13:58:19Z</time></trkpt><trkpt lat="45.35116266886942" lon="9.41692250697035"><ele>84.5</ele><time>2026-03-29T13:58:20Z</time></trkpt><trkpt lat="45.35107324012181" lon="9.417083607389491"><ele>84.75</ele><time>2026-03-29T13:58:21Z</time></trkpt><trkpt lat="45.35099346694853" lon="9.417210761439184"><ele>85.0</ele><time>2026-03-29T13:58:22Z</time></trkpt><trkpt lat="45.35092502391058" lon="9.417351975242585"><ele>85.25</ele><time>2026-03-29T13:58:23Z</time></trkpt><trkpt lat="45.35085871860245" lon="9.417528017684209"><ele>85.5</ele><time>2026-03-29T13:58:24Z</time></trkpt><trkpt lat="45.350801163503824" lon="9.41771584880453"><ele>85.75</ele><time>2026-03-29T13:58:25Z</time></trkpt><trkpt lat="45.35073890794484" lon="9.417920244983023"><ele>86.0</ele><time>2026-03-29T13:58:26Z</time></trkpt><trkpt lat="45.35067442396492" lon="9.418135124181322"><ele>86.0</ele><time>2026-03-29T13:58:27Z</time></trkpt><trkpt lat="45.35060577639487" lon="9.418337488477366"><ele>86.0</ele><time>2026-03-29T13:58:28Z</time></trkpt><trkpt lat="45.35053753007499" lon="9.418553820248649"><ele>86.0</ele><time>2026-03-29T13:58:29Z</time></trkpt><trkpt lat="45.3504734751992" lon="9.418766911518617"><ele>86.0</ele><time>2026-03-29T13:58:30Z</time></trkpt><trkpt lat="45.350408297839294" lon="9.418978739351935"><ele>86.0</ele><time>2026-03-29T13:58:31Z</time></trkpt><trkpt lat="45.350348924962034" lon="9.41921535139095"><ele>86.0</ele><time>2026-03-29T13:58:32Z</time></trkpt><trkpt lat="45.35027177961049" lon="9.41947295216755"><ele>86.0</ele><time>2026-03-29T13:58:33Z</time></trkpt><trkpt lat="45.35021974667232" lon="9.419619611849495"><ele>86.0</ele><time>2026-03-29T13:58:34Z</time></trkpt><trkpt lat="45.35016226883392" lon="9.41981761843584"><ele>86.0</ele><time>2026-03-29T13:58:35Z</time></trkpt><trkpt lat="45.35011460252858" lon="9.420006038421791"><ele>86.0</ele><time>2026-03-29T13:58:36Z</time></trkpt><trkpt lat="45.35007665427603" lon="9.420173236026237"><ele>86.19999999999999</ele><time>2026-03-29T13:58:37Z</time></trkpt><trkpt lat="45.35004617131455" lon="9.420330031977679"><ele>86.39999999999999</ele><time>2026-03-29T13:58:38Z</time></trkpt><trkpt lat="45.35002210584922" lon="9.420461075312774"><ele>86.6</ele><time>2026-03-29T13:58:39Z</time></trkpt><trkpt lat="45.35000309455635" lon="9.42057592504643"><ele>86.8</ele><time>2026-03-29T13:58:40Z</time></trkpt><trkpt lat="45.34996841436453" lon="9.420693556809969"><ele>87.0</ele><time>2026-03-29T13:58:41Z</time></trkpt><trkpt lat="45.349905096495526" lon="9.420839761494829"><ele>87.0</ele><time>2026-03-29T13:58:42Z</time></trkpt><trkpt lat="45.34984787866958" lon="9.420996493727927"><ele>87.0</ele><time>2026-03-29T13:58:43Z</time></trkpt><trkpt lat="45.34980529331962" lon="9.421137171038328"><ele>87.0</ele><time>2026-03-29T13:58:44Z</time></trkpt><trkpt lat="45.349780346964614" lon="9.421254760103029"><ele>87.0</ele><time>2026-03-29T13:58:45Z</time></trkpt><trkpt lat="45.34975466917943" lon="9.421354449619473"><ele>87.0</ele><time>2026-03-29T13:58:46Z</time></trkpt><trkpt lat="45.34971059580351" lon="9.421454595023453"><ele>87.0</ele><time>2026-03-29T13:58:47Z</time></trkpt><trkpt lat="45.349654380054965" lon="9.421524983145062"><ele>87.0</ele><time>2026-03-29T13:58:48Z</time></trkpt><trkpt lat="45.34955994978881" lon="9.421597281983628"><ele>87.0</ele><time>2026-03-29T13:58:50Z</time></trkpt><trkpt lat="45.34948049933799" lon="9.421659654495723"><ele>87.0</ele><time>2026-03-29T13:58:52Z</time></trkpt><trkpt lat="45.349415407242006" lon="9.421722472077796"><ele>87.0</ele><time>2026-03-29T13:58:54Z</time></trkpt><trkpt lat="45.34933642964709" lon="9.421774746565285"><ele>87.0</ele><time>2026-03-29T13:58:56Z</time></trkpt><trkpt lat="45.34925680634526" lon="9.421822590469668"><ele>87.0</ele><time>2026-03-29T13:58:58Z</time></trkpt><trkpt lat="45.349163172892425" lon="9.421868258700323"><ele>87.0</ele><time>2026-03-29T13:59:00Z</time></trkpt><trkpt lat="45.349067545396295" lon="9.421893043742195"><ele>87.0</ele><time>2026-03-29T13:59:02Z</time></trkpt><trkpt lat="45.34898344725571" lon="9.421920973942045"><ele>87.0</ele><time>2026-03-29T13:59:04Z</time></trkpt><trkpt lat="45.34893096430227" lon="9.421722708495967"><ele>87.0</ele><time>2026-03-29T13:59:06Z</time></trkpt><trkpt lat="45.34885992323492" lon="9.421603664335834"><ele>86.66666666666667</ele><time>2026-03-29T13:59:08Z</time></trkpt><trkpt lat="45.34879436536871" lon="9.421532105087454"><ele>86.33333333333333</ele><time>2026-03-29T13:59:11Z</time></trkpt><trkpt lat="45.348732138303596" lon="9.421412881237861"><ele>86.0</ele><time>2026-03-29T13:59:14Z</time></trkpt><trkpt lat="45.34867196487527" lon="9.421306692976424"><ele>85.66666666666666</ele><time>2026-03-29T13:59:16Z</time></trkpt><trkpt lat="45.34860852804438" lon="9.421205004986902"><ele>85.33333333333333</ele><time>2026-03-29T13:59:19Z</time></trkpt><trkpt lat="45.348577627792274" lon="9.421114603599536"><ele>85.0</ele><time>2026-03-29T13:59:21Z</time></trkpt><trkpt lat="45.348540924309525" lon="9.421039127878153"><ele>85.0</ele><time>2026-03-29T13:59:23Z</time></trkpt><trkpt lat="45.34850410959372" lon="9.420963423399781"><ele>85.0</ele><time>2026-03-29T13:59:25Z</time></trkpt><trkpt lat="45.34844848894374" lon="9.420890416326698"><ele>85.0</ele><time>2026-03-29T13:59:27Z</time></trkpt><trkpt lat="45.34842243190766" lon="9.420795459336114"><ele>85.0</ele><time>2026-03-29T13:59:30Z</time></trkpt><trkpt lat="45.34838394498859" lon="9.420716313564165"><ele>85.0</ele><time>2026-03-29T13:59:34Z</time></trkpt><trkpt lat="45.348339122371186" lon="9.420624138853695"><ele>85.0</ele><time>2026-03-29T13:59:37Z</time></trkpt><trkpt lat="45.3482890663256" lon="9.420562648735388"><ele>85.0</ele><time>2026-03-29T13:59:40Z</time></trkpt><trkpt lat="45.34823970171167" lon="9.420461317573492"><ele>85.0</ele><time>2026-03-29T13:59:43Z</time></trkpt><trkpt lat="45.348201438289585" lon="9.420384484457838"><ele>85.0</ele><time>2026-03-29T13:59:45Z</time></trkpt><trkpt lat="45.348146596856076" lon="9.42028775991362"><ele>85.0</ele><time>2026-03-29T13:59:48Z</time></trkpt><trkpt lat="45.34810023443008" lon="9.42019257108865"><ele>85.0</ele><time>2026-03-29T13:59:51Z</time></trkpt><trkpt lat="45.348051718356764" lon="9.42010033053495"><ele>85.0</ele><time>2026-03-29T13:59:55Z</time></trkpt><trkpt lat="45.3479999602472" lon="9.42001195134402"><ele>85.0</ele><time>2026-03-29T13:59:58Z</time></trkpt><trkpt lat="45.34795965471976" lon="9.419931768904492"><ele>84.8</ele><time>2026-03-29T14:00:01Z</time></trkpt><trkpt lat="45.34791864207874" lon="9.419859472516285"><ele>84.6</ele><time>2026-03-29T14:00:04Z</time></trkpt><trkpt lat="45.34788432306587" lon="9.419769287698625"><ele>84.4</ele><time>2026-03-29T14:00:07Z</time></trkpt><trkpt lat="45.34783044375269" lon="9.419654906187827"><ele>84.2</ele><time>2026-03-29T14:00:10Z</time></trkpt><trkpt lat="45.347781810447685" lon="9.419525146956541"><ele>84.0</ele><time>2026-03-29T14:00:12Z</time></trkpt><trkpt lat="45.34772657897378" lon="9.41935114102529"><ele>84.6</ele><time>2026-03-29T14:00:14Z</time></trkpt><trkpt lat="45.34768669028139" lon="9.419228822884241"><ele>85.2</ele><time>2026-03-29T14:00:15Z</time></trkpt><trkpt lat="45.34764494161069" lon="9.419097703190355"><ele>85.8</ele><time>2026-03-29T14:00:16Z</time></trkpt><trkpt lat="45.34760361476989" lon="9.418979806088698"><ele>86.39999999999999</ele><time>2026-03-29T14:00:17Z</time></trkpt><trkpt lat="45.34755886530473" lon="9.418858476238963"><ele>87.0</ele><time>2026-03-29T14:00:18Z</time></trkpt><trkpt lat="45.3475272999365" lon="9.418739008081303"><ele>87.0</ele><time>2026-03-29T14:00:19Z</time></trkpt><trkpt lat="45.34750940041368" lon="9.418626886192854"><ele>87.0</ele><time>2026-03-29T14:00:20Z</time></trkpt><trkpt lat="45.34749009705895" lon="9.418536527792382"><ele>87.0</ele><time>2026-03-29T14:00:21Z</time></trkpt><trkpt lat="45.3474536836734" lon="9.41839133501459"><ele>87.0</ele><time>2026-03-29T14:00:23Z</time></trkpt><trkpt lat="45.34747242848323" lon="9.418303767507897"><ele>87.0</ele><time>2026-03-29T14:00:26Z</time></trkpt><trkpt lat="45.347278991868635" lon="9.41838441386153"><ele>86.8</ele><time>2026-03-29T14:00:27Z</time></trkpt><trkpt lat="45.347196920603544" lon="9.418424373553934"><ele>86.6</ele><time>2026-03-29T14:00:28Z</time></trkpt><trkpt lat="45.347090409588006" lon="9.418454131674196"><ele>86.39999999999999</ele><time>2026-03-29T14:00:29Z</time></trkpt><trkpt lat="45.346978282832296" lon="9.418480602155524"><ele>86.19999999999999</ele><time>2026-03-29T14:00:30Z</time></trkpt><trkpt lat="45.34684706175832" lon="9.418504169022611"><ele>86.0</ele><time>2026-03-29T14:00:31Z</time></trkpt><trkpt lat="45.34670587873583" lon="9.418525723605729"><ele>86.0</ele><time>2026-03-29T14:00:32Z</time></trkpt><trkpt lat="45.34656025058259" lon="9.41854934448495"><ele>86.0</ele><time>2026-03-29T14:00:33Z</time></trkpt><trkpt lat="45.346410857154844" lon="9.418575962562704"><ele>86.0</ele><time>2026-03-29T14:00:34Z</time></trkpt><trkpt lat="45.346255953837115" lon="9.418611853301"><ele>85.33333333333334</ele><time>2026-03-29T14:00:35Z</time></trkpt><trkpt lat="45.34609138381605" lon="9.4186481881469"><ele>84.66666666666667</ele><time>2026-03-29T14:00:36Z</time></trkpt><trkpt lat="45.34592811533454" lon="9.418685585680315"><ele>84.0</ele><time>2026-03-29T14:00:37Z</time></trkpt><trkpt lat="45.34575953783123" lon="9.418723319347494"><ele>84.0</ele><time>2026-03-29T14:00:38Z</time></trkpt><trkpt lat="45.345588666568894" lon="9.418760260015498"><ele>84.0</ele><time>2026-03-29T14:00:39Z</time></trkpt><trkpt lat="45.345410928229555" lon="9.418794143842977"><ele>84.0</ele><time>2026-03-29T14:00:40Z</time></trkpt><trkpt lat="45.3452313461755" lon="9.41883512585214"><ele>84.0</ele><time>2026-03-29T14:00:41Z</time></trkpt><trkpt lat="45.345049366346444" lon="9.418874038207093"><ele>84.0</ele><time>2026-03-29T14:00:42Z</time></trkpt><trkpt lat="45.34486440275565" lon="9.418914665693377"><ele>84.0</ele><time>2026-03-29T14:00:43Z</time></trkpt><trkpt lat="45.34467964048585" lon="9.418956313320612"><ele>84.33333333333333</ele><time>2026-03-29T14:00:44Z</time></trkpt><trkpt lat="45.34449623542515" lon="9.41899768404256"><ele>84.66666666666666</ele><time>2026-03-29T14:00:45Z</time></trkpt><trkpt lat="45.3443177128528" lon="9.419036494632758"><ele>85.0</ele><time>2026-03-29T14:00:46Z</time></trkpt><trkpt lat="45.34415247466095" lon="9.419073443692158"><ele>85.0</ele><time>2026-03-29T14:00:47Z</time></trkpt><trkpt lat="45.344002971977716" lon="9.419108777585384"><ele>85.0</ele><time>2026-03-29T14:00:48Z</time></trkpt><trkpt lat="45.34386486658522" lon="9.419138440647265"><ele>85.0</ele><time>2026-03-29T14:00:49Z</time></trkpt><trkpt lat="45.34374664021925" lon="9.419165291782356"><ele>85.0</ele><time>2026-03-29T14:00:50Z</time></trkpt><trkpt lat="45.34362831585918" lon="9.419188629029735"><ele>85.0</ele><time>2026-03-29T14:00:51Z</time></trkpt><trkpt lat="45.34351798029601" lon="9.419155211549835"><ele>85.0</ele><time>2026-03-29T14:00:52Z</time></trkpt><trkpt lat="45.343401299519414" lon="9.419083255031984"><ele>85.0</ele><time>2026-03-29T14:00:53Z</time></trkpt><trkpt lat="45.34327586836241" lon="9.419043711176352"><ele>85.0</ele><time>2026-03-29T14:00:54Z</time></trkpt><trkpt lat="45.343161250547276" lon="9.419030301817587"><ele>85.0</ele><time>2026-03-29T14:00:55Z</time></trkpt><trkpt lat="45.34305125067362" lon="9.419031808344002"><ele>85.0</ele><time>2026-03-29T14:00:56Z</time></trkpt><trkpt lat="45.34292066930765" lon="9.419040458854083"><ele>85.0</ele><time>2026-03-29T14:00:57Z</time></trkpt><trkpt lat="45.34277926548514" lon="9.41908628239354"><ele>85.0</ele><time>2026-03-29T14:00:58Z</time></trkpt><trkpt lat="45.34263481397295" lon="9.419149230285278"><ele>85.0</ele><time>2026-03-29T14:00:59Z</time></trkpt><trkpt lat="45.342475373522234" lon="9.41918080155622"><ele>85.0</ele><time>2026-03-29T14:01:00Z</time></trkpt><trkpt lat="45.342310343878296" lon="9.41922470595584"><ele>85.0</ele><time>2026-03-29T14:01:01Z</time></trkpt><trkpt lat="45.34213583748215" lon="9.419275206730333"><ele>84.66666666666666</ele><time>2026-03-29T14:01:02Z</time></trkpt><trkpt lat="45.34195388228518" lon="9.41932912773345"><ele>84.33333333333333</ele><time>2026-03-29T14:01:03Z</time></trkpt><trkpt lat="45.34176183834019" lon="9.41938198318267"><ele>84.0</ele><time>2026-03-29T14:01:04Z</time></trkpt><trkpt lat="45.34157674411347" lon="9.419434802154212"><ele>84.0</ele><time>2026-03-29T14:01:05Z</time></trkpt><trkpt lat="45.34138790031184" lon="9.41948647161948"><ele>84.0</ele><time>2026-03-29T14:01:06Z</time></trkpt><trkpt lat="45.341202322400335" lon="9.419537618883252"><ele>84.0</ele><time>2026-03-29T14:01:07Z</time></trkpt><trkpt lat="45.341017429064266" lon="9.419586833067452"><ele>84.0</ele><time>2026-03-29T14:01:08Z</time></trkpt><trkpt lat="45.340834159703086" lon="9.419639916878861"><ele>84.0</ele><time>2026-03-29T14:01:09Z</time></trkpt><trkpt lat="45.340651565258604" lon="9.419687737520734"><ele>84.0</ele><time>2026-03-29T14:01:10Z</time></trkpt><trkpt lat="45.34047525309529" lon="9.419735143817975"><ele>83.66666666666667</ele><time>2026-03-29T14:01:11Z</time></trkpt><trkpt lat="45.340296216812426" lon="9.419786041564318"><ele>83.33333333333334</ele><time>2026-03-29T14:01:12Z</time></trkpt><trkpt lat="45.340117885597394" lon="9.41983802573145"><ele>83.0</ele><time>2026-03-29T14:01:13Z</time></trkpt><trkpt lat="45.3399396425193" lon="9.419897840215198"><ele>83.0</ele><time>2026-03-29T14:01:14Z</time></trkpt><trkpt lat="45.339764846492464" lon="9.419966719750215"><ele>83.0</ele><time>2026-03-29T14:01:15Z</time></trkpt><trkpt lat="45.33958765556337" lon="9.42004580448226"><ele>83.0</ele><time>2026-03-29T14:01:16Z</time></trkpt><trkpt lat="45.33939880689718" lon="9.420091784192538"><ele>83.33333333333334</ele><time>2026-03-29T14:01:17Z</time></trkpt><trkpt lat="45.33922121909216" lon="9.420152320737483"><ele>83.66666666666667</ele><time>2026-03-29T14:01:18Z</time></trkpt><trkpt lat="45.33904296243474" lon="9.420212523409615"><ele>84.0</ele><time>2026-03-29T14:01:19Z</time></trkpt><trkpt lat="45.33886218680475" lon="9.420273574752242"><ele>84.0</ele><time>2026-03-29T14:01:20Z</time></trkpt><trkpt lat="45.3386918934201" lon="9.420331092898826"><ele>84.0</ele><time>2026-03-29T14:01:21Z</time></trkpt><trkpt lat="45.338537343590964" lon="9.420402911141306"><ele>84.0</ele><time>2026-03-29T14:01:22Z</time></trkpt><trkpt lat="45.33839489001324" lon="9.420446769686778"><ele>84.0</ele><time>2026-03-29T14:01:23Z</time></trkpt><trkpt lat="45.33825709641916" lon="9.420498529790338"><ele>84.0</ele><time>2026-03-29T14:01:24Z</time></trkpt><trkpt lat="45.3381261026822" lon="9.420522438572494"><ele>84.0</ele><time>2026-03-29T14:01:25Z</time></trkpt><trkpt lat="45.338015338392935" lon="9.420559898083003"><ele>84.0</ele><time>2026-03-29T14:01:26Z</time></trkpt><trkpt lat="45.33793266523796" lon="9.420608819427105"><ele>83.80000000000001</ele><time>2026-03-29T14:01:27Z</time></trkpt><trkpt lat="45.337860343962426" lon="9.420613428081422"><ele>83.60000000000001</ele><time>2026-03-29T14:01:28Z</time></trkpt><trkpt lat="45.3377950552743" lon="9.420656239340795"><ele>83.4</ele><time>2026-03-29T14:01:29Z</time></trkpt><trkpt lat="45.337754252513655" lon="9.420835250817651"><ele>83.2</ele><time>2026-03-29T14:01:31Z</time></trkpt><trkpt lat="45.337781869230646" lon="9.420949034349428"><ele>83.0</ele><time>2026-03-29T14:01:32Z</time></trkpt><trkpt lat="45.33781646005191" lon="9.421095330161537"><ele>83.0</ele><time>2026-03-29T14:01:33Z</time></trkpt><trkpt lat="45.337853126487936" lon="9.421269093900126"><ele>83.0</ele><time>2026-03-29T14:01:34Z</time></trkpt><trkpt lat="45.3378809817189" lon="9.42143033121415"><ele>83.0</ele><time>2026-03-29T14:01:35Z</time></trkpt><trkpt lat="45.337908072590935" lon="9.421559423822087"><ele>83.0</ele><time>2026-03-29T14:01:36Z</time></trkpt><trkpt lat="45.337943410859644" lon="9.421671207315457"><ele>83.0</ele><time>2026-03-29T14:01:37Z</time></trkpt><trkpt lat="45.33797193219169" lon="9.421769291506243"><ele>83.0</ele><time>2026-03-29T14:01:38Z</time></trkpt><trkpt lat="45.337979901846765" lon="9.42189034668844"><ele>83.0</ele><time>2026-03-29T14:01:40Z</time></trkpt><trkpt lat="45.33786233119948" lon="9.421882477009195"><ele>83.0</ele><time>2026-03-29T14:01:41Z</time></trkpt><trkpt lat="45.33778014478458" lon="9.421913596425904"><ele>83.0</ele><time>2026-03-29T14:01:42Z</time></trkpt><trkpt lat="45.337682774536546" lon="9.421951767646371"><ele>83.0</ele><time>2026-03-29T14:01:43Z</time></trkpt><trkpt lat="45.33756129135953" lon="9.421988461170494"><ele>83.0</ele><time>2026-03-29T14:01:44Z</time></trkpt><trkpt lat="45.33743634740585" lon="9.42205020625885"><ele>83.0</ele><time>2026-03-29T14:01:45Z</time></trkpt><trkpt lat="45.33730572710545" lon="9.422104514632723"><ele>83.0</ele><time>2026-03-29T14:01:46Z</time></trkpt><trkpt lat="45.337151280872284" lon="9.422183637265586"><ele>83.0</ele><time>2026-03-29T14:01:47Z</time></trkpt><trkpt lat="45.33701644857165" lon="9.422213144012941"><ele>83.2</ele><time>2026-03-29T14:01:48Z</time></trkpt><trkpt lat="45.33689293458457" lon="9.422257332538548"><ele>83.4</ele><time>2026-03-29T14:01:49Z</time></trkpt><trkpt lat="45.33678938856969" lon="9.422299508021723"><ele>83.60000000000001</ele><time>2026-03-29T14:01:50Z</time></trkpt><trkpt lat="45.33669453580318" lon="9.42233814249768"><ele>83.80000000000001</ele><time>2026-03-29T14:01:51Z</time></trkpt><trkpt lat="45.33662443023933" lon="9.4223727478326"><ele>84.0</ele><time>2026-03-29T14:01:52Z</time></trkpt><trkpt lat="45.33653665277141" lon="9.422530986700616"><ele>84.0</ele><time>2026-03-29T14:01:54Z</time></trkpt><trkpt lat="45.33660670241909" lon="9.422688061663282"><ele>84.0</ele><time>2026-03-29T14:01:55Z</time></trkpt><trkpt lat="45.33661423850629" lon="9.422823999221876"><ele>84.0</ele><time>2026-03-29T14:01:56Z</time></trkpt><trkpt lat="45.33664813018084" lon="9.422927301368299"><ele>84.0</ele><time>2026-03-29T14:01:57Z</time></trkpt><trkpt lat="45.3366645823503" lon="9.423036414783756"><ele>84.0</ele><time>2026-03-29T14:01:59Z</time></trkpt><trkpt lat="45.33662209501164" lon="9.423113117401167"><ele>84.0</ele><time>2026-03-29T14:02:04Z</time></trkpt><trkpt lat="45.33652810883123" lon="9.423166419778847"><ele>84.0</ele><time>2026-03-29T14:02:08Z</time></trkpt><trkpt lat="45.336429996903334" lon="9.42324003346149"><ele>84.0</ele><time>2026-03-29T14:02:10Z</time></trkpt><trkpt lat="45.33630087358448" lon="9.42331277498288"><ele>84.0</ele><time>2026-03-29T14:02:12Z</time></trkpt><trkpt lat="45.3362142652326" lon="9.423361059018417"><ele>84.0</ele><time>2026-03-29T14:02:13Z</time></trkpt><trkpt lat="45.33611208793407" lon="9.423416915199434"><ele>83.5</ele><time>2026-03-29T14:02:14Z</time></trkpt><trkpt lat="45.33600379308731" lon="9.423478280633402"><ele>83.0</ele><time>2026-03-29T14:02:15Z</time></trkpt><trkpt lat="45.3358950876995" lon="9.423540446755933"><ele>82.5</ele><time>2026-03-29T14:02:16Z</time></trkpt><trkpt lat="45.3357762834826" lon="9.423609180182666"><ele>82.0</ele><time>2026-03-29T14:02:17Z</time></trkpt><trkpt lat="45.33564091332437" lon="9.423685089286238"><ele>81.75</ele><time>2026-03-29T14:02:18Z</time></trkpt><trkpt lat="45.335538526299615" lon="9.423739280850716"><ele>81.5</ele><time>2026-03-29T14:02:19Z</time></trkpt><trkpt lat="45.33539476600273" lon="9.423817196246825"><ele>81.25</ele><time>2026-03-29T14:02:20Z</time></trkpt><trkpt lat="45.33525879176945" lon="9.423892561201113"><ele>81.0</ele><time>2026-03-29T14:02:21Z</time></trkpt><trkpt lat="45.335114275199594" lon="9.423972879573087"><ele>82.0</ele><time>2026-03-29T14:02:22Z</time></trkpt><trkpt lat="45.33496436743111" lon="9.42405604167511"><ele>83.0</ele><time>2026-03-29T14:02:23Z</time></trkpt><trkpt lat="45.33481055258491" lon="9.424142341518065"><ele>84.0</ele><time>2026-03-29T14:02:24Z</time></trkpt><trkpt lat="45.33465134737969" lon="9.424227667466626"><ele>84.0</ele><time>2026-03-29T14:02:25Z</time></trkpt><trkpt lat="45.33449104643409" lon="9.424316378167402"><ele>84.0</ele><time>2026-03-29T14:02:26Z</time></trkpt><trkpt lat="45.33433874487923" lon="9.424400692339232"><ele>84.0</ele><time>2026-03-29T14:02:27Z</time></trkpt><trkpt lat="45.33418379216407" lon="9.424487283291628"><ele>84.0</ele><time>2026-03-29T14:02:28Z</time></trkpt><trkpt lat="45.33404420702918" lon="9.424565880688359"><ele>84.0</ele><time>2026-03-29T14:02:29Z</time></trkpt><trkpt lat="45.33389947201638" lon="9.424648762404761"><ele>84.0</ele><time>2026-03-29T14:02:30Z</time></trkpt><trkpt lat="45.33375729946201" lon="9.424723317492775"><ele>83.66666666666667</ele><time>2026-03-29T14:02:31Z</time></trkpt><trkpt lat="45.33361694935039" lon="9.424805609482576"><ele>83.33333333333334</ele><time>2026-03-29T14:02:32Z</time></trkpt><trkpt lat="45.33347248299322" lon="9.42488342317948"><ele>83.0</ele><time>2026-03-29T14:02:33Z</time></trkpt><trkpt lat="45.33332412032646" lon="9.424961800023684"><ele>83.0</ele><time>2026-03-29T14:02:34Z</time></trkpt><trkpt lat="45.333174403319646" lon="9.425038353092527"><ele>83.0</ele><time>2026-03-29T14:02:35Z</time></trkpt><trkpt lat="45.333028924073666" lon="9.425116852280599"><ele>83.0</ele><time>2026-03-29T14:02:36Z</time></trkpt><trkpt lat="45.33289488639844" lon="9.425197785482608"><ele>82.75</ele><time>2026-03-29T14:02:37Z</time></trkpt><trkpt lat="45.33277719326057" lon="9.425280873484452"><ele>82.5</ele><time>2026-03-29T14:02:38Z</time></trkpt><trkpt lat="45.33266193967755" lon="9.425343931438109"><ele>82.25</ele><time>2026-03-29T14:02:39Z</time></trkpt><trkpt lat="45.332546006226316" lon="9.425408610273749"><ele>82.0</ele><time>2026-03-29T14:02:40Z</time></trkpt><trkpt lat="45.332428984200554" lon="9.425467021158907"><ele>81.75</ele><time>2026-03-29T14:02:41Z</time></trkpt><trkpt lat="45.33230336978823" lon="9.425521494509072"><ele>81.5</ele><time>2026-03-29T14:02:42Z</time></trkpt><trkpt lat="45.3321772057976" lon="9.4255905218898"><ele>81.25</ele><time>2026-03-29T14:02:43Z</time></trkpt><trkpt lat="45.3320531233187" lon="9.425666489482763"><ele>81.0</ele><time>2026-03-29T14:02:44Z</time></trkpt><trkpt lat="45.33194384255663" lon="9.425742754769306"><ele>81.0</ele><time>2026-03-29T14:02:45Z</time></trkpt><trkpt lat="45.331841209853444" lon="9.425802743861526"><ele>81.0</ele><time>2026-03-29T14:02:46Z</time></trkpt><trkpt lat="45.33175443721009" lon="9.425850154511153"><ele>81.0</ele><time>2026-03-29T14:02:47Z</time></trkpt><trkpt lat="45.33167211018517" lon="9.425899899160084"><ele>81.0</ele><time>2026-03-29T14:02:48Z</time></trkpt><trkpt lat="45.33158962809276" lon="9.425929581328182"><ele>81.0</ele><time>2026-03-29T14:02:49Z</time></trkpt><trkpt lat="45.331520551797" lon="9.425960442490885"><ele>81.0</ele><time>2026-03-29T14:02:50Z</time></trkpt><trkpt lat="45.33142488943085" lon="9.425994114666967"><ele>81.0</ele><time>2026-03-29T14:02:52Z</time></trkpt><trkpt lat="45.33137170817046" lon="9.425904162025084"><ele>81.0</ele><time>2026-03-29T14:02:54Z</time></trkpt><trkpt lat="45.331377807608256" lon="9.425764940739423"><ele>81.0</ele><time>2026-03-29T14:02:56Z</time></trkpt><trkpt lat="45.33140651888707" lon="9.425611322629958"><ele>81.0</ele><time>2026-03-29T14:02:58Z</time></trkpt><trkpt lat="45.3314143665065" lon="9.425520536681276"><ele>81.0</ele><time>2026-03-29T14:02:59Z</time></trkpt><trkpt lat="45.33142075183754" lon="9.425421088064915"><ele>81.0</ele><time>2026-03-29T14:03:00Z</time></trkpt><trkpt lat="45.33143030749844" lon="9.425316071870679"><ele>81.0</ele><time>2026-03-29T14:03:01Z</time></trkpt><trkpt lat="45.33144199185958" lon="9.425200196351105"><ele>81.0</ele><time>2026-03-29T14:03:02Z</time></trkpt><trkpt lat="45.33145577677207" lon="9.425072808195866"><ele>81.0</ele><time>2026-03-29T14:03:03Z</time></trkpt><trkpt lat="45.33147088567615" lon="9.424931158787668"><ele>81.0</ele><time>2026-03-29T14:03:04Z</time></trkpt><trkpt lat="45.33148585235161" lon="9.424769396198613"><ele>81.5</ele><time>2026-03-29T14:03:05Z</time></trkpt><trkpt lat="45.33150158777646" lon="9.42460980533487"><ele>82.0</ele><time>2026-03-29T14:03:06Z</time></trkpt><trkpt lat="45.33151994240295" lon="9.4244478834315"><ele>82.5</ele><time>2026-03-29T14:03:07Z</time></trkpt><trkpt lat="45.33153560692375" lon="9.424277103454838"><ele>83.0</ele><time>2026-03-29T14:03:08Z</time></trkpt><trkpt lat="45.33155071844398" lon="9.424096764073663"><ele>83.0</ele><time>2026-03-29T14:03:09Z</time></trkpt><trkpt lat="45.33156918107526" lon="9.423911894986563"><ele>83.0</ele><time>2026-03-29T14:03:10Z</time></trkpt><trkpt lat="45.33158967292218" lon="9.423713787125438"><ele>83.0</ele><time>2026-03-29T14:03:11Z</time></trkpt><trkpt lat="45.33161012671656" lon="9.42351141707917"><ele>83.0</ele><time>2026-03-29T14:03:12Z</time></trkpt><trkpt lat="45.33163096948017" lon="9.423305954732978"><ele>82.33333333333334</ele><time>2026-03-29T14:03:13Z</time></trkpt><trkpt lat="45.33165138004142" lon="9.423090854651504"><ele>81.66666666666667</ele><time>2026-03-29T14:03:14Z</time></trkpt><trkpt lat="45.33166974648079" lon="9.422869551618808"><ele>81.0</ele><time>2026-03-29T14:03:15Z</time></trkpt><trkpt lat="45.33168507306299" lon="9.422640720234343"><ele>81.0</ele><time>2026-03-29T14:03:16Z</time></trkpt><trkpt lat="45.331690952561445" lon="9.422412194962225"><ele>81.0</ele><time>2026-03-29T14:03:17Z</time></trkpt><trkpt lat="45.33169053294584" lon="9.422174088771467"><ele>81.0</ele><time>2026-03-29T14:03:18Z</time></trkpt><trkpt lat="45.33168184235749" lon="9.421944030453341"><ele>81.0</ele><time>2026-03-29T14:03:19Z</time></trkpt><trkpt lat="45.33166660921439" lon="9.421708051347618"><ele>81.0</ele><time>2026-03-29T14:03:20Z</time></trkpt><trkpt lat="45.3316493738515" lon="9.421468614272026"><ele>81.0</ele><time>2026-03-29T14:03:21Z</time></trkpt><trkpt lat="45.33163652309826" lon="9.4212204474403"><ele>81.0</ele><time>2026-03-29T14:03:22Z</time></trkpt><trkpt lat="45.33162209940613" lon="9.420966544356553"><ele>81.0</ele><time>2026-03-29T14:03:23Z</time></trkpt><trkpt lat="45.33160289684672" lon="9.420712222815478"><ele>81.0</ele><time>2026-03-29T14:03:24Z</time></trkpt><trkpt lat="45.33158393771371" lon="9.420455102266843"><ele>81.0</ele><time>2026-03-29T14:03:25Z</time></trkpt><trkpt lat="45.33156675105327" lon="9.420195926573623"><ele>81.0</ele><time>2026-03-29T14:03:26Z</time></trkpt><trkpt lat="45.33154879020159" lon="9.41993331283841"><ele>81.0</ele><time>2026-03-29T14:03:27Z</time></trkpt><trkpt lat="45.331531525781834" lon="9.419669191491668"><ele>81.33333333333333</ele><time>2026-03-29T14:03:28Z</time></trkpt><trkpt lat="45.33151450165603" lon="9.419402544956425"><ele>81.66666666666666</ele><time>2026-03-29T14:03:29Z</time></trkpt><trkpt lat="45.33149820727592" lon="9.419133692318487"><ele>82.0</ele><time>2026-03-29T14:03:30Z</time></trkpt><trkpt lat="45.331481007341594" lon="9.418866794087577"><ele>81.66666666666666</ele><time>2026-03-29T14:03:31Z</time></trkpt><trkpt lat="45.33146283649797" lon="9.41860071746014"><ele>81.33333333333333</ele><time>2026-03-29T14:03:32Z</time></trkpt><trkpt lat="45.331445990615975" lon="9.418334065125615"><ele>81.0</ele><time>2026-03-29T14:03:33Z</time></trkpt><trkpt lat="45.33143761646094" lon="9.418074863012695"><ele>81.0</ele><time>2026-03-29T14:03:34Z</time></trkpt><trkpt lat="45.33145688086709" lon="9.417829676145583"><ele>81.0</ele><time>2026-03-29T14:03:35Z</time></trkpt><trkpt lat="45.33146761472102" lon="9.41757976414491"><ele>81.0</ele><time>2026-03-29T14:03:36Z</time></trkpt><trkpt lat="45.331487319296826" lon="9.417345100303457"><ele>81.5</ele><time>2026-03-29T14:03:37Z</time></trkpt><trkpt lat="45.33150921321016" lon="9.417131339849666"><ele>82.0</ele><time>2026-03-29T14:03:38Z</time></trkpt><trkpt lat="45.33152738689679" lon="9.416943310166875"><ele>82.5</ele><time>2026-03-29T14:03:39Z</time></trkpt><trkpt lat="45.3315697833361" lon="9.41678017019931"><ele>83.0</ele><time>2026-03-29T14:03:40Z</time></trkpt><trkpt lat="45.331631602701734" lon="9.416646459810595"><ele>83.0</ele><time>2026-03-29T14:03:41Z</time></trkpt><trkpt lat="45.331696135520666" lon="9.4165267695658"><ele>83.0</ele><time>2026-03-29T14:03:42Z</time></trkpt><trkpt lat="45.331759582621956" lon="9.41641831063383"><ele>83.0</ele><time>2026-03-29T14:03:43Z</time></trkpt><trkpt lat="45.33180035251198" lon="9.41630618513013"><ele>83.0</ele><time>2026-03-29T14:03:44Z</time></trkpt><trkpt lat="45.33179049021809" lon="9.416184772666677"><ele>83.0</ele><time>2026-03-29T14:03:45Z</time></trkpt><trkpt lat="45.331745005272786" lon="9.41606794684627"><ele>83.0</ele><time>2026-03-29T14:03:46Z</time></trkpt><trkpt lat="45.3316624915652" lon="9.415998425974372"><ele>83.0</ele><time>2026-03-29T14:03:47Z</time></trkpt><trkpt lat="45.33156837497219" lon="9.415983443866661"><ele>83.0</ele><time>2026-03-29T14:03:48Z</time></trkpt><trkpt lat="45.33147150728254" lon="9.416011731930373"><ele>83.0</ele><time>2026-03-29T14:03:49Z</time></trkpt><trkpt lat="45.33136844514411" lon="9.416039624347675"><ele>83.0</ele><time>2026-03-29T14:03:50Z</time></trkpt><trkpt lat="45.33124864130636" lon="9.416022052858652"><ele>83.0</ele><time>2026-03-29T14:03:51Z</time></trkpt><trkpt lat="45.3311286036044" lon="9.415945601061463"><ele>83.0</ele><time>2026-03-29T14:03:52Z</time></trkpt><trkpt lat="45.3310072010984" lon="9.415816572251726"><ele>83.0</ele><time>2026-03-29T14:03:53Z</time></trkpt><trkpt lat="45.33090413563121" lon="9.415648255353455"><ele>83.0</ele><time>2026-03-29T14:03:54Z</time></trkpt><trkpt lat="45.33081169299633" lon="9.415463267932322"><ele>82.66666666666667</ele><time>2026-03-29T14:03:55Z</time></trkpt><trkpt lat="45.3307327487378" lon="9.415251449273859"><ele>82.33333333333333</ele><time>2026-03-29T14:03:56Z</time></trkpt><trkpt lat="45.33065850717939" lon="9.415018655196164"><ele>82.0</ele><time>2026-03-29T14:03:57Z</time></trkpt><trkpt lat="45.33058441568289" lon="9.414788471072583"><ele>81.33333333333333</ele><time>2026-03-29T14:03:58Z</time></trkpt><trkpt lat="45.330536555079064" lon="9.414571257852051"><ele>80.66666666666667</ele><time>2026-03-29T14:03:59Z</time></trkpt><trkpt lat="45.33048938566649" lon="9.414356335268307"><ele>80.0</ele><time>2026-03-29T14:04:00Z</time></trkpt><trkpt lat="45.330448579716304" lon="9.414139852763478"><ele>80.0</ele><time>2026-03-29T14:04:01Z</time></trkpt><trkpt lat="45.33041449328459" lon="9.41393063637017"><ele>80.0</ele><time>2026-03-29T14:04:02Z</time></trkpt><trkpt lat="45.33038416143692" lon="9.413740166745773"><ele>80.0</ele><time>2026-03-29T14:04:03Z</time></trkpt><trkpt lat="45.33037489047927" lon="9.413552289587123"><ele>80.0</ele><time>2026-03-29T14:04:04Z</time></trkpt><trkpt lat="45.330350416944434" lon="9.413377235354757"><ele>80.4</ele><time>2026-03-29T14:04:05Z</time></trkpt><trkpt lat="45.3303277543779" lon="9.413216422341764"><ele>80.8</ele><time>2026-03-29T14:04:06Z</time></trkpt><trkpt lat="45.33030530650143" lon="9.413057132317986"><ele>81.19999999999999</ele><time>2026-03-29T14:04:07Z</time></trkpt><trkpt lat="45.3302854949832" lon="9.412916550189001"><ele>81.6</ele><time>2026-03-29T14:04:08Z</time></trkpt><trkpt lat="45.33026920934811" lon="9.41280098881345"><ele>82.0</ele><time>2026-03-29T14:04:09Z</time></trkpt><trkpt lat="45.33000915723567" lon="9.41281249325555"><ele>82.5</ele><time>2026-03-29T14:04:11Z</time></trkpt><trkpt lat="45.32989477556198" lon="9.41281043837113"><ele>83.0</ele><time>2026-03-29T14:04:12Z</time></trkpt><trkpt lat="45.32977477858133" lon="9.412872985647398"><ele>83.5</ele><time>2026-03-29T14:04:13Z</time></trkpt><trkpt lat="45.329641648253606" lon="9.412929266544868"><ele>84.0</ele><time>2026-03-29T14:04:14Z</time></trkpt><trkpt lat="45.32949401498538" lon="9.41297147823262"><ele>83.33333333333333</ele><time>2026-03-29T14:04:15Z</time></trkpt><trkpt lat="45.32934114784037" lon="9.41300650608562"><ele>82.66666666666666</ele><time>2026-03-29T14:04:16Z</time></trkpt><trkpt lat="45.32918208382244" lon="9.413032580711834"><ele>82.0</ele><time>2026-03-29T14:04:17Z</time></trkpt><trkpt lat="45.32901090151094" lon="9.41303665674797"><ele>82.33333333333333</ele><time>2026-03-29T14:04:18Z</time></trkpt><trkpt lat="45.328842103052494" lon="9.413016602894142"><ele>82.66666666666667</ele><time>2026-03-29T14:04:19Z</time></trkpt><trkpt lat="45.32867481459777" lon="9.412971179286858"><ele>83.0</ele><time>2026-03-29T14:04:20Z</time></trkpt><trkpt lat="45.32850139435944" lon="9.41291103189929"><ele>83.33333333333334</ele><time>2026-03-29T14:04:21Z</time></trkpt><trkpt lat="45.32832792151778" lon="9.412840164562455"><ele>83.66666666666667</ele><time>2026-03-29T14:04:22Z</time></trkpt><trkpt lat="45.328150739949116" lon="9.412768570670252"><ele>84.0</ele><time>2026-03-29T14:04:23Z</time></trkpt><trkpt lat="45.327971520339496" lon="9.412697973335854"><ele>84.0</ele><time>2026-03-29T14:04:24Z</time></trkpt><trkpt lat="45.32779378303564" lon="9.412624819831146"><ele>84.0</ele><time>2026-03-29T14:04:25Z</time></trkpt><trkpt lat="45.32760927536519" lon="9.412549287468424"><ele>84.0</ele><time>2026-03-29T14:04:26Z</time></trkpt><trkpt lat="45.32742461940278" lon="9.412474753185471"><ele>84.0</ele><time>2026-03-29T14:04:27Z</time></trkpt><trkpt lat="45.32724262706192" lon="9.412403082383891"><ele>84.0</ele><time>2026-03-29T14:04:28Z</time></trkpt><trkpt lat="45.327061516998704" lon="9.412330725589934"><ele>84.0</ele><time>2026-03-29T14:04:29Z</time></trkpt><trkpt lat="45.32687601425668" lon="9.412253479711003"><ele>84.0</ele><time>2026-03-29T14:04:30Z</time></trkpt><trkpt lat="45.32669172264623" lon="9.41217587185361"><ele>84.0</ele><time>2026-03-29T14:04:31Z</time></trkpt><trkpt lat="45.32650865759685" lon="9.412096378208327"><ele>84.0</ele><time>2026-03-29T14:04:32Z</time></trkpt><trkpt lat="45.326328004389126" lon="9.412018145990965"><ele>84.66666666666667</ele><time>2026-03-29T14:04:33Z</time></trkpt><trkpt lat="45.32614523107858" lon="9.41194364841053"><ele>85.33333333333334</ele><time>2026-03-29T14:04:34Z</time></trkpt><trkpt lat="45.32596324184755" lon="9.411872930673349"><ele>86.0</ele><time>2026-03-29T14:04:35Z</time></trkpt><trkpt lat="45.325783275972" lon="9.411789859289547"><ele>86.0</ele><time>2026-03-29T14:04:36Z</time></trkpt><trkpt lat="45.325604181480685" lon="9.41170408534927"><ele>86.0</ele><time>2026-03-29T14:04:37Z</time></trkpt><trkpt lat="45.32542756891506" lon="9.41161984490027"><ele>86.0</ele><time>2026-03-29T14:04:38Z</time></trkpt><trkpt lat="45.32524792103016" lon="9.411541942640657"><ele>85.66666666666667</ele><time>2026-03-29T14:04:39Z</time></trkpt><trkpt lat="45.32506570219899" lon="9.411466431060346"><ele>85.33333333333333</ele><time>2026-03-29T14:04:40Z</time></trkpt><trkpt lat="45.3248902767366" lon="9.411390447466779"><ele>85.0</ele><time>2026-03-29T14:04:41Z</time></trkpt><trkpt lat="45.32471750004795" lon="9.411314532121013"><ele>85.0</ele><time>2026-03-29T14:04:42Z</time></trkpt><trkpt lat="45.32454961003318" lon="9.411237457648877"><ele>85.0</ele><time>2026-03-29T14:04:43Z</time></trkpt><trkpt lat="45.32438941808348" lon="9.411166107864858"><ele>85.0</ele><time>2026-03-29T14:04:44Z</time></trkpt><trkpt lat="45.324233457582004" lon="9.411099835830237"><ele>85.0</ele><time>2026-03-29T14:04:45Z</time></trkpt><trkpt lat="45.32408366901431" lon="9.411032921291772"><ele>85.0</ele><time>2026-03-29T14:04:46Z</time></trkpt><trkpt lat="45.32393674028935" lon="9.41096875513061"><ele>85.0</ele><time>2026-03-29T14:04:47Z</time></trkpt><trkpt lat="45.32379332658381" lon="9.410907639581309"><ele>84.33333333333333</ele><time>2026-03-29T14:04:48Z</time></trkpt><trkpt lat="45.323651704225504" lon="9.410844238334688"><ele>83.66666666666667</ele><time>2026-03-29T14:04:49Z</time></trkpt><trkpt lat="45.32350653043655" lon="9.41078257477542"><ele>83.0</ele><time>2026-03-29T14:04:50Z</time></trkpt><trkpt lat="45.32336153766542" lon="9.41071621516892"><ele>83.0</ele><time>2026-03-29T14:04:51Z</time></trkpt><trkpt lat="45.323218867067986" lon="9.410650567005128"><ele>83.0</ele><time>2026-03-29T14:04:52Z</time></trkpt><trkpt lat="45.32307335690931" lon="9.410584160630165"><ele>83.0</ele><time>2026-03-29T14:04:53Z</time></trkpt><trkpt lat="45.32292658724338" lon="9.410526763185041"><ele>83.25</ele><time>2026-03-29T14:04:54Z</time></trkpt><trkpt lat="45.32278789961589" lon="9.410463584796867"><ele>83.5</ele><time>2026-03-29T14:04:55Z</time></trkpt><trkpt lat="45.322657812397125" lon="9.410404645748079"><ele>83.75</ele><time>2026-03-29T14:04:56Z</time></trkpt><trkpt lat="45.32253570302467" lon="9.410351592191587"><ele>84.0</ele><time>2026-03-29T14:04:57Z</time></trkpt><trkpt lat="45.32242439924235" lon="9.410301708133781"><ele>84.0</ele><time>2026-03-29T14:04:58Z</time></trkpt><trkpt lat="45.32232412143462" lon="9.410256436768746"><ele>84.0</ele><time>2026-03-29T14:04:59Z</time></trkpt><trkpt lat="45.32221878251487" lon="9.410212010437373"><ele>84.0</ele><time>2026-03-29T14:05:00Z</time></trkpt><trkpt lat="45.322126707296924" lon="9.410168131514812"><ele>84.0</ele><time>2026-03-29T14:05:01Z</time></trkpt><trkpt lat="45.32204713820436" lon="9.410129506066896"><ele>84.0</ele><time>2026-03-29T14:05:02Z</time></trkpt><trkpt lat="45.32198091042968" lon="9.410097040888507"><ele>83.6</ele><time>2026-03-29T14:05:03Z</time></trkpt><trkpt lat="45.321908436882275" lon="9.410067061210226"><ele>83.2</ele><time>2026-03-29T14:05:05Z</time></trkpt><trkpt lat="45.32185116346117" lon="9.410272365764808"><ele>82.8</ele><time>2026-03-29T14:05:07Z</time></trkpt><trkpt lat="45.3218389059076" lon="9.410385426436765"><ele>82.39999999999999</ele><time>2026-03-29T14:05:09Z</time></trkpt><trkpt lat="45.321863364659855" lon="9.410483780517437"><ele>82.0</ele><time>2026-03-29T14:05:11Z</time></trkpt><trkpt lat="45.321954281960394" lon="9.410513982824117"><ele>82.0</ele><time>2026-03-29T14:05:13Z</time></trkpt><trkpt lat="45.32202380144686" lon="9.41053527169293"><ele>82.0</ele><time>2026-03-29T14:05:14Z</time></trkpt><trkpt lat="45.322109778627436" lon="9.410572763864353"><ele>82.0</ele><time>2026-03-29T14:05:15Z</time></trkpt><trkpt lat="45.322197450476104" lon="9.410617997942387"><ele>82.0</ele><time>2026-03-29T14:05:16Z</time></trkpt><trkpt lat="45.322295485372514" lon="9.410662669904877"><ele>82.0</ele><time>2026-03-29T14:05:17Z</time></trkpt><trkpt lat="45.322393554091946" lon="9.410714575601364"><ele>82.0</ele><time>2026-03-29T14:05:18Z</time></trkpt><trkpt lat="45.32249616347344" lon="9.410764335465185"><ele>82.0</ele><time>2026-03-29T14:05:19Z</time></trkpt><trkpt lat="45.322598685777436" lon="9.410811075282068"><ele>82.0</ele><time>2026-03-29T14:05:20Z</time></trkpt><trkpt lat="45.32271353106276" lon="9.410854904144772"><ele>82.0</ele><time>2026-03-29T14:05:21Z</time></trkpt><trkpt lat="45.32282302581192" lon="9.410874492032116"><ele>82.0</ele><time>2026-03-29T14:05:22Z</time></trkpt><trkpt lat="45.32293898122691" lon="9.410893300972093"><ele>82.0</ele><time>2026-03-29T14:05:23Z</time></trkpt><trkpt lat="45.3230350022218" lon="9.410932279790163"><ele>82.0</ele><time>2026-03-29T14:05:24Z</time></trkpt><trkpt lat="45.32313331248671" lon="9.410972894773417"><ele>82.0</ele><time>2026-03-29T14:05:25Z</time></trkpt><trkpt lat="45.32323192298041" lon="9.41102379136495"><ele>82.0</ele><time>2026-03-29T14:05:26Z</time></trkpt><trkpt lat="45.3233322628281" lon="9.411074575878356"><ele>82.0</ele><time>2026-03-29T14:05:27Z</time></trkpt><trkpt lat="45.32343187391513" lon="9.411128687347274"><ele>82.0</ele><time>2026-03-29T14:05:28Z</time></trkpt><trkpt lat="45.32353150637775" lon="9.411182646755845"><ele>82.0</ele><time>2026-03-29T14:05:29Z</time></trkpt><trkpt lat="45.32363825446272" lon="9.411218059958388"><ele>82.0</ele><time>2026-03-29T14:05:30Z</time></trkpt><trkpt lat="45.3237382501098" lon="9.411268283802741"><ele>82.0</ele><time>2026-03-29T14:05:31Z</time></trkpt><trkpt lat="45.32383546614005" lon="9.411325648548274"><ele>82.0</ele><time>2026-03-29T14:05:32Z</time></trkpt><trkpt lat="45.323926484527234" lon="9.411369849903567"><ele>82.39999999999999</ele><time>2026-03-29T14:05:33Z</time></trkpt><trkpt lat="45.32401365107601" lon="9.411414269719304"><ele>82.8</ele><time>2026-03-29T14:05:34Z</time></trkpt><trkpt lat="45.32408760044615" lon="9.411448420363136"><ele>83.2</ele><time>2026-03-29T14:05:35Z</time></trkpt><trkpt lat="45.324154732408665" lon="9.411479580158437"><ele>83.6</ele><time>2026-03-29T14:05:36Z</time></trkpt><trkpt lat="45.324249324172484" lon="9.41155683150822"><ele>84.0</ele><time>2026-03-29T14:05:38Z</time></trkpt><trkpt lat="45.324275646590856" lon="9.411698683927558"><ele>84.0</ele><time>2026-03-29T14:05:40Z</time></trkpt><trkpt lat="45.32422280591502" lon="9.411881366472148"><ele>84.0</ele><time>2026-03-29T14:05:42Z</time></trkpt><trkpt lat="45.32419050783217" lon="9.41200054970471"><ele>84.0</ele><time>2026-03-29T14:05:43Z</time></trkpt><trkpt lat="45.324156920456986" lon="9.412123311674959"><ele>84.0</ele><time>2026-03-29T14:05:44Z</time></trkpt><trkpt lat="45.324123592794905" lon="9.412246578569663"><ele>84.0</ele><time>2026-03-29T14:05:45Z</time></trkpt><trkpt lat="45.32410102749514" lon="9.412358644375553"><ele>83.6</ele><time>2026-03-29T14:05:46Z</time></trkpt><trkpt lat="45.32408081617762" lon="9.412479424787467"><ele>83.2</ele><time>2026-03-29T14:05:47Z</time></trkpt><trkpt lat="45.32404971981528" lon="9.41259880364978"><ele>82.8</ele><time>2026-03-29T14:05:48Z</time></trkpt><trkpt lat="45.3240171845803" lon="9.412730207569712"><ele>82.39999999999999</ele><time>2026-03-29T14:05:49Z</time></trkpt><trkpt lat="45.32399279010791" lon="9.412854477920195"><ele>82.0</ele><time>2026-03-29T14:05:50Z</time></trkpt><trkpt lat="45.323971909054606" lon="9.412992175970073"><ele>81.8</ele><time>2026-03-29T14:05:51Z</time></trkpt><trkpt lat="45.3239498202355" lon="9.413127885584242"><ele>81.6</ele><time>2026-03-29T14:05:52Z</time></trkpt><trkpt lat="45.32392025079346" lon="9.41325443329823"><ele>81.39999999999999</ele><time>2026-03-29T14:05:53Z</time></trkpt><trkpt lat="45.323896372780794" lon="9.413388381014885"><ele>81.19999999999999</ele><time>2026-03-29T14:05:54Z</time></trkpt><trkpt lat="45.323879916609464" lon="9.413523140199977"><ele>81.0</ele><time>2026-03-29T14:05:55Z</time></trkpt><trkpt lat="45.32385505061727" lon="9.413648696227225"><ele>80.8</ele><time>2026-03-29T14:05:56Z</time></trkpt><trkpt lat="45.32382712086039" lon="9.41378024358827"><ele>80.6</ele><time>2026-03-29T14:05:57Z</time></trkpt><trkpt lat="45.32379887893207" lon="9.413909904443756"><ele>80.4</ele><time>2026-03-29T14:05:58Z</time></trkpt><trkpt lat="45.32376902220441" lon="9.414043769242587"><ele>80.2</ele><time>2026-03-29T14:05:59Z</time></trkpt><trkpt lat="45.323736948320814" lon="9.414180296893534"><ele>80.0</ele><time>2026-03-29T14:06:00Z</time></trkpt><trkpt lat="45.323705665130696" lon="9.414317608288933"><ele>80.0</ele><time>2026-03-29T14:06:01Z</time></trkpt><trkpt lat="45.3236760444737" lon="9.414457349316345"><ele>80.0</ele><time>2026-03-29T14:06:02Z</time></trkpt><trkpt lat="45.3236503341743" lon="9.414599193273418"><ele>80.0</ele><time>2026-03-29T14:06:03Z</time></trkpt><trkpt lat="45.323610803434406" lon="9.414733776925608"><ele>80.0</ele><time>2026-03-29T14:06:04Z</time></trkpt><trkpt lat="45.32357137089344" lon="9.414860654294886"><ele>80.0</ele><time>2026-03-29T14:06:05Z</time></trkpt><trkpt lat="45.32355133875327" lon="9.41499542186244"><ele>80.4</ele><time>2026-03-29T14:06:06Z</time></trkpt><trkpt lat="45.32353368361219" lon="9.415131619238977"><ele>80.8</ele><time>2026-03-29T14:06:07Z</time></trkpt><trkpt lat="45.323505540246764" lon="9.415267912734631"><ele>81.19999999999999</ele><time>2026-03-29T14:06:08Z</time></trkpt><trkpt lat="45.32347104928424" lon="9.415408570127509"><ele>81.6</ele><time>2026-03-29T14:06:09Z</time></trkpt><trkpt lat="45.32343889069971" lon="9.415544628272801"><ele>82.0</ele><time>2026-03-29T14:06:10Z</time></trkpt><trkpt lat="45.323407706519156" lon="9.415684894709178"><ele>82.39999999999999</ele><time>2026-03-29T14:06:11Z</time></trkpt><trkpt lat="45.32337637894101" lon="9.415832308512801"><ele>82.8</ele><time>2026-03-29T14:06:12Z</time></trkpt><trkpt lat="45.32334616493022" lon="9.415977572526835"><ele>83.2</ele><time>2026-03-29T14:06:13Z</time></trkpt><trkpt lat="45.32331685049856" lon="9.416111532430843"><ele>83.6</ele><time>2026-03-29T14:06:14Z</time></trkpt><trkpt lat="45.32328799993099" lon="9.416244545402723"><ele>84.0</ele><time>2026-03-29T14:06:15Z</time></trkpt><trkpt lat="45.323259227588" lon="9.416375257694972"><ele>84.0</ele><time>2026-03-29T14:06:16Z</time></trkpt><trkpt lat="45.323227256504246" lon="9.416513208429917"><ele>84.0</ele><time>2026-03-29T14:06:17Z</time></trkpt><trkpt lat="45.32320096336658" lon="9.416655573341266"><ele>84.0</ele><time>2026-03-29T14:06:18Z</time></trkpt><trkpt lat="45.32317533373893" lon="9.416786981704286"><ele>84.0</ele><time>2026-03-29T14:06:19Z</time></trkpt><trkpt lat="45.323144048863554" lon="9.416921726351035"><ele>84.0</ele><time>2026-03-29T14:06:20Z</time></trkpt><trkpt lat="45.323116796667165" lon="9.417058833240297"><ele>84.0</ele><time>2026-03-29T14:06:21Z</time></trkpt><trkpt lat="45.323085836899786" lon="9.417193363809305"><ele>84.0</ele><time>2026-03-29T14:06:22Z</time></trkpt><trkpt lat="45.32304054552394" lon="9.41731954761923"><ele>84.0</ele><time>2026-03-29T14:06:23Z</time></trkpt><trkpt lat="45.32297334768959" lon="9.417425517978554"><ele>84.0</ele><time>2026-03-29T14:06:24Z</time></trkpt><trkpt lat="45.32289318877912" lon="9.417485392791225"><ele>84.0</ele><time>2026-03-29T14:06:25Z</time></trkpt><trkpt lat="45.32279626634824" lon="9.417539504554611"><ele>84.0</ele><time>2026-03-29T14:06:26Z</time></trkpt><trkpt lat="45.322669895150966" lon="9.41758454635151"><ele>84.0</ele><time>2026-03-29T14:06:27Z</time></trkpt><trkpt lat="45.322547066854604" lon="9.41762805174411"><ele>84.0</ele><time>2026-03-29T14:06:28Z</time></trkpt><trkpt lat="45.32243863760345" lon="9.417670254092933"><ele>84.0</ele><time>2026-03-29T14:06:29Z</time></trkpt><trkpt lat="45.32233775178467" lon="9.417708448035988"><ele>84.0</ele><time>2026-03-29T14:06:30Z</time></trkpt><trkpt lat="45.32224080868355" lon="9.417717533847933"><ele>84.0</ele><time>2026-03-29T14:06:31Z</time></trkpt><trkpt lat="45.32215035796214" lon="9.417718413710864"><ele>84.0</ele><time>2026-03-29T14:06:32Z</time></trkpt><trkpt lat="45.32205392028069" lon="9.417723761156891"><ele>84.0</ele><time>2026-03-29T14:06:33Z</time></trkpt><trkpt lat="45.32196188314962" lon="9.417756724999574"><ele>84.0</ele><time>2026-03-29T14:06:34Z</time></trkpt><trkpt lat="45.32186836590605" lon="9.417810726980875"><ele>83.4</ele><time>2026-03-29T14:06:35Z</time></trkpt><trkpt lat="45.32177063940534" lon="9.417872456275967"><ele>82.80000000000001</ele><time>2026-03-29T14:06:36Z</time></trkpt><trkpt lat="45.321669702173146" lon="9.417940108740282"><ele>82.19999999999999</ele><time>2026-03-29T14:06:37Z</time></trkpt><trkpt lat="45.32156354618849" lon="9.418000063053881"><ele>81.6</ele><time>2026-03-29T14:06:38Z</time></trkpt><trkpt lat="45.32145617031234" lon="9.418044956213398"><ele>81.0</ele><time>2026-03-29T14:06:39Z</time></trkpt><trkpt lat="45.32135241543267" lon="9.418066823148832"><ele>80.6</ele><time>2026-03-29T14:06:40Z</time></trkpt><trkpt lat="45.32124513279059" lon="9.41808537342131"><ele>80.19999999999999</ele><time>2026-03-29T14:06:41Z</time></trkpt><trkpt lat="45.32114043858633" lon="9.418106739072092"><ele>79.80000000000001</ele><time>2026-03-29T14:06:42Z</time></trkpt><trkpt lat="45.32103901081109" lon="9.41814643214145"><ele>79.4</ele><time>2026-03-29T14:06:43Z</time></trkpt><trkpt lat="45.320934457519556" lon="9.418204296098127"><ele>79.0</ele><time>2026-03-29T14:06:44Z</time></trkpt><trkpt lat="45.32082975068414" lon="9.41827110712879"><ele>79.0</ele><time>2026-03-29T14:06:45Z</time></trkpt><trkpt lat="45.320723049363124" lon="9.418338473647955"><ele>79.0</ele><time>2026-03-29T14:06:46Z</time></trkpt><trkpt lat="45.3206320594289" lon="9.418392406746"><ele>79.0</ele><time>2026-03-29T14:06:47Z</time></trkpt><trkpt lat="45.32053474665717" lon="9.418442137791109"><ele>79.0</ele><time>2026-03-29T14:06:48Z</time></trkpt><trkpt lat="45.32043119822026" lon="9.41847694362746"><ele>79.0</ele><time>2026-03-29T14:06:49Z</time></trkpt><trkpt lat="45.32032134304196" lon="9.418513471396464"><ele>79.5</ele><time>2026-03-29T14:06:50Z</time></trkpt><trkpt lat="45.32021505248901" lon="9.418563770848982"><ele>80.0</ele><time>2026-03-29T14:06:51Z</time></trkpt><trkpt lat="45.32010843176017" lon="9.418631592257121"><ele>80.5</ele><time>2026-03-29T14:06:52Z</time></trkpt><trkpt lat="45.31999198018351" lon="9.41870181421439"><ele>81.0</ele><time>2026-03-29T14:06:53Z</time></trkpt><trkpt lat="45.31989550162472" lon="9.418764632376645"><ele>81.0</ele><time>2026-03-29T14:06:54Z</time></trkpt><trkpt lat="45.319791147799904" lon="9.41882739517028"><ele>81.0</ele><time>2026-03-29T14:06:55Z</time></trkpt><trkpt lat="45.319693082075666" lon="9.41890529198851"><ele>81.0</ele><time>2026-03-29T14:06:56Z</time></trkpt><trkpt lat="45.31959200971761" lon="9.418978115881297"><ele>81.0</ele><time>2026-03-29T14:06:57Z</time></trkpt><trkpt lat="45.31949633578725" lon="9.419022597504428"><ele>81.0</ele><time>2026-03-29T14:06:58Z</time></trkpt><trkpt lat="45.319397539340756" lon="9.4191033205222"><ele>81.25</ele><time>2026-03-29T14:06:59Z</time></trkpt><trkpt lat="45.319284404713926" lon="9.419143927780896"><ele>81.5</ele><time>2026-03-29T14:07:00Z</time></trkpt><trkpt lat="45.31917633295064" lon="9.41921413784009"><ele>81.75</ele><time>2026-03-29T14:07:01Z</time></trkpt><trkpt lat="45.31905817051115" lon="9.419267764107579"><ele>82.0</ele><time>2026-03-29T14:07:02Z</time></trkpt><trkpt lat="45.318947341135996" lon="9.419337370684365"><ele>81.25</ele><time>2026-03-29T14:07:03Z</time></trkpt><trkpt lat="45.31884061045285" lon="9.419410395548345"><ele>80.5</ele><time>2026-03-29T14:07:04Z</time></trkpt><trkpt lat="45.31873203212378" lon="9.419479462555705"><ele>79.75</ele><time>2026-03-29T14:07:05Z</time></trkpt><trkpt lat="45.31862245422897" lon="9.419548421562856"><ele>79.0</ele><time>2026-03-29T14:07:06Z</time></trkpt><trkpt lat="45.31852032689209" lon="9.419578921777516"><ele>79.0</ele><time>2026-03-29T14:07:07Z</time></trkpt><trkpt lat="45.31842595911689" lon="9.4196136417336"><ele>79.0</ele><time>2026-03-29T14:07:08Z</time></trkpt><trkpt lat="45.31832680373293" lon="9.419655546541675"><ele>79.0</ele><time>2026-03-29T14:07:09Z</time></trkpt><trkpt lat="45.318238730893015" lon="9.41969448389332"><ele>79.0</ele><time>2026-03-29T14:07:10Z</time></trkpt><trkpt lat="45.31814910740044" lon="9.419735790544442"><ele>79.0</ele><time>2026-03-29T14:07:11Z</time></trkpt><trkpt lat="45.318065519241145" lon="9.419786987362704"><ele>79.16666666666666</ele><time>2026-03-29T14:07:12Z</time></trkpt><trkpt lat="45.31798003453246" lon="9.41982980605295"><ele>79.33333333333333</ele><time>2026-03-29T14:07:13Z</time></trkpt><trkpt lat="45.31789221410611" lon="9.419876813133335"><ele>79.5</ele><time>2026-03-29T14:07:14Z</time></trkpt><trkpt lat="45.317812860635726" lon="9.419922421009776"><ele>79.66666666666667</ele><time>2026-03-29T14:07:15Z</time></trkpt><trkpt lat="45.31773836366985" lon="9.419946130617719"><ele>79.83333333333334</ele><time>2026-03-29T14:07:16Z</time></trkpt><trkpt lat="45.3176688930055" lon="9.419979692322276"><ele>80.0</ele><time>2026-03-29T14:07:17Z</time></trkpt><trkpt lat="45.31759993081411" lon="9.419992782248869"><ele>80.0</ele><time>2026-03-29T14:07:18Z</time></trkpt><trkpt lat="45.317499282135756" lon="9.420058530229577"><ele>80.0</ele><time>2026-03-29T14:07:20Z</time></trkpt><trkpt lat="45.317394055018106" lon="9.42008359998273"><ele>80.0</ele><time>2026-03-29T14:07:22Z</time></trkpt><trkpt lat="45.31729133408403" lon="9.420125266654022"><ele>80.0</ele><time>2026-03-29T14:07:24Z</time></trkpt><trkpt lat="45.317180286585796" lon="9.420167141936702"><ele>80.0</ele><time>2026-03-29T14:07:26Z</time></trkpt><trkpt lat="45.31707499962386" lon="9.42019715904423"><ele>80.2</ele><time>2026-03-29T14:07:28Z</time></trkpt><trkpt lat="45.31697067893006" lon="9.420225623484846"><ele>80.4</ele><time>2026-03-29T14:07:30Z</time></trkpt><trkpt lat="45.316862409295645" lon="9.420236595396704"><ele>80.6</ele><time>2026-03-29T14:07:32Z</time></trkpt><trkpt lat="45.31676458471319" lon="9.420250998720444"><ele>80.8</ele><time>2026-03-29T14:07:34Z</time></trkpt><trkpt lat="45.316664208239374" lon="9.420261390043132"><ele>81.0</ele><time>2026-03-29T14:07:36Z</time></trkpt><trkpt lat="45.31656039366843" lon="9.420271037682777"><ele>81.0</ele><time>2026-03-29T14:07:38Z</time></trkpt><trkpt lat="45.31644177152085" lon="9.42028682488065"><ele>81.0</ele><time>2026-03-29T14:07:40Z</time></trkpt><trkpt lat="45.316361382422414" lon="9.420281455382282"><ele>81.0</ele><time>2026-03-29T14:07:41Z</time></trkpt><trkpt lat="45.31627279892374" lon="9.42029531621662"><ele>81.0</ele><time>2026-03-29T14:07:42Z</time></trkpt><trkpt lat="45.31617163026153" lon="9.420334829747977"><ele>81.0</ele><time>2026-03-29T14:07:43Z</time></trkpt><trkpt lat="45.316053626244525" lon="9.42032953501357"><ele>81.0</ele><time>2026-03-29T14:07:44Z</time></trkpt><trkpt lat="45.315931548760275" lon="9.420346747992799"><ele>81.0</ele><time>2026-03-29T14:07:45Z</time></trkpt><trkpt lat="45.315818778273815" lon="9.420357451656068"><ele>81.0</ele><time>2026-03-29T14:07:46Z</time></trkpt><trkpt lat="45.31571655094451" lon="9.420380880586386"><ele>81.0</ele><time>2026-03-29T14:07:47Z</time></trkpt><trkpt lat="45.31560710248626" lon="9.420396083132987"><ele>81.0</ele><time>2026-03-29T14:07:48Z</time></trkpt><trkpt lat="45.3154996736556" lon="9.420408761361626"><ele>81.0</ele><time>2026-03-29T14:07:49Z</time></trkpt><trkpt lat="45.315390406898565" lon="9.42042129151611"><ele>81.0</ele><time>2026-03-29T14:07:50Z</time></trkpt><trkpt lat="45.31528140319876" lon="9.420437446282481"><ele>81.0</ele><time>2026-03-29T14:07:51Z</time></trkpt><trkpt lat="45.315175875806226" lon="9.420462182959108"><ele>81.0</ele><time>2026-03-29T14:07:52Z</time></trkpt><trkpt lat="45.31506028715673" lon="9.420479798615139"><ele>81.0</ele><time>2026-03-29T14:07:53Z</time></trkpt><trkpt lat="45.314954011960396" lon="9.420524461966199"><ele>81.0</ele><time>2026-03-29T14:07:54Z</time></trkpt><trkpt lat="45.31483688517647" lon="9.420560947183825"><ele>81.0</ele><time>2026-03-29T14:07:55Z</time></trkpt><trkpt lat="45.31472588586759" lon="9.420616292269958"><ele>81.0</ele><time>2026-03-29T14:07:56Z</time></trkpt><trkpt lat="45.31461085778554" lon="9.420677890425255"><ele>81.0</ele><time>2026-03-29T14:07:57Z</time></trkpt><trkpt lat="45.31449266905226" lon="9.420736202361295"><ele>81.0</ele><time>2026-03-29T14:07:58Z</time></trkpt><trkpt lat="45.31437324933148" lon="9.420787369418424"><ele>81.0</ele><time>2026-03-29T14:07:59Z</time></trkpt><trkpt lat="45.31426040484355" lon="9.420833332617649"><ele>81.0</ele><time>2026-03-29T14:08:00Z</time></trkpt><trkpt lat="45.3141393451896" lon="9.4208764850034"><ele>81.0</ele><time>2026-03-29T14:08:01Z</time></trkpt><trkpt lat="45.3140285173828" lon="9.420927537918027"><ele>81.0</ele><time>2026-03-29T14:08:02Z</time></trkpt><trkpt lat="45.31391877741985" lon="9.42096572581391"><ele>81.0</ele><time>2026-03-29T14:08:03Z</time></trkpt><trkpt lat="45.31381521674694" lon="9.42100147701144"><ele>81.0</ele><time>2026-03-29T14:08:04Z</time></trkpt><trkpt lat="45.313722113396764" lon="9.421034329599348"><ele>81.0</ele><time>2026-03-29T14:08:05Z</time></trkpt><trkpt lat="45.31364048502402" lon="9.421039577901002"><ele>81.0</ele><time>2026-03-29T14:08:06Z</time></trkpt><trkpt lat="45.31357228057054" lon="9.421058886535533"><ele>81.33333333333333</ele><time>2026-03-29T14:08:07Z</time></trkpt><trkpt lat="45.31348586787908" lon="9.421102157651212"><ele>81.66666666666667</ele><time>2026-03-29T14:08:09Z</time></trkpt><trkpt lat="45.31337704041195" lon="9.421139130245654"><ele>82.0</ele><time>2026-03-29T14:08:11Z</time></trkpt><trkpt lat="45.31330600602732" lon="9.421178763342718"><ele>82.33333333333334</ele><time>2026-03-29T14:08:12Z</time></trkpt><trkpt lat="45.313233627781244" lon="9.421214872819705"><ele>82.66666666666667</ele><time>2026-03-29T14:08:13Z</time></trkpt><trkpt lat="45.313169428176685" lon="9.421236934970043"><ele>83.0</ele><time>2026-03-29T14:08:14Z</time></trkpt><trkpt lat="45.31309915208333" lon="9.421265034564282"><ele>82.83333333333334</ele><time>2026-03-29T14:08:15Z</time></trkpt><trkpt lat="45.3130301783637" lon="9.421287305523249"><ele>82.66666666666667</ele><time>2026-03-29T14:08:16Z</time></trkpt><trkpt lat="45.31295655656965" lon="9.421316846826079"><ele>82.5</ele><time>2026-03-29T14:08:17Z</time></trkpt><trkpt lat="45.31288511651341" lon="9.421344452734518"><ele>82.33333333333333</ele><time>2026-03-29T14:08:18Z</time></trkpt><trkpt lat="45.31281155560365" lon="9.421371647007106"><ele>82.16666666666666</ele><time>2026-03-29T14:08:19Z</time></trkpt><trkpt lat="45.31273930603516" lon="9.42140129414193"><ele>82.0</ele><time>2026-03-29T14:08:20Z</time></trkpt><trkpt lat="45.312663825557834" lon="9.421423448156515"><ele>82.0</ele><time>2026-03-29T14:08:21Z</time></trkpt><trkpt lat="45.31259016517635" lon="9.421451036837707"><ele>82.0</ele><time>2026-03-29T14:08:22Z</time></trkpt><trkpt lat="45.312506240608705" lon="9.421479354828868"><ele>82.0</ele><time>2026-03-29T14:08:23Z</time></trkpt><trkpt lat="45.312403737745896" lon="9.421515124190703"><ele>82.0</ele><time>2026-03-29T14:08:24Z</time></trkpt><trkpt lat="45.31228514744459" lon="9.421560138864557"><ele>82.0</ele><time>2026-03-29T14:08:25Z</time></trkpt><trkpt lat="45.312169867453825" lon="9.421601922830305"><ele>82.75</ele><time>2026-03-29T14:08:26Z</time></trkpt><trkpt lat="45.312051256535135" lon="9.421685884483487"><ele>83.5</ele><time>2026-03-29T14:08:27Z</time></trkpt><trkpt lat="45.311912570895764" lon="9.421755193828409"><ele>84.25</ele><time>2026-03-29T14:08:28Z</time></trkpt><trkpt lat="45.31177174533856" lon="9.421852380049126"><ele>85.0</ele><time>2026-03-29T14:08:29Z</time></trkpt><trkpt lat="45.31162253232312" lon="9.421929732331346"><ele>85.0</ele><time>2026-03-29T14:08:30Z</time></trkpt><trkpt lat="45.31147281607024" lon="9.422008611421324"><ele>85.0</ele><time>2026-03-29T14:08:31Z</time></trkpt><trkpt lat="45.31135454252694" lon="9.422064489238073"><ele>85.0</ele><time>2026-03-29T14:08:32Z</time></trkpt><trkpt lat="45.31121308783468" lon="9.4221384962692"><ele>85.0</ele><time>2026-03-29T14:08:33Z</time></trkpt><trkpt lat="45.311072628579794" lon="9.422219052671492"><ele>83.75</ele><time>2026-03-29T14:08:34Z</time></trkpt><trkpt lat="45.31093633053519" lon="9.422303675274655"><ele>82.5</ele><time>2026-03-29T14:08:35Z</time></trkpt><trkpt lat="45.310803208825" lon="9.422369597062081"><ele>81.25</ele><time>2026-03-29T14:08:36Z</time></trkpt><trkpt lat="45.31068261805605" lon="9.422432298975055"><ele>80.0</ele><time>2026-03-29T14:08:37Z</time></trkpt><trkpt lat="45.310578001412956" lon="9.422497485783461"><ele>79.5</ele><time>2026-03-29T14:08:38Z</time></trkpt><trkpt lat="45.31049670473981" lon="9.422605744909566"><ele>79.0</ele><time>2026-03-29T14:08:39Z</time></trkpt><trkpt lat="45.31040773122807" lon="9.42272150304865"><ele>78.5</ele><time>2026-03-29T14:08:40Z</time></trkpt><trkpt lat="45.310295244874155" lon="9.422823806190271"><ele>78.0</ele><time>2026-03-29T14:08:41Z</time></trkpt><trkpt lat="45.31018458877293" lon="9.422919324160793"><ele>78.0</ele><time>2026-03-29T14:08:42Z</time></trkpt><trkpt lat="45.310075828538395" lon="9.422979042648866"><ele>78.0</ele><time>2026-03-29T14:08:43Z</time></trkpt><trkpt lat="45.30997123117041" lon="9.42302783420059"><ele>78.0</ele><time>2026-03-29T14:08:44Z</time></trkpt><trkpt lat="45.30987984923882" lon="9.423086536831612"><ele>78.0</ele><time>2026-03-29T14:08:45Z</time></trkpt><trkpt lat="45.309822884174515" lon="9.423188364080907"><ele>78.0</ele><time>2026-03-29T14:08:46Z</time></trkpt><trkpt lat="45.30977503998847" lon="9.423298055673705"><ele>78.2</ele><time>2026-03-29T14:08:47Z</time></trkpt><trkpt lat="45.30971639666933" lon="9.423380258108388"><ele>78.4</ele><time>2026-03-29T14:08:48Z</time></trkpt><trkpt lat="45.30953638308696" lon="9.423439492762302"><ele>78.60000000000001</ele><time>2026-03-29T14:08:50Z</time></trkpt><trkpt lat="45.309461992936164" lon="9.423488483483089"><ele>78.8</ele><time>2026-03-29T14:08:51Z</time></trkpt><trkpt lat="45.30938452173496" lon="9.42350125327481"><ele>79.0</ele><time>2026-03-29T14:08:52Z</time></trkpt><trkpt lat="45.30931803421725" lon="9.423513015383953"><ele>79.0</ele><time>2026-03-29T14:08:53Z</time></trkpt><trkpt lat="45.30920290041429" lon="9.42350081329458"><ele>79.0</ele><time>2026-03-29T14:08:55.001Z</time></trkpt><trkpt lat="45.30914268348407" lon="9.423461049082418"><ele>79.0</ele><time>2026-03-29T14:08:56.001Z</time></trkpt><trkpt lat="45.30910711338895" lon="9.423372538249215"><ele>79.0</ele><time>2026-03-29T14:08:57.001Z</time></trkpt><trkpt lat="45.309041410655034" lon="9.4233175718562"><ele>79.0</ele><time>2026-03-29T14:08:58.001Z</time></trkpt><trkpt lat="45.30897963167512" lon="9.423235912325694"><ele>79.0</ele><time>2026-03-29T14:08:59.001Z</time></trkpt><trkpt lat="45.30890461479181" lon="9.423150071249703"><ele>79.0</ele><time>2026-03-29T14:09:00.001Z</time></trkpt><trkpt lat="45.30882200454753" lon="9.42305236724272"><ele>79.0</ele><time>2026-03-29T14:09:01Z</time></trkpt><trkpt lat="45.30874103677467" lon="9.422948031985246"><ele>79.0</ele><time>2026-03-29T14:09:02Z</time></trkpt><trkpt lat="45.308660266024404" lon="9.422852356901611"><ele>79.0</ele><time>2026-03-29T14:09:03Z</time></trkpt><trkpt lat="45.30858750668923" lon="9.422762105647557"><ele>79.0</ele><time>2026-03-29T14:09:04Z</time></trkpt><trkpt lat="45.308509334365766" lon="9.422676063889458"><ele>78.8</ele><time>2026-03-29T14:09:05Z</time></trkpt><trkpt lat="45.30841966464986" lon="9.422605050529501"><ele>78.60000000000001</ele><time>2026-03-29T14:09:06Z</time></trkpt><trkpt lat="45.308317104710454" lon="9.422552017086177"><ele>78.4</ele><time>2026-03-29T14:09:07Z</time></trkpt><trkpt lat="45.3082123960406" lon="9.422495829182223"><ele>78.2</ele><time>2026-03-29T14:09:08Z</time></trkpt><trkpt lat="45.30810438409508" lon="9.42245336388708"><ele>78.0</ele><time>2026-03-29T14:09:09Z</time></trkpt><trkpt lat="45.308014358786025" lon="9.422411508225304"><ele>78.0</ele><time>2026-03-29T14:09:10Z</time></trkpt><trkpt lat="45.30793960470923" lon="9.422376854066094"><ele>78.0</ele><time>2026-03-29T14:09:11Z</time></trkpt><trkpt lat="45.30787537710822" lon="9.422344830651973"><ele>78.0</ele><time>2026-03-29T14:09:12Z</time></trkpt><trkpt lat="45.307814870293356" lon="9.42231553942662"><ele>78.0</ele><time>2026-03-29T14:09:13Z</time></trkpt><trkpt lat="45.307742819514345" lon="9.422277907349137"><ele>78.0</ele><time>2026-03-29T14:09:15Z</time></trkpt><trkpt lat="45.30768351883562" lon="9.42248143673406"><ele>78.0</ele><time>2026-03-29T14:09:16Z</time></trkpt><trkpt lat="45.30764420566315" lon="9.422593072842208"><ele>78.0</ele><time>2026-03-29T14:09:17Z</time></trkpt><trkpt lat="45.30760169142429" lon="9.422707661609078"><ele>78.0</ele><time>2026-03-29T14:09:18Z</time></trkpt><trkpt lat="45.30755958744364" lon="9.42282128485942"><ele>78.0</ele><time>2026-03-29T14:09:19Z</time></trkpt><trkpt lat="45.307520299687674" lon="9.422919820731927"><ele>78.0</ele><time>2026-03-29T14:09:20Z</time></trkpt><trkpt lat="45.307475381037285" lon="9.42302408781319"><ele>78.0</ele><time>2026-03-29T14:09:21Z</time></trkpt><trkpt lat="45.307421886074216" lon="9.423119389724537"><ele>78.0</ele><time>2026-03-29T14:09:22Z</time></trkpt><trkpt lat="45.30734806933937" lon="9.423186108247693"><ele>78.0</ele><time>2026-03-29T14:09:23Z</time></trkpt><trkpt lat="45.30726299911534" lon="9.423246065578084"><ele>78.0</ele><time>2026-03-29T14:09:24Z</time></trkpt><trkpt lat="45.30717743916045" lon="9.423302449345433"><ele>78.0</ele><time>2026-03-29T14:09:25Z</time></trkpt><trkpt lat="45.307096871917516" lon="9.423371434330443"><ele>78.0</ele><time>2026-03-29T14:09:26Z</time></trkpt><trkpt lat="45.30701585434651" lon="9.423439668990634"><ele>78.0</ele><time>2026-03-29T14:09:27Z</time></trkpt><trkpt lat="45.306937368710734" lon="9.423510924491913"><ele>78.0</ele><time>2026-03-29T14:09:28Z</time></trkpt><trkpt lat="45.306863508245065" lon="9.423577211423485"><ele>78.0</ele><time>2026-03-29T14:09:29Z</time></trkpt><trkpt lat="45.30679315519892" lon="9.423636912029702"><ele>78.0</ele><time>2026-03-29T14:09:30Z</time></trkpt><trkpt lat="45.306718980956326" lon="9.423699433864035"><ele>78.0</ele><time>2026-03-29T14:09:31Z</time></trkpt><trkpt lat="45.30665470952127" lon="9.423752069558185"><ele>78.0</ele><time>2026-03-29T14:09:32Z</time></trkpt><trkpt lat="45.30659055527829" lon="9.423809837861162"><ele>78.0</ele><time>2026-03-29T14:09:33Z</time></trkpt><trkpt lat="45.306530647624804" lon="9.423863812020539"><ele>77.8</ele><time>2026-03-29T14:09:34Z</time></trkpt><trkpt lat="45.306475149966495" lon="9.423913452918564"><ele>77.6</ele><time>2026-03-29T14:09:35Z</time></trkpt><trkpt lat="45.30636935730269" lon="9.424003702024526"><ele>77.4</ele><time>2026-03-29T14:09:37Z</time></trkpt><trkpt lat="45.30626609093656" lon="9.424059917014317"><ele>77.2</ele><time>2026-03-29T14:09:39Z</time></trkpt><trkpt lat="45.30616354211889" lon="9.424057100920454"><ele>77.0</ele><time>2026-03-29T14:09:41Z</time></trkpt><trkpt lat="45.30605646208167" lon="9.423970153818066"><ele>77.0</ele><time>2026-03-29T14:09:43Z</time></trkpt><trkpt lat="45.305997652813424" lon="9.423914836482382"><ele>77.0</ele><time>2026-03-29T14:09:44Z</time></trkpt><trkpt lat="45.30594136532049" lon="9.423860968033297"><ele>77.0</ele><time>2026-03-29T14:09:45Z</time></trkpt><trkpt lat="45.30588279037462" lon="9.423812250292215"><ele>77.0</ele><time>2026-03-29T14:09:46Z</time></trkpt><trkpt lat="45.305813469770705" lon="9.423758748499605"><ele>77.0</ele><time>2026-03-29T14:09:47Z</time></trkpt><trkpt lat="45.30574286699273" lon="9.423705595138776"><ele>77.0</ele><time>2026-03-29T14:09:48Z</time></trkpt><trkpt lat="45.30567377416328" lon="9.423650714050167"><ele>77.0</ele><time>2026-03-29T14:09:49Z</time></trkpt><trkpt lat="45.30560815581383" lon="9.4236051720712"><ele>77.2</ele><time>2026-03-29T14:09:50Z</time></trkpt><trkpt lat="45.30555265592253" lon="9.42355674819196"><ele>77.4</ele><time>2026-03-29T14:09:51Z</time></trkpt><trkpt lat="45.30545797668582" lon="9.42347729550359"><ele>77.6</ele><time>2026-03-29T14:09:53Z</time></trkpt><trkpt lat="45.30538034619496" lon="9.423418419924795"><ele>77.8</ele><time>2026-03-29T14:09:56Z</time></trkpt><trkpt lat="45.305263458215485" lon="9.423554670401776"><ele>78.0</ele><time>2026-03-29T14:09:58Z</time></trkpt><trkpt lat="45.30522726968103" lon="9.423652042059485"><ele>78.0</ele><time>2026-03-29T14:09:59Z</time></trkpt><trkpt lat="45.30518704153225" lon="9.423781478377746"><ele>78.0</ele><time>2026-03-29T14:10:00Z</time></trkpt><trkpt lat="45.305141023145325" lon="9.423901740555538"><ele>78.0</ele><time>2026-03-29T14:10:01Z</time></trkpt><trkpt lat="45.3050950281384" lon="9.424016771521272"><ele>78.0</ele><time>2026-03-29T14:10:02Z</time></trkpt><trkpt lat="45.30504804025569" lon="9.424137622437712"><ele>78.0</ele><time>2026-03-29T14:10:03Z</time></trkpt><trkpt lat="45.305005048654095" lon="9.424252740394206"><ele>78.0</ele><time>2026-03-29T14:10:04Z</time></trkpt><trkpt lat="45.30495944316523" lon="9.424368483457728"><ele>78.0</ele><time>2026-03-29T14:10:05Z</time></trkpt><trkpt lat="45.30491512267917" lon="9.424479160420988"><ele>78.0</ele><time>2026-03-29T14:10:06Z</time></trkpt><trkpt lat="45.30487012811546" lon="9.424590704267118"><ele>78.0</ele><time>2026-03-29T14:10:07Z</time></trkpt><trkpt lat="45.30482485837047" lon="9.424701487898218"><ele>78.0</ele><time>2026-03-29T14:10:08Z</time></trkpt><trkpt lat="45.30478171796752" lon="9.424815974367387"><ele>77.6</ele><time>2026-03-29T14:10:09Z</time></trkpt><trkpt lat="45.30473857179602" lon="9.424925711761801"><ele>77.19999999999999</ele><time>2026-03-29T14:10:10Z</time></trkpt><trkpt lat="45.30469124415072" lon="9.425040351646869"><ele>76.8</ele><time>2026-03-29T14:10:11Z</time></trkpt><trkpt lat="45.30463717117537" lon="9.425157927149895"><ele>76.39999999999999</ele><time>2026-03-29T14:10:12Z</time></trkpt><trkpt lat="45.30457559568536" lon="9.425278768446939"><ele>76.0</ele><time>2026-03-29T14:10:13Z</time></trkpt><trkpt lat="45.304488702278604" lon="9.425401859970851"><ele>76.25</ele><time>2026-03-29T14:10:14Z</time></trkpt><trkpt lat="45.30438569175195" lon="9.425509506038052"><ele>76.5</ele><time>2026-03-29T14:10:15Z</time></trkpt><trkpt lat="45.30427744859215" lon="9.425595077299143"><ele>76.75</ele><time>2026-03-29T14:10:16Z</time></trkpt><trkpt lat="45.30415790523055" lon="9.425648992805451"><ele>77.0</ele><time>2026-03-29T14:10:17Z</time></trkpt><trkpt lat="45.30403025130292" lon="9.425685198018643"><ele>77.0</ele><time>2026-03-29T14:10:18Z</time></trkpt><trkpt lat="45.303897533995816" lon="9.425695081439146"><ele>77.0</ele><time>2026-03-29T14:10:19Z</time></trkpt><trkpt lat="45.30377117921338" lon="9.42568394220078"><ele>77.0</ele><time>2026-03-29T14:10:20Z</time></trkpt><trkpt lat="45.30365877533149" lon="9.425677720499511"><ele>77.0</ele><time>2026-03-29T14:10:21Z</time></trkpt><trkpt lat="45.30355673838529" lon="9.425670142848146"><ele>77.0</ele><time>2026-03-29T14:10:22Z</time></trkpt><trkpt lat="45.30346353132611" lon="9.425648408300898"><ele>77.0</ele><time>2026-03-29T14:10:23Z</time></trkpt><trkpt lat="45.30338465135239" lon="9.425585697592277"><ele>77.0</ele><time>2026-03-29T14:10:24Z</time></trkpt><trkpt lat="45.30330773111313" lon="9.425504347979855"><ele>77.0</ele><time>2026-03-29T14:10:25Z</time></trkpt><trkpt lat="45.30323469758948" lon="9.42544191348877"><ele>77.0</ele><time>2026-03-29T14:10:26Z</time></trkpt><trkpt lat="45.3031467532839" lon="9.425428919339122"><ele>77.2</ele><time>2026-03-29T14:10:27Z</time></trkpt><trkpt lat="45.30306485232306" lon="9.42547807940384"><ele>77.4</ele><time>2026-03-29T14:10:28Z</time></trkpt><trkpt lat="45.303007035894744" lon="9.425586382317249"><ele>77.6</ele><time>2026-03-29T14:10:29Z</time></trkpt><trkpt lat="45.30297709770795" lon="9.425712790858842"><ele>77.8</ele><time>2026-03-29T14:10:30Z</time></trkpt><trkpt lat="45.302967524279225" lon="9.425855902284068"><ele>78.0</ele><time>2026-03-29T14:10:31Z</time></trkpt><trkpt lat="45.30295552162303" lon="9.425992148542099"><ele>78.0</ele><time>2026-03-29T14:10:32Z</time></trkpt><trkpt lat="45.30292285968381" lon="9.426140647771883"><ele>78.0</ele><time>2026-03-29T14:10:33Z</time></trkpt><trkpt lat="45.30289622047549" lon="9.426309104561824"><ele>78.0</ele><time>2026-03-29T14:10:34Z</time></trkpt><trkpt lat="45.30282437954465" lon="9.426469976267514"><ele>78.0</ele><time>2026-03-29T14:10:35Z</time></trkpt><trkpt lat="45.30276252940425" lon="9.426649961364774"><ele>78.0</ele><time>2026-03-29T14:10:36Z</time></trkpt><trkpt lat="45.30269442303171" lon="9.426833394460685"><ele>78.0</ele><time>2026-03-29T14:10:37Z</time></trkpt><trkpt lat="45.3026248219514" lon="9.427018169533623"><ele>78.0</ele><time>2026-03-29T14:10:38Z</time></trkpt><trkpt lat="45.302553160500665" lon="9.427200291084477"><ele>78.0</ele><time>2026-03-29T14:10:39Z</time></trkpt><trkpt lat="45.302481998342564" lon="9.427381242885438"><ele>78.0</ele><time>2026-03-29T14:10:40Z</time></trkpt><trkpt lat="45.30241301514795" lon="9.427561270176014"><ele>78.0</ele><time>2026-03-29T14:10:41Z</time></trkpt><trkpt lat="45.30234468864947" lon="9.427744928696143"><ele>78.0</ele><time>2026-03-29T14:10:42Z</time></trkpt><trkpt lat="45.30228237819819" lon="9.427934037025826"><ele>78.0</ele><time>2026-03-29T14:10:43Z</time></trkpt><trkpt lat="45.30222297221681" lon="9.42813674080783"><ele>77.0</ele><time>2026-03-29T14:10:44Z</time></trkpt><trkpt lat="45.30216605916284" lon="9.428351293373376"><ele>76.0</ele><time>2026-03-29T14:10:45Z</time></trkpt><trkpt lat="45.302109439461965" lon="9.42857317674936"><ele>75.0</ele><time>2026-03-29T14:10:46Z</time></trkpt><trkpt lat="45.30206067574784" lon="9.428792385791988"><ele>75.66666666666667</ele><time>2026-03-29T14:10:47Z</time></trkpt><trkpt lat="45.30201396820816" lon="9.429024226561628"><ele>76.33333333333334</ele><time>2026-03-29T14:10:48Z</time></trkpt><trkpt lat="45.3019737072154" lon="9.429261776035316"><ele>77.0</ele><time>2026-03-29T14:10:49Z</time></trkpt><trkpt lat="45.30193905222026" lon="9.429507682919073"><ele>77.25</ele><time>2026-03-29T14:10:50Z</time></trkpt><trkpt lat="45.301912915115224" lon="9.429745659339309"><ele>77.5</ele><time>2026-03-29T14:10:51Z</time></trkpt><trkpt lat="45.301897257002715" lon="9.429947204915456"><ele>77.75</ele><time>2026-03-29T14:10:52Z</time></trkpt><trkpt lat="45.30188537417868" lon="9.430122195813713"><ele>78.0</ele><time>2026-03-29T14:10:53Z</time></trkpt><trkpt lat="45.30188260314521" lon="9.430275683042696"><ele>78.0</ele><time>2026-03-29T14:10:54Z</time></trkpt><trkpt lat="45.30188351467193" lon="9.430432944136829"><ele>78.0</ele><time>2026-03-29T14:10:55Z</time></trkpt><trkpt lat="45.30188614602049" lon="9.430581809074306"><ele>78.0</ele><time>2026-03-29T14:10:56Z</time></trkpt><trkpt lat="45.30188899213358" lon="9.430721315856562"><ele>78.0</ele><time>2026-03-29T14:10:57Z</time></trkpt><trkpt lat="45.30189040326378" lon="9.43085123018654"><ele>78.0</ele><time>2026-03-29T14:10:58Z</time></trkpt><trkpt lat="45.30189480595497" lon="9.430978572085085"><ele>78.0</ele><time>2026-03-29T14:10:59Z</time></trkpt><trkpt lat="45.301903318116786" lon="9.431103696283465"><ele>78.0</ele><time>2026-03-29T14:11:00Z</time></trkpt><trkpt lat="45.301915002129" lon="9.431218094131479"><ele>78.0</ele><time>2026-03-29T14:11:01Z</time></trkpt><trkpt lat="45.301925102097755" lon="9.431329610178079"><ele>78.0</ele><time>2026-03-29T14:11:02Z</time></trkpt><trkpt lat="45.30193346077002" lon="9.431445974389229"><ele>78.0</ele><time>2026-03-29T14:11:03Z</time></trkpt><trkpt lat="45.3019422785509" lon="9.431563191011904"><ele>78.0</ele><time>2026-03-29T14:11:04Z</time></trkpt><trkpt lat="45.30195658341942" lon="9.431692657931517"><ele>78.2</ele><time>2026-03-29T14:11:05Z</time></trkpt><trkpt lat="45.301976183874665" lon="9.431834319805105"><ele>78.4</ele><time>2026-03-29T14:11:06Z</time></trkpt><trkpt lat="45.301995602480446" lon="9.431986232793374"><ele>78.60000000000001</ele><time>2026-03-29T14:11:07Z</time></trkpt><trkpt lat="45.302025255463185" lon="9.432173785885249"><ele>78.8</ele><time>2026-03-29T14:11:08Z</time></trkpt><trkpt lat="45.30203664633055" lon="9.432290693296428"><ele>79.0</ele><time>2026-03-29T14:11:09Z</time></trkpt><trkpt lat="45.302057896609746" lon="9.43244873218059"><ele>79.0</ele><time>2026-03-29T14:11:10Z</time></trkpt><trkpt lat="45.30207556984371" lon="9.4326141717006"><ele>79.0</ele><time>2026-03-29T14:11:11Z</time></trkpt><trkpt lat="45.30209016348235" lon="9.43277638613793"><ele>79.0</ele><time>2026-03-29T14:11:12Z</time></trkpt><trkpt lat="45.302111198406685" lon="9.43293797477049"><ele>79.0</ele><time>2026-03-29T14:11:13Z</time></trkpt><trkpt lat="45.30212770521329" lon="9.433078954039342"><ele>79.0</ele><time>2026-03-29T14:11:14Z</time></trkpt><trkpt lat="45.30215699113722" lon="9.433301800523521"><ele>79.0</ele><time>2026-03-29T14:11:15Z</time></trkpt><trkpt lat="45.30217893981313" lon="9.433474901656014"><ele>79.0</ele><time>2026-03-29T14:11:16Z</time></trkpt><trkpt lat="45.30220091286476" lon="9.433655161095015"><ele>79.0</ele><time>2026-03-29T14:11:17Z</time></trkpt><trkpt lat="45.30222490044419" lon="9.433834836092206"><ele>79.0</ele><time>2026-03-29T14:11:18Z</time></trkpt><trkpt lat="45.30224767069199" lon="9.434017881269995"><ele>79.0</ele><time>2026-03-29T14:11:19Z</time></trkpt><trkpt lat="45.30226954984753" lon="9.434201886312936"><ele>79.0</ele><time>2026-03-29T14:11:20Z</time></trkpt><trkpt lat="45.302293188468575" lon="9.43438694551109"><ele>79.0</ele><time>2026-03-29T14:11:21Z</time></trkpt><trkpt lat="45.30231741854276" lon="9.43457324764438"><ele>79.0</ele><time>2026-03-29T14:11:22Z</time></trkpt><trkpt lat="45.30233820994683" lon="9.434760969864833"><ele>79.0</ele><time>2026-03-29T14:11:23Z</time></trkpt><trkpt lat="45.3023621644217" lon="9.43494952989201"><ele>79.0</ele><time>2026-03-29T14:11:24Z</time></trkpt><trkpt lat="45.30238581429762" lon="9.435137527030866"><ele>79.0</ele><time>2026-03-29T14:11:25Z</time></trkpt><trkpt lat="45.302412119857784" lon="9.435328962697923"><ele>79.0</ele><time>2026-03-29T14:11:26Z</time></trkpt><trkpt lat="45.302436102541705" lon="9.435522016547374"><ele>79.0</ele><time>2026-03-29T14:11:27Z</time></trkpt><trkpt lat="45.302461376709495" lon="9.435712522699903"><ele>79.0</ele><time>2026-03-29T14:11:28Z</time></trkpt><trkpt lat="45.30248696773572" lon="9.435908109488373"><ele>79.0</ele><time>2026-03-29T14:11:29Z</time></trkpt><trkpt lat="45.302512798411186" lon="9.436103237430556"><ele>79.0</ele><time>2026-03-29T14:11:30Z</time></trkpt><trkpt lat="45.30253401375906" lon="9.436296626991941"><ele>78.5</ele><time>2026-03-29T14:11:31Z</time></trkpt><trkpt lat="45.30255792123741" lon="9.436495836424582"><ele>78.0</ele><time>2026-03-29T14:11:32Z</time></trkpt><trkpt lat="45.302582921590556" lon="9.436702588360411"><ele>77.5</ele><time>2026-03-29T14:11:33Z</time></trkpt><trkpt lat="45.302612622061524" lon="9.43691628180098"><ele>77.0</ele><time>2026-03-29T14:11:34Z</time></trkpt><trkpt lat="45.30263954761511" lon="9.437140754032848"><ele>77.0</ele><time>2026-03-29T14:11:35Z</time></trkpt><trkpt lat="45.30265875634338" lon="9.437340912400854"><ele>77.0</ele><time>2026-03-29T14:11:36Z</time></trkpt><trkpt lat="45.30268895028271" lon="9.43752136810296"><ele>77.0</ele><time>2026-03-29T14:11:37Z</time></trkpt><trkpt lat="45.30270998970129" lon="9.43771738501414"><ele>77.0</ele><time>2026-03-29T14:11:38Z</time></trkpt><trkpt lat="45.30273127659597" lon="9.437921063472967"><ele>77.0</ele><time>2026-03-29T14:11:39Z</time></trkpt><trkpt lat="45.302754880835984" lon="9.438135077442237"><ele>77.0</ele><time>2026-03-29T14:11:40Z</time></trkpt><trkpt lat="45.30278162330023" lon="9.438356017812135"><ele>77.0</ele><time>2026-03-29T14:11:41Z</time></trkpt><trkpt lat="45.30280732823476" lon="9.438573964889041"><ele>77.0</ele><time>2026-03-29T14:11:42Z</time></trkpt><trkpt lat="45.302834255418226" lon="9.438788389858393"><ele>77.0</ele><time>2026-03-29T14:11:43Z</time></trkpt><trkpt lat="45.302861150562556" lon="9.439005666075747"><ele>77.0</ele><time>2026-03-29T14:11:44Z</time></trkpt><trkpt lat="45.30288971066218" lon="9.439220962310587"><ele>77.33333333333334</ele><time>2026-03-29T14:11:45Z</time></trkpt><trkpt lat="45.30291586293477" lon="9.439431423274884"><ele>77.66666666666667</ele><time>2026-03-29T14:11:46Z</time></trkpt><trkpt lat="45.30294506912353" lon="9.439646352500391"><ele>78.0</ele><time>2026-03-29T14:11:47Z</time></trkpt><trkpt lat="45.30297261426627" lon="9.439861171816942"><ele>78.0</ele><time>2026-03-29T14:11:48Z</time></trkpt><trkpt lat="45.30299994437991" lon="9.440076182737716"><ele>78.0</ele><time>2026-03-29T14:11:49Z</time></trkpt><trkpt lat="45.3030284026959" lon="9.440293096494669"><ele>78.0</ele><time>2026-03-29T14:11:50Z</time></trkpt><trkpt lat="45.3030556191709" lon="9.440511095699513"><ele>78.0</ele><time>2026-03-29T14:11:51Z</time></trkpt><trkpt lat="45.303082907732794" lon="9.44073157072606"><ele>78.0</ele><time>2026-03-29T14:11:52Z</time></trkpt><trkpt lat="45.30310924664455" lon="9.440946796130921"><ele>78.0</ele><time>2026-03-29T14:11:53Z</time></trkpt><trkpt lat="45.303135059017634" lon="9.44116186907235"><ele>78.66666666666667</ele><time>2026-03-29T14:11:54Z</time></trkpt><trkpt lat="45.30316125390521" lon="9.441377385123847"><ele>79.33333333333334</ele><time>2026-03-29T14:11:55Z</time></trkpt><trkpt lat="45.30318674199345" lon="9.441588995442626"><ele>80.0</ele><time>2026-03-29T14:11:56Z</time></trkpt><trkpt lat="45.30321246278016" lon="9.441795028969304"><ele>80.0</ele><time>2026-03-29T14:11:57Z</time></trkpt><trkpt lat="45.30323988776738" lon="9.442001188926385"><ele>80.0</ele><time>2026-03-29T14:11:58Z</time></trkpt><trkpt lat="45.30326506393079" lon="9.442202670689218"><ele>80.0</ele><time>2026-03-29T14:11:59Z</time></trkpt><trkpt lat="45.303289678194496" lon="9.442406669809094"><ele>80.0</ele><time>2026-03-29T14:12:00Z</time></trkpt><trkpt lat="45.303312789767354" lon="9.442610243185468"><ele>79.33333333333334</ele><time>2026-03-29T14:12:01Z</time></trkpt><trkpt lat="45.30333853311657" lon="9.442810693452063"><ele>78.66666666666667</ele><time>2026-03-29T14:12:02Z</time></trkpt><trkpt lat="45.30336413537333" lon="9.443011428458329"><ele>78.0</ele><time>2026-03-29T14:12:03Z</time></trkpt><trkpt lat="45.30341400427953" lon="9.443413975251604"><ele>77.66666666666667</ele><time>2026-03-29T14:12:05Z</time></trkpt><trkpt lat="45.30343941008929" lon="9.44362442167114"><ele>77.33333333333334</ele><time>2026-03-29T14:12:06Z</time></trkpt><trkpt lat="45.303464861392975" lon="9.44383981232807"><ele>77.0</ele><time>2026-03-29T14:12:07Z</time></trkpt><trkpt lat="45.303489256916954" lon="9.444058097683643"><ele>77.0</ele><time>2026-03-29T14:12:08Z</time></trkpt><trkpt lat="45.30351482975254" lon="9.444280340220388"><ele>77.0</ele><time>2026-03-29T14:12:09Z</time></trkpt><trkpt lat="45.30354724522096" lon="9.444498646980017"><ele>77.0</ele><time>2026-03-29T14:12:10Z</time></trkpt><trkpt lat="45.30357535868976" lon="9.444727334286492"><ele>77.0</ele><time>2026-03-29T14:12:11Z</time></trkpt><trkpt lat="45.30360757097136" lon="9.444957207541641"><ele>77.0</ele><time>2026-03-29T14:12:12Z</time></trkpt><trkpt lat="45.30363868729155" lon="9.445191245906706"><ele>77.0</ele><time>2026-03-29T14:12:13Z</time></trkpt><trkpt lat="45.3036665424414" lon="9.445420540195974"><ele>77.33333333333334</ele><time>2026-03-29T14:12:14Z</time></trkpt><trkpt lat="45.30369538862" lon="9.445654372147796"><ele>77.66666666666667</ele><time>2026-03-29T14:12:15Z</time></trkpt><trkpt lat="45.30372679223613" lon="9.445883059079513"><ele>78.0</ele><time>2026-03-29T14:12:16Z</time></trkpt><trkpt lat="45.303755934825574" lon="9.446089774387525"><ele>78.0</ele><time>2026-03-29T14:12:17Z</time></trkpt><trkpt lat="45.30378620987617" lon="9.446279745242"><ele>78.0</ele><time>2026-03-29T14:12:18Z</time></trkpt><trkpt lat="45.30381865517641" lon="9.44644970959317"><ele>78.0</ele><time>2026-03-29T14:12:19Z</time></trkpt><trkpt lat="45.303853915587226" lon="9.446588962644784"><ele>78.0</ele><time>2026-03-29T14:12:20Z</time></trkpt><trkpt lat="45.30388492782622" lon="9.446689409858458"><ele>78.0</ele><time>2026-03-29T14:12:21Z</time></trkpt><trkpt lat="45.30391249956487" lon="9.446776222057634"><ele>78.0</ele><time>2026-03-29T14:12:22Z</time></trkpt><trkpt lat="45.30393989343129" lon="9.446905961791394"><ele>78.0</ele><time>2026-03-29T14:12:24Z</time></trkpt><trkpt lat="45.303881334318426" lon="9.446992478583574"><ele>78.0</ele><time>2026-03-29T14:12:27Z</time></trkpt><trkpt lat="45.30380562577325" lon="9.447052997507686"><ele>78.0</ele><time>2026-03-29T14:12:29Z</time></trkpt><trkpt lat="45.303697752394754" lon="9.447133562233807"><ele>78.0</ele><time>2026-03-29T14:12:31Z</time></trkpt><trkpt lat="45.30362487365963" lon="9.447210453202011"><ele>78.0</ele><time>2026-03-29T14:12:32Z</time></trkpt><trkpt lat="45.303552445377655" lon="9.447289582062094"><ele>78.0</ele><time>2026-03-29T14:12:33Z</time></trkpt><trkpt lat="45.303469758402365" lon="9.447346280563918"><ele>78.0</ele><time>2026-03-29T14:12:34Z</time></trkpt><trkpt lat="45.30340375668188" lon="9.447444926028405"><ele>78.0</ele><time>2026-03-29T14:12:35Z</time></trkpt><trkpt lat="45.30333639334048" lon="9.44753874463546"><ele>78.0</ele><time>2026-03-29T14:12:36Z</time></trkpt><trkpt lat="45.30327716992517" lon="9.447649732082004"><ele>78.0</ele><time>2026-03-29T14:12:37Z</time></trkpt><trkpt lat="45.303204126925124" lon="9.447757008294667"><ele>78.0</ele><time>2026-03-29T14:12:38Z</time></trkpt><trkpt lat="45.30313066829826" lon="9.447835479647747"><ele>78.0</ele><time>2026-03-29T14:12:39Z</time></trkpt><trkpt lat="45.30305152046541" lon="9.447910683281378"><ele>78.0</ele><time>2026-03-29T14:12:40Z</time></trkpt><trkpt lat="45.30295872475349" lon="9.447949870196327"><ele>78.0</ele><time>2026-03-29T14:12:41Z</time></trkpt><trkpt lat="45.30286575625243" lon="9.448012848035255"><ele>77.6</ele><time>2026-03-29T14:12:42Z</time></trkpt><trkpt lat="45.30278226558486" lon="9.448091800728287"><ele>77.19999999999999</ele><time>2026-03-29T14:12:43Z</time></trkpt><trkpt lat="45.302688788189386" lon="9.448166144239007"><ele>76.8</ele><time>2026-03-29T14:12:44Z</time></trkpt><trkpt lat="45.30260179993706" lon="9.44823439171947"><ele>76.39999999999999</ele><time>2026-03-29T14:12:45Z</time></trkpt><trkpt lat="45.302529451323196" lon="9.44830401349675"><ele>76.0</ele><time>2026-03-29T14:12:46Z</time></trkpt><trkpt lat="45.302458786996866" lon="9.448350310092303"><ele>76.0</ele><time>2026-03-29T14:12:47Z</time></trkpt><trkpt lat="45.302398189276865" lon="9.448402060021236"><ele>76.0</ele><time>2026-03-29T14:12:48Z</time></trkpt><trkpt lat="45.30227217271306" lon="9.448427394458172"><ele>76.0</ele><time>2026-03-29T14:12:50Z</time></trkpt><trkpt lat="45.302213305966085" lon="9.44839356985488"><ele>76.0</ele><time>2026-03-29T14:12:51Z</time></trkpt><trkpt lat="45.30218066909419" lon="9.448310150020625"><ele>76.0</ele><time>2026-03-29T14:12:52Z</time></trkpt><trkpt lat="45.302165335638314" lon="9.448220914676043"><ele>76.0</ele><time>2026-03-29T14:12:53Z</time></trkpt><trkpt lat="45.302152418685424" lon="9.448120283663403"><ele>75.8</ele><time>2026-03-29T14:12:54Z</time></trkpt><trkpt lat="45.302134797867026" lon="9.448015460256391"><ele>75.6</ele><time>2026-03-29T14:12:55Z</time></trkpt><trkpt lat="45.30211420493394" lon="9.447886793437641"><ele>75.4</ele><time>2026-03-29T14:12:56Z</time></trkpt><trkpt lat="45.30209308183798" lon="9.447754813846101"><ele>75.2</ele><time>2026-03-29T14:12:57Z</time></trkpt><trkpt lat="45.302068653301994" lon="9.447618944107328"><ele>75.0</ele><time>2026-03-29T14:12:58Z</time></trkpt><trkpt lat="45.302030868051325" lon="9.447471951505435"><ele>75.6</ele><time>2026-03-29T14:12:59Z</time></trkpt><trkpt lat="45.30201539963761" lon="9.447324247207156"><ele>76.2</ele><time>2026-03-29T14:13:00Z</time></trkpt><trkpt lat="45.301990756559846" lon="9.44717042661229"><ele>76.8</ele><time>2026-03-29T14:13:01Z</time></trkpt><trkpt lat="45.30195353727874" lon="9.447042006747045"><ele>77.4</ele><time>2026-03-29T14:13:02Z</time></trkpt><trkpt lat="45.30193205124347" lon="9.44691811188985"><ele>78.0</ele><time>2026-03-29T14:13:03Z</time></trkpt><trkpt lat="45.30190037517458" lon="9.446820947817498"><ele>78.6</ele><time>2026-03-29T14:13:04Z</time></trkpt><trkpt lat="45.30184107185034" lon="9.446756964760038"><ele>79.19999999999999</ele><time>2026-03-29T14:13:05Z</time></trkpt><trkpt lat="45.30178171396483" lon="9.446701732102307"><ele>79.8</ele><time>2026-03-29T14:13:06Z</time></trkpt><trkpt lat="45.301684176579315" lon="9.446744465273884"><ele>80.39999999999999</ele><time>2026-03-29T14:13:07Z</time></trkpt><trkpt lat="45.301585499786064" lon="9.446784059188309"><ele>81.0</ele><time>2026-03-29T14:13:08Z</time></trkpt><trkpt lat="45.30147578093402" lon="9.446849606328032"><ele>81.0</ele><time>2026-03-29T14:13:09Z</time></trkpt><trkpt lat="45.3013654976654" lon="9.446877623396476"><ele>81.0</ele><time>2026-03-29T14:13:10Z</time></trkpt><trkpt lat="45.301257694845994" lon="9.446911636942128"><ele>81.0</ele><time>2026-03-29T14:13:11Z</time></trkpt><trkpt lat="45.30114427491195" lon="9.446948140301352"><ele>81.0</ele><time>2026-03-29T14:13:12Z</time></trkpt><trkpt lat="45.301031188310624" lon="9.446987653244612"><ele>81.0</ele><time>2026-03-29T14:13:13Z</time></trkpt><trkpt lat="45.30091293772025" lon="9.44702147884966"><ele>81.0</ele><time>2026-03-29T14:13:14Z</time></trkpt><trkpt lat="45.30079368370337" lon="9.447061989554362"><ele>81.0</ele><time>2026-03-29T14:13:15Z</time></trkpt><trkpt lat="45.300675243930364" lon="9.447090915184074"><ele>81.0</ele><time>2026-03-29T14:13:16Z</time></trkpt><trkpt lat="45.30055518146637" lon="9.447123466014078"><ele>80.25</ele><time>2026-03-29T14:13:17Z</time></trkpt><trkpt lat="45.30043036105242" lon="9.447153064527146"><ele>79.5</ele><time>2026-03-29T14:13:18Z</time></trkpt><trkpt lat="45.30030861325819" lon="9.44719000088812"><ele>78.75</ele><time>2026-03-29T14:13:19Z</time></trkpt><trkpt lat="45.30018771894069" lon="9.44722476148833"><ele>78.0</ele><time>2026-03-29T14:13:20Z</time></trkpt><trkpt lat="45.300073025506805" lon="9.447255849668904"><ele>78.0</ele><time>2026-03-29T14:13:21Z</time></trkpt><trkpt lat="45.29995784592166" lon="9.447286627716343"><ele>78.0</ele><time>2026-03-29T14:13:22Z</time></trkpt><trkpt lat="45.29984768980797" lon="9.447315589245411"><ele>78.0</ele><time>2026-03-29T14:13:23Z</time></trkpt><trkpt lat="45.299731007149425" lon="9.447349058432867"><ele>78.0</ele><time>2026-03-29T14:13:24Z</time></trkpt><trkpt lat="45.29961647063331" lon="9.447380564312375"><ele>78.0</ele><time>2026-03-29T14:13:25Z</time></trkpt><trkpt lat="45.299501912935305" lon="9.447413845213394"><ele>78.0</ele><time>2026-03-29T14:13:26Z</time></trkpt><trkpt lat="45.299387325564275" lon="9.447443693338599"><ele>78.0</ele><time>2026-03-29T14:13:27Z</time></trkpt><trkpt lat="45.299273259177866" lon="9.447475270100819"><ele>78.0</ele><time>2026-03-29T14:13:28Z</time></trkpt><trkpt lat="45.29915947782958" lon="9.447505299441696"><ele>78.0</ele><time>2026-03-29T14:13:29Z</time></trkpt><trkpt lat="45.29904444649706" lon="9.447536663969707"><ele>78.0</ele><time>2026-03-29T14:13:30Z</time></trkpt><trkpt lat="45.298928903663395" lon="9.447550704931096"><ele>78.0</ele><time>2026-03-29T14:13:31Z</time></trkpt><trkpt lat="45.29881965093351" lon="9.44758177167752"><ele>78.0</ele><time>2026-03-29T14:13:32Z</time></trkpt><trkpt lat="45.298710754324304" lon="9.447612737160027"><ele>78.5</ele><time>2026-03-29T14:13:33Z</time></trkpt><trkpt lat="45.298599708318484" lon="9.447644313835312"><ele>79.0</ele><time>2026-03-29T14:13:34Z</time></trkpt><trkpt lat="45.2984852235015" lon="9.447677477532611"><ele>79.5</ele><time>2026-03-29T14:13:35Z</time></trkpt><trkpt lat="45.2983717293114" lon="9.447710531007605"><ele>80.0</ele><time>2026-03-29T14:13:36Z</time></trkpt><trkpt lat="45.2982636762708" lon="9.447741999853166"><ele>80.0</ele><time>2026-03-29T14:13:37Z</time></trkpt><trkpt lat="45.29815534270759" lon="9.44777355039238"><ele>80.0</ele><time>2026-03-29T14:13:38Z</time></trkpt><trkpt lat="45.298049840334656" lon="9.447804419561159"><ele>80.0</ele><time>2026-03-29T14:13:39Z</time></trkpt><trkpt lat="45.29794447585964" lon="9.447835795010919"><ele>80.0</ele><time>2026-03-29T14:13:40Z</time></trkpt><trkpt lat="45.29783285404554" lon="9.447866665161689"><ele>80.0</ele><time>2026-03-29T14:13:41Z</time></trkpt><trkpt lat="45.29772609281476" lon="9.447895163584223"><ele>79.8</ele><time>2026-03-29T14:13:42Z</time></trkpt><trkpt lat="45.29762114304503" lon="9.447923178454722"><ele>79.6</ele><time>2026-03-29T14:13:43Z</time></trkpt><trkpt lat="45.29751813581607" lon="9.447975095117823"><ele>79.4</ele><time>2026-03-29T14:13:44Z</time></trkpt><trkpt lat="45.297416225174146" lon="9.447995492070852"><ele>79.2</ele><time>2026-03-29T14:13:45Z</time></trkpt><trkpt lat="45.29731396920407" lon="9.448021447161283"><ele>79.0</ele><time>2026-03-29T14:13:46Z</time></trkpt><trkpt lat="45.297212890938205" lon="9.44805479515874"><ele>78.8</ele><time>2026-03-29T14:13:47Z</time></trkpt><trkpt lat="45.29712471484317" lon="9.448099345999744"><ele>78.60000000000001</ele><time>2026-03-29T14:13:48Z</time></trkpt><trkpt lat="45.297050934993955" lon="9.448129856763577"><ele>78.4</ele><time>2026-03-29T14:13:49Z</time></trkpt><trkpt lat="45.29698168114473" lon="9.448157121442799"><ele>78.2</ele><time>2026-03-29T14:13:50Z</time></trkpt><trkpt lat="45.296870725401796" lon="9.448198331992671"><ele>78.0</ele><time>2026-03-29T14:13:52Z</time></trkpt><trkpt lat="45.29677618546899" lon="9.44820401940741"><ele>78.0</ele><time>2026-03-29T14:13:54Z</time></trkpt><trkpt lat="45.29669352309787" lon="9.448223984982265"><ele>78.0</ele><time>2026-03-29T14:13:56Z</time></trkpt><trkpt lat="45.296625508606084" lon="9.448238830953771"><ele>78.0</ele><time>2026-03-29T14:13:58Z</time></trkpt><trkpt lat="45.296558335659384" lon="9.448253493280617"><ele>78.0</ele><time>2026-03-29T14:14:00Z</time></trkpt><trkpt lat="45.29648005075355" lon="9.44826915242563"><ele>78.0</ele><time>2026-03-29T14:14:02Z</time></trkpt><trkpt lat="45.296395401092745" lon="9.448285772936238"><ele>78.0</ele><time>2026-03-29T14:14:04Z</time></trkpt><trkpt lat="45.29630960790258" lon="9.44832560535724"><ele>77.83333333333333</ele><time>2026-03-29T14:14:06Z</time></trkpt><trkpt lat="45.29622095137978" lon="9.448337325431517"><ele>77.66666666666667</ele><time>2026-03-29T14:14:08Z</time></trkpt><trkpt lat="45.29611918740099" lon="9.448356624189005"><ele>77.5</ele><time>2026-03-29T14:14:10Z</time></trkpt><trkpt lat="45.296003350580776" lon="9.448390049373211"><ele>77.33333333333334</ele><time>2026-03-29T14:14:12Z</time></trkpt><trkpt lat="45.29594076457614" lon="9.44840152820953"><ele>77.16666666666667</ele><time>2026-03-29T14:14:13Z</time></trkpt><trkpt lat="45.29586714197975" lon="9.448414502372016"><ele>77.0</ele><time>2026-03-29T14:14:14Z</time></trkpt><trkpt lat="45.295777250723816" lon="9.448430843235462"><ele>77.0</ele><time>2026-03-29T14:14:15Z</time></trkpt><trkpt lat="45.29567822507432" lon="9.44848746203859"><ele>77.0</ele><time>2026-03-29T14:14:16Z</time></trkpt><trkpt lat="45.295560708962455" lon="9.448525397006838"><ele>77.0</ele><time>2026-03-29T14:14:17Z</time></trkpt><trkpt lat="45.29543438771862" lon="9.448559628450107"><ele>77.0</ele><time>2026-03-29T14:14:18Z</time></trkpt><trkpt lat="45.295306485588654" lon="9.448593555205287"><ele>76.75</ele><time>2026-03-29T14:14:19Z</time></trkpt><trkpt lat="45.29517360661049" lon="9.448630150383142"><ele>76.5</ele><time>2026-03-29T14:14:20Z</time></trkpt><trkpt lat="45.29504588855875" lon="9.448664559822198"><ele>76.25</ele><time>2026-03-29T14:14:21Z</time></trkpt><trkpt lat="45.2949173825388" lon="9.448700381273879"><ele>76.0</ele><time>2026-03-29T14:14:22Z</time></trkpt><trkpt lat="45.294784028427834" lon="9.448740197710823"><ele>75.75</ele><time>2026-03-29T14:14:23Z</time></trkpt><trkpt lat="45.29464522048186" lon="9.44877605899616"><ele>75.5</ele><time>2026-03-29T14:14:24Z</time></trkpt><trkpt lat="45.29450438266379" lon="9.448812318906004"><ele>75.25</ele><time>2026-03-29T14:14:25Z</time></trkpt><trkpt lat="45.294366603183214" lon="9.448860717153606"><ele>75.0</ele><time>2026-03-29T14:14:26Z</time></trkpt><trkpt lat="45.29422934239233" lon="9.448913627179467"><ele>75.25</ele><time>2026-03-29T14:14:27Z</time></trkpt><trkpt lat="45.29410054837605" lon="9.448953709399975"><ele>75.5</ele><time>2026-03-29T14:14:28Z</time></trkpt><trkpt lat="45.2939723669077" lon="9.448980154784186"><ele>75.75</ele><time>2026-03-29T14:14:29Z</time></trkpt><trkpt lat="45.29384533891164" lon="9.449002633674537"><ele>76.0</ele><time>2026-03-29T14:14:30Z</time></trkpt><trkpt lat="45.29370954208212" lon="9.4490425179015"><ele>76.0</ele><time>2026-03-29T14:14:31Z</time></trkpt><trkpt lat="45.29358284624557" lon="9.449085538505631"><ele>76.0</ele><time>2026-03-29T14:14:32Z</time></trkpt><trkpt lat="45.29347567245948" lon="9.4491201499615"><ele>76.0</ele><time>2026-03-29T14:14:33Z</time></trkpt><trkpt lat="45.29337818555224" lon="9.449154636379422"><ele>76.0</ele><time>2026-03-29T14:14:34Z</time></trkpt><trkpt lat="45.2932944552592" lon="9.449190378678649"><ele>76.0</ele><time>2026-03-29T14:14:35Z</time></trkpt><trkpt lat="45.293220362134534" lon="9.44922855559226"><ele>76.0</ele><time>2026-03-29T14:14:36Z</time></trkpt><trkpt lat="45.293126352063155" lon="9.44925383786033"><ele>76.0</ele><time>2026-03-29T14:14:38Z</time></trkpt><trkpt lat="45.29305844041893" lon="9.449151274213603"><ele>76.0</ele><time>2026-03-29T14:14:40Z</time></trkpt><trkpt lat="45.29303075886521" lon="9.44905013831875"><ele>76.0</ele><time>2026-03-29T14:14:41Z</time></trkpt><trkpt lat="45.29301859771939" lon="9.448920791677846"><ele>76.0</ele><time>2026-03-29T14:14:42Z</time></trkpt><trkpt lat="45.29300894914871" lon="9.448758490334288"><ele>76.25</ele><time>2026-03-29T14:14:43Z</time></trkpt><trkpt lat="45.29299380892516" lon="9.448598611596164"><ele>76.5</ele><time>2026-03-29T14:14:44Z</time></trkpt><trkpt lat="45.29297479650581" lon="9.448414026539929"><ele>76.75</ele><time>2026-03-29T14:14:45Z</time></trkpt><trkpt lat="45.29295516035823" lon="9.448233905922006"><ele>77.0</ele><time>2026-03-29T14:14:46Z</time></trkpt><trkpt lat="45.292941649911974" lon="9.448076987431007"><ele>76.75</ele><time>2026-03-29T14:14:47Z</time></trkpt><trkpt lat="45.29292435302191" lon="9.447921732521703"><ele>76.5</ele><time>2026-03-29T14:14:48Z</time></trkpt><trkpt lat="45.29290516338624" lon="9.447756426138547"><ele>76.25</ele><time>2026-03-29T14:14:49Z</time></trkpt><trkpt lat="45.292882346884795" lon="9.447575117093985"><ele>76.0</ele><time>2026-03-29T14:14:50Z</time></trkpt><trkpt lat="45.29286070070669" lon="9.447417514185839"><ele>76.0</ele><time>2026-03-29T14:14:51Z</time></trkpt><trkpt lat="45.292844564764" lon="9.447281473042061"><ele>76.0</ele><time>2026-03-29T14:14:52Z</time></trkpt><trkpt lat="45.292825366202266" lon="9.447139586063777"><ele>76.0</ele><time>2026-03-29T14:14:53Z</time></trkpt><trkpt lat="45.29282136909992" lon="9.446988450527709"><ele>76.0</ele><time>2026-03-29T14:14:54Z</time></trkpt><trkpt lat="45.29282606712545" lon="9.446855722743356"><ele>76.0</ele><time>2026-03-29T14:14:55Z</time></trkpt><trkpt lat="45.292828125939906" lon="9.446753509726761"><ele>76.0</ele><time>2026-03-29T14:14:56Z</time></trkpt><trkpt lat="45.29280967583844" lon="9.44665404706779"><ele>76.0</ele><time>2026-03-29T14:14:58Z</time></trkpt><trkpt lat="45.29274180642626" lon="9.446649984176386"><ele>76.0</ele><time>2026-03-29T14:15:01Z</time></trkpt><trkpt lat="45.292704405981894" lon="9.44674462139576"><ele>76.0</ele><time>2026-03-29T14:15:03Z</time></trkpt><trkpt lat="45.292688632423044" lon="9.4468474792932"><ele>76.0</ele><time>2026-03-29T14:15:04Z</time></trkpt><trkpt lat="45.29266517660427" lon="9.44696346399372"><ele>76.0</ele><time>2026-03-29T14:15:05Z</time></trkpt><trkpt lat="45.292629403563566" lon="9.447065282941091"><ele>76.0</ele><time>2026-03-29T14:15:06Z</time></trkpt><trkpt lat="45.292588334585844" lon="9.447148292614221"><ele>76.0</ele><time>2026-03-29T14:15:07Z</time></trkpt><trkpt lat="45.292535820180014" lon="9.447210078270404"><ele>76.0</ele><time>2026-03-29T14:15:08Z</time></trkpt><trkpt lat="45.292465481995684" lon="9.447236164137923"><ele>76.0</ele><time>2026-03-29T14:15:09Z</time></trkpt><trkpt lat="45.292337088600014" lon="9.447263058165092"><ele>76.0</ele><time>2026-03-29T14:15:11Z</time></trkpt><trkpt lat="45.29226193654475" lon="9.447289959599296"><ele>76.0</ele><time>2026-03-29T14:15:12Z</time></trkpt><trkpt lat="45.2921959815368" lon="9.447311507017847"><ele>76.0</ele><time>2026-03-29T14:15:13Z</time></trkpt><trkpt lat="45.29211264930188" lon="9.447330321593148"><ele>76.0</ele><time>2026-03-29T14:15:14Z</time></trkpt><trkpt lat="45.29201144605131" lon="9.44736033462148"><ele>76.0</ele><time>2026-03-29T14:15:15Z</time></trkpt><trkpt lat="45.29190104378367" lon="9.44739141894311"><ele>76.0</ele><time>2026-03-29T14:15:16Z</time></trkpt><trkpt lat="45.291782075846996" lon="9.447423031126881"><ele>76.0</ele><time>2026-03-29T14:15:17Z</time></trkpt><trkpt lat="45.29164760315328" lon="9.447431596473843"><ele>76.0</ele><time>2026-03-29T14:15:18Z</time></trkpt><trkpt lat="45.2915091986857" lon="9.447437903886991"><ele>76.0</ele><time>2026-03-29T14:15:19Z</time></trkpt><trkpt lat="45.29137727736212" lon="9.44749493270384"><ele>76.0</ele><time>2026-03-29T14:15:20Z</time></trkpt><trkpt lat="45.29122729419284" lon="9.44753297920712"><ele>76.0</ele><time>2026-03-29T14:15:21Z</time></trkpt><trkpt lat="45.29107872838828" lon="9.447598257809732"><ele>75.75</ele><time>2026-03-29T14:15:22Z</time></trkpt><trkpt lat="45.29094615034694" lon="9.447654716150485"><ele>75.5</ele><time>2026-03-29T14:15:23Z</time></trkpt><trkpt lat="45.29081360095123" lon="9.44768446821158"><ele>75.25</ele><time>2026-03-29T14:15:24Z</time></trkpt><trkpt lat="45.29068119744961" lon="9.44770282791165"><ele>75.0</ele><time>2026-03-29T14:15:25Z</time></trkpt><trkpt lat="45.2905462742569" lon="9.44772122011722"><ele>75.0</ele><time>2026-03-29T14:15:26Z</time></trkpt><trkpt lat="45.29040778895944" lon="9.447761726941678"><ele>75.0</ele><time>2026-03-29T14:15:27Z</time></trkpt><trkpt lat="45.29027172194593" lon="9.447806744875798"><ele>75.0</ele><time>2026-03-29T14:15:28Z</time></trkpt><trkpt lat="45.29014175045351" lon="9.44785624219568"><ele>75.0</ele><time>2026-03-29T14:15:29Z</time></trkpt><trkpt lat="45.29002620438973" lon="9.447913919829839"><ele>75.0</ele><time>2026-03-29T14:15:30Z</time></trkpt><trkpt lat="45.289920843724076" lon="9.447971296344932"><ele>75.0</ele><time>2026-03-29T14:15:31Z</time></trkpt><trkpt lat="45.28982411887875" lon="9.448027527192053"><ele>75.0</ele><time>2026-03-29T14:15:32Z</time></trkpt><trkpt lat="45.2897325714636" lon="9.44808227412857"><ele>75.0</ele><time>2026-03-29T14:15:33Z</time></trkpt><trkpt lat="45.28964413437086" lon="9.448137808405765"><ele>75.0</ele><time>2026-03-29T14:15:34Z</time></trkpt><trkpt lat="45.28956059642238" lon="9.448199277088525"><ele>75.0</ele><time>2026-03-29T14:15:35Z</time></trkpt><trkpt lat="45.28946744968416" lon="9.448268888788856"><ele>75.0</ele><time>2026-03-29T14:15:36Z</time></trkpt><trkpt lat="45.289369880057244" lon="9.448336778263496"><ele>75.0</ele><time>2026-03-29T14:15:37Z</time></trkpt><trkpt lat="45.28925110310565" lon="9.448387694809451"><ele>75.0</ele><time>2026-03-29T14:15:38Z</time></trkpt><trkpt lat="45.2891243340911" lon="9.448428593902898"><ele>75.0</ele><time>2026-03-29T14:15:39Z</time></trkpt><trkpt lat="45.288989200946574" lon="9.448480318382297"><ele>75.0</ele><time>2026-03-29T14:15:40Z</time></trkpt><trkpt lat="45.288851270879576" lon="9.448539182986604"><ele>75.0</ele><time>2026-03-29T14:15:41Z</time></trkpt><trkpt lat="45.28870769789748" lon="9.44859692424708"><ele>75.0</ele><time>2026-03-29T14:15:42Z</time></trkpt><trkpt lat="45.28855613666232" lon="9.448657303929677"><ele>74.66666666666667</ele><time>2026-03-29T14:15:43Z</time></trkpt><trkpt lat="45.2884032009686" lon="9.448719838537109"><ele>74.33333333333334</ele><time>2026-03-29T14:15:44Z</time></trkpt><trkpt lat="45.288247185371475" lon="9.448781346822829"><ele>74.0</ele><time>2026-03-29T14:15:45Z</time></trkpt><trkpt lat="45.28808794219641" lon="9.44884197964283"><ele>75.0</ele><time>2026-03-29T14:15:46Z</time></trkpt><trkpt lat="45.28793395145321" lon="9.44890309335592"><ele>76.0</ele><time>2026-03-29T14:15:47Z</time></trkpt><trkpt lat="45.2877680154495" lon="9.448963596558636"><ele>77.0</ele><time>2026-03-29T14:15:48Z</time></trkpt><trkpt lat="45.28760260531104" lon="9.449023174143308"><ele>77.0</ele><time>2026-03-29T14:15:49Z</time></trkpt><trkpt lat="45.28743454722176" lon="9.449081855728371"><ele>77.0</ele><time>2026-03-29T14:15:50Z</time></trkpt><trkpt lat="45.28726346214681" lon="9.449139371603387"><ele>77.0</ele><time>2026-03-29T14:15:51Z</time></trkpt><trkpt lat="45.28709025280206" lon="9.449197444955145"><ele>76.0</ele><time>2026-03-29T14:15:52Z</time></trkpt><trkpt lat="45.28691931111818" lon="9.449258183027377"><ele>75.0</ele><time>2026-03-29T14:15:53Z</time></trkpt><trkpt lat="45.28675196850232" lon="9.449315782272345"><ele>74.0</ele><time>2026-03-29T14:15:54Z</time></trkpt><trkpt lat="45.28658641846965" lon="9.449363809545284"><ele>74.0</ele><time>2026-03-29T14:15:55Z</time></trkpt><trkpt lat="45.286422317090214" lon="9.449405875222228"><ele>74.0</ele><time>2026-03-29T14:15:56Z</time></trkpt><trkpt lat="45.28625674208514" lon="9.449445961259833"><ele>74.0</ele><time>2026-03-29T14:15:57Z</time></trkpt><trkpt lat="45.28609309797213" lon="9.449504384712883"><ele>74.0</ele><time>2026-03-29T14:15:58Z</time></trkpt><trkpt lat="45.28593152973129" lon="9.449578376368638"><ele>74.0</ele><time>2026-03-29T14:15:59Z</time></trkpt><trkpt lat="45.28577181270877" lon="9.449657543516045"><ele>74.0</ele><time>2026-03-29T14:16:00Z</time></trkpt><trkpt lat="45.28560911581979" lon="9.449740140142813"><ele>75.0</ele><time>2026-03-29T14:16:01Z</time></trkpt><trkpt lat="45.285447494007535" lon="9.44982181319384"><ele>76.0</ele><time>2026-03-29T14:16:02Z</time></trkpt><trkpt lat="45.2852814570722" lon="9.449901733478912"><ele>77.0</ele><time>2026-03-29T14:16:03Z</time></trkpt><trkpt lat="45.2851187613426" lon="9.449974854639718"><ele>77.0</ele><time>2026-03-29T14:16:04Z</time></trkpt><trkpt lat="45.28495470877776" lon="9.450049601784505"><ele>77.0</ele><time>2026-03-29T14:16:05Z</time></trkpt><trkpt lat="45.28478866495284" lon="9.450121784792902"><ele>77.0</ele><time>2026-03-29T14:16:06Z</time></trkpt><trkpt lat="45.28462156964053" lon="9.45019155304764"><ele>76.0</ele><time>2026-03-29T14:16:07Z</time></trkpt><trkpt lat="45.28445331007207" lon="9.450255057956628"><ele>75.0</ele><time>2026-03-29T14:16:08Z</time></trkpt><trkpt lat="45.28428329537371" lon="9.450310869618283"><ele>74.0</ele><time>2026-03-29T14:16:09Z</time></trkpt><trkpt lat="45.28411043966976" lon="9.450350618719483"><ele>74.0</ele><time>2026-03-29T14:16:10Z</time></trkpt><trkpt lat="45.28393538176097" lon="9.450375238079978"><ele>74.0</ele><time>2026-03-29T14:16:11Z</time></trkpt><trkpt lat="45.28376152274949" lon="9.450403625523442"><ele>74.0</ele><time>2026-03-29T14:16:12Z</time></trkpt><trkpt lat="45.28358708720419" lon="9.450455826005603"><ele>74.0</ele><time>2026-03-29T14:16:13Z</time></trkpt><trkpt lat="45.28341295629798" lon="9.450518423809747"><ele>74.0</ele><time>2026-03-29T14:16:14Z</time></trkpt><trkpt lat="45.283243574214964" lon="9.45057107783076"><ele>74.0</ele><time>2026-03-29T14:16:15Z</time></trkpt><trkpt lat="45.283073882932584" lon="9.450612361546549"><ele>74.33333333333334</ele><time>2026-03-29T14:16:16Z</time></trkpt><trkpt lat="45.28290435876058" lon="9.450650158875755"><ele>74.66666666666667</ele><time>2026-03-29T14:16:17Z</time></trkpt><trkpt lat="45.282738814330024" lon="9.450682885572942"><ele>75.0</ele><time>2026-03-29T14:16:18Z</time></trkpt><trkpt lat="45.28257830185523" lon="9.450708614994038"><ele>75.0</ele><time>2026-03-29T14:16:19Z</time></trkpt><trkpt lat="45.28242964445395" lon="9.450730956249739"><ele>75.0</ele><time>2026-03-29T14:16:20Z</time></trkpt><trkpt lat="45.28229736184769" lon="9.45075464674427"><ele>75.0</ele><time>2026-03-29T14:16:21Z</time></trkpt><trkpt lat="45.282168425352545" lon="9.450781940687355"><ele>75.0</ele><time>2026-03-29T14:16:22Z</time></trkpt><trkpt lat="45.28205204348661" lon="9.45080382368854"><ele>75.75</ele><time>2026-03-29T14:16:23Z</time></trkpt><trkpt lat="45.28193647246338" lon="9.450824323793821"><ele>76.5</ele><time>2026-03-29T14:16:24Z</time></trkpt><trkpt lat="45.281823455298344" lon="9.45084289232461"><ele>77.25</ele><time>2026-03-29T14:16:25Z</time></trkpt><trkpt lat="45.28170324686987" lon="9.45086526608925"><ele>78.0</ele><time>2026-03-29T14:16:26Z</time></trkpt><trkpt lat="45.2815798098108" lon="9.450897456047478"><ele>78.0</ele><time>2026-03-29T14:16:27Z</time></trkpt><trkpt lat="45.28145923234004" lon="9.450923516666075"><ele>78.0</ele><time>2026-03-29T14:16:28Z</time></trkpt><trkpt lat="45.281337539282006" lon="9.450958663644728"><ele>78.0</ele><time>2026-03-29T14:16:29Z</time></trkpt><trkpt lat="45.28122648774232" lon="9.450988208630502"><ele>78.0</ele><time>2026-03-29T14:16:30Z</time></trkpt><trkpt lat="45.28111482998812" lon="9.451023039892432"><ele>77.83333333333333</ele><time>2026-03-29T14:16:31Z</time></trkpt><trkpt lat="45.28101582012831" lon="9.45104611693596"><ele>77.66666666666667</ele><time>2026-03-29T14:16:32Z</time></trkpt><trkpt lat="45.28091819388279" lon="9.451077583379995"><ele>77.5</ele><time>2026-03-29T14:16:33Z</time></trkpt><trkpt lat="45.28082955885949" lon="9.451104287007585"><ele>77.33333333333334</ele><time>2026-03-29T14:16:34Z</time></trkpt><trkpt lat="45.28075386598455" lon="9.451111521728027"><ele>77.16666666666667</ele><time>2026-03-29T14:16:35Z</time></trkpt><trkpt lat="45.28068074520934" lon="9.451138332442179"><ele>77.0</ele><time>2026-03-29T14:16:36Z</time></trkpt><trkpt lat="45.28062819131234" lon="9.451210289552682"><ele>77.0</ele><time>2026-03-29T14:16:37Z</time></trkpt><trkpt lat="45.28060186453192" lon="9.451316582742114"><ele>77.0</ele><time>2026-03-29T14:16:38Z</time></trkpt><trkpt lat="45.28061773791077" lon="9.451446762145268"><ele>77.0</ele><time>2026-03-29T14:16:39Z</time></trkpt><trkpt lat="45.28066031684362" lon="9.451579563221234"><ele>77.0</ele><time>2026-03-29T14:16:40Z</time></trkpt><trkpt lat="45.28071891987768" lon="9.451712366438505"><ele>77.0</ele><time>2026-03-29T14:16:41Z</time></trkpt><trkpt lat="45.28077426504505" lon="9.451874354546003"><ele>77.0</ele><time>2026-03-29T14:16:42Z</time></trkpt><trkpt lat="45.28083595765979" lon="9.452059743613706"><ele>77.0</ele><time>2026-03-29T14:16:43Z</time></trkpt><trkpt lat="45.28089411422768" lon="9.452234510084255"><ele>77.0</ele><time>2026-03-29T14:16:44Z</time></trkpt><trkpt lat="45.28093520622586" lon="9.452381809196588"><ele>77.0</ele><time>2026-03-29T14:16:45Z</time></trkpt><trkpt lat="45.280967577628395" lon="9.452537639361296"><ele>77.0</ele><time>2026-03-29T14:16:46Z</time></trkpt><trkpt lat="45.28094177387104" lon="9.452708801893806"><ele>77.0</ele><time>2026-03-29T14:16:47Z</time></trkpt><trkpt lat="45.28088138511199" lon="9.452871428730697"><ele>77.0</ele><time>2026-03-29T14:16:48Z</time></trkpt><trkpt lat="45.280774473823364" lon="9.453015808442998"><ele>77.0</ele><time>2026-03-29T14:16:49Z</time></trkpt><trkpt lat="45.280686161631884" lon="9.4532021180233"><ele>76.33333333333334</ele><time>2026-03-29T14:16:50Z</time></trkpt><trkpt lat="45.28057688170647" lon="9.453388138903433"><ele>75.66666666666667</ele><time>2026-03-29T14:16:51Z</time></trkpt><trkpt lat="45.28047013287503" lon="9.45357533601473"><ele>75.0</ele><time>2026-03-29T14:16:52Z</time></trkpt><trkpt lat="45.28038148035974" lon="9.453729935653676"><ele>75.0</ele><time>2026-03-29T14:16:53Z</time></trkpt><trkpt lat="45.28029493171048" lon="9.453861281048187"><ele>75.0</ele><time>2026-03-29T14:16:54Z</time></trkpt><trkpt lat="45.28018857351919" lon="9.45395964123305"><ele>75.0</ele><time>2026-03-29T14:16:55Z</time></trkpt><trkpt lat="45.28004470359271" lon="9.453978379957467"><ele>75.0</ele><time>2026-03-29T14:16:56Z</time></trkpt><trkpt lat="45.27989219222483" lon="9.454042195883808"><ele>75.0</ele><time>2026-03-29T14:16:57Z</time></trkpt><trkpt lat="45.279722007658755" lon="9.454078323855466"><ele>75.0</ele><time>2026-03-29T14:16:58Z</time></trkpt><trkpt lat="45.27955929390085" lon="9.454105586543564"><ele>75.0</ele><time>2026-03-29T14:16:59Z</time></trkpt><trkpt lat="45.27938684220995" lon="9.45415048904701"><ele>75.0</ele><time>2026-03-29T14:17:00Z</time></trkpt><trkpt lat="45.27920880899937" lon="9.454199538985298"><ele>75.0</ele><time>2026-03-29T14:17:01Z</time></trkpt><trkpt lat="45.27902910003007" lon="9.454248965784588"><ele>75.0</ele><time>2026-03-29T14:17:02Z</time></trkpt><trkpt lat="45.278844184211614" lon="9.454296591230364"><ele>75.0</ele><time>2026-03-29T14:17:03Z</time></trkpt><trkpt lat="45.2786677040712" lon="9.454343479200965"><ele>75.0</ele><time>2026-03-29T14:17:04Z</time></trkpt><trkpt lat="45.27849575653152" lon="9.454389413391013"><ele>75.0</ele><time>2026-03-29T14:17:05Z</time></trkpt><trkpt lat="45.27833806062237" lon="9.454436178683148"><ele>75.0</ele><time>2026-03-29T14:17:06Z</time></trkpt><trkpt lat="45.2781904669065" lon="9.454481554050291"><ele>75.0</ele><time>2026-03-29T14:17:07Z</time></trkpt><trkpt lat="45.27805650453161" lon="9.454526983586176"><ele>75.0</ele><time>2026-03-29T14:17:08Z</time></trkpt><trkpt lat="45.27793875232321" lon="9.45457209879554"><ele>75.0</ele><time>2026-03-29T14:17:09Z</time></trkpt><trkpt lat="45.27783292930747" lon="9.454624312890775"><ele>74.66666666666667</ele><time>2026-03-29T14:17:10Z</time></trkpt><trkpt lat="45.27773478733987" lon="9.454675925264912"><ele>74.33333333333333</ele><time>2026-03-29T14:17:11Z</time></trkpt><trkpt lat="45.2776440617587" lon="9.454702036818684"><ele>74.0</ele><time>2026-03-29T14:17:12Z</time></trkpt><trkpt lat="45.27755966351928" lon="9.454716984578052"><ele>73.66666666666666</ele><time>2026-03-29T14:17:13Z</time></trkpt><trkpt lat="45.27748797058913" lon="9.454732958783898"><ele>73.33333333333333</ele><time>2026-03-29T14:17:14Z</time></trkpt><trkpt lat="45.27741601940026" lon="9.454748224895829"><ele>73.0</ele><time>2026-03-29T14:17:15Z</time></trkpt><trkpt lat="45.27730735520539" lon="9.454761469566954"><ele>73.0</ele><time>2026-03-29T14:17:17Z</time></trkpt><trkpt lat="45.27724439671204" lon="9.454759686215622"><ele>73.0</ele><time>2026-03-29T14:17:19Z</time></trkpt><trkpt lat="45.27716875944132" lon="9.454656703456475"><ele>73.0</ele><time>2026-03-29T14:17:41Z</time></trkpt><trkpt lat="45.27716946763425" lon="9.45447978736778"><ele>73.0</ele><time>2026-03-29T14:17:43Z</time></trkpt><trkpt lat="45.277151181275045" lon="9.454345051590256"><ele>73.0</ele><time>2026-03-29T14:17:44Z</time></trkpt><trkpt lat="45.27712635031859" lon="9.454228814493629"><ele>73.0</ele><time>2026-03-29T14:17:45Z</time></trkpt><trkpt lat="45.27709415244782" lon="9.454124334785494"><ele>73.0</ele><time>2026-03-29T14:17:46Z</time></trkpt><trkpt lat="45.27703202956694" lon="9.454044190683192"><ele>73.0</ele><time>2026-03-29T14:17:47Z</time></trkpt><trkpt lat="45.276993025114145" lon="9.453962009344437"><ele>73.0</ele><time>2026-03-29T14:17:48Z</time></trkpt><trkpt lat="45.276931049697154" lon="9.453861104124698"><ele>73.0</ele><time>2026-03-29T14:17:50Z</time></trkpt><trkpt lat="45.27691722403533" lon="9.453768333668823"><ele>73.0</ele><time>2026-03-29T14:17:52Z</time></trkpt><trkpt lat="45.2768434408817" lon="9.453679474193633"><ele>73.4</ele><time>2026-03-29T14:17:54Z</time></trkpt><trkpt lat="45.276721616008345" lon="9.453599777504659"><ele>73.8</ele><time>2026-03-29T14:17:56Z</time></trkpt><trkpt lat="45.27662582319104" lon="9.453619816129297"><ele>74.2</ele><time>2026-03-29T14:17:57Z</time></trkpt><trkpt lat="45.27654056462714" lon="9.453674998790092"><ele>74.6</ele><time>2026-03-29T14:17:58Z</time></trkpt><trkpt lat="45.276452078384594" lon="9.453733314276754"><ele>75.0</ele><time>2026-03-29T14:17:59Z</time></trkpt><trkpt lat="45.27637361066326" lon="9.453837617835964"><ele>74.99999999999999</ele><time>2026-03-29T14:18:00Z</time></trkpt><trkpt lat="45.27633149410832" lon="9.45393745937452"><ele>75.0</ele><time>2026-03-29T14:18:01Z</time></trkpt><trkpt lat="45.27627781008876" lon="9.45400918903216"><ele>75.0</ele><time>2026-03-29T14:18:02Z</time></trkpt><trkpt lat="45.276208017942594" lon="9.454065314748934"><ele>75.0</ele><time>2026-03-29T14:18:03Z</time></trkpt><trkpt lat="45.276134423350534" lon="9.454099135025135"><ele>75.0</ele><time>2026-03-29T14:18:04Z</time></trkpt><trkpt lat="45.27607129063782" lon="9.45412216806962"><ele>74.99999999999999</ele><time>2026-03-29T14:18:05Z</time></trkpt><trkpt lat="45.276005295082165" lon="9.45414982665356"><ele>75.0</ele><time>2026-03-29T14:18:06Z</time></trkpt><trkpt lat="45.27595725740276" lon="9.454213347550294"><ele>75.0</ele><time>2026-03-29T14:18:10Z</time></trkpt><trkpt lat="45.2758607282331" lon="9.454157762129062"><ele>75.0</ele><time>2026-03-29T14:21:11Z</time></trkpt><trkpt lat="45.2757912844296" lon="9.45414932018992"><ele>75.0</ele><time>2026-03-29T14:21:13Z</time></trkpt><trkpt lat="45.27571109595093" lon="9.454144833336763"><ele>75.0</ele><time>2026-03-29T14:21:17Z</time></trkpt><trkpt lat="45.27564870071455" lon="9.454157037943663"><ele>75.0</ele><time>2026-03-29T14:21:21Z</time></trkpt><trkpt lat="45.275562639596146" lon="9.454170830529959"><ele>75.0</ele><time>2026-03-29T14:21:25Z</time></trkpt><trkpt lat="45.27549505282295" lon="9.454190857247788"><ele>75.0</ele><time>2026-03-29T14:21:27Z</time></trkpt><trkpt lat="45.275422569890786" lon="9.454222273893418"><ele>75.0</ele><time>2026-03-29T14:21:29Z</time></trkpt><trkpt lat="45.27533453819684" lon="9.454257121600419"><ele>75.0</ele><time>2026-03-29T14:21:31Z</time></trkpt><trkpt lat="45.27525150058535" lon="9.454287201515282"><ele>75.0</ele><time>2026-03-29T14:21:33Z</time></trkpt><trkpt lat="45.27517918844742" lon="9.454322051503022"><ele>75.0</ele><time>2026-03-29T14:21:35Z</time></trkpt><trkpt lat="45.27511066937218" lon="9.454353620973375"><ele>75.0</ele><time>2026-03-29T14:21:38Z</time></trkpt><trkpt lat="45.27520123498253" lon="9.454197893831468"><ele>75.0</ele><time>2026-03-29T14:21:47Z</time></trkpt><trkpt lat="45.275314006547276" lon="9.45415099701863"><ele>75.0</ele><time>2026-03-29T14:21:49Z</time></trkpt><trkpt lat="45.27537615954574" lon="9.454125150219662"><ele>75.0</ele><time>2026-03-29T14:21:50Z</time></trkpt><trkpt lat="45.275492248467" lon="9.454077327024198"><ele>75.0</ele><time>2026-03-29T14:21:52Z</time></trkpt><trkpt lat="45.27559977694362" lon="9.454033273604086"><ele>75.0</ele><time>2026-03-29T14:21:54Z</time></trkpt><trkpt lat="45.275697712905135" lon="9.453993150121978"><ele>75.0</ele><time>2026-03-29T14:21:56Z</time></trkpt><trkpt lat="45.27577533443856" lon="9.4539613493332"><ele>75.0</ele><time>2026-03-29T14:21:58Z</time></trkpt><trkpt lat="45.27594136324934" lon="9.454428724585208"><ele>75.0</ele><time>2026-03-29T14:22:01Z</time></trkpt><trkpt lat="45.27601677228055" lon="9.454561164512565"><ele>75.0</ele><time>2026-03-29T14:22:03Z</time></trkpt><trkpt lat="45.27613440577788" lon="9.454581998228406"><ele>75.0</ele><time>2026-03-29T14:22:05Z</time></trkpt><trkpt lat="45.276197801439494" lon="9.454564914867474"><ele>75.0</ele><time>2026-03-29T14:22:06Z</time></trkpt><trkpt lat="45.276297165343195" lon="9.454550156747597"><ele>75.0</ele><time>2026-03-29T14:22:08Z</time></trkpt><trkpt lat="45.27637468365628" lon="9.454624757562717"><ele>75.0</ele><time>2026-03-29T14:22:10Z</time></trkpt><trkpt lat="45.27643886290452" lon="9.454727342409914"><ele>74.5</ele><time>2026-03-29T14:22:12Z</time></trkpt><trkpt lat="45.27650549241357" lon="9.454868257198402"><ele>74.0</ele><time>2026-03-29T14:22:14Z</time></trkpt><trkpt lat="45.276546593974196" lon="9.454942265807231"><ele>73.5</ele><time>2026-03-29T14:22:15Z</time></trkpt><trkpt lat="45.276599999194" lon="9.455025197167679"><ele>73.0</ele><time>2026-03-29T14:22:16Z</time></trkpt><trkpt lat="45.27666028189069" lon="9.455099660758567"><ele>72.5</ele><time>2026-03-29T14:22:17Z</time></trkpt><trkpt lat="45.2767327348197" lon="9.455178815135866"><ele>72.0</ele><time>2026-03-29T14:22:18Z</time></trkpt><trkpt lat="45.276816367880045" lon="9.455265883322092"><ele>72.0</ele><time>2026-03-29T14:22:19Z</time></trkpt><trkpt lat="45.276897669338126" lon="9.455388099990909"><ele>72.0</ele><time>2026-03-29T14:22:20Z</time></trkpt><trkpt lat="45.276966847368506" lon="9.455518717606907"><ele>72.0</ele><time>2026-03-29T14:22:21Z</time></trkpt><trkpt lat="45.2770294632358" lon="9.455664774061297"><ele>72.0</ele><time>2026-03-29T14:22:22Z</time></trkpt><trkpt lat="45.27709846608887" lon="9.455820016517938"><ele>72.75</ele><time>2026-03-29T14:22:23Z</time></trkpt><trkpt lat="45.27716200014629" lon="9.455984464559409"><ele>73.5</ele><time>2026-03-29T14:22:24Z</time></trkpt><trkpt lat="45.277221237664605" lon="9.456153746361931"><ele>74.25</ele><time>2026-03-29T14:22:25Z</time></trkpt><trkpt lat="45.277287004176415" lon="9.456325752151864"><ele>75.0</ele><time>2026-03-29T14:22:26Z</time></trkpt><trkpt lat="45.2773498153083" lon="9.456506262596568"><ele>75.0</ele><time>2026-03-29T14:22:27Z</time></trkpt><trkpt lat="45.27741632715771" lon="9.456690381686085"><ele>75.0</ele><time>2026-03-29T14:22:28Z</time></trkpt><trkpt lat="45.27748590310464" lon="9.456880537818314"><ele>75.0</ele><time>2026-03-29T14:22:29Z</time></trkpt><trkpt lat="45.2775571666272" lon="9.457075600110894"><ele>75.33333333333333</ele><time>2026-03-29T14:22:30Z</time></trkpt><trkpt lat="45.2776311345663" lon="9.457273651950725"><ele>75.66666666666666</ele><time>2026-03-29T14:22:31Z</time></trkpt><trkpt lat="45.27771061283524" lon="9.457472251311902"><ele>76.0</ele><time>2026-03-29T14:22:32Z</time></trkpt><trkpt lat="45.277797072027816" lon="9.457665310900685"><ele>76.0</ele><time>2026-03-29T14:22:33Z</time></trkpt><trkpt lat="45.277894180944166" lon="9.457855187500233"><ele>76.0</ele><time>2026-03-29T14:22:34Z</time></trkpt><trkpt lat="45.277997034927296" lon="9.45803752179337"><ele>76.0</ele><time>2026-03-29T14:22:35Z</time></trkpt><trkpt lat="45.278105249817465" lon="9.45822359825411"><ele>75.66666666666666</ele><time>2026-03-29T14:22:36Z</time></trkpt><trkpt lat="45.27821260661057" lon="9.458412811966232"><ele>75.33333333333333</ele><time>2026-03-29T14:22:37Z</time></trkpt><trkpt lat="45.27831925082454" lon="9.458599837173924"><ele>75.0</ele><time>2026-03-29T14:22:38Z</time></trkpt><trkpt lat="45.27842689860571" lon="9.458784091925386"><ele>74.66666666666667</ele><time>2026-03-29T14:22:39Z</time></trkpt><trkpt lat="45.278537351851995" lon="9.458964338928403"><ele>74.33333333333334</ele><time>2026-03-29T14:22:40Z</time></trkpt><trkpt lat="45.27864948854254" lon="9.459138931802999"><ele>74.0</ele><time>2026-03-29T14:22:41Z</time></trkpt><trkpt lat="45.278761775607244" lon="9.45930686456867"><ele>74.0</ele><time>2026-03-29T14:22:42Z</time></trkpt><trkpt lat="45.278877672482025" lon="9.459471302502976"><ele>74.0</ele><time>2026-03-29T14:22:43Z</time></trkpt><trkpt lat="45.27899566089559" lon="9.459642030934878"><ele>74.0</ele><time>2026-03-29T14:22:44Z</time></trkpt><trkpt lat="45.27911028206832" lon="9.45981237724768"><ele>74.33333333333334</ele><time>2026-03-29T14:22:45Z</time></trkpt><trkpt lat="45.27922704169681" lon="9.459982610035176"><ele>74.66666666666667</ele><time>2026-03-29T14:22:46Z</time></trkpt><trkpt lat="45.2793447456319" lon="9.460149814495377"><ele>75.0</ele><time>2026-03-29T14:22:47Z</time></trkpt><trkpt lat="45.27946226258593" lon="9.460315539313301"><ele>75.5</ele><time>2026-03-29T14:22:48Z</time></trkpt><trkpt lat="45.27969264650954" lon="9.460635465898294"><ele>76.0</ele><time>2026-03-29T14:22:50Z</time></trkpt><trkpt lat="45.27981018187897" lon="9.460793021918477"><ele>76.0</ele><time>2026-03-29T14:22:51Z</time></trkpt><trkpt lat="45.27992243819637" lon="9.460947007353324"><ele>76.0</ele><time>2026-03-29T14:22:52Z</time></trkpt><trkpt lat="45.280035855613875" lon="9.461104381967866"><ele>76.0</ele><time>2026-03-29T14:22:53Z</time></trkpt><trkpt lat="45.28014670140838" lon="9.46125371588561"><ele>76.0</ele><time>2026-03-29T14:22:54Z</time></trkpt><trkpt lat="45.28026198491805" lon="9.461400604052145"><ele>76.0</ele><time>2026-03-29T14:22:55Z</time></trkpt><trkpt lat="45.28038140147866" lon="9.461553819977004"><ele>76.0</ele><time>2026-03-29T14:22:56Z</time></trkpt><trkpt lat="45.28049147594073" lon="9.461724014133189"><ele>76.0</ele><time>2026-03-29T14:22:57Z</time></trkpt><trkpt lat="45.28059628238461" lon="9.461892772731664"><ele>76.0</ele><time>2026-03-29T14:22:58Z</time></trkpt><trkpt lat="45.280713955385394" lon="9.462054524846609"><ele>76.0</ele><time>2026-03-29T14:22:59Z</time></trkpt><trkpt lat="45.28082991098023" lon="9.462210704852584"><ele>75.33333333333333</ele><time>2026-03-29T14:23:00Z</time></trkpt><trkpt lat="45.280946757086326" lon="9.462375838157984"><ele>74.66666666666667</ele><time>2026-03-29T14:23:01Z</time></trkpt><trkpt lat="45.28106175330752" lon="9.462542358110712"><ele>74.0</ele><time>2026-03-29T14:23:02Z</time></trkpt><trkpt lat="45.28118235506418" lon="9.46271017011216"><ele>74.0</ele><time>2026-03-29T14:23:03Z</time></trkpt><trkpt lat="45.28130419164348" lon="9.462881422525356"><ele>74.0</ele><time>2026-03-29T14:23:04Z</time></trkpt><trkpt lat="45.281422434427824" lon="9.463045821228397"><ele>74.0</ele><time>2026-03-29T14:23:05Z</time></trkpt><trkpt lat="45.28153860966412" lon="9.46320769287223"><ele>74.33333333333334</ele><time>2026-03-29T14:23:06Z</time></trkpt><trkpt lat="45.28165331800848" lon="9.463371520265191"><ele>74.66666666666667</ele><time>2026-03-29T14:23:07Z</time></trkpt><trkpt lat="45.281773303633926" lon="9.463541792590432"><ele>75.0</ele><time>2026-03-29T14:23:08Z</time></trkpt><trkpt lat="45.281891669126885" lon="9.463707029336994"><ele>75.33333333333333</ele><time>2026-03-29T14:23:09Z</time></trkpt><trkpt lat="45.2820102581044" lon="9.46386735545568"><ele>75.66666666666666</ele><time>2026-03-29T14:23:10Z</time></trkpt><trkpt lat="45.28213297743841" lon="9.464029586573794"><ele>76.0</ele><time>2026-03-29T14:23:11Z</time></trkpt><trkpt lat="45.28225939502592" lon="9.464190016585606"><ele>76.33333333333333</ele><time>2026-03-29T14:23:12Z</time></trkpt><trkpt lat="45.28238838987821" lon="9.464342770593898"><ele>76.66666666666667</ele><time>2026-03-29T14:23:13Z</time></trkpt><trkpt lat="45.28251728071503" lon="9.464496163217497"><ele>77.0</ele><time>2026-03-29T14:23:14Z</time></trkpt><trkpt lat="45.2826470653412" lon="9.464643714100312"><ele>77.33333333333334</ele><time>2026-03-29T14:23:15Z</time></trkpt><trkpt lat="45.2827766158902" lon="9.464790730477102"><ele>77.66666666666667</ele><time>2026-03-29T14:23:16Z</time></trkpt><trkpt lat="45.28290799520151" lon="9.4649386894442"><ele>78.0</ele><time>2026-03-29T14:23:17Z</time></trkpt><trkpt lat="45.28303556363575" lon="9.465090380776934"><ele>77.66666666666667</ele><time>2026-03-29T14:23:18Z</time></trkpt><trkpt lat="45.28315904410436" lon="9.46523864113001"><ele>77.33333333333334</ele><time>2026-03-29T14:23:19Z</time></trkpt><trkpt lat="45.28328265241472" lon="9.46538003318455"><ele>77.0</ele><time>2026-03-29T14:23:20Z</time></trkpt><trkpt lat="45.283406615027026" lon="9.465525922938292"><ele>77.0</ele><time>2026-03-29T14:23:21Z</time></trkpt><trkpt lat="45.28352759003146" lon="9.465671977431533"><ele>77.0</ele><time>2026-03-29T14:23:22Z</time></trkpt><trkpt lat="45.28364702870079" lon="9.465812506338146"><ele>77.0</ele><time>2026-03-29T14:23:23Z</time></trkpt><trkpt lat="45.28377115889988" lon="9.465955363309313"><ele>77.0</ele><time>2026-03-29T14:23:24Z</time></trkpt><trkpt lat="45.283891936290296" lon="9.466095895288914"><ele>77.0</ele><time>2026-03-29T14:23:25Z</time></trkpt><trkpt lat="45.284011159713835" lon="9.466239749028704"><ele>77.0</ele><time>2026-03-29T14:23:26Z</time></trkpt><trkpt lat="45.28413325902309" lon="9.466385420102217"><ele>76.75</ele><time>2026-03-29T14:23:27Z</time></trkpt><trkpt lat="45.28424584207759" lon="9.466515681922667"><ele>76.5</ele><time>2026-03-29T14:23:28Z</time></trkpt><trkpt lat="45.28435374155833" lon="9.466641106390973"><ele>76.25</ele><time>2026-03-29T14:23:29Z</time></trkpt><trkpt lat="45.2844563910246" lon="9.466762488328833"><ele>76.0</ele><time>2026-03-29T14:23:30Z</time></trkpt><trkpt lat="45.284554745588" lon="9.466877263151623"><ele>76.0</ele><time>2026-03-29T14:23:31Z</time></trkpt><trkpt lat="45.28464818435691" lon="9.466986160608442"><ele>76.0</ele><time>2026-03-29T14:23:32Z</time></trkpt><trkpt lat="45.284738924401445" lon="9.467092128241793"><ele>76.0</ele><time>2026-03-29T14:23:33Z</time></trkpt><trkpt lat="45.28483568605336" lon="9.46720740686003"><ele>76.0</ele><time>2026-03-29T14:23:34Z</time></trkpt><trkpt lat="45.28492377321218" lon="9.467307371538038"><ele>76.0</ele><time>2026-03-29T14:23:35Z</time></trkpt><trkpt lat="45.28501915106435" lon="9.467418195920882"><ele>76.0</ele><time>2026-03-29T14:23:36Z</time></trkpt><trkpt lat="45.28510432545436" lon="9.46751627587735"><ele>76.0</ele><time>2026-03-29T14:23:37Z</time></trkpt><trkpt lat="45.28518995021433" lon="9.467618931184155"><ele>76.0</ele><time>2026-03-29T14:23:38Z</time></trkpt><trkpt lat="45.28527627734439" lon="9.467723152077788"><ele>76.0</ele><time>2026-03-29T14:23:39Z</time></trkpt><trkpt lat="45.28536758320947" lon="9.467831516424857"><ele>76.0</ele><time>2026-03-29T14:23:40Z</time></trkpt><trkpt lat="45.285454897931125" lon="9.46793483884708"><ele>76.0</ele><time>2026-03-29T14:23:41Z</time></trkpt><trkpt lat="45.28554337538247" lon="9.468043409652553"><ele>76.0</ele><time>2026-03-29T14:23:42Z</time></trkpt><trkpt lat="45.28564354448597" lon="9.46816310670806"><ele>75.25</ele><time>2026-03-29T14:23:43Z</time></trkpt><trkpt lat="45.2857443816442" lon="9.46828205744982"><ele>74.5</ele><time>2026-03-29T14:23:44Z</time></trkpt><trkpt lat="45.285844863541165" lon="9.46839768482568"><ele>73.75</ele><time>2026-03-29T14:23:45Z</time></trkpt><trkpt lat="45.285943452671944" lon="9.468514223998849"><ele>73.0</ele><time>2026-03-29T14:23:46Z</time></trkpt><trkpt lat="45.28604492456236" lon="9.468630425681525"><ele>73.0</ele><time>2026-03-29T14:23:47Z</time></trkpt><trkpt lat="45.28614544037364" lon="9.468751046303524"><ele>73.0</ele><time>2026-03-29T14:23:48Z</time></trkpt><trkpt lat="45.28624663913321" lon="9.468869850099242"><ele>73.0</ele><time>2026-03-29T14:23:49Z</time></trkpt><trkpt lat="45.286352491219404" lon="9.468993950982473"><ele>73.0</ele><time>2026-03-29T14:23:50Z</time></trkpt><trkpt lat="45.28646240208168" lon="9.469125012329043"><ele>73.5</ele><time>2026-03-29T14:23:51Z</time></trkpt><trkpt lat="45.286572571726964" lon="9.469258406320792"><ele>74.0</ele><time>2026-03-29T14:23:52Z</time></trkpt><trkpt lat="45.286688237041496" lon="9.469394798698065"><ele>74.5</ele><time>2026-03-29T14:23:53Z</time></trkpt><trkpt lat="45.2868021965729" lon="9.469524040103625"><ele>75.0</ele><time>2026-03-29T14:23:54Z</time></trkpt><trkpt lat="45.286918035278205" lon="9.469663243892015"><ele>75.33333333333333</ele><time>2026-03-29T14:23:55Z</time></trkpt><trkpt lat="45.28704263954088" lon="9.469809949455716"><ele>75.66666666666666</ele><time>2026-03-29T14:23:56Z</time></trkpt><trkpt lat="45.287166890751365" lon="9.469956856962948"><ele>76.0</ele><time>2026-03-29T14:23:57Z</time></trkpt><trkpt lat="45.28729017662157" lon="9.470101096162637"><ele>76.0</ele><time>2026-03-29T14:23:58Z</time></trkpt><trkpt lat="45.28741342299049" lon="9.470247356445027"><ele>76.0</ele><time>2026-03-29T14:23:59Z</time></trkpt><trkpt lat="45.287536231379335" lon="9.47039092317906"><ele>76.0</ele><time>2026-03-29T14:24:00Z</time></trkpt><trkpt lat="45.28765850689166" lon="9.470534148912623"><ele>76.33333333333333</ele><time>2026-03-29T14:24:01Z</time></trkpt><trkpt lat="45.287785367254045" lon="9.47068392775628"><ele>76.66666666666667</ele><time>2026-03-29T14:24:02Z</time></trkpt><trkpt lat="45.2879107067212" lon="9.470828761146253"><ele>77.0</ele><time>2026-03-29T14:24:03Z</time></trkpt><trkpt lat="45.28803778400678" lon="9.47097890352096"><ele>76.66666666666667</ele><time>2026-03-29T14:24:04Z</time></trkpt><trkpt lat="45.28816428240412" lon="9.471124617914525"><ele>76.33333333333333</ele><time>2026-03-29T14:24:05Z</time></trkpt><trkpt lat="45.2882921717818" lon="9.47126986309351"><ele>76.0</ele><time>2026-03-29T14:24:06Z</time></trkpt><trkpt lat="45.28842209015888" lon="9.471426376594291"><ele>76.0</ele><time>2026-03-29T14:24:07Z</time></trkpt><trkpt lat="45.28855239443017" lon="9.471587220159817"><ele>76.0</ele><time>2026-03-29T14:24:08Z</time></trkpt><trkpt lat="45.28868605117382" lon="9.471749898272062"><ele>76.0</ele><time>2026-03-29T14:24:09Z</time></trkpt><trkpt lat="45.288822609140084" lon="9.471907829125175"><ele>76.0</ele><time>2026-03-29T14:24:10Z</time></trkpt><trkpt lat="45.288955568473575" lon="9.472060212243452"><ele>76.0</ele><time>2026-03-29T14:24:11Z</time></trkpt><trkpt lat="45.28908909442308" lon="9.472219018991314"><ele>76.0</ele><time>2026-03-29T14:24:12Z</time></trkpt><trkpt lat="45.289223102181936" lon="9.472374687840638"><ele>76.0</ele><time>2026-03-29T14:24:13Z</time></trkpt><trkpt lat="45.28935968339241" lon="9.47253539481761"><ele>76.0</ele><time>2026-03-29T14:24:14Z</time></trkpt><trkpt lat="45.28949522836739" lon="9.47269390814157"><ele>76.0</ele><time>2026-03-29T14:24:15Z</time></trkpt><trkpt lat="45.28963000609178" lon="9.472849920213507"><ele>76.0</ele><time>2026-03-29T14:24:16Z</time></trkpt><trkpt lat="45.28976406366186" lon="9.4730031717131"><ele>76.0</ele><time>2026-03-29T14:24:17Z</time></trkpt><trkpt lat="45.289897444883195" lon="9.47315974507113"><ele>76.0</ele><time>2026-03-29T14:24:18Z</time></trkpt><trkpt lat="45.290033917095215" lon="9.473326206904726"><ele>76.0</ele><time>2026-03-29T14:24:19Z</time></trkpt><trkpt lat="45.290168958854025" lon="9.47349262135302"><ele>76.0</ele><time>2026-03-29T14:24:20Z</time></trkpt><trkpt lat="45.29030330925576" lon="9.473650523562235"><ele>76.0</ele><time>2026-03-29T14:24:21Z</time></trkpt><trkpt lat="45.290440711396556" lon="9.473813545883308"><ele>76.0</ele><time>2026-03-29T14:24:22Z</time></trkpt><trkpt lat="45.29058064158191" lon="9.473969288530222"><ele>76.0</ele><time>2026-03-29T14:24:23Z</time></trkpt><trkpt lat="45.290718320164245" lon="9.474129382772222"><ele>76.0</ele><time>2026-03-29T14:24:24Z</time></trkpt><trkpt lat="45.29085444056001" lon="9.474288175282267"><ele>76.0</ele><time>2026-03-29T14:24:25Z</time></trkpt><trkpt lat="45.29098772191753" lon="9.474445465970021"><ele>76.0</ele><time>2026-03-29T14:24:26Z</time></trkpt><trkpt lat="45.29111779290512" lon="9.474599042623836"><ele>76.0</ele><time>2026-03-29T14:24:27Z</time></trkpt><trkpt lat="45.29124053162418" lon="9.474748713504757"><ele>76.0</ele><time>2026-03-29T14:24:28Z</time></trkpt><trkpt lat="45.29135788657595" lon="9.474887083307408"><ele>76.0</ele><time>2026-03-29T14:24:29Z</time></trkpt><trkpt lat="45.2914742242588" lon="9.475024907489194"><ele>76.0</ele><time>2026-03-29T14:24:30Z</time></trkpt><trkpt lat="45.291585025216925" lon="9.475152536722874"><ele>76.0</ele><time>2026-03-29T14:24:31Z</time></trkpt><trkpt lat="45.291698251744556" lon="9.475273064609164"><ele>75.75</ele><time>2026-03-29T14:24:32Z</time></trkpt><trkpt lat="45.29181568389691" lon="9.475395243822806"><ele>75.5</ele><time>2026-03-29T14:24:33Z</time></trkpt><trkpt lat="45.291935851369516" lon="9.475524870766492"><ele>75.25</ele><time>2026-03-29T14:24:34Z</time></trkpt><trkpt lat="45.29205528884801" lon="9.475657007688516"><ele>75.0</ele><time>2026-03-29T14:24:35Z</time></trkpt><trkpt lat="45.29217701792374" lon="9.475790665095365"><ele>74.66666666666667</ele><time>2026-03-29T14:24:36Z</time></trkpt><trkpt lat="45.29230497647596" lon="9.475932237591767"><ele>74.33333333333334</ele><time>2026-03-29T14:24:37Z</time></trkpt><trkpt lat="45.29243376661799" lon="9.476073736081824"><ele>74.0</ele><time>2026-03-29T14:24:38Z</time></trkpt><trkpt lat="45.29256446885168" lon="9.47621629208895"><ele>74.66666666666667</ele><time>2026-03-29T14:24:39Z</time></trkpt><trkpt lat="45.29269369833773" lon="9.476354314708255"><ele>75.33333333333333</ele><time>2026-03-29T14:24:40Z</time></trkpt><trkpt lat="45.29282685440661" lon="9.476491290427312"><ele>76.0</ele><time>2026-03-29T14:24:41Z</time></trkpt><trkpt lat="45.29295340901939" lon="9.476622825174902"><ele>76.0</ele><time>2026-03-29T14:24:42Z</time></trkpt><trkpt lat="45.293083049856236" lon="9.476747825884893"><ele>76.0</ele><time>2026-03-29T14:24:43Z</time></trkpt><trkpt lat="45.29321068409784" lon="9.476877635181127"><ele>76.0</ele><time>2026-03-29T14:24:44Z</time></trkpt><trkpt lat="45.29333423461935" lon="9.477002680193065"><ele>76.0</ele><time>2026-03-29T14:24:45Z</time></trkpt><trkpt lat="45.29346137869173" lon="9.477127797339465"><ele>76.0</ele><time>2026-03-29T14:24:46Z</time></trkpt><trkpt lat="45.293588522754504" lon="9.477250747718879"><ele>76.0</ele><time>2026-03-29T14:24:47Z</time></trkpt><trkpt lat="45.293714718649056" lon="9.47737206641541"><ele>76.0</ele><time>2026-03-29T14:24:48Z</time></trkpt><trkpt lat="45.29384621294763" lon="9.477499780735162"><ele>76.0</ele><time>2026-03-29T14:24:49Z</time></trkpt><trkpt lat="45.29397537964635" lon="9.477623473565155"><ele>76.0</ele><time>2026-03-29T14:24:50Z</time></trkpt><trkpt lat="45.29410247518565" lon="9.477746319625075"><ele>76.0</ele><time>2026-03-29T14:24:51Z</time></trkpt><trkpt lat="45.29423323749446" lon="9.477870683737182"><ele>76.0</ele><time>2026-03-29T14:24:52Z</time></trkpt><trkpt lat="45.29435707161399" lon="9.477989749580791"><ele>76.0</ele><time>2026-03-29T14:24:53Z</time></trkpt><trkpt lat="45.29448187983593" lon="9.478113379700202"><ele>76.0</ele><time>2026-03-29T14:24:54Z</time></trkpt><trkpt lat="45.29460818686956" lon="9.478237940090972"><ele>76.0</ele><time>2026-03-29T14:24:55Z</time></trkpt><trkpt lat="45.29473752805321" lon="9.478364341779958"><ele>76.0</ele><time>2026-03-29T14:24:56Z</time></trkpt><trkpt lat="45.29486821612856" lon="9.478487984550346"><ele>76.0</ele><time>2026-03-29T14:24:57Z</time></trkpt><trkpt lat="45.29499495670464" lon="9.478611301734107"><ele>76.0</ele><time>2026-03-29T14:24:58Z</time></trkpt><trkpt lat="45.29512028077442" lon="9.4787387603095"><ele>76.0</ele><time>2026-03-29T14:24:59Z</time></trkpt><trkpt lat="45.29523922376684" lon="9.478858863898488"><ele>76.0</ele><time>2026-03-29T14:25:00Z</time></trkpt><trkpt lat="45.2953492250357" lon="9.478972327173135"><ele>76.0</ele><time>2026-03-29T14:25:01Z</time></trkpt><trkpt lat="45.29545439118808" lon="9.479077718025025"><ele>76.0</ele><time>2026-03-29T14:25:02Z</time></trkpt><trkpt lat="45.29555555936556" lon="9.479176992838632"><ele>76.0</ele><time>2026-03-29T14:25:03Z</time></trkpt><trkpt lat="45.2956569634999" lon="9.479282924278438"><ele>76.25</ele><time>2026-03-29T14:25:04Z</time></trkpt><trkpt lat="45.29575415529455" lon="9.479392213304113"><ele>76.5</ele><time>2026-03-29T14:25:05Z</time></trkpt><trkpt lat="45.295846435455275" lon="9.47949190487075"><ele>76.75</ele><time>2026-03-29T14:25:06Z</time></trkpt><trkpt lat="45.295942480176535" lon="9.479591215759205"><ele>77.0</ele><time>2026-03-29T14:25:07Z</time></trkpt><trkpt lat="45.29603437536767" lon="9.479694422973367"><ele>77.0</ele><time>2026-03-29T14:25:08Z</time></trkpt><trkpt lat="45.29612700571335" lon="9.479799541880702"><ele>77.0</ele><time>2026-03-29T14:25:09Z</time></trkpt><trkpt lat="45.29622013192229" lon="9.479909221417321"><ele>77.0</ele><time>2026-03-29T14:25:10Z</time></trkpt><trkpt lat="45.29631476822976" lon="9.480016080984301"><ele>77.0</ele><time>2026-03-29T14:25:11Z</time></trkpt><trkpt lat="45.29640291626377" lon="9.480123344425843"><ele>77.0</ele><time>2026-03-29T14:25:12Z</time></trkpt><trkpt lat="45.296489567427514" lon="9.480227859086394"><ele>77.0</ele><time>2026-03-29T14:25:13Z</time></trkpt><trkpt lat="45.2965766883239" lon="9.48033676684225"><ele>77.0</ele><time>2026-03-29T14:25:14Z</time></trkpt><trkpt lat="45.296664144084815" lon="9.480446543140816"><ele>77.0</ele><time>2026-03-29T14:25:15Z</time></trkpt><trkpt lat="45.29675188836072" lon="9.480558507157047"><ele>77.0</ele><time>2026-03-29T14:25:16Z</time></trkpt><trkpt lat="45.29683920604734" lon="9.480669925391235"><ele>77.0</ele><time>2026-03-29T14:25:17Z</time></trkpt><trkpt lat="45.296931239012736" lon="9.480782958954137"><ele>77.0</ele><time>2026-03-29T14:25:18Z</time></trkpt><trkpt lat="45.29702360785979" lon="9.480893978889823"><ele>77.0</ele><time>2026-03-29T14:25:19Z</time></trkpt><trkpt lat="45.29711714118973" lon="9.481010527832932"><ele>77.0</ele><time>2026-03-29T14:25:20Z</time></trkpt><trkpt lat="45.29720485618513" lon="9.481125317055342"><ele>77.0</ele><time>2026-03-29T14:25:21Z</time></trkpt><trkpt lat="45.29729375481533" lon="9.481241586284732"><ele>77.0</ele><time>2026-03-29T14:25:22Z</time></trkpt><trkpt lat="45.29738491075928" lon="9.481355996357815"><ele>77.0</ele><time>2026-03-29T14:25:23Z</time></trkpt><trkpt lat="45.297474037240704" lon="9.481470084656996"><ele>76.5</ele><time>2026-03-29T14:25:24Z</time></trkpt><trkpt lat="45.2975659569447" lon="9.481584065735024"><ele>76.0</ele><time>2026-03-29T14:25:25Z</time></trkpt><trkpt lat="45.29765559510862" lon="9.481694495891498"><ele>75.5</ele><time>2026-03-29T14:25:26Z</time></trkpt><trkpt lat="45.29774532079721" lon="9.481806584356189"><ele>75.0</ele><time>2026-03-29T14:25:27Z</time></trkpt><trkpt lat="45.29783613470063" lon="9.481922475870231"><ele>75.0</ele><time>2026-03-29T14:25:28Z</time></trkpt><trkpt lat="45.29792941571528" lon="9.48203927697983"><ele>75.0</ele><time>2026-03-29T14:25:29Z</time></trkpt><trkpt lat="45.29802434074594" lon="9.482157221024451"><ele>75.0</ele><time>2026-03-29T14:25:30Z</time></trkpt><trkpt lat="45.298120404208646" lon="9.482273513353196"><ele>75.0</ele><time>2026-03-29T14:25:31Z</time></trkpt><trkpt lat="45.298213877493716" lon="9.482392750267033"><ele>74.75</ele><time>2026-03-29T14:25:32Z</time></trkpt><trkpt lat="45.29830950915153" lon="9.482517015085529"><ele>74.5</ele><time>2026-03-29T14:25:33Z</time></trkpt><trkpt lat="45.2984073523731" lon="9.482642512791857"><ele>74.25</ele><time>2026-03-29T14:25:34Z</time></trkpt><trkpt lat="45.29850711223502" lon="9.482765642930305"><ele>74.0</ele><time>2026-03-29T14:25:35Z</time></trkpt><trkpt lat="45.29860684107073" lon="9.482892345065233"><ele>74.0</ele><time>2026-03-29T14:25:36Z</time></trkpt><trkpt lat="45.29870953475008" lon="9.483021037619434"><ele>74.0</ele><time>2026-03-29T14:25:37Z</time></trkpt><trkpt lat="45.29881583646248" lon="9.483151570374869"><ele>74.0</ele><time>2026-03-29T14:25:38Z</time></trkpt><trkpt lat="45.298924118228605" lon="9.483285280989195"><ele>74.0</ele><time>2026-03-29T14:25:39Z</time></trkpt><trkpt lat="45.29903628665663" lon="9.483425296320078"><ele>74.0</ele><time>2026-03-29T14:25:40Z</time></trkpt><trkpt lat="45.299157061357654" lon="9.483561389631022"><ele>74.0</ele><time>2026-03-29T14:25:41Z</time></trkpt><trkpt lat="45.299282608271916" lon="9.483686003442566"><ele>74.0</ele><time>2026-03-29T14:25:42Z</time></trkpt><trkpt lat="45.2994038093632" lon="9.483818830510959"><ele>74.0</ele><time>2026-03-29T14:25:43.001Z</time></trkpt><trkpt lat="45.29952918387602" lon="9.483948112482423"><ele>74.0</ele><time>2026-03-29T14:25:44.001Z</time></trkpt><trkpt lat="45.29965005806553" lon="9.484078500965968"><ele>74.0</ele><time>2026-03-29T14:25:45.001Z</time></trkpt><trkpt lat="45.29976106165762" lon="9.484204750762089"><ele>74.0</ele><time>2026-03-29T14:25:46.001Z</time></trkpt><trkpt lat="45.29986695908162" lon="9.484325138151794"><ele>74.0</ele><time>2026-03-29T14:25:47.001Z</time></trkpt><trkpt lat="45.299968243993604" lon="9.4844400013943"><ele>74.0</ele><time>2026-03-29T14:25:48.001Z</time></trkpt><trkpt lat="45.30007214773994" lon="9.484554338094878"><ele>74.0</ele><time>2026-03-29T14:25:49.001Z</time></trkpt><trkpt lat="45.30017855059529" lon="9.484667042383403"><ele>74.0</ele><time>2026-03-29T14:25:50.001Z</time></trkpt><trkpt lat="45.300281215475486" lon="9.484772845585878"><ele>74.0</ele><time>2026-03-29T14:25:51.001Z</time></trkpt><trkpt lat="45.30037051903427" lon="9.484866326480475"><ele>74.0</ele><time>2026-03-29T14:25:52Z</time></trkpt><trkpt lat="45.30045866977561" lon="9.484959817415962"><ele>74.0</ele><time>2026-03-29T14:25:53Z</time></trkpt><trkpt lat="45.3005417269657" lon="9.485057349370337"><ele>74.0</ele><time>2026-03-29T14:25:54Z</time></trkpt><trkpt lat="45.30061317140925" lon="9.485162408520416"><ele>74.0</ele><time>2026-03-29T14:25:55Z</time></trkpt><trkpt lat="45.30067740539414" lon="9.485276891705983"><ele>74.2</ele><time>2026-03-29T14:25:56Z</time></trkpt><trkpt lat="45.300730750020755" lon="9.485395575267733"><ele>74.4</ele><time>2026-03-29T14:25:57Z</time></trkpt><trkpt lat="45.30078325559149" lon="9.485528259244944"><ele>74.6</ele><time>2026-03-29T14:25:58Z</time></trkpt><trkpt lat="45.300824995318315" lon="9.485635057337094"><ele>74.8</ele><time>2026-03-29T14:25:59Z</time></trkpt><trkpt lat="45.30085413604468" lon="9.485719625553193"><ele>75.0</ele><time>2026-03-29T14:26:00Z</time></trkpt><trkpt lat="45.30089669242127" lon="9.485846502889157"><ele>75.0</ele><time>2026-03-29T14:26:02Z</time></trkpt><trkpt lat="45.300944872985916" lon="9.485988348889759"><ele>75.0</ele><time>2026-03-29T14:26:04Z</time></trkpt><trkpt lat="45.300977661827815" lon="9.486081539264084"><ele>75.0</ele><time>2026-03-29T14:26:05Z</time></trkpt><trkpt lat="45.30101936826656" lon="9.486195733860868"><ele>75.0</ele><time>2026-03-29T14:26:06Z</time></trkpt><trkpt lat="45.301093023669694" lon="9.486314427769777"><ele>75.0</ele><time>2026-03-29T14:26:07Z</time></trkpt><trkpt lat="45.301186232676" lon="9.486393649533557"><ele>75.0</ele><time>2026-03-29T14:26:08Z</time></trkpt><trkpt lat="45.30129716119063" lon="9.486441945271897"><ele>75.0</ele><time>2026-03-29T14:26:09Z</time></trkpt><trkpt lat="45.30142569136464" lon="9.486441475704124"><ele>75.0</ele><time>2026-03-29T14:26:10Z</time></trkpt><trkpt lat="45.30155001448347" lon="9.486383300444842"><ele>75.0</ele><time>2026-03-29T14:26:11Z</time></trkpt><trkpt lat="45.30163686329531" lon="9.486280477028794"><ele>75.75</ele><time>2026-03-29T14:26:12Z</time></trkpt><trkpt lat="45.30173452403148" lon="9.486064098276888"><ele>76.5</ele><time>2026-03-29T14:26:14Z</time></trkpt><trkpt lat="45.30175010344758" lon="9.485883219980549"><ele>77.25</ele><time>2026-03-29T14:26:15Z</time></trkpt><trkpt lat="45.30178620353493" lon="9.485706251747441"><ele>78.0</ele><time>2026-03-29T14:26:16Z</time></trkpt><trkpt lat="45.30180857701856" lon="9.485518092172043"><ele>77.75</ele><time>2026-03-29T14:26:17Z</time></trkpt><trkpt lat="45.30182342772235" lon="9.485357759307464"><ele>77.5</ele><time>2026-03-29T14:26:18Z</time></trkpt><trkpt lat="45.30187592419064" lon="9.485230265963269"><ele>77.25</ele><time>2026-03-29T14:26:19Z</time></trkpt><trkpt lat="45.301942086897945" lon="9.485109509945293"><ele>77.0</ele><time>2026-03-29T14:26:20Z</time></trkpt><trkpt lat="45.30201577235564" lon="9.484957981519631"><ele>77.0</ele><time>2026-03-29T14:26:21Z</time></trkpt><trkpt lat="45.30211060757316" lon="9.484803443243475"><ele>77.0</ele><time>2026-03-29T14:26:22Z</time></trkpt><trkpt lat="45.30226511995579" lon="9.484527534420568"><ele>77.0</ele><time>2026-03-29T14:26:23Z</time></trkpt><trkpt lat="45.302357163634305" lon="9.484366661009636"><ele>77.0</ele><time>2026-03-29T14:26:24Z</time></trkpt><trkpt lat="45.30243810779071" lon="9.48423826316789"><ele>77.0</ele><time>2026-03-29T14:26:25Z</time></trkpt><trkpt lat="45.302512209369986" lon="9.484113457305655"><ele>77.0</ele><time>2026-03-29T14:26:26Z</time></trkpt><trkpt lat="45.30258717770929" lon="9.483990657894019"><ele>77.0</ele><time>2026-03-29T14:26:27Z</time></trkpt><trkpt lat="45.302667574987396" lon="9.48385065876765"><ele>76.75</ele><time>2026-03-29T14:26:28Z</time></trkpt><trkpt lat="45.30274096366457" lon="9.483711883246688"><ele>76.5</ele><time>2026-03-29T14:26:29Z</time></trkpt><trkpt lat="45.302815276396494" lon="9.483576312601498"><ele>76.25</ele><time>2026-03-29T14:26:30Z</time></trkpt><trkpt lat="45.30288837391395" lon="9.483442874561657"><ele>76.0</ele><time>2026-03-29T14:26:31Z</time></trkpt><trkpt lat="45.30296389074592" lon="9.483302767057603"><ele>76.0</ele><time>2026-03-29T14:26:32Z</time></trkpt><trkpt lat="45.303042093532916" lon="9.483157394467488"><ele>76.0</ele><time>2026-03-29T14:26:33Z</time></trkpt><trkpt lat="45.30312159936804" lon="9.483013326540075"><ele>76.0</ele><time>2026-03-29T14:26:34Z</time></trkpt><trkpt lat="45.30320411118683" lon="9.482864788149156"><ele>76.0</ele><time>2026-03-29T14:26:35Z</time></trkpt><trkpt lat="45.30328245612184" lon="9.482720586118676"><ele>76.5</ele><time>2026-03-29T14:26:36Z</time></trkpt><trkpt lat="45.30336613662386" lon="9.482580149993977"><ele>77.0</ele><time>2026-03-29T14:26:37Z</time></trkpt><trkpt lat="45.30345233280271" lon="9.482436940873088"><ele>77.5</ele><time>2026-03-29T14:26:38Z</time></trkpt><trkpt lat="45.30354026449737" lon="9.482296586313735"><ele>78.0</ele><time>2026-03-29T14:26:39Z</time></trkpt><trkpt lat="45.303630484045186" lon="9.482151078137722"><ele>77.5</ele><time>2026-03-29T14:26:40Z</time></trkpt><trkpt lat="45.30372072085026" lon="9.482003283321466"><ele>77.0</ele><time>2026-03-29T14:26:41Z</time></trkpt><trkpt lat="45.303813980277276" lon="9.481851266355463"><ele>76.5</ele><time>2026-03-29T14:26:42Z</time></trkpt><trkpt lat="45.303909613965615" lon="9.48169495642159"><ele>76.0</ele><time>2026-03-29T14:26:43Z</time></trkpt><trkpt lat="45.304011434056214" lon="9.48152945851988"><ele>76.0</ele><time>2026-03-29T14:26:44Z</time></trkpt><trkpt lat="45.304111215197544" lon="9.481373980719226"><ele>76.0</ele><time>2026-03-29T14:26:45Z</time></trkpt><trkpt lat="45.30420900658122" lon="9.481214055615743"><ele>76.0</ele><time>2026-03-29T14:26:46Z</time></trkpt><trkpt lat="45.30430884697604" lon="9.481053674717474"><ele>76.0</ele><time>2026-03-29T14:26:47Z</time></trkpt><trkpt lat="45.30440914854907" lon="9.480892319509293"><ele>76.0</ele><time>2026-03-29T14:26:48Z</time></trkpt><trkpt lat="45.304509016386454" lon="9.480726878877968"><ele>76.0</ele><time>2026-03-29T14:26:49Z</time></trkpt><trkpt lat="45.30460380563591" lon="9.480566484142035"><ele>76.0</ele><time>2026-03-29T14:26:50Z</time></trkpt><trkpt lat="45.304695064953336" lon="9.480406162568446"><ele>76.0</ele><time>2026-03-29T14:26:51Z</time></trkpt><trkpt lat="45.304785766376206" lon="9.480251587958435"><ele>76.25</ele><time>2026-03-29T14:26:52Z</time></trkpt><trkpt lat="45.304880660180984" lon="9.480095620199885"><ele>76.5</ele><time>2026-03-29T14:26:53Z</time></trkpt><trkpt lat="45.304980233844006" lon="9.479944182029616"><ele>76.75</ele><time>2026-03-29T14:26:54Z</time></trkpt><trkpt lat="45.305080471666216" lon="9.479790629460899"><ele>77.0</ele><time>2026-03-29T14:26:55Z</time></trkpt><trkpt lat="45.305177799201594" lon="9.479636008661956"><ele>76.75</ele><time>2026-03-29T14:26:56Z</time></trkpt><trkpt lat="45.30526559144161" lon="9.479472479217296"><ele>76.5</ele><time>2026-03-29T14:26:57Z</time></trkpt><trkpt lat="45.30535185538071" lon="9.479303821951206"><ele>76.25</ele><time>2026-03-29T14:26:58Z</time></trkpt><trkpt lat="45.30543317697114" lon="9.479130017972091"><ele>76.0</ele><time>2026-03-29T14:26:59Z</time></trkpt><trkpt lat="45.30550828718406" lon="9.478955245615623"><ele>76.25</ele><time>2026-03-29T14:27:00Z</time></trkpt><trkpt lat="45.305584878267865" lon="9.478779880473882"><ele>76.5</ele><time>2026-03-29T14:27:01Z</time></trkpt><trkpt lat="45.305660428677996" lon="9.47859986485723"><ele>76.75</ele><time>2026-03-29T14:27:02Z</time></trkpt><trkpt lat="45.305736670926905" lon="9.478424150902818"><ele>77.0</ele><time>2026-03-29T14:27:03Z</time></trkpt><trkpt lat="45.30580971623244" lon="9.478248755812148"><ele>77.0</ele><time>2026-03-29T14:27:04Z</time></trkpt><trkpt lat="45.30588747617835" lon="9.478074631450584"><ele>77.0</ele><time>2026-03-29T14:27:05Z</time></trkpt><trkpt lat="45.305965515696755" lon="9.477901733174136"><ele>77.0</ele><time>2026-03-29T14:27:06Z</time></trkpt><trkpt lat="45.30604468374263" lon="9.477724855557335"><ele>77.0</ele><time>2026-03-29T14:27:07Z</time></trkpt><trkpt lat="45.30612084602371" lon="9.477556600101423"><ele>77.0</ele><time>2026-03-29T14:27:08Z</time></trkpt><trkpt lat="45.30619517471657" lon="9.477386302843247"><ele>77.0</ele><time>2026-03-29T14:27:09Z</time></trkpt><trkpt lat="45.30627137257417" lon="9.477218396673386"><ele>77.0</ele><time>2026-03-29T14:27:10Z</time></trkpt><trkpt lat="45.306350396354084" lon="9.477048093972872"><ele>77.0</ele><time>2026-03-29T14:27:11Z</time></trkpt><trkpt lat="45.30643092299048" lon="9.47687677841334"><ele>77.0</ele><time>2026-03-29T14:27:12Z</time></trkpt><trkpt lat="45.30651380144154" lon="9.476713387615337"><ele>77.0</ele><time>2026-03-29T14:27:13Z</time></trkpt><trkpt lat="45.3066018760883" lon="9.476551690587161"><ele>77.0</ele><time>2026-03-29T14:27:14Z</time></trkpt><trkpt lat="45.306692420548444" lon="9.476390612515154"><ele>77.0</ele><time>2026-03-29T14:27:15Z</time></trkpt><trkpt lat="45.306786895158474" lon="9.47623160851118"><ele>77.25</ele><time>2026-03-29T14:27:16Z</time></trkpt><trkpt lat="45.30688319877792" lon="9.476076862206739"><ele>77.5</ele><time>2026-03-29T14:27:17Z</time></trkpt><trkpt lat="45.3069772440819" lon="9.47593125279449"><ele>77.75</ele><time>2026-03-29T14:27:18Z</time></trkpt><trkpt lat="45.30707611199636" lon="9.475789469069145"><ele>78.0</ele><time>2026-03-29T14:27:19Z</time></trkpt><trkpt lat="45.30717530059837" lon="9.475652753080245"><ele>77.5</ele><time>2026-03-29T14:27:20Z</time></trkpt><trkpt lat="45.30728382937366" lon="9.47552337230466"><ele>77.0</ele><time>2026-03-29T14:27:21Z</time></trkpt><trkpt lat="45.30740060494465" lon="9.475406190054272"><ele>76.5</ele><time>2026-03-29T14:27:22Z</time></trkpt><trkpt lat="45.307523348442295" lon="9.475298313261996"><ele>76.0</ele><time>2026-03-29T14:27:23Z</time></trkpt><trkpt lat="45.3076484165283" lon="9.475188940024333"><ele>76.0</ele><time>2026-03-29T14:27:24Z</time></trkpt><trkpt lat="45.30774463098041" lon="9.47506313354645"><ele>76.0</ele><time>2026-03-29T14:27:25Z</time></trkpt><trkpt lat="45.30785600604766" lon="9.475033132737938"><ele>76.0</ele><time>2026-03-29T14:27:26Z</time></trkpt><trkpt lat="45.30795034059836" lon="9.475020210567937"><ele>76.0</ele><time>2026-03-29T14:27:27Z</time></trkpt><trkpt lat="45.30804116654127" lon="9.475063264650002"><ele>76.0</ele><time>2026-03-29T14:27:28Z</time></trkpt><trkpt lat="45.30811942445823" lon="9.475141636207313"><ele>76.0</ele><time>2026-03-29T14:27:29Z</time></trkpt><trkpt lat="45.30819307797935" lon="9.47523107163009"><ele>76.0</ele><time>2026-03-29T14:27:30Z</time></trkpt><trkpt lat="45.30823843649184" lon="9.475393317505178"><ele>76.0</ele><time>2026-03-29T14:27:31Z</time></trkpt><trkpt lat="45.30832497294676" lon="9.475478799856218"><ele>76.0</ele><time>2026-03-29T14:27:32Z</time></trkpt><trkpt lat="45.308445654877694" lon="9.475516283183936"><ele>76.0</ele><time>2026-03-29T14:27:33Z</time></trkpt><trkpt lat="45.30858009940292" lon="9.47551128996788"><ele>76.0</ele><time>2026-03-29T14:27:34Z</time></trkpt><trkpt lat="45.30869142292748" lon="9.475485060104587"><ele>76.0</ele><time>2026-03-29T14:27:35Z</time></trkpt><trkpt lat="45.30878406632697" lon="9.475437637371094"><ele>76.0</ele><time>2026-03-29T14:27:36Z</time></trkpt><trkpt lat="45.308859429203146" lon="9.475350845816351"><ele>76.0</ele><time>2026-03-29T14:27:37Z</time></trkpt><trkpt lat="45.3089093250887" lon="9.47523704885577"><ele>76.0</ele><time>2026-03-29T14:27:38Z</time></trkpt><trkpt lat="45.30892991278558" lon="9.475095487133498"><ele>76.0</ele><time>2026-03-29T14:27:39Z</time></trkpt><trkpt lat="45.308929082568575" lon="9.4749285766926"><ele>76.0</ele><time>2026-03-29T14:27:40Z</time></trkpt><trkpt lat="45.30891444878572" lon="9.474737068795354"><ele>76.0</ele><time>2026-03-29T14:27:41Z</time></trkpt><trkpt lat="45.30890411772438" lon="9.47452772483773"><ele>76.0</ele><time>2026-03-29T14:27:42Z</time></trkpt><trkpt lat="45.30890246913687" lon="9.474316054118166"><ele>76.0</ele><time>2026-03-29T14:27:43Z</time></trkpt><trkpt lat="45.30889259071288" lon="9.474108174529626"><ele>76.0</ele><time>2026-03-29T14:27:44Z</time></trkpt><trkpt lat="45.30887631000499" lon="9.473897224868004"><ele>76.0</ele><time>2026-03-29T14:27:45Z</time></trkpt><trkpt lat="45.308845659528046" lon="9.473698431194595"><ele>76.0</ele><time>2026-03-29T14:27:46Z</time></trkpt><trkpt lat="45.30879266425376" lon="9.47349298210141"><ele>76.0</ele><time>2026-03-29T14:27:47Z</time></trkpt><trkpt lat="45.30873559833634" lon="9.473308114999954"><ele>76.0</ele><time>2026-03-29T14:27:48Z</time></trkpt><trkpt lat="45.308680277441745" lon="9.473119064932567"><ele>76.0</ele><time>2026-03-29T14:27:49.001Z</time></trkpt><trkpt lat="45.30861655217311" lon="9.472925306048792"><ele>76.0</ele><time>2026-03-29T14:27:50.001Z</time></trkpt><trkpt lat="45.30855857744094" lon="9.472723656528565"><ele>76.0</ele><time>2026-03-29T14:27:51.001Z</time></trkpt><trkpt lat="45.308528465619005" lon="9.472510380803865"><ele>76.0</ele><time>2026-03-29T14:27:52.001Z</time></trkpt><trkpt lat="45.3084932574452" lon="9.472303568036624"><ele>76.0</ele><time>2026-03-29T14:27:53.001Z</time></trkpt><trkpt lat="45.308457989257825" lon="9.47213058262817"><ele>76.0</ele><time>2026-03-29T14:27:54.001Z</time></trkpt><trkpt lat="45.30841495453605" lon="9.47197961795847"><ele>76.2</ele><time>2026-03-29T14:27:55.001Z</time></trkpt><trkpt lat="45.308337128025315" lon="9.471873542044786"><ele>76.39999999999999</ele><time>2026-03-29T14:27:56.001Z</time></trkpt><trkpt lat="45.30824718568004" lon="9.47178575155144"><ele>76.6</ele><time>2026-03-29T14:27:57.001Z</time></trkpt><trkpt lat="45.30817018685434" lon="9.471673898733652"><ele>76.8</ele><time>2026-03-29T14:27:58.001Z</time></trkpt><trkpt lat="45.308112942908096" lon="9.47152082927931"><ele>77.0</ele><time>2026-03-29T14:27:59.001Z</time></trkpt><trkpt lat="45.30808466009228" lon="9.4713365480572"><ele>77.25</ele><time>2026-03-29T14:28:00.001Z</time></trkpt><trkpt lat="45.30808643898651" lon="9.471138888298364"><ele>77.5</ele><time>2026-03-29T14:28:01Z</time></trkpt><trkpt lat="45.30809583500368" lon="9.470927990782087"><ele>77.75</ele><time>2026-03-29T14:28:02Z</time></trkpt><trkpt lat="45.30809571830559" lon="9.470715471739988"><ele>78.0</ele><time>2026-03-29T14:28:03Z</time></trkpt><trkpt lat="45.30809134727654" lon="9.470489822563112"><ele>77.66666666666667</ele><time>2026-03-29T14:28:04Z</time></trkpt><trkpt lat="45.30808273646468" lon="9.470260595946774"><ele>77.33333333333334</ele><time>2026-03-29T14:28:05Z</time></trkpt><trkpt lat="45.30807736101746" lon="9.470014871944079"><ele>77.0</ele><time>2026-03-29T14:28:06Z</time></trkpt><trkpt lat="45.30806613095324" lon="9.469760134038767"><ele>77.0</ele><time>2026-03-29T14:28:07Z</time></trkpt><trkpt lat="45.308054225273324" lon="9.469511401506239"><ele>77.0</ele><time>2026-03-29T14:28:08Z</time></trkpt><trkpt lat="45.308038496583016" lon="9.46925939186312"><ele>77.0</ele><time>2026-03-29T14:28:09Z</time></trkpt><trkpt lat="45.30802792848365" lon="9.468998473121163"><ele>77.33333333333334</ele><time>2026-03-29T14:28:10Z</time></trkpt><trkpt lat="45.30801759009966" lon="9.46873420254513"><ele>77.66666666666667</ele><time>2026-03-29T14:28:11Z</time></trkpt><trkpt lat="45.307999676658824" lon="9.468460965501658"><ele>78.0</ele><time>2026-03-29T14:28:12Z</time></trkpt><trkpt lat="45.30796493542743" lon="9.468188494169441"><ele>77.66666666666667</ele><time>2026-03-29T14:28:13Z</time></trkpt><trkpt lat="45.30792210223275" lon="9.467926924407458"><ele>77.33333333333334</ele><time>2026-03-29T14:28:14Z</time></trkpt><trkpt lat="45.30787856927865" lon="9.467662700441434"><ele>77.0</ele><time>2026-03-29T14:28:15Z</time></trkpt><trkpt lat="45.30783264450346" lon="9.467405910875273"><ele>77.0</ele><time>2026-03-29T14:28:16Z</time></trkpt><trkpt lat="45.30778973250897" lon="9.46714617814586"><ele>77.0</ele><time>2026-03-29T14:28:17Z</time></trkpt><trkpt lat="45.30775000435424" lon="9.46688929833224"><ele>77.0</ele><time>2026-03-29T14:28:18Z</time></trkpt><trkpt lat="45.30770914951557" lon="9.466632507071859"><ele>77.0</ele><time>2026-03-29T14:28:19Z</time></trkpt><trkpt lat="45.30766584436708" lon="9.466381288789183"><ele>77.0</ele><time>2026-03-29T14:28:20Z</time></trkpt><trkpt lat="45.3076173985486" lon="9.466125274417273"><ele>77.0</ele><time>2026-03-29T14:28:21Z</time></trkpt><trkpt lat="45.307562143520826" lon="9.465867207924214"><ele>77.0</ele><time>2026-03-29T14:28:22Z</time></trkpt><trkpt lat="45.30750761382521" lon="9.465611637416364"><ele>77.0</ele><time>2026-03-29T14:28:23Z</time></trkpt><trkpt lat="45.30745694443748" lon="9.465360815133753"><ele>77.0</ele><time>2026-03-29T14:28:24Z</time></trkpt><trkpt lat="45.3074168703578" lon="9.465105614366106"><ele>77.0</ele><time>2026-03-29T14:28:25Z</time></trkpt><trkpt lat="45.30737804801076" lon="9.464848826706818"><ele>77.0</ele><time>2026-03-29T14:28:26Z</time></trkpt><trkpt lat="45.30733907218584" lon="9.46459475150613"><ele>77.0</ele><time>2026-03-29T14:28:27Z</time></trkpt><trkpt lat="45.307300223444486" lon="9.464337270746167"><ele>76.66666666666667</ele><time>2026-03-29T14:28:28Z</time></trkpt><trkpt lat="45.307262278664254" lon="9.464076881567385"><ele>76.33333333333333</ele><time>2026-03-29T14:28:29Z</time></trkpt><trkpt lat="45.30722524276213" lon="9.463820009727241"><ele>76.0</ele><time>2026-03-29T14:28:30Z</time></trkpt><trkpt lat="45.307184999980514" lon="9.463562561364538"><ele>76.0</ele><time>2026-03-29T14:28:31Z</time></trkpt><trkpt lat="45.30714378683105" lon="9.463304688895972"><ele>76.0</ele><time>2026-03-29T14:28:32Z</time></trkpt><trkpt lat="45.30710573242355" lon="9.463046131416487"><ele>76.0</ele><time>2026-03-29T14:28:33Z</time></trkpt><trkpt lat="45.307071864143424" lon="9.462789599762836"><ele>76.0</ele><time>2026-03-29T14:28:34Z</time></trkpt><trkpt lat="45.30703513092226" lon="9.46253540942239"><ele>76.0</ele><time>2026-03-29T14:28:35Z</time></trkpt><trkpt lat="45.30699849575579" lon="9.462280808938148"><ele>76.0</ele><time>2026-03-29T14:28:36Z</time></trkpt><trkpt lat="45.30696149189393" lon="9.462021911566191"><ele>76.0</ele><time>2026-03-29T14:28:37Z</time></trkpt><trkpt lat="45.30692558474795" lon="9.461761946683982"><ele>76.0</ele><time>2026-03-29T14:28:38Z</time></trkpt><trkpt lat="45.30688656854707" lon="9.461506839177343"><ele>76.0</ele><time>2026-03-29T14:28:39Z</time></trkpt><trkpt lat="45.30684338069712" lon="9.46124813675526"><ele>76.66666666666666</ele><time>2026-03-29T14:28:40Z</time></trkpt><trkpt lat="45.30681954318703" lon="9.460980317587566"><ele>77.33333333333333</ele><time>2026-03-29T14:28:41Z</time></trkpt><trkpt lat="45.30676757496757" lon="9.460723170235026"><ele>78.0</ele><time>2026-03-29T14:28:42Z</time></trkpt><trkpt lat="45.30673177080783" lon="9.460463905837683"><ele>78.0</ele><time>2026-03-29T14:28:43Z</time></trkpt><trkpt lat="45.30669419418869" lon="9.460214814705251"><ele>78.0</ele><time>2026-03-29T14:28:44Z</time></trkpt><trkpt lat="45.30665712776302" lon="9.459967659600288"><ele>78.0</ele><time>2026-03-29T14:28:45Z</time></trkpt><trkpt lat="45.30662027859216" lon="9.459722696013682"><ele>78.0</ele><time>2026-03-29T14:28:46Z</time></trkpt><trkpt lat="45.3065832346135" lon="9.459477088246118"><ele>78.0</ele><time>2026-03-29T14:28:47Z</time></trkpt><trkpt lat="45.30654897350738" lon="9.459233806751964"><ele>78.0</ele><time>2026-03-29T14:28:48Z</time></trkpt><trkpt lat="45.30651739824475" lon="9.458987635042535"><ele>77.0</ele><time>2026-03-29T14:28:49Z</time></trkpt><trkpt lat="45.306484036366456" lon="9.458744892166782"><ele>76.0</ele><time>2026-03-29T14:28:50Z</time></trkpt><trkpt lat="45.306451224904684" lon="9.458497978333503"><ele>75.0</ele><time>2026-03-29T14:28:51Z</time></trkpt><trkpt lat="45.306412514921504" lon="9.458250831697153"><ele>75.33333333333333</ele><time>2026-03-29T14:28:52Z</time></trkpt><trkpt lat="45.306370572705916" lon="9.457997092080763"><ele>75.66666666666666</ele><time>2026-03-29T14:28:53Z</time></trkpt><trkpt lat="45.30632884491626" lon="9.457739166601252"><ele>76.0</ele><time>2026-03-29T14:28:54Z</time></trkpt><trkpt lat="45.30629181523877" lon="9.457480363158773"><ele>76.0</ele><time>2026-03-29T14:28:55Z</time></trkpt><trkpt lat="45.3062502476562" lon="9.45721893179189"><ele>76.0</ele><time>2026-03-29T14:28:56Z</time></trkpt><trkpt lat="45.30620796092104" lon="9.456962723060641"><ele>76.0</ele><time>2026-03-29T14:28:57Z</time></trkpt><trkpt lat="45.3061660683982" lon="9.456712902664071"><ele>76.33333333333333</ele><time>2026-03-29T14:28:58Z</time></trkpt><trkpt lat="45.30612198409554" lon="9.45648701430399"><ele>76.66666666666667</ele><time>2026-03-29T14:28:59Z</time></trkpt><trkpt lat="45.30607876679537" lon="9.456278878859038"><ele>77.0</ele><time>2026-03-29T14:29:00Z</time></trkpt><trkpt lat="45.3060357511943" lon="9.456084285267409"><ele>77.0</ele><time>2026-03-29T14:29:01Z</time></trkpt><trkpt lat="45.30599947448919" lon="9.455899353148444"><ele>77.0</ele><time>2026-03-29T14:29:02Z</time></trkpt><trkpt lat="45.3059679432063" lon="9.455725131618411"><ele>77.0</ele><time>2026-03-29T14:29:03Z</time></trkpt><trkpt lat="45.30593373310581" lon="9.455558217242716"><ele>77.0</ele><time>2026-03-29T14:29:04Z</time></trkpt><trkpt lat="45.30590028397906" lon="9.45541487154525"><ele>77.0</ele><time>2026-03-29T14:29:05Z</time></trkpt><trkpt lat="45.305876214898056" lon="9.455300180269573"><ele>77.0</ele><time>2026-03-29T14:29:06Z</time></trkpt><trkpt lat="45.30585623464932" lon="9.455211558461514"><ele>77.0</ele><time>2026-03-29T14:29:07Z</time></trkpt><trkpt lat="45.305881198643746" lon="9.455067380940699"><ele>77.0</ele><time>2026-03-29T14:29:09Z</time></trkpt><trkpt lat="45.30599498346677" lon="9.455000521619368"><ele>77.0</ele><time>2026-03-29T14:29:11Z</time></trkpt><trkpt lat="45.306082142479134" lon="9.454959680371113"><ele>77.0</ele><time>2026-03-29T14:29:12Z</time></trkpt><trkpt lat="45.30619499144266" lon="9.454929660463225"><ele>77.0</ele><time>2026-03-29T14:29:13Z</time></trkpt><trkpt lat="45.306294871124074" lon="9.45490512645839"><ele>77.0</ele><time>2026-03-29T14:29:14Z</time></trkpt><trkpt lat="45.30639350498754" lon="9.454878765789017"><ele>77.0</ele><time>2026-03-29T14:29:15Z</time></trkpt><trkpt lat="45.30650244338961" lon="9.454844328819085"><ele>77.0</ele><time>2026-03-29T14:29:16Z</time></trkpt><trkpt lat="45.30661183929698" lon="9.454808586393785"><ele>77.25</ele><time>2026-03-29T14:29:17Z</time></trkpt><trkpt lat="45.306725003017185" lon="9.454770787359916"><ele>77.5</ele><time>2026-03-29T14:29:18Z</time></trkpt><trkpt lat="45.30684424830919" lon="9.454730771135921"><ele>77.75</ele><time>2026-03-29T14:29:19Z</time></trkpt><trkpt lat="45.30696140153803" lon="9.454689221755958"><ele>78.0</ele><time>2026-03-29T14:29:20Z</time></trkpt><trkpt lat="45.30708145473054" lon="9.45465159430801"><ele>78.25</ele><time>2026-03-29T14:29:21Z</time></trkpt><trkpt lat="45.30720428084831" lon="9.454616379625968"><ele>78.5</ele><time>2026-03-29T14:29:22Z</time></trkpt><trkpt lat="45.30732525109689" lon="9.454580052598166"><ele>78.75</ele><time>2026-03-29T14:29:23Z</time></trkpt><trkpt lat="45.30744423662371" lon="9.454542801325085"><ele>79.0</ele><time>2026-03-29T14:29:24Z</time></trkpt><trkpt lat="45.307555352806204" lon="9.454505930345228"><ele>79.75</ele><time>2026-03-29T14:29:25Z</time></trkpt><trkpt lat="45.307662951495296" lon="9.454471673909916"><ele>80.5</ele><time>2026-03-29T14:29:26Z</time></trkpt><trkpt lat="45.3077726491734" lon="9.454439215380015"><ele>81.25</ele><time>2026-03-29T14:29:27Z</time></trkpt><trkpt lat="45.307883600742166" lon="9.454405421850648"><ele>82.0</ele><time>2026-03-29T14:29:28Z</time></trkpt><trkpt lat="45.30799968136406" lon="9.454364717394073"><ele>80.5</ele><time>2026-03-29T14:29:29Z</time></trkpt><trkpt lat="45.308115115735966" lon="9.454324545446179"><ele>79.0</ele><time>2026-03-29T14:29:30Z</time></trkpt><trkpt lat="45.308234711588426" lon="9.454284447241763"><ele>77.5</ele><time>2026-03-29T14:29:31Z</time></trkpt><trkpt lat="45.30836135482012" lon="9.454250518028998"><ele>76.0</ele><time>2026-03-29T14:29:32Z</time></trkpt><trkpt lat="45.308483765539584" lon="9.45421818027811"><ele>76.0</ele><time>2026-03-29T14:29:33Z</time></trkpt><trkpt lat="45.30859000239392" lon="9.454187858318196"><ele>76.0</ele><time>2026-03-29T14:29:34Z</time></trkpt><trkpt lat="45.3086735671481" lon="9.454158770230718"><ele>76.0</ele><time>2026-03-29T14:29:35Z</time></trkpt><trkpt lat="45.30874227106889" lon="9.454123547457868"><ele>76.0</ele><time>2026-03-29T14:29:36Z</time></trkpt><trkpt lat="45.30880108338935" lon="9.454080164868813"><ele>76.0</ele><time>2026-03-29T14:29:37Z</time></trkpt><trkpt lat="45.30883673178818" lon="9.453975423564446"><ele>76.0</ele><time>2026-03-29T14:29:38Z</time></trkpt><trkpt lat="45.30881522488261" lon="9.453834993720363"><ele>76.39999999999999</ele><time>2026-03-29T14:29:39Z</time></trkpt><trkpt lat="45.30881581355965" lon="9.45368187829031"><ele>76.8</ele><time>2026-03-29T14:29:40Z</time></trkpt><trkpt lat="45.308798847160915" lon="9.453503161068944"><ele>77.19999999999999</ele><time>2026-03-29T14:29:41Z</time></trkpt><trkpt lat="45.30880432575486" lon="9.453353779430829"><ele>77.6</ele><time>2026-03-29T14:29:42Z</time></trkpt><trkpt lat="45.30879994363695" lon="9.453234474634906"><ele>78.0</ele><time>2026-03-29T14:29:43Z</time></trkpt><trkpt lat="45.30881374779696" lon="9.453072178961232"><ele>78.0</ele><time>2026-03-29T14:29:45Z</time></trkpt><trkpt lat="45.308898501024146" lon="9.4529756773934"><ele>78.0</ele><time>2026-03-29T14:29:47Z</time></trkpt><trkpt lat="45.30898834770463" lon="9.452998040257594"><ele>78.0</ele><time>2026-03-29T14:29:48Z</time></trkpt><trkpt lat="45.309097300826025" lon="9.452971756975279"><ele>78.0</ele><time>2026-03-29T14:29:49Z</time></trkpt><trkpt lat="45.30923052311277" lon="9.45292035888714"><ele>78.0</ele><time>2026-03-29T14:29:50Z</time></trkpt><trkpt lat="45.30936747226594" lon="9.45288667495371"><ele>78.0</ele><time>2026-03-29T14:29:51Z</time></trkpt><trkpt lat="45.30947208774419" lon="9.452847519214458"><ele>78.0</ele><time>2026-03-29T14:29:52Z</time></trkpt><trkpt lat="45.30956346605797" lon="9.452828130820704"><ele>78.0</ele><time>2026-03-29T14:29:53Z</time></trkpt><trkpt lat="45.309637664790806" lon="9.452801679238352"><ele>78.0</ele><time>2026-03-29T14:29:54Z</time></trkpt><trkpt lat="45.309704526585705" lon="9.45277648948191"><ele>78.0</ele><time>2026-03-29T14:29:55.001Z</time></trkpt><trkpt lat="45.30979729521731" lon="9.452777653616163"><ele>78.0</ele><time>2026-03-29T14:29:57.001Z</time></trkpt><trkpt lat="45.309840426513674" lon="9.452919163691604"><ele>78.0</ele><time>2026-03-29T14:30:00Z</time></trkpt><trkpt lat="45.30985212441769" lon="9.453034139438145"><ele>78.0</ele><time>2026-03-29T14:30:01Z</time></trkpt><trkpt lat="45.309872072338116" lon="9.453161702064753"><ele>78.0</ele><time>2026-03-29T14:30:02Z</time></trkpt><trkpt lat="45.30992805852316" lon="9.45328627728759"><ele>78.0</ele><time>2026-03-29T14:30:03Z</time></trkpt><trkpt lat="45.3099719187395" lon="9.453437664880795"><ele>78.0</ele><time>2026-03-29T14:30:04Z</time></trkpt><trkpt lat="45.310005054685625" lon="9.453604036904547"><ele>78.0</ele><time>2026-03-29T14:30:05Z</time></trkpt><trkpt lat="45.3100311678426" lon="9.453761491366887"><ele>78.0</ele><time>2026-03-29T14:30:06Z</time></trkpt><trkpt lat="45.3100672434381" lon="9.453911233046265"><ele>78.0</ele><time>2026-03-29T14:30:07Z</time></trkpt><trkpt lat="45.31010487839555" lon="9.454047429864268"><ele>78.0</ele><time>2026-03-29T14:30:08Z</time></trkpt><trkpt lat="45.31014287994146" lon="9.454200009947607"><ele>78.0</ele><time>2026-03-29T14:30:09Z</time></trkpt><trkpt lat="45.31018590971462" lon="9.454370255521104"><ele>78.0</ele><time>2026-03-29T14:30:10Z</time></trkpt><trkpt lat="45.31022038758082" lon="9.454559290528918"><ele>78.0</ele><time>2026-03-29T14:30:11Z</time></trkpt><trkpt lat="45.310278827904746" lon="9.454746122355507"><ele>78.0</ele><time>2026-03-29T14:30:12Z</time></trkpt><trkpt lat="45.31031756371095" lon="9.454924196935355"><ele>78.0</ele><time>2026-03-29T14:30:13Z</time></trkpt><trkpt lat="45.310336747921" lon="9.455085459865602"><ele>78.0</ele><time>2026-03-29T14:30:14Z</time></trkpt><trkpt lat="45.310364647228425" lon="9.455227761766919"><ele>78.0</ele><time>2026-03-29T14:30:15Z</time></trkpt><trkpt lat="45.31039915069905" lon="9.455353780686394"><ele>78.0</ele><time>2026-03-29T14:30:16Z</time></trkpt><trkpt lat="45.310407277198394" lon="9.455478634442935"><ele>78.0</ele><time>2026-03-29T14:30:17Z</time></trkpt><trkpt lat="45.31043975166185" lon="9.455587974050232"><ele>78.0</ele><time>2026-03-29T14:30:18Z</time></trkpt><trkpt lat="45.31045403836897" lon="9.455696800147939"><ele>78.0</ele><time>2026-03-29T14:30:19Z</time></trkpt><trkpt lat="45.310455279797296" lon="9.455802362562343"><ele>78.0</ele><time>2026-03-29T14:30:20Z</time></trkpt><trkpt lat="45.3104886154793" lon="9.455959027490412"><ele>78.0</ele><time>2026-03-29T14:30:22Z</time></trkpt><trkpt lat="45.310562534099766" lon="9.456020967143083"><ele>78.0</ele><time>2026-03-29T14:30:23Z</time></trkpt><trkpt lat="45.31065111401986" lon="9.455975661077423"><ele>78.0</ele><time>2026-03-29T14:30:24Z</time></trkpt><trkpt lat="45.31073248225563" lon="9.455929598546135"><ele>78.0</ele><time>2026-03-29T14:30:25Z</time></trkpt><trkpt lat="45.3108350464169" lon="9.455890016922158"><ele>78.25</ele><time>2026-03-29T14:30:26Z</time></trkpt><trkpt lat="45.31094953153141" lon="9.455860707810025"><ele>78.5</ele><time>2026-03-29T14:30:27Z</time></trkpt><trkpt lat="45.31107570091771" lon="9.455820461051777"><ele>78.75</ele><time>2026-03-29T14:30:28Z</time></trkpt><trkpt lat="45.31120753764246" lon="9.455783465380511"><ele>79.0</ele><time>2026-03-29T14:30:29Z</time></trkpt><trkpt lat="45.311345566954444" lon="9.455767115693902"><ele>79.0</ele><time>2026-03-29T14:30:30Z</time></trkpt><trkpt lat="45.31146935677052" lon="9.455710338675887"><ele>79.0</ele><time>2026-03-29T14:30:31Z</time></trkpt><trkpt lat="45.31159620820067" lon="9.455673910856664"><ele>79.0</ele><time>2026-03-29T14:30:32Z</time></trkpt><trkpt lat="45.311719653976255" lon="9.455639107667352"><ele>79.0</ele><time>2026-03-29T14:30:33Z</time></trkpt><trkpt lat="45.31184377950487" lon="9.455605934908128"><ele>79.0</ele><time>2026-03-29T14:30:34Z</time></trkpt><trkpt lat="45.31196253907775" lon="9.455570528835107"><ele>79.0</ele><time>2026-03-29T14:30:35Z</time></trkpt><trkpt lat="45.312081071089494" lon="9.45554740509726"><ele>79.0</ele><time>2026-03-29T14:30:36Z</time></trkpt><trkpt lat="45.31219881548774" lon="9.4555108209534"><ele>79.0</ele><time>2026-03-29T14:30:37Z</time></trkpt><trkpt lat="45.31231972652455" lon="9.455470776784688"><ele>78.8</ele><time>2026-03-29T14:30:38Z</time></trkpt><trkpt lat="45.31243610522731" lon="9.455433348690345"><ele>78.60000000000001</ele><time>2026-03-29T14:30:39Z</time></trkpt><trkpt lat="45.31254882436848" lon="9.455393793342038"><ele>78.4</ele><time>2026-03-29T14:30:40Z</time></trkpt><trkpt lat="45.31264643801931" lon="9.45536513341044"><ele>78.2</ele><time>2026-03-29T14:30:41Z</time></trkpt><trkpt lat="45.31273462819404" lon="9.455362403949227"><ele>78.0</ele><time>2026-03-29T14:30:42Z</time></trkpt><trkpt lat="45.31280384616497" lon="9.455342114294243"><ele>78.0</ele><time>2026-03-29T14:30:43Z</time></trkpt><trkpt lat="45.31286101322685" lon="9.45530185967412"><ele>78.0</ele><time>2026-03-29T14:30:44Z</time></trkpt><trkpt lat="45.31293590041584" lon="9.455327496171252"><ele>78.0</ele><time>2026-03-29T14:30:46Z</time></trkpt><trkpt lat="45.312961173159216" lon="9.455528830581027"><ele>78.0</ele><time>2026-03-29T14:30:48Z</time></trkpt><trkpt lat="45.31297906380164" lon="9.45563053292171"><ele>78.0</ele><time>2026-03-29T14:30:49Z</time></trkpt><trkpt lat="45.31301268766545" lon="9.455735181430455"><ele>78.0</ele><time>2026-03-29T14:30:50Z</time></trkpt><trkpt lat="45.3130231921078" lon="9.455851095505661"><ele>78.0</ele><time>2026-03-29T14:30:51Z</time></trkpt><trkpt lat="45.31304364231112" lon="9.4559724732249"><ele>78.0</ele><time>2026-03-29T14:30:52Z</time></trkpt><trkpt lat="45.31306612349902" lon="9.456100467505104"><ele>78.0</ele><time>2026-03-29T14:30:53Z</time></trkpt><trkpt lat="45.31309034069194" lon="9.456219700312625"><ele>78.0</ele><time>2026-03-29T14:30:54Z</time></trkpt><trkpt lat="45.313112134118704" lon="9.456338324011657"><ele>78.0</ele><time>2026-03-29T14:30:55Z</time></trkpt><trkpt lat="45.31312857336555" lon="9.456472913473297"><ele>77.8</ele><time>2026-03-29T14:30:56Z</time></trkpt><trkpt lat="45.3131591063811" lon="9.45659568800434"><ele>77.6</ele><time>2026-03-29T14:30:57Z</time></trkpt><trkpt lat="45.31316524085421" lon="9.456728403761407"><ele>77.4</ele><time>2026-03-29T14:30:58Z</time></trkpt><trkpt lat="45.31319496449938" lon="9.456856800612316"><ele>77.2</ele><time>2026-03-29T14:30:59Z</time></trkpt><trkpt lat="45.31321051380328" lon="9.456993846433548"><ele>77.0</ele><time>2026-03-29T14:31:00Z</time></trkpt><trkpt lat="45.313212424756074" lon="9.457139430860256"><ele>77.0</ele><time>2026-03-29T14:31:01Z</time></trkpt><trkpt lat="45.313240519784124" lon="9.457278411467545"><ele>77.0</ele><time>2026-03-29T14:31:02Z</time></trkpt><trkpt lat="45.313254125274526" lon="9.457413250112687"><ele>77.0</ele><time>2026-03-29T14:31:03Z</time></trkpt><trkpt lat="45.313261710636596" lon="9.45754772187956"><ele>77.0</ele><time>2026-03-29T14:31:04Z</time></trkpt><trkpt lat="45.31328110048774" lon="9.457685148301833"><ele>77.0</ele><time>2026-03-29T14:31:05Z</time></trkpt><trkpt lat="45.31329689915548" lon="9.457831697387487"><ele>77.0</ele><time>2026-03-29T14:31:06Z</time></trkpt><trkpt lat="45.313314404357236" lon="9.457972962594646"><ele>77.0</ele><time>2026-03-29T14:31:07Z</time></trkpt><trkpt lat="45.31332650978403" lon="9.458114582531229"><ele>77.0</ele><time>2026-03-29T14:31:08Z</time></trkpt><trkpt lat="45.31334232006936" lon="9.458234046853494"><ele>77.0</ele><time>2026-03-29T14:31:09Z</time></trkpt><trkpt lat="45.313353090366185" lon="9.458340291943605"><ele>77.0</ele><time>2026-03-29T14:31:10Z</time></trkpt><trkpt lat="45.31334452467399" lon="9.458440033135696"><ele>77.0</ele><time>2026-03-29T14:31:11Z</time></trkpt><trkpt lat="45.313362280636525" lon="9.458605969988282"><ele>77.0</ele><time>2026-03-29T14:31:13Z</time></trkpt><trkpt lat="45.31334325153567" lon="9.458750052370789"><ele>77.0</ele><time>2026-03-29T14:31:15Z</time></trkpt><trkpt lat="45.313316182635525" lon="9.458869112994691"><ele>77.0</ele><time>2026-03-29T14:31:17Z</time></trkpt><trkpt lat="45.31320698712316" lon="9.458879666481275"><ele>77.0</ele><time>2026-03-29T14:31:19Z</time></trkpt><trkpt lat="45.31313509539809" lon="9.458889830401073"><ele>77.0</ele><time>2026-03-29T14:31:20Z</time></trkpt><trkpt lat="45.313041288850066" lon="9.458920995768393"><ele>77.0</ele><time>2026-03-29T14:31:21Z</time></trkpt><trkpt lat="45.31294827559568" lon="9.458944103908829"><ele>77.0</ele><time>2026-03-29T14:31:22Z</time></trkpt><trkpt lat="45.31285684546092" lon="9.458955069914058"><ele>77.0</ele><time>2026-03-29T14:31:23Z</time></trkpt><trkpt lat="45.312763055802336" lon="9.458956287231494"><ele>77.0</ele><time>2026-03-29T14:31:24Z</time></trkpt><trkpt lat="45.31267440493036" lon="9.458977820430633"><ele>77.0</ele><time>2026-03-29T14:31:25Z</time></trkpt><trkpt lat="45.3125892146493" lon="9.459004591713873"><ele>77.0</ele><time>2026-03-29T14:31:26Z</time></trkpt><trkpt lat="45.31250174791725" lon="9.45902781278177"><ele>77.0</ele><time>2026-03-29T14:31:27Z</time></trkpt><trkpt lat="45.31241000555396" lon="9.459051746829825"><ele>77.0</ele><time>2026-03-29T14:31:28Z</time></trkpt><trkpt lat="45.312319926303324" lon="9.459078843862665"><ele>77.0</ele><time>2026-03-29T14:31:29Z</time></trkpt><trkpt lat="45.31223259465095" lon="9.459116222991543"><ele>77.0</ele><time>2026-03-29T14:31:30Z</time></trkpt><trkpt lat="45.312145234682916" lon="9.459132273248978"><ele>77.0</ele><time>2026-03-29T14:31:31Z</time></trkpt><trkpt lat="45.31206311424465" lon="9.459142529728705"><ele>77.0</ele><time>2026-03-29T14:31:32Z</time></trkpt><trkpt lat="45.31198986018643" lon="9.459169107721385"><ele>77.0</ele><time>2026-03-29T14:31:33Z</time></trkpt><trkpt lat="45.31191408452941" lon="9.45918968263294"><ele>77.0</ele><time>2026-03-29T14:31:34Z</time></trkpt><trkpt lat="45.31184429783943" lon="9.459216356102491"><ele>77.0</ele><time>2026-03-29T14:31:35Z</time></trkpt><trkpt lat="45.31173119979188" lon="9.459248914159756"><ele>77.0</ele><time>2026-03-29T14:31:37Z</time></trkpt><trkpt lat="45.311628192627026" lon="9.459270634413233"><ele>77.0</ele><time>2026-03-29T14:31:39Z</time></trkpt><trkpt lat="45.311547590407024" lon="9.45931950700221"><ele>77.0</ele><time>2026-03-29T14:31:41Z</time></trkpt><trkpt lat="45.31148741451624" lon="9.459388752762578"><ele>77.0</ele><time>2026-03-29T14:31:43Z</time></trkpt><trkpt lat="45.31146982902387" lon="9.459519420222998"><ele>77.0</ele><time>2026-03-29T14:31:45Z</time></trkpt><trkpt lat="45.311484913159596" lon="9.459623338210706"><ele>77.0</ele><time>2026-03-29T14:31:47Z</time></trkpt><trkpt lat="45.31154097394537" lon="9.459701255890275"><ele>77.0</ele><time>2026-03-29T14:31:50Z</time></trkpt><trkpt lat="45.31158657863806" lon="9.459812613986147"><ele>77.0</ele><time>2026-03-29T14:31:53Z</time></trkpt><trkpt lat="45.311620171726155" lon="9.459899392578787"><ele>77.0</ele><time>2026-03-29T14:31:56Z</time></trkpt><trkpt lat="45.3116511700814" lon="9.459977570444428"><ele>77.0</ele><time>2026-03-29T14:31:59Z</time></trkpt><trkpt lat="45.31168460053845" lon="9.460060784086345"><ele>77.0</ele><time>2026-03-29T14:32:02Z</time></trkpt><trkpt lat="45.31172358446309" lon="9.460161164160262"><ele>77.0</ele><time>2026-03-29T14:32:05Z</time></trkpt><trkpt lat="45.311758424983246" lon="9.460254995497424"><ele>77.0</ele><time>2026-03-29T14:32:08Z</time></trkpt><trkpt lat="45.31142239304748" lon="9.460488091246264"><ele>77.0</ele><time>2026-03-29T14:37:10Z</time></trkpt><trkpt lat="45.31149333352799" lon="9.460500746140326"><ele>77.0</ele><time>2026-03-29T14:39:58.999Z</time></trkpt><trkpt lat="45.311500337468956" lon="9.460404612640165"><ele>77.0</ele><time>2026-03-29T14:40:23.999Z</time></trkpt><trkpt lat="45.31154612070076" lon="9.460475952512883"><ele>77.0</ele><time>2026-03-29T14:43:36.999Z</time></trkpt><trkpt lat="45.311575173126116" lon="9.460556704572188"><ele>77.0</ele><time>2026-03-29T14:43:44.999Z</time></trkpt><trkpt lat="45.31162339053316" lon="9.460638451428972"><ele>77.0</ele><time>2026-03-29T14:43:56.999Z</time></trkpt><trkpt lat="45.31165323112009" lon="9.460728569499855"><ele>77.0</ele><time>2026-03-29T14:44:31.999Z</time></trkpt><trkpt lat="45.3115937061385" lon="9.460696670295635"><ele>77.0</ele><time>2026-03-29T14:44:44Z</time></trkpt><trkpt lat="45.31156141118909" lon="9.460604546438967"><ele>77.0</ele><time>2026-03-29T14:47:14Z</time></trkpt><trkpt lat="45.31149467815797" lon="9.460639686099368"><ele>77.0</ele><time>2026-03-29T14:48:25.999Z</time></trkpt><trkpt lat="45.311478073460236" lon="9.460539302718614"><ele>77.0</ele><time>2026-03-29T15:01:58Z</time></trkpt><trkpt lat="45.31141268272363" lon="9.46047916192076"><ele>77.0</ele><time>2026-03-29T15:19:49.999Z</time></trkpt><trkpt lat="45.31138775242845" lon="9.460396558026575"><ele>77.0</ele><time>2026-03-29T15:19:52.999Z</time></trkpt><trkpt lat="45.31133692267696" lon="9.460309549661531"><ele>77.0</ele><time>2026-03-29T15:19:56.999Z</time></trkpt><trkpt lat="45.31135114853554" lon="9.460218034416112"><ele>77.0</ele><time>2026-03-29T15:19:59.999Z</time></trkpt><trkpt lat="45.311391862468035" lon="9.460142207116938"><ele>77.0</ele><time>2026-03-29T15:20:02.999Z</time></trkpt><trkpt lat="45.31143352873983" lon="9.460074870903043"><ele>77.0</ele><time>2026-03-29T15:20:05.999Z</time></trkpt><trkpt lat="45.31146228955041" lon="9.459987774545052"><ele>77.0</ele><time>2026-03-29T15:20:08.999Z</time></trkpt><trkpt lat="45.311490887395536" lon="9.459861858070976"><ele>77.0</ele><time>2026-03-29T15:20:11.999Z</time></trkpt><trkpt lat="45.31150364338161" lon="9.459768280569431"><ele>77.0</ele><time>2026-03-29T15:20:13.999Z</time></trkpt><trkpt lat="45.31150024554947" lon="9.45960184550286"><ele>77.0</ele><time>2026-03-29T15:20:15.999Z</time></trkpt><trkpt lat="45.31150015762251" lon="9.459455775000674"><ele>77.0</ele><time>2026-03-29T15:20:17.999Z</time></trkpt><trkpt lat="45.311540882146275" lon="9.459351057128327"><ele>77.0</ele><time>2026-03-29T15:20:20Z</time></trkpt><trkpt lat="45.31161061662031" lon="9.459297290380153"><ele>77.0</ele><time>2026-03-29T15:20:22Z</time></trkpt><trkpt lat="45.31169733602288" lon="9.459264414872855"><ele>77.0</ele><time>2026-03-29T15:20:24Z</time></trkpt><trkpt lat="45.311778958680485" lon="9.459218998953082"><ele>77.0</ele><time>2026-03-29T15:20:26Z</time></trkpt><trkpt lat="45.31186779756139" lon="9.459187923600984"><ele>77.0</ele><time>2026-03-29T15:20:28Z</time></trkpt><trkpt lat="45.31196167675947" lon="9.459164956344829"><ele>77.0</ele><time>2026-03-29T15:20:30Z</time></trkpt><trkpt lat="45.31206091813912" lon="9.459139000733991"><ele>77.0</ele><time>2026-03-29T15:20:32Z</time></trkpt><trkpt lat="45.31216153167563" lon="9.459115323524937"><ele>77.0</ele><time>2026-03-29T15:20:34Z</time></trkpt><trkpt lat="45.31227226896708" lon="9.459135963536873"><ele>77.0</ele><time>2026-03-29T15:20:36Z</time></trkpt><trkpt lat="45.312374452086985" lon="9.459109199874895"><ele>77.0</ele><time>2026-03-29T15:20:38Z</time></trkpt><trkpt lat="45.31247950845092" lon="9.459066360589324"><ele>77.0</ele><time>2026-03-29T15:20:40Z</time></trkpt><trkpt lat="45.31260549558205" lon="9.459024509308762"><ele>77.0</ele><time>2026-03-29T15:20:42Z</time></trkpt><trkpt lat="45.312671546061054" lon="9.459009130284674"><ele>77.0</ele><time>2026-03-29T15:20:43Z</time></trkpt><trkpt lat="45.31274034085806" lon="9.458997192472124"><ele>77.0</ele><time>2026-03-29T15:20:44Z</time></trkpt><trkpt lat="45.312807367856486" lon="9.458972275893082"><ele>77.0</ele><time>2026-03-29T15:20:45Z</time></trkpt><trkpt lat="45.31287394122659" lon="9.45896540406039"><ele>77.0</ele><time>2026-03-29T15:20:46Z</time></trkpt><trkpt lat="45.3129971084722" lon="9.458943994141686"><ele>77.0</ele><time>2026-03-29T15:20:48Z</time></trkpt><trkpt lat="45.31310436842528" lon="9.458925410780756"><ele>77.0</ele><time>2026-03-29T15:20:50Z</time></trkpt><trkpt lat="45.31319637815553" lon="9.458910074608664"><ele>77.0</ele><time>2026-03-29T15:20:52Z</time></trkpt><trkpt lat="45.313274248393235" lon="9.458886015767545"><ele>77.0</ele><time>2026-03-29T15:20:54Z</time></trkpt><trkpt lat="45.31335756885112" lon="9.45882898210711"><ele>77.0</ele><time>2026-03-29T15:20:56Z</time></trkpt><trkpt lat="45.313378487131224" lon="9.458742543289567"><ele>77.0</ele><time>2026-03-29T15:20:57Z</time></trkpt><trkpt lat="45.31338525839742" lon="9.458568012621768"><ele>77.0</ele><time>2026-03-29T15:20:59Z</time></trkpt><trkpt lat="45.313380559521896" lon="9.458476428728964"><ele>77.0</ele><time>2026-03-29T15:21:00Z</time></trkpt><trkpt lat="45.313373989058405" lon="9.458383603101204"><ele>77.0</ele><time>2026-03-29T15:21:01Z</time></trkpt><trkpt lat="45.31336515725191" lon="9.458284469548758"><ele>77.0</ele><time>2026-03-29T15:21:02Z</time></trkpt><trkpt lat="45.31334353702618" lon="9.458182442784578"><ele>77.0</ele><time>2026-03-29T15:21:03Z</time></trkpt><trkpt lat="45.3133289153737" lon="9.458057108748308"><ele>77.0</ele><time>2026-03-29T15:21:04Z</time></trkpt><trkpt lat="45.31331004329716" lon="9.457908908624889"><ele>77.0</ele><time>2026-03-29T15:21:05Z</time></trkpt><trkpt lat="45.3132947165409" lon="9.45775278507999"><ele>77.0</ele><time>2026-03-29T15:21:06Z</time></trkpt><trkpt lat="45.31327486297818" lon="9.457573091021132"><ele>77.0</ele><time>2026-03-29T15:21:07Z</time></trkpt><trkpt lat="45.31325320170597" lon="9.457381704142188"><ele>77.0</ele><time>2026-03-29T15:21:08Z</time></trkpt><trkpt lat="45.31323605033237" lon="9.457188505109249"><ele>77.0</ele><time>2026-03-29T15:21:09Z</time></trkpt><trkpt lat="45.313218291555565" lon="9.45699547990567"><ele>77.0</ele><time>2026-03-29T15:21:10Z</time></trkpt><trkpt lat="45.31319753713108" lon="9.456825497960555"><ele>77.0</ele><time>2026-03-29T15:21:11Z</time></trkpt><trkpt lat="45.31317831681402" lon="9.456673401339799"><ele>77.0</ele><time>2026-03-29T15:21:12Z</time></trkpt><trkpt lat="45.31315793333481" lon="9.456530394564451"><ele>77.0</ele><time>2026-03-29T15:21:13Z</time></trkpt><trkpt lat="45.31313379787591" lon="9.456385101522036"><ele>77.0</ele><time>2026-03-29T15:21:14Z</time></trkpt><trkpt lat="45.31310844658094" lon="9.45624287836634"><ele>77.0</ele><time>2026-03-29T15:21:15Z</time></trkpt><trkpt lat="45.31308374088146" lon="9.456100662927565"><ele>77.0</ele><time>2026-03-29T15:21:16Z</time></trkpt><trkpt lat="45.31305514794519" lon="9.455947863633739"><ele>77.16666666666667</ele><time>2026-03-29T15:21:17Z</time></trkpt><trkpt lat="45.31302814602503" lon="9.455804082681873"><ele>77.33333333333334</ele><time>2026-03-29T15:21:18Z</time></trkpt><trkpt lat="45.31302012237125" lon="9.455669524590038"><ele>77.5</ele><time>2026-03-29T15:21:19Z</time></trkpt><trkpt lat="45.31299999071159" lon="9.455556199199552"><ele>77.66666666666667</ele><time>2026-03-29T15:21:20Z</time></trkpt><trkpt lat="45.31298222903897" lon="9.45546480834358"><ele>77.83333333333333</ele><time>2026-03-29T15:21:21Z</time></trkpt><trkpt lat="45.31294182729024" lon="9.455350824739568"><ele>78.0</ele><time>2026-03-29T15:21:23Z</time></trkpt><trkpt lat="45.31302946341223" lon="9.455275198926183"><ele>78.16666666666667</ele><time>2026-03-29T15:21:26Z</time></trkpt><trkpt lat="45.3130947145189" lon="9.455255588885906"><ele>78.33333333333333</ele><time>2026-03-29T15:21:27Z</time></trkpt><trkpt lat="45.31316283164023" lon="9.455235117513235"><ele>78.5</ele><time>2026-03-29T15:21:28Z</time></trkpt><trkpt lat="45.313236549539134" lon="9.455213880621306"><ele>78.66666666666666</ele><time>2026-03-29T15:21:29Z</time></trkpt><trkpt lat="45.313317646380874" lon="9.45519101496908"><ele>78.83333333333333</ele><time>2026-03-29T15:21:29.999Z</time></trkpt><trkpt lat="45.3134011628451" lon="9.455167249570525"><ele>79.0</ele><time>2026-03-29T15:21:30.999Z</time></trkpt><trkpt lat="45.313485009230284" lon="9.455143383779582"><ele>79.0</ele><time>2026-03-29T15:21:31.999Z</time></trkpt><trkpt lat="45.31356148743669" lon="9.455104240661166"><ele>79.0</ele><time>2026-03-29T15:21:32.999Z</time></trkpt><trkpt lat="45.31364660538961" lon="9.455085769185748"><ele>79.0</ele><time>2026-03-29T15:21:33.999Z</time></trkpt><trkpt lat="45.31372624686341" lon="9.455059664467381"><ele>79.0</ele><time>2026-03-29T15:21:34.999Z</time></trkpt><trkpt lat="45.31380379471717" lon="9.455034329063103"><ele>79.0</ele><time>2026-03-29T15:21:35.999Z</time></trkpt><trkpt lat="45.313880926670755" lon="9.45501628822661"><ele>79.0</ele><time>2026-03-29T15:21:36.999Z</time></trkpt><trkpt lat="45.31395797214282" lon="9.45503531502272"><ele>79.16666666666666</ele><time>2026-03-29T15:21:37.999Z</time></trkpt><trkpt lat="45.31401038898663" lon="9.45515119358761"><ele>79.33333333333333</ele><time>2026-03-29T15:21:39.999Z</time></trkpt><trkpt lat="45.31405957529388" lon="9.455284248269098"><ele>79.5</ele><time>2026-03-29T15:21:41.999Z</time></trkpt><trkpt lat="45.31409277714871" lon="9.45537729128327"><ele>79.66666666666667</ele><time>2026-03-29T15:21:42.999Z</time></trkpt><trkpt lat="45.31412762027153" lon="9.45547523260441"><ele>79.83333333333334</ele><time>2026-03-29T15:21:43.999Z</time></trkpt><trkpt lat="45.314158797295036" lon="9.455556541273543"><ele>80.0</ele><time>2026-03-29T15:21:44.999Z</time></trkpt><trkpt lat="45.31420997908692" lon="9.455705412979228"><ele>80.0</ele><time>2026-03-29T15:21:46.999Z</time></trkpt><trkpt lat="45.31425473836922" lon="9.455858999252232"><ele>80.0</ele><time>2026-03-29T15:21:48.999Z</time></trkpt><trkpt lat="45.31431728674722" lon="9.455994959133005"><ele>80.0</ele><time>2026-03-29T15:21:50.999Z</time></trkpt><trkpt lat="45.31439176333442" lon="9.45612689717914"><ele>80.0</ele><time>2026-03-29T15:21:52.999Z</time></trkpt><trkpt lat="45.3144375188055" lon="9.45618890342236"><ele>80.0</ele><time>2026-03-29T15:21:53.999Z</time></trkpt><trkpt lat="45.314496928177356" lon="9.456234691558102"><ele>80.0</ele><time>2026-03-29T15:21:54.999Z</time></trkpt><trkpt lat="45.3145694097379" lon="9.456272712750991"><ele>80.0</ele><time>2026-03-29T15:21:55.999Z</time></trkpt><trkpt lat="45.314658304765885" lon="9.456299898265888"><ele>80.0</ele><time>2026-03-29T15:21:56.999Z</time></trkpt><trkpt lat="45.314744975798355" lon="9.456335815581427"><ele>80.0</ele><time>2026-03-29T15:21:57.999Z</time></trkpt><trkpt lat="45.31483481545803" lon="9.456368312731476"><ele>80.0</ele><time>2026-03-29T15:21:58.999Z</time></trkpt><trkpt lat="45.31492408168386" lon="9.456410698252311"><ele>80.0</ele><time>2026-03-29T15:21:59.999Z</time></trkpt><trkpt lat="45.31500666104798" lon="9.456449816892988"><ele>79.66666666666667</ele><time>2026-03-29T15:22:00.999Z</time></trkpt><trkpt lat="45.31509180558427" lon="9.456486169152637"><ele>79.33333333333334</ele><time>2026-03-29T15:22:01.999Z</time></trkpt><trkpt lat="45.31517293233814" lon="9.456527201248804"><ele>79.0</ele><time>2026-03-29T15:22:02.999Z</time></trkpt><trkpt lat="45.315253123106" lon="9.456563506840087"><ele>78.66666666666667</ele><time>2026-03-29T15:22:03.999Z</time></trkpt><trkpt lat="45.31532112509444" lon="9.456613557593966"><ele>78.33333333333333</ele><time>2026-03-29T15:22:04.999Z</time></trkpt><trkpt lat="45.315393570421215" lon="9.45661108611101"><ele>78.0</ele><time>2026-03-29T15:22:05.999Z</time></trkpt><trkpt lat="45.31545697183069" lon="9.456564147006478"><ele>78.0</ele><time>2026-03-29T15:22:06.999Z</time></trkpt><trkpt lat="45.3155230463497" lon="9.456531714274314"><ele>78.0</ele><time>2026-03-29T15:22:07.999Z</time></trkpt><trkpt lat="45.315593057807206" lon="9.456485584541785"><ele>78.0</ele><time>2026-03-29T15:22:08.999Z</time></trkpt><trkpt lat="45.3156617404026" lon="9.456431418061632"><ele>78.0</ele><time>2026-03-29T15:22:09.999Z</time></trkpt><trkpt lat="45.315726804151126" lon="9.456387979959848"><ele>78.0</ele><time>2026-03-29T15:22:10.999Z</time></trkpt><trkpt lat="45.315788404597164" lon="9.45635006697565"><ele>78.0</ele><time>2026-03-29T15:22:11.999Z</time></trkpt><trkpt lat="45.315848910376204" lon="9.456305998773143"><ele>78.0</ele><time>2026-03-29T15:22:12.999Z</time></trkpt><trkpt lat="45.315910678694976" lon="9.456260464855301"><ele>77.85714285714286</ele><time>2026-03-29T15:22:13.999Z</time></trkpt><trkpt lat="45.315972874259074" lon="9.456220561643619"><ele>77.71428571428571</ele><time>2026-03-29T15:22:14.999Z</time></trkpt><trkpt lat="45.316035968669816" lon="9.456174395958723"><ele>77.57142857142857</ele><time>2026-03-29T15:22:15.999Z</time></trkpt><trkpt lat="45.31609859323202" lon="9.456126448886023"><ele>77.42857142857143</ele><time>2026-03-29T15:22:16.999Z</time></trkpt><trkpt lat="45.31616340826761" lon="9.456074129442547"><ele>77.28571428571428</ele><time>2026-03-29T15:22:17.999Z</time></trkpt><trkpt lat="45.31622689465157" lon="9.456032048884337"><ele>77.14285714285714</ele><time>2026-03-29T15:22:18.999Z</time></trkpt><trkpt lat="45.31629319289686" lon="9.455991122312735"><ele>77.0</ele><time>2026-03-29T15:22:19.999Z</time></trkpt><trkpt lat="45.3163572161336" lon="9.455933080136084"><ele>77.33333333333334</ele><time>2026-03-29T15:22:20.999Z</time></trkpt><trkpt lat="45.31642798480737" lon="9.45589306359056"><ele>77.66666666666667</ele><time>2026-03-29T15:22:21.999Z</time></trkpt><trkpt lat="45.316496763852854" lon="9.45584926916125"><ele>78.0</ele><time>2026-03-29T15:22:22.999Z</time></trkpt><trkpt lat="45.31656399885401" lon="9.455806455500472"><ele>78.33333333333333</ele><time>2026-03-29T15:22:23.999Z</time></trkpt><trkpt lat="45.31663345626115" lon="9.455761570025773"><ele>78.66666666666666</ele><time>2026-03-29T15:22:25Z</time></trkpt><trkpt lat="45.316703346794014" lon="9.455715441198926"><ele>79.0</ele><time>2026-03-29T15:22:26Z</time></trkpt><trkpt lat="45.316774992983525" lon="9.455668782486132"><ele>79.0</ele><time>2026-03-29T15:22:27Z</time></trkpt><trkpt lat="45.31684702482923" lon="9.455621075941677"><ele>79.0</ele><time>2026-03-29T15:22:28Z</time></trkpt><trkpt lat="45.31691620037172" lon="9.455570537083968"><ele>79.0</ele><time>2026-03-29T15:22:29Z</time></trkpt><trkpt lat="45.316989804168664" lon="9.455526218346762"><ele>79.0</ele><time>2026-03-29T15:22:30Z</time></trkpt><trkpt lat="45.31706489572446" lon="9.45549519634888"><ele>79.0</ele><time>2026-03-29T15:22:31Z</time></trkpt><trkpt lat="45.31713882412273" lon="9.455461242650719"><ele>79.0</ele><time>2026-03-29T15:22:32Z</time></trkpt><trkpt lat="45.317213770493154" lon="9.455421367680893"><ele>79.0</ele><time>2026-03-29T15:22:33Z</time></trkpt><trkpt lat="45.31728879875313" lon="9.455377941108983"><ele>79.0</ele><time>2026-03-29T15:22:34Z</time></trkpt><trkpt lat="45.31736675496622" lon="9.455333178188603"><ele>79.0</ele><time>2026-03-29T15:22:35Z</time></trkpt><trkpt lat="45.31744570195462" lon="9.455300117321675"><ele>79.0</ele><time>2026-03-29T15:22:36Z</time></trkpt><trkpt lat="45.317523985383666" lon="9.455258703872001"><ele>79.0</ele><time>2026-03-29T15:22:37Z</time></trkpt><trkpt lat="45.317597593651776" lon="9.455219082345689"><ele>79.0</ele><time>2026-03-29T15:22:38Z</time></trkpt><trkpt lat="45.31768039296597" lon="9.455182886671432"><ele>79.0</ele><time>2026-03-29T15:22:39Z</time></trkpt><trkpt lat="45.31776334871545" lon="9.455138987731951"><ele>79.0</ele><time>2026-03-29T15:22:40Z</time></trkpt><trkpt lat="45.317850215638195" lon="9.455094682972595"><ele>79.0</ele><time>2026-03-29T15:22:41Z</time></trkpt><trkpt lat="45.31793777598557" lon="9.45504922900724"><ele>79.0</ele><time>2026-03-29T15:22:42Z</time></trkpt><trkpt lat="45.318021498109395" lon="9.455004023798704"><ele>79.0</ele><time>2026-03-29T15:22:43Z</time></trkpt><trkpt lat="45.31810541593332" lon="9.454966965709408"><ele>79.0</ele><time>2026-03-29T15:22:44Z</time></trkpt><trkpt lat="45.31818564851317" lon="9.454917401013033"><ele>79.0</ele><time>2026-03-29T15:22:45Z</time></trkpt><trkpt lat="45.31826739344891" lon="9.454869002045719"><ele>79.0</ele><time>2026-03-29T15:22:46Z</time></trkpt><trkpt lat="45.31835328936036" lon="9.454822029823857"><ele>79.0</ele><time>2026-03-29T15:22:47Z</time></trkpt><trkpt lat="45.318442265392136" lon="9.454778830419713"><ele>79.0</ele><time>2026-03-29T15:22:48Z</time></trkpt><trkpt lat="45.31853509591179" lon="9.454737826831156"><ele>79.0</ele><time>2026-03-29T15:22:49Z</time></trkpt><trkpt lat="45.31864128425356" lon="9.454690075920984"><ele>79.0</ele><time>2026-03-29T15:22:50Z</time></trkpt><trkpt lat="45.318746030554394" lon="9.454643543576621"><ele>79.0</ele><time>2026-03-29T15:22:51Z</time></trkpt><trkpt lat="45.31884338553925" lon="9.454597329552616"><ele>79.0</ele><time>2026-03-29T15:22:52Z</time></trkpt><trkpt lat="45.31893732219331" lon="9.454553761332539"><ele>79.0</ele><time>2026-03-29T15:22:53Z</time></trkpt><trkpt lat="45.31903380579058" lon="9.454527562609814"><ele>79.2</ele><time>2026-03-29T15:22:54Z</time></trkpt><trkpt lat="45.319121393847425" lon="9.454464478244835"><ele>79.4</ele><time>2026-03-29T15:22:55Z</time></trkpt><trkpt lat="45.31921109297792" lon="9.454417338983678"><ele>79.6</ele><time>2026-03-29T15:22:56Z</time></trkpt><trkpt lat="45.319302369972384" lon="9.454379134892786"><ele>79.8</ele><time>2026-03-29T15:22:57Z</time></trkpt><trkpt lat="45.3193956983069" lon="9.454344050906515"><ele>80.0</ele><time>2026-03-29T15:22:58Z</time></trkpt><trkpt lat="45.319493854917184" lon="9.454323367453917"><ele>80.0</ele><time>2026-03-29T15:22:59Z</time></trkpt><trkpt lat="45.31959609500482" lon="9.4543122128253"><ele>80.0</ele><time>2026-03-29T15:23:00Z</time></trkpt><trkpt lat="45.31969939744333" lon="9.454296634368061"><ele>80.0</ele><time>2026-03-29T15:23:01Z</time></trkpt><trkpt lat="45.319804992929825" lon="9.454281823722322"><ele>80.0</ele><time>2026-03-29T15:23:02Z</time></trkpt><trkpt lat="45.31990522365653" lon="9.454270277113856"><ele>80.0</ele><time>2026-03-29T15:23:03Z</time></trkpt><trkpt lat="45.32000307320301" lon="9.454259235324255"><ele>79.6</ele><time>2026-03-29T15:23:04Z</time></trkpt><trkpt lat="45.3200977276735" lon="9.45424904928431"><ele>79.2</ele><time>2026-03-29T15:23:05Z</time></trkpt><trkpt lat="45.32019238743005" lon="9.454235096962744"><ele>78.8</ele><time>2026-03-29T15:23:06Z</time></trkpt><trkpt lat="45.32028798147621" lon="9.454218553400835"><ele>78.4</ele><time>2026-03-29T15:23:07Z</time></trkpt><trkpt lat="45.32038676974487" lon="9.454203611763239"><ele>78.0</ele><time>2026-03-29T15:23:08Z</time></trkpt><trkpt lat="45.32048684156823" lon="9.454197356469644"><ele>78.4</ele><time>2026-03-29T15:23:09Z</time></trkpt><trkpt lat="45.320591077756404" lon="9.454199782469823"><ele>78.8</ele><time>2026-03-29T15:23:10Z</time></trkpt><trkpt lat="45.320695916352456" lon="9.454206739205754"><ele>79.2</ele><time>2026-03-29T15:23:11Z</time></trkpt><trkpt lat="45.320799610429866" lon="9.45422082377092"><ele>79.6</ele><time>2026-03-29T15:23:12Z</time></trkpt><trkpt lat="45.32090555341681" lon="9.454226256105324"><ele>80.0</ele><time>2026-03-29T15:23:13Z</time></trkpt><trkpt lat="45.32101423937974" lon="9.454219376084017"><ele>80.0</ele><time>2026-03-29T15:23:14Z</time></trkpt><trkpt lat="45.321125649570654" lon="9.454200846493206"><ele>80.0</ele><time>2026-03-29T15:23:15Z</time></trkpt><trkpt lat="45.321236242446034" lon="9.454187199749304"><ele>80.0</ele><time>2026-03-29T15:23:16Z</time></trkpt><trkpt lat="45.321343601223504" lon="9.454177267625017"><ele>80.0</ele><time>2026-03-29T15:23:17Z</time></trkpt><trkpt lat="45.32144572087152" lon="9.45416115522526"><ele>80.0</ele><time>2026-03-29T15:23:18Z</time></trkpt><trkpt lat="45.32153840272819" lon="9.454159836692769"><ele>80.0</ele><time>2026-03-29T15:23:19Z</time></trkpt><trkpt lat="45.321628115800785" lon="9.454169557093495"><ele>80.0</ele><time>2026-03-29T15:23:20Z</time></trkpt><trkpt lat="45.32170840830275" lon="9.454203382117665"><ele>80.0</ele><time>2026-03-29T15:23:21Z</time></trkpt><trkpt lat="45.321774313221674" lon="9.454263311206999"><ele>80.0</ele><time>2026-03-29T15:23:22Z</time></trkpt><trkpt lat="45.32180209200851" lon="9.454355179883795"><ele>80.0</ele><time>2026-03-29T15:23:23Z</time></trkpt><trkpt lat="45.32184776389751" lon="9.454447501614414"><ele>80.0</ele><time>2026-03-29T15:23:24Z</time></trkpt><trkpt lat="45.32187013265284" lon="9.454574871817142"><ele>80.0</ele><time>2026-03-29T15:23:25Z</time></trkpt><trkpt lat="45.32189016270215" lon="9.45472590462863"><ele>80.0</ele><time>2026-03-29T15:23:26Z</time></trkpt><trkpt lat="45.32191111423329" lon="9.454884835456472"><ele>80.0</ele><time>2026-03-29T15:23:27Z</time></trkpt><trkpt lat="45.321935906671754" lon="9.455023559102898"><ele>80.0</ele><time>2026-03-29T15:23:28Z</time></trkpt><trkpt lat="45.32196025900277" lon="9.455153470998537"><ele>80.0</ele><time>2026-03-29T15:23:29Z</time></trkpt><trkpt lat="45.3219865191312" lon="9.45528611379721"><ele>80.0</ele><time>2026-03-29T15:23:30Z</time></trkpt><trkpt lat="45.322009501448825" lon="9.455424938598684"><ele>80.0</ele><time>2026-03-29T15:23:31Z</time></trkpt><trkpt lat="45.3220364089652" lon="9.45556720335508"><ele>80.0</ele><time>2026-03-29T15:23:32Z</time></trkpt><trkpt lat="45.32206251756092" lon="9.455709322334565"><ele>80.0</ele><time>2026-03-29T15:23:33Z</time></trkpt><trkpt lat="45.322085966558575" lon="9.4558497806672"><ele>80.0</ele><time>2026-03-29T15:23:34Z</time></trkpt><trkpt lat="45.32210329345834" lon="9.45598650917982"><ele>80.0</ele><time>2026-03-29T15:23:35Z</time></trkpt><trkpt lat="45.32212412281445" lon="9.456119054273262"><ele>80.0</ele><time>2026-03-29T15:23:36Z</time></trkpt><trkpt lat="45.32214602203056" lon="9.456249617722511"><ele>80.0</ele><time>2026-03-29T15:23:37Z</time></trkpt><trkpt lat="45.32216525125856" lon="9.456381665708525"><ele>80.0</ele><time>2026-03-29T15:23:37.999Z</time></trkpt><trkpt lat="45.32217764557866" lon="9.456515595023363"><ele>80.0</ele><time>2026-03-29T15:23:38.999Z</time></trkpt><trkpt lat="45.32215766569946" lon="9.456647535117723"><ele>80.0</ele><time>2026-03-29T15:23:39.999Z</time></trkpt><trkpt lat="45.32217008728338" lon="9.456792386720782"><ele>80.0</ele><time>2026-03-29T15:23:40.999Z</time></trkpt><trkpt lat="45.32220478854234" lon="9.456920698977402"><ele>80.0</ele><time>2026-03-29T15:23:41.999Z</time></trkpt><trkpt lat="45.32221955201828" lon="9.457053547085433"><ele>80.0</ele><time>2026-03-29T15:23:42.999Z</time></trkpt><trkpt lat="45.322236307902706" lon="9.457174966108774"><ele>80.0</ele><time>2026-03-29T15:23:43.999Z</time></trkpt><trkpt lat="45.322231243536706" lon="9.45728240297543"><ele>80.2</ele><time>2026-03-29T15:23:44.999Z</time></trkpt><trkpt lat="45.32225622552128" lon="9.457370617552062"><ele>80.4</ele><time>2026-03-29T15:23:45.999Z</time></trkpt><trkpt lat="45.322236208232546" lon="9.45752778847997"><ele>80.6</ele><time>2026-03-29T15:23:47.999Z</time></trkpt><trkpt lat="45.32214852678086" lon="9.457662791936661"><ele>80.8</ele><time>2026-03-29T15:23:49.999Z</time></trkpt><trkpt lat="45.32208485811702" lon="9.457722862734041"><ele>81.0</ele><time>2026-03-29T15:23:50.999Z</time></trkpt><trkpt lat="45.32202809871816" lon="9.457811077303752"><ele>81.4</ele><time>2026-03-29T15:23:51.999Z</time></trkpt><trkpt lat="45.32198159655883" lon="9.457919164774966"><ele>81.8</ele><time>2026-03-29T15:23:52.999Z</time></trkpt><trkpt lat="45.32195366656348" lon="9.458057616642822"><ele>82.2</ele><time>2026-03-29T15:23:53.999Z</time></trkpt><trkpt lat="45.32194349492591" lon="9.458207429687043"><ele>82.60000000000001</ele><time>2026-03-29T15:23:54.999Z</time></trkpt><trkpt lat="45.32194790435282" lon="9.458358764830034"><ele>83.0</ele><time>2026-03-29T15:23:55.999Z</time></trkpt><trkpt lat="45.32196676132998" lon="9.45852152826087"><ele>82.75</ele><time>2026-03-29T15:23:56.999Z</time></trkpt><trkpt lat="45.32200296634302" lon="9.458682424833114"><ele>82.5</ele><time>2026-03-29T15:23:57.999Z</time></trkpt><trkpt lat="45.32206231548443" lon="9.458831155318538"><ele>82.25</ele><time>2026-03-29T15:23:58.999Z</time></trkpt><trkpt lat="45.32214481786664" lon="9.458962929410603"><ele>82.0</ele><time>2026-03-29T15:23:59.999Z</time></trkpt><trkpt lat="45.322236147379336" lon="9.459077158856553"><ele>81.8</ele><time>2026-03-29T15:24:00.999Z</time></trkpt><trkpt lat="45.3223278573959" lon="9.459182142519381"><ele>81.6</ele><time>2026-03-29T15:24:01.999Z</time></trkpt><trkpt lat="45.322418146851774" lon="9.459280386658167"><ele>81.39999999999999</ele><time>2026-03-29T15:24:02.999Z</time></trkpt><trkpt lat="45.32250137243541" lon="9.45937909567429"><ele>81.19999999999999</ele><time>2026-03-29T15:24:03.999Z</time></trkpt><trkpt lat="45.32257539194291" lon="9.45948867359507"><ele>81.0</ele><time>2026-03-29T15:24:04.999Z</time></trkpt><trkpt lat="45.32264230241985" lon="9.459610000934628"><ele>80.8</ele><time>2026-03-29T15:24:05.999Z</time></trkpt><trkpt lat="45.322696876882944" lon="9.459738524475453"><ele>80.6</ele><time>2026-03-29T15:24:06.999Z</time></trkpt><trkpt lat="45.322741265403025" lon="9.459873601246914"><ele>80.4</ele><time>2026-03-29T15:24:07.999Z</time></trkpt><trkpt lat="45.322776251474224" lon="9.460014401969037"><ele>80.2</ele><time>2026-03-29T15:24:08.999Z</time></trkpt><trkpt lat="45.32280647006557" lon="9.460170564763086"><ele>80.0</ele><time>2026-03-29T15:24:09.999Z</time></trkpt><trkpt lat="45.32282635342104" lon="9.460330540700058"><ele>79.25</ele><time>2026-03-29T15:24:10.999Z</time></trkpt><trkpt lat="45.32286094068856" lon="9.460490813399867"><ele>78.5</ele><time>2026-03-29T15:24:11.999Z</time></trkpt><trkpt lat="45.322947720167896" lon="9.460630784427316"><ele>77.75</ele><time>2026-03-29T15:24:12.999Z</time></trkpt><trkpt lat="45.32300620590478" lon="9.4607906056497"><ele>77.0</ele><time>2026-03-29T15:24:13.999Z</time></trkpt><trkpt lat="45.32306023994205" lon="9.460963561798119"><ele>78.0</ele><time>2026-03-29T15:24:14.999Z</time></trkpt><trkpt lat="45.323109687124095" lon="9.461143154121917"><ele>79.0</ele><time>2026-03-29T15:24:15.999Z</time></trkpt><trkpt lat="45.32314717029227" lon="9.461322688858816"><ele>80.0</ele><time>2026-03-29T15:24:16.999Z</time></trkpt><trkpt lat="45.32317733112824" lon="9.461504991295932"><ele>81.0</ele><time>2026-03-29T15:24:17.999Z</time></trkpt><trkpt lat="45.32319472345507" lon="9.461687148606003"><ele>81.0</ele><time>2026-03-29T15:24:18.999Z</time></trkpt><trkpt lat="45.323206599009865" lon="9.461864593742002"><ele>81.0</ele><time>2026-03-29T15:24:19.999Z</time></trkpt><trkpt lat="45.32321725413433" lon="9.462035487899495"><ele>81.0</ele><time>2026-03-29T15:24:20.999Z</time></trkpt><trkpt lat="45.323228995577864" lon="9.462201324807493"><ele>81.0</ele><time>2026-03-29T15:24:21.999Z</time></trkpt><trkpt lat="45.32324182185367" lon="9.462362318754769"><ele>81.0</ele><time>2026-03-29T15:24:22.999Z</time></trkpt><trkpt lat="45.323251978300625" lon="9.462520619819097"><ele>81.0</ele><time>2026-03-29T15:24:23.999Z</time></trkpt><trkpt lat="45.32326200646264" lon="9.46266576875282"><ele>81.0</ele><time>2026-03-29T15:24:24.999Z</time></trkpt><trkpt lat="45.3232734154412" lon="9.46280046621637"><ele>81.0</ele><time>2026-03-29T15:24:25.999Z</time></trkpt><trkpt lat="45.323285135610355" lon="9.462931952393891"><ele>81.0</ele><time>2026-03-29T15:24:26.999Z</time></trkpt><trkpt lat="45.323296459423204" lon="9.463060028060006"><ele>80.83333333333333</ele><time>2026-03-29T15:24:27.999Z</time></trkpt><trkpt lat="45.32330919148495" lon="9.463182487912126"><ele>80.66666666666667</ele><time>2026-03-29T15:24:28.999Z</time></trkpt><trkpt lat="45.32332257855071" lon="9.463296528507605"><ele>80.5</ele><time>2026-03-29T15:24:29.999Z</time></trkpt><trkpt lat="45.32333415895955" lon="9.463384882855317"><ele>80.33333333333334</ele><time>2026-03-29T15:24:31Z</time></trkpt><trkpt lat="45.32335001100293" lon="9.463534476480028"><ele>80.16666666666667</ele><time>2026-03-29T15:24:33Z</time></trkpt><trkpt lat="45.3233577388054" lon="9.463660294594451"><ele>80.0</ele><time>2026-03-29T15:24:35Z</time></trkpt><trkpt lat="45.3233646240222" lon="9.46375340451201"><ele>80.16666666666667</ele><time>2026-03-29T15:24:37Z</time></trkpt><trkpt lat="45.32337175675607" lon="9.463859692236024"><ele>80.33333333333334</ele><time>2026-03-29T15:24:40Z</time></trkpt><trkpt lat="45.32336982794003" lon="9.463971182410873"><ele>80.5</ele><time>2026-03-29T15:25:05Z</time></trkpt><trkpt lat="45.32337878637706" lon="9.46408464973152"><ele>80.66666666666667</ele><time>2026-03-29T15:25:08Z</time></trkpt><trkpt lat="45.32338572051743" lon="9.464188395176787"><ele>80.83333333333333</ele><time>2026-03-29T15:25:12Z</time></trkpt><trkpt lat="45.32339180434527" lon="9.46429555333625"><ele>81.0</ele><time>2026-03-29T15:25:18Z</time></trkpt><trkpt lat="45.323394620978284" lon="9.464397213659284"><ele>81.0</ele><time>2026-03-29T15:25:28Z</time></trkpt><trkpt lat="45.32352379315823" lon="9.464334669273466"><ele>81.0</ele><time>2026-03-29T15:25:30Z</time></trkpt><trkpt lat="45.32359176060573" lon="9.46420471576035"><ele>81.0</ele><time>2026-03-29T15:25:32Z</time></trkpt><trkpt lat="45.32362414196441" lon="9.46412625853062"><ele>81.0</ele><time>2026-03-29T15:25:33Z</time></trkpt><trkpt lat="45.323651474646645" lon="9.464038862134746"><ele>81.0</ele><time>2026-03-29T15:25:34Z</time></trkpt><trkpt lat="45.32368215747214" lon="9.4639460809329"><ele>81.0</ele><time>2026-03-29T15:25:35Z</time></trkpt><trkpt lat="45.3237464132748" lon="9.463864609724174"><ele>81.0</ele><time>2026-03-29T15:25:36Z</time></trkpt><trkpt lat="45.323780527151214" lon="9.463761159075531"><ele>81.0</ele><time>2026-03-29T15:25:37Z</time></trkpt><trkpt lat="45.32381281367365" lon="9.463658305967995"><ele>81.0</ele><time>2026-03-29T15:25:38Z</time></trkpt><trkpt lat="45.32387159189463" lon="9.463485203948"><ele>81.0</ele><time>2026-03-29T15:25:40Z</time></trkpt><trkpt lat="45.32392741347855" lon="9.463393120322417"><ele>80.8</ele><time>2026-03-29T15:25:41Z</time></trkpt><trkpt lat="45.32400652811344" lon="9.463326774161338"><ele>80.6</ele><time>2026-03-29T15:25:42Z</time></trkpt><trkpt lat="45.32408225919215" lon="9.463268442315082"><ele>80.4</ele><time>2026-03-29T15:25:43Z</time></trkpt><trkpt lat="45.324159290777075" lon="9.463192750680008"><ele>80.2</ele><time>2026-03-29T15:25:44Z</time></trkpt><trkpt lat="45.324235970832184" lon="9.46313076545401"><ele>80.0</ele><time>2026-03-29T15:25:45Z</time></trkpt><trkpt lat="45.32431750528966" lon="9.463027720832917"><ele>80.25</ele><time>2026-03-29T15:25:46Z</time></trkpt><trkpt lat="45.32440503976842" lon="9.462929990978155"><ele>80.5</ele><time>2026-03-29T15:25:47Z</time></trkpt><trkpt lat="45.32449131491917" lon="9.462838272351734"><ele>80.75</ele><time>2026-03-29T15:25:47.999Z</time></trkpt><trkpt lat="45.32458301384195" lon="9.462741802691715"><ele>81.0</ele><time>2026-03-29T15:25:48.999Z</time></trkpt><trkpt lat="45.32467846291174" lon="9.462645128340355"><ele>80.5</ele><time>2026-03-29T15:25:49.999Z</time></trkpt><trkpt lat="45.324781823674265" lon="9.46255397414629"><ele>80.0</ele><time>2026-03-29T15:25:50.999Z</time></trkpt><trkpt lat="45.32488426706318" lon="9.462465861613659"><ele>79.5</ele><time>2026-03-29T15:25:51.999Z</time></trkpt><trkpt lat="45.324991931187846" lon="9.462376618473687"><ele>79.0</ele><time>2026-03-29T15:25:52.999Z</time></trkpt><trkpt lat="45.32510360819487" lon="9.462278571715899"><ele>79.0</ele><time>2026-03-29T15:25:53.999Z</time></trkpt><trkpt lat="45.32521588445601" lon="9.462172611108237"><ele>79.0</ele><time>2026-03-29T15:25:54.999Z</time></trkpt><trkpt lat="45.32533490740394" lon="9.462064393136334"><ele>79.0</ele><time>2026-03-29T15:25:55.999Z</time></trkpt><trkpt lat="45.325458523533754" lon="9.461954511450335"><ele>79.0</ele><time>2026-03-29T15:25:56.999Z</time></trkpt><trkpt lat="45.325585050529895" lon="9.461840994948185"><ele>78.33333333333333</ele><time>2026-03-29T15:25:57.999Z</time></trkpt><trkpt lat="45.3257177577021" lon="9.461723109208819"><ele>77.66666666666667</ele><time>2026-03-29T15:25:58.999Z</time></trkpt><trkpt lat="45.32585292373142" lon="9.46159986285928"><ele>77.0</ele><time>2026-03-29T15:25:59.999Z</time></trkpt><trkpt lat="45.32599179540775" lon="9.461475948691097"><ele>77.0</ele><time>2026-03-29T15:26:00.999Z</time></trkpt><trkpt lat="45.32613174327738" lon="9.461349154981805"><ele>77.0</ele><time>2026-03-29T15:26:01.999Z</time></trkpt><trkpt lat="45.3262727908038" lon="9.46121892853084"><ele>77.0</ele><time>2026-03-29T15:26:02.999Z</time></trkpt><trkpt lat="45.32641229233093" lon="9.46108612397694"><ele>77.0</ele><time>2026-03-29T15:26:03.999Z</time></trkpt><trkpt lat="45.326554853575594" lon="9.460959187741086"><ele>77.0</ele><time>2026-03-29T15:26:04.999Z</time></trkpt><trkpt lat="45.32669891338432" lon="9.460824687174554"><ele>77.0</ele><time>2026-03-29T15:26:05.999Z</time></trkpt><trkpt lat="45.32684492492961" lon="9.46069919843299"><ele>77.0</ele><time>2026-03-29T15:26:06.999Z</time></trkpt><trkpt lat="45.326976859765786" lon="9.460580520325495"><ele>77.0</ele><time>2026-03-29T15:26:07.999Z</time></trkpt><trkpt lat="45.327102133082754" lon="9.460470526505384"><ele>77.0</ele><time>2026-03-29T15:26:08.999Z</time></trkpt><trkpt lat="45.32722105669246" lon="9.460367880417564"><ele>77.0</ele><time>2026-03-29T15:26:09.999Z</time></trkpt><trkpt lat="45.32734201573748" lon="9.460261201859183"><ele>77.25</ele><time>2026-03-29T15:26:10.999Z</time></trkpt><trkpt lat="45.327464145470906" lon="9.460153408814595"><ele>77.5</ele><time>2026-03-29T15:26:11.999Z</time></trkpt><trkpt lat="45.32758097863584" lon="9.460053309063905"><ele>77.75</ele><time>2026-03-29T15:26:12.999Z</time></trkpt><trkpt lat="45.327691522455325" lon="9.459963188017602"><ele>78.0</ele><time>2026-03-29T15:26:13.999Z</time></trkpt><trkpt lat="45.32779626930087" lon="9.45988990654423"><ele>78.0</ele><time>2026-03-29T15:26:14.999Z</time></trkpt><trkpt lat="45.32791094821409" lon="9.459834208767617"><ele>78.0</ele><time>2026-03-29T15:26:15.999Z</time></trkpt><trkpt lat="45.32803271253877" lon="9.459801316678229"><ele>78.0</ele><time>2026-03-29T15:26:16.999Z</time></trkpt><trkpt lat="45.32815359006844" lon="9.459767667814262"><ele>78.0</ele><time>2026-03-29T15:26:17.999Z</time></trkpt><trkpt lat="45.32824313741408" lon="9.459621009081207"><ele>79.0</ele><time>2026-03-29T15:26:18.999Z</time></trkpt><trkpt lat="45.328341530543995" lon="9.459482797996829"><ele>80.0</ele><time>2026-03-29T15:26:19.999Z</time></trkpt><trkpt lat="45.32845656659671" lon="9.459357833428145"><ele>81.0</ele><time>2026-03-29T15:26:20.999Z</time></trkpt><trkpt lat="45.32858568706298" lon="9.459245975942075"><ele>82.0</ele><time>2026-03-29T15:26:21.999Z</time></trkpt><trkpt lat="45.328727571687956" lon="9.459141514559102"><ele>82.0</ele><time>2026-03-29T15:26:22.999Z</time></trkpt><trkpt lat="45.32887969331053" lon="9.459048711826778"><ele>82.0</ele><time>2026-03-29T15:26:23.999Z</time></trkpt><trkpt lat="45.32904146933125" lon="9.458960088294994"><ele>82.0</ele><time>2026-03-29T15:26:24.999Z</time></trkpt><trkpt lat="45.32920390671182" lon="9.458872438407104"><ele>81.33333333333333</ele><time>2026-03-29T15:26:25.999Z</time></trkpt><trkpt lat="45.3293633050797" lon="9.458784724014144"><ele>80.66666666666667</ele><time>2026-03-29T15:26:26.999Z</time></trkpt><trkpt lat="45.32952740311953" lon="9.458692141446974"><ele>80.0</ele><time>2026-03-29T15:26:27.999Z</time></trkpt><trkpt lat="45.32968014805794" lon="9.458606518722892"><ele>79.5</ele><time>2026-03-29T15:26:28.999Z</time></trkpt><trkpt lat="45.32981997202999" lon="9.458521136966812"><ele>79.0</ele><time>2026-03-29T15:26:29.999Z</time></trkpt><trkpt lat="45.329950735057736" lon="9.458439058058898"><ele>78.5</ele><time>2026-03-29T15:26:30.999Z</time></trkpt><trkpt lat="45.33007294678326" lon="9.458357312623743"><ele>78.0</ele><time>2026-03-29T15:26:31.999Z</time></trkpt><trkpt lat="45.33019259401423" lon="9.458284118653863"><ele>78.0</ele><time>2026-03-29T15:26:32.999Z</time></trkpt><trkpt lat="45.33031184399986" lon="9.458239252933668"><ele>78.0</ele><time>2026-03-29T15:26:33.999Z</time></trkpt><trkpt lat="45.33042432923488" lon="9.458218265042136"><ele>78.0</ele><time>2026-03-29T15:26:34.999Z</time></trkpt><trkpt lat="45.33053070666633" lon="9.458163578666584"><ele>78.0</ele><time>2026-03-29T15:26:35.999Z</time></trkpt><trkpt lat="45.33061886976509" lon="9.458047111031913"><ele>78.0</ele><time>2026-03-29T15:26:37Z</time></trkpt><trkpt lat="45.330700906565106" lon="9.457904181720734"><ele>78.0</ele><time>2026-03-29T15:26:38Z</time></trkpt><trkpt lat="45.330801749233935" lon="9.457772157707925"><ele>78.0</ele><time>2026-03-29T15:26:39Z</time></trkpt><trkpt lat="45.33091493892597" lon="9.457654880700536"><ele>78.0</ele><time>2026-03-29T15:26:40Z</time></trkpt><trkpt lat="45.3310225042609" lon="9.457555608687166"><ele>78.0</ele><time>2026-03-29T15:26:41Z</time></trkpt><trkpt lat="45.33112345066313" lon="9.457469655966595"><ele>78.0</ele><time>2026-03-29T15:26:42Z</time></trkpt><trkpt lat="45.33121868044455" lon="9.45738950580442"><ele>78.0</ele><time>2026-03-29T15:26:43Z</time></trkpt><trkpt lat="45.33130848583746" lon="9.457315436952822"><ele>78.0</ele><time>2026-03-29T15:26:44Z</time></trkpt><trkpt lat="45.331394493591844" lon="9.457245386892568"><ele>78.0</ele><time>2026-03-29T15:26:45Z</time></trkpt><trkpt lat="45.33147707709454" lon="9.457177579278717"><ele>78.33333333333333</ele><time>2026-03-29T15:26:46Z</time></trkpt><trkpt lat="45.33155363163165" lon="9.457114869288796"><ele>78.66666666666667</ele><time>2026-03-29T15:26:47Z</time></trkpt><trkpt lat="45.331619219419906" lon="9.457060338597493"><ele>79.0</ele><time>2026-03-29T15:26:48Z</time></trkpt><trkpt lat="45.3317083602554" lon="9.456983125787291"><ele>79.33333333333334</ele><time>2026-03-29T15:26:50Z</time></trkpt><trkpt lat="45.33177787947029" lon="9.456922108049998"><ele>79.66666666666667</ele><time>2026-03-29T15:26:53Z</time></trkpt><trkpt lat="45.33184281770224" lon="9.456896949655285"><ele>80.0</ele><time>2026-03-29T15:27:17Z</time></trkpt><trkpt lat="45.3319216054393" lon="9.456819936354108"><ele>80.0</ele><time>2026-03-29T15:27:19Z</time></trkpt><trkpt lat="45.331984459519475" lon="9.456770563303326"><ele>80.0</ele><time>2026-03-29T15:27:20Z</time></trkpt><trkpt lat="45.332050778534686" lon="9.456715723725221"><ele>80.0</ele><time>2026-03-29T15:27:21Z</time></trkpt><trkpt lat="45.33211939996658" lon="9.456656153474185"><ele>80.0</ele><time>2026-03-29T15:27:22Z</time></trkpt><trkpt lat="45.33219617010014" lon="9.456586976923917"><ele>80.0</ele><time>2026-03-29T15:27:23Z</time></trkpt><trkpt lat="45.33228653539499" lon="9.456512708043073"><ele>80.0</ele><time>2026-03-29T15:27:24Z</time></trkpt><trkpt lat="45.33238099086009" lon="9.456432185418555"><ele>80.0</ele><time>2026-03-29T15:27:25Z</time></trkpt><trkpt lat="45.33247906479866" lon="9.456348811333177"><ele>80.0</ele><time>2026-03-29T15:27:26Z</time></trkpt><trkpt lat="45.332589607116965" lon="9.456251429843329"><ele>80.0</ele><time>2026-03-29T15:27:27Z</time></trkpt><trkpt lat="45.332714779198064" lon="9.456136970449238"><ele>80.0</ele><time>2026-03-29T15:27:28Z</time></trkpt><trkpt lat="45.332850752017414" lon="9.456016792919128"><ele>80.0</ele><time>2026-03-29T15:27:29Z</time></trkpt><trkpt lat="45.33299575844859" lon="9.455892171676787"><ele>80.0</ele><time>2026-03-29T15:27:30Z</time></trkpt><trkpt lat="45.33316121480586" lon="9.455786577612056"><ele>80.0</ele><time>2026-03-29T15:27:31Z</time></trkpt><trkpt lat="45.33332245248863" lon="9.45563433147201"><ele>80.0</ele><time>2026-03-29T15:27:32Z</time></trkpt><trkpt lat="45.33349514964605" lon="9.455501831205897"><ele>80.0</ele><time>2026-03-29T15:27:33Z</time></trkpt><trkpt lat="45.333668319846645" lon="9.455367655707336"><ele>80.0</ele><time>2026-03-29T15:27:34Z</time></trkpt><trkpt lat="45.33384101540369" lon="9.455226009555831"><ele>80.0</ele><time>2026-03-29T15:27:35Z</time></trkpt><trkpt lat="45.334018373488135" lon="9.455082111986991"><ele>80.0</ele><time>2026-03-29T15:27:36Z</time></trkpt><trkpt lat="45.33419664569868" lon="9.45493247252787"><ele>80.0</ele><time>2026-03-29T15:27:37Z</time></trkpt><trkpt lat="45.33436826642959" lon="9.454767763925382"><ele>80.0</ele><time>2026-03-29T15:27:38Z</time></trkpt><trkpt lat="45.33453279822094" lon="9.45458586607918"><ele>80.0</ele><time>2026-03-29T15:27:39Z</time></trkpt><trkpt lat="45.33468307439727" lon="9.454374268474105"><ele>80.0</ele><time>2026-03-29T15:27:40Z</time></trkpt><trkpt lat="45.3348280780451" lon="9.454156737830191"><ele>80.0</ele><time>2026-03-29T15:27:41Z</time></trkpt><trkpt lat="45.334972723888214" lon="9.453944754962603"><ele>80.0</ele><time>2026-03-29T15:27:42Z</time></trkpt><trkpt lat="45.33511387068909" lon="9.453737472627"><ele>80.0</ele><time>2026-03-29T15:27:43Z</time></trkpt><trkpt lat="45.33525157337001" lon="9.453535428450085"><ele>80.33333333333334</ele><time>2026-03-29T15:27:44Z</time></trkpt><trkpt lat="45.33538800365625" lon="9.453335122200402"><ele>80.66666666666667</ele><time>2026-03-29T15:27:45Z</time></trkpt><trkpt lat="45.33552146346536" lon="9.4531371028247"><ele>81.0</ele><time>2026-03-29T15:27:46Z</time></trkpt><trkpt lat="45.335651152515794" lon="9.452948929817708"><ele>81.33333333333333</ele><time>2026-03-29T15:27:47Z</time></trkpt><trkpt lat="45.3357799558811" lon="9.452768871554703"><ele>81.66666666666666</ele><time>2026-03-29T15:27:48Z</time></trkpt><trkpt lat="45.33590504959422" lon="9.45260656173178"><ele>82.0</ele><time>2026-03-29T15:27:49Z</time></trkpt><trkpt lat="45.33602635497599" lon="9.452463664570319"><ele>82.0</ele><time>2026-03-29T15:27:50Z</time></trkpt><trkpt lat="45.33615122755484" lon="9.452325470814893"><ele>82.0</ele><time>2026-03-29T15:27:51Z</time></trkpt><trkpt lat="45.33628427340717" lon="9.452184704404964"><ele>82.0</ele><time>2026-03-29T15:27:52Z</time></trkpt><trkpt lat="45.336422979865965" lon="9.452044864342982"><ele>82.0</ele><time>2026-03-29T15:27:52.999Z</time></trkpt><trkpt lat="45.33656361153266" lon="9.451895704813852"><ele>82.0</ele><time>2026-03-29T15:27:53.999Z</time></trkpt><trkpt lat="45.33670758704063" lon="9.451747855170654"><ele>82.0</ele><time>2026-03-29T15:27:54.999Z</time></trkpt><trkpt lat="45.336850900138636" lon="9.45160484606978"><ele>82.0</ele><time>2026-03-29T15:27:55.999Z</time></trkpt><trkpt lat="45.336997834606436" lon="9.45147309789315"><ele>82.0</ele><time>2026-03-29T15:27:56.999Z</time></trkpt><trkpt lat="45.33715450106059" lon="9.451356141711662"><ele>82.0</ele><time>2026-03-29T15:27:57.999Z</time></trkpt><trkpt lat="45.337322999940014" lon="9.451257420926144"><ele>81.66666666666666</ele><time>2026-03-29T15:27:58.999Z</time></trkpt><trkpt lat="45.33749977644385" lon="9.451171060617861"><ele>81.33333333333333</ele><time>2026-03-29T15:27:59.999Z</time></trkpt><trkpt lat="45.33767962572446" lon="9.451094312831987"><ele>81.0</ele><time>2026-03-29T15:28:00.999Z</time></trkpt><trkpt lat="45.33786015592088" lon="9.45102065843845"><ele>81.0</ele><time>2026-03-29T15:28:01.999Z</time></trkpt><trkpt lat="45.338038709110975" lon="9.450927134581816"><ele>81.0</ele><time>2026-03-29T15:28:02.999Z</time></trkpt><trkpt lat="45.338206597171386" lon="9.450796145150134"><ele>81.0</ele><time>2026-03-29T15:28:03.999Z</time></trkpt><trkpt lat="45.33835637055682" lon="9.450628127304354"><ele>81.0</ele><time>2026-03-29T15:28:04.999Z</time></trkpt><trkpt lat="45.33849450962029" lon="9.45042991510552"><ele>81.0</ele><time>2026-03-29T15:28:05.999Z</time></trkpt><trkpt lat="45.338614509961964" lon="9.450223358900173"><ele>81.0</ele><time>2026-03-29T15:28:06.999Z</time></trkpt><trkpt lat="45.33873787590437" lon="9.450045412366364"><ele>81.0</ele><time>2026-03-29T15:28:07.999Z</time></trkpt><trkpt lat="45.338841733324635" lon="9.449863498203385"><ele>81.0</ele><time>2026-03-29T15:28:08.999Z</time></trkpt><trkpt lat="45.33897756711193" lon="9.44971745376415"><ele>81.0</ele><time>2026-03-29T15:28:09.999Z</time></trkpt><trkpt lat="45.33912806846478" lon="9.449594534951212"><ele>80.66666666666667</ele><time>2026-03-29T15:28:10.999Z</time></trkpt><trkpt lat="45.33929258094723" lon="9.44949809949082"><ele>80.33333333333334</ele><time>2026-03-29T15:28:11.999Z</time></trkpt><trkpt lat="45.33946617307243" lon="9.449429183863765"><ele>80.0</ele><time>2026-03-29T15:28:12.999Z</time></trkpt><trkpt lat="45.33964612238668" lon="9.449379895616532"><ele>80.0</ele><time>2026-03-29T15:28:13.999Z</time></trkpt><trkpt lat="45.33982932247774" lon="9.449332592527904"><ele>80.0</ele><time>2026-03-29T15:28:14.999Z</time></trkpt><trkpt lat="45.3400086651744" lon="9.449257714350942"><ele>80.0</ele><time>2026-03-29T15:28:15.999Z</time></trkpt><trkpt lat="45.340185624614975" lon="9.449156616683478"><ele>80.0</ele><time>2026-03-29T15:28:16.999Z</time></trkpt><trkpt lat="45.34035934425053" lon="9.449032093854273"><ele>80.0</ele><time>2026-03-29T15:28:17.999Z</time></trkpt><trkpt lat="45.340527577418214" lon="9.448889851094194"><ele>80.0</ele><time>2026-03-29T15:28:18.999Z</time></trkpt><trkpt lat="45.3406865587598" lon="9.448724002004118"><ele>79.66666666666667</ele><time>2026-03-29T15:28:19.999Z</time></trkpt><trkpt lat="45.3408359498771" lon="9.448536822112095"><ele>79.33333333333333</ele><time>2026-03-29T15:28:20.999Z</time></trkpt><trkpt lat="45.340979722684295" lon="9.448336947080794"><ele>79.0</ele><time>2026-03-29T15:28:21.999Z</time></trkpt><trkpt lat="45.341116141568826" lon="9.44813277646134"><ele>79.33333333333333</ele><time>2026-03-29T15:28:22.999Z</time></trkpt><trkpt lat="45.34125656122112" lon="9.447930860934003"><ele>79.66666666666667</ele><time>2026-03-29T15:28:23.999Z</time></trkpt><trkpt lat="45.34139500633164" lon="9.4477281276309"><ele>80.0</ele><time>2026-03-29T15:28:24.999Z</time></trkpt><trkpt lat="45.34153443449126" lon="9.447527675676495"><ele>80.0</ele><time>2026-03-29T15:28:25.999Z</time></trkpt><trkpt lat="45.34167768198397" lon="9.447336658303259"><ele>80.0</ele><time>2026-03-29T15:28:26.999Z</time></trkpt><trkpt lat="45.34181764304675" lon="9.447176523297705"><ele>80.0</ele><time>2026-03-29T15:28:27.999Z</time></trkpt><trkpt lat="45.34195962921179" lon="9.447046502726595"><ele>80.0</ele><time>2026-03-29T15:28:28.999Z</time></trkpt><trkpt lat="45.34209977213378" lon="9.446936329528805"><ele>80.0</ele><time>2026-03-29T15:28:29.999Z</time></trkpt><trkpt lat="45.34224051819883" lon="9.446854424114623"><ele>80.0</ele><time>2026-03-29T15:28:30.999Z</time></trkpt><trkpt lat="45.3423825598475" lon="9.446808763280625"><ele>80.66666666666667</ele><time>2026-03-29T15:28:31.999Z</time></trkpt><trkpt lat="45.34253156654662" lon="9.446798267566031"><ele>81.33333333333333</ele><time>2026-03-29T15:28:32.999Z</time></trkpt><trkpt lat="45.342679928351956" lon="9.446803982052204"><ele>82.0</ele><time>2026-03-29T15:28:33.999Z</time></trkpt><trkpt lat="45.34282689561789" lon="9.446748011259979"><ele>82.0</ele><time>2026-03-29T15:28:34.999Z</time></trkpt><trkpt lat="45.342971327133725" lon="9.446636164313812"><ele>82.0</ele><time>2026-03-29T15:28:35.999Z</time></trkpt><trkpt lat="45.34312687277147" lon="9.446512079898449"><ele>82.0</ele><time>2026-03-29T15:28:36.999Z</time></trkpt><trkpt lat="45.34329105918621" lon="9.44638985628263"><ele>82.33333333333333</ele><time>2026-03-29T15:28:37.999Z</time></trkpt><trkpt lat="45.34345339713009" lon="9.44626714736318"><ele>82.66666666666667</ele><time>2026-03-29T15:28:38.999Z</time></trkpt><trkpt lat="45.343623015350836" lon="9.446140052680464"><ele>83.0</ele><time>2026-03-29T15:28:39.999Z</time></trkpt><trkpt lat="45.343799210512266" lon="9.446009048930913"><ele>83.33333333333334</ele><time>2026-03-29T15:28:40.999Z</time></trkpt><trkpt lat="45.34397858842284" lon="9.445876066554144"><ele>83.66666666666667</ele><time>2026-03-29T15:28:41.999Z</time></trkpt><trkpt lat="45.34416360545831" lon="9.445739433843029"><ele>84.0</ele><time>2026-03-29T15:28:43Z</time></trkpt><trkpt lat="45.344348361770805" lon="9.445602753843904"><ele>84.0</ele><time>2026-03-29T15:28:44Z</time></trkpt><trkpt lat="45.344536554175434" lon="9.44546723200619"><ele>84.0</ele><time>2026-03-29T15:28:45Z</time></trkpt><trkpt lat="45.34472532662104" lon="9.445336340544804"><ele>84.0</ele><time>2026-03-29T15:28:46Z</time></trkpt><trkpt lat="45.344911641461074" lon="9.445222408154837"><ele>84.33333333333333</ele><time>2026-03-29T15:28:47Z</time></trkpt><trkpt lat="45.3450988382334" lon="9.445141524297297"><ele>84.66666666666666</ele><time>2026-03-29T15:28:48Z</time></trkpt><trkpt lat="45.34529095920646" lon="9.445090058742469"><ele>85.0</ele><time>2026-03-29T15:28:49Z</time></trkpt><trkpt lat="45.34548585773359" lon="9.445064229606862"><ele>85.0</ele><time>2026-03-29T15:28:50Z</time></trkpt><trkpt lat="45.3456819445419" lon="9.445039913934746"><ele>85.0</ele><time>2026-03-29T15:28:51Z</time></trkpt><trkpt lat="45.34587817489163" lon="9.445017440659498"><ele>85.0</ele><time>2026-03-29T15:28:52Z</time></trkpt><trkpt lat="45.34607745311713" lon="9.444995094948826"><ele>85.0</ele><time>2026-03-29T15:28:53Z</time></trkpt><trkpt lat="45.34627974640422" lon="9.444967768255319"><ele>85.0</ele><time>2026-03-29T15:28:54Z</time></trkpt><trkpt lat="45.34647844973092" lon="9.44492594934011"><ele>85.0</ele><time>2026-03-29T15:28:55Z</time></trkpt><trkpt lat="45.346672295824796" lon="9.44486152959449"><ele>85.0</ele><time>2026-03-29T15:28:56Z</time></trkpt><trkpt lat="45.34685824874061" lon="9.444769184806592"><ele>85.0</ele><time>2026-03-29T15:28:57Z</time></trkpt><trkpt lat="45.34703374399171" lon="9.444676988549718"><ele>85.0</ele><time>2026-03-29T15:28:58Z</time></trkpt><trkpt lat="45.34721070855159" lon="9.444587295414447"><ele>85.0</ele><time>2026-03-29T15:28:59Z</time></trkpt><trkpt lat="45.34738426621174" lon="9.444500252376768"><ele>85.0</ele><time>2026-03-29T15:29:00Z</time></trkpt><trkpt lat="45.34755501156147" lon="9.444421327130918"><ele>85.0</ele><time>2026-03-29T15:29:01Z</time></trkpt><trkpt lat="45.34771297595998" lon="9.444347894428962"><ele>85.0</ele><time>2026-03-29T15:29:02Z</time></trkpt><trkpt lat="45.34785901733618" lon="9.444280206759652"><ele>85.0</ele><time>2026-03-29T15:29:03Z</time></trkpt><trkpt lat="45.34798612705994" lon="9.444218985329297"><ele>85.0</ele><time>2026-03-29T15:29:04Z</time></trkpt><trkpt lat="45.34811387524452" lon="9.444158368181963"><ele>85.0</ele><time>2026-03-29T15:29:05Z</time></trkpt><trkpt lat="45.34823757633143" lon="9.444102139233342"><ele>85.5</ele><time>2026-03-29T15:29:06Z</time></trkpt><trkpt lat="45.34836098706408" lon="9.44404641766428"><ele>86.0</ele><time>2026-03-29T15:29:07Z</time></trkpt><trkpt lat="45.348484296692135" lon="9.44399632826609"><ele>86.5</ele><time>2026-03-29T15:29:08Z</time></trkpt><trkpt lat="45.34861027754399" lon="9.443947125868213"><ele>87.0</ele><time>2026-03-29T15:29:09Z</time></trkpt><trkpt lat="45.34873577328966" lon="9.443900341035743"><ele>87.0</ele><time>2026-03-29T15:29:10Z</time></trkpt><trkpt lat="45.3488576587603" lon="9.443856071068524"><ele>87.0</ele><time>2026-03-29T15:29:11Z</time></trkpt><trkpt lat="45.348973711319914" lon="9.443804279390811"><ele>87.0</ele><time>2026-03-29T15:29:12Z</time></trkpt><trkpt lat="45.349084280579405" lon="9.44374304421459"><ele>87.0</ele><time>2026-03-29T15:29:13Z</time></trkpt><trkpt lat="45.34918819015521" lon="9.443675503169272"><ele>87.0</ele><time>2026-03-29T15:29:14Z</time></trkpt><trkpt lat="45.34928720107414" lon="9.44361203623267"><ele>87.0</ele><time>2026-03-29T15:29:15Z</time></trkpt><trkpt lat="45.34939291236257" lon="9.443556460191521"><ele>87.0</ele><time>2026-03-29T15:29:16Z</time></trkpt><trkpt lat="45.34950196371753" lon="9.443516823965554"><ele>87.0</ele><time>2026-03-29T15:29:17Z</time></trkpt><trkpt lat="45.349612394781126" lon="9.443500020632179"><ele>87.0</ele><time>2026-03-29T15:29:18Z</time></trkpt><trkpt lat="45.34972061859917" lon="9.443506723849943"><ele>86.5</ele><time>2026-03-29T15:29:19Z</time></trkpt><trkpt lat="45.34983090553578" lon="9.443525919680601"><ele>86.0</ele><time>2026-03-29T15:29:20Z</time></trkpt><trkpt lat="45.349941400061205" lon="9.443548110036984"><ele>85.5</ele><time>2026-03-29T15:29:21Z</time></trkpt><trkpt lat="45.350055008305844" lon="9.443570643102252"><ele>85.0</ele><time>2026-03-29T15:29:22Z</time></trkpt><trkpt lat="45.35017000371318" lon="9.4435847761237"><ele>85.0</ele><time>2026-03-29T15:29:23Z</time></trkpt><trkpt lat="45.35028666152504" lon="9.44359475943954"><ele>85.0</ele><time>2026-03-29T15:29:24Z</time></trkpt><trkpt lat="45.35040905636114" lon="9.443601292809019"><ele>85.0</ele><time>2026-03-29T15:29:25Z</time></trkpt><trkpt lat="45.35053499152929" lon="9.44359933577339"><ele>85.0</ele><time>2026-03-29T15:29:26Z</time></trkpt><trkpt lat="45.35066462616453" lon="9.443576745165057"><ele>85.5</ele><time>2026-03-29T15:29:27Z</time></trkpt><trkpt lat="45.35079767579883" lon="9.443533564876281"><ele>86.0</ele><time>2026-03-29T15:29:28Z</time></trkpt><trkpt lat="45.350936746995366" lon="9.443484518059268"><ele>86.5</ele><time>2026-03-29T15:29:29Z</time></trkpt><trkpt lat="45.3510821460623" lon="9.443429944578618"><ele>87.0</ele><time>2026-03-29T15:29:30Z</time></trkpt><trkpt lat="45.35123414143726" lon="9.443376299516956"><ele>85.66666666666667</ele><time>2026-03-29T15:29:31Z</time></trkpt><trkpt lat="45.351390351959594" lon="9.443332596038845"><ele>84.33333333333334</ele><time>2026-03-29T15:29:32Z</time></trkpt><trkpt lat="45.35155077252338" lon="9.44330667269347"><ele>83.0</ele><time>2026-03-29T15:29:33Z</time></trkpt><trkpt lat="45.351715597939695" lon="9.443300032507823"><ele>83.0</ele><time>2026-03-29T15:29:34Z</time></trkpt><trkpt lat="45.35188742338846" lon="9.4433072654682"><ele>83.0</ele><time>2026-03-29T15:29:35Z</time></trkpt><trkpt lat="45.352059672403364" lon="9.443329201344385"><ele>83.0</ele><time>2026-03-29T15:29:36Z</time></trkpt><trkpt lat="45.35222238285087" lon="9.443358403890024"><ele>83.0</ele><time>2026-03-29T15:29:37Z</time></trkpt><trkpt lat="45.352380065772806" lon="9.443382920879642"><ele>83.0</ele><time>2026-03-29T15:29:38Z</time></trkpt><trkpt lat="45.35253857161982" lon="9.44340907211013"><ele>83.0</ele><time>2026-03-29T15:29:39Z</time></trkpt><trkpt lat="45.352688949545936" lon="9.443432856592967"><ele>83.0</ele><time>2026-03-29T15:29:40Z</time></trkpt><trkpt lat="45.35282998158012" lon="9.443455313006684"><ele>83.0</ele><time>2026-03-29T15:29:41Z</time></trkpt><trkpt lat="45.35296554573706" lon="9.443476869577863"><ele>83.0</ele><time>2026-03-29T15:29:42Z</time></trkpt><trkpt lat="45.353097221968895" lon="9.443499080026623"><ele>83.0</ele><time>2026-03-29T15:29:43Z</time></trkpt><trkpt lat="45.35322931870407" lon="9.443522581744228"><ele>83.0</ele><time>2026-03-29T15:29:44Z</time></trkpt><trkpt lat="45.353359669940794" lon="9.443548062438895"><ele>83.0</ele><time>2026-03-29T15:29:45Z</time></trkpt><trkpt lat="45.35349005852001" lon="9.443575939750751"><ele>83.0</ele><time>2026-03-29T15:29:46Z</time></trkpt><trkpt lat="45.353620528491994" lon="9.44359604453078"><ele>83.0</ele><time>2026-03-29T15:29:47Z</time></trkpt><trkpt lat="45.35375378821405" lon="9.443609123816346"><ele>83.5</ele><time>2026-03-29T15:29:48Z</time></trkpt><trkpt lat="45.35388807590325" lon="9.443614416939313"><ele>84.0</ele><time>2026-03-29T15:29:49Z</time></trkpt><trkpt lat="45.35401590580619" lon="9.4436105116011"><ele>84.5</ele><time>2026-03-29T15:29:50Z</time></trkpt><trkpt lat="45.35413839484916" lon="9.443600997162244"><ele>85.0</ele><time>2026-03-29T15:29:51Z</time></trkpt><trkpt lat="45.35426084758931" lon="9.443585667288707"><ele>85.0</ele><time>2026-03-29T15:29:52Z</time></trkpt><trkpt lat="45.35437894707246" lon="9.443570119806969"><ele>85.0</ele><time>2026-03-29T15:29:53Z</time></trkpt><trkpt lat="45.35449291273295" lon="9.443555123086822"><ele>85.0</ele><time>2026-03-29T15:29:54Z</time></trkpt><trkpt lat="45.35460069515608" lon="9.443538631465636"><ele>85.0</ele><time>2026-03-29T15:29:55Z</time></trkpt><trkpt lat="45.35470258640532" lon="9.443516851219849"><ele>85.0</ele><time>2026-03-29T15:29:56Z</time></trkpt><trkpt lat="45.35480094948871" lon="9.443495906880107"><ele>84.8</ele><time>2026-03-29T15:29:57Z</time></trkpt><trkpt lat="45.3548996203399" lon="9.443477126874484"><ele>84.6</ele><time>2026-03-29T15:29:58Z</time></trkpt><trkpt lat="45.35499473568935" lon="9.44346008290455"><ele>84.4</ele><time>2026-03-29T15:29:58.999Z</time></trkpt><trkpt lat="45.35508914006836" lon="9.443442415380884"><ele>84.2</ele><time>2026-03-29T15:29:59.999Z</time></trkpt><trkpt lat="45.3551759585192" lon="9.443425053987573"><ele>84.0</ele><time>2026-03-29T15:30:00.999Z</time></trkpt><trkpt lat="45.35525822722157" lon="9.443410053458425"><ele>84.0</ele><time>2026-03-29T15:30:01.999Z</time></trkpt><trkpt lat="45.35533700415846" lon="9.443397788849698"><ele>84.0</ele><time>2026-03-29T15:30:02.999Z</time></trkpt><trkpt lat="45.35541757595563" lon="9.443381651730984"><ele>84.0</ele><time>2026-03-29T15:30:03.999Z</time></trkpt><trkpt lat="45.35550019873574" lon="9.443366931086594"><ele>84.0</ele><time>2026-03-29T15:30:04.999Z</time></trkpt><trkpt lat="45.355584673297514" lon="9.443358182707636"><ele>84.0</ele><time>2026-03-29T15:30:05.999Z</time></trkpt><trkpt lat="45.35567030947658" lon="9.443362829894289"><ele>84.0</ele><time>2026-03-29T15:30:06.999Z</time></trkpt><trkpt lat="45.35575766021576" lon="9.44338173703795"><ele>84.0</ele><time>2026-03-29T15:30:07.999Z</time></trkpt><trkpt lat="45.35584408582511" lon="9.443400356194047"><ele>84.0</ele><time>2026-03-29T15:30:08.999Z</time></trkpt><trkpt lat="45.355930473629485" lon="9.443421468694787"><ele>84.0</ele><time>2026-03-29T15:30:09.999Z</time></trkpt><trkpt lat="45.356014998627124" lon="9.443353591030675"><ele>84.0</ele><time>2026-03-29T15:30:10.999Z</time></trkpt><trkpt lat="45.35609108470545" lon="9.443288583239195"><ele>84.0</ele><time>2026-03-29T15:30:11.999Z</time></trkpt><trkpt lat="45.35617414431363" lon="9.443229064566951"><ele>84.0</ele><time>2026-03-29T15:30:12.999Z</time></trkpt><trkpt lat="45.35626417720304" lon="9.443189413816535"><ele>84.0</ele><time>2026-03-29T15:30:13.999Z</time></trkpt><trkpt lat="45.35635629108349" lon="9.44315771522783"><ele>84.0</ele><time>2026-03-29T15:30:14.999Z</time></trkpt><trkpt lat="45.35644908168868" lon="9.443127119956761"><ele>84.0</ele><time>2026-03-29T15:30:15.999Z</time></trkpt><trkpt lat="45.35654154171617" lon="9.443098643521482"><ele>84.0</ele><time>2026-03-29T15:30:16.999Z</time></trkpt><trkpt lat="45.35663511126967" lon="9.443070447774554"><ele>84.33333333333333</ele><time>2026-03-29T15:30:17.999Z</time></trkpt><trkpt lat="45.35672428239644" lon="9.44304470150997"><ele>84.66666666666667</ele><time>2026-03-29T15:30:18.999Z</time></trkpt><trkpt lat="45.35678741060754" lon="9.443027937951925"><ele>85.0</ele><time>2026-03-29T15:30:19.999Z</time></trkpt><trkpt lat="45.35686099207316" lon="9.44301962450732"><ele>85.33333333333334</ele><time>2026-03-29T15:30:21.999Z</time></trkpt><trkpt lat="45.356931847919704" lon="9.443013523240282"><ele>85.66666666666667</ele><time>2026-03-29T15:30:24.999Z</time></trkpt><trkpt lat="45.357022012199906" lon="9.442984657857274"><ele>86.0</ele><time>2026-03-29T15:30:32.999Z</time></trkpt><trkpt lat="45.35712815994325" lon="9.442950536845094"><ele>86.0</ele><time>2026-03-29T15:30:34.999Z</time></trkpt><trkpt lat="45.35719382926535" lon="9.442929755722101"><ele>86.0</ele><time>2026-03-29T15:30:35.999Z</time></trkpt><trkpt lat="45.3572683487133" lon="9.442907462490446"><ele>86.0</ele><time>2026-03-29T15:30:36.999Z</time></trkpt><trkpt lat="45.35735279897304" lon="9.442879070995314"><ele>86.0</ele><time>2026-03-29T15:30:37.999Z</time></trkpt><trkpt lat="45.35744656564605" lon="9.442846606281934"><ele>86.0</ele><time>2026-03-29T15:30:38.999Z</time></trkpt><trkpt lat="45.3575395574756" lon="9.442815758328077"><ele>86.0</ele><time>2026-03-29T15:30:39.999Z</time></trkpt><trkpt lat="45.35763406426865" lon="9.44278727864408"><ele>86.0</ele><time>2026-03-29T15:30:40.999Z</time></trkpt><trkpt lat="45.35772984831854" lon="9.442760661977443"><ele>86.0</ele><time>2026-03-29T15:30:41.999Z</time></trkpt><trkpt lat="45.35782830610663" lon="9.44274198413454"><ele>86.0</ele><time>2026-03-29T15:30:42.999Z</time></trkpt><trkpt lat="45.35792587138268" lon="9.442729403482742"><ele>86.0</ele><time>2026-03-29T15:30:43.999Z</time></trkpt><trkpt lat="45.358025240229935" lon="9.442726242152242"><ele>86.0</ele><time>2026-03-29T15:30:44.999Z</time></trkpt><trkpt lat="45.35813543782491" lon="9.442727058469933"><ele>86.0</ele><time>2026-03-29T15:30:45.999Z</time></trkpt><trkpt lat="45.358253541692264" lon="9.442726226379085"><ele>86.0</ele><time>2026-03-29T15:30:46.999Z</time></trkpt><trkpt lat="45.358378766278356" lon="9.442714372611603"><ele>86.0</ele><time>2026-03-29T15:30:47.999Z</time></trkpt><trkpt lat="45.35851375767475" lon="9.442707460502007"><ele>86.0</ele><time>2026-03-29T15:30:49Z</time></trkpt><trkpt lat="45.35865749016672" lon="9.442699418553673"><ele>86.0</ele><time>2026-03-29T15:30:50Z</time></trkpt><trkpt lat="45.358806524016174" lon="9.442685313952035"><ele>86.0</ele><time>2026-03-29T15:30:51Z</time></trkpt><trkpt lat="45.35894844687751" lon="9.442659916673161"><ele>86.0</ele><time>2026-03-29T15:30:52Z</time></trkpt><trkpt lat="45.359079042056216" lon="9.442617797275878"><ele>86.0</ele><time>2026-03-29T15:30:53Z</time></trkpt><trkpt lat="45.35920052615598" lon="9.442566550806102"><ele>86.0</ele><time>2026-03-29T15:30:54Z</time></trkpt><trkpt lat="45.35930849626806" lon="9.442516965504943"><ele>86.0</ele><time>2026-03-29T15:30:55Z</time></trkpt><trkpt lat="45.35940475038602" lon="9.442482257697193"><ele>86.0</ele><time>2026-03-29T15:30:56Z</time></trkpt><trkpt lat="45.35949280674099" lon="9.442472409923566"><ele>86.0</ele><time>2026-03-29T15:30:57Z</time></trkpt><trkpt lat="45.35957583617107" lon="9.442487656585277"><ele>86.0</ele><time>2026-03-29T15:30:58Z</time></trkpt><trkpt lat="45.35965033128454" lon="9.442515644255733"><ele>85.8</ele><time>2026-03-29T15:30:59Z</time></trkpt><trkpt lat="45.35972629448883" lon="9.44245143399717"><ele>85.6</ele><time>2026-03-29T15:31:00Z</time></trkpt><trkpt lat="45.35981472547115" lon="9.442374784791804"><ele>85.4</ele><time>2026-03-29T15:31:01Z</time></trkpt><trkpt lat="45.35991404220554" lon="9.442282736646728"><ele>85.2</ele><time>2026-03-29T15:31:02Z</time></trkpt><trkpt lat="45.36003085887816" lon="9.442205383217598"><ele>85.0</ele><time>2026-03-29T15:31:03Z</time></trkpt><trkpt lat="45.360163540821404" lon="9.442141270254417"><ele>85.0</ele><time>2026-03-29T15:31:04Z</time></trkpt><trkpt lat="45.36030503696588" lon="9.442079143097434"><ele>85.0</ele><time>2026-03-29T15:31:05Z</time></trkpt><trkpt lat="45.36044738302273" lon="9.442022558301003"><ele>85.0</ele><time>2026-03-29T15:31:06Z</time></trkpt><trkpt lat="45.36060061973288" lon="9.441968292381087"><ele>85.0</ele><time>2026-03-29T15:31:07Z</time></trkpt><trkpt lat="45.36075913859883" lon="9.441914022664765"><ele>85.0</ele><time>2026-03-29T15:31:08Z</time></trkpt><trkpt lat="45.36091261140554" lon="9.441860732517767"><ele>85.0</ele><time>2026-03-29T15:31:09Z</time></trkpt><trkpt lat="45.361056369110045" lon="9.441814881865495"><ele>85.0</ele><time>2026-03-29T15:31:10Z</time></trkpt><trkpt lat="45.361196427040554" lon="9.441771802003604"><ele>85.0</ele><time>2026-03-29T15:31:11Z</time></trkpt><trkpt lat="45.3613297273962" lon="9.441728122099386"><ele>85.0</ele><time>2026-03-29T15:31:12Z</time></trkpt><trkpt lat="45.36145734177774" lon="9.441679400288754"><ele>85.0</ele><time>2026-03-29T15:31:13Z</time></trkpt><trkpt lat="45.36158287182051" lon="9.441629962612119"><ele>85.25</ele><time>2026-03-29T15:31:14Z</time></trkpt><trkpt lat="45.36170839710241" lon="9.441587782852832"><ele>85.5</ele><time>2026-03-29T15:31:15Z</time></trkpt><trkpt lat="45.36183082009102" lon="9.441545181136386"><ele>85.75</ele><time>2026-03-29T15:31:16Z</time></trkpt><trkpt lat="45.36194124143585" lon="9.441507326403729"><ele>86.0</ele><time>2026-03-29T15:31:17Z</time></trkpt><trkpt lat="45.36204941981406" lon="9.4414883957512"><ele>86.0</ele><time>2026-03-29T15:31:18Z</time></trkpt><trkpt lat="45.36215994596382" lon="9.441497416755924"><ele>86.0</ele><time>2026-03-29T15:31:19Z</time></trkpt><trkpt lat="45.36228254616197" lon="9.441524316664383"><ele>86.0</ele><time>2026-03-29T15:31:20Z</time></trkpt><trkpt lat="45.3624159990409" lon="9.441533200019139"><ele>86.0</ele><time>2026-03-29T15:31:21Z</time></trkpt><trkpt lat="45.362560280579345" lon="9.441530795631598"><ele>85.66666666666667</ele><time>2026-03-29T15:31:22Z</time></trkpt><trkpt lat="45.3627112197256" lon="9.441554343980167"><ele>85.33333333333333</ele><time>2026-03-29T15:31:23Z</time></trkpt><trkpt lat="45.36285849008909" lon="9.44158821279433"><ele>85.0</ele><time>2026-03-29T15:31:24Z</time></trkpt><trkpt lat="45.363020759013466" lon="9.441610948557353"><ele>85.33333333333333</ele><time>2026-03-29T15:31:25Z</time></trkpt><trkpt lat="45.36319254147544" lon="9.441619365696576"><ele>85.66666666666667</ele><time>2026-03-29T15:31:26Z</time></trkpt><trkpt lat="45.36336980871092" lon="9.441623646151367"><ele>86.0</ele><time>2026-03-29T15:31:27Z</time></trkpt><trkpt lat="45.36355196578014" lon="9.441629907264174"><ele>86.0</ele><time>2026-03-29T15:31:28Z</time></trkpt><trkpt lat="45.36373402214673" lon="9.441638137489324"><ele>86.0</ele><time>2026-03-29T15:31:29Z</time></trkpt><trkpt lat="45.36391808187343" lon="9.441646537141485"><ele>86.0</ele><time>2026-03-29T15:31:30Z</time></trkpt><trkpt lat="45.36410655359589" lon="9.441658440705964"><ele>86.66666666666667</ele><time>2026-03-29T15:31:31Z</time></trkpt><trkpt lat="45.36429488813198" lon="9.441675390962839"><ele>87.33333333333333</ele><time>2026-03-29T15:31:32Z</time></trkpt><trkpt lat="45.364484372274646" lon="9.441688224519186"><ele>88.0</ele><time>2026-03-29T15:31:33Z</time></trkpt><trkpt lat="45.36467618661032" lon="9.441696072915438"><ele>87.0</ele><time>2026-03-29T15:31:34Z</time></trkpt><trkpt lat="45.36486922894734" lon="9.441704124593064"><ele>86.0</ele><time>2026-03-29T15:31:35Z</time></trkpt><trkpt lat="45.36506135037265" lon="9.441713753192166"><ele>85.0</ele><time>2026-03-29T15:31:36Z</time></trkpt><trkpt lat="45.36525566536961" lon="9.441719797296523"><ele>85.0</ele><time>2026-03-29T15:31:37Z</time></trkpt><trkpt lat="45.36545320162534" lon="9.441720210685489"><ele>85.0</ele><time>2026-03-29T15:31:38Z</time></trkpt><trkpt lat="45.36565600030033" lon="9.441748620945805"><ele>85.0</ele><time>2026-03-29T15:31:39Z</time></trkpt><trkpt lat="45.36585695729096" lon="9.441759972983567"><ele>85.66666666666666</ele><time>2026-03-29T15:31:40Z</time></trkpt><trkpt lat="45.36605810761674" lon="9.441757936418693"><ele>86.33333333333333</ele><time>2026-03-29T15:31:41Z</time></trkpt><trkpt lat="45.36626086808213" lon="9.441785474799794"><ele>87.0</ele><time>2026-03-29T15:31:42Z</time></trkpt><trkpt lat="45.36646646933785" lon="9.441806852159909"><ele>87.0</ele><time>2026-03-29T15:31:43Z</time></trkpt><trkpt lat="45.36667301250775" lon="9.441818479662391"><ele>87.0</ele><time>2026-03-29T15:31:44Z</time></trkpt><trkpt lat="45.36688033717559" lon="9.441821864664005"><ele>87.0</ele><time>2026-03-29T15:31:45Z</time></trkpt><trkpt lat="45.36708771345075" lon="9.441825859678014"><ele>88.0</ele><time>2026-03-29T15:31:46Z</time></trkpt><trkpt lat="45.36729093409948" lon="9.441831238064005"><ele>89.0</ele><time>2026-03-29T15:31:47Z</time></trkpt><trkpt lat="45.36749264406259" lon="9.441831699827"><ele>90.0</ele><time>2026-03-29T15:31:48Z</time></trkpt><trkpt lat="45.36769326865534" lon="9.4418116646302"><ele>90.0</ele><time>2026-03-29T15:31:49Z</time></trkpt><trkpt lat="45.3678929371291" lon="9.441774083510206"><ele>90.0</ele><time>2026-03-29T15:31:50Z</time></trkpt><trkpt lat="45.36809210509909" lon="9.441711241407019"><ele>90.0</ele><time>2026-03-29T15:31:51Z</time></trkpt><trkpt lat="45.36828571520736" lon="9.441624415324064"><ele>89.33333333333333</ele><time>2026-03-29T15:31:52Z</time></trkpt><trkpt lat="45.368475916080925" lon="9.441516789291004"><ele>88.66666666666666</ele><time>2026-03-29T15:31:53Z</time></trkpt><trkpt lat="45.368661965470245" lon="9.441409016636873"><ele>88.0</ele><time>2026-03-29T15:31:54Z</time></trkpt><trkpt lat="45.36884818940538" lon="9.441308228786713"><ele>88.66666666666666</ele><time>2026-03-29T15:31:55Z</time></trkpt><trkpt lat="45.36903823374561" lon="9.441219934943547"><ele>89.33333333333333</ele><time>2026-03-29T15:31:56Z</time></trkpt><trkpt lat="45.369234965325774" lon="9.441150783786208"><ele>90.0</ele><time>2026-03-29T15:31:57Z</time></trkpt><trkpt lat="45.36943613754249" lon="9.441108517925043"><ele>90.0</ele><time>2026-03-29T15:31:58Z</time></trkpt><trkpt lat="45.36964063452243" lon="9.441090452466828"><ele>90.0</ele><time>2026-03-29T15:31:59Z</time></trkpt><trkpt lat="45.36984368536667" lon="9.44108860722858"><ele>90.0</ele><time>2026-03-29T15:31:59.999Z</time></trkpt><trkpt lat="45.37004777634191" lon="9.441082812136647"><ele>89.0</ele><time>2026-03-29T15:32:00.999Z</time></trkpt><trkpt lat="45.37025248611779" lon="9.441072835977993"><ele>88.0</ele><time>2026-03-29T15:32:01.999Z</time></trkpt><trkpt lat="45.37045669666665" lon="9.44104938471365"><ele>87.0</ele><time>2026-03-29T15:32:02.999Z</time></trkpt><trkpt lat="45.37065648388554" lon="9.441006871333615"><ele>86.66666666666667</ele><time>2026-03-29T15:32:03.999Z</time></trkpt><trkpt lat="45.370855499724854" lon="9.440944460841255"><ele>86.33333333333334</ele><time>2026-03-29T15:32:04.999Z</time></trkpt><trkpt lat="45.37105354913197" lon="9.440873084227547"><ele>86.0</ele><time>2026-03-29T15:32:05.999Z</time></trkpt><trkpt lat="45.37125079838055" lon="9.440804187092153"><ele>86.0</ele><time>2026-03-29T15:32:06.999Z</time></trkpt><trkpt lat="45.37144954403935" lon="9.4407414778893"><ele>86.0</ele><time>2026-03-29T15:32:07.999Z</time></trkpt><trkpt lat="45.371649614117686" lon="9.440678530055084"><ele>86.0</ele><time>2026-03-29T15:32:08.999Z</time></trkpt><trkpt lat="45.37184892018636" lon="9.440614113084846"><ele>86.0</ele><time>2026-03-29T15:32:09.999Z</time></trkpt><trkpt lat="45.372050687225496" lon="9.440547720920058"><ele>86.0</ele><time>2026-03-29T15:32:10.999Z</time></trkpt><trkpt lat="45.3722528835874" lon="9.440483814740519"><ele>86.0</ele><time>2026-03-29T15:32:11.999Z</time></trkpt><trkpt lat="45.37245445406104" lon="9.44041760217391"><ele>87.0</ele><time>2026-03-29T15:32:12.999Z</time></trkpt><trkpt lat="45.372658592415426" lon="9.440355274076216"><ele>88.0</ele><time>2026-03-29T15:32:13.999Z</time></trkpt><trkpt lat="45.37286093788274" lon="9.440292961595949"><ele>89.0</ele><time>2026-03-29T15:32:14.999Z</time></trkpt><trkpt lat="45.37306468887166" lon="9.440227845497889"><ele>89.33333333333334</ele><time>2026-03-29T15:32:15.999Z</time></trkpt><trkpt lat="45.373271999479655" lon="9.440158773342416"><ele>89.66666666666667</ele><time>2026-03-29T15:32:16.999Z</time></trkpt><trkpt lat="45.373477902768784" lon="9.440088521528237"><ele>90.0</ele><time>2026-03-29T15:32:17.999Z</time></trkpt><trkpt lat="45.37368195266508" lon="9.440021329191227"><ele>89.33333333333333</ele><time>2026-03-29T15:32:18.999Z</time></trkpt><trkpt lat="45.37388710058083" lon="9.439956558597995"><ele>88.66666666666666</ele><time>2026-03-29T15:32:19.999Z</time></trkpt><trkpt lat="45.37409166218364" lon="9.439891091192218"><ele>88.0</ele><time>2026-03-29T15:32:20.999Z</time></trkpt><trkpt lat="45.374294587433724" lon="9.439826956468654"><ele>88.0</ele><time>2026-03-29T15:32:21.999Z</time></trkpt><trkpt lat="45.37449621284213" lon="9.439763870464056"><ele>88.0</ele><time>2026-03-29T15:32:22.999Z</time></trkpt><trkpt lat="45.37469999401832" lon="9.439699150257447"><ele>88.0</ele><time>2026-03-29T15:32:23.999Z</time></trkpt><trkpt lat="45.37490552602277" lon="9.439639482090353"><ele>88.0</ele><time>2026-03-29T15:32:24.999Z</time></trkpt><trkpt lat="45.37511284993226" lon="9.439588736485126"><ele>88.0</ele><time>2026-03-29T15:32:25.999Z</time></trkpt><trkpt lat="45.37532156683012" lon="9.439556994722953"><ele>88.0</ele><time>2026-03-29T15:32:26.999Z</time></trkpt><trkpt lat="45.3755327066908" lon="9.439544308542697"><ele>88.0</ele><time>2026-03-29T15:32:27.999Z</time></trkpt><trkpt lat="45.37574221521579" lon="9.439553577824755"><ele>88.0</ele><time>2026-03-29T15:32:28.999Z</time></trkpt><trkpt lat="45.37595250123874" lon="9.439589164441154"><ele>88.0</ele><time>2026-03-29T15:32:29.999Z</time></trkpt><trkpt lat="45.37615996836962" lon="9.439643879792943"><ele>88.33333333333333</ele><time>2026-03-29T15:32:30.999Z</time></trkpt><trkpt lat="45.37636590925533" lon="9.439698171893701"><ele>88.66666666666667</ele><time>2026-03-29T15:32:31.999Z</time></trkpt><trkpt lat="45.37657181843791" lon="9.439749363468003"><ele>89.0</ele><time>2026-03-29T15:32:32.999Z</time></trkpt><trkpt lat="45.37677971783176" lon="9.439796517593887"><ele>89.0</ele><time>2026-03-29T15:32:33.999Z</time></trkpt><trkpt lat="45.37698631779931" lon="9.439842241270087"><ele>89.0</ele><time>2026-03-29T15:32:34.999Z</time></trkpt><trkpt lat="45.37719766645292" lon="9.43988818626746"><ele>89.0</ele><time>2026-03-29T15:32:35.999Z</time></trkpt><trkpt lat="45.37740763612778" lon="9.439928769350457"><ele>88.33333333333334</ele><time>2026-03-29T15:32:36.999Z</time></trkpt><trkpt lat="45.377617540487925" lon="9.439955245607997"><ele>87.66666666666667</ele><time>2026-03-29T15:32:37.999Z</time></trkpt><trkpt lat="45.37782778466519" lon="9.439966173720382"><ele>87.0</ele><time>2026-03-29T15:32:38.999Z</time></trkpt><trkpt lat="45.378037630066785" lon="9.439967174842558"><ele>87.0</ele><time>2026-03-29T15:32:39.999Z</time></trkpt><trkpt lat="45.37824671470642" lon="9.43995294633913"><ele>87.0</ele><time>2026-03-29T15:32:40.999Z</time></trkpt><trkpt lat="45.378452021135715" lon="9.439922894935872"><ele>87.0</ele><time>2026-03-29T15:32:41.999Z</time></trkpt><trkpt lat="45.378656033982104" lon="9.43987538024904"><ele>87.33333333333333</ele><time>2026-03-29T15:32:42.999Z</time></trkpt><trkpt lat="45.37885739615689" lon="9.43981624617748"><ele>87.66666666666666</ele><time>2026-03-29T15:32:43.999Z</time></trkpt><trkpt lat="45.37905836643749" lon="9.439751863402925"><ele>88.0</ele><time>2026-03-29T15:32:44.999Z</time></trkpt><trkpt lat="45.37925675388563" lon="9.439681384406768"><ele>88.33333333333333</ele><time>2026-03-29T15:32:45.999Z</time></trkpt><trkpt lat="45.379454898618064" lon="9.439608777949553"><ele>88.66666666666667</ele><time>2026-03-29T15:32:46.999Z</time></trkpt><trkpt lat="45.37965174496215" lon="9.43953395721817"><ele>89.0</ele><time>2026-03-29T15:32:47.999Z</time></trkpt><trkpt lat="45.37984895192588" lon="9.439464645024835"><ele>89.0</ele><time>2026-03-29T15:32:48.999Z</time></trkpt><trkpt lat="45.38004866234706" lon="9.439395557529613"><ele>89.0</ele><time>2026-03-29T15:32:49.999Z</time></trkpt><trkpt lat="45.38024760795716" lon="9.439325477581072"><ele>89.0</ele><time>2026-03-29T15:32:50.999Z</time></trkpt><trkpt lat="45.38044671487204" lon="9.439254621239257"><ele>89.0</ele><time>2026-03-29T15:32:51.999Z</time></trkpt><trkpt lat="45.38064713332817" lon="9.439185291826622"><ele>89.0</ele><time>2026-03-29T15:32:52.999Z</time></trkpt><trkpt lat="45.380846616289865" lon="9.439115960210202"><ele>89.0</ele><time>2026-03-29T15:32:53.999Z</time></trkpt><trkpt lat="45.381044745868145" lon="9.43904522184791"><ele>89.0</ele><time>2026-03-29T15:32:55Z</time></trkpt><trkpt lat="45.38124384445007" lon="9.438973932089999"><ele>89.0</ele><time>2026-03-29T15:32:56Z</time></trkpt><trkpt lat="45.38143819632351" lon="9.438905235938169"><ele>89.0</ele><time>2026-03-29T15:32:57Z</time></trkpt><trkpt lat="45.381628607016225" lon="9.438839765685614"><ele>88.66666666666667</ele><time>2026-03-29T15:32:58Z</time></trkpt><trkpt lat="45.38180976157163" lon="9.438776626262644"><ele>88.33333333333333</ele><time>2026-03-29T15:32:59Z</time></trkpt><trkpt lat="45.38197811159395" lon="9.43871590680438"><ele>88.0</ele><time>2026-03-29T15:33:00Z</time></trkpt><trkpt lat="45.382137521364214" lon="9.438658014070349"><ele>88.0</ele><time>2026-03-29T15:33:01Z</time></trkpt><trkpt lat="45.38228065493092" lon="9.438600504388734"><ele>88.0</ele><time>2026-03-29T15:33:02Z</time></trkpt><trkpt lat="45.382410639571326" lon="9.438543788376041"><ele>88.0</ele><time>2026-03-29T15:33:03Z</time></trkpt><trkpt lat="45.38250880340844" lon="9.438507169898585"><ele>88.0</ele><time>2026-03-29T15:33:04Z</time></trkpt><trkpt lat="45.38258549571797" lon="9.438490098156267"><ele>88.0</ele><time>2026-03-29T15:33:05Z</time></trkpt><trkpt lat="45.382667554929" lon="9.438484163419293"><ele>88.0</ele><time>2026-03-29T15:33:06Z</time></trkpt><trkpt lat="45.38274310001289" lon="9.438498898454071"><ele>88.0</ele><time>2026-03-29T15:33:07Z</time></trkpt><trkpt lat="45.382812559619275" lon="9.438507377555576"><ele>88.0</ele><time>2026-03-29T15:33:08Z</time></trkpt><trkpt lat="45.382879508318986" lon="9.438463706548676"><ele>88.0</ele><time>2026-03-29T15:33:09Z</time></trkpt><trkpt lat="45.382921315114515" lon="9.438356934141664"><ele>88.0</ele><time>2026-03-29T15:33:10Z</time></trkpt><trkpt lat="45.382920469199775" lon="9.438228881528381"><ele>88.0</ele><time>2026-03-29T15:33:11Z</time></trkpt><trkpt lat="45.38288787764923" lon="9.438111657920205"><ele>88.0</ele><time>2026-03-29T15:33:12Z</time></trkpt><trkpt lat="45.38282099246043" lon="9.43801083194664"><ele>88.0</ele><time>2026-03-29T15:33:13Z</time></trkpt><trkpt lat="45.382744697141725" lon="9.43789225781767"><ele>88.0</ele><time>2026-03-29T15:33:14Z</time></trkpt><trkpt lat="45.38269164083027" lon="9.437723125506375"><ele>88.0</ele><time>2026-03-29T15:33:15Z</time></trkpt><trkpt lat="45.382646553415626" lon="9.437527615038189"><ele>88.0</ele><time>2026-03-29T15:33:16Z</time></trkpt><trkpt lat="45.38260050212915" lon="9.437329371569968"><ele>88.0</ele><time>2026-03-29T15:33:17Z</time></trkpt><trkpt lat="45.38255315871398" lon="9.437105370458104"><ele>88.0</ele><time>2026-03-29T15:33:18Z</time></trkpt><trkpt lat="45.38250643996367" lon="9.436873958276795"><ele>88.0</ele><time>2026-03-29T15:33:19Z</time></trkpt><trkpt lat="45.3824561584371" lon="9.43664505666966"><ele>88.0</ele><time>2026-03-29T15:33:20Z</time></trkpt><trkpt lat="45.382396462311284" lon="9.43640408096024"><ele>88.0</ele><time>2026-03-29T15:33:21Z</time></trkpt><trkpt lat="45.38233788161087" lon="9.436153752344238"><ele>88.33333333333333</ele><time>2026-03-29T15:33:22Z</time></trkpt><trkpt lat="45.38228013206635" lon="9.43589970046117"><ele>88.66666666666667</ele><time>2026-03-29T15:33:23Z</time></trkpt><trkpt lat="45.382220752192524" lon="9.435645012797568"><ele>89.0</ele><time>2026-03-29T15:33:24Z</time></trkpt><trkpt lat="45.38216206273498" lon="9.435392558935675"><ele>89.0</ele><time>2026-03-29T15:33:25Z</time></trkpt><trkpt lat="45.38210047245232" lon="9.435129410142736"><ele>89.0</ele><time>2026-03-29T15:33:26Z</time></trkpt><trkpt lat="45.382037942150575" lon="9.434864610688399"><ele>89.0</ele><time>2026-03-29T15:33:27Z</time></trkpt><trkpt lat="45.38197479136604" lon="9.434594125016279"><ele>89.0</ele><time>2026-03-29T15:33:28Z</time></trkpt><trkpt lat="45.38191247242653" lon="9.434320970874358"><ele>89.0</ele><time>2026-03-29T15:33:29Z</time></trkpt><trkpt lat="45.3818502615169" lon="9.434049202449964"><ele>89.0</ele><time>2026-03-29T15:33:30Z</time></trkpt><trkpt lat="45.38178405130869" lon="9.43377664392656"><ele>89.0</ele><time>2026-03-29T15:33:31Z</time></trkpt><trkpt lat="45.38171836181981" lon="9.433506190791103"><ele>89.0</ele><time>2026-03-29T15:33:32Z</time></trkpt><trkpt lat="45.38165502260878" lon="9.433233219338598"><ele>89.0</ele><time>2026-03-29T15:33:33Z</time></trkpt><trkpt lat="45.38159372696541" lon="9.432962323174253"><ele>89.0</ele><time>2026-03-29T15:33:34Z</time></trkpt><trkpt lat="45.38153098316622" lon="9.432686472064082"><ele>89.0</ele><time>2026-03-29T15:33:35Z</time></trkpt><trkpt lat="45.38146779531361" lon="9.432410826892664"><ele>89.0</ele><time>2026-03-29T15:33:36Z</time></trkpt><trkpt lat="45.38140164420167" lon="9.432133836068134"><ele>89.0</ele><time>2026-03-29T15:33:37Z</time></trkpt><trkpt lat="45.3813359290337" lon="9.431858223479178"><ele>89.0</ele><time>2026-03-29T15:33:38Z</time></trkpt><trkpt lat="45.38127215406657" lon="9.431581176555852"><ele>89.0</ele><time>2026-03-29T15:33:39Z</time></trkpt><trkpt lat="45.38120889565103" lon="9.431304194817162"><ele>89.0</ele><time>2026-03-29T15:33:40Z</time></trkpt><trkpt lat="45.38114476356233" lon="9.431029041927504"><ele>89.0</ele><time>2026-03-29T15:33:41Z</time></trkpt><trkpt lat="45.38107910699006" lon="9.430753631392273"><ele>89.0</ele><time>2026-03-29T15:33:42Z</time></trkpt><trkpt lat="45.38101316667376" lon="9.43047446246281"><ele>88.66666666666667</ele><time>2026-03-29T15:33:43Z</time></trkpt><trkpt lat="45.38094652032465" lon="9.43019389797078"><ele>88.33333333333333</ele><time>2026-03-29T15:33:44Z</time></trkpt><trkpt lat="45.38088056643817" lon="9.429913966034793"><ele>88.0</ele><time>2026-03-29T15:33:45Z</time></trkpt><trkpt lat="45.3808163317483" lon="9.429632482843912"><ele>88.0</ele><time>2026-03-29T15:33:46Z</time></trkpt><trkpt lat="45.38075242298302" lon="9.429351637110392"><ele>88.0</ele><time>2026-03-29T15:33:47Z</time></trkpt><trkpt lat="45.38069022713939" lon="9.429073932085588"><ele>88.0</ele><time>2026-03-29T15:33:48Z</time></trkpt><trkpt lat="45.380627746475625" lon="9.428796053229878"><ele>88.0</ele><time>2026-03-29T15:33:49Z</time></trkpt><trkpt lat="45.380564915006026" lon="9.428516820473943"><ele>88.0</ele><time>2026-03-29T15:33:50Z</time></trkpt><trkpt lat="45.38049841236168" lon="9.428235118139623"><ele>88.0</ele><time>2026-03-29T15:33:51Z</time></trkpt><trkpt lat="45.38043266095403" lon="9.427954765168217"><ele>88.0</ele><time>2026-03-29T15:33:52Z</time></trkpt><trkpt lat="45.380369770670754" lon="9.42767497786074"><ele>88.0</ele><time>2026-03-29T15:33:53Z</time></trkpt><trkpt lat="45.380301688284064" lon="9.427390485173072"><ele>88.0</ele><time>2026-03-29T15:33:54Z</time></trkpt><trkpt lat="45.380236236523416" lon="9.427106112475812"><ele>88.33333333333333</ele><time>2026-03-29T15:33:55Z</time></trkpt><trkpt lat="45.380170965827155" lon="9.426825408020083"><ele>88.66666666666667</ele><time>2026-03-29T15:33:56Z</time></trkpt><trkpt lat="45.38010508387277" lon="9.426541286758884"><ele>89.0</ele><time>2026-03-29T15:33:57Z</time></trkpt><trkpt lat="45.38004107196016" lon="9.426258404986143"><ele>89.33333333333334</ele><time>2026-03-29T15:33:58Z</time></trkpt><trkpt lat="45.379976680318435" lon="9.425975982256997"><ele>89.66666666666667</ele><time>2026-03-29T15:33:59Z</time></trkpt><trkpt lat="45.379910514326376" lon="9.425693141837703"><ele>90.0</ele><time>2026-03-29T15:34:00Z</time></trkpt><trkpt lat="45.379844864113736" lon="9.425412124215368"><ele>89.33333333333333</ele><time>2026-03-29T15:34:01Z</time></trkpt><trkpt lat="45.37978231581689" lon="9.42513357728194"><ele>88.66666666666666</ele><time>2026-03-29T15:34:02Z</time></trkpt><trkpt lat="45.37971983447489" lon="9.424858167974197"><ele>88.0</ele><time>2026-03-29T15:34:03Z</time></trkpt><trkpt lat="45.37965810758097" lon="9.424589384513094"><ele>88.0</ele><time>2026-03-29T15:34:04Z</time></trkpt><trkpt lat="45.37959755875061" lon="9.424336176099816"><ele>88.0</ele><time>2026-03-29T15:34:05Z</time></trkpt><trkpt lat="45.37954323094425" lon="9.424100653578702"><ele>88.0</ele><time>2026-03-29T15:34:06Z</time></trkpt><trkpt lat="45.379492423143496" lon="9.423881681886082"><ele>88.25</ele><time>2026-03-29T15:34:07Z</time></trkpt><trkpt lat="45.37945762130861" lon="9.423670496734248"><ele>88.5</ele><time>2026-03-29T15:34:08Z</time></trkpt><trkpt lat="45.37941627251767" lon="9.423489635590618"><ele>88.75</ele><time>2026-03-29T15:34:09Z</time></trkpt><trkpt lat="45.37938073556286" lon="9.423334195486902"><ele>89.0</ele><time>2026-03-29T15:34:10Z</time></trkpt><trkpt lat="45.37934215967398" lon="9.423204119474898"><ele>89.0</ele><time>2026-03-29T15:34:11Z</time></trkpt><trkpt lat="45.37934087495452" lon="9.423073560378246"><ele>89.0</ele><time>2026-03-29T15:34:12Z</time></trkpt><trkpt lat="45.37935266459082" lon="9.422945569156731"><ele>89.0</ele><time>2026-03-29T15:34:12.999Z</time></trkpt><trkpt lat="45.37938267382893" lon="9.422823108558363"><ele>89.0</ele><time>2026-03-29T15:34:13.999Z</time></trkpt><trkpt lat="45.379439899569505" lon="9.4227192437733"><ele>89.0</ele><time>2026-03-29T15:34:14.999Z</time></trkpt><trkpt lat="45.379527264177035" lon="9.422653439280074"><ele>89.0</ele><time>2026-03-29T15:34:15.999Z</time></trkpt><trkpt lat="45.37963076260834" lon="9.422646909472197"><ele>89.0</ele><time>2026-03-29T15:34:16.999Z</time></trkpt><trkpt lat="45.37974557836317" lon="9.42269614026652"><ele>89.0</ele><time>2026-03-29T15:34:17.999Z</time></trkpt><trkpt lat="45.37987579062069" lon="9.422718376831174"><ele>89.0</ele><time>2026-03-29T15:34:18.999Z</time></trkpt><trkpt lat="45.38002159167689" lon="9.422739327619961"><ele>89.0</ele><time>2026-03-29T15:34:19.999Z</time></trkpt><trkpt lat="45.38018117125762" lon="9.422736259826443"><ele>89.0</ele><time>2026-03-29T15:34:20.999Z</time></trkpt><trkpt lat="45.380348791693855" lon="9.422761156243421"><ele>89.0</ele><time>2026-03-29T15:34:21.999Z</time></trkpt><trkpt lat="45.380514446585984" lon="9.422781910720461"><ele>89.33333333333334</ele><time>2026-03-29T15:34:22.999Z</time></trkpt><trkpt lat="45.380691169016025" lon="9.422801212893285"><ele>89.66666666666667</ele><time>2026-03-29T15:34:23.999Z</time></trkpt><trkpt lat="45.38087344133493" lon="9.422819442432454"><ele>90.0</ele><time>2026-03-29T15:34:24.999Z</time></trkpt><trkpt lat="45.381060867695" lon="9.42283709888003"><ele>90.0</ele><time>2026-03-29T15:34:25.999Z</time></trkpt><trkpt lat="45.38125039033839" lon="9.422857458243202"><ele>90.0</ele><time>2026-03-29T15:34:26.999Z</time></trkpt><trkpt lat="45.381435949615835" lon="9.422876228777017"><ele>90.0</ele><time>2026-03-29T15:34:27.999Z</time></trkpt><trkpt lat="45.38162765092543" lon="9.422897278900626"><ele>90.0</ele><time>2026-03-29T15:34:28.999Z</time></trkpt><trkpt lat="45.3818213633385" lon="9.422918723850913"><ele>90.0</ele><time>2026-03-29T15:34:29.999Z</time></trkpt><trkpt lat="45.38201961521563" lon="9.42294035982415"><ele>90.0</ele><time>2026-03-29T15:34:30.999Z</time></trkpt><trkpt lat="45.38221827748503" lon="9.422952411350881"><ele>90.0</ele><time>2026-03-29T15:34:31.999Z</time></trkpt><trkpt lat="45.38242059804409" lon="9.422943040297918"><ele>90.0</ele><time>2026-03-29T15:34:32.999Z</time></trkpt><trkpt lat="45.38262527790559" lon="9.422913855178729"><ele>90.0</ele><time>2026-03-29T15:34:33.999Z</time></trkpt><trkpt lat="45.38283009851567" lon="9.42286265277332"><ele>90.0</ele><time>2026-03-29T15:34:34.999Z</time></trkpt><trkpt lat="45.383033024397996" lon="9.422795172465584"><ele>90.0</ele><time>2026-03-29T15:34:35.999Z</time></trkpt><trkpt lat="45.3832361704837" lon="9.422724839180388"><ele>90.0</ele><time>2026-03-29T15:34:36.999Z</time></trkpt><trkpt lat="45.383439713345695" lon="9.42266258095062"><ele>90.0</ele><time>2026-03-29T15:34:37.999Z</time></trkpt><trkpt lat="45.38364698473456" lon="9.422602555604007"><ele>90.0</ele><time>2026-03-29T15:34:38.999Z</time></trkpt><trkpt lat="45.38385361083444" lon="9.42253693957867"><ele>90.0</ele><time>2026-03-29T15:34:39.999Z</time></trkpt><trkpt lat="45.38406082640411" lon="9.422470897461377"><ele>90.0</ele><time>2026-03-29T15:34:40.999Z</time></trkpt><trkpt lat="45.38426734087293" lon="9.422409170469258"><ele>90.0</ele><time>2026-03-29T15:34:41.999Z</time></trkpt><trkpt lat="45.38447819981709" lon="9.422352064549608"><ele>90.0</ele><time>2026-03-29T15:34:42.999Z</time></trkpt><trkpt lat="45.384688325877455" lon="9.422296133709246"><ele>90.0</ele><time>2026-03-29T15:34:43.999Z</time></trkpt><trkpt lat="45.384899183672516" lon="9.422239166297423"><ele>90.0</ele><time>2026-03-29T15:34:44.999Z</time></trkpt><trkpt lat="45.38511203235414" lon="9.422179986582165"><ele>90.0</ele><time>2026-03-29T15:34:45.999Z</time></trkpt><trkpt lat="45.38532507182509" lon="9.422119312201955"><ele>90.0</ele><time>2026-03-29T15:34:46.999Z</time></trkpt><trkpt lat="45.38553591735285" lon="9.422058416432021"><ele>90.0</ele><time>2026-03-29T15:34:47.999Z</time></trkpt><trkpt lat="45.38574683621447" lon="9.422000122545299"><ele>90.0</ele><time>2026-03-29T15:34:48.999Z</time></trkpt><trkpt lat="45.385956016104764" lon="9.421942763060153"><ele>90.0</ele><time>2026-03-29T15:34:49.999Z</time></trkpt><trkpt lat="45.386164797218015" lon="9.421882985074303"><ele>90.0</ele><time>2026-03-29T15:34:50.999Z</time></trkpt><trkpt lat="45.38637082796666" lon="9.421822953411061"><ele>90.0</ele><time>2026-03-29T15:34:51.999Z</time></trkpt><trkpt lat="45.386577844729715" lon="9.421758873720735"><ele>89.66666666666667</ele><time>2026-03-29T15:34:52.999Z</time></trkpt><trkpt lat="45.3867817792105" lon="9.421678667646328"><ele>89.33333333333334</ele><time>2026-03-29T15:34:53.999Z</time></trkpt><trkpt lat="45.386980429838246" lon="9.421572867663697"><ele>89.0</ele><time>2026-03-29T15:34:54.999Z</time></trkpt><trkpt lat="45.38717252463385" lon="9.421446762950966"><ele>89.33333333333334</ele><time>2026-03-29T15:34:55.999Z</time></trkpt><trkpt lat="45.387360975596586" lon="9.421314105960194"><ele>89.66666666666667</ele><time>2026-03-29T15:34:56.999Z</time></trkpt><trkpt lat="45.387550972067146" lon="9.421189195358894"><ele>90.0</ele><time>2026-03-29T15:34:57.999Z</time></trkpt><trkpt lat="45.38774547820984" lon="9.42107783206602"><ele>90.0</ele><time>2026-03-29T15:34:58.999Z</time></trkpt><trkpt lat="45.38794567457257" lon="9.420990494926357"><ele>90.0</ele><time>2026-03-29T15:34:59.999Z</time></trkpt><trkpt lat="45.3881503099575" lon="9.420928955429847"><ele>90.0</ele><time>2026-03-29T15:35:01Z</time></trkpt><trkpt lat="45.38835969285424" lon="9.420894563699514"><ele>90.33333333333333</ele><time>2026-03-29T15:35:02Z</time></trkpt><trkpt lat="45.388568179999226" lon="9.42086592849345"><ele>90.66666666666666</ele><time>2026-03-29T15:35:03Z</time></trkpt><trkpt lat="45.38877952077371" lon="9.420835675211064"><ele>91.0</ele><time>2026-03-29T15:35:04Z</time></trkpt><trkpt lat="45.38899201906089" lon="9.420804966455044"><ele>91.33333333333333</ele><time>2026-03-29T15:35:05Z</time></trkpt><trkpt lat="45.38920547041641" lon="9.42077497979828"><ele>91.66666666666667</ele><time>2026-03-29T15:35:06Z</time></trkpt><trkpt lat="45.38941970244279" lon="9.420743782532018"><ele>92.0</ele><time>2026-03-29T15:35:07Z</time></trkpt><trkpt lat="45.38963285009165" lon="9.420712225153652"><ele>91.66666666666667</ele><time>2026-03-29T15:35:08Z</time></trkpt><trkpt lat="45.38984867538504" lon="9.420675374873621"><ele>91.33333333333333</ele><time>2026-03-29T15:35:09Z</time></trkpt><trkpt lat="45.39006299419699" lon="9.420628831968145"><ele>91.0</ele><time>2026-03-29T15:35:10Z</time></trkpt><trkpt lat="45.390275866957786" lon="9.4205655537937"><ele>91.0</ele><time>2026-03-29T15:35:11Z</time></trkpt><trkpt lat="45.39048456454661" lon="9.420485533534093"><ele>91.0</ele><time>2026-03-29T15:35:12Z</time></trkpt><trkpt lat="45.39069463742174" lon="9.42040182899316"><ele>91.0</ele><time>2026-03-29T15:35:13Z</time></trkpt><trkpt lat="45.39090591406862" lon="9.420323513800865"><ele>91.0</ele><time>2026-03-29T15:35:14Z</time></trkpt><trkpt lat="45.391117589211525" lon="9.420245914624306"><ele>91.0</ele><time>2026-03-29T15:35:15Z</time></trkpt><trkpt lat="45.39132751907894" lon="9.420171217040684"><ele>91.0</ele><time>2026-03-29T15:35:16Z</time></trkpt><trkpt lat="45.3915369297241" lon="9.420098272032833"><ele>90.66666666666666</ele><time>2026-03-29T15:35:17Z</time></trkpt><trkpt lat="45.391746376042356" lon="9.420023098046663"><ele>90.33333333333333</ele><time>2026-03-29T15:35:18Z</time></trkpt><trkpt lat="45.39195526525745" lon="9.419949255255014"><ele>90.0</ele><time>2026-03-29T15:35:19Z</time></trkpt><trkpt lat="45.392164554928236" lon="9.419872685047677"><ele>90.0</ele><time>2026-03-29T15:35:20Z</time></trkpt><trkpt lat="45.39237477285145" lon="9.419799390427974"><ele>90.0</ele><time>2026-03-29T15:35:21Z</time></trkpt><trkpt lat="45.39258369806657" lon="9.419722050691627"><ele>90.0</ele><time>2026-03-29T15:35:22Z</time></trkpt><trkpt lat="45.392791973035635" lon="9.419639627958437"><ele>90.0</ele><time>2026-03-29T15:35:23Z</time></trkpt><trkpt lat="45.39300226246337" lon="9.419561384017483"><ele>90.0</ele><time>2026-03-29T15:35:24Z</time></trkpt><trkpt lat="45.39321190698072" lon="9.419479875604855"><ele>90.0</ele><time>2026-03-29T15:35:25Z</time></trkpt><trkpt lat="45.39342190852302" lon="9.4194008731283"><ele>90.0</ele><time>2026-03-29T15:35:26Z</time></trkpt><trkpt lat="45.39363168654284" lon="9.419320876561354"><ele>90.0</ele><time>2026-03-29T15:35:27Z</time></trkpt><trkpt lat="45.39384114707512" lon="9.419240607781887"><ele>90.0</ele><time>2026-03-29T15:35:28Z</time></trkpt><trkpt lat="45.39404931699615" lon="9.419160119022395"><ele>90.0</ele><time>2026-03-29T15:35:29Z</time></trkpt><trkpt lat="45.394257735662805" lon="9.41907942648943"><ele>90.0</ele><time>2026-03-29T15:35:30Z</time></trkpt><trkpt lat="45.394468841519796" lon="9.418997544621321"><ele>90.0</ele><time>2026-03-29T15:35:31Z</time></trkpt><trkpt lat="45.39467796305178" lon="9.418913713499673"><ele>90.0</ele><time>2026-03-29T15:35:32Z</time></trkpt><trkpt lat="45.39488774161143" lon="9.418824630535383"><ele>90.0</ele><time>2026-03-29T15:35:33Z</time></trkpt><trkpt lat="45.39508920871949" lon="9.418731595166406"><ele>90.0</ele><time>2026-03-29T15:35:34Z</time></trkpt><trkpt lat="45.39529489432753" lon="9.41862567057561"><ele>90.66666666666667</ele><time>2026-03-29T15:35:35Z</time></trkpt><trkpt lat="45.39549604772366" lon="9.418507698113155"><ele>91.33333333333334</ele><time>2026-03-29T15:35:36Z</time></trkpt><trkpt lat="45.39569085598398" lon="9.418384238838406"><ele>92.0</ele><time>2026-03-29T15:35:37Z</time></trkpt><trkpt lat="45.395883627623284" lon="9.41825415135808"><ele>92.0</ele><time>2026-03-29T15:35:38Z</time></trkpt><trkpt lat="45.396072700567125" lon="9.41812980380148"><ele>92.0</ele><time>2026-03-29T15:35:39Z</time></trkpt><trkpt lat="45.39625762964102" lon="9.418006850142085"><ele>92.0</ele><time>2026-03-29T15:35:40Z</time></trkpt><trkpt lat="45.396440676036484" lon="9.417885653210757"><ele>92.0</ele><time>2026-03-29T15:35:41Z</time></trkpt><trkpt lat="45.39662214301227" lon="9.417765202004395"><ele>92.0</ele><time>2026-03-29T15:35:42Z</time></trkpt><trkpt lat="45.39680013451624" lon="9.417645791580172"><ele>92.0</ele><time>2026-03-29T15:35:43Z</time></trkpt><trkpt lat="45.39697408802592" lon="9.417529051287755"><ele>92.0</ele><time>2026-03-29T15:35:44Z</time></trkpt><trkpt lat="45.39714378854611" lon="9.417416995639616"><ele>92.0</ele><time>2026-03-29T15:35:45Z</time></trkpt><trkpt lat="45.39730988443159" lon="9.417306649916126"><ele>92.0</ele><time>2026-03-29T15:35:46Z</time></trkpt><trkpt lat="45.3974720683377" lon="9.417199583065365"><ele>93.0</ele><time>2026-03-29T15:35:47Z</time></trkpt><trkpt lat="45.397635977588294" lon="9.417091298154373"><ele>94.0</ele><time>2026-03-29T15:35:48Z</time></trkpt><trkpt lat="45.39779888109021" lon="9.416981200169554"><ele>95.0</ele><time>2026-03-29T15:35:49Z</time></trkpt><trkpt lat="45.39795791202023" lon="9.416872806635979"><ele>94.33333333333334</ele><time>2026-03-29T15:35:50Z</time></trkpt><trkpt lat="45.3981142558023" lon="9.416767756235714"><ele>93.66666666666667</ele><time>2026-03-29T15:35:51Z</time></trkpt><trkpt lat="45.39827533753648" lon="9.41666838560382"><ele>93.0</ele><time>2026-03-29T15:35:52Z</time></trkpt><trkpt lat="45.39843938950288" lon="9.416580992320222"><ele>93.0</ele><time>2026-03-29T15:35:53Z</time></trkpt><trkpt lat="45.39860724361021" lon="9.416502135414897"><ele>93.0</ele><time>2026-03-29T15:35:54Z</time></trkpt><trkpt lat="45.39878146683531" lon="9.416430263116725"><ele>93.0</ele><time>2026-03-29T15:35:55Z</time></trkpt><trkpt lat="45.398960619792184" lon="9.416362003656028"><ele>92.33333333333333</ele><time>2026-03-29T15:35:56Z</time></trkpt><trkpt lat="45.39914430648169" lon="9.416287635805645"><ele>91.66666666666666</ele><time>2026-03-29T15:35:57Z</time></trkpt><trkpt lat="45.39932651333842" lon="9.416201364016645"><ele>91.0</ele><time>2026-03-29T15:35:58Z</time></trkpt><trkpt lat="45.39948938596526" lon="9.416096862969578"><ele>91.0</ele><time>2026-03-29T15:35:59Z</time></trkpt><trkpt lat="45.399631716211445" lon="9.415961110738019"><ele>91.0</ele><time>2026-03-29T15:36:00Z</time></trkpt><trkpt lat="45.399760845677434" lon="9.41579016132643"><ele>91.0</ele><time>2026-03-29T15:36:01Z</time></trkpt><trkpt lat="45.39988175694874" lon="9.415596287291185"><ele>90.66666666666666</ele><time>2026-03-29T15:36:02Z</time></trkpt><trkpt lat="45.39999378133689" lon="9.415398591654819"><ele>90.33333333333333</ele><time>2026-03-29T15:36:03Z</time></trkpt><trkpt lat="45.400092335492424" lon="9.415200382008424"><ele>90.0</ele><time>2026-03-29T15:36:04Z</time></trkpt><trkpt lat="45.40017094313579" lon="9.414996455040642"><ele>90.0</ele><time>2026-03-29T15:36:05Z</time></trkpt><trkpt lat="45.40022590834513" lon="9.414790245936612"><ele>90.0</ele><time>2026-03-29T15:36:06Z</time></trkpt><trkpt lat="45.40027306997825" lon="9.414577714186835"><ele>90.0</ele><time>2026-03-29T15:36:07Z</time></trkpt><trkpt lat="45.40032238125036" lon="9.414379116904163"><ele>90.0</ele><time>2026-03-29T15:36:08Z</time></trkpt><trkpt lat="45.40039037005664" lon="9.414194581553685"><ele>90.0</ele><time>2026-03-29T15:36:09Z</time></trkpt><trkpt lat="45.40049313625457" lon="9.4140414309059"><ele>90.0</ele><time>2026-03-29T15:36:10Z</time></trkpt><trkpt lat="45.40062845949467" lon="9.413925979894865"><ele>90.33333333333333</ele><time>2026-03-29T15:36:10.999Z</time></trkpt><trkpt lat="45.400773026714" lon="9.41382003810734"><ele>90.66666666666666</ele><time>2026-03-29T15:36:11.999Z</time></trkpt><trkpt lat="45.40092203849794" lon="9.41370626426705"><ele>91.0</ele><time>2026-03-29T15:36:12.999Z</time></trkpt><trkpt lat="45.40107485649175" lon="9.413585162216656"><ele>91.0</ele><time>2026-03-29T15:36:13.999Z</time></trkpt><trkpt lat="45.401234571749264" lon="9.413468886153591"><ele>91.0</ele><time>2026-03-29T15:36:14.999Z</time></trkpt><trkpt lat="45.40140753200215" lon="9.413374662620749"><ele>91.0</ele><time>2026-03-29T15:36:15.999Z</time></trkpt><trkpt lat="45.401583564231764" lon="9.413289958218803"><ele>91.0</ele><time>2026-03-29T15:36:16.999Z</time></trkpt><trkpt lat="45.40175554780257" lon="9.413223132138764"><ele>91.0</ele><time>2026-03-29T15:36:17.999Z</time></trkpt><trkpt lat="45.40191660764532" lon="9.413165884785045"><ele>91.0</ele><time>2026-03-29T15:36:18.999Z</time></trkpt><trkpt lat="45.40207132224339" lon="9.413104461252214"><ele>91.0</ele><time>2026-03-29T15:36:19.999Z</time></trkpt><trkpt lat="45.402221187133826" lon="9.41301133631452"><ele>91.0</ele><time>2026-03-29T15:36:20.999Z</time></trkpt><trkpt lat="45.402360816666544" lon="9.412879884528948"><ele>91.0</ele><time>2026-03-29T15:36:21.999Z</time></trkpt><trkpt lat="45.40247916447389" lon="9.41271050419284"><ele>91.0</ele><time>2026-03-29T15:36:22.999Z</time></trkpt><trkpt lat="45.40258033730428" lon="9.412541817683497"><ele>91.0</ele><time>2026-03-29T15:36:23.999Z</time></trkpt><trkpt lat="45.402698654173264" lon="9.412400455924885"><ele>91.0</ele><time>2026-03-29T15:36:24.999Z</time></trkpt><trkpt lat="45.40284204975752" lon="9.4123008908366"><ele>91.33333333333333</ele><time>2026-03-29T15:36:25.999Z</time></trkpt><trkpt lat="45.403001427183376" lon="9.412242366095331"><ele>91.66666666666667</ele><time>2026-03-29T15:36:26.999Z</time></trkpt><trkpt lat="45.40317178300779" lon="9.412214185263128"><ele>92.0</ele><time>2026-03-29T15:36:27.999Z</time></trkpt><trkpt lat="45.40334410600597" lon="9.412200873870313"><ele>92.0</ele><time>2026-03-29T15:36:28.999Z</time></trkpt><trkpt lat="45.40349878491605" lon="9.412179893463195"><ele>92.0</ele><time>2026-03-29T15:36:29.999Z</time></trkpt><trkpt lat="45.40363625567919" lon="9.412140389293404"><ele>92.0</ele><time>2026-03-29T15:36:30.999Z</time></trkpt><trkpt lat="45.40376593121771" lon="9.412064655954568"><ele>92.0</ele><time>2026-03-29T15:36:31.999Z</time></trkpt><trkpt lat="45.40387923869363" lon="9.411935838989564"><ele>91.66666666666667</ele><time>2026-03-29T15:36:32.999Z</time></trkpt><trkpt lat="45.403962324389916" lon="9.411761112761365"><ele>91.33333333333333</ele><time>2026-03-29T15:36:33.999Z</time></trkpt><trkpt lat="45.40401904346814" lon="9.411552661573781"><ele>91.0</ele><time>2026-03-29T15:36:34.999Z</time></trkpt><trkpt lat="45.40405543592094" lon="9.411327338920534"><ele>91.33333333333333</ele><time>2026-03-29T15:36:35.999Z</time></trkpt><trkpt lat="45.404097459048096" lon="9.411101021681697"><ele>91.66666666666667</ele><time>2026-03-29T15:36:36.999Z</time></trkpt><trkpt lat="45.40414441443407" lon="9.410870936822786"><ele>92.0</ele><time>2026-03-29T15:36:37.999Z</time></trkpt><trkpt lat="45.40419671452765" lon="9.410636779540928"><ele>92.25</ele><time>2026-03-29T15:36:38.999Z</time></trkpt><trkpt lat="45.404245264139895" lon="9.410418249739331"><ele>92.5</ele><time>2026-03-29T15:36:39.999Z</time></trkpt><trkpt lat="45.40431454516833" lon="9.410235759209751"><ele>92.75</ele><time>2026-03-29T15:36:40.999Z</time></trkpt><trkpt lat="45.404357069709285" lon="9.410045562822324"><ele>93.0</ele><time>2026-03-29T15:36:41.999Z</time></trkpt><trkpt lat="45.404432496624715" lon="9.409888003763731"><ele>93.0</ele><time>2026-03-29T15:36:42.999Z</time></trkpt><trkpt lat="45.40452464564944" lon="9.409763669383315"><ele>93.0</ele><time>2026-03-29T15:36:43.999Z</time></trkpt><trkpt lat="45.40464313938583" lon="9.409674987766598"><ele>93.0</ele><time>2026-03-29T15:36:44.999Z</time></trkpt><trkpt lat="45.404780000671664" lon="9.409675634529437"><ele>93.0</ele><time>2026-03-29T15:36:45.999Z</time></trkpt><trkpt lat="45.404915533237556" lon="9.409691370741385"><ele>93.25</ele><time>2026-03-29T15:36:46.999Z</time></trkpt><trkpt lat="45.40505849337953" lon="9.409682459872462"><ele>93.5</ele><time>2026-03-29T15:36:47.999Z</time></trkpt><trkpt lat="45.40519878018385" lon="9.409653439508922"><ele>93.75</ele><time>2026-03-29T15:36:48.999Z</time></trkpt><trkpt lat="45.405339045801504" lon="9.409556334821426"><ele>94.0</ele><time>2026-03-29T15:36:49.999Z</time></trkpt><trkpt lat="45.40545970280403" lon="9.40940259066606"><ele>93.66666666666666</ele><time>2026-03-29T15:36:50.999Z</time></trkpt><trkpt lat="45.4055813025868" lon="9.409219225707785"><ele>93.33333333333333</ele><time>2026-03-29T15:36:51.999Z</time></trkpt><trkpt lat="45.40571132900748" lon="9.40903232564068"><ele>93.0</ele><time>2026-03-29T15:36:52.999Z</time></trkpt><trkpt lat="45.40585683170013" lon="9.408861458320683"><ele>92.66666666666667</ele><time>2026-03-29T15:36:53.999Z</time></trkpt><trkpt lat="45.40598282602513" lon="9.408672652607972"><ele>92.33333333333334</ele><time>2026-03-29T15:36:54.999Z</time></trkpt><trkpt lat="45.406081569018724" lon="9.4084766190012"><ele>92.0</ele><time>2026-03-29T15:36:55.999Z</time></trkpt><trkpt lat="45.40616002589703" lon="9.408251407350539"><ele>92.0</ele><time>2026-03-29T15:36:56.999Z</time></trkpt><trkpt lat="45.40620801706968" lon="9.408000668859177"><ele>92.0</ele><time>2026-03-29T15:36:57.999Z</time></trkpt><trkpt lat="45.40622452832267" lon="9.407740999737099"><ele>92.0</ele><time>2026-03-29T15:36:58.999Z</time></trkpt><trkpt lat="45.40620738263863" lon="9.407476966749826"><ele>92.0</ele><time>2026-03-29T15:36:59.999Z</time></trkpt><trkpt lat="45.40620322390958" lon="9.407214058603657"><ele>92.0</ele><time>2026-03-29T15:37:00.999Z</time></trkpt><trkpt lat="45.406204877879595" lon="9.406957848742564"><ele>92.0</ele><time>2026-03-29T15:37:01.999Z</time></trkpt><trkpt lat="45.406224803708916" lon="9.406716443836373"><ele>92.33333333333334</ele><time>2026-03-29T15:37:02.999Z</time></trkpt><trkpt lat="45.40627886590536" lon="9.406499022744201"><ele>92.66666666666667</ele><time>2026-03-29T15:37:03.999Z</time></trkpt><trkpt lat="45.40635464764129" lon="9.406295665891106"><ele>93.0</ele><time>2026-03-29T15:37:04.999Z</time></trkpt><trkpt lat="45.40644637220169" lon="9.406102394882287"><ele>93.0</ele><time>2026-03-29T15:37:05.999Z</time></trkpt><trkpt lat="45.406556621898865" lon="9.405918385763432"><ele>93.0</ele><time>2026-03-29T15:37:07Z</time></trkpt><trkpt lat="45.40668420309949" lon="9.405749318290127"><ele>93.0</ele><time>2026-03-29T15:37:08Z</time></trkpt><trkpt lat="45.40682465131649" lon="9.40558862772668"><ele>92.66666666666667</ele><time>2026-03-29T15:37:09Z</time></trkpt><trkpt lat="45.406975970985464" lon="9.405433949452764"><ele>92.33333333333334</ele><time>2026-03-29T15:37:10Z</time></trkpt><trkpt lat="45.40713037478127" lon="9.405268283282423"><ele>92.0</ele><time>2026-03-29T15:37:11Z</time></trkpt><trkpt lat="45.40728267733693" lon="9.405105541855214"><ele>92.0</ele><time>2026-03-29T15:37:12Z</time></trkpt><trkpt lat="45.40743948721346" lon="9.404933234616735"><ele>92.0</ele><time>2026-03-29T15:37:13Z</time></trkpt><trkpt lat="45.4075915049394" lon="9.404766844266215"><ele>92.0</ele><time>2026-03-29T15:37:14Z</time></trkpt><trkpt lat="45.407743792616806" lon="9.404613247110147"><ele>92.0</ele><time>2026-03-29T15:37:15Z</time></trkpt><trkpt lat="45.40790746672762" lon="9.404470497548612"><ele>92.0</ele><time>2026-03-29T15:37:16Z</time></trkpt><trkpt lat="45.408083511381555" lon="9.404340601367409"><ele>92.0</ele><time>2026-03-29T15:37:17Z</time></trkpt><trkpt lat="45.4082715396611" lon="9.404223698335999"><ele>92.33333333333334</ele><time>2026-03-29T15:37:18Z</time></trkpt><trkpt lat="45.4084650674606" lon="9.404127641056734"><ele>92.66666666666667</ele><time>2026-03-29T15:37:19Z</time></trkpt><trkpt lat="45.408663836552456" lon="9.404057888283424"><ele>93.0</ele><time>2026-03-29T15:37:20Z</time></trkpt><trkpt lat="45.408862338242194" lon="9.40400700606139"><ele>93.0</ele><time>2026-03-29T15:37:21Z</time></trkpt><trkpt lat="45.40905514559306" lon="9.403959590795003"><ele>93.0</ele><time>2026-03-29T15:37:22Z</time></trkpt><trkpt lat="45.409240597850356" lon="9.403912777308093"><ele>93.0</ele><time>2026-03-29T15:37:23Z</time></trkpt><trkpt lat="45.409419551853915" lon="9.403866959994195"><ele>93.0</ele><time>2026-03-29T15:37:24Z</time></trkpt><trkpt lat="45.40959247399432" lon="9.403827974299114"><ele>93.0</ele><time>2026-03-29T15:37:25Z</time></trkpt><trkpt lat="45.40975660668" lon="9.403787127049005"><ele>93.0</ele><time>2026-03-29T15:37:26Z</time></trkpt><trkpt lat="45.40991984385554" lon="9.403751921790125"><ele>93.33333333333333</ele><time>2026-03-29T15:37:27Z</time></trkpt><trkpt lat="45.41007948959559" lon="9.403718848886337"><ele>93.66666666666666</ele><time>2026-03-29T15:37:28Z</time></trkpt><trkpt lat="45.41023230471103" lon="9.403688279083768"><ele>94.0</ele><time>2026-03-29T15:37:29Z</time></trkpt><trkpt lat="45.410384074706656" lon="9.403655425797334"><ele>94.0</ele><time>2026-03-29T15:37:30Z</time></trkpt><trkpt lat="45.410531625498784" lon="9.403623017574422"><ele>94.0</ele><time>2026-03-29T15:37:31Z</time></trkpt><trkpt lat="45.41067322649252" lon="9.403590794880449"><ele>94.0</ele><time>2026-03-29T15:37:32Z</time></trkpt><trkpt lat="45.41080999607824" lon="9.403557535526646"><ele>94.0</ele><time>2026-03-29T15:37:33Z</time></trkpt><trkpt lat="45.41094206554217" lon="9.403522952526549"><ele>94.0</ele><time>2026-03-29T15:37:34Z</time></trkpt><trkpt lat="45.41106960903776" lon="9.40348587851096"><ele>94.0</ele><time>2026-03-29T15:37:35Z</time></trkpt><trkpt lat="45.41119079600825" lon="9.403452666149805"><ele>94.0</ele><time>2026-03-29T15:37:36Z</time></trkpt><trkpt lat="45.41130233759111" lon="9.403422183179737"><ele>94.0</ele><time>2026-03-29T15:37:37Z</time></trkpt><trkpt lat="45.41140961571362" lon="9.403390324176378"><ele>94.4</ele><time>2026-03-29T15:37:38Z</time></trkpt><trkpt lat="45.41150750740071" lon="9.403366948695382"><ele>94.80000000000001</ele><time>2026-03-29T15:37:39Z</time></trkpt><trkpt lat="45.411609092110375" lon="9.403332300670977"><ele>95.19999999999999</ele><time>2026-03-29T15:37:40Z</time></trkpt><trkpt lat="45.41170770843056" lon="9.40329102542587"><ele>95.6</ele><time>2026-03-29T15:37:41Z</time></trkpt><trkpt lat="45.411809012369986" lon="9.403256162397113"><ele>96.0</ele><time>2026-03-29T15:37:42Z</time></trkpt><trkpt lat="45.41191242336412" lon="9.40317589084384"><ele>96.0</ele><time>2026-03-29T15:37:43Z</time></trkpt><trkpt lat="45.41201475752063" lon="9.403127930215026"><ele>96.0</ele><time>2026-03-29T15:37:44Z</time></trkpt><trkpt lat="45.41212163795887" lon="9.403072497840983"><ele>96.0</ele><time>2026-03-29T15:37:45Z</time></trkpt><trkpt lat="45.41223181629023" lon="9.403022817084421"><ele>96.0</ele><time>2026-03-29T15:37:46Z</time></trkpt><trkpt lat="45.41234450213628" lon="9.402975253373423"><ele>95.75</ele><time>2026-03-29T15:37:47Z</time></trkpt><trkpt lat="45.412455541883205" lon="9.40292928930311"><ele>95.5</ele><time>2026-03-29T15:37:48Z</time></trkpt><trkpt lat="45.41256529792974" lon="9.402883081284973"><ele>95.25</ele><time>2026-03-29T15:37:49Z</time></trkpt><trkpt lat="45.412672995419854" lon="9.402836387725305"><ele>95.0</ele><time>2026-03-29T15:37:50Z</time></trkpt><trkpt lat="45.412782008721784" lon="9.402792487687574"><ele>95.0</ele><time>2026-03-29T15:37:51Z</time></trkpt><trkpt lat="45.41289271059262" lon="9.402752054289774"><ele>95.0</ele><time>2026-03-29T15:37:52Z</time></trkpt><trkpt lat="45.413000613342135" lon="9.402720414095413"><ele>95.0</ele><time>2026-03-29T15:37:53Z</time></trkpt><trkpt lat="45.41311245211989" lon="9.402694690185267"><ele>95.0</ele><time>2026-03-29T15:37:54Z</time></trkpt><trkpt lat="45.41322144896058" lon="9.402678738723171"><ele>95.0</ele><time>2026-03-29T15:37:55Z</time></trkpt><trkpt lat="45.41332900016785" lon="9.402660364709854"><ele>95.16666666666667</ele><time>2026-03-29T15:37:56Z</time></trkpt><trkpt lat="45.413428741647294" lon="9.402638912765122"><ele>95.33333333333334</ele><time>2026-03-29T15:37:57Z</time></trkpt><trkpt lat="45.41352548192634" lon="9.402614604579579"><ele>95.5</ele><time>2026-03-29T15:37:58Z</time></trkpt><trkpt lat="45.41361591315975" lon="9.402590933958567"><ele>95.66666666666667</ele><time>2026-03-29T15:37:59Z</time></trkpt><trkpt lat="45.41369979781686" lon="9.402570291493143"><ele>95.83333333333333</ele><time>2026-03-29T15:38:00Z</time></trkpt><trkpt lat="45.413770766610476" lon="9.40255967768232"><ele>96.0</ele><time>2026-03-29T15:38:01Z</time></trkpt><trkpt lat="45.41389279602685" lon="9.40257956025202"><ele>96.0</ele><time>2026-03-29T15:38:03Z</time></trkpt><trkpt lat="45.41395249198941" lon="9.402633780552481"><ele>96.0</ele><time>2026-03-29T15:38:04Z</time></trkpt><trkpt lat="45.413939836460436" lon="9.402787173647445"><ele>96.0</ele><time>2026-03-29T15:38:05Z</time></trkpt><trkpt lat="45.41391519484715" lon="9.402929114150655"><ele>96.0</ele><time>2026-03-29T15:38:06Z</time></trkpt><trkpt lat="45.41386019785027" lon="9.403076986864523"><ele>96.0</ele><time>2026-03-29T15:38:07Z</time></trkpt><trkpt lat="45.41382458148512" lon="9.403241933810735"><ele>96.0</ele><time>2026-03-29T15:38:08Z</time></trkpt><trkpt lat="45.413777054188415" lon="9.403395990431019"><ele>96.0</ele><time>2026-03-29T15:38:09Z</time></trkpt><trkpt lat="45.41373317488788" lon="9.403561137373915"><ele>96.0</ele><time>2026-03-29T15:38:10Z</time></trkpt><trkpt lat="45.4136898410631" lon="9.403730990423304"><ele>96.0</ele><time>2026-03-29T15:38:11Z</time></trkpt><trkpt lat="45.41365049677719" lon="9.403907724258879"><ele>96.0</ele><time>2026-03-29T15:38:12Z</time></trkpt><trkpt lat="45.413610600544864" lon="9.404089366816772"><ele>96.0</ele><time>2026-03-29T15:38:13Z</time></trkpt><trkpt lat="45.41357684574537" lon="9.404270733694533"><ele>96.0</ele><time>2026-03-29T15:38:14Z</time></trkpt><trkpt lat="45.413550970003236" lon="9.404433348435312"><ele>96.0</ele><time>2026-03-29T15:38:14.999Z</time></trkpt><trkpt lat="45.41353008350646" lon="9.40458779105269"><ele>96.0</ele><time>2026-03-29T15:38:15.999Z</time></trkpt><trkpt lat="45.41350963234247" lon="9.404731061443476"><ele>96.0</ele><time>2026-03-29T15:38:16.999Z</time></trkpt><trkpt lat="45.413483787670664" lon="9.40487938252265"><ele>96.0</ele><time>2026-03-29T15:38:17.999Z</time></trkpt><trkpt lat="45.413459463224704" lon="9.405044249946428"><ele>96.0</ele><time>2026-03-29T15:38:18.999Z</time></trkpt><trkpt lat="45.4134415630475" lon="9.405216729435065"><ele>96.0</ele><time>2026-03-29T15:38:19.999Z</time></trkpt><trkpt lat="45.41342916486158" lon="9.405378588783961"><ele>96.0</ele><time>2026-03-29T15:38:20.999Z</time></trkpt><trkpt lat="45.41341169189255" lon="9.405535231364617"><ele>96.0</ele><time>2026-03-29T15:38:21.999Z</time></trkpt><trkpt lat="45.413385223661564" lon="9.4056967286035"><ele>96.0</ele><time>2026-03-29T15:38:22.999Z</time></trkpt><trkpt lat="45.413358670284545" lon="9.405863158027675"><ele>96.0</ele><time>2026-03-29T15:38:23.999Z</time></trkpt><trkpt lat="45.413343666214885" lon="9.406030320759145"><ele>96.0</ele><time>2026-03-29T15:38:24.999Z</time></trkpt><trkpt lat="45.41332399684107" lon="9.406202037053701"><ele>96.0</ele><time>2026-03-29T15:38:25.999Z</time></trkpt><trkpt lat="45.41330250673028" lon="9.406380271768636"><ele>96.0</ele><time>2026-03-29T15:38:26.999Z</time></trkpt><trkpt lat="45.41328288434745" lon="9.406557863496221"><ele>96.0</ele><time>2026-03-29T15:38:27.999Z</time></trkpt><trkpt lat="45.41324386695525" lon="9.406734220487682"><ele>96.0</ele><time>2026-03-29T15:38:28.999Z</time></trkpt><trkpt lat="45.4132356969173" lon="9.406917560448758"><ele>96.0</ele><time>2026-03-29T15:38:29.999Z</time></trkpt><trkpt lat="45.41321164069688" lon="9.407086302153685"><ele>96.0</ele><time>2026-03-29T15:38:30.999Z</time></trkpt><trkpt lat="45.41318576303677" lon="9.407248636043084"><ele>96.19999999999999</ele><time>2026-03-29T15:38:31.999Z</time></trkpt><trkpt lat="45.41316166540839" lon="9.407402898187009"><ele>96.39999999999999</ele><time>2026-03-29T15:38:32.999Z</time></trkpt><trkpt lat="45.41313952230015" lon="9.407554446456693"><ele>96.6</ele><time>2026-03-29T15:38:33.999Z</time></trkpt><trkpt lat="45.41311981655461" lon="9.40769005427462"><ele>96.8</ele><time>2026-03-29T15:38:34.999Z</time></trkpt><trkpt lat="45.413099475754095" lon="9.407814962501474"><ele>97.0</ele><time>2026-03-29T15:38:35.999Z</time></trkpt><trkpt lat="45.41308609410395" lon="9.407936688184172"><ele>96.6</ele><time>2026-03-29T15:38:36.999Z</time></trkpt><trkpt lat="45.41309216987505" lon="9.408059405492718"><ele>96.19999999999999</ele><time>2026-03-29T15:38:37.999Z</time></trkpt><trkpt lat="45.41313920930099" lon="9.408168469582561"><ele>95.8</ele><time>2026-03-29T15:38:38.999Z</time></trkpt><trkpt lat="45.413221809320675" lon="9.408241460772931"><ele>95.4</ele><time>2026-03-29T15:38:39.999Z</time></trkpt><trkpt lat="45.41333147362887" lon="9.408279347518931"><ele>95.0</ele><time>2026-03-29T15:38:40.999Z</time></trkpt><trkpt lat="45.41345849536888" lon="9.40830706679316"><ele>95.0</ele><time>2026-03-29T15:38:41.999Z</time></trkpt><trkpt lat="45.41359927532832" lon="9.408335908171175"><ele>95.0</ele><time>2026-03-29T15:38:42.999Z</time></trkpt><trkpt lat="45.41372791185115" lon="9.408361638735839"><ele>95.0</ele><time>2026-03-29T15:38:43.999Z</time></trkpt><trkpt lat="45.41384350889295" lon="9.408389300698284"><ele>95.0</ele><time>2026-03-29T15:38:44.999Z</time></trkpt><trkpt lat="45.413950891962806" lon="9.40841458269167"><ele>95.25</ele><time>2026-03-29T15:38:45.999Z</time></trkpt><trkpt lat="45.414056026664966" lon="9.40843261053196"><ele>95.5</ele><time>2026-03-29T15:38:46.999Z</time></trkpt><trkpt lat="45.414164267353954" lon="9.408452330632011"><ele>95.75</ele><time>2026-03-29T15:38:47.999Z</time></trkpt><trkpt lat="45.41427762587705" lon="9.408448860264919"><ele>96.0</ele><time>2026-03-29T15:38:48.999Z</time></trkpt><trkpt lat="45.4144067018467" lon="9.408420726219699"><ele>96.0</ele><time>2026-03-29T15:38:49.999Z</time></trkpt><trkpt lat="45.414543035187556" lon="9.408397318207951"><ele>96.0</ele><time>2026-03-29T15:38:50.999Z</time></trkpt><trkpt lat="45.414675951738104" lon="9.408379115534162"><ele>96.0</ele><time>2026-03-29T15:38:51.999Z</time></trkpt><trkpt lat="45.41480564575466" lon="9.408367529123456"><ele>96.0</ele><time>2026-03-29T15:38:52.999Z</time></trkpt><trkpt lat="45.41493051328584" lon="9.408353186611004"><ele>95.75</ele><time>2026-03-29T15:38:53.999Z</time></trkpt><trkpt lat="45.41505427939959" lon="9.408343133907515"><ele>95.5</ele><time>2026-03-29T15:38:54.999Z</time></trkpt><trkpt lat="45.41517227740976" lon="9.408331480760273"><ele>95.25</ele><time>2026-03-29T15:38:55.999Z</time></trkpt><trkpt lat="45.41529231136347" lon="9.408321707342528"><ele>95.0</ele><time>2026-03-29T15:38:56.999Z</time></trkpt><trkpt lat="45.415412535522485" lon="9.408309568449479"><ele>95.0</ele><time>2026-03-29T15:38:57.999Z</time></trkpt><trkpt lat="45.415532278016656" lon="9.408301477747607"><ele>95.0</ele><time>2026-03-29T15:38:58.999Z</time></trkpt><trkpt lat="45.4156518407622" lon="9.408289663377069"><ele>95.0</ele><time>2026-03-29T15:38:59.999Z</time></trkpt><trkpt lat="45.41577000668463" lon="9.40828043919439"><ele>95.0</ele><time>2026-03-29T15:39:00.999Z</time></trkpt><trkpt lat="45.41588891777797" lon="9.40826950980972"><ele>95.0</ele><time>2026-03-29T15:39:01.999Z</time></trkpt><trkpt lat="45.416006092279126" lon="9.408263668027583"><ele>95.0</ele><time>2026-03-29T15:39:02.999Z</time></trkpt><trkpt lat="45.416118098950506" lon="9.408253542019438"><ele>95.0</ele><time>2026-03-29T15:39:03.999Z</time></trkpt><trkpt lat="45.416223458786625" lon="9.408243002788604"><ele>95.0</ele><time>2026-03-29T15:39:04.999Z</time></trkpt><trkpt lat="45.4163214208378" lon="9.408234574292237"><ele>95.0</ele><time>2026-03-29T15:39:05.999Z</time></trkpt><trkpt lat="45.416411404890084" lon="9.408231908375562"><ele>95.0</ele><time>2026-03-29T15:39:06.999Z</time></trkpt><trkpt lat="45.416497825747186" lon="9.408257705226548"><ele>95.0</ele><time>2026-03-29T15:39:07.999Z</time></trkpt><trkpt lat="45.41657152181063" lon="9.40833181009738"><ele>95.0</ele><time>2026-03-29T15:39:08.999Z</time></trkpt><trkpt lat="45.4166369950402" lon="9.408425375186573"><ele>95.0</ele><time>2026-03-29T15:39:09.999Z</time></trkpt><trkpt lat="45.416701909917464" lon="9.408516484099758"><ele>95.0</ele><time>2026-03-29T15:39:10.999Z</time></trkpt><trkpt lat="45.416778401965296" lon="9.408590295273846"><ele>95.0</ele><time>2026-03-29T15:39:11.999Z</time></trkpt><trkpt lat="45.41687183404558" lon="9.408625273103047"><ele>95.0</ele><time>2026-03-29T15:39:13Z</time></trkpt><trkpt lat="45.41697361570386" lon="9.408637681842485"><ele>95.0</ele><time>2026-03-29T15:39:14Z</time></trkpt><trkpt lat="45.417077958382436" lon="9.408639899594935"><ele>95.0</ele><time>2026-03-29T15:39:15Z</time></trkpt><trkpt lat="45.4171811594885" lon="9.40865125872055"><ele>95.0</ele><time>2026-03-29T15:39:16Z</time></trkpt><trkpt lat="45.41728462255152" lon="9.408667133503643"><ele>95.4</ele><time>2026-03-29T15:39:17Z</time></trkpt><trkpt lat="45.41738628124019" lon="9.408685563455194"><ele>95.8</ele><time>2026-03-29T15:39:18Z</time></trkpt><trkpt lat="45.41748695484117" lon="9.408698251271476"><ele>96.19999999999999</ele><time>2026-03-29T15:39:19Z</time></trkpt><trkpt lat="45.41758268782463" lon="9.408707914050648"><ele>96.6</ele><time>2026-03-29T15:39:20Z</time></trkpt><trkpt lat="45.41767753115521" lon="9.408720071360293"><ele>97.0</ele><time>2026-03-29T15:39:21Z</time></trkpt><trkpt lat="45.417774041089174" lon="9.408728475450852"><ele>97.0</ele><time>2026-03-29T15:39:22Z</time></trkpt><trkpt lat="45.41786808401591" lon="9.40873284836771"><ele>97.0</ele><time>2026-03-29T15:39:23Z</time></trkpt><trkpt lat="45.41797532020198" lon="9.408741699068614"><ele>97.0</ele><time>2026-03-29T15:39:24Z</time></trkpt><trkpt lat="45.41807782064208" lon="9.408753062860962"><ele>97.0</ele><time>2026-03-29T15:39:25Z</time></trkpt><trkpt lat="45.41818407686336" lon="9.408767449973492"><ele>97.0</ele><time>2026-03-29T15:39:26Z</time></trkpt><trkpt lat="45.418289916693375" lon="9.408769924578214"><ele>97.5</ele><time>2026-03-29T15:39:27Z</time></trkpt><trkpt lat="45.41839799871395" lon="9.40876566865012"><ele>98.0</ele><time>2026-03-29T15:39:28Z</time></trkpt><trkpt lat="45.41850665007387" lon="9.408759190448517"><ele>98.5</ele><time>2026-03-29T15:39:29Z</time></trkpt><trkpt lat="45.41862167159592" lon="9.408750195261122"><ele>99.0</ele><time>2026-03-29T15:39:30Z</time></trkpt><trkpt lat="45.41873894316635" lon="9.408740323305224"><ele>98.80000000000001</ele><time>2026-03-29T15:39:31Z</time></trkpt><trkpt lat="45.41884442988353" lon="9.408729910380277"><ele>98.60000000000001</ele><time>2026-03-29T15:39:32Z</time></trkpt><trkpt lat="45.418941649462944" lon="9.408720591474038"><ele>98.4</ele><time>2026-03-29T15:39:33Z</time></trkpt><trkpt lat="45.419034855097145" lon="9.408712202740976"><ele>98.2</ele><time>2026-03-29T15:39:34Z</time></trkpt><trkpt lat="45.41911721864878" lon="9.408699641542434"><ele>98.0</ele><time>2026-03-29T15:39:35Z</time></trkpt><trkpt lat="45.41920191021017" lon="9.408681621011347"><ele>97.99999999999999</ele><time>2026-03-29T15:39:36Z</time></trkpt><trkpt lat="45.41928996024915" lon="9.408664093245378"><ele>98.0</ele><time>2026-03-29T15:39:37Z</time></trkpt><trkpt lat="45.419369045740304" lon="9.408660825342148"><ele>98.0</ele><time>2026-03-29T15:39:38Z</time></trkpt><trkpt lat="45.419443854653274" lon="9.408652029923008"><ele>98.0</ele><time>2026-03-29T15:39:39Z</time></trkpt><trkpt lat="45.41951934397357" lon="9.408641372107386"><ele>97.99999999999999</ele><time>2026-03-29T15:39:40Z</time></trkpt><trkpt lat="45.4195861058762" lon="9.40863017046986"><ele>98.0</ele><time>2026-03-29T15:39:41Z</time></trkpt><trkpt lat="45.41964998912133" lon="9.408621828888542"><ele>97.99999999999999</ele><time>2026-03-29T15:39:42Z</time></trkpt><trkpt lat="45.41974804775351" lon="9.408602896374877"><ele>98.0</ele><time>2026-03-29T15:39:44Z</time></trkpt><trkpt lat="45.41981087447691" lon="9.408594130989087"><ele>98.0</ele><time>2026-03-29T15:39:46Z</time></trkpt><trkpt lat="45.419887952439" lon="9.408598000965776"><ele>98.0</ele><time>2026-03-29T15:40:01Z</time></trkpt><trkpt lat="45.41995665078914" lon="9.408597046379374"><ele>97.99999999999999</ele><time>2026-03-29T15:40:03Z</time></trkpt><trkpt lat="45.42007865136509" lon="9.408577247788626"><ele>98.0</ele><time>2026-03-29T15:40:05Z</time></trkpt><trkpt lat="45.42014927097193" lon="9.408567369840322"><ele>98.0</ele><time>2026-03-29T15:40:06Z</time></trkpt><trkpt lat="45.420228394806095" lon="9.408557127556218"><ele>98.0</ele><time>2026-03-29T15:40:07Z</time></trkpt><trkpt lat="45.42031375310082" lon="9.408539917533334"><ele>98.0</ele><time>2026-03-29T15:40:08Z</time></trkpt><trkpt lat="45.42040709436679" lon="9.4085238976839"><ele>98.0</ele><time>2026-03-29T15:40:09Z</time></trkpt><trkpt lat="45.42049959948017" lon="9.408513760437334"><ele>98.0</ele><time>2026-03-29T15:40:10Z</time></trkpt><trkpt lat="45.420600790705755" lon="9.408502261634112"><ele>98.0</ele><time>2026-03-29T15:40:11Z</time></trkpt><trkpt lat="45.420707100746746" lon="9.408488815604787"><ele>98.0</ele><time>2026-03-29T15:40:12Z</time></trkpt><trkpt lat="45.42082056026857" lon="9.40847700576878"><ele>98.0</ele><time>2026-03-29T15:40:13Z</time></trkpt><trkpt lat="45.4209330975152" lon="9.408466685489723"><ele>98.0</ele><time>2026-03-29T15:40:14Z</time></trkpt><trkpt lat="45.42103585221184" lon="9.408448555459353"><ele>98.0</ele><time>2026-03-29T15:40:15Z</time></trkpt><trkpt lat="45.42113809135251" lon="9.40843507330985"><ele>98.0</ele><time>2026-03-29T15:40:16Z</time></trkpt><trkpt lat="45.42123285689454" lon="9.408418107206694"><ele>98.0</ele><time>2026-03-29T15:40:17Z</time></trkpt><trkpt lat="45.421327697766834" lon="9.408402275714055"><ele>98.0</ele><time>2026-03-29T15:40:18Z</time></trkpt><trkpt lat="45.421424377897786" lon="9.408390781899348"><ele>98.0</ele><time>2026-03-29T15:40:19Z</time></trkpt><trkpt lat="45.421523461104435" lon="9.408375306993037"><ele>98.0</ele><time>2026-03-29T15:40:20Z</time></trkpt><trkpt lat="45.42162537229744" lon="9.408362280936716"><ele>97.80000000000001</ele><time>2026-03-29T15:40:21Z</time></trkpt><trkpt lat="45.421726941637324" lon="9.408349831315869"><ele>97.6</ele><time>2026-03-29T15:40:22Z</time></trkpt><trkpt lat="45.42183215086802" lon="9.408341539617568"><ele>97.4</ele><time>2026-03-29T15:40:23Z</time></trkpt><trkpt lat="45.42194084112216" lon="9.408330227368339"><ele>97.19999999999999</ele><time>2026-03-29T15:40:24Z</time></trkpt><trkpt lat="45.422045247024116" lon="9.408305775994151"><ele>97.0</ele><time>2026-03-29T15:40:25Z</time></trkpt><trkpt lat="45.42214431907907" lon="9.408262358566656"><ele>96.8</ele><time>2026-03-29T15:40:25.999Z</time></trkpt><trkpt lat="45.42223261620403" lon="9.408188058535387"><ele>96.6</ele><time>2026-03-29T15:40:26.999Z</time></trkpt><trkpt lat="45.42230422912975" lon="9.40807062712244"><ele>96.39999999999999</ele><time>2026-03-29T15:40:27.999Z</time></trkpt><trkpt lat="45.4223598131882" lon="9.4079369509818"><ele>96.19999999999999</ele><time>2026-03-29T15:40:28.999Z</time></trkpt><trkpt lat="45.4223985618767" lon="9.40778929497661"><ele>96.0</ele><time>2026-03-29T15:40:29.999Z</time></trkpt><trkpt lat="45.422445800509415" lon="9.407642069639616"><ele>96.0</ele><time>2026-03-29T15:40:30.999Z</time></trkpt><trkpt lat="45.422498950914886" lon="9.407493208262467"><ele>96.0</ele><time>2026-03-29T15:40:31.999Z</time></trkpt><trkpt lat="45.422550273831575" lon="9.407339766531514"><ele>96.0</ele><time>2026-03-29T15:40:32.999Z</time></trkpt><trkpt lat="45.42260118183165" lon="9.407185791718968"><ele>96.0</ele><time>2026-03-29T15:40:33.999Z</time></trkpt><trkpt lat="45.422649981875615" lon="9.407033754775428"><ele>96.25</ele><time>2026-03-29T15:40:34.999Z</time></trkpt><trkpt lat="45.42269404802282" lon="9.406879354001035"><ele>96.5</ele><time>2026-03-29T15:40:35.999Z</time></trkpt><trkpt lat="45.4227382180881" lon="9.406724859569817"><ele>96.75</ele><time>2026-03-29T15:40:36.999Z</time></trkpt><trkpt lat="45.422782787456526" lon="9.40656949847682"><ele>97.0</ele><time>2026-03-29T15:40:37.999Z</time></trkpt><trkpt lat="45.422830339122974" lon="9.406415302411736"><ele>96.8</ele><time>2026-03-29T15:40:38.999Z</time></trkpt><trkpt lat="45.4228764152682" lon="9.406264957031505"><ele>96.6</ele><time>2026-03-29T15:40:39.999Z</time></trkpt><trkpt lat="45.422923203101" lon="9.40611859103536"><ele>96.39999999999999</ele><time>2026-03-29T15:40:40.999Z</time></trkpt><trkpt lat="45.42296614705012" lon="9.405977089676579"><ele>96.19999999999999</ele><time>2026-03-29T15:40:41.999Z</time></trkpt><trkpt lat="45.42300805581952" lon="9.405839665442349"><ele>96.0</ele><time>2026-03-29T15:40:42.999Z</time></trkpt><trkpt lat="45.423058905788295" lon="9.405717043327039"><ele>96.0</ele><time>2026-03-29T15:40:43.999Z</time></trkpt><trkpt lat="45.42309987545268" lon="9.405600304417645"><ele>96.0</ele><time>2026-03-29T15:40:44.999Z</time></trkpt><trkpt lat="45.42313871508969" lon="9.405489634998448"><ele>96.0</ele><time>2026-03-29T15:40:45.999Z</time></trkpt><trkpt lat="45.423174901302964" lon="9.405386525906517"><ele>96.0</ele><time>2026-03-29T15:40:46.999Z</time></trkpt><trkpt lat="45.42319976443853" lon="9.405283383415039"><ele>96.0</ele><time>2026-03-29T15:40:47.999Z</time></trkpt><trkpt lat="45.42324980518979" lon="9.405214740336982"><ele>96.0</ele><time>2026-03-29T15:40:48.999Z</time></trkpt><trkpt lat="45.42330492253418" lon="9.405166910100807"><ele>96.4</ele><time>2026-03-29T15:40:49.999Z</time></trkpt><trkpt lat="45.42336291732812" lon="9.40501139717288"><ele>96.8</ele><time>2026-03-29T15:40:51.999Z</time></trkpt><trkpt lat="45.42335266859536" lon="9.404893587963269"><ele>97.2</ele><time>2026-03-29T15:40:52.999Z</time></trkpt><trkpt lat="45.42334484942852" lon="9.404764917172903"><ele>97.60000000000001</ele><time>2026-03-29T15:40:53.999Z</time></trkpt><trkpt lat="45.423344368329964" lon="9.404620317787211"><ele>98.0</ele><time>2026-03-29T15:40:54.999Z</time></trkpt><trkpt lat="45.423338011515625" lon="9.404462718606048"><ele>98.0</ele><time>2026-03-29T15:40:55.999Z</time></trkpt><trkpt lat="45.42331845451882" lon="9.404296276575609"><ele>98.0</ele><time>2026-03-29T15:40:56.999Z</time></trkpt><trkpt lat="45.423298396840345" lon="9.404127092313775"><ele>98.0</ele><time>2026-03-29T15:40:57.999Z</time></trkpt><trkpt lat="45.4232807383652" lon="9.403952406344185"><ele>98.0</ele><time>2026-03-29T15:40:58.999Z</time></trkpt><trkpt lat="45.423264357157144" lon="9.403793142239914"><ele>97.80000000000001</ele><time>2026-03-29T15:40:59.999Z</time></trkpt><trkpt lat="45.42324711692881" lon="9.403641287048226"><ele>97.6</ele><time>2026-03-29T15:41:00.999Z</time></trkpt><trkpt lat="45.423231671994365" lon="9.403498166416739"><ele>97.4</ele><time>2026-03-29T15:41:01.999Z</time></trkpt><trkpt lat="45.42322070244888" lon="9.403360740183366"><ele>97.19999999999999</ele><time>2026-03-29T15:41:02.999Z</time></trkpt><trkpt lat="45.423221101196674" lon="9.403231697313164"><ele>97.0</ele><time>2026-03-29T15:41:03.999Z</time></trkpt><trkpt lat="45.423228276714276" lon="9.403109913914315"><ele>97.00000000000001</ele><time>2026-03-29T15:41:04.999Z</time></trkpt><trkpt lat="45.42324278522093" lon="9.402993593673683"><ele>97.0</ele><time>2026-03-29T15:41:05.999Z</time></trkpt><trkpt lat="45.42327153137258" lon="9.40289247972016"><ele>97.0</ele><time>2026-03-29T15:41:06.999Z</time></trkpt><trkpt lat="45.42329669784026" lon="9.402786903149126"><ele>97.0</ele><time>2026-03-29T15:41:07.999Z</time></trkpt><trkpt lat="45.423396407559196" lon="9.402754156013012"><ele>97.00000000000001</ele><time>2026-03-29T15:41:08.999Z</time></trkpt><trkpt lat="45.42346541954531" lon="9.402704898426295"><ele>97.0</ele><time>2026-03-29T15:41:09.999Z</time></trkpt><trkpt lat="45.42351301392924" lon="9.402619632185992"><ele>97.00000000000001</ele><time>2026-03-29T15:41:10.999Z</time></trkpt><trkpt lat="45.42352876980571" lon="9.402502950691717"><ele>97.0</ele><time>2026-03-29T15:41:11.999Z</time></trkpt><trkpt lat="45.42350524187393" lon="9.402385381353948"><ele>97.0</ele><time>2026-03-29T15:41:12.999Z</time></trkpt><trkpt lat="45.42344559058629" lon="9.402298385220472"><ele>97.0</ele><time>2026-03-29T15:41:13.999Z</time></trkpt><trkpt lat="45.423364910792415" lon="9.402249871633556"><ele>97.00000000000001</ele><time>2026-03-29T15:41:14.999Z</time></trkpt><trkpt lat="45.42327806101484" lon="9.402222843645708"><ele>97.0</ele><time>2026-03-29T15:41:15.999Z</time></trkpt><trkpt lat="45.42319675638375" lon="9.40216728628538"><ele>97.19999999999999</ele><time>2026-03-29T15:41:16.999Z</time></trkpt><trkpt lat="45.423135339060984" lon="9.402058777527314"><ele>97.4</ele><time>2026-03-29T15:41:17.999Z</time></trkpt><trkpt lat="45.42308681010695" lon="9.40191873726744"><ele>97.6</ele><time>2026-03-29T15:41:19Z</time></trkpt><trkpt lat="45.42304915141123" lon="9.401755236681497"><ele>97.80000000000001</ele><time>2026-03-29T15:41:20Z</time></trkpt><trkpt lat="45.4230262118229" lon="9.401589786054522"><ele>98.0</ele><time>2026-03-29T15:41:21Z</time></trkpt><trkpt lat="45.42300397083147" lon="9.401414975225736"><ele>98.25</ele><time>2026-03-29T15:41:22Z</time></trkpt><trkpt lat="45.422978839676446" lon="9.401235794640723"><ele>98.5</ele><time>2026-03-29T15:41:23Z</time></trkpt><trkpt lat="45.422950359043" lon="9.401059200501168"><ele>98.75</ele><time>2026-03-29T15:41:24Z</time></trkpt><trkpt lat="45.422919897167574" lon="9.400890430976526"><ele>99.0</ele><time>2026-03-29T15:41:25Z</time></trkpt><trkpt lat="45.42288710959542" lon="9.400728421645299"><ele>99.0</ele><time>2026-03-29T15:41:26Z</time></trkpt><trkpt lat="45.42285107766633" lon="9.400558672484607"><ele>99.0</ele><time>2026-03-29T15:41:27Z</time></trkpt><trkpt lat="45.42280999138326" lon="9.400390752879462"><ele>99.0</ele><time>2026-03-29T15:41:28Z</time></trkpt><trkpt lat="45.42276322048495" lon="9.400222746035825"><ele>99.0</ele><time>2026-03-29T15:41:29Z</time></trkpt><trkpt lat="45.42271845618168" lon="9.4000663608251"><ele>99.2</ele><time>2026-03-29T15:41:30Z</time></trkpt><trkpt lat="45.42267606288404" lon="9.399924361583924"><ele>99.4</ele><time>2026-03-29T15:41:31Z</time></trkpt><trkpt lat="45.42263371400237" lon="9.399792432902352"><ele>99.6</ele><time>2026-03-29T15:41:32Z</time></trkpt><trkpt lat="45.42260420190354" lon="9.399666811735017"><ele>99.8</ele><time>2026-03-29T15:41:33Z</time></trkpt><trkpt lat="45.42258602723361" lon="9.39952887959235"><ele>100.0</ele><time>2026-03-29T15:41:34Z</time></trkpt><trkpt lat="45.42257382785531" lon="9.399381347443324"><ele>100.2</ele><time>2026-03-29T15:41:35Z</time></trkpt><trkpt lat="45.42256417489363" lon="9.399230921173832"><ele>100.4</ele><time>2026-03-29T15:41:36Z</time></trkpt><trkpt lat="45.42255256230934" lon="9.399077453262976"><ele>100.6</ele><time>2026-03-29T15:41:37Z</time></trkpt><trkpt lat="45.42254160465311" lon="9.398918680429986"><ele>100.8</ele><time>2026-03-29T15:41:38Z</time></trkpt><trkpt lat="45.422529644529746" lon="9.398755934101063"><ele>101.0</ele><time>2026-03-29T15:41:39Z</time></trkpt><trkpt lat="45.42251721160088" lon="9.398595224496272"><ele>100.25</ele><time>2026-03-29T15:41:40Z</time></trkpt><trkpt lat="45.422506279494414" lon="9.398427919068116"><ele>99.5</ele><time>2026-03-29T15:41:41Z</time></trkpt><trkpt lat="45.422495208377775" lon="9.3982602994594"><ele>98.75</ele><time>2026-03-29T15:41:42Z</time></trkpt><trkpt lat="45.42248549251489" lon="9.398090112304901"><ele>98.0</ele><time>2026-03-29T15:41:43Z</time></trkpt><trkpt lat="45.42247503774366" lon="9.397926270797669"><ele>98.0</ele><time>2026-03-29T15:41:44Z</time></trkpt><trkpt lat="45.42246422554087" lon="9.397761270288418"><ele>98.0</ele><time>2026-03-29T15:41:45Z</time></trkpt><trkpt lat="45.422450669772175" lon="9.397595914359819"><ele>98.0</ele><time>2026-03-29T15:41:46Z</time></trkpt><trkpt lat="45.42243652657427" lon="9.397435562615703"><ele>98.0</ele><time>2026-03-29T15:41:47Z</time></trkpt><trkpt lat="45.422423847446204" lon="9.39727883463821"><ele>98.2</ele><time>2026-03-29T15:41:48Z</time></trkpt><trkpt lat="45.42240990570359" lon="9.397120825518897"><ele>98.4</ele><time>2026-03-29T15:41:49Z</time></trkpt><trkpt lat="45.42239397942506" lon="9.396963319222428"><ele>98.60000000000001</ele><time>2026-03-29T15:41:50Z</time></trkpt><trkpt lat="45.42238016851478" lon="9.396812776370604"><ele>98.80000000000001</ele><time>2026-03-29T15:41:51Z</time></trkpt><trkpt lat="45.42236708030507" lon="9.396671940928156"><ele>99.0</ele><time>2026-03-29T15:41:52Z</time></trkpt><trkpt lat="45.42236333307018" lon="9.39654190915267"><ele>99.0</ele><time>2026-03-29T15:41:53Z</time></trkpt><trkpt lat="45.42235189665887" lon="9.3964197683788"><ele>99.0</ele><time>2026-03-29T15:41:54Z</time></trkpt><trkpt lat="45.42234017067241" lon="9.39629986443631"><ele>99.0</ele><time>2026-03-29T15:41:55Z</time></trkpt><trkpt lat="45.422331304735586" lon="9.396188500794748"><ele>99.0</ele><time>2026-03-29T15:41:56Z</time></trkpt><trkpt lat="45.422330644829245" lon="9.396079094247082"><ele>99.0</ele><time>2026-03-29T15:41:57Z</time></trkpt><trkpt lat="45.42234324069161" lon="9.395966309786719"><ele>99.0</ele><time>2026-03-29T15:41:58Z</time></trkpt><trkpt lat="45.42236569108256" lon="9.395845817080973"><ele>99.6</ele><time>2026-03-29T15:41:59Z</time></trkpt><trkpt lat="45.42240511863433" lon="9.395721146036937"><ele>100.2</ele><time>2026-03-29T15:42:00Z</time></trkpt><trkpt lat="45.422428977022065" lon="9.395596997779073"><ele>100.8</ele><time>2026-03-29T15:42:01Z</time></trkpt><trkpt lat="45.422434948490654" lon="9.395473603046245"><ele>101.39999999999999</ele><time>2026-03-29T15:42:02Z</time></trkpt><trkpt lat="45.422371328885895" lon="9.395361536830606"><ele>102.0</ele><time>2026-03-29T15:42:03Z</time></trkpt><trkpt lat="45.422306304819166" lon="9.39526406790178"><ele>102.0</ele><time>2026-03-29T15:42:04Z</time></trkpt><trkpt lat="45.422218985511655" lon="9.395161430985864"><ele>102.0</ele><time>2026-03-29T15:42:05Z</time></trkpt><trkpt lat="45.422126147792845" lon="9.395050467508593"><ele>102.0</ele><time>2026-03-29T15:42:06Z</time></trkpt><trkpt lat="45.42208989400838" lon="9.394850372586728"><ele>102.0</ele><time>2026-03-29T15:42:07Z</time></trkpt><trkpt lat="45.42204173467243" lon="9.394654180879167"><ele>101.33333333333334</ele><time>2026-03-29T15:42:08Z</time></trkpt><trkpt lat="45.4219914709235" lon="9.394456661547283"><ele>100.66666666666667</ele><time>2026-03-29T15:42:09Z</time></trkpt><trkpt lat="45.42194052037708" lon="9.394248755054718"><ele>100.0</ele><time>2026-03-29T15:42:10Z</time></trkpt><trkpt lat="45.42188526640225" lon="9.394032355329959"><ele>99.0</ele><time>2026-03-29T15:42:11Z</time></trkpt><trkpt lat="45.421825414908575" lon="9.39380372271316"><ele>98.0</ele><time>2026-03-29T15:42:12Z</time></trkpt><trkpt lat="45.421768846530036" lon="9.393589168970813"><ele>97.0</ele><time>2026-03-29T15:42:13Z</time></trkpt><trkpt lat="45.421716971360496" lon="9.393380788305222"><ele>97.0</ele><time>2026-03-29T15:42:14Z</time></trkpt><trkpt lat="45.42166948887657" lon="9.393177685555596"><ele>97.0</ele><time>2026-03-29T15:42:15Z</time></trkpt><trkpt lat="45.42162960539008" lon="9.392975689316588"><ele>97.0</ele><time>2026-03-29T15:42:16Z</time></trkpt><trkpt lat="45.42160045598585" lon="9.39276680730435"><ele>97.0</ele><time>2026-03-29T15:42:17Z</time></trkpt><trkpt lat="45.421584509857276" lon="9.39255425171663"><ele>97.25</ele><time>2026-03-29T15:42:18Z</time></trkpt><trkpt lat="45.4215781844477" lon="9.392339600372672"><ele>97.5</ele><time>2026-03-29T15:42:19Z</time></trkpt><trkpt lat="45.42158686436414" lon="9.392129711466515"><ele>97.75</ele><time>2026-03-29T15:42:20Z</time></trkpt><trkpt lat="45.4215994440094" lon="9.391918813708267"><ele>98.0</ele><time>2026-03-29T15:42:21Z</time></trkpt><trkpt lat="45.42161221205255" lon="9.391706846358797"><ele>96.66666666666666</ele><time>2026-03-29T15:42:22Z</time></trkpt><trkpt lat="45.42162420528131" lon="9.391489676377837"><ele>95.33333333333333</ele><time>2026-03-29T15:42:23Z</time></trkpt><trkpt lat="45.421635616799904" lon="9.391268658822993"><ele>94.0</ele><time>2026-03-29T15:42:24Z</time></trkpt><trkpt lat="45.4216403504975" lon="9.391045542212062"><ele>93.33333333333333</ele><time>2026-03-29T15:42:25Z</time></trkpt><trkpt lat="45.4216256627271" lon="9.390811869190953"><ele>92.66666666666667</ele><time>2026-03-29T15:42:25.999Z</time></trkpt><trkpt lat="45.421594317999705" lon="9.390577174501939"><ele>92.0</ele><time>2026-03-29T15:42:26.999Z</time></trkpt><trkpt lat="45.42154625945869" lon="9.390338147617145"><ele>92.0</ele><time>2026-03-29T15:42:27.999Z</time></trkpt><trkpt lat="45.421481487469094" lon="9.390098577483336"><ele>92.0</ele><time>2026-03-29T15:42:28.999Z</time></trkpt><trkpt lat="45.4214030767586" lon="9.389864312663654"><ele>92.0</ele><time>2026-03-29T15:42:29.999Z</time></trkpt><trkpt lat="45.42131503960987" lon="9.389629691433614"><ele>92.33333333333334</ele><time>2026-03-29T15:42:30.999Z</time></trkpt><trkpt lat="45.421223611166965" lon="9.389390716725384"><ele>92.66666666666667</ele><time>2026-03-29T15:42:31.999Z</time></trkpt><trkpt lat="45.42113306482686" lon="9.389153992541361"><ele>93.0</ele><time>2026-03-29T15:42:32.999Z</time></trkpt><trkpt lat="45.4210432336751" lon="9.388918943138645"><ele>92.33333333333333</ele><time>2026-03-29T15:42:33.999Z</time></trkpt><trkpt lat="45.42095329019834" lon="9.38868395140015"><ele>91.66666666666666</ele><time>2026-03-29T15:42:34.999Z</time></trkpt><trkpt lat="45.42086406252907" lon="9.388452176366409"><ele>91.0</ele><time>2026-03-29T15:42:35.999Z</time></trkpt><trkpt lat="45.42077690865399" lon="9.388222758352727"><ele>91.33333333333333</ele><time>2026-03-29T15:42:36.999Z</time></trkpt><trkpt lat="45.420689654003226" lon="9.388000721834242"><ele>91.66666666666667</ele><time>2026-03-29T15:42:37.999Z</time></trkpt><trkpt lat="45.42059960095285" lon="9.38778277243621"><ele>92.0</ele><time>2026-03-29T15:42:38.999Z</time></trkpt><trkpt lat="45.42051081736045" lon="9.387571879783568"><ele>92.0</ele><time>2026-03-29T15:42:39.999Z</time></trkpt><trkpt lat="45.42042342991081" lon="9.387367178603109"><ele>92.0</ele><time>2026-03-29T15:42:40.999Z</time></trkpt><trkpt lat="45.42034074623329" lon="9.387176529508125"><ele>92.0</ele><time>2026-03-29T15:42:41.999Z</time></trkpt><trkpt lat="45.42026450259311" lon="9.386997507388806"><ele>92.25</ele><time>2026-03-29T15:42:42.999Z</time></trkpt><trkpt lat="45.42019066261208" lon="9.386826844920401"><ele>92.5</ele><time>2026-03-29T15:42:43.999Z</time></trkpt><trkpt lat="45.420113400275504" lon="9.386655337516407"><ele>92.75</ele><time>2026-03-29T15:42:44.999Z</time></trkpt><trkpt lat="45.420039572579384" lon="9.386489248162484"><ele>93.0</ele><time>2026-03-29T15:42:45.999Z</time></trkpt><trkpt lat="45.419972351439256" lon="9.386333750502205"><ele>93.33333333333333</ele><time>2026-03-29T15:42:46.999Z</time></trkpt><trkpt lat="45.41991159473236" lon="9.386194785531382"><ele>93.66666666666667</ele><time>2026-03-29T15:42:47.999Z</time></trkpt><trkpt lat="45.419863279174955" lon="9.386081256730508"><ele>94.0</ele><time>2026-03-29T15:42:48.999Z</time></trkpt><trkpt lat="45.419826474961766" lon="9.386000740853802"><ele>94.33333333333334</ele><time>2026-03-29T15:42:49.999Z</time></trkpt><trkpt lat="45.41979149767481" lon="9.385889309349567"><ele>94.66666666666667</ele><time>2026-03-29T15:42:51.999Z</time></trkpt><trkpt lat="45.419779278251276" lon="9.385786972981581"><ele>95.0</ele><time>2026-03-29T15:42:54.999Z</time></trkpt><trkpt lat="45.41973606832097" lon="9.385720449056063"><ele>95.0</ele><time>2026-03-29T15:43:04.999Z</time></trkpt><trkpt lat="45.4197558975473" lon="9.385623898432105"><ele>95.0</ele><time>2026-03-29T15:43:06.999Z</time></trkpt><trkpt lat="45.41972461939186" lon="9.38547751746988"><ele>95.0</ele><time>2026-03-29T15:43:08.999Z</time></trkpt><trkpt lat="45.41975740853886" lon="9.38537925709528"><ele>95.0</ele><time>2026-03-29T15:43:09.999Z</time></trkpt><trkpt lat="45.419772106270024" lon="9.385289964298526"><ele>95.0</ele><time>2026-03-29T15:43:10.999Z</time></trkpt><trkpt lat="45.41979696433048" lon="9.385188033006125"><ele>95.0</ele><time>2026-03-29T15:43:11.999Z</time></trkpt><trkpt lat="45.4198300163571" lon="9.385074932524102"><ele>94.8</ele><time>2026-03-29T15:43:12.999Z</time></trkpt><trkpt lat="45.41986707731876" lon="9.384951868576184"><ele>94.6</ele><time>2026-03-29T15:43:13.999Z</time></trkpt><trkpt lat="45.41990647298592" lon="9.384821503992965"><ele>94.4</ele><time>2026-03-29T15:43:14.999Z</time></trkpt><trkpt lat="45.41993992634761" lon="9.384693715443168"><ele>94.2</ele><time>2026-03-29T15:43:15.999Z</time></trkpt><trkpt lat="45.419972830438205" lon="9.384555610122606"><ele>94.0</ele><time>2026-03-29T15:43:16.999Z</time></trkpt><trkpt lat="45.420006656843796" lon="9.384386363163191"><ele>94.0</ele><time>2026-03-29T15:43:17.999Z</time></trkpt><trkpt lat="45.42004084897221" lon="9.384203420584432"><ele>94.0</ele><time>2026-03-29T15:43:18.999Z</time></trkpt><trkpt lat="45.42007200970714" lon="9.384017925544828"><ele>94.0</ele><time>2026-03-29T15:43:19.999Z</time></trkpt><trkpt lat="45.42010070149807" lon="9.3838218007718"><ele>94.0</ele><time>2026-03-29T15:43:20.999Z</time></trkpt><trkpt lat="45.420133483901765" lon="9.38361654862377"><ele>94.0</ele><time>2026-03-29T15:43:21.999Z</time></trkpt><trkpt lat="45.42016926692743" lon="9.383392520694079"><ele>94.0</ele><time>2026-03-29T15:43:22.999Z</time></trkpt><trkpt lat="45.420206123222165" lon="9.383169897250308"><ele>94.0</ele><time>2026-03-29T15:43:23.999Z</time></trkpt><trkpt lat="45.42024161089122" lon="9.382960065534252"><ele>94.0</ele><time>2026-03-29T15:43:25Z</time></trkpt><trkpt lat="45.420272776432675" lon="9.382766594310844"><ele>94.0</ele><time>2026-03-29T15:43:26Z</time></trkpt><trkpt lat="45.420300050487846" lon="9.382584082063858"><ele>94.0</ele><time>2026-03-29T15:43:27Z</time></trkpt><trkpt lat="45.420329088687865" lon="9.382402761168379"><ele>94.0</ele><time>2026-03-29T15:43:28Z</time></trkpt><trkpt lat="45.42036083806281" lon="9.382221774567068"><ele>94.5</ele><time>2026-03-29T15:43:29Z</time></trkpt><trkpt lat="45.420393680777025" lon="9.38205087621901"><ele>95.0</ele><time>2026-03-29T15:43:30Z</time></trkpt><trkpt lat="45.420423794401394" lon="9.38186853616746"><ele>95.5</ele><time>2026-03-29T15:43:31Z</time></trkpt><trkpt lat="45.42045238660359" lon="9.381685682757535"><ele>96.0</ele><time>2026-03-29T15:43:32Z</time></trkpt><trkpt lat="45.42048311187903" lon="9.381502626115072"><ele>96.25</ele><time>2026-03-29T15:43:33Z</time></trkpt><trkpt lat="45.420516955165255" lon="9.381314137882914"><ele>96.5</ele><time>2026-03-29T15:43:34Z</time></trkpt><trkpt lat="45.420557271968" lon="9.381122947789688"><ele>96.75</ele><time>2026-03-29T15:43:35Z</time></trkpt><trkpt lat="45.420608029382294" lon="9.38093393758797"><ele>97.0</ele><time>2026-03-29T15:43:36Z</time></trkpt><trkpt lat="45.42066768391925" lon="9.380738281674445"><ele>97.0</ele><time>2026-03-29T15:43:37Z</time></trkpt><trkpt lat="45.420737403628316" lon="9.380546070263701"><ele>97.0</ele><time>2026-03-29T15:43:38Z</time></trkpt><trkpt lat="45.420812812772475" lon="9.380357403545627"><ele>97.0</ele><time>2026-03-29T15:43:39Z</time></trkpt><trkpt lat="45.42089736541902" lon="9.380176377828"><ele>96.66666666666667</ele><time>2026-03-29T15:43:40Z</time></trkpt><trkpt lat="45.4209896402318" lon="9.379999227537013"><ele>96.33333333333334</ele><time>2026-03-29T15:43:41Z</time></trkpt><trkpt lat="45.42109013891015" lon="9.379831638207639"><ele>96.0</ele><time>2026-03-29T15:43:42Z</time></trkpt><trkpt lat="45.42119714673078" lon="9.379672666168627"><ele>96.0</ele><time>2026-03-29T15:43:43Z</time></trkpt><trkpt lat="45.42131010903327" lon="9.379520071852331"><ele>96.0</ele><time>2026-03-29T15:43:44Z</time></trkpt><trkpt lat="45.421430785742295" lon="9.379381286584373"><ele>96.0</ele><time>2026-03-29T15:43:45Z</time></trkpt><trkpt lat="45.42155723821644" lon="9.379250183836273"><ele>96.33333333333334</ele><time>2026-03-29T15:43:46Z</time></trkpt><trkpt lat="45.421689348918626" lon="9.379131793070313"><ele>96.66666666666667</ele><time>2026-03-29T15:43:47Z</time></trkpt><trkpt lat="45.42182700809591" lon="9.379019475559614"><ele>97.0</ele><time>2026-03-29T15:43:48Z</time></trkpt><trkpt lat="45.421969113423664" lon="9.378915368548448"><ele>97.0</ele><time>2026-03-29T15:43:49Z</time></trkpt><trkpt lat="45.422114652818216" lon="9.378820532470112"><ele>97.0</ele><time>2026-03-29T15:43:50Z</time></trkpt><trkpt lat="45.42226252111277" lon="9.37873820659381"><ele>97.0</ele><time>2026-03-29T15:43:51Z</time></trkpt><trkpt lat="45.42241579135099" lon="9.37867185692362"><ele>97.0</ele><time>2026-03-29T15:43:52Z</time></trkpt><trkpt lat="45.42257154410701" lon="9.378616737752184"><ele>97.0</ele><time>2026-03-29T15:43:53Z</time></trkpt><trkpt lat="45.42273065297384" lon="9.378561100694258"><ele>97.0</ele><time>2026-03-29T15:43:54Z</time></trkpt><trkpt lat="45.422890581194714" lon="9.378503357101929"><ele>97.0</ele><time>2026-03-29T15:43:55Z</time></trkpt><trkpt lat="45.42305250561405" lon="9.37843809455699"><ele>97.0</ele><time>2026-03-29T15:43:56Z</time></trkpt><trkpt lat="45.42322502780138" lon="9.378370142104462"><ele>97.0</ele><time>2026-03-29T15:43:57Z</time></trkpt><trkpt lat="45.42340130746796" lon="9.37830389096813"><ele>97.0</ele><time>2026-03-29T15:43:58Z</time></trkpt><trkpt lat="45.423575034675515" lon="9.378238363498912"><ele>97.0</ele><time>2026-03-29T15:43:59Z</time></trkpt><trkpt lat="45.42374797977596" lon="9.37817373915651"><ele>97.0</ele><time>2026-03-29T15:44:00Z</time></trkpt><trkpt lat="45.42392155998259" lon="9.378110694869301"><ele>97.0</ele><time>2026-03-29T15:44:01Z</time></trkpt><trkpt lat="45.42408991298745" lon="9.3780481157739"><ele>97.0</ele><time>2026-03-29T15:44:02Z</time></trkpt><trkpt lat="45.42424921148076" lon="9.377985468688824"><ele>97.0</ele><time>2026-03-29T15:44:03Z</time></trkpt><trkpt lat="45.42439834177185" lon="9.377925585694099"><ele>97.0</ele><time>2026-03-29T15:44:04Z</time></trkpt><trkpt lat="45.424541458641585" lon="9.377870930515693"><ele>97.0</ele><time>2026-03-29T15:44:05Z</time></trkpt><trkpt lat="45.42467711796565" lon="9.377817577032614"><ele>97.0</ele><time>2026-03-29T15:44:06Z</time></trkpt><trkpt lat="45.42480923153323" lon="9.377766327529711"><ele>97.0</ele><time>2026-03-29T15:44:07Z</time></trkpt><trkpt lat="45.4249379888833" lon="9.377716286526551"><ele>97.5</ele><time>2026-03-29T15:44:08Z</time></trkpt><trkpt lat="45.42506604737454" lon="9.377662396990276"><ele>98.0</ele><time>2026-03-29T15:44:09Z</time></trkpt><trkpt lat="45.4251956700817" lon="9.377604770283863"><ele>98.5</ele><time>2026-03-29T15:44:10Z</time></trkpt><trkpt lat="45.42532296200839" lon="9.377542719897956"><ele>99.0</ele><time>2026-03-29T15:44:11Z</time></trkpt><trkpt lat="45.425447961425284" lon="9.377470891942863"><ele>98.25</ele><time>2026-03-29T15:44:12Z</time></trkpt><trkpt lat="45.42557319205661" lon="9.377387161877243"><ele>97.5</ele><time>2026-03-29T15:44:13Z</time></trkpt><trkpt lat="45.42569503120683" lon="9.37729386964825"><ele>96.75</ele><time>2026-03-29T15:44:14Z</time></trkpt><trkpt lat="45.4258132640743" lon="9.377190169920524"><ele>96.0</ele><time>2026-03-29T15:44:15Z</time></trkpt><trkpt lat="45.425928231625726" lon="9.377077145649709"><ele>96.0</ele><time>2026-03-29T15:44:16Z</time></trkpt><trkpt lat="45.42604167976587" lon="9.376957229717005"><ele>96.0</ele><time>2026-03-29T15:44:17Z</time></trkpt><trkpt lat="45.42615265084021" lon="9.376828166662598"><ele>96.0</ele><time>2026-03-29T15:44:18Z</time></trkpt><trkpt lat="45.42625915553968" lon="9.376691203753035"><ele>96.0</ele><time>2026-03-29T15:44:19Z</time></trkpt><trkpt lat="45.426360052407176" lon="9.376547784404726"><ele>96.5</ele><time>2026-03-29T15:44:20Z</time></trkpt><trkpt lat="45.42645183681203" lon="9.376398108653893"><ele>97.0</ele><time>2026-03-29T15:44:21Z</time></trkpt><trkpt lat="45.42653447050996" lon="9.376247826377053"><ele>97.5</ele><time>2026-03-29T15:44:22Z</time></trkpt><trkpt lat="45.42660648725317" lon="9.376097778487704"><ele>98.0</ele><time>2026-03-29T15:44:23Z</time></trkpt><trkpt lat="45.42667056104401" lon="9.375951054880026"><ele>98.25</ele><time>2026-03-29T15:44:24Z</time></trkpt><trkpt lat="45.426729645139346" lon="9.375800476813458"><ele>98.5</ele><time>2026-03-29T15:44:25Z</time></trkpt><trkpt lat="45.42678388335808" lon="9.375649636442036"><ele>98.75</ele><time>2026-03-29T15:44:26Z</time></trkpt><trkpt lat="45.426833640700394" lon="9.375494724572464"><ele>99.0</ele><time>2026-03-29T15:44:27Z</time></trkpt><trkpt lat="45.426877013899286" lon="9.375339593435957"><ele>99.0</ele><time>2026-03-29T15:44:28Z</time></trkpt><trkpt lat="45.426915214030785" lon="9.375189722999036"><ele>99.0</ele><time>2026-03-29T15:44:29Z</time></trkpt><trkpt lat="45.42694630783357" lon="9.37503925396711"><ele>99.0</ele><time>2026-03-29T15:44:30Z</time></trkpt><trkpt lat="45.42697967631425" lon="9.37488942746833"><ele>99.0</ele><time>2026-03-29T15:44:30.999Z</time></trkpt><trkpt lat="45.427013634209594" lon="9.374736599740885"><ele>99.0</ele><time>2026-03-29T15:44:31.999Z</time></trkpt><trkpt lat="45.42704256573241" lon="9.374583367928293"><ele>98.80000000000001</ele><time>2026-03-29T15:44:32.999Z</time></trkpt><trkpt lat="45.427063226655214" lon="9.37444166544574"><ele>98.60000000000001</ele><time>2026-03-29T15:44:33.999Z</time></trkpt><trkpt lat="45.4270833934203" lon="9.374310751171365"><ele>98.4</ele><time>2026-03-29T15:44:34.999Z</time></trkpt><trkpt lat="45.42710198738486" lon="9.374183378065357"><ele>98.2</ele><time>2026-03-29T15:44:35.999Z</time></trkpt><trkpt lat="45.42712364890914" lon="9.374066824953282"><ele>98.0</ele><time>2026-03-29T15:44:36.999Z</time></trkpt><trkpt lat="45.42714183436619" lon="9.373957065523742"><ele>98.0</ele><time>2026-03-29T15:44:37.999Z</time></trkpt><trkpt lat="45.427157901891064" lon="9.373850921621164"><ele>98.0</ele><time>2026-03-29T15:44:38.999Z</time></trkpt><trkpt lat="45.427172046716244" lon="9.373750367402954"><ele>98.0</ele><time>2026-03-29T15:44:39.999Z</time></trkpt><trkpt lat="45.4271884998952" lon="9.373651510838979"><ele>98.0</ele><time>2026-03-29T15:44:40.999Z</time></trkpt><trkpt lat="45.42722419681804" lon="9.373477952701876"><ele>98.0</ele><time>2026-03-29T15:44:42.999Z</time></trkpt><trkpt lat="45.427274114491546" lon="9.373306010972923"><ele>97.99999999999999</ele><time>2026-03-29T15:44:44.999Z</time></trkpt><trkpt lat="45.42731815396371" lon="9.373218051406456"><ele>98.0</ele><time>2026-03-29T15:44:45.999Z</time></trkpt><trkpt lat="45.42736228649026" lon="9.373125418333087"><ele>98.0</ele><time>2026-03-29T15:44:46.999Z</time></trkpt><trkpt lat="45.42739035455869" lon="9.373015642504841"><ele>98.0</ele><time>2026-03-29T15:44:47.999Z</time></trkpt><trkpt lat="45.427394573421545" lon="9.372891695974353"><ele>97.99999999999999</ele><time>2026-03-29T15:44:48.999Z</time></trkpt><trkpt lat="45.427389286707346" lon="9.37276476691544"><ele>98.0</ele><time>2026-03-29T15:44:49.999Z</time></trkpt><trkpt lat="45.4273958087222" lon="9.372638198647358"><ele>98.2</ele><time>2026-03-29T15:44:50.999Z</time></trkpt><trkpt lat="45.427393619145334" lon="9.372524207809485"><ele>98.4</ele><time>2026-03-29T15:44:51.999Z</time></trkpt><trkpt lat="45.42742803510846" lon="9.372397826849907"><ele>98.60000000000001</ele><time>2026-03-29T15:44:52.999Z</time></trkpt><trkpt lat="45.427448786488426" lon="9.372276773658825"><ele>98.80000000000001</ele><time>2026-03-29T15:44:53.999Z</time></trkpt><trkpt lat="45.4274729120054" lon="9.372147773327026"><ele>99.0</ele><time>2026-03-29T15:44:54.999Z</time></trkpt><trkpt lat="45.42749759133048" lon="9.372016540117821"><ele>99.0</ele><time>2026-03-29T15:44:55.999Z</time></trkpt><trkpt lat="45.42752092549414" lon="9.371886118806593"><ele>99.0</ele><time>2026-03-29T15:44:56.999Z</time></trkpt><trkpt lat="45.42753978181884" lon="9.371744025567232"><ele>99.0</ele><time>2026-03-29T15:44:57.999Z</time></trkpt><trkpt lat="45.42756293741593" lon="9.371590013396988"><ele>99.0</ele><time>2026-03-29T15:44:58.999Z</time></trkpt><trkpt lat="45.42758982179833" lon="9.37142702751826"><ele>99.0</ele><time>2026-03-29T15:44:59.999Z</time></trkpt><trkpt lat="45.42761698477515" lon="9.371266389011263"><ele>99.0</ele><time>2026-03-29T15:45:00.999Z</time></trkpt><trkpt lat="45.42764804742411" lon="9.3710939185475"><ele>99.0</ele><time>2026-03-29T15:45:01.999Z</time></trkpt><trkpt lat="45.42768097781482" lon="9.370910555102355"><ele>99.0</ele><time>2026-03-29T15:45:02.999Z</time></trkpt><trkpt lat="45.427713908060156" lon="9.370713571023282"><ele>99.0</ele><time>2026-03-29T15:45:03.999Z</time></trkpt><trkpt lat="45.42774517032299" lon="9.370506672813976"><ele>99.0</ele><time>2026-03-29T15:45:04.999Z</time></trkpt><trkpt lat="45.427773243799166" lon="9.370305057818745"><ele>99.0</ele><time>2026-03-29T15:45:05.999Z</time></trkpt><trkpt lat="45.427802644405624" lon="9.370101181109623"><ele>99.0</ele><time>2026-03-29T15:45:06.999Z</time></trkpt><trkpt lat="45.42783310335276" lon="9.36989262576509"><ele>99.0</ele><time>2026-03-29T15:45:07.999Z</time></trkpt><trkpt lat="45.42786740632636" lon="9.369684415064544"><ele>99.0</ele><time>2026-03-29T15:45:08.999Z</time></trkpt><trkpt lat="45.42790240745674" lon="9.369472213135658"><ele>99.0</ele><time>2026-03-29T15:45:09.999Z</time></trkpt><trkpt lat="45.42793776834604" lon="9.369261291060814"><ele>99.0</ele><time>2026-03-29T15:45:10.999Z</time></trkpt><trkpt lat="45.427973502616894" lon="9.369049997612313"><ele>99.0</ele><time>2026-03-29T15:45:11.999Z</time></trkpt><trkpt lat="45.42801001396979" lon="9.368846027583096"><ele>99.0</ele><time>2026-03-29T15:45:12.999Z</time></trkpt><trkpt lat="45.428043959262766" lon="9.3686442738528"><ele>99.0</ele><time>2026-03-29T15:45:13.999Z</time></trkpt><trkpt lat="45.42807952281907" lon="9.36844617275123"><ele>99.0</ele><time>2026-03-29T15:45:14.999Z</time></trkpt><trkpt lat="45.428114380895764" lon="9.368250224544877"><ele>99.0</ele><time>2026-03-29T15:45:15.999Z</time></trkpt><trkpt lat="45.428146520151124" lon="9.36805270337365"><ele>99.0</ele><time>2026-03-29T15:45:16.999Z</time></trkpt><trkpt lat="45.42817927722514" lon="9.367854911144724"><ele>99.0</ele><time>2026-03-29T15:45:17.999Z</time></trkpt><trkpt lat="45.42821087684402" lon="9.367655067996253"><ele>99.0</ele><time>2026-03-29T15:45:18.999Z</time></trkpt><trkpt lat="45.42824471834544" lon="9.367456389423479"><ele>99.5</ele><time>2026-03-29T15:45:19.999Z</time></trkpt><trkpt lat="45.428278555701354" lon="9.367256260992201"><ele>100.0</ele><time>2026-03-29T15:45:20.999Z</time></trkpt><trkpt lat="45.428309886648535" lon="9.36705330324998"><ele>100.5</ele><time>2026-03-29T15:45:21.999Z</time></trkpt><trkpt lat="45.42834250638507" lon="9.366853389089199"><ele>101.0</ele><time>2026-03-29T15:45:22.999Z</time></trkpt><trkpt lat="45.42837560593446" lon="9.366655183803418"><ele>101.0</ele><time>2026-03-29T15:45:23.999Z</time></trkpt><trkpt lat="45.42841058872869" lon="9.366461047560547"><ele>101.0</ele><time>2026-03-29T15:45:24.999Z</time></trkpt><trkpt lat="45.42844255867043" lon="9.366263279559824"><ele>101.0</ele><time>2026-03-29T15:45:25.999Z</time></trkpt><trkpt lat="45.4284767844072" lon="9.366071959661511"><ele>101.0</ele><time>2026-03-29T15:45:26.999Z</time></trkpt><trkpt lat="45.42850884776801" lon="9.365887304044245"><ele>101.25</ele><time>2026-03-29T15:45:27.999Z</time></trkpt><trkpt lat="45.428537957874056" lon="9.365708786988712"><ele>101.5</ele><time>2026-03-29T15:45:28.999Z</time></trkpt><trkpt lat="45.42856580260252" lon="9.365536451269755"><ele>101.75</ele><time>2026-03-29T15:45:29.999Z</time></trkpt><trkpt lat="45.42859224189012" lon="9.365379540846497"><ele>102.0</ele><time>2026-03-29T15:45:31Z</time></trkpt><trkpt lat="45.42861531032625" lon="9.365223495973424"><ele>102.0</ele><time>2026-03-29T15:45:32Z</time></trkpt><trkpt lat="45.42863870032119" lon="9.365077136459485"><ele>102.0</ele><time>2026-03-29T15:45:33Z</time></trkpt><trkpt lat="45.42866209610659" lon="9.364932788505184"><ele>102.0</ele><time>2026-03-29T15:45:34Z</time></trkpt><trkpt lat="45.428688468977306" lon="9.364790220666922"><ele>102.0</ele><time>2026-03-29T15:45:35Z</time></trkpt><trkpt lat="45.428713839367695" lon="9.36465359956222"><ele>102.0</ele><time>2026-03-29T15:45:36Z</time></trkpt><trkpt lat="45.428737304726084" lon="9.364516806576098"><ele>102.0</ele><time>2026-03-29T15:45:37Z</time></trkpt><trkpt lat="45.42875915749835" lon="9.364378697529528"><ele>102.0</ele><time>2026-03-29T15:45:38Z</time></trkpt><trkpt lat="45.42878009509691" lon="9.36424321796816"><ele>102.0</ele><time>2026-03-29T15:45:39Z</time></trkpt><trkpt lat="45.4288034363318" lon="9.364115871930016"><ele>102.0</ele><time>2026-03-29T15:45:40Z</time></trkpt><trkpt lat="45.42882451235805" lon="9.364006521748363"><ele>102.0</ele><time>2026-03-29T15:45:41Z</time></trkpt><trkpt lat="45.42885784667454" lon="9.363844799455746"><ele>101.8</ele><time>2026-03-29T15:45:43Z</time></trkpt><trkpt lat="45.42888108803079" lon="9.363684768064974"><ele>101.6</ele><time>2026-03-29T15:45:45Z</time></trkpt><trkpt lat="45.42890213246493" lon="9.363519222753943"><ele>101.39999999999999</ele><time>2026-03-29T15:45:47Z</time></trkpt><trkpt lat="45.42891827102397" lon="9.363423467509758"><ele>101.19999999999999</ele><time>2026-03-29T15:45:48Z</time></trkpt><trkpt lat="45.42893775394482" lon="9.363316802979337"><ele>101.0</ele><time>2026-03-29T15:45:49Z</time></trkpt><trkpt lat="45.42895875046381" lon="9.36319959212352"><ele>101.0</ele><time>2026-03-29T15:45:50Z</time></trkpt><trkpt lat="45.42898059468466" lon="9.363073022802793"><ele>101.0</ele><time>2026-03-29T15:45:51Z</time></trkpt><trkpt lat="45.42900476095864" lon="9.36293536555727"><ele>101.0</ele><time>2026-03-29T15:45:52Z</time></trkpt><trkpt lat="45.42902843838359" lon="9.36278700030989"><ele>101.0</ele><time>2026-03-29T15:45:53Z</time></trkpt><trkpt lat="45.42905188395328" lon="9.362649937318071"><ele>101.0</ele><time>2026-03-29T15:45:54Z</time></trkpt><trkpt lat="45.42907439369567" lon="9.362509944827304"><ele>100.8</ele><time>2026-03-29T15:45:55Z</time></trkpt><trkpt lat="45.42909774848422" lon="9.362372452104283"><ele>100.6</ele><time>2026-03-29T15:45:56Z</time></trkpt><trkpt lat="45.42912259240946" lon="9.362238868055433"><ele>100.4</ele><time>2026-03-29T15:45:57Z</time></trkpt><trkpt lat="45.429146323546355" lon="9.362107675243864"><ele>100.2</ele><time>2026-03-29T15:45:58Z</time></trkpt><trkpt lat="45.42917060255286" lon="9.361986410544226"><ele>100.0</ele><time>2026-03-29T15:45:59Z</time></trkpt><trkpt lat="45.42919501429783" lon="9.36187261714409"><ele>100.00000000000001</ele><time>2026-03-29T15:46:00Z</time></trkpt><trkpt lat="45.429225967980784" lon="9.361780178650777"><ele>100.0</ele><time>2026-03-29T15:46:01Z</time></trkpt><trkpt lat="45.42926853220944" lon="9.361656894153297"><ele>100.0</ele><time>2026-03-29T15:46:03Z</time></trkpt><trkpt lat="45.429282141627795" lon="9.361562483617181"><ele>100.0</ele><time>2026-03-29T15:52:21Z</time></trkpt><trkpt lat="45.42927268152437" lon="9.361467221445551"><ele>100.00000000000001</ele><time>2026-03-29T15:52:25Z</time></trkpt><trkpt lat="45.42929420819501" lon="9.361351690586535"><ele>100.0</ele><time>2026-03-29T15:52:28Z</time></trkpt><trkpt lat="45.429317116856694" lon="9.361263306512136"><ele>100.00000000000001</ele><time>2026-03-29T15:52:30Z</time></trkpt><trkpt lat="45.429336529849614" lon="9.361158273230616"><ele>100.0</ele><time>2026-03-29T15:52:32Z</time></trkpt><trkpt lat="45.42935999874004" lon="9.361048530720028"><ele>100.0</ele><time>2026-03-29T15:52:35Z</time></trkpt><trkpt lat="45.42937119097816" lon="9.360942429196937"><ele>100.0</ele><time>2026-03-29T15:52:39Z</time></trkpt><trkpt lat="45.42937729960727" lon="9.360798340940775"><ele>100.00000000000001</ele><time>2026-03-29T15:52:42Z</time></trkpt><trkpt lat="45.42939336744475" lon="9.360701634492141"><ele>100.0</ele><time>2026-03-29T15:52:43Z</time></trkpt><trkpt lat="45.429413646145754" lon="9.360598224986923"><ele>99.83333333333334</ele><time>2026-03-29T15:52:44Z</time></trkpt><trkpt lat="45.429436239267524" lon="9.360470485507303"><ele>99.66666666666667</ele><time>2026-03-29T15:52:45Z</time></trkpt><trkpt lat="45.42945539204337" lon="9.36036249956894"><ele>99.5</ele><time>2026-03-29T15:52:46Z</time></trkpt><trkpt lat="45.42947656549553" lon="9.36025014610959"><ele>99.33333333333334</ele><time>2026-03-29T15:52:47Z</time></trkpt><trkpt lat="45.429500074541416" lon="9.360125783890265"><ele>99.16666666666667</ele><time>2026-03-29T15:52:48Z</time></trkpt><trkpt lat="45.42952084436111" lon="9.359990228921358"><ele>99.0</ele><time>2026-03-29T15:52:49Z</time></trkpt><trkpt lat="45.42954394134334" lon="9.359853498148905"><ele>99.0</ele><time>2026-03-29T15:52:50Z</time></trkpt><trkpt lat="45.429570112601546" lon="9.359705215113033"><ele>99.0</ele><time>2026-03-29T15:52:51Z</time></trkpt><trkpt lat="45.429600370236344" lon="9.359553151352912"><ele>99.0</ele><time>2026-03-29T15:52:51.999Z</time></trkpt><trkpt lat="45.429623956435925" lon="9.359389341482574"><ele>99.0</ele><time>2026-03-29T15:52:52.999Z</time></trkpt><trkpt lat="45.429648464213805" lon="9.359230789543373"><ele>99.0</ele><time>2026-03-29T15:52:53.999Z</time></trkpt><trkpt lat="45.42967651993185" lon="9.359070021997853"><ele>99.0</ele><time>2026-03-29T15:52:54.999Z</time></trkpt><trkpt lat="45.42970727677617" lon="9.358900739633265"><ele>99.0</ele><time>2026-03-29T15:52:55.999Z</time></trkpt><trkpt lat="45.429737134183796" lon="9.358728728179715"><ele>99.0</ele><time>2026-03-29T15:52:56.999Z</time></trkpt><trkpt lat="45.429765689731575" lon="9.358556658525618"><ele>99.0</ele><time>2026-03-29T15:52:57.999Z</time></trkpt><trkpt lat="45.42979450781907" lon="9.358377653877445"><ele>99.0</ele><time>2026-03-29T15:52:58.999Z</time></trkpt><trkpt lat="45.42982480605607" lon="9.358200360084249"><ele>99.0</ele><time>2026-03-29T15:52:59.999Z</time></trkpt><trkpt lat="45.429857452051905" lon="9.358021170430431"><ele>99.0</ele><time>2026-03-29T15:53:00.999Z</time></trkpt><trkpt lat="45.429886112298455" lon="9.357840860606926"><ele>99.0</ele><time>2026-03-29T15:53:01.999Z</time></trkpt><trkpt lat="45.42991441661486" lon="9.357656311256742"><ele>99.0</ele><time>2026-03-29T15:53:02.999Z</time></trkpt><trkpt lat="45.42994328262816" lon="9.35746913719647"><ele>99.0</ele><time>2026-03-29T15:53:03.999Z</time></trkpt><trkpt lat="45.429974629168235" lon="9.35728529409022"><ele>99.0</ele><time>2026-03-29T15:53:04.999Z</time></trkpt><trkpt lat="45.43000512608016" lon="9.357097028811593"><ele>99.0</ele><time>2026-03-29T15:53:05.999Z</time></trkpt><trkpt lat="45.430038109380845" lon="9.356911643843581"><ele>98.75</ele><time>2026-03-29T15:53:06.999Z</time></trkpt><trkpt lat="45.43007284918813" lon="9.356726192957119"><ele>98.5</ele><time>2026-03-29T15:53:07.999Z</time></trkpt><trkpt lat="45.43010555617906" lon="9.356536566114231"><ele>98.25</ele><time>2026-03-29T15:53:08.999Z</time></trkpt><trkpt lat="45.43013622234504" lon="9.356348751820011"><ele>98.0</ele><time>2026-03-29T15:53:09.999Z</time></trkpt><trkpt lat="45.43016554467792" lon="9.35617328086758"><ele>98.0</ele><time>2026-03-29T15:53:10.999Z</time></trkpt><trkpt lat="45.430197380614636" lon="9.356002701270045"><ele>98.0</ele><time>2026-03-29T15:53:11.999Z</time></trkpt><trkpt lat="45.43022631473251" lon="9.355835329038712"><ele>98.0</ele><time>2026-03-29T15:53:12.999Z</time></trkpt><trkpt lat="45.43025306256402" lon="9.355670143670023"><ele>98.0</ele><time>2026-03-29T15:53:13.999Z</time></trkpt><trkpt lat="45.43028013924422" lon="9.355510169387736"><ele>98.5</ele><time>2026-03-29T15:53:14.999Z</time></trkpt><trkpt lat="45.43030329532294" lon="9.355353469603017"><ele>99.0</ele><time>2026-03-29T15:53:15.999Z</time></trkpt><trkpt lat="45.43031321408304" lon="9.355193090419217"><ele>99.5</ele><time>2026-03-29T15:53:16.999Z</time></trkpt><trkpt lat="45.4303060837966" lon="9.355034352090957"><ele>100.0</ele><time>2026-03-29T15:53:17.999Z</time></trkpt><trkpt lat="45.430281586104826" lon="9.354877807058601"><ele>100.0</ele><time>2026-03-29T15:53:18.999Z</time></trkpt><trkpt lat="45.43024293203339" lon="9.354724512728191"><ele>100.0</ele><time>2026-03-29T15:53:19.999Z</time></trkpt><trkpt lat="45.43019701588844" lon="9.3545764765855"><ele>100.0</ele><time>2026-03-29T15:53:20.999Z</time></trkpt><trkpt lat="45.43014493830784" lon="9.354433116607082"><ele>100.0</ele><time>2026-03-29T15:53:21.999Z</time></trkpt><trkpt lat="45.43008827417478" lon="9.354303887683239"><ele>100.0</ele><time>2026-03-29T15:53:22.999Z</time></trkpt><trkpt lat="45.430038813698005" lon="9.354191475217995"><ele>100.16666666666667</ele><time>2026-03-29T15:53:23.999Z</time></trkpt><trkpt lat="45.43001869697354" lon="9.354082877424382"><ele>100.33333333333334</ele><time>2026-03-29T15:53:24.999Z</time></trkpt><trkpt lat="45.43003347667475" lon="9.353984610855113"><ele>100.5</ele><time>2026-03-29T15:53:25.999Z</time></trkpt><trkpt lat="45.43007465400681" lon="9.353909185443618"><ele>100.66666666666666</ele><time>2026-03-29T15:53:26.999Z</time></trkpt><trkpt lat="45.43018483187667" lon="9.353869380200496"><ele>100.83333333333333</ele><time>2026-03-29T15:53:28.999Z</time></trkpt><trkpt lat="45.430247679920136" lon="9.353903141998346"><ele>101.0</ele><time>2026-03-29T15:53:29.999Z</time></trkpt><trkpt lat="45.43031398163761" lon="9.353966804020995"><ele>100.99999999999999</ele><time>2026-03-29T15:53:30.999Z</time></trkpt><trkpt lat="45.430380972816195" lon="9.354042051983832"><ele>101.0</ele><time>2026-03-29T15:53:31.999Z</time></trkpt><trkpt lat="45.43045620274341" lon="9.354126690710528"><ele>101.0</ele><time>2026-03-29T15:53:32.999Z</time></trkpt><trkpt lat="45.4305370803302" lon="9.354158105305013"><ele>101.0</ele><time>2026-03-29T15:53:33.999Z</time></trkpt><trkpt lat="45.43062237025156" lon="9.354132623196257"><ele>100.99999999999999</ele><time>2026-03-29T15:53:34.999Z</time></trkpt><trkpt lat="45.430695055231936" lon="9.35406335530479"><ele>101.0</ele><time>2026-03-29T15:53:35.999Z</time></trkpt><trkpt lat="45.43075226191498" lon="9.353957174622705"><ele>101.16666666666666</ele><time>2026-03-29T15:53:36.999Z</time></trkpt><trkpt lat="45.43079926822084" lon="9.353833399464085"><ele>101.33333333333333</ele><time>2026-03-29T15:53:37.999Z</time></trkpt><trkpt lat="45.43084541796416" lon="9.353722955258617"><ele>101.5</ele><time>2026-03-29T15:53:38.999Z</time></trkpt><trkpt lat="45.43088607330231" lon="9.353618003950427"><ele>101.66666666666666</ele><time>2026-03-29T15:53:39.999Z</time></trkpt><trkpt lat="45.430929741166864" lon="9.353520636814878"><ele>101.83333333333333</ele><time>2026-03-29T15:53:40.999Z</time></trkpt><trkpt lat="45.43096462267439" lon="9.353415564243779"><ele>102.0</ele><time>2026-03-29T15:53:41.999Z</time></trkpt><trkpt lat="45.430957146111254" lon="9.353291028703813"><ele>102.0</ele><time>2026-03-29T15:53:42.999Z</time></trkpt><trkpt lat="45.4309262479196" lon="9.353187337535664"><ele>102.0</ele><time>2026-03-29T15:53:43.999Z</time></trkpt><trkpt lat="45.43088204260399" lon="9.353101751346902"><ele>102.0</ele><time>2026-03-29T15:53:44.999Z</time></trkpt><trkpt lat="45.43083688470146" lon="9.353014450698243"><ele>102.0</ele><time>2026-03-29T15:53:45.999Z</time></trkpt><trkpt lat="45.430799567776866" lon="9.352918927706183"><ele>102.0</ele><time>2026-03-29T15:53:46.999Z</time></trkpt><trkpt lat="45.43077132374122" lon="9.352817104254088"><ele>102.0</ele><time>2026-03-29T15:53:47.999Z</time></trkpt><trkpt lat="45.4307509934111" lon="9.352706401976402"><ele>102.0</ele><time>2026-03-29T15:53:48.999Z</time></trkpt><trkpt lat="45.4307421925804" lon="9.352589610419441"><ele>102.0</ele><time>2026-03-29T15:53:49.999Z</time></trkpt><trkpt lat="45.43075500368053" lon="9.352473603800336"><ele>102.0</ele><time>2026-03-29T15:53:50.999Z</time></trkpt><trkpt lat="45.430777603018434" lon="9.35235265277563"><ele>102.0</ele><time>2026-03-29T15:53:51.999Z</time></trkpt><trkpt lat="45.43080566441645" lon="9.352232812241112"><ele>102.0</ele><time>2026-03-29T15:53:52.999Z</time></trkpt><trkpt lat="45.43083600571497" lon="9.352106745471348"><ele>102.0</ele><time>2026-03-29T15:53:53.999Z</time></trkpt><trkpt lat="45.4308688633239" lon="9.351983804719085"><ele>102.0</ele><time>2026-03-29T15:53:55Z</time></trkpt><trkpt lat="45.4309005611578" lon="9.351853239217487"><ele>102.0</ele><time>2026-03-29T15:53:56Z</time></trkpt><trkpt lat="45.43092808925224" lon="9.351720197706966"><ele>102.0</ele><time>2026-03-29T15:53:57Z</time></trkpt><trkpt lat="45.430953015415774" lon="9.351583244936867"><ele>102.0</ele><time>2026-03-29T15:53:58Z</time></trkpt><trkpt lat="45.4309770208793" lon="9.351447280439096"><ele>102.0</ele><time>2026-03-29T15:53:59Z</time></trkpt><trkpt lat="45.4309987897227" lon="9.351309651554311"><ele>102.0</ele><time>2026-03-29T15:54:00Z</time></trkpt><trkpt lat="45.43101822345289" lon="9.351173826494637"><ele>102.0</ele><time>2026-03-29T15:54:01Z</time></trkpt><trkpt lat="45.43103986877948" lon="9.351032048928962"><ele>102.0</ele><time>2026-03-29T15:54:02Z</time></trkpt><trkpt lat="45.43106433946192" lon="9.350893073101194"><ele>102.0</ele><time>2026-03-29T15:54:03Z</time></trkpt><trkpt lat="45.43108927287236" lon="9.350757288438702"><ele>102.0</ele><time>2026-03-29T15:54:04Z</time></trkpt><trkpt lat="45.43111777779364" lon="9.350620535198695"><ele>102.19999999999999</ele><time>2026-03-29T15:54:05Z</time></trkpt><trkpt lat="45.4311447820625" lon="9.350473930843876"><ele>102.4</ele><time>2026-03-29T15:54:06Z</time></trkpt><trkpt lat="45.43116634698059" lon="9.350315228884268"><ele>102.6</ele><time>2026-03-29T15:54:07Z</time></trkpt><trkpt lat="45.43119116526589" lon="9.350163307001905"><ele>102.80000000000001</ele><time>2026-03-29T15:54:08Z</time></trkpt><trkpt lat="45.43121647448527" lon="9.350006922053144"><ele>103.0</ele><time>2026-03-29T15:54:09Z</time></trkpt><trkpt lat="45.4312426529303" lon="9.349847982129198"><ele>102.80000000000001</ele><time>2026-03-29T15:54:10Z</time></trkpt><trkpt lat="45.43126794574086" lon="9.349689662916878"><ele>102.6</ele><time>2026-03-29T15:54:11Z</time></trkpt><trkpt lat="45.43129272180136" lon="9.34953583701653"><ele>102.4</ele><time>2026-03-29T15:54:12Z</time></trkpt><trkpt lat="45.43132045683508" lon="9.349385754583576"><ele>102.19999999999999</ele><time>2026-03-29T15:54:13Z</time></trkpt><trkpt lat="45.43134465857959" lon="9.349230095382664"><ele>102.0</ele><time>2026-03-29T15:54:14Z</time></trkpt><trkpt lat="45.431369652805486" lon="9.349083645151639"><ele>101.8</ele><time>2026-03-29T15:54:15Z</time></trkpt><trkpt lat="45.431393093041095" lon="9.348933261935604"><ele>101.6</ele><time>2026-03-29T15:54:16Z</time></trkpt><trkpt lat="45.43141526047491" lon="9.348791064596705"><ele>101.39999999999999</ele><time>2026-03-29T15:54:17Z</time></trkpt><trkpt lat="45.43143762236296" lon="9.34865706876141"><ele>101.19999999999999</ele><time>2026-03-29T15:54:18Z</time></trkpt><trkpt lat="45.431457653771474" lon="9.348537696435132"><ele>101.0</ele><time>2026-03-29T15:54:19Z</time></trkpt><trkpt lat="45.431476820416094" lon="9.348422757921794"><ele>100.8</ele><time>2026-03-29T15:54:20Z</time></trkpt><trkpt lat="45.431498406305806" lon="9.348320343405504"><ele>100.6</ele><time>2026-03-29T15:54:21Z</time></trkpt><trkpt lat="45.43151767705812" lon="9.348228683175792"><ele>100.4</ele><time>2026-03-29T15:54:22Z</time></trkpt><trkpt lat="45.43156563346389" lon="9.348037979929817"><ele>100.2</ele><time>2026-03-29T15:54:24Z</time></trkpt><trkpt lat="45.43159492418347" lon="9.347923564558233"><ele>100.0</ele><time>2026-03-29T15:54:25Z</time></trkpt><trkpt lat="45.43160520353302" lon="9.347786225246987"><ele>100.0</ele><time>2026-03-29T15:54:26Z</time></trkpt><trkpt lat="45.43160891252649" lon="9.347622324054067"><ele>100.0</ele><time>2026-03-29T15:54:27Z</time></trkpt><trkpt lat="45.43162699922073" lon="9.34745522012408"><ele>100.0</ele><time>2026-03-29T15:54:28Z</time></trkpt><trkpt lat="45.43166097162539" lon="9.34726641550299"><ele>100.0</ele><time>2026-03-29T15:54:29Z</time></trkpt><trkpt lat="45.43170051657397" lon="9.3470904147327"><ele>100.0</ele><time>2026-03-29T15:54:30Z</time></trkpt><trkpt lat="45.43173555016008" lon="9.34689569791145"><ele>100.0</ele><time>2026-03-29T15:54:31Z</time></trkpt><trkpt lat="45.431769354102016" lon="9.346689964601056"><ele>100.0</ele><time>2026-03-29T15:54:32Z</time></trkpt><trkpt lat="45.43180358363508" lon="9.346475385535408"><ele>100.0</ele><time>2026-03-29T15:54:33Z</time></trkpt><trkpt lat="45.43183760820087" lon="9.346249166080096"><ele>100.0</ele><time>2026-03-29T15:54:34Z</time></trkpt><trkpt lat="45.4318756763104" lon="9.346026413840459"><ele>100.0</ele><time>2026-03-29T15:54:35Z</time></trkpt><trkpt lat="45.43191574061036" lon="9.34580459194066"><ele>100.0</ele><time>2026-03-29T15:54:36Z</time></trkpt><trkpt lat="45.43195559347646" lon="9.345572708886762"><ele>99.66666666666667</ele><time>2026-03-29T15:54:37Z</time></trkpt><trkpt lat="45.43199637906581" lon="9.345332629788377"><ele>99.33333333333334</ele><time>2026-03-29T15:54:38Z</time></trkpt><trkpt lat="45.432038335158" lon="9.34508787927571"><ele>99.0</ele><time>2026-03-29T15:54:39Z</time></trkpt><trkpt lat="45.4320817606251" lon="9.344836860882129"><ele>99.0</ele><time>2026-03-29T15:54:40Z</time></trkpt><trkpt lat="45.43212367978554" lon="9.344587152971298"><ele>99.0</ele><time>2026-03-29T15:54:41Z</time></trkpt><trkpt lat="45.432165600758225" lon="9.344341544650346"><ele>99.0</ele><time>2026-03-29T15:54:42Z</time></trkpt><trkpt lat="45.43220647255156" lon="9.344099534442046"><ele>99.33333333333334</ele><time>2026-03-29T15:54:43Z</time></trkpt><trkpt lat="45.43224495935114" lon="9.343861742314687"><ele>99.66666666666667</ele><time>2026-03-29T15:54:44Z</time></trkpt><trkpt lat="45.432284136915165" lon="9.343625883221298"><ele>100.0</ele><time>2026-03-29T15:54:45Z</time></trkpt><trkpt lat="45.43232650570295" lon="9.34339417763184"><ele>100.0</ele><time>2026-03-29T15:54:46Z</time></trkpt><trkpt lat="45.43236832462279" lon="9.343165309981796"><ele>100.0</ele><time>2026-03-29T15:54:47Z</time></trkpt><trkpt lat="45.432405455155" lon="9.34294087683378"><ele>100.0</ele><time>2026-03-29T15:54:48Z</time></trkpt><trkpt lat="45.43244125512468" lon="9.342722309717242"><ele>100.25</ele><time>2026-03-29T15:54:49Z</time></trkpt><trkpt lat="45.432476329161965" lon="9.342515457731476"><ele>100.5</ele><time>2026-03-29T15:54:50Z</time></trkpt><trkpt lat="45.43250991458775" lon="9.342323734840058"><ele>100.75</ele><time>2026-03-29T15:54:51Z</time></trkpt><trkpt lat="45.43254181506352" lon="9.342148211046581"><ele>101.0</ele><time>2026-03-29T15:54:52Z</time></trkpt><trkpt lat="45.4325795122069" lon="9.341996070298677"><ele>101.0</ele><time>2026-03-29T15:54:53Z</time></trkpt><trkpt lat="45.432635863451345" lon="9.341859148435857"><ele>101.0</ele><time>2026-03-29T15:54:54Z</time></trkpt><trkpt lat="45.432719052534765" lon="9.34173223176136"><ele>101.0</ele><time>2026-03-29T15:54:55Z</time></trkpt><trkpt lat="45.432811225881025" lon="9.341619147458985"><ele>101.0</ele><time>2026-03-29T15:54:56Z</time></trkpt><trkpt lat="45.432898430427215" lon="9.34150770929076"><ele>100.75</ele><time>2026-03-29T15:54:56.999Z</time></trkpt><trkpt lat="45.43296936605449" lon="9.34137623487603"><ele>100.5</ele><time>2026-03-29T15:54:57.999Z</time></trkpt><trkpt lat="45.433018883855105" lon="9.341211018940106"><ele>100.25</ele><time>2026-03-29T15:54:58.999Z</time></trkpt><trkpt lat="45.43304755989934" lon="9.341025925879729"><ele>100.0</ele><time>2026-03-29T15:54:59.999Z</time></trkpt><trkpt lat="45.433044156011476" lon="9.340825785561226"><ele>100.25</ele><time>2026-03-29T15:55:00.999Z</time></trkpt><trkpt lat="45.43301446623435" lon="9.340625714692676"><ele>100.5</ele><time>2026-03-29T15:55:01.999Z</time></trkpt><trkpt lat="45.432971938416706" lon="9.340451213679586"><ele>100.75</ele><time>2026-03-29T15:55:02.999Z</time></trkpt><trkpt lat="45.43294311653815" lon="9.340283190572876"><ele>101.0</ele><time>2026-03-29T15:55:03.999Z</time></trkpt><trkpt lat="45.43293549805384" lon="9.340111548470704"><ele>101.0</ele><time>2026-03-29T15:55:04.999Z</time></trkpt><trkpt lat="45.43293812183149" lon="9.339949081406688"><ele>101.0</ele><time>2026-03-29T15:55:05.999Z</time></trkpt><trkpt lat="45.43295147783307" lon="9.339788789511356"><ele>101.0</ele><time>2026-03-29T15:55:06.999Z</time></trkpt><trkpt lat="45.43297816362751" lon="9.339630782819194"><ele>101.0</ele><time>2026-03-29T15:55:07.999Z</time></trkpt><trkpt lat="45.433010591116485" lon="9.339466928739258"><ele>101.5</ele><time>2026-03-29T15:55:08.999Z</time></trkpt><trkpt lat="45.433040359708755" lon="9.339298648162424"><ele>102.0</ele><time>2026-03-29T15:55:09.999Z</time></trkpt><trkpt lat="45.43306820940247" lon="9.33912780607305"><ele>102.5</ele><time>2026-03-29T15:55:10.999Z</time></trkpt><trkpt lat="45.43309927458994" lon="9.338954215396292"><ele>103.0</ele><time>2026-03-29T15:55:11.999Z</time></trkpt><trkpt lat="45.43312934253105" lon="9.338773381973317"><ele>103.0</ele><time>2026-03-29T15:55:12.999Z</time></trkpt><trkpt lat="45.43316152904736" lon="9.338589572291276"><ele>103.0</ele><time>2026-03-29T15:55:13.999Z</time></trkpt><trkpt lat="45.43319422173039" lon="9.338407038956149"><ele>103.0</ele><time>2026-03-29T15:55:14.999Z</time></trkpt><trkpt lat="45.433225106293506" lon="9.338227656213274"><ele>103.0</ele><time>2026-03-29T15:55:15.999Z</time></trkpt><trkpt lat="45.43325748123128" lon="9.338042255931528"><ele>102.5</ele><time>2026-03-29T15:55:16.999Z</time></trkpt><trkpt lat="45.43329093816432" lon="9.337853565250548"><ele>102.0</ele><time>2026-03-29T15:55:17.999Z</time></trkpt><trkpt lat="45.433325012841294" lon="9.337660331288895"><ele>101.5</ele><time>2026-03-29T15:55:18.999Z</time></trkpt><trkpt lat="45.43335634490051" lon="9.337468711703732"><ele>101.0</ele><time>2026-03-29T15:55:19.999Z</time></trkpt><trkpt lat="45.43339067591365" lon="9.337268692830229"><ele>100.75</ele><time>2026-03-29T15:55:20.999Z</time></trkpt><trkpt lat="45.43342508257871" lon="9.337070140303394"><ele>100.5</ele><time>2026-03-29T15:55:21.999Z</time></trkpt><trkpt lat="45.43345883781992" lon="9.336867017230649"><ele>100.25</ele><time>2026-03-29T15:55:22.999Z</time></trkpt><trkpt lat="45.43349368057742" lon="9.336661001334516"><ele>100.0</ele><time>2026-03-29T15:55:23.999Z</time></trkpt><trkpt lat="45.43353129892752" lon="9.336455920669092"><ele>99.66666666666667</ele><time>2026-03-29T15:55:24.999Z</time></trkpt><trkpt lat="45.433567857319744" lon="9.33624490544613"><ele>99.33333333333334</ele><time>2026-03-29T15:55:25.999Z</time></trkpt><trkpt lat="45.43360226885569" lon="9.336035079453916"><ele>99.0</ele><time>2026-03-29T15:55:26.999Z</time></trkpt><trkpt lat="45.43363866616729" lon="9.335822354044677"><ele>99.0</ele><time>2026-03-29T15:55:27.999Z</time></trkpt><trkpt lat="45.43367625054119" lon="9.335611295725553"><ele>99.0</ele><time>2026-03-29T15:55:28.999Z</time></trkpt><trkpt lat="45.4337143014646" lon="9.335397252131424"><ele>99.0</ele><time>2026-03-29T15:55:29.999Z</time></trkpt><trkpt lat="45.43375013166118" lon="9.335182101215956"><ele>98.66666666666666</ele><time>2026-03-29T15:55:30.999Z</time></trkpt><trkpt lat="45.43378357843436" lon="9.334967354916358"><ele>98.33333333333333</ele><time>2026-03-29T15:55:31.999Z</time></trkpt><trkpt lat="45.43382005387713" lon="9.334754779959843"><ele>98.0</ele><time>2026-03-29T15:55:32.999Z</time></trkpt><trkpt lat="45.4338567586034" lon="9.334543024116657"><ele>98.0</ele><time>2026-03-29T15:55:33.999Z</time></trkpt><trkpt lat="45.43389247179735" lon="9.334328485009602"><ele>98.0</ele><time>2026-03-29T15:55:34.999Z</time></trkpt><trkpt lat="45.43392859866765" lon="9.334114127140534"><ele>98.0</ele><time>2026-03-29T15:55:35.999Z</time></trkpt><trkpt lat="45.43396424220804" lon="9.33389864430594"><ele>98.0</ele><time>2026-03-29T15:55:36.999Z</time></trkpt><trkpt lat="45.43400064916658" lon="9.333683220444389"><ele>98.0</ele><time>2026-03-29T15:55:37.999Z</time></trkpt><trkpt lat="45.4340364620911" lon="9.333467169247863"><ele>98.0</ele><time>2026-03-29T15:55:38.999Z</time></trkpt><trkpt lat="45.434073092237824" lon="9.333250260995191"><ele>98.33333333333333</ele><time>2026-03-29T15:55:39.999Z</time></trkpt><trkpt lat="45.434110217947605" lon="9.333032214290295"><ele>98.66666666666666</ele><time>2026-03-29T15:55:40.999Z</time></trkpt><trkpt lat="45.43414870752804" lon="9.332816751904986"><ele>99.0</ele><time>2026-03-29T15:55:41.999Z</time></trkpt><trkpt lat="45.43418608855507" lon="9.332598165492012"><ele>99.0</ele><time>2026-03-29T15:55:42.999Z</time></trkpt><trkpt lat="45.434223461533136" lon="9.332379284166105"><ele>99.0</ele><time>2026-03-29T15:55:43.999Z</time></trkpt><trkpt lat="45.43425946792396" lon="9.332161112993836"><ele>99.0</ele><time>2026-03-29T15:55:44.999Z</time></trkpt><trkpt lat="45.43429569215908" lon="9.331943018170156"><ele>99.33333333333334</ele><time>2026-03-29T15:55:45.999Z</time></trkpt><trkpt lat="45.43432987521171" lon="9.331721325570072"><ele>99.66666666666667</ele><time>2026-03-29T15:55:46.999Z</time></trkpt><trkpt lat="45.43436106888245" lon="9.331498646833836"><ele>100.0</ele><time>2026-03-29T15:55:47.999Z</time></trkpt><trkpt lat="45.43439259013153" lon="9.33127907039317"><ele>100.0</ele><time>2026-03-29T15:55:48.999Z</time></trkpt><trkpt lat="45.43441601032032" lon="9.331059376271812"><ele>100.0</ele><time>2026-03-29T15:55:49.999Z</time></trkpt><trkpt lat="45.43442597537101" lon="9.330832131079251"><ele>100.0</ele><time>2026-03-29T15:55:50.999Z</time></trkpt><trkpt lat="45.43442811132411" lon="9.330607345520491"><ele>100.0</ele><time>2026-03-29T15:55:51.999Z</time></trkpt><trkpt lat="45.43442318954634" lon="9.330376727360296"><ele>100.0</ele><time>2026-03-29T15:55:52.999Z</time></trkpt><trkpt lat="45.43441256119403" lon="9.330147654276507"><ele>100.0</ele><time>2026-03-29T15:55:53.999Z</time></trkpt><trkpt lat="45.43439688427073" lon="9.32992333962526"><ele>100.0</ele><time>2026-03-29T15:55:54.999Z</time></trkpt><trkpt lat="45.43437322874317" lon="9.329697975075899"><ele>100.0</ele><time>2026-03-29T15:55:55.999Z</time></trkpt><trkpt lat="45.43434253001419" lon="9.32947587203505"><ele>100.0</ele><time>2026-03-29T15:55:56.999Z</time></trkpt><trkpt lat="45.43430994066385" lon="9.329253859821614"><ele>100.0</ele><time>2026-03-29T15:55:57.999Z</time></trkpt><trkpt lat="45.43427442834187" lon="9.329028812190453"><ele>100.0</ele><time>2026-03-29T15:55:58.999Z</time></trkpt><trkpt lat="45.43424125186931" lon="9.328806737167406"><ele>100.0</ele><time>2026-03-29T15:55:59.999Z</time></trkpt><trkpt lat="45.43420844421974" lon="9.32858876405143"><ele>100.5</ele><time>2026-03-29T15:56:01Z</time></trkpt><trkpt lat="45.43417745811671" lon="9.328375411584105"><ele>101.0</ele><time>2026-03-29T15:56:02Z</time></trkpt><trkpt lat="45.43414761124761" lon="9.32816793642277"><ele>101.5</ele><time>2026-03-29T15:56:03Z</time></trkpt><trkpt lat="45.43411959659975" lon="9.327965418523682"><ele>102.0</ele><time>2026-03-29T15:56:04Z</time></trkpt><trkpt lat="45.434090411175866" lon="9.327766194718317"><ele>102.0</ele><time>2026-03-29T15:56:05Z</time></trkpt><trkpt lat="45.434061542675316" lon="9.327566591980691"><ele>102.0</ele><time>2026-03-29T15:56:06Z</time></trkpt><trkpt lat="45.43403052129826" lon="9.327365314518902"><ele>102.0</ele><time>2026-03-29T15:56:07Z</time></trkpt><trkpt lat="45.433999118207225" lon="9.327164327893346"><ele>102.0</ele><time>2026-03-29T15:56:08Z</time></trkpt><trkpt lat="45.43396735288514" lon="9.326962265967877"><ele>101.5</ele><time>2026-03-29T15:56:09Z</time></trkpt><trkpt lat="45.433935410055895" lon="9.326759764320997"><ele>101.0</ele><time>2026-03-29T15:56:10Z</time></trkpt><trkpt lat="45.433904476400265" lon="9.326555579322628"><ele>100.5</ele><time>2026-03-29T15:56:11Z</time></trkpt><trkpt lat="45.43387438454937" lon="9.32635016025594"><ele>100.0</ele><time>2026-03-29T15:56:12Z</time></trkpt><trkpt lat="45.433844150759136" lon="9.326143499281443"><ele>100.0</ele><time>2026-03-29T15:56:13Z</time></trkpt><trkpt lat="45.43381133182645" lon="9.32595010791332"><ele>100.0</ele><time>2026-03-29T15:56:14Z</time></trkpt><trkpt lat="45.433782288107786" lon="9.325740254539987"><ele>100.0</ele><time>2026-03-29T15:56:15Z</time></trkpt><trkpt lat="45.43375050586263" lon="9.325536068971317"><ele>100.0</ele><time>2026-03-29T15:56:16Z</time></trkpt><trkpt lat="45.43372121610836" lon="9.325346808824985"><ele>100.0</ele><time>2026-03-29T15:56:17Z</time></trkpt><trkpt lat="45.43369392979702" lon="9.32516733405274"><ele>100.0</ele><time>2026-03-29T15:56:18Z</time></trkpt><trkpt lat="45.4336675821142" lon="9.324993147215945"><ele>100.0</ele><time>2026-03-29T15:56:19Z</time></trkpt><trkpt lat="45.43364494368176" lon="9.32483901873777"><ele>100.0</ele><time>2026-03-29T15:56:20Z</time></trkpt><trkpt lat="45.43362726356792" lon="9.324707779540525"><ele>100.2</ele><time>2026-03-29T15:56:21Z</time></trkpt><trkpt lat="45.43361129268805" lon="9.32459586466531"><ele>100.4</ele><time>2026-03-29T15:56:22Z</time></trkpt><trkpt lat="45.43365060489185" lon="9.324460616638847"><ele>100.6</ele><time>2026-03-29T15:56:24Z</time></trkpt><trkpt lat="45.43376748430673" lon="9.32441828316765"><ele>100.8</ele><time>2026-03-29T15:56:26Z</time></trkpt><trkpt lat="45.433862785464534" lon="9.32443085131826"><ele>101.0</ele><time>2026-03-29T15:56:28Z</time></trkpt><trkpt lat="45.43392679241412" lon="9.32443035695522"><ele>100.99999999999999</ele><time>2026-03-29T15:56:30Z</time></trkpt><trkpt lat="45.433993730378766" lon="9.324430536105213"><ele>101.0</ele><time>2026-03-29T16:01:31.999Z</time></trkpt><trkpt lat="45.43406618214595" lon="9.324414009526949"><ele>101.0</ele><time>2026-03-29T16:01:33.999Z</time></trkpt><trkpt lat="45.434164377878794" lon="9.324401435944255"><ele>101.0</ele><time>2026-03-29T16:01:35.999Z</time></trkpt><trkpt lat="45.434266095697296" lon="9.324378953673673"><ele>100.99999999999999</ele><time>2026-03-29T16:01:37.999Z</time></trkpt><trkpt lat="45.43432969270709" lon="9.3243673597091"><ele>101.0</ele><time>2026-03-29T16:01:38.999Z</time></trkpt><trkpt lat="45.43439696223214" lon="9.324360190607146"><ele>100.99999999999999</ele><time>2026-03-29T16:01:39.999Z</time></trkpt><trkpt lat="45.434469818035005" lon="9.32435573589253"><ele>101.0</ele><time>2026-03-29T16:01:40.999Z</time></trkpt><trkpt lat="45.434548658246264" lon="9.324346359366608"><ele>101.0</ele><time>2026-03-29T16:01:41.999Z</time></trkpt><trkpt lat="45.43464585984266" lon="9.324342128030683"><ele>101.0</ele><time>2026-03-29T16:01:42.999Z</time></trkpt><trkpt lat="45.43472927034339" lon="9.324348785523814"><ele>100.99999999999999</ele><time>2026-03-29T16:01:43.999Z</time></trkpt><trkpt lat="45.43482592145481" lon="9.324335527654398"><ele>101.0</ele><time>2026-03-29T16:01:44.999Z</time></trkpt><trkpt lat="45.43492570905129" lon="9.324318348284715"><ele>100.8</ele><time>2026-03-29T16:01:45.999Z</time></trkpt><trkpt lat="45.43502029765811" lon="9.324311602872509"><ele>100.6</ele><time>2026-03-29T16:01:46.999Z</time></trkpt><trkpt lat="45.435135164178675" lon="9.32430202237684"><ele>100.4</ele><time>2026-03-29T16:01:47.999Z</time></trkpt><trkpt lat="45.435239361044616" lon="9.324304156078114"><ele>100.2</ele><time>2026-03-29T16:01:48.999Z</time></trkpt><trkpt lat="45.435352505191275" lon="9.324292061055946"><ele>100.0</ele><time>2026-03-29T16:01:49.999Z</time></trkpt><trkpt lat="45.435468412550705" lon="9.324284063299004"><ele>100.5</ele><time>2026-03-29T16:01:50.999Z</time></trkpt><trkpt lat="45.43558866588771" lon="9.324278359014583"><ele>101.0</ele><time>2026-03-29T16:01:51.999Z</time></trkpt><trkpt lat="45.435713464845776" lon="9.324272165969155"><ele>101.5</ele><time>2026-03-29T16:01:52.999Z</time></trkpt><trkpt lat="45.435827724137745" lon="9.324260845287126"><ele>102.0</ele><time>2026-03-29T16:01:53.999Z</time></trkpt><trkpt lat="45.43593368885899" lon="9.32424815640256"><ele>102.0</ele><time>2026-03-29T16:01:54.999Z</time></trkpt><trkpt lat="45.43604413195137" lon="9.324229364201202"><ele>102.0</ele><time>2026-03-29T16:01:55.999Z</time></trkpt><trkpt lat="45.4361474042273" lon="9.3242403306558"><ele>102.0</ele><time>2026-03-29T16:01:56.999Z</time></trkpt><trkpt lat="45.43623773112421" lon="9.324229114973619"><ele>102.0</ele><time>2026-03-29T16:01:57.999Z</time></trkpt><trkpt lat="45.43631884737494" lon="9.324212699930941"><ele>102.0</ele><time>2026-03-29T16:01:58.999Z</time></trkpt><trkpt lat="45.43639800752946" lon="9.32419869092124"><ele>102.39999999999999</ele><time>2026-03-29T16:01:59.999Z</time></trkpt><trkpt lat="45.43646852078089" lon="9.324188712730217"><ele>102.8</ele><time>2026-03-29T16:02:00.999Z</time></trkpt><trkpt lat="45.436567238947774" lon="9.324204823864486"><ele>103.2</ele><time>2026-03-29T16:02:02.999Z</time></trkpt><trkpt lat="45.43662219422795" lon="9.324339896395617"><ele>103.6</ele><time>2026-03-29T16:02:05.999Z</time></trkpt><trkpt lat="45.43661591203796" lon="9.324455756092078"><ele>104.0</ele><time>2026-03-29T16:02:07.999Z</time></trkpt><trkpt lat="45.436645268074415" lon="9.324585421007196"><ele>104.6</ele><time>2026-03-29T16:02:09.999Z</time></trkpt><trkpt lat="45.43667605333952" lon="9.324739345465629"><ele>105.2</ele><time>2026-03-29T16:02:11.999Z</time></trkpt><trkpt lat="45.43670680124786" lon="9.324918710807745"><ele>105.79999999999998</ele><time>2026-03-29T16:02:13.999Z</time></trkpt><trkpt lat="45.43672309202736" lon="9.325023660669205"><ele>106.39999999999999</ele><time>2026-03-29T16:02:14.999Z</time></trkpt><trkpt lat="45.436735532274945" lon="9.325147802612626"><ele>107.0</ele><time>2026-03-29T16:02:15.999Z</time></trkpt><trkpt lat="45.43674691713104" lon="9.325277148955395"><ele>107.0</ele><time>2026-03-29T16:02:16.999Z</time></trkpt><trkpt lat="45.43676183917733" lon="9.32540974115143"><ele>106.99999999999999</ele><time>2026-03-29T16:02:17.999Z</time></trkpt><trkpt lat="45.43678344537206" lon="9.325543777461684"><ele>106.99999999999999</ele><time>2026-03-29T16:02:19Z</time></trkpt><trkpt lat="45.43680431749015" lon="9.325689169748104"><ele>107.0</ele><time>2026-03-29T16:02:20Z</time></trkpt><trkpt lat="45.436822425812615" lon="9.325840462404686"><ele>107.0</ele><time>2026-03-29T16:02:21Z</time></trkpt><trkpt lat="45.436842589201866" lon="9.325995376735074"><ele>106.75</ele><time>2026-03-29T16:02:22Z</time></trkpt><trkpt lat="45.43686202544015" lon="9.326157244418924"><ele>106.5</ele><time>2026-03-29T16:02:23Z</time></trkpt><trkpt lat="45.43688570500649" lon="9.326320431522303"><ele>106.25</ele><time>2026-03-29T16:02:24Z</time></trkpt><trkpt lat="45.43690909602632" lon="9.326489844029568"><ele>106.0</ele><time>2026-03-29T16:02:25Z</time></trkpt><trkpt lat="45.43693002864004" lon="9.326660587018647"><ele>106.0</ele><time>2026-03-29T16:02:26Z</time></trkpt><trkpt lat="45.43695323176107" lon="9.326829974065701"><ele>106.0</ele><time>2026-03-29T16:02:27Z</time></trkpt><trkpt lat="45.43697533783734" lon="9.326988315647402"><ele>106.0</ele><time>2026-03-29T16:02:28Z</time></trkpt><trkpt lat="45.43699397838025" lon="9.327132445495694"><ele>106.0</ele><time>2026-03-29T16:02:29Z</time></trkpt><trkpt lat="45.43701314131668" lon="9.327265654241598"><ele>106.0</ele><time>2026-03-29T16:02:30Z</time></trkpt><trkpt lat="45.43703088957617" lon="9.327395732677388"><ele>105.50000000000001</ele><time>2026-03-29T16:02:31Z</time></trkpt><trkpt lat="45.43704907603466" lon="9.327520963129524"><ele>105.0</ele><time>2026-03-29T16:02:32Z</time></trkpt><trkpt lat="45.4370649430608" lon="9.32764527399265"><ele>104.5</ele><time>2026-03-29T16:02:33Z</time></trkpt><trkpt lat="45.43707877410971" lon="9.327769054303193"><ele>104.0</ele><time>2026-03-29T16:02:34Z</time></trkpt><trkpt lat="45.43709751354395" lon="9.327893478671948"><ele>103.50000000000001</ele><time>2026-03-29T16:02:35Z</time></trkpt><trkpt lat="45.437112154038054" lon="9.328019933116833"><ele>103.0</ele><time>2026-03-29T16:02:36Z</time></trkpt><trkpt lat="45.437126539818586" lon="9.328143154220262"><ele>102.83333333333334</ele><time>2026-03-29T16:02:37Z</time></trkpt><trkpt lat="45.437136157390924" lon="9.328253099690965"><ele>102.66666666666667</ele><time>2026-03-29T16:02:38Z</time></trkpt><trkpt lat="45.43715000594538" lon="9.32835988189402"><ele>102.5</ele><time>2026-03-29T16:02:39Z</time></trkpt><trkpt lat="45.43716152658257" lon="9.328452145183286"><ele>102.33333333333334</ele><time>2026-03-29T16:02:40Z</time></trkpt><trkpt lat="45.43717767128022" lon="9.328589893029385"><ele>102.16666666666667</ele><time>2026-03-29T16:02:42Z</time></trkpt><trkpt lat="45.437191489882764" lon="9.328677522547371"><ele>102.0</ele><time>2026-03-29T16:02:44Z</time></trkpt><trkpt lat="45.43720567111784" lon="9.328790278494116"><ele>102.0</ele><time>2026-03-29T16:02:47Z</time></trkpt><trkpt lat="45.43735462699521" lon="9.3287822233794"><ele>102.0</ele><time>2026-03-29T16:02:48Z</time></trkpt><trkpt lat="45.43743662879032" lon="9.328781039567442"><ele>102.0</ele><time>2026-03-29T16:02:49Z</time></trkpt><trkpt lat="45.437528861501285" lon="9.328780013174775"><ele>102.0</ele><time>2026-03-29T16:02:50Z</time></trkpt><trkpt lat="45.43762199644842" lon="9.32878572859918"><ele>102.0</ele><time>2026-03-29T16:02:51Z</time></trkpt><trkpt lat="45.437719326025956" lon="9.32879331505659"><ele>102.0</ele><time>2026-03-29T16:02:52Z</time></trkpt><trkpt lat="45.43781497574464" lon="9.328806344001269"><ele>102.0</ele><time>2026-03-29T16:02:53Z</time></trkpt><trkpt lat="45.43790525893866" lon="9.328811200432748"><ele>102.0</ele><time>2026-03-29T16:02:54Z</time></trkpt><trkpt lat="45.43799359984634" lon="9.328814545373504"><ele>102.0</ele><time>2026-03-29T16:02:55Z</time></trkpt><trkpt lat="45.43808324197069" lon="9.328818857574966"><ele>102.0</ele><time>2026-03-29T16:02:56Z</time></trkpt><trkpt lat="45.4381723439024" lon="9.32882531549406"><ele>101.83333333333333</ele><time>2026-03-29T16:02:57Z</time></trkpt><trkpt lat="45.43826282714768" lon="9.328832645250095"><ele>101.66666666666666</ele><time>2026-03-29T16:02:58Z</time></trkpt><trkpt lat="45.438354514034856" lon="9.328841333255584"><ele>101.5</ele><time>2026-03-29T16:02:59Z</time></trkpt><trkpt lat="45.438439904056516" lon="9.32884678383889"><ele>101.33333333333333</ele><time>2026-03-29T16:03:00Z</time></trkpt><trkpt lat="45.438523763667966" lon="9.328848567537667"><ele>101.16666666666666</ele><time>2026-03-29T16:03:01Z</time></trkpt><trkpt lat="45.43860536531432" lon="9.328854666290736"><ele>101.0</ele><time>2026-03-29T16:03:02Z</time></trkpt><trkpt lat="45.438683365123744" lon="9.328859352405011"><ele>100.99999999999999</ele><time>2026-03-29T16:03:03Z</time></trkpt><trkpt lat="45.43876035147361" lon="9.328865769216836"><ele>101.0</ele><time>2026-03-29T16:03:04Z</time></trkpt><trkpt lat="45.438837485749225" lon="9.328870071211023"><ele>101.0</ele><time>2026-03-29T16:03:05Z</time></trkpt><trkpt lat="45.43891436040386" lon="9.328874484556307"><ele>101.0</ele><time>2026-03-29T16:03:06Z</time></trkpt><trkpt lat="45.43899666155489" lon="9.32887838525243"><ele>100.99999999999999</ele><time>2026-03-29T16:03:07Z</time></trkpt><trkpt lat="45.43909038669369" lon="9.328884239594744"><ele>101.0</ele><time>2026-03-29T16:03:08Z</time></trkpt><trkpt lat="45.43920070627422" lon="9.328889446075513"><ele>101.0</ele><time>2026-03-29T16:03:09Z</time></trkpt><trkpt lat="45.43932279775447" lon="9.328892822550788"><ele>101.0</ele><time>2026-03-29T16:03:10Z</time></trkpt><trkpt lat="45.43944198624797" lon="9.328895804756458"><ele>101.0</ele><time>2026-03-29T16:03:11Z</time></trkpt><trkpt lat="45.43956039339758" lon="9.328893854954352"><ele>101.0</ele><time>2026-03-29T16:03:12Z</time></trkpt><trkpt lat="45.4396891749906" lon="9.328882134383925"><ele>101.0</ele><time>2026-03-29T16:03:13Z</time></trkpt><trkpt lat="45.43982409199526" lon="9.328861944173816"><ele>101.0</ele><time>2026-03-29T16:03:14Z</time></trkpt><trkpt lat="45.43995714893164" lon="9.32884473995728"><ele>101.0</ele><time>2026-03-29T16:03:15Z</time></trkpt><trkpt lat="45.44008670173854" lon="9.328825228840769"><ele>101.0</ele><time>2026-03-29T16:03:16Z</time></trkpt><trkpt lat="45.4402203804457" lon="9.328807913160297"><ele>101.0</ele><time>2026-03-29T16:03:17Z</time></trkpt><trkpt lat="45.44035544248262" lon="9.328792935329112"><ele>101.0</ele><time>2026-03-29T16:03:18Z</time></trkpt><trkpt lat="45.44049024276845" lon="9.328777084993725"><ele>101.0</ele><time>2026-03-29T16:03:19Z</time></trkpt><trkpt lat="45.44062557379496" lon="9.328757495849592"><ele>101.0</ele><time>2026-03-29T16:03:20Z</time></trkpt><trkpt lat="45.44075910147963" lon="9.328740942006585"><ele>101.0</ele><time>2026-03-29T16:03:21Z</time></trkpt><trkpt lat="45.440896717916566" lon="9.328726984331414"><ele>101.0</ele><time>2026-03-29T16:03:22Z</time></trkpt><trkpt lat="45.44102159034847" lon="9.328711709986909"><ele>101.0</ele><time>2026-03-29T16:03:23Z</time></trkpt><trkpt lat="45.44113339576885" lon="9.328696945810414"><ele>101.0</ele><time>2026-03-29T16:03:24Z</time></trkpt><trkpt lat="45.441238953848774" lon="9.328682783680895"><ele>101.0</ele><time>2026-03-29T16:03:25Z</time></trkpt><trkpt lat="45.44134146343734" lon="9.32866786244305"><ele>101.0</ele><time>2026-03-29T16:03:26Z</time></trkpt><trkpt lat="45.441442589527256" lon="9.328657140085292"><ele>101.0</ele><time>2026-03-29T16:03:27Z</time></trkpt><trkpt lat="45.4415375528394" lon="9.32864582153573"><ele>101.0</ele><time>2026-03-29T16:03:28Z</time></trkpt><trkpt lat="45.44162834451922" lon="9.328632888599289"><ele>101.0</ele><time>2026-03-29T16:03:29Z</time></trkpt><trkpt lat="45.4417119154855" lon="9.328620979318677"><ele>101.0</ele><time>2026-03-29T16:03:30Z</time></trkpt><trkpt lat="45.44179612791943" lon="9.328610200967585"><ele>101.0</ele><time>2026-03-29T16:03:30.999Z</time></trkpt><trkpt lat="45.44187983220913" lon="9.328597810150903"><ele>101.0</ele><time>2026-03-29T16:03:31.999Z</time></trkpt><trkpt lat="45.44196777661764" lon="9.32858424946795"><ele>101.0</ele><time>2026-03-29T16:03:32.999Z</time></trkpt><trkpt lat="45.442057915708126" lon="9.328573637042672"><ele>101.0</ele><time>2026-03-29T16:03:33.999Z</time></trkpt><trkpt lat="45.442162467735926" lon="9.328560886684043"><ele>101.25</ele><time>2026-03-29T16:03:34.999Z</time></trkpt><trkpt lat="45.44228634002206" lon="9.328547805512377"><ele>101.5</ele><time>2026-03-29T16:03:35.999Z</time></trkpt><trkpt lat="45.44242248829796" lon="9.328530700313284"><ele>101.75</ele><time>2026-03-29T16:03:36.999Z</time></trkpt><trkpt lat="45.44256922636658" lon="9.328513323120664"><ele>102.0</ele><time>2026-03-29T16:03:37.999Z</time></trkpt><trkpt lat="45.44272072538603" lon="9.328493412682331"><ele>102.0</ele><time>2026-03-29T16:03:38.999Z</time></trkpt><trkpt lat="45.44287018166105" lon="9.328475977676973"><ele>102.0</ele><time>2026-03-29T16:03:39.999Z</time></trkpt><trkpt lat="45.44302005030635" lon="9.328455817137906"><ele>102.0</ele><time>2026-03-29T16:03:40.999Z</time></trkpt><trkpt lat="45.44316963615878" lon="9.328436849749274"><ele>101.66666666666666</ele><time>2026-03-29T16:03:41.999Z</time></trkpt><trkpt lat="45.44332473821385" lon="9.32841680799255"><ele>101.33333333333333</ele><time>2026-03-29T16:03:42.999Z</time></trkpt><trkpt lat="45.443479600622396" lon="9.328397580405568"><ele>101.0</ele><time>2026-03-29T16:03:43.999Z</time></trkpt><trkpt lat="45.44363637046029" lon="9.328376530898923"><ele>101.0</ele><time>2026-03-29T16:03:44.999Z</time></trkpt><trkpt lat="45.44379752334522" lon="9.328355314485242"><ele>101.0</ele><time>2026-03-29T16:03:45.999Z</time></trkpt><trkpt lat="45.44395978809401" lon="9.328332932011165"><ele>101.0</ele><time>2026-03-29T16:03:46.999Z</time></trkpt><trkpt lat="45.44411244836371" lon="9.32831057730337"><ele>101.0</ele><time>2026-03-29T16:03:47.999Z</time></trkpt><trkpt lat="45.44426212712767" lon="9.32829580152424"><ele>101.0</ele><time>2026-03-29T16:03:48.999Z</time></trkpt><trkpt lat="45.4444151295058" lon="9.328284972465449"><ele>101.0</ele><time>2026-03-29T16:03:49.999Z</time></trkpt><trkpt lat="45.44456374221257" lon="9.328264116009544"><ele>101.25</ele><time>2026-03-29T16:03:50.999Z</time></trkpt><trkpt lat="45.4447004329554" lon="9.32824550208155"><ele>101.5</ele><time>2026-03-29T16:03:51.999Z</time></trkpt><trkpt lat="45.44483014395898" lon="9.328231162752212"><ele>101.75</ele><time>2026-03-29T16:03:52.999Z</time></trkpt><trkpt lat="45.444954209403654" lon="9.32821492723381"><ele>102.0</ele><time>2026-03-29T16:03:53.999Z</time></trkpt><trkpt lat="45.445076324396766" lon="9.328197591751895"><ele>102.0</ele><time>2026-03-29T16:03:54.999Z</time></trkpt><trkpt lat="45.44519038323226" lon="9.32818328477999"><ele>102.0</ele><time>2026-03-29T16:03:55.999Z</time></trkpt><trkpt lat="45.445294784125124" lon="9.32816872657011"><ele>102.0</ele><time>2026-03-29T16:03:56.999Z</time></trkpt><trkpt lat="45.44539482836497" lon="9.328155879024516"><ele>102.0</ele><time>2026-03-29T16:03:57.999Z</time></trkpt><trkpt lat="45.44548690537293" lon="9.328144807131771"><ele>102.0</ele><time>2026-03-29T16:03:58.999Z</time></trkpt><trkpt lat="45.445575967252616" lon="9.328134815415236"><ele>102.33333333333333</ele><time>2026-03-29T16:03:59.999Z</time></trkpt><trkpt lat="45.44566491780577" lon="9.328120912297033"><ele>102.66666666666666</ele><time>2026-03-29T16:04:00.999Z</time></trkpt><trkpt lat="45.445743459538484" lon="9.328109275173123"><ele>103.0</ele><time>2026-03-29T16:04:01.999Z</time></trkpt><trkpt lat="45.445813953592555" lon="9.328100131447234"><ele>103.33333333333333</ele><time>2026-03-29T16:04:02.999Z</time></trkpt><trkpt lat="45.44588894287751" lon="9.328091563563445"><ele>103.66666666666666</ele><time>2026-03-29T16:04:03.999Z</time></trkpt><trkpt lat="45.44596516706379" lon="9.328083364980404"><ele>104.0</ele><time>2026-03-29T16:04:04.999Z</time></trkpt><trkpt lat="45.4460413326472" lon="9.32807050187703"><ele>104.0</ele><time>2026-03-29T16:04:05.999Z</time></trkpt><trkpt lat="45.44612037353033" lon="9.328059364440952"><ele>104.0</ele><time>2026-03-29T16:04:06.999Z</time></trkpt><trkpt lat="45.446204426418355" lon="9.328049297539382"><ele>104.0</ele><time>2026-03-29T16:04:07.999Z</time></trkpt><trkpt lat="45.44629443724455" lon="9.328041445940155"><ele>104.0</ele><time>2026-03-29T16:04:08.999Z</time></trkpt><trkpt lat="45.44640429221463" lon="9.328023362774388"><ele>104.0</ele><time>2026-03-29T16:04:09.999Z</time></trkpt><trkpt lat="45.44652921290801" lon="9.328000892939988"><ele>104.0</ele><time>2026-03-29T16:04:10.999Z</time></trkpt><trkpt lat="45.44665911516598" lon="9.327983310903122"><ele>104.0</ele><time>2026-03-29T16:04:11.999Z</time></trkpt><trkpt lat="45.44680872455545" lon="9.32796176310183"><ele>104.0</ele><time>2026-03-29T16:04:12.999Z</time></trkpt><trkpt lat="45.44696097846257" lon="9.327937108120572"><ele>104.0</ele><time>2026-03-29T16:04:13.999Z</time></trkpt><trkpt lat="45.44711420358019" lon="9.327912402685774"><ele>104.0</ele><time>2026-03-29T16:04:14.999Z</time></trkpt><trkpt lat="45.44725198268004" lon="9.327883192723311"><ele>104.0</ele><time>2026-03-29T16:04:15.999Z</time></trkpt><trkpt lat="45.44738075652787" lon="9.327857420173673"><ele>104.0</ele><time>2026-03-29T16:04:16.999Z</time></trkpt><trkpt lat="45.447517198481705" lon="9.327832959541148"><ele>104.0</ele><time>2026-03-29T16:04:17.999Z</time></trkpt><trkpt lat="45.44765897712695" lon="9.327802937383158"><ele>104.0</ele><time>2026-03-29T16:04:18.999Z</time></trkpt><trkpt lat="45.44779595534931" lon="9.327780045963552"><ele>104.0</ele><time>2026-03-29T16:04:19.999Z</time></trkpt><trkpt lat="45.447934040731226" lon="9.327760118929032"><ele>104.0</ele><time>2026-03-29T16:04:20.999Z</time></trkpt><trkpt lat="45.44806399686507" lon="9.327736888613344"><ele>104.0</ele><time>2026-03-29T16:04:21.999Z</time></trkpt><trkpt lat="45.44819061107783" lon="9.327711196048158"><ele>104.0</ele><time>2026-03-29T16:04:22.999Z</time></trkpt><trkpt lat="45.448318639240895" lon="9.327682744530083"><ele>104.0</ele><time>2026-03-29T16:04:23.999Z</time></trkpt><trkpt lat="45.448450190397544" lon="9.327647354284387"><ele>104.0</ele><time>2026-03-29T16:04:25Z</time></trkpt><trkpt lat="45.44858721963863" lon="9.327610065138062"><ele>104.0</ele><time>2026-03-29T16:04:26Z</time></trkpt><trkpt lat="45.44872079146476" lon="9.3275702401859"><ele>103.5</ele><time>2026-03-29T16:04:27Z</time></trkpt><trkpt lat="45.44885517973895" lon="9.327527277410676"><ele>103.0</ele><time>2026-03-29T16:04:28Z</time></trkpt><trkpt lat="45.448990242683145" lon="9.327483334543011"><ele>102.5</ele><time>2026-03-29T16:04:29Z</time></trkpt><trkpt lat="45.44912074963813" lon="9.327440841472157"><ele>102.0</ele><time>2026-03-29T16:04:30Z</time></trkpt><trkpt lat="45.449248525714914" lon="9.32739951939291"><ele>102.0</ele><time>2026-03-29T16:04:31Z</time></trkpt><trkpt lat="45.449367444737405" lon="9.327360518153162"><ele>102.0</ele><time>2026-03-29T16:04:32Z</time></trkpt><trkpt lat="45.4494802243242" lon="9.327327338818492"><ele>102.0</ele><time>2026-03-29T16:04:33Z</time></trkpt><trkpt lat="45.44958484737161" lon="9.327294155414714"><ele>102.0</ele><time>2026-03-29T16:04:34Z</time></trkpt><trkpt lat="45.449678838548735" lon="9.327263923180094"><ele>102.0</ele><time>2026-03-29T16:04:35Z</time></trkpt><trkpt lat="45.44976606570207" lon="9.327237116918788"><ele>102.33333333333333</ele><time>2026-03-29T16:04:36Z</time></trkpt><trkpt lat="45.44984985694191" lon="9.327212783778924"><ele>102.66666666666666</ele><time>2026-03-29T16:04:37Z</time></trkpt><trkpt lat="45.449925496196315" lon="9.3271884393042"><ele>103.0</ele><time>2026-03-29T16:04:38Z</time></trkpt><trkpt lat="45.4499950307368" lon="9.327164455818695"><ele>103.33333333333333</ele><time>2026-03-29T16:04:39Z</time></trkpt><trkpt lat="45.450056602922196" lon="9.327144886014386"><ele>103.66666666666666</ele><time>2026-03-29T16:04:40Z</time></trkpt><trkpt lat="45.450163686868436" lon="9.327114209593232"><ele>104.0</ele><time>2026-03-29T16:04:42Z</time></trkpt><trkpt lat="45.450252271614396" lon="9.327102026977272"><ele>104.0</ele><time>2026-03-29T16:04:44Z</time></trkpt><trkpt lat="45.450330153422684" lon="9.327085909486884"><ele>104.0</ele><time>2026-03-29T16:04:46Z</time></trkpt><trkpt lat="45.45041698946783" lon="9.32705627703411"><ele>104.0</ele><time>2026-03-29T16:04:48Z</time></trkpt><trkpt lat="45.450510766719404" lon="9.327033251180868"><ele>104.0</ele><time>2026-03-29T16:04:50Z</time></trkpt><trkpt lat="45.45061033847637" lon="9.327003225178371"><ele>104.0</ele><time>2026-03-29T16:04:52Z</time></trkpt><trkpt lat="45.45072111243764" lon="9.326968751357857"><ele>103.85714285714285</ele><time>2026-03-29T16:04:54Z</time></trkpt><trkpt lat="45.45078421289019" lon="9.326948261771937"><ele>103.71428571428572</ele><time>2026-03-29T16:04:55Z</time></trkpt><trkpt lat="45.45085225165506" lon="9.326923941936576"><ele>103.57142857142857</ele><time>2026-03-29T16:04:56Z</time></trkpt><trkpt lat="45.450923707099115" lon="9.326905126812989"><ele>103.42857142857142</ele><time>2026-03-29T16:04:57Z</time></trkpt><trkpt lat="45.45099884819826" lon="9.326881640421798"><ele>103.28571428571428</ele><time>2026-03-29T16:04:58Z</time></trkpt><trkpt lat="45.45107094279021" lon="9.326856694578792"><ele>103.14285714285714</ele><time>2026-03-29T16:04:59Z</time></trkpt><trkpt lat="45.45113655268381" lon="9.326835881709453"><ele>103.0</ele><time>2026-03-29T16:05:00Z</time></trkpt><trkpt lat="45.45125311280025" lon="9.326797257132242"><ele>103.50000000000001</ele><time>2026-03-29T16:05:02Z</time></trkpt><trkpt lat="45.451356173132595" lon="9.32674885485136"><ele>104.0</ele><time>2026-03-29T16:05:04Z</time></trkpt><trkpt lat="45.45141767755945" lon="9.326718682030183"><ele>104.5</ele><time>2026-03-29T16:05:05Z</time></trkpt><trkpt lat="45.451490365295804" lon="9.326679254124885"><ele>105.0</ele><time>2026-03-29T16:05:06Z</time></trkpt><trkpt lat="45.451583145288566" lon="9.326626133843117"><ele>105.50000000000001</ele><time>2026-03-29T16:05:07Z</time></trkpt><trkpt lat="45.4516590643142" lon="9.32658414846399"><ele>106.0</ele><time>2026-03-29T16:05:08Z</time></trkpt><trkpt lat="45.4517582909095" lon="9.326528417241127"><ele>106.0</ele><time>2026-03-29T16:05:10Z</time></trkpt><trkpt lat="45.45181762026379" lon="9.326497456911108"><ele>106.0</ele><time>2026-03-29T16:05:12Z</time></trkpt><trkpt lat="45.451882375424105" lon="9.326460577583768"><ele>106.0</ele><time>2026-03-29T16:05:15Z</time></trkpt><trkpt lat="45.45194757752366" lon="9.32642606458821"><ele>106.0</ele><time>2026-03-29T16:05:19Z</time></trkpt><trkpt lat="45.45201288892185" lon="9.326398362418633"><ele>106.0</ele><time>2026-03-29T16:05:23Z</time></trkpt><trkpt lat="45.452088929526276" lon="9.326365548036366"><ele>106.0</ele><time>2026-03-29T16:05:28Z</time></trkpt><trkpt lat="45.4521645109988" lon="9.326319771447709"><ele>106.0</ele><time>2026-03-29T16:05:34Z</time></trkpt><trkpt lat="45.45223853486837" lon="9.326288572788785"><ele>105.85714285714286</ele><time>2026-03-29T16:05:39Z</time></trkpt><trkpt lat="45.452304927194874" lon="9.32625615479406"><ele>105.71428571428571</ele><time>2026-03-29T16:05:42.999Z</time></trkpt><trkpt lat="45.452366510313844" lon="9.326226779672059"><ele>105.57142857142857</ele><time>2026-03-29T16:05:45.999Z</time></trkpt><trkpt lat="45.45242837156502" lon="9.326190228993308"><ele>105.42857142857143</ele><time>2026-03-29T16:05:49.999Z</time></trkpt><trkpt lat="45.45250137078618" lon="9.326153843377478"><ele>105.28571428571428</ele><time>2026-03-29T16:05:54.999Z</time></trkpt><trkpt lat="45.452561811800216" lon="9.326109641733906"><ele>105.14285714285714</ele><time>2026-03-29T16:05:58.999Z</time></trkpt><trkpt lat="45.45263440230756" lon="9.326093433782306"><ele>105.0</ele><time>2026-03-29T16:06:02.999Z</time></trkpt><trkpt lat="45.452701395759455" lon="9.326069008409764"><ele>105.0</ele><time>2026-03-29T16:06:06.999Z</time></trkpt><trkpt lat="45.45277065530656" lon="9.326023461360391"><ele>105.0</ele><time>2026-03-29T16:06:11.999Z</time></trkpt><trkpt lat="45.452840870969744" lon="9.32598229487956"><ele>105.0</ele><time>2026-03-29T16:06:16.999Z</time></trkpt><trkpt lat="45.452912226244294" lon="9.325944303871285"><ele>105.0</ele><time>2026-03-29T16:06:21.999Z</time></trkpt><trkpt lat="45.452977289294765" lon="9.32591398378601"><ele>105.0</ele><time>2026-03-29T16:06:25.999Z</time></trkpt><trkpt lat="45.45304131424189" lon="9.325873547091534"><ele>105.0</ele><time>2026-03-29T16:06:29.999Z</time></trkpt><trkpt lat="45.453114369874584" lon="9.325837311596102"><ele>105.0</ele><time>2026-03-29T16:06:35Z</time></trkpt><trkpt lat="45.453181091878236" lon="9.325794126313253"><ele>105.0</ele><time>2026-03-29T16:06:40Z</time></trkpt><trkpt lat="45.453247462874074" lon="9.325733382197999"><ele>105.0</ele><time>2026-03-29T16:06:45Z</time></trkpt><trkpt lat="45.453301707321074" lon="9.325668019840093"><ele>105.0</ele><time>2026-03-29T16:06:48Z</time></trkpt><trkpt lat="45.45339998075978" lon="9.325593662739951"><ele>105.0</ele><time>2026-03-29T16:06:50Z</time></trkpt><trkpt lat="45.453465190895194" lon="9.325520520651773"><ele>105.0</ele><time>2026-03-29T16:06:51Z</time></trkpt><trkpt lat="45.45353360436329" lon="9.325467091102468"><ele>105.0</ele><time>2026-03-29T16:06:52Z</time></trkpt><trkpt lat="45.45360687046974" lon="9.325405404230501"><ele>105.0</ele><time>2026-03-29T16:06:53Z</time></trkpt><trkpt lat="45.45368450973937" lon="9.325337043136571"><ele>105.0</ele><time>2026-03-29T16:06:54Z</time></trkpt><trkpt lat="45.45377303455928" lon="9.325257742276651"><ele>105.0</ele><time>2026-03-29T16:06:55Z</time></trkpt><trkpt lat="45.45387296771142" lon="9.325182314333823"><ele>105.0</ele><time>2026-03-29T16:06:56Z</time></trkpt><trkpt lat="45.45398048261846" lon="9.325110246797815"><ele>105.0</ele><time>2026-03-29T16:06:57Z</time></trkpt><trkpt lat="45.45409428582161" lon="9.325051138507227"><ele>105.0</ele><time>2026-03-29T16:06:58Z</time></trkpt><trkpt lat="45.454217556541074" lon="9.325001415230789"><ele>105.0</ele><time>2026-03-29T16:06:59Z</time></trkpt><trkpt lat="45.45435191054657" lon="9.324956868738473"><ele>105.0</ele><time>2026-03-29T16:07:00Z</time></trkpt><trkpt lat="45.45449093530488" lon="9.324908268498945"><ele>105.0</ele><time>2026-03-29T16:07:01Z</time></trkpt><trkpt lat="45.45462091594486" lon="9.32486133336388"><ele>105.5</ele><time>2026-03-29T16:07:02Z</time></trkpt><trkpt lat="45.454735997406175" lon="9.324819933148643"><ele>106.0</ele><time>2026-03-29T16:07:03Z</time></trkpt><trkpt lat="45.45484289176248" lon="9.324777382830025"><ele>106.5</ele><time>2026-03-29T16:07:04Z</time></trkpt><trkpt lat="45.454953357922115" lon="9.324730228352177"><ele>107.0</ele><time>2026-03-29T16:07:05Z</time></trkpt><trkpt lat="45.45506925112826" lon="9.324685455961781"><ele>107.0</ele><time>2026-03-29T16:07:06Z</time></trkpt><trkpt lat="45.45518309550915" lon="9.324635728525346"><ele>107.0</ele><time>2026-03-29T16:07:07Z</time></trkpt><trkpt lat="45.45529738081933" lon="9.324585388912904"><ele>107.0</ele><time>2026-03-29T16:07:08Z</time></trkpt><trkpt lat="45.455397976510135" lon="9.324536310884433"><ele>107.0</ele><time>2026-03-29T16:07:09Z</time></trkpt><trkpt lat="45.45550623459936" lon="9.324482090002505"><ele>106.25</ele><time>2026-03-29T16:07:10Z</time></trkpt><trkpt lat="45.45561678714977" lon="9.324441981213868"><ele>105.5</ele><time>2026-03-29T16:07:11Z</time></trkpt><trkpt lat="45.455727746333075" lon="9.324407467386319"><ele>104.75</ele><time>2026-03-29T16:07:12Z</time></trkpt><trkpt lat="45.455838199876446" lon="9.324377977948338"><ele>104.0</ele><time>2026-03-29T16:07:13Z</time></trkpt><trkpt lat="45.455945803412476" lon="9.324339144826935"><ele>104.0</ele><time>2026-03-29T16:07:14Z</time></trkpt><trkpt lat="45.45604003806942" lon="9.324298324740601"><ele>104.0</ele><time>2026-03-29T16:07:15Z</time></trkpt><trkpt lat="45.45613461525113" lon="9.324261587360091"><ele>104.0</ele><time>2026-03-29T16:07:16Z</time></trkpt><trkpt lat="45.45622961363412" lon="9.324226982928316"><ele>104.0</ele><time>2026-03-29T16:07:17Z</time></trkpt><trkpt lat="45.456323177033894" lon="9.324192412823232"><ele>104.0</ele><time>2026-03-29T16:07:18Z</time></trkpt><trkpt lat="45.456412887982005" lon="9.32416148189426"><ele>104.2</ele><time>2026-03-29T16:07:19Z</time></trkpt><trkpt lat="45.45650447030025" lon="9.324134223909079"><ele>104.4</ele><time>2026-03-29T16:07:20Z</time></trkpt><trkpt lat="45.45659920412991" lon="9.324108558398503"><ele>104.6</ele><time>2026-03-29T16:07:21Z</time></trkpt><trkpt lat="45.45670984045993" lon="9.324081872556858"><ele>104.8</ele><time>2026-03-29T16:07:22Z</time></trkpt><trkpt lat="45.4568423954363" lon="9.324049920888205"><ele>105.0</ele><time>2026-03-29T16:07:23Z</time></trkpt><trkpt lat="45.456981443052754" lon="9.32401362933507"><ele>105.0</ele><time>2026-03-29T16:07:24Z</time></trkpt><trkpt lat="45.457103069034325" lon="9.323983812467919"><ele>105.0</ele><time>2026-03-29T16:07:25Z</time></trkpt><trkpt lat="45.45722242992749" lon="9.323958417269344"><ele>105.0</ele><time>2026-03-29T16:07:26Z</time></trkpt><trkpt lat="45.45734266869791" lon="9.32393690358211"><ele>105.0</ele><time>2026-03-29T16:07:27Z</time></trkpt><trkpt lat="45.45746206647185" lon="9.323907855888558"><ele>104.75</ele><time>2026-03-29T16:07:28Z</time></trkpt><trkpt lat="45.457581017697905" lon="9.32387777954383"><ele>104.5</ele><time>2026-03-29T16:07:29Z</time></trkpt><trkpt lat="45.45770144553593" lon="9.32384853163823"><ele>104.25</ele><time>2026-03-29T16:07:30Z</time></trkpt><trkpt lat="45.45782212457834" lon="9.323829893253082"><ele>104.0</ele><time>2026-03-29T16:07:31Z</time></trkpt><trkpt lat="45.45794096427387" lon="9.323811391491152"><ele>104.80000000000001</ele><time>2026-03-29T16:07:32Z</time></trkpt><trkpt lat="45.45806057274388" lon="9.32379320648841"><ele>105.60000000000001</ele><time>2026-03-29T16:07:32.999Z</time></trkpt><trkpt lat="45.458166024632455" lon="9.323780901641209"><ele>106.4</ele><time>2026-03-29T16:07:33.999Z</time></trkpt><trkpt lat="45.45826314914668" lon="9.323769046210318"><ele>107.2</ele><time>2026-03-29T16:07:34.999Z</time></trkpt><trkpt lat="45.458346253187194" lon="9.32375802065445"><ele>108.0</ele><time>2026-03-29T16:07:35.999Z</time></trkpt><trkpt lat="45.45842190160087" lon="9.3237514416235"><ele>108.0</ele><time>2026-03-29T16:07:36.999Z</time></trkpt><trkpt lat="45.458494454098606" lon="9.323741715777665"><ele>108.0</ele><time>2026-03-29T16:07:37.999Z</time></trkpt><trkpt lat="45.45855976028675" lon="9.323699121466149"><ele>108.0</ele><time>2026-03-29T16:07:38.999Z</time></trkpt><trkpt lat="45.45861860057239" lon="9.323625284451326"><ele>108.0</ele><time>2026-03-29T16:07:39.999Z</time></trkpt><trkpt lat="45.458667329088904" lon="9.323529352544798"><ele>108.0</ele><time>2026-03-29T16:07:40.999Z</time></trkpt><trkpt lat="45.45871504969881" lon="9.32342154731273"><ele>108.0</ele><time>2026-03-29T16:07:41.999Z</time></trkpt><trkpt lat="45.458769871713216" lon="9.323327847321076"><ele>107.83333333333333</ele><time>2026-03-29T16:07:42.999Z</time></trkpt><trkpt lat="45.45882001775739" lon="9.323235622565957"><ele>107.66666666666666</ele><time>2026-03-29T16:07:43.999Z</time></trkpt><trkpt lat="45.45886870015057" lon="9.323143563097373"><ele>107.5</ele><time>2026-03-29T16:07:44.999Z</time></trkpt><trkpt lat="45.458916063845166" lon="9.3230485412746"><ele>107.33333333333333</ele><time>2026-03-29T16:07:45.999Z</time></trkpt><trkpt lat="45.45895778254553" lon="9.322955485531343"><ele>107.16666666666666</ele><time>2026-03-29T16:07:46.999Z</time></trkpt><trkpt lat="45.45900413491386" lon="9.322862498451741"><ele>107.0</ele><time>2026-03-29T16:07:47.999Z</time></trkpt><trkpt lat="45.459052032452675" lon="9.32276893936254"><ele>107.0</ele><time>2026-03-29T16:07:48.999Z</time></trkpt><trkpt lat="45.45909998765986" lon="9.322674999162075"><ele>106.99999999999999</ele><time>2026-03-29T16:07:49.999Z</time></trkpt><trkpt lat="45.45914735771828" lon="9.322569303328898"><ele>106.99999999999999</ele><time>2026-03-29T16:07:50.999Z</time></trkpt><trkpt lat="45.459195348692724" lon="9.322464309406891"><ele>107.0</ele><time>2026-03-29T16:07:51.999Z</time></trkpt><trkpt lat="45.45924728909057" lon="9.322353695569504"><ele>107.0</ele><time>2026-03-29T16:07:52.999Z</time></trkpt><trkpt lat="45.459310074129405" lon="9.322244404990622"><ele>106.8</ele><time>2026-03-29T16:07:53.999Z</time></trkpt><trkpt lat="45.45936851199377" lon="9.32212762589108"><ele>106.6</ele><time>2026-03-29T16:07:54.999Z</time></trkpt><trkpt lat="45.45942832069014" lon="9.321999216664695"><ele>106.39999999999999</ele><time>2026-03-29T16:07:55.999Z</time></trkpt><trkpt lat="45.45949926191429" lon="9.321881406484675"><ele>106.19999999999999</ele><time>2026-03-29T16:07:56.999Z</time></trkpt><trkpt lat="45.459558699389945" lon="9.321761003339201"><ele>106.0</ele><time>2026-03-29T16:07:57.999Z</time></trkpt><trkpt lat="45.45961908433273" lon="9.321603435303178"><ele>106.75</ele><time>2026-03-29T16:07:58.999Z</time></trkpt><trkpt lat="45.45969972828829" lon="9.321451590978139"><ele>107.5</ele><time>2026-03-29T16:07:59.999Z</time></trkpt><trkpt lat="45.45977595419742" lon="9.321318622434733"><ele>108.25</ele><time>2026-03-29T16:08:00.999Z</time></trkpt><trkpt lat="45.45984550176203" lon="9.321201991016808"><ele>109.0</ele><time>2026-03-29T16:08:01.999Z</time></trkpt><trkpt lat="45.459903359344345" lon="9.321081456679508"><ele>109.16666666666667</ele><time>2026-03-29T16:08:02.999Z</time></trkpt><trkpt lat="45.45996037809446" lon="9.320971819394273"><ele>109.33333333333334</ele><time>2026-03-29T16:08:03.999Z</time></trkpt><trkpt lat="45.46001615457905" lon="9.320864076066385"><ele>109.5</ele><time>2026-03-29T16:08:04.999Z</time></trkpt><trkpt lat="45.46006683414565" lon="9.320764313112136"><ele>109.66666666666666</ele><time>2026-03-29T16:08:05.999Z</time></trkpt><trkpt lat="45.46011701859751" lon="9.320663887316337"><ele>109.83333333333333</ele><time>2026-03-29T16:08:06.999Z</time></trkpt><trkpt lat="45.46015961526246" lon="9.320567713357464"><ele>110.0</ele><time>2026-03-29T16:08:07.999Z</time></trkpt><trkpt lat="45.460200384184326" lon="9.320471928230713"><ele>109.66666666666666</ele><time>2026-03-29T16:08:08.999Z</time></trkpt><trkpt lat="45.460232279285904" lon="9.320390494840312"><ele>109.33333333333333</ele><time>2026-03-29T16:08:09.999Z</time></trkpt><trkpt lat="45.46028419887989" lon="9.320250721616308"><ele>109.0</ele><time>2026-03-29T16:08:11.999Z</time></trkpt><trkpt lat="45.4603803734842" lon="9.320211576868498"><ele>108.66666666666666</ele><time>2026-03-29T16:08:13.999Z</time></trkpt><trkpt lat="45.46044841226256" lon="9.320196700435375"><ele>108.33333333333333</ele><time>2026-03-29T16:08:14.999Z</time></trkpt><trkpt lat="45.460521859565645" lon="9.320169037695438"><ele>108.0</ele><time>2026-03-29T16:08:15.999Z</time></trkpt><trkpt lat="45.460601358271695" lon="9.320135711655102"><ele>108.0</ele><time>2026-03-29T16:08:16.999Z</time></trkpt><trkpt lat="45.46068347682243" lon="9.320092445330127"><ele>108.00000000000001</ele><time>2026-03-29T16:08:17.999Z</time></trkpt><trkpt lat="45.46076033344031" lon="9.32001920573887"><ele>108.00000000000001</ele><time>2026-03-29T16:08:18.999Z</time></trkpt><trkpt lat="45.46082892198927" lon="9.319927534395813"><ele>108.0</ele><time>2026-03-29T16:08:19.999Z</time></trkpt><trkpt lat="45.460887235427954" lon="9.3198233265152"><ele>108.0</ele><time>2026-03-29T16:08:20.999Z</time></trkpt><trkpt lat="45.460942257648185" lon="9.319706934582891"><ele>107.80000000000001</ele><time>2026-03-29T16:08:21.999Z</time></trkpt><trkpt lat="45.46099126345979" lon="9.319580725292951"><ele>107.60000000000001</ele><time>2026-03-29T16:08:22.999Z</time></trkpt><trkpt lat="45.46103804787629" lon="9.319454767779984"><ele>107.39999999999999</ele><time>2026-03-29T16:08:23.999Z</time></trkpt><trkpt lat="45.46108001849723" lon="9.319329342574106"><ele>107.19999999999999</ele><time>2026-03-29T16:08:24.999Z</time></trkpt><trkpt lat="45.461126097702795" lon="9.319201233136685"><ele>107.0</ele><time>2026-03-29T16:08:25.999Z</time></trkpt><trkpt lat="45.46116335180553" lon="9.319075015814533"><ele>107.0</ele><time>2026-03-29T16:08:26.999Z</time></trkpt><trkpt lat="45.461233705344135" lon="9.3189641908731"><ele>106.99999999999999</ele><time>2026-03-29T16:08:27.999Z</time></trkpt><trkpt lat="45.46129533719981" lon="9.318843518522517"><ele>106.99999999999999</ele><time>2026-03-29T16:08:28.999Z</time></trkpt><trkpt lat="45.461370646949106" lon="9.31872902832995"><ele>107.0</ele><time>2026-03-29T16:08:29.999Z</time></trkpt><trkpt lat="45.461452675793545" lon="9.31862360912922"><ele>107.0</ele><time>2026-03-29T16:08:30.999Z</time></trkpt><trkpt lat="45.46153560767869" lon="9.318515565440594"><ele>107.75</ele><time>2026-03-29T16:08:31.999Z</time></trkpt><trkpt lat="45.461619928976006" lon="9.31840228664839"><ele>108.5</ele><time>2026-03-29T16:08:32.999Z</time></trkpt><trkpt lat="45.4617041440311" lon="9.318289427161865"><ele>109.25</ele><time>2026-03-29T16:08:33.999Z</time></trkpt><trkpt lat="45.4617898332862" lon="9.318172621716306"><ele>110.0</ele><time>2026-03-29T16:08:34.999Z</time></trkpt><trkpt lat="45.461874102687666" lon="9.318059037657148"><ele>110.0</ele><time>2026-03-29T16:08:35.999Z</time></trkpt><trkpt lat="45.46195658185421" lon="9.317945538634522"><ele>110.0</ele><time>2026-03-29T16:08:37Z</time></trkpt><trkpt lat="45.46203834222201" lon="9.31783302437363"><ele>110.0</ele><time>2026-03-29T16:08:38Z</time></trkpt><trkpt lat="45.46212209472147" lon="9.317726891290864"><ele>110.0</ele><time>2026-03-29T16:08:39Z</time></trkpt><trkpt lat="45.46219743506499" lon="9.317626138977184"><ele>110.0</ele><time>2026-03-29T16:08:40Z</time></trkpt><trkpt lat="45.462269283609714" lon="9.317531849220355"><ele>110.0</ele><time>2026-03-29T16:08:41Z</time></trkpt><trkpt lat="45.4623469860554" lon="9.317439382139646"><ele>110.0</ele><time>2026-03-29T16:08:42Z</time></trkpt><trkpt lat="45.462427993654146" lon="9.317361706540636"><ele>110.0</ele><time>2026-03-29T16:08:43Z</time></trkpt><trkpt lat="45.46251554052987" lon="9.317301538621846"><ele>110.0</ele><time>2026-03-29T16:08:44Z</time></trkpt><trkpt lat="45.462606559586334" lon="9.317250458235828"><ele>110.0</ele><time>2026-03-29T16:08:45Z</time></trkpt><trkpt lat="45.46269814280536" lon="9.317211528946023"><ele>109.8</ele><time>2026-03-29T16:08:46Z</time></trkpt><trkpt lat="45.462791443056254" lon="9.317181727221065"><ele>109.6</ele><time>2026-03-29T16:08:47Z</time></trkpt><trkpt lat="45.462884408678455" lon="9.317151300443838"><ele>109.4</ele><time>2026-03-29T16:08:48Z</time></trkpt><trkpt lat="45.46297711598121" lon="9.31711402984249"><ele>109.2</ele><time>2026-03-29T16:08:49Z</time></trkpt><trkpt lat="45.46306784108981" lon="9.317075392552482"><ele>109.0</ele><time>2026-03-29T16:08:50Z</time></trkpt><trkpt lat="45.463155267317816" lon="9.317037809917714"><ele>109.00000000000001</ele><time>2026-03-29T16:08:51Z</time></trkpt><trkpt lat="45.463237643558365" lon="9.316995047440049"><ele>109.0</ele><time>2026-03-29T16:08:52Z</time></trkpt><trkpt lat="45.46331811053298" lon="9.316950462358543"><ele>109.0</ele><time>2026-03-29T16:08:53Z</time></trkpt><trkpt lat="45.463392509485544" lon="9.316907913818248"><ele>109.0</ele><time>2026-03-29T16:08:54Z</time></trkpt><trkpt lat="45.46346019029602" lon="9.31687048975325"><ele>109.00000000000001</ele><time>2026-03-29T16:08:55Z</time></trkpt><trkpt lat="45.463553380948134" lon="9.316814903360779"><ele>109.0</ele><time>2026-03-29T16:08:57Z</time></trkpt><trkpt lat="45.46362239984391" lon="9.316776474505787"><ele>109.00000000000001</ele><time>2026-03-29T16:08:59Z</time></trkpt><trkpt lat="45.46368694651209" lon="9.316739467489795"><ele>109.0</ele><time>2026-03-29T16:09:02Z</time></trkpt><trkpt lat="45.463766867947136" lon="9.31668083111842"><ele>109.0</ele><time>2026-03-29T16:09:18Z</time></trkpt><trkpt lat="45.46384719985277" lon="9.316630275863796"><ele>109.0</ele><time>2026-03-29T16:09:20Z</time></trkpt><trkpt lat="45.46393229633807" lon="9.316566662171546"><ele>109.00000000000001</ele><time>2026-03-29T16:09:22Z</time></trkpt><trkpt lat="45.46400662535343" lon="9.316517722601786"><ele>109.0</ele><time>2026-03-29T16:09:24Z</time></trkpt><trkpt lat="45.46408506200484" lon="9.31647354912868"><ele>108.66666666666667</ele><time>2026-03-29T16:09:28Z</time></trkpt><trkpt lat="45.46412765459379" lon="9.316329267361553"><ele>108.33333333333334</ele><time>2026-03-29T16:09:30Z</time></trkpt><trkpt lat="45.46411732222234" lon="9.316239222914351"><ele>108.0</ele><time>2026-03-29T16:09:31Z</time></trkpt><trkpt lat="45.46410770729734" lon="9.316143616370912"><ele>107.66666666666666</ele><time>2026-03-29T16:09:32Z</time></trkpt><trkpt lat="45.46409807564098" lon="9.316042896913066"><ele>107.33333333333333</ele><time>2026-03-29T16:09:33Z</time></trkpt><trkpt lat="45.46408682489776" lon="9.315937056525154"><ele>107.0</ele><time>2026-03-29T16:09:34Z</time></trkpt><trkpt lat="45.46407488810064" lon="9.315827466574824"><ele>106.99999999999999</ele><time>2026-03-29T16:09:35Z</time></trkpt><trkpt lat="45.46406380053836" lon="9.315713146561231"><ele>107.0</ele><time>2026-03-29T16:09:36Z</time></trkpt><trkpt lat="45.46405314574827" lon="9.315592438433644"><ele>107.0</ele><time>2026-03-29T16:09:37Z</time></trkpt><trkpt lat="45.464043772401375" lon="9.31547121010464"><ele>107.0</ele><time>2026-03-29T16:09:38Z</time></trkpt><trkpt lat="45.464038219773315" lon="9.315348532012273"><ele>106.99999999999999</ele><time>2026-03-29T16:09:39Z</time></trkpt><trkpt lat="45.464033545954685" lon="9.315225584293096"><ele>107.0</ele><time>2026-03-29T16:09:40Z</time></trkpt><trkpt lat="45.46402691673723" lon="9.315101094030853"><ele>106.8</ele><time>2026-03-29T16:09:40.999Z</time></trkpt><trkpt lat="45.46401792216099" lon="9.314983093586033"><ele>106.6</ele><time>2026-03-29T16:09:41.999Z</time></trkpt><trkpt lat="45.46400604743342" lon="9.31486126703599"><ele>106.39999999999999</ele><time>2026-03-29T16:09:42.999Z</time></trkpt><trkpt lat="45.4639868240527" lon="9.314734315519296"><ele>106.19999999999999</ele><time>2026-03-29T16:09:43.999Z</time></trkpt><trkpt lat="45.46399112085774" lon="9.314587645500007"><ele>106.0</ele><time>2026-03-29T16:09:44.999Z</time></trkpt><trkpt lat="45.4639746048816" lon="9.314432208780612"><ele>106.6</ele><time>2026-03-29T16:09:45.999Z</time></trkpt><trkpt lat="45.46395129663607" lon="9.314274277877171"><ele>107.19999999999999</ele><time>2026-03-29T16:09:46.999Z</time></trkpt><trkpt lat="45.463933104859024" lon="9.314118925882074"><ele>107.80000000000001</ele><time>2026-03-29T16:09:47.999Z</time></trkpt><trkpt lat="45.463906937322065" lon="9.31396386829236"><ele>108.4</ele><time>2026-03-29T16:09:48.999Z</time></trkpt><trkpt lat="45.46390626960985" lon="9.313818008415723"><ele>109.0</ele><time>2026-03-29T16:09:49.999Z</time></trkpt><trkpt lat="45.463910827007965" lon="9.31367702148424"><ele>109.0</ele><time>2026-03-29T16:09:50.999Z</time></trkpt><trkpt lat="45.46391472171143" lon="9.313532248312498"><ele>109.0</ele><time>2026-03-29T16:09:51.999Z</time></trkpt><trkpt lat="45.46391349156236" lon="9.313384724189278"><ele>109.0</ele><time>2026-03-29T16:09:52.999Z</time></trkpt><trkpt lat="45.46391392096204" lon="9.313231160690206"><ele>109.0</ele><time>2026-03-29T16:09:53.999Z</time></trkpt><trkpt lat="45.46392290186508" lon="9.31307880374014"><ele>109.0</ele><time>2026-03-29T16:09:54.999Z</time></trkpt><trkpt lat="45.46393579240862" lon="9.312950182430331"><ele>109.0</ele><time>2026-03-29T16:09:55.999Z</time></trkpt><trkpt lat="45.463942928998335" lon="9.312838949590477"><ele>109.0</ele><time>2026-03-29T16:09:56.999Z</time></trkpt><trkpt lat="45.463956513823184" lon="9.312712075473772"><ele>109.0</ele><time>2026-03-29T16:09:58.999Z</time></trkpt><trkpt lat="45.46397384224426" lon="9.312606645943859"><ele>109.0</ele><time>2026-03-29T16:10:00.999Z</time></trkpt><trkpt lat="45.464011726300406" lon="9.312466051445174"><ele>109.0</ele><time>2026-03-29T16:10:02.999Z</time></trkpt><trkpt lat="45.46401612435144" lon="9.312254952478174"><ele>109.4</ele><time>2026-03-29T16:10:04.999Z</time></trkpt><trkpt lat="45.46399596432046" lon="9.312107954184691"><ele>109.80000000000001</ele><time>2026-03-29T16:10:05.999Z</time></trkpt><trkpt lat="45.46398066041738" lon="9.311969652169799"><ele>110.19999999999999</ele><time>2026-03-29T16:10:06.999Z</time></trkpt><trkpt lat="45.463964881666755" lon="9.311826183175636"><ele>110.6</ele><time>2026-03-29T16:10:07.999Z</time></trkpt><trkpt lat="45.46395033856514" lon="9.311677635858459"><ele>111.0</ele><time>2026-03-29T16:10:08.999Z</time></trkpt><trkpt lat="45.46393465506039" lon="9.311526293146363"><ele>110.8</ele><time>2026-03-29T16:10:09.999Z</time></trkpt><trkpt lat="45.46391975080745" lon="9.311379917564434"><ele>110.6</ele><time>2026-03-29T16:10:10.999Z</time></trkpt><trkpt lat="45.46390591457086" lon="9.311236498491036"><ele>110.4</ele><time>2026-03-29T16:10:11.999Z</time></trkpt><trkpt lat="45.46389097734806" lon="9.311094524579874"><ele>110.2</ele><time>2026-03-29T16:10:12.999Z</time></trkpt><trkpt lat="45.463873435154206" lon="9.310956393412075"><ele>110.0</ele><time>2026-03-29T16:10:13.999Z</time></trkpt><trkpt lat="45.46385435895892" lon="9.31081294615495"><ele>109.99999999999999</ele><time>2026-03-29T16:10:14.999Z</time></trkpt><trkpt lat="45.46383102726443" lon="9.310676322728533"><ele>110.0</ele><time>2026-03-29T16:10:15.999Z</time></trkpt><trkpt lat="45.46380509739102" lon="9.310550433643346"><ele>110.0</ele><time>2026-03-29T16:10:16.999Z</time></trkpt><trkpt lat="45.463786399708304" lon="9.310433005120546"><ele>110.0</ele><time>2026-03-29T16:10:17.999Z</time></trkpt><trkpt lat="45.463770007072284" lon="9.310345044875952"><ele>109.99999999999999</ele><time>2026-03-29T16:10:18.999Z</time></trkpt><trkpt lat="45.46375871782254" lon="9.310195513922922"><ele>110.0</ele><time>2026-03-29T16:10:20.999Z</time></trkpt><trkpt lat="45.46374010043882" lon="9.310074812563318"><ele>110.0</ele><time>2026-03-29T16:10:21.999Z</time></trkpt><trkpt lat="45.463718353443326" lon="9.309920864028168"><ele>110.0</ele><time>2026-03-29T16:10:22.999Z</time></trkpt><trkpt lat="45.46367711563033" lon="9.309746058060043"><ele>110.0</ele><time>2026-03-29T16:10:23.999Z</time></trkpt><trkpt lat="45.46365300447137" lon="9.30957343173475"><ele>110.0</ele><time>2026-03-29T16:10:24.999Z</time></trkpt><trkpt lat="45.46363409358405" lon="9.309385535112593"><ele>110.0</ele><time>2026-03-29T16:10:25.999Z</time></trkpt><trkpt lat="45.46360248296008" lon="9.309188534792955"><ele>110.0</ele><time>2026-03-29T16:10:26.999Z</time></trkpt><trkpt lat="45.46357318836436" lon="9.309010961006921"><ele>110.0</ele><time>2026-03-29T16:10:27.999Z</time></trkpt><trkpt lat="45.463546241322476" lon="9.308832758934942"><ele>110.0</ele><time>2026-03-29T16:10:28.999Z</time></trkpt><trkpt lat="45.46352003071438" lon="9.308645887133292"><ele>109.75</ele><time>2026-03-29T16:10:29.999Z</time></trkpt><trkpt lat="45.46349522839453" lon="9.308449188908117"><ele>109.5</ele><time>2026-03-29T16:10:30.999Z</time></trkpt><trkpt lat="45.463472825009184" lon="9.308249646349298"><ele>109.25</ele><time>2026-03-29T16:10:31.999Z</time></trkpt><trkpt lat="45.46345111593211" lon="9.308045940055154"><ele>109.0</ele><time>2026-03-29T16:10:32.999Z</time></trkpt><trkpt lat="45.463426166005455" lon="9.30784136866671"><ele>109.0</ele><time>2026-03-29T16:10:33.999Z</time></trkpt><trkpt lat="45.463398452328924" lon="9.307636743976905"><ele>109.0</ele><time>2026-03-29T16:10:34.999Z</time></trkpt><trkpt lat="45.46336993302252" lon="9.307436165202821"><ele>109.0</ele><time>2026-03-29T16:10:35.999Z</time></trkpt><trkpt lat="45.46333986635595" lon="9.307228315849677"><ele>109.0</ele><time>2026-03-29T16:10:36.999Z</time></trkpt><trkpt lat="45.463309672273546" lon="9.307019835807226"><ele>108.5</ele><time>2026-03-29T16:10:37.999Z</time></trkpt><trkpt lat="45.46327943793361" lon="9.306818553831848"><ele>108.0</ele><time>2026-03-29T16:10:38.999Z</time></trkpt><trkpt lat="45.463251601805844" lon="9.3066345543084"><ele>107.5</ele><time>2026-03-29T16:10:39.999Z</time></trkpt><trkpt lat="45.46322701498751" lon="9.306465248411897"><ele>107.0</ele><time>2026-03-29T16:10:40.999Z</time></trkpt><trkpt lat="45.463201090247416" lon="9.306299320730655"><ele>106.75</ele><time>2026-03-29T16:10:41.999Z</time></trkpt><trkpt lat="45.4631756592071" lon="9.30613116463542"><ele>106.5</ele><time>2026-03-29T16:10:43Z</time></trkpt><trkpt lat="45.46315098238972" lon="9.305966782517707"><ele>106.25</ele><time>2026-03-29T16:10:44Z</time></trkpt><trkpt lat="45.46312686944467" lon="9.305806990681532"><ele>106.0</ele><time>2026-03-29T16:10:45Z</time></trkpt><trkpt lat="45.46310197491566" lon="9.305649263606895"><ele>106.0</ele><time>2026-03-29T16:10:46Z</time></trkpt><trkpt lat="45.46307705060632" lon="9.305489091747583"><ele>106.0</ele><time>2026-03-29T16:10:47Z</time></trkpt><trkpt lat="45.463051362575335" lon="9.305329591822094"><ele>106.0</ele><time>2026-03-29T16:10:48Z</time></trkpt><trkpt lat="45.4630240533799" lon="9.305153184505127"><ele>106.0</ele><time>2026-03-29T16:10:49Z</time></trkpt><trkpt lat="45.46299464297121" lon="9.304962310554508"><ele>106.0</ele><time>2026-03-29T16:10:50Z</time></trkpt><trkpt lat="45.46296442323178" lon="9.304767073063234"><ele>106.0</ele><time>2026-03-29T16:10:51Z</time></trkpt><trkpt lat="45.462934865285234" lon="9.30457063748262"><ele>106.0</ele><time>2026-03-29T16:10:52Z</time></trkpt><trkpt lat="45.46290390406523" lon="9.304382587010886"><ele>106.0</ele><time>2026-03-29T16:10:53Z</time></trkpt><trkpt lat="45.46287713427447" lon="9.304219102717468"><ele>106.6</ele><time>2026-03-29T16:10:54Z</time></trkpt><trkpt lat="45.46285462873312" lon="9.304069704295976"><ele>107.19999999999999</ele><time>2026-03-29T16:10:55Z</time></trkpt><trkpt lat="45.46283179079822" lon="9.30392525413669"><ele>107.80000000000001</ele><time>2026-03-29T16:10:56Z</time></trkpt><trkpt lat="45.462810015359274" lon="9.30378168976345"><ele>108.4</ele><time>2026-03-29T16:10:57Z</time></trkpt><trkpt lat="45.4627883897691" lon="9.303643853795824"><ele>109.0</ele><time>2026-03-29T16:10:58Z</time></trkpt><trkpt lat="45.462767498775364" lon="9.30352073583395"><ele>109.0</ele><time>2026-03-29T16:10:59Z</time></trkpt><trkpt lat="45.46275289303783" lon="9.303424759330374"><ele>109.0</ele><time>2026-03-29T16:11:00Z</time></trkpt><trkpt lat="45.46274323617163" lon="9.30333410349238"><ele>109.0</ele><time>2026-03-29T16:11:01Z</time></trkpt><trkpt lat="45.46276626809792" lon="9.303196842151996"><ele>109.0</ele><time>2026-03-29T16:11:03Z</time></trkpt><trkpt lat="45.462945739706015" lon="9.303162360045157"><ele>109.0</ele><time>2026-03-29T16:11:05Z</time></trkpt><trkpt lat="45.46305000557695" lon="9.303160329964243"><ele>108.75</ele><time>2026-03-29T16:11:06Z</time></trkpt><trkpt lat="45.463168151866036" lon="9.303159171355253"><ele>108.5</ele><time>2026-03-29T16:11:07Z</time></trkpt><trkpt lat="45.46329947902485" lon="9.30315475255416"><ele>108.25</ele><time>2026-03-29T16:11:08Z</time></trkpt><trkpt lat="45.46344524500198" lon="9.30315135646288"><ele>108.0</ele><time>2026-03-29T16:11:09Z</time></trkpt><trkpt lat="45.46359621086904" lon="9.30314332529638"><ele>108.0</ele><time>2026-03-29T16:11:10Z</time></trkpt><trkpt lat="45.4637499323096" lon="9.303133634665738"><ele>108.0</ele><time>2026-03-29T16:11:11Z</time></trkpt><trkpt lat="45.463913528440074" lon="9.303125897027513"><ele>108.0</ele><time>2026-03-29T16:11:12Z</time></trkpt><trkpt lat="45.464081467068425" lon="9.303119166141604"><ele>108.66666666666666</ele><time>2026-03-29T16:11:13Z</time></trkpt><trkpt lat="45.4642487051706" lon="9.303114975011637"><ele>109.33333333333333</ele><time>2026-03-29T16:11:14Z</time></trkpt><trkpt lat="45.464407454723755" lon="9.303110957991697"><ele>110.0</ele><time>2026-03-29T16:11:15Z</time></trkpt><trkpt lat="45.464562312698305" lon="9.303104530383596"><ele>109.5</ele><time>2026-03-29T16:11:16Z</time></trkpt><trkpt lat="45.464710936453756" lon="9.303094376795128"><ele>109.0</ele><time>2026-03-29T16:11:17Z</time></trkpt><trkpt lat="45.46485355093223" lon="9.303079780223989"><ele>108.5</ele><time>2026-03-29T16:11:18Z</time></trkpt><trkpt lat="45.46498941606999" lon="9.303058242393895"><ele>108.0</ele><time>2026-03-29T16:11:19Z</time></trkpt><trkpt lat="45.46511774900784" lon="9.303020420264795"><ele>108.0</ele><time>2026-03-29T16:11:20Z</time></trkpt><trkpt lat="45.4652304434333" lon="9.302971542493221"><ele>108.00000000000001</ele><time>2026-03-29T16:11:21Z</time></trkpt><trkpt lat="45.465330833582094" lon="9.302923402596981"><ele>108.00000000000001</ele><time>2026-03-29T16:11:22Z</time></trkpt><trkpt lat="45.465409049505354" lon="9.302873166794638"><ele>108.0</ele><time>2026-03-29T16:11:23Z</time></trkpt><trkpt lat="45.46547663494442" lon="9.302823240827196"><ele>108.0</ele><time>2026-03-29T16:11:24Z</time></trkpt><trkpt lat="45.46554066320842" lon="9.30278602919277"><ele>108.5</ele><time>2026-03-29T16:11:25Z</time></trkpt><trkpt lat="45.46560489575755" lon="9.302760959085239"><ele>109.0</ele><time>2026-03-29T16:11:26Z</time></trkpt><trkpt lat="45.46568001851573" lon="9.302743407966336"><ele>109.5</ele><time>2026-03-29T16:11:27Z</time></trkpt><trkpt lat="45.465750066512335" lon="9.302764473248937"><ele>110.0</ele><time>2026-03-29T16:11:28Z</time></trkpt><trkpt lat="45.46583172078112" lon="9.302759739035706"><ele>110.5</ele><time>2026-03-29T16:11:29Z</time></trkpt><trkpt lat="45.46591944126268" lon="9.302697904839595"><ele>111.0</ele><time>2026-03-29T16:11:30Z</time></trkpt><trkpt lat="45.46602777290951" lon="9.302644276891076"><ele>111.0</ele><time>2026-03-29T16:11:31Z</time></trkpt><trkpt lat="45.46614423370233" lon="9.302624956527975"><ele>111.0</ele><time>2026-03-29T16:11:32Z</time></trkpt><trkpt lat="45.466278759725576" lon="9.30262638164898"><ele>111.0</ele><time>2026-03-29T16:11:33Z</time></trkpt><trkpt lat="45.46642158369628" lon="9.302646736408862"><ele>111.0</ele><time>2026-03-29T16:11:34Z</time></trkpt><trkpt lat="45.466554166610635" lon="9.302684007140725"><ele>110.5</ele><time>2026-03-29T16:11:35Z</time></trkpt><trkpt lat="45.46667624909673" lon="9.30272581517273"><ele>110.0</ele><time>2026-03-29T16:11:36Z</time></trkpt><trkpt lat="45.46679600825636" lon="9.302769867623578"><ele>109.5</ele><time>2026-03-29T16:11:37Z</time></trkpt><trkpt lat="45.466928304240696" lon="9.302816253861891"><ele>109.0</ele><time>2026-03-29T16:11:38Z</time></trkpt><trkpt lat="45.46705870576003" lon="9.302865888560344"><ele>109.25</ele><time>2026-03-29T16:11:39Z</time></trkpt><trkpt lat="45.46719082962345" lon="9.302921689247446"><ele>109.5</ele><time>2026-03-29T16:11:40Z</time></trkpt><trkpt lat="45.467328297755635" lon="9.302992164368622"><ele>109.75</ele><time>2026-03-29T16:11:41Z</time></trkpt><trkpt lat="45.4674708419816" lon="9.303071650578232"><ele>110.0</ele><time>2026-03-29T16:11:42Z</time></trkpt><trkpt lat="45.46761620600892" lon="9.30315141833975"><ele>110.33333333333333</ele><time>2026-03-29T16:11:43Z</time></trkpt><trkpt lat="45.46776283644695" lon="9.303225704893912"><ele>110.66666666666666</ele><time>2026-03-29T16:11:43.999Z</time></trkpt><trkpt lat="45.46790898808713" lon="9.303299972873663"><ele>111.0</ele><time>2026-03-29T16:11:44.999Z</time></trkpt><trkpt lat="45.46805667553814" lon="9.30337456529837"><ele>110.5</ele><time>2026-03-29T16:11:45.999Z</time></trkpt><trkpt lat="45.46820319342018" lon="9.303445476382093"><ele>110.0</ele><time>2026-03-29T16:11:46.999Z</time></trkpt><trkpt lat="45.46834519110471" lon="9.303503411552708"><ele>109.5</ele><time>2026-03-29T16:11:47.999Z</time></trkpt><trkpt lat="45.468484746304696" lon="9.303544779979754"><ele>109.0</ele><time>2026-03-29T16:11:48.999Z</time></trkpt><trkpt lat="45.468612629057624" lon="9.303566313615372"><ele>109.0</ele><time>2026-03-29T16:11:49.999Z</time></trkpt><trkpt lat="45.468733585485765" lon="9.30357672044896"><ele>109.0</ele><time>2026-03-29T16:11:50.999Z</time></trkpt><trkpt lat="45.468843409443274" lon="9.303580274838307"><ele>109.0</ele><time>2026-03-29T16:11:51.999Z</time></trkpt><trkpt lat="45.46893642855991" lon="9.303578870798063"><ele>109.0</ele><time>2026-03-29T16:11:52.999Z</time></trkpt><trkpt lat="45.4690276735213" lon="9.303575951719578"><ele>109.0</ele><time>2026-03-29T16:11:53.999Z</time></trkpt><trkpt lat="45.469107073448455" lon="9.30357439781714"><ele>108.6</ele><time>2026-03-29T16:11:54.999Z</time></trkpt><trkpt lat="45.46918626198777" lon="9.303597305014707"><ele>108.2</ele><time>2026-03-29T16:11:55.999Z</time></trkpt><trkpt lat="45.469258920357895" lon="9.303651783970716"><ele>107.79999999999998</ele><time>2026-03-29T16:11:56.999Z</time></trkpt><trkpt lat="45.46933491781442" lon="9.303736814370586"><ele>107.39999999999999</ele><time>2026-03-29T16:11:57.999Z</time></trkpt><trkpt lat="45.46943598336691" lon="9.30379216330774"><ele>107.0</ele><time>2026-03-29T16:11:58.999Z</time></trkpt><trkpt lat="45.469558921570226" lon="9.303758510799556"><ele>107.5</ele><time>2026-03-29T16:11:59.999Z</time></trkpt><trkpt lat="45.46966800283262" lon="9.303690309409571"><ele>108.0</ele><time>2026-03-29T16:12:00.999Z</time></trkpt><trkpt lat="45.469795410064705" lon="9.303736832837519"><ele>108.5</ele><time>2026-03-29T16:12:01.999Z</time></trkpt><trkpt lat="45.469915421957175" lon="9.303782404658337"><ele>109.0</ele><time>2026-03-29T16:12:02.999Z</time></trkpt><trkpt lat="45.470041252763984" lon="9.303844643700803"><ele>109.0</ele><time>2026-03-29T16:12:03.999Z</time></trkpt><trkpt lat="45.47017987446839" lon="9.303902160364187"><ele>109.0</ele><time>2026-03-29T16:12:04.999Z</time></trkpt><trkpt lat="45.47033246661051" lon="9.303948529916937"><ele>109.0</ele><time>2026-03-29T16:12:05.999Z</time></trkpt><trkpt lat="45.47050138141689" lon="9.303992704088511"><ele>110.33333333333334</ele><time>2026-03-29T16:12:06.999Z</time></trkpt><trkpt lat="45.47067695678553" lon="9.304034991090067"><ele>111.66666666666666</ele><time>2026-03-29T16:12:07.999Z</time></trkpt><trkpt lat="45.470855379823284" lon="9.304063377684182"><ele>113.0</ele><time>2026-03-29T16:12:08.999Z</time></trkpt><trkpt lat="45.471041478766224" lon="9.304078063634623"><ele>113.0</ele><time>2026-03-29T16:12:09.999Z</time></trkpt><trkpt lat="45.47123474412932" lon="9.304088105887134"><ele>113.0</ele><time>2026-03-29T16:12:10.999Z</time></trkpt><trkpt lat="45.47143441782854" lon="9.304090248468128"><ele>113.0</ele><time>2026-03-29T16:12:11.999Z</time></trkpt><trkpt lat="45.47163241696868" lon="9.304082732569105"><ele>113.66666666666666</ele><time>2026-03-29T16:12:12.999Z</time></trkpt><trkpt lat="45.47183319077876" lon="9.30407693595362"><ele>114.33333333333334</ele><time>2026-03-29T16:12:13.999Z</time></trkpt><trkpt lat="45.47203655387403" lon="9.304072915115485"><ele>115.0</ele><time>2026-03-29T16:12:14.999Z</time></trkpt><trkpt lat="45.472242182592126" lon="9.304071212074955"><ele>115.0</ele><time>2026-03-29T16:12:15.999Z</time></trkpt><trkpt lat="45.47245207220615" lon="9.304069948643164"><ele>115.0</ele><time>2026-03-29T16:12:16.999Z</time></trkpt><trkpt lat="45.472665695316735" lon="9.30406821340797"><ele>115.0</ele><time>2026-03-29T16:12:17.999Z</time></trkpt><trkpt lat="45.47287356403837" lon="9.304063810821953"><ele>114.0</ele><time>2026-03-29T16:12:18.999Z</time></trkpt><trkpt lat="45.47306967592586" lon="9.304058878347307"><ele>113.0</ele><time>2026-03-29T16:12:19.999Z</time></trkpt><trkpt lat="45.47325339460167" lon="9.304054196795505"><ele>112.0</ele><time>2026-03-29T16:12:20.999Z</time></trkpt><trkpt lat="45.47342897007059" lon="9.304051758568319"><ele>112.0</ele><time>2026-03-29T16:12:21.999Z</time></trkpt><trkpt lat="45.4735945025239" lon="9.304052619937568"><ele>112.0</ele><time>2026-03-29T16:12:22.999Z</time></trkpt><trkpt lat="45.473749377405035" lon="9.304048245112357"><ele>112.0</ele><time>2026-03-29T16:12:23.999Z</time></trkpt><trkpt lat="45.47389695811085" lon="9.304044463305292"><ele>112.5</ele><time>2026-03-29T16:12:24.999Z</time></trkpt><trkpt lat="45.4740341835278" lon="9.304040588444648"><ele>113.0</ele><time>2026-03-29T16:12:25.999Z</time></trkpt><trkpt lat="45.47415856350046" lon="9.304043558101977"><ele>113.5</ele><time>2026-03-29T16:12:26.999Z</time></trkpt><trkpt lat="45.474263839439715" lon="9.304060356160319"><ele>114.0</ele><time>2026-03-29T16:12:27.999Z</time></trkpt><trkpt lat="45.4743549155345" lon="9.304120727156683"><ele>114.0</ele><time>2026-03-29T16:12:28.999Z</time></trkpt><trkpt lat="45.47444309138763" lon="9.304167258162556"><ele>114.0</ele><time>2026-03-29T16:12:29.999Z</time></trkpt><trkpt lat="45.47453234411694" lon="9.30422172464452"><ele>114.0</ele><time>2026-03-29T16:12:30.999Z</time></trkpt><trkpt lat="45.47463743369676" lon="9.304186546748934"><ele>114.0</ele><time>2026-03-29T16:12:31.999Z</time></trkpt><trkpt lat="45.474715449989674" lon="9.30410061284016"><ele>114.0</ele><time>2026-03-29T16:12:32.999Z</time></trkpt><trkpt lat="45.47479064329208" lon="9.304025732098022"><ele>114.25</ele><time>2026-03-29T16:12:33.999Z</time></trkpt><trkpt lat="45.47488228095567" lon="9.303998205643842"><ele>114.5</ele><time>2026-03-29T16:12:34.999Z</time></trkpt><trkpt lat="45.474986266822164" lon="9.30399430548216"><ele>114.75</ele><time>2026-03-29T16:12:35.999Z</time></trkpt><trkpt lat="45.475107460502485" lon="9.303999720027742"><ele>115.0</ele><time>2026-03-29T16:12:36.999Z</time></trkpt><trkpt lat="45.47524232202511" lon="9.304007657823652"><ele>115.0</ele><time>2026-03-29T16:12:37.999Z</time></trkpt><trkpt lat="45.47538869565354" lon="9.304005355626936"><ele>115.0</ele><time>2026-03-29T16:12:38.999Z</time></trkpt><trkpt lat="45.47554511081013" lon="9.30400840451975"><ele>115.0</ele><time>2026-03-29T16:12:39.999Z</time></trkpt><trkpt lat="45.47571121661086" lon="9.304010916063756"><ele>114.0</ele><time>2026-03-29T16:12:40.999Z</time></trkpt><trkpt lat="45.47587552938598" lon="9.304017933196272"><ele>113.0</ele><time>2026-03-29T16:12:41.999Z</time></trkpt><trkpt lat="45.47605006116128" lon="9.304028391849288"><ele>112.0</ele><time>2026-03-29T16:12:42.999Z</time></trkpt><trkpt lat="45.47622647452165" lon="9.304032303682018"><ele>112.25</ele><time>2026-03-29T16:12:43.999Z</time></trkpt><trkpt lat="45.47638414776931" lon="9.304029818353264"><ele>112.5</ele><time>2026-03-29T16:12:44.999Z</time></trkpt><trkpt lat="45.476529606132985" lon="9.30403036491547"><ele>112.75</ele><time>2026-03-29T16:12:45.999Z</time></trkpt><trkpt lat="45.476665212775465" lon="9.304028426249957"><ele>113.0</ele><time>2026-03-29T16:12:46.999Z</time></trkpt><trkpt lat="45.47679193216965" lon="9.30402633568522"><ele>113.0</ele><time>2026-03-29T16:12:47.999Z</time></trkpt><trkpt lat="45.47691089140208" lon="9.304032828909941"><ele>113.00000000000001</ele><time>2026-03-29T16:12:49Z</time></trkpt><trkpt lat="45.47702107894824" lon="9.304056827912232"><ele>113.00000000000001</ele><time>2026-03-29T16:12:50Z</time></trkpt><trkpt lat="45.47712423228373" lon="9.304107420292288"><ele>113.0</ele><time>2026-03-29T16:12:51Z</time></trkpt><trkpt lat="45.47721701231245" lon="9.304186989769832"><ele>113.0</ele><time>2026-03-29T16:12:52Z</time></trkpt><trkpt lat="45.47730740044297" lon="9.304288668408056"><ele>113.75</ele><time>2026-03-29T16:12:53Z</time></trkpt><trkpt lat="45.47739842274623" lon="9.30437127543575"><ele>114.5</ele><time>2026-03-29T16:12:54Z</time></trkpt><trkpt lat="45.47750522979819" lon="9.304430259847647"><ele>115.25</ele><time>2026-03-29T16:12:55Z</time></trkpt><trkpt lat="45.477624611824915" lon="9.30444749903746"><ele>116.0</ele><time>2026-03-29T16:12:56Z</time></trkpt><trkpt lat="45.477735707046754" lon="9.304421304342707"><ele>116.0</ele><time>2026-03-29T16:12:57Z</time></trkpt><trkpt lat="45.47783377090043" lon="9.304361461136262"><ele>116.0</ele><time>2026-03-29T16:12:58Z</time></trkpt><trkpt lat="45.47793336797492" lon="9.304264655006174"><ele>116.0</ele><time>2026-03-29T16:12:59Z</time></trkpt><trkpt lat="45.47799621526554" lon="9.304104726308413"><ele>116.0</ele><time>2026-03-29T16:13:00Z</time></trkpt><trkpt lat="45.47814214300878" lon="9.30400938638222"><ele>116.0</ele><time>2026-03-29T16:13:01Z</time></trkpt><trkpt lat="45.47828796818553" lon="9.303974217294474"><ele>116.0</ele><time>2026-03-29T16:13:02Z</time></trkpt><trkpt lat="45.47840980376753" lon="9.30393345602833"><ele>116.0</ele><time>2026-03-29T16:13:03Z</time></trkpt><trkpt lat="45.478510571790245" lon="9.303864503017913"><ele>116.0</ele><time>2026-03-29T16:13:04Z</time></trkpt><trkpt lat="45.47858096023339" lon="9.30375369988777"><ele>115.6</ele><time>2026-03-29T16:13:05Z</time></trkpt><trkpt lat="45.478615534374576" lon="9.303624014733682"><ele>115.19999999999999</ele><time>2026-03-29T16:13:06Z</time></trkpt><trkpt lat="45.47861935807462" lon="9.303477321000031"><ele>114.80000000000001</ele><time>2026-03-29T16:13:07Z</time></trkpt><trkpt lat="45.47858763508347" lon="9.30332904040376"><ele>114.4</ele><time>2026-03-29T16:13:08Z</time></trkpt><trkpt lat="45.478518372802576" lon="9.303182182593794"><ele>114.0</ele><time>2026-03-29T16:13:09Z</time></trkpt><trkpt lat="45.47842979522633" lon="9.303027227560746"><ele>114.0</ele><time>2026-03-29T16:13:10Z</time></trkpt><trkpt lat="45.47833848334471" lon="9.30285762864299"><ele>114.0</ele><time>2026-03-29T16:13:11Z</time></trkpt><trkpt lat="45.47824387260256" lon="9.302679169941584"><ele>114.0</ele><time>2026-03-29T16:13:12Z</time></trkpt><trkpt lat="45.4781523140291" lon="9.302497817139075"><ele>114.0</ele><time>2026-03-29T16:13:13Z</time></trkpt><trkpt lat="45.47807367222301" lon="9.302343887782945"><ele>114.0</ele><time>2026-03-29T16:13:14Z</time></trkpt><trkpt lat="45.47800346714039" lon="9.302204522571918"><ele>114.0</ele><time>2026-03-29T16:13:15Z</time></trkpt><trkpt lat="45.47794371756139" lon="9.302077783119506"><ele>114.0</ele><time>2026-03-29T16:13:16Z</time></trkpt><trkpt lat="45.47790246417987" lon="9.30195360897734"><ele>114.0</ele><time>2026-03-29T16:13:17Z</time></trkpt><trkpt lat="45.47789192925828" lon="9.301830198493342"><ele>114.0</ele><time>2026-03-29T16:13:18Z</time></trkpt><trkpt lat="45.477913165135426" lon="9.301713926464437"><ele>114.0</ele><time>2026-03-29T16:13:19Z</time></trkpt><trkpt lat="45.477962092093826" lon="9.301620358740761"><ele>114.0</ele><time>2026-03-29T16:13:20Z</time></trkpt><trkpt lat="45.478035986088045" lon="9.301565115563355"><ele>114.0</ele><time>2026-03-29T16:13:21Z</time></trkpt><trkpt lat="45.47811866280867" lon="9.301534821178919"><ele>114.0</ele><time>2026-03-29T16:13:22Z</time></trkpt><trkpt lat="45.47820323558345" lon="9.301507513113924"><ele>114.0</ele><time>2026-03-29T16:13:23Z</time></trkpt><trkpt lat="45.47829259737006" lon="9.301484440849823"><ele>114.0</ele><time>2026-03-29T16:13:24Z</time></trkpt><trkpt lat="45.478390658680205" lon="9.301453526596658"><ele>114.0</ele><time>2026-03-29T16:13:25Z</time></trkpt><trkpt lat="45.478496122945174" lon="9.301419415457357"><ele>114.0</ele><time>2026-03-29T16:13:26Z</time></trkpt><trkpt lat="45.478601335376105" lon="9.301379198311363"><ele>114.0</ele><time>2026-03-29T16:13:27Z</time></trkpt><trkpt lat="45.478711615388676" lon="9.301339947305259"><ele>114.5</ele><time>2026-03-29T16:13:28Z</time></trkpt><trkpt lat="45.47882436072227" lon="9.301297834787194"><ele>115.0</ele><time>2026-03-29T16:13:29Z</time></trkpt><trkpt lat="45.478936732140454" lon="9.301259167040655"><ele>115.5</ele><time>2026-03-29T16:13:30Z</time></trkpt><trkpt lat="45.479046481436086" lon="9.301217536389373"><ele>116.0</ele><time>2026-03-29T16:13:31Z</time></trkpt><trkpt lat="45.47915529415509" lon="9.301179064749757"><ele>116.0</ele><time>2026-03-29T16:13:32Z</time></trkpt><trkpt lat="45.47926299531449" lon="9.301139535257475"><ele>116.0</ele><time>2026-03-29T16:13:33Z</time></trkpt><trkpt lat="45.47936701660591" lon="9.301100982555836"><ele>116.0</ele><time>2026-03-29T16:13:34Z</time></trkpt><trkpt lat="45.47947300464555" lon="9.301061735408444"><ele>116.0</ele><time>2026-03-29T16:13:35Z</time></trkpt><trkpt lat="45.47957647781207" lon="9.301024502930936"><ele>116.0</ele><time>2026-03-29T16:13:36Z</time></trkpt><trkpt lat="45.479679698573456" lon="9.300988183075429"><ele>115.8</ele><time>2026-03-29T16:13:37Z</time></trkpt><trkpt lat="45.47978487739328" lon="9.3009496710493"><ele>115.6</ele><time>2026-03-29T16:13:38Z</time></trkpt><trkpt lat="45.47988977509824" lon="9.300911983421008"><ele>115.4</ele><time>2026-03-29T16:13:39Z</time></trkpt><trkpt lat="45.48000012376041" lon="9.300873169914754"><ele>115.2</ele><time>2026-03-29T16:13:40Z</time></trkpt><trkpt lat="45.48010846109517" lon="9.300830977400162"><ele>115.0</ele><time>2026-03-29T16:13:41Z</time></trkpt><trkpt lat="45.4802254309366" lon="9.300789876038792"><ele>115.0</ele><time>2026-03-29T16:13:42Z</time></trkpt><trkpt lat="45.480343569833245" lon="9.300752418948194"><ele>115.0</ele><time>2026-03-29T16:13:43Z</time></trkpt><trkpt lat="45.48045259060003" lon="9.300708563637263"><ele>115.0</ele><time>2026-03-29T16:13:44Z</time></trkpt><trkpt lat="45.48056400812565" lon="9.300668888112346"><ele>115.0</ele><time>2026-03-29T16:13:45Z</time></trkpt><trkpt lat="45.48068170161123" lon="9.300627905503507"><ele>115.25</ele><time>2026-03-29T16:13:46Z</time></trkpt><trkpt lat="45.480796438689346" lon="9.300581150231366"><ele>115.5</ele><time>2026-03-29T16:13:47Z</time></trkpt><trkpt lat="45.48091840525696" lon="9.3005426346533"><ele>115.75</ele><time>2026-03-29T16:13:48Z</time></trkpt><trkpt lat="45.481039679050106" lon="9.300494212193689"><ele>116.0</ele><time>2026-03-29T16:13:49Z</time></trkpt><trkpt lat="45.481166162609206" lon="9.300445227650147"><ele>116.25</ele><time>2026-03-29T16:13:50Z</time></trkpt><trkpt lat="45.48129932447737" lon="9.300390670790637"><ele>116.5</ele><time>2026-03-29T16:13:51Z</time></trkpt><trkpt lat="45.481440091728324" lon="9.300342670575732"><ele>116.75</ele><time>2026-03-29T16:13:52Z</time></trkpt><trkpt lat="45.48157868330269" lon="9.300296015968561"><ele>117.0</ele><time>2026-03-29T16:13:53Z</time></trkpt><trkpt lat="45.481708038654254" lon="9.300253113141979"><ele>117.0</ele><time>2026-03-29T16:13:54Z</time></trkpt><trkpt lat="45.48183337733442" lon="9.300210998443472"><ele>117.0</ele><time>2026-03-29T16:13:55Z</time></trkpt><trkpt lat="45.48195815691097" lon="9.300169139515212"><ele>117.0</ele><time>2026-03-29T16:13:56Z</time></trkpt><trkpt lat="45.48208363227428" lon="9.30012468170961"><ele>117.0</ele><time>2026-03-29T16:13:57Z</time></trkpt><trkpt lat="45.482213166183115" lon="9.300078041757669"><ele>116.75</ele><time>2026-03-29T16:13:57.999Z</time></trkpt><trkpt lat="45.48234645868739" lon="9.300028851085115"><ele>116.5</ele><time>2026-03-29T16:13:58.999Z</time></trkpt><trkpt lat="45.482481416423575" lon="9.299978404685211"><ele>116.25</ele><time>2026-03-29T16:13:59.999Z</time></trkpt><trkpt lat="45.48261050948921" lon="9.299927465182613"><ele>116.0</ele><time>2026-03-29T16:14:00.999Z</time></trkpt><trkpt lat="45.48273343440006" lon="9.299879847092905"><ele>116.0</ele><time>2026-03-29T16:14:01.999Z</time></trkpt><trkpt lat="45.48284750594856" lon="9.299835259880597"><ele>116.0</ele><time>2026-03-29T16:14:02.999Z</time></trkpt><trkpt lat="45.4829583154914" lon="9.299794041796446"><ele>116.0</ele><time>2026-03-29T16:14:03.999Z</time></trkpt><trkpt lat="45.48306261565508" lon="9.299752213887535"><ele>116.0</ele><time>2026-03-29T16:14:04.999Z</time></trkpt><trkpt lat="45.48316312380866" lon="9.299717824518432"><ele>116.0</ele><time>2026-03-29T16:14:05.999Z</time></trkpt><trkpt lat="45.48325465792944" lon="9.299686629105924"><ele>115.83333333333333</ele><time>2026-03-29T16:14:06.999Z</time></trkpt><trkpt lat="45.48334131520265" lon="9.299667063478964"><ele>115.66666666666666</ele><time>2026-03-29T16:14:07.999Z</time></trkpt><trkpt lat="45.483416145863416" lon="9.299655649013227"><ele>115.5</ele><time>2026-03-29T16:14:08.999Z</time></trkpt><trkpt lat="45.4834864229948" lon="9.299663301542692"><ele>115.33333333333334</ele><time>2026-03-29T16:14:09.999Z</time></trkpt><trkpt lat="45.483541011429956" lon="9.2997282299822"><ele>115.16666666666667</ele><time>2026-03-29T16:14:10.999Z</time></trkpt><trkpt lat="45.48360555466557" lon="9.299758872214452"><ele>115.0</ele><time>2026-03-29T16:14:11.999Z</time></trkpt><trkpt lat="45.48370080161048" lon="9.29975866928499"><ele>115.0</ele><time>2026-03-29T16:14:12.999Z</time></trkpt><trkpt lat="45.483749176546326" lon="9.299678215784581"><ele>115.0</ele><time>2026-03-29T16:14:13.999Z</time></trkpt><trkpt lat="45.4838134234717" lon="9.299588949908628"><ele>115.0</ele><time>2026-03-29T16:14:14.999Z</time></trkpt><trkpt lat="45.48389544264936" lon="9.299509237658084"><ele>115.0</ele><time>2026-03-29T16:14:15.999Z</time></trkpt><trkpt lat="45.483993139797" lon="9.2994325440556"><ele>115.0</ele><time>2026-03-29T16:14:16.999Z</time></trkpt><trkpt lat="45.48409126232934" lon="9.299364585653816"><ele>115.0</ele><time>2026-03-29T16:14:17.999Z</time></trkpt><trkpt lat="45.48420591362553" lon="9.299317154756206"><ele>115.0</ele><time>2026-03-29T16:14:18.999Z</time></trkpt><trkpt lat="45.48434733622907" lon="9.29928837285308"><ele>115.0</ele><time>2026-03-29T16:14:19.999Z</time></trkpt><trkpt lat="45.48450200784389" lon="9.299277129457032"><ele>115.0</ele><time>2026-03-29T16:14:20.999Z</time></trkpt><trkpt lat="45.484657883472025" lon="9.29927298654325"><ele>114.75</ele><time>2026-03-29T16:14:21.999Z</time></trkpt><trkpt lat="45.48479251469399" lon="9.299255632786705"><ele>114.5</ele><time>2026-03-29T16:14:22.999Z</time></trkpt><trkpt lat="45.48490580040407" lon="9.299228604249043"><ele>114.25</ele><time>2026-03-29T16:14:23.999Z</time></trkpt><trkpt lat="45.48500075522141" lon="9.29916875656073"><ele>114.0</ele><time>2026-03-29T16:14:24.999Z</time></trkpt><trkpt lat="45.48506858295437" lon="9.299051549029349"><ele>114.2</ele><time>2026-03-29T16:14:25.999Z</time></trkpt><trkpt lat="45.485119749671654" lon="9.298916750630308"><ele>114.4</ele><time>2026-03-29T16:14:26.999Z</time></trkpt><trkpt lat="45.485177898417156" lon="9.298810718231241"><ele>114.6</ele><time>2026-03-29T16:14:27.999Z</time></trkpt><trkpt lat="45.4852635811757" lon="9.29875444862869"><ele>114.8</ele><time>2026-03-29T16:14:28.999Z</time></trkpt><trkpt lat="45.485362801071496" lon="9.298731556520503"><ele>115.0</ele><time>2026-03-29T16:14:29.999Z</time></trkpt><trkpt lat="45.48547558582498" lon="9.298729554172713"><ele>115.0</ele><time>2026-03-29T16:14:30.999Z</time></trkpt><trkpt lat="45.48557373895196" lon="9.298738645681183"><ele>115.0</ele><time>2026-03-29T16:14:31.999Z</time></trkpt><trkpt lat="45.485659837930314" lon="9.298785369217454"><ele>115.0</ele><time>2026-03-29T16:14:32.999Z</time></trkpt><trkpt lat="45.48573322942473" lon="9.2988918570676"><ele>115.0</ele><time>2026-03-29T16:14:33.999Z</time></trkpt><trkpt lat="45.48580016741979" lon="9.298986718137824"><ele>115.0</ele><time>2026-03-29T16:14:34.999Z</time></trkpt><trkpt lat="45.48589217729567" lon="9.299029940789424"><ele>114.75</ele><time>2026-03-29T16:14:35.999Z</time></trkpt><trkpt lat="45.48600809417136" lon="9.299033544922468"><ele>114.5</ele><time>2026-03-29T16:14:36.999Z</time></trkpt><trkpt lat="45.48612632826396" lon="9.29900383710413"><ele>114.25</ele><time>2026-03-29T16:14:37.999Z</time></trkpt><trkpt lat="45.486259447083036" lon="9.298971130193653"><ele>114.0</ele><time>2026-03-29T16:14:38.999Z</time></trkpt><trkpt lat="45.48638903584319" lon="9.298937455876443"><ele>114.4</ele><time>2026-03-29T16:14:39.999Z</time></trkpt><trkpt lat="45.48650710527511" lon="9.298903575207007"><ele>114.80000000000001</ele><time>2026-03-29T16:14:40.999Z</time></trkpt><trkpt lat="45.48661307150051" lon="9.298875043130613"><ele>115.19999999999999</ele><time>2026-03-29T16:14:41.999Z</time></trkpt><trkpt lat="45.48671108161483" lon="9.298857952376046"><ele>115.6</ele><time>2026-03-29T16:14:42.999Z</time></trkpt><trkpt lat="45.48680330154371" lon="9.298844117934344"><ele>116.0</ele><time>2026-03-29T16:14:43.999Z</time></trkpt><trkpt lat="45.48689321496372" lon="9.298830908481387"><ele>115.99999999999999</ele><time>2026-03-29T16:14:44.999Z</time></trkpt><trkpt lat="45.4869765334498" lon="9.298808334539805"><ele>116.0</ele><time>2026-03-29T16:14:45.999Z</time></trkpt><trkpt lat="45.4870691124396" lon="9.298792472082761"><ele>116.0</ele><time>2026-03-29T16:14:46.999Z</time></trkpt><trkpt lat="45.48715999078926" lon="9.298776115245007"><ele>116.0</ele><time>2026-03-29T16:14:47.999Z</time></trkpt><trkpt lat="45.48724298093492" lon="9.298764601487532"><ele>115.99999999999999</ele><time>2026-03-29T16:14:48.999Z</time></trkpt><trkpt lat="45.487319499925285" lon="9.298757738954063"><ele>116.0</ele><time>2026-03-29T16:14:49.999Z</time></trkpt><trkpt lat="45.48739208073421" lon="9.298766577663187"><ele>116.14285714285717</ele><time>2026-03-29T16:14:50.999Z</time></trkpt><trkpt lat="45.48745875184048" lon="9.298785221335061"><ele>116.28571428571429</ele><time>2026-03-29T16:14:51.999Z</time></trkpt><trkpt lat="45.48752657164801" lon="9.298801296308724"><ele>116.42857142857144</ele><time>2026-03-29T16:14:52.999Z</time></trkpt><trkpt lat="45.4875910698513" lon="9.298817357818663"><ele>116.57142857142858</ele><time>2026-03-29T16:14:53.999Z</time></trkpt><trkpt lat="45.4876541848332" lon="9.298824646410168"><ele>116.71428571428572</ele><time>2026-03-29T16:14:55Z</time></trkpt><trkpt lat="45.48772066541818" lon="9.298802705838371"><ele>116.85714285714286</ele><time>2026-03-29T16:14:56Z</time></trkpt><trkpt lat="45.48779064785778" lon="9.29875809208342"><ele>117.0</ele><time>2026-03-29T16:14:57Z</time></trkpt><trkpt lat="45.48784353426179" lon="9.298684277404265"><ele>117.5</ele><time>2026-03-29T16:14:58Z</time></trkpt><trkpt lat="45.487933744741476" lon="9.298682936534618"><ele>118.0</ele><time>2026-03-29T16:14:59Z</time></trkpt><trkpt lat="45.48801679477709" lon="9.29866844985877"><ele>118.5</ele><time>2026-03-29T16:15:00Z</time></trkpt><trkpt lat="45.48810020022794" lon="9.298657761708792"><ele>119.0</ele><time>2026-03-29T16:15:01Z</time></trkpt><trkpt lat="45.48817707141877" lon="9.298650166415092"><ele>119.5</ele><time>2026-03-29T16:15:02Z</time></trkpt><trkpt lat="45.48824490606281" lon="9.298638821626744"><ele>120.0</ele><time>2026-03-29T16:15:03Z</time></trkpt><trkpt lat="45.48830962022969" lon="9.298632164580239"><ele>120.0</ele><time>2026-03-29T16:15:04Z</time></trkpt><trkpt lat="45.4883731697422" lon="9.298626642061677"><ele>120.0</ele><time>2026-03-29T16:15:05Z</time></trkpt><trkpt lat="45.48848981966272" lon="9.298620442093936"><ele>120.0</ele><time>2026-03-29T16:15:07Z</time></trkpt><trkpt lat="45.48862014582976" lon="9.298616580243102"><ele>120.0</ele><time>2026-03-29T16:15:09Z</time></trkpt><trkpt lat="45.48869778279161" lon="9.298607599008333"><ele>120.0</ele><time>2026-03-29T16:15:10Z</time></trkpt><trkpt lat="45.488784613269246" lon="9.298599416316865"><ele>120.16666666666667</ele><time>2026-03-29T16:15:11Z</time></trkpt><trkpt lat="45.4888693614089" lon="9.298595075135458"><ele>120.33333333333334</ele><time>2026-03-29T16:15:12Z</time></trkpt><trkpt lat="45.48895173334693" lon="9.298589441739708"><ele>120.5</ele><time>2026-03-29T16:15:13Z</time></trkpt><trkpt lat="45.48902622878928" lon="9.29858429256113"><ele>120.66666666666667</ele><time>2026-03-29T16:15:14Z</time></trkpt><trkpt lat="45.489105834579796" lon="9.2985825238135"><ele>120.83333333333334</ele><time>2026-03-29T16:15:15Z</time></trkpt><trkpt lat="45.48919335826427" lon="9.298579256740439"><ele>121.0</ele><time>2026-03-29T16:15:16Z</time></trkpt><trkpt lat="45.48928248039464" lon="9.29857741830441"><ele>121.00000000000001</ele><time>2026-03-29T16:15:17Z</time></trkpt><trkpt lat="45.4893679814725" lon="9.298576329825833"><ele>121.0</ele><time>2026-03-29T16:15:18Z</time></trkpt><trkpt lat="45.48945657756093" lon="9.298572303074984"><ele>121.0</ele><time>2026-03-29T16:15:19Z</time></trkpt><trkpt lat="45.489544971116736" lon="9.298565602645603"><ele>121.0</ele><time>2026-03-29T16:15:20Z</time></trkpt><trkpt lat="45.48962246653057" lon="9.298552947463236"><ele>121.00000000000001</ele><time>2026-03-29T16:15:21Z</time></trkpt><trkpt lat="45.48969863199507" lon="9.298539584555204"><ele>121.0</ele><time>2026-03-29T16:15:22Z</time></trkpt><trkpt lat="45.4897752457984" lon="9.298542320975947"><ele>121.0</ele><time>2026-03-29T16:15:23Z</time></trkpt><trkpt lat="45.48986307196093" lon="9.298546949588795"><ele>121.0</ele><time>2026-03-29T16:15:24Z</time></trkpt><trkpt lat="45.489967677796145" lon="9.298538997464126"><ele>121.0</ele><time>2026-03-29T16:15:25Z</time></trkpt><trkpt lat="45.490089060763694" lon="9.298500745544022"><ele>121.0</ele><time>2026-03-29T16:15:26Z</time></trkpt><trkpt lat="45.490226627371385" lon="9.298478980629092"><ele>121.0</ele><time>2026-03-29T16:15:27Z</time></trkpt><trkpt lat="45.49035915649094" lon="9.298480789418523"><ele>121.0</ele><time>2026-03-29T16:15:28Z</time></trkpt><trkpt lat="45.49048880900056" lon="9.298493033410422"><ele>121.0</ele><time>2026-03-29T16:15:29Z</time></trkpt><trkpt lat="45.490612993825316" lon="9.298503534695572"><ele>121.0</ele><time>2026-03-29T16:15:30Z</time></trkpt><trkpt lat="45.49073799613004" lon="9.298509421812305"><ele>120.5</ele><time>2026-03-29T16:15:31Z</time></trkpt><trkpt lat="45.49085958118393" lon="9.298523169021152"><ele>120.0</ele><time>2026-03-29T16:15:32Z</time></trkpt><trkpt lat="45.49097579504773" lon="9.298550225320879"><ele>119.5</ele><time>2026-03-29T16:15:33Z</time></trkpt><trkpt lat="45.49109794981468" lon="9.298597155573434"><ele>119.0</ele><time>2026-03-29T16:15:34Z</time></trkpt><trkpt lat="45.49121328947835" lon="9.298653821599665"><ele>119.25</ele><time>2026-03-29T16:15:35Z</time></trkpt><trkpt lat="45.49132588858659" lon="9.298717524319798"><ele>119.5</ele><time>2026-03-29T16:15:36Z</time></trkpt><trkpt lat="45.49144010531941" lon="9.298789868961022"><ele>119.75</ele><time>2026-03-29T16:15:37Z</time></trkpt><trkpt lat="45.49154726381545" lon="9.29886075826907"><ele>120.0</ele><time>2026-03-29T16:15:38Z</time></trkpt><trkpt lat="45.491654428001574" lon="9.298929941204339"><ele>120.0</ele><time>2026-03-29T16:15:39Z</time></trkpt><trkpt lat="45.49176348643777" lon="9.298997988276561"><ele>120.0</ele><time>2026-03-29T16:15:40Z</time></trkpt><trkpt lat="45.49186914328182" lon="9.299066421910712"><ele>120.0</ele><time>2026-03-29T16:15:41Z</time></trkpt><trkpt lat="45.49197802593488" lon="9.299135123208028"><ele>120.0</ele><time>2026-03-29T16:15:42Z</time></trkpt><trkpt lat="45.49208895451938" lon="9.299202609880936"><ele>119.75</ele><time>2026-03-29T16:15:43Z</time></trkpt><trkpt lat="45.492200827889405" lon="9.299270835149438"><ele>119.5</ele><time>2026-03-29T16:15:44Z</time></trkpt><trkpt lat="45.49230780385049" lon="9.29933864779093"><ele>119.25</ele><time>2026-03-29T16:15:45Z</time></trkpt><trkpt lat="45.49241542748294" lon="9.299409673962998"><ele>119.0</ele><time>2026-03-29T16:15:46Z</time></trkpt><trkpt lat="45.49252415569378" lon="9.299475170934251"><ele>119.0</ele><time>2026-03-29T16:15:47Z</time></trkpt><trkpt lat="45.49263608448732" lon="9.299528928095965"><ele>119.0</ele><time>2026-03-29T16:15:48Z</time></trkpt><trkpt lat="45.49275051119956" lon="9.299577134300398"><ele>119.0</ele><time>2026-03-29T16:15:49Z</time></trkpt><trkpt lat="45.492864419350184" lon="9.299617573584335"><ele>119.0</ele><time>2026-03-29T16:15:50Z</time></trkpt><trkpt lat="45.492984710146644" lon="9.299658172488293"><ele>119.25</ele><time>2026-03-29T16:15:51Z</time></trkpt><trkpt lat="45.49310470797707" lon="9.29969411005991"><ele>119.5</ele><time>2026-03-29T16:15:52Z</time></trkpt><trkpt lat="45.493226709060515" lon="9.299721126355443"><ele>119.75</ele><time>2026-03-29T16:15:53Z</time></trkpt><trkpt lat="45.493349732897045" lon="9.299739406091314"><ele>120.0</ele><time>2026-03-29T16:15:54Z</time></trkpt><trkpt lat="45.493465835686244" lon="9.299754166636944"><ele>119.75</ele><time>2026-03-29T16:15:55Z</time></trkpt><trkpt lat="45.49358357169609" lon="9.29976988648261"><ele>119.5</ele><time>2026-03-29T16:15:56Z</time></trkpt><trkpt lat="45.49370594900202" lon="9.299781729138935"><ele>119.25</ele><time>2026-03-29T16:15:57Z</time></trkpt><trkpt lat="45.49383338166233" lon="9.299784368173697"><ele>119.0</ele><time>2026-03-29T16:15:58Z</time></trkpt><trkpt lat="45.493972007227924" lon="9.29978745856927"><ele>119.0</ele><time>2026-03-29T16:15:59Z</time></trkpt><trkpt lat="45.494114228963525" lon="9.299798772900013"><ele>119.0</ele><time>2026-03-29T16:16:00Z</time></trkpt><trkpt lat="45.494262564677534" lon="9.2998092821841"><ele>119.0</ele><time>2026-03-29T16:16:01Z</time></trkpt><trkpt lat="45.49441212161916" lon="9.299816561518014"><ele>119.0</ele><time>2026-03-29T16:16:02Z</time></trkpt><trkpt lat="45.494571989141974" lon="9.299831750032093"><ele>119.0</ele><time>2026-03-29T16:16:03Z</time></trkpt><trkpt lat="45.494738356842475" lon="9.299842777892339"><ele>119.0</ele><time>2026-03-29T16:16:04Z</time></trkpt><trkpt lat="45.49490297338999" lon="9.299854003636229"><ele>119.0</ele><time>2026-03-29T16:16:05Z</time></trkpt><trkpt lat="45.495060989415" lon="9.299864717772781"><ele>119.0</ele><time>2026-03-29T16:16:06Z</time></trkpt><trkpt lat="45.49521128880481" lon="9.29987501684018"><ele>119.0</ele><time>2026-03-29T16:16:07Z</time></trkpt><trkpt lat="45.49535326399556" lon="9.299883661169245"><ele>119.0</ele><time>2026-03-29T16:16:08Z</time></trkpt><trkpt lat="45.49548663410742" lon="9.299894738263706"><ele>119.0</ele><time>2026-03-29T16:16:09Z</time></trkpt><trkpt lat="45.49561479305885" lon="9.299905417708917"><ele>119.75</ele><time>2026-03-29T16:16:10Z</time></trkpt><trkpt lat="45.49574112549209" lon="9.299919747039993"><ele>120.5</ele><time>2026-03-29T16:16:11Z</time></trkpt><trkpt lat="45.495863872894816" lon="9.299931689129384"><ele>121.25</ele><time>2026-03-29T16:16:11.999Z</time></trkpt><trkpt lat="45.49598786253723" lon="9.299941571506656"><ele>122.0</ele><time>2026-03-29T16:16:12.999Z</time></trkpt><trkpt lat="45.49611204230794" lon="9.299950418691973"><ele>122.0</ele><time>2026-03-29T16:16:13.999Z</time></trkpt><trkpt lat="45.496236485044655" lon="9.299958706889145"><ele>122.0</ele><time>2026-03-29T16:16:14.999Z</time></trkpt><trkpt lat="45.496366323024795" lon="9.29996801416796"><ele>122.0</ele><time>2026-03-29T16:16:15.999Z</time></trkpt><trkpt lat="45.496494178765815" lon="9.299966494732294"><ele>122.0</ele><time>2026-03-29T16:16:16.999Z</time></trkpt><trkpt lat="45.49662361672778" lon="9.299951559025507"><ele>121.75</ele><time>2026-03-29T16:16:17.999Z</time></trkpt><trkpt lat="45.496765943344734" lon="9.29991636924804"><ele>121.5</ele><time>2026-03-29T16:16:18.999Z</time></trkpt><trkpt lat="45.496895854347095" lon="9.299870634923748"><ele>121.25</ele><time>2026-03-29T16:16:19.999Z</time></trkpt><trkpt lat="45.49701476619927" lon="9.299815373272097"><ele>121.0</ele><time>2026-03-29T16:16:20.999Z</time></trkpt><trkpt lat="45.49712409242756" lon="9.299761832258886"><ele>121.0</ele><time>2026-03-29T16:16:21.999Z</time></trkpt><trkpt lat="45.49722958475348" lon="9.299717355598268"><ele>121.0</ele><time>2026-03-29T16:16:22.999Z</time></trkpt><trkpt lat="45.49733310340517" lon="9.299695014228572"><ele>121.0</ele><time>2026-03-29T16:16:23.999Z</time></trkpt><trkpt lat="45.497404997323116" lon="9.299659550368373"><ele>121.0</ele><time>2026-03-29T16:16:24.999Z</time></trkpt><trkpt lat="45.49745388927879" lon="9.299717747095258"><ele>121.0</ele><time>2026-03-29T16:16:26.999Z</time></trkpt><trkpt lat="45.49755070095006" lon="9.299784049440087"><ele>121.0</ele><time>2026-03-29T16:17:25Z</time></trkpt><trkpt lat="45.49760022306052" lon="9.299878490531073"><ele>121.0</ele><time>2026-03-29T16:17:26Z</time></trkpt><trkpt lat="45.49762136323584" lon="9.300010499489222"><ele>121.0</ele><time>2026-03-29T16:17:27Z</time></trkpt><trkpt lat="45.49764400053551" lon="9.300162720120467"><ele>121.0</ele><time>2026-03-29T16:17:28Z</time></trkpt><trkpt lat="45.497668112482" lon="9.300333949109865"><ele>121.0</ele><time>2026-03-29T16:17:29Z</time></trkpt><trkpt lat="45.49770627994371" lon="9.30052069413669"><ele>121.25</ele><time>2026-03-29T16:17:30Z</time></trkpt><trkpt lat="45.497739599369076" lon="9.300710523253445"><ele>121.5</ele><time>2026-03-29T16:17:31Z</time></trkpt><trkpt lat="45.49777108049384" lon="9.300847758652706"><ele>121.75</ele><time>2026-03-29T16:17:32Z</time></trkpt><trkpt lat="45.4977965365972" lon="9.300949339758832"><ele>122.0</ele><time>2026-03-29T16:17:33Z</time></trkpt><trkpt lat="45.49801373694951" lon="9.301015680826353"><ele>122.5</ele><time>2026-03-29T16:17:35Z</time></trkpt><trkpt lat="45.49814415393023" lon="9.301003487596399"><ele>123.0</ele><time>2026-03-29T16:17:36Z</time></trkpt><trkpt lat="45.49827910822507" lon="9.300976115199726"><ele>123.5</ele><time>2026-03-29T16:17:37Z</time></trkpt><trkpt lat="45.498400877519465" lon="9.300961050764593"><ele>124.0</ele><time>2026-03-29T16:17:38Z</time></trkpt><trkpt lat="45.498522331924555" lon="9.300953072063916"><ele>124.0</ele><time>2026-03-29T16:17:39Z</time></trkpt><trkpt lat="45.49863256079892" lon="9.300947460643487"><ele>124.0</ele><time>2026-03-29T16:17:40Z</time></trkpt><trkpt lat="45.498739353206894" lon="9.30095660076897"><ele>124.0</ele><time>2026-03-29T16:17:41Z</time></trkpt><trkpt lat="45.498839968198666" lon="9.300959145185391"><ele>124.0</ele><time>2026-03-29T16:17:42Z</time></trkpt><trkpt lat="45.49894185669984" lon="9.300972221948356"><ele>124.0</ele><time>2026-03-29T16:17:43Z</time></trkpt><trkpt lat="45.49903530524632" lon="9.30099103230017"><ele>124.0</ele><time>2026-03-29T16:17:44Z</time></trkpt><trkpt lat="45.499128240692016" lon="9.30102358068942"><ele>124.0</ele><time>2026-03-29T16:17:45Z</time></trkpt><trkpt lat="45.49920888847504" lon="9.301056623805016"><ele>124.0</ele><time>2026-03-29T16:17:46Z</time></trkpt><trkpt lat="45.49928884906839" lon="9.301109569463513"><ele>124.0</ele><time>2026-03-29T16:17:47Z</time></trkpt><trkpt lat="45.49936205671305" lon="9.30119816758886"><ele>124.0</ele><time>2026-03-29T16:17:48Z</time></trkpt><trkpt lat="45.4994209739716" lon="9.301302642249322"><ele>124.0</ele><time>2026-03-29T16:17:49Z</time></trkpt><trkpt lat="45.499489539968415" lon="9.301387452873664"><ele>124.0</ele><time>2026-03-29T16:17:50Z</time></trkpt><trkpt lat="45.49957291410212" lon="9.301420486141417"><ele>124.0</ele><time>2026-03-29T16:17:51Z</time></trkpt><trkpt lat="45.499662379919066" lon="9.301401135623818"><ele>124.0</ele><time>2026-03-29T16:17:52Z</time></trkpt><trkpt lat="45.49974063825284" lon="9.301336360016052"><ele>124.0</ele><time>2026-03-29T16:17:53Z</time></trkpt><trkpt lat="45.499808593475784" lon="9.301236912123215"><ele>124.0</ele><time>2026-03-29T16:17:54Z</time></trkpt><trkpt lat="45.499888963376065" lon="9.301158440553223"><ele>124.0</ele><time>2026-03-29T16:17:55Z</time></trkpt><trkpt lat="45.499985872119815" lon="9.301110536017287"><ele>124.0</ele><time>2026-03-29T16:17:56Z</time></trkpt><trkpt lat="45.50009544658344" lon="9.301068625846629"><ele>124.0</ele><time>2026-03-29T16:17:57Z</time></trkpt><trkpt lat="45.50021338920695" lon="9.301026433657782"><ele>124.0</ele><time>2026-03-29T16:17:58Z</time></trkpt><trkpt lat="45.500342513390414" lon="9.300983740926736"><ele>124.0</ele><time>2026-03-29T16:17:59Z</time></trkpt><trkpt lat="45.50048051559705" lon="9.300953073897208"><ele>124.0</ele><time>2026-03-29T16:18:00Z</time></trkpt><trkpt lat="45.50063195239233" lon="9.300936511950132"><ele>124.0</ele><time>2026-03-29T16:18:01Z</time></trkpt><trkpt lat="45.500796876553814" lon="9.300954684085841"><ele>124.0</ele><time>2026-03-29T16:18:02Z</time></trkpt><trkpt lat="45.500976052188705" lon="9.300938177775691"><ele>124.0</ele><time>2026-03-29T16:18:03Z</time></trkpt><trkpt lat="45.50115243029119" lon="9.300945103418911"><ele>124.0</ele><time>2026-03-29T16:18:04Z</time></trkpt><trkpt lat="45.5013381512965" lon="9.300953990978375"><ele>124.33333333333334</ele><time>2026-03-29T16:18:05Z</time></trkpt><trkpt lat="45.501526806551695" lon="9.30096189888018"><ele>124.66666666666666</ele><time>2026-03-29T16:18:06Z</time></trkpt><trkpt lat="45.501710576227865" lon="9.300961798773828"><ele>125.0</ele><time>2026-03-29T16:18:07Z</time></trkpt><trkpt lat="45.501898084085475" lon="9.300955088669257"><ele>124.66666666666666</ele><time>2026-03-29T16:18:08Z</time></trkpt><trkpt lat="45.50208856366158" lon="9.300948689095875"><ele>124.33333333333334</ele><time>2026-03-29T16:18:09Z</time></trkpt><trkpt lat="45.502284587663" lon="9.300942571621341"><ele>124.0</ele><time>2026-03-29T16:18:10Z</time></trkpt><trkpt lat="45.50248469023603" lon="9.30095566947357"><ele>124.0</ele><time>2026-03-29T16:18:11Z</time></trkpt><trkpt lat="45.502683093544405" lon="9.3009556694744"><ele>124.0</ele><time>2026-03-29T16:18:12Z</time></trkpt><trkpt lat="45.50286610640976" lon="9.30094496010217"><ele>124.0</ele><time>2026-03-29T16:18:13Z</time></trkpt><trkpt lat="45.5030345500444" lon="9.30095191722112"><ele>124.0</ele><time>2026-03-29T16:18:14Z</time></trkpt><trkpt lat="45.50319470638521" lon="9.300952615477069"><ele>124.0</ele><time>2026-03-29T16:18:15Z</time></trkpt><trkpt lat="45.503341585281724" lon="9.300956456082995"><ele>124.0</ele><time>2026-03-29T16:18:16Z</time></trkpt><trkpt lat="45.503464266852355" lon="9.300982033255647"><ele>124.0</ele><time>2026-03-29T16:18:17Z</time></trkpt><trkpt lat="45.50356823218123" lon="9.301048951218997"><ele>124.0</ele><time>2026-03-29T16:18:17.999Z</time></trkpt><trkpt lat="45.50365693125115" lon="9.301150150461186"><ele>124.0</ele><time>2026-03-29T16:18:18.999Z</time></trkpt><trkpt lat="45.503731724138774" lon="9.301245910808623"><ele>124.0</ele><time>2026-03-29T16:18:19.999Z</time></trkpt><trkpt lat="45.50381341701578" lon="9.30130500053116"><ele>124.0</ele><time>2026-03-29T16:18:20.999Z</time></trkpt><trkpt lat="45.50391058344484" lon="9.301283512776672"><ele>124.0</ele><time>2026-03-29T16:18:21.999Z</time></trkpt><trkpt lat="45.50401383214696" lon="9.301171731662079"><ele>124.25</ele><time>2026-03-29T16:18:22.999Z</time></trkpt><trkpt lat="45.50411665382278" lon="9.301069044112417"><ele>124.5</ele><time>2026-03-29T16:18:23.999Z</time></trkpt><trkpt lat="45.50424446702906" lon="9.300983018346013"><ele>124.75</ele><time>2026-03-29T16:18:24.999Z</time></trkpt><trkpt lat="45.50439031890257" lon="9.300954418877536"><ele>125.0</ele><time>2026-03-29T16:18:25.999Z</time></trkpt><trkpt lat="45.504540635681025" lon="9.300957448532786"><ele>125.0</ele><time>2026-03-29T16:18:26.999Z</time></trkpt><trkpt lat="45.504686524909964" lon="9.300961617260652"><ele>125.0</ele><time>2026-03-29T16:18:27.999Z</time></trkpt><trkpt lat="45.504838861214395" lon="9.300960927822954"><ele>125.0</ele><time>2026-03-29T16:18:28.999Z</time></trkpt><trkpt lat="45.504992660918866" lon="9.30096047149265"><ele>125.0</ele><time>2026-03-29T16:18:29.999Z</time></trkpt><trkpt lat="45.505148269504126" lon="9.300957676062087"><ele>125.0</ele><time>2026-03-29T16:18:30.999Z</time></trkpt><trkpt lat="45.50530348242244" lon="9.300956689065456"><ele>125.0</ele><time>2026-03-29T16:18:31.999Z</time></trkpt><trkpt lat="45.50545709138321" lon="9.300956017690819"><ele>125.0</ele><time>2026-03-29T16:18:32.999Z</time></trkpt><trkpt lat="45.50560975843898" lon="9.300960955599146"><ele>125.0</ele><time>2026-03-29T16:18:33.999Z</time></trkpt><trkpt lat="45.50576229234403" lon="9.300968489530709"><ele>125.0</ele><time>2026-03-29T16:18:34.999Z</time></trkpt><trkpt lat="45.505916574216165" lon="9.3009737012267"><ele>125.0</ele><time>2026-03-29T16:18:35.999Z</time></trkpt><trkpt lat="45.5060682583659" lon="9.300977765693972"><ele>125.0</ele><time>2026-03-29T16:18:36.999Z</time></trkpt><trkpt lat="45.50622165355229" lon="9.300984562883777"><ele>125.0</ele><time>2026-03-29T16:18:37.999Z</time></trkpt><trkpt lat="45.50636588329166" lon="9.300989519012992"><ele>125.0</ele><time>2026-03-29T16:18:38.999Z</time></trkpt><trkpt lat="45.50652454877854" lon="9.300986813451853"><ele>125.0</ele><time>2026-03-29T16:18:39.999Z</time></trkpt><trkpt lat="45.50668313454207" lon="9.300982909728525"><ele>125.0</ele><time>2026-03-29T16:18:40.999Z</time></trkpt><trkpt lat="45.50684185780778" lon="9.30097378576429"><ele>125.0</ele><time>2026-03-29T16:18:41.999Z</time></trkpt><trkpt lat="45.5070011542903" lon="9.30095742477317"><ele>125.66666666666666</ele><time>2026-03-29T16:18:42.999Z</time></trkpt><trkpt lat="45.50715947574461" lon="9.300940459084467"><ele>126.33333333333334</ele><time>2026-03-29T16:18:43.999Z</time></trkpt><trkpt lat="45.507315403957925" lon="9.300928059132735"><ele>127.0</ele><time>2026-03-29T16:18:44.999Z</time></trkpt><trkpt lat="45.50747412116466" lon="9.300910417895588"><ele>127.0</ele><time>2026-03-29T16:18:45.999Z</time></trkpt><trkpt lat="45.50763032714717" lon="9.300888878859842"><ele>127.0</ele><time>2026-03-29T16:18:46.999Z</time></trkpt><trkpt lat="45.507784289623835" lon="9.300866347235148"><ele>127.0</ele><time>2026-03-29T16:18:47.999Z</time></trkpt><trkpt lat="45.507933987482936" lon="9.300846116554254"><ele>126.25</ele><time>2026-03-29T16:18:48.999Z</time></trkpt><trkpt lat="45.50807448126827" lon="9.300827266147069"><ele>125.5</ele><time>2026-03-29T16:18:49.999Z</time></trkpt><trkpt lat="45.50820822596042" lon="9.300811445536665"><ele>124.75</ele><time>2026-03-29T16:18:50.999Z</time></trkpt><trkpt lat="45.50833640461998" lon="9.300797091629414"><ele>124.0</ele><time>2026-03-29T16:18:51.999Z</time></trkpt><trkpt lat="45.508459346052454" lon="9.300782407083462"><ele>124.0</ele><time>2026-03-29T16:18:52.999Z</time></trkpt><trkpt lat="45.50857565217175" lon="9.300770529865735"><ele>124.0</ele><time>2026-03-29T16:18:53.999Z</time></trkpt><trkpt lat="45.50868792727982" lon="9.300766218693001"><ele>124.0</ele><time>2026-03-29T16:18:54.999Z</time></trkpt><trkpt lat="45.508786195410664" lon="9.300781554200487"><ele>124.0</ele><time>2026-03-29T16:18:55.999Z</time></trkpt><trkpt lat="45.50887194002369" lon="9.300829184740417"><ele>124.0</ele><time>2026-03-29T16:18:56.999Z</time></trkpt><trkpt lat="45.50892643858073" lon="9.300925099142212"><ele>124.00000000000001</ele><time>2026-03-29T16:18:57.999Z</time></trkpt><trkpt lat="45.5089896207055" lon="9.301010013374723"><ele>124.0</ele><time>2026-03-29T16:18:58.999Z</time></trkpt><trkpt lat="45.509072465172345" lon="9.301074666438495"><ele>124.0</ele><time>2026-03-29T16:18:59.999Z</time></trkpt><trkpt lat="45.5091677292957" lon="9.301085445566939"><ele>124.0</ele><time>2026-03-29T16:19:00.999Z</time></trkpt><trkpt lat="45.509245907419846" lon="9.30106717940652"><ele>124.00000000000001</ele><time>2026-03-29T16:19:01.999Z</time></trkpt><trkpt lat="45.50931682280052" lon="9.30098814195228"><ele>124.0</ele><time>2026-03-29T16:19:02.999Z</time></trkpt><trkpt lat="45.5093790591195" lon="9.300915434114344"><ele>124.00000000000001</ele><time>2026-03-29T16:19:03.999Z</time></trkpt><trkpt lat="45.50943004801751" lon="9.30084119868732"><ele>124.0</ele><time>2026-03-29T16:19:04.999Z</time></trkpt><trkpt lat="45.50948210301627" lon="9.300769575846433"><ele>124.0</ele><time>2026-03-29T16:19:05.999Z</time></trkpt><trkpt lat="45.509548621373455" lon="9.300710834146711"><ele>124.0</ele><time>2026-03-29T16:19:07Z</time></trkpt><trkpt lat="45.5096310855085" lon="9.30067951717217"><ele>124.00000000000001</ele><time>2026-03-29T16:19:08Z</time></trkpt><trkpt lat="45.50971733659028" lon="9.300664819514429"><ele>124.0</ele><time>2026-03-29T16:19:09Z</time></trkpt><trkpt lat="45.50981600587972" lon="9.300652358798681"><ele>123.75</ele><time>2026-03-29T16:19:10Z</time></trkpt><trkpt lat="45.5099262210535" lon="9.30063587839686"><ele>123.5</ele><time>2026-03-29T16:19:11Z</time></trkpt><trkpt lat="45.5100492003901" lon="9.300622883744627"><ele>123.25</ele><time>2026-03-29T16:19:12Z</time></trkpt><trkpt lat="45.510170298472744" lon="9.300609591383118"><ele>123.0</ele><time>2026-03-29T16:19:13Z</time></trkpt><trkpt lat="45.5102911686365" lon="9.300596450934874"><ele>124.0</ele><time>2026-03-29T16:19:14Z</time></trkpt><trkpt lat="45.51041606629898" lon="9.300580884985383"><ele>125.0</ele><time>2026-03-29T16:19:15Z</time></trkpt><trkpt lat="45.51054443206684" lon="9.300567568132383"><ele>126.0</ele><time>2026-03-29T16:19:16Z</time></trkpt><trkpt lat="45.510675584011125" lon="9.300555545037714"><ele>127.0</ele><time>2026-03-29T16:19:17Z</time></trkpt><trkpt lat="45.510808576921114" lon="9.300547779881647"><ele>127.0</ele><time>2026-03-29T16:19:18Z</time></trkpt><trkpt lat="45.5109439108925" lon="9.300533707281602"><ele>127.0</ele><time>2026-03-29T16:19:19Z</time></trkpt><trkpt lat="45.51108120321262" lon="9.300517131449823"><ele>127.0</ele><time>2026-03-29T16:19:20Z</time></trkpt><trkpt lat="45.51122260604873" lon="9.300502425375022"><ele>127.0</ele><time>2026-03-29T16:19:21Z</time></trkpt><trkpt lat="45.511363458287775" lon="9.300492682211292"><ele>127.25</ele><time>2026-03-29T16:19:22Z</time></trkpt><trkpt lat="45.51150562530367" lon="9.300487276429259"><ele>127.5</ele><time>2026-03-29T16:19:23Z</time></trkpt><trkpt lat="45.511644009639376" lon="9.300475505845217"><ele>127.75</ele><time>2026-03-29T16:19:24Z</time></trkpt><trkpt lat="45.51177564207702" lon="9.30045715647978"><ele>128.0</ele><time>2026-03-29T16:19:25Z</time></trkpt><trkpt lat="45.51190762401581" lon="9.30044286981783"><ele>128.0</ele><time>2026-03-29T16:19:26Z</time></trkpt><trkpt lat="45.51203727688783" lon="9.300432785547654"><ele>128.0</ele><time>2026-03-29T16:19:27Z</time></trkpt><trkpt lat="45.51216653090152" lon="9.30042100070214"><ele>128.0</ele><time>2026-03-29T16:19:28Z</time></trkpt><trkpt lat="45.51229413870946" lon="9.30040782239647"><ele>128.0</ele><time>2026-03-29T16:19:29Z</time></trkpt><trkpt lat="45.51242029169306" lon="9.300391639772155"><ele>128.25</ele><time>2026-03-29T16:19:30Z</time></trkpt><trkpt lat="45.512546154701994" lon="9.300377276447879"><ele>128.5</ele><time>2026-03-29T16:19:31Z</time></trkpt><trkpt lat="45.512665421690535" lon="9.30036493401347"><ele>128.75</ele><time>2026-03-29T16:19:32Z</time></trkpt><trkpt lat="45.51277927923645" lon="9.30035185191732"><ele>129.0</ele><time>2026-03-29T16:19:33Z</time></trkpt><trkpt lat="45.51288483807666" lon="9.300338922780929"><ele>129.0</ele><time>2026-03-29T16:19:34Z</time></trkpt><trkpt lat="45.51299099911172" lon="9.3003237580964"><ele>129.0</ele><time>2026-03-29T16:19:35Z</time></trkpt><trkpt lat="45.51308737061669" lon="9.300322359367325"><ele>129.0</ele><time>2026-03-29T16:19:36Z</time></trkpt><trkpt lat="45.51319406013949" lon="9.300362900506151"><ele>129.0</ele><time>2026-03-29T16:19:38Z</time></trkpt><trkpt lat="45.513275613769856" lon="9.300441957046134"><ele>129.0</ele><time>2026-03-29T16:19:40Z</time></trkpt><trkpt lat="45.51334521716401" lon="9.300534760529157"><ele>129.0</ele><time>2026-03-29T16:19:42Z</time></trkpt><trkpt lat="45.513432879235175" lon="9.300634218330105"><ele>129.0</ele><time>2026-03-29T16:19:44Z</time></trkpt><trkpt lat="45.513507860266756" lon="9.300678019984753"><ele>129.0</ele><time>2026-03-29T16:19:46Z</time></trkpt><trkpt lat="45.51357803312108" lon="9.300584573791799"><ele>129.0</ele><time>2026-03-29T16:19:47Z</time></trkpt><trkpt lat="45.51362766800048" lon="9.300423514966045"><ele>129.0</ele><time>2026-03-29T16:19:49Z</time></trkpt><trkpt lat="45.51363019704605" lon="9.300328269304474"><ele>129.0</ele><time>2026-03-29T16:19:50Z</time></trkpt><trkpt lat="45.513614807252296" lon="9.300146214277285"><ele>129.0</ele><time>2026-03-29T16:19:52Z</time></trkpt><trkpt lat="45.51361175214554" lon="9.300035404197068"><ele>129.0</ele><time>2026-03-29T16:19:53Z</time></trkpt><trkpt lat="45.51361054101697" lon="9.299903149133417"><ele>129.0</ele><time>2026-03-29T16:19:54Z</time></trkpt><trkpt lat="45.51360893180029" lon="9.299756167066718"><ele>129.0</ele><time>2026-03-29T16:19:55Z</time></trkpt><trkpt lat="45.51360868182243" lon="9.299622289557895"><ele>129.0</ele><time>2026-03-29T16:19:56Z</time></trkpt><trkpt lat="45.51361015751723" lon="9.29950150426823"><ele>129.0</ele><time>2026-03-29T16:19:57Z</time></trkpt><trkpt lat="45.51362136101167" lon="9.299387892017199"><ele>129.0</ele><time>2026-03-29T16:19:58Z</time></trkpt><trkpt lat="45.51366365244107" lon="9.299281354876264"><ele>129.0</ele><time>2026-03-29T16:19:59Z</time></trkpt><trkpt lat="45.51373413870333" lon="9.299189244543651"><ele>129.0</ele><time>2026-03-29T16:20:00Z</time></trkpt><trkpt lat="45.513794178711976" lon="9.299076342646044"><ele>129.0</ele><time>2026-03-29T16:20:01Z</time></trkpt><trkpt lat="45.513940106706684" lon="9.299060100380808"><ele>129.0</ele><time>2026-03-29T16:20:02Z</time></trkpt><trkpt lat="45.51407274520827" lon="9.299044936695964"><ele>129.0</ele><time>2026-03-29T16:20:03Z</time></trkpt><trkpt lat="45.51421493956191" lon="9.299038690316118"><ele>129.0</ele><time>2026-03-29T16:20:04Z</time></trkpt><trkpt lat="45.51436966907484" lon="9.299020131309298"><ele>129.0</ele><time>2026-03-29T16:20:05Z</time></trkpt><trkpt lat="45.514520229024484" lon="9.298997339407736"><ele>129.66666666666666</ele><time>2026-03-29T16:20:06Z</time></trkpt><trkpt lat="45.51468165832308" lon="9.298975641764406"><ele>130.33333333333331</ele><time>2026-03-29T16:20:07Z</time></trkpt><trkpt lat="45.514849127702256" lon="9.29895649824665"><ele>131.0</ele><time>2026-03-29T16:20:08Z</time></trkpt><trkpt lat="45.51501960590288" lon="9.2989338386093"><ele>130.33333333333331</ele><time>2026-03-29T16:20:09Z</time></trkpt><trkpt lat="45.515191331634014" lon="9.298913562280267"><ele>129.66666666666666</ele><time>2026-03-29T16:20:10Z</time></trkpt><trkpt lat="45.51535980805504" lon="9.298894685992828"><ele>129.0</ele><time>2026-03-29T16:20:11Z</time></trkpt><trkpt lat="45.515516835302414" lon="9.298873889755596"><ele>129.0</ele><time>2026-03-29T16:20:12Z</time></trkpt><trkpt lat="45.51565012399646" lon="9.298848397951858"><ele>129.0</ele><time>2026-03-29T16:20:13Z</time></trkpt><trkpt lat="45.515776653884515" lon="9.29881921335589"><ele>129.0</ele><time>2026-03-29T16:20:14Z</time></trkpt><trkpt lat="45.51591498586946" lon="9.298793340320591"><ele>129.0</ele><time>2026-03-29T16:20:14.999Z</time></trkpt><trkpt lat="45.51606173041047" lon="9.298773827270505"><ele>129.0</ele><time>2026-03-29T16:20:15.999Z</time></trkpt><trkpt lat="45.516218668320334" lon="9.298763460271378"><ele>129.0</ele><time>2026-03-29T16:20:16.999Z</time></trkpt><trkpt lat="45.516380432875934" lon="9.29874931832076"><ele>129.0</ele><time>2026-03-29T16:20:17.999Z</time></trkpt><trkpt lat="45.51654186017703" lon="9.29871307291579"><ele>129.0</ele><time>2026-03-29T16:20:18.999Z</time></trkpt><trkpt lat="45.516703238610816" lon="9.29866463037681"><ele>129.0</ele><time>2026-03-29T16:20:19.999Z</time></trkpt><trkpt lat="45.516866016766016" lon="9.298610875045357"><ele>129.0</ele><time>2026-03-29T16:20:20.999Z</time></trkpt><trkpt lat="45.51702094051447" lon="9.2985590754313"><ele>129.33333333333334</ele><time>2026-03-29T16:20:21.999Z</time></trkpt><trkpt lat="45.517179562116965" lon="9.298502021146486"><ele>129.66666666666669</ele><time>2026-03-29T16:20:22.999Z</time></trkpt><trkpt lat="45.51734032397204" lon="9.298448630212768"><ele>130.0</ele><time>2026-03-29T16:20:23.999Z</time></trkpt><trkpt lat="45.51750367656723" lon="9.298391449062843"><ele>130.0</ele><time>2026-03-29T16:20:24.999Z</time></trkpt><trkpt lat="45.51767259844851" lon="9.298333094930818"><ele>130.0</ele><time>2026-03-29T16:20:25.999Z</time></trkpt><trkpt lat="45.517844077142854" lon="9.298273559282094"><ele>130.0</ele><time>2026-03-29T16:20:26.999Z</time></trkpt><trkpt lat="45.518018175095456" lon="9.298212566430985"><ele>130.0</ele><time>2026-03-29T16:20:27.999Z</time></trkpt><trkpt lat="45.51819586123626" lon="9.298148115284901"><ele>130.0</ele><time>2026-03-29T16:20:28.999Z</time></trkpt><trkpt lat="45.5183749058079" lon="9.298088697897315"><ele>130.0</ele><time>2026-03-29T16:20:29.999Z</time></trkpt><trkpt lat="45.51855526398813" lon="9.298028629790565"><ele>130.0</ele><time>2026-03-29T16:20:30.999Z</time></trkpt><trkpt lat="45.518735395187036" lon="9.297963901121314"><ele>130.0</ele><time>2026-03-29T16:20:31.999Z</time></trkpt><trkpt lat="45.518917160630835" lon="9.297897530495055"><ele>130.0</ele><time>2026-03-29T16:20:32.999Z</time></trkpt><trkpt lat="45.519097859586125" lon="9.297832879667133"><ele>130.0</ele><time>2026-03-29T16:20:33.999Z</time></trkpt><trkpt lat="45.519278956866025" lon="9.297765485014086"><ele>130.0</ele><time>2026-03-29T16:20:34.999Z</time></trkpt><trkpt lat="45.519461873950306" lon="9.29769640476849"><ele>130.0</ele><time>2026-03-29T16:20:35.999Z</time></trkpt><trkpt lat="45.519633771102995" lon="9.297632376803042"><ele>130.0</ele><time>2026-03-29T16:20:36.999Z</time></trkpt><trkpt lat="45.51979539609822" lon="9.297564815780479"><ele>130.0</ele><time>2026-03-29T16:20:37.999Z</time></trkpt><trkpt lat="45.519949968425465" lon="9.297497545461239"><ele>130.0</ele><time>2026-03-29T16:20:38.999Z</time></trkpt><trkpt lat="45.52009589027124" lon="9.297426364908626"><ele>130.0</ele><time>2026-03-29T16:20:39.999Z</time></trkpt><trkpt lat="45.520236227793035" lon="9.297348042577827"><ele>130.0</ele><time>2026-03-29T16:20:40.999Z</time></trkpt><trkpt lat="45.52037357458809" lon="9.297249237288007"><ele>130.0</ele><time>2026-03-29T16:20:41.999Z</time></trkpt><trkpt lat="45.52050643475445" lon="9.297122565483793"><ele>129.66666666666669</ele><time>2026-03-29T16:20:42.999Z</time></trkpt><trkpt lat="45.520628756926364" lon="9.296958506411054"><ele>129.33333333333334</ele><time>2026-03-29T16:20:43.999Z</time></trkpt><trkpt lat="45.52072893565785" lon="9.296760758542485"><ele>129.0</ele><time>2026-03-29T16:20:44.999Z</time></trkpt><trkpt lat="45.52081201806923" lon="9.2965426002115"><ele>129.25</ele><time>2026-03-29T16:20:45.999Z</time></trkpt><trkpt lat="45.52087295234795" lon="9.296329622694808"><ele>129.5</ele><time>2026-03-29T16:20:46.999Z</time></trkpt><trkpt lat="45.52093104351547" lon="9.296138288093543"><ele>129.75</ele><time>2026-03-29T16:20:47.999Z</time></trkpt><trkpt lat="45.52098630609562" lon="9.295955004519923"><ele>130.0</ele><time>2026-03-29T16:20:48.999Z</time></trkpt><trkpt lat="45.52103923261015" lon="9.295785575037995"><ele>130.0</ele><time>2026-03-29T16:20:49.999Z</time></trkpt><trkpt lat="45.52110558902198" lon="9.295637905134559"><ele>130.0</ele><time>2026-03-29T16:20:50.999Z</time></trkpt><trkpt lat="45.52120657055701" lon="9.295503048571934"><ele>130.0</ele><time>2026-03-29T16:20:51.999Z</time></trkpt><trkpt lat="45.52132574468804" lon="9.29536899777504"><ele>130.0</ele><time>2026-03-29T16:20:52.999Z</time></trkpt><trkpt lat="45.52144058503461" lon="9.295215277970376"><ele>130.0</ele><time>2026-03-29T16:20:53.999Z</time></trkpt><trkpt lat="45.521563557854826" lon="9.295052055059818"><ele>130.0</ele><time>2026-03-29T16:20:54.999Z</time></trkpt><trkpt lat="45.52167441361054" lon="9.294870045448398"><ele>130.0</ele><time>2026-03-29T16:20:55.999Z</time></trkpt><trkpt lat="45.52186865205435" lon="9.2948017484716"><ele>129.66666666666669</ele><time>2026-03-29T16:20:56.999Z</time></trkpt><trkpt lat="45.52203787111699" lon="9.294726988384998"><ele>129.33333333333334</ele><time>2026-03-29T16:20:57.999Z</time></trkpt><trkpt lat="45.52221732581866" lon="9.294665107702029"><ele>129.0</ele><time>2026-03-29T16:20:58.999Z</time></trkpt><trkpt lat="45.52239868365126" lon="9.294590696869806"><ele>129.33333333333334</ele><time>2026-03-29T16:20:59.999Z</time></trkpt><trkpt lat="45.52257531002616" lon="9.294504084789175"><ele>129.66666666666669</ele><time>2026-03-29T16:21:00.999Z</time></trkpt><trkpt lat="45.522750941962045" lon="9.29441820707993"><ele>130.0</ele><time>2026-03-29T16:21:01.999Z</time></trkpt><trkpt lat="45.522928312605124" lon="9.294336109522941"><ele>130.0</ele><time>2026-03-29T16:21:02.999Z</time></trkpt><trkpt lat="45.523105426921596" lon="9.294254309502648"><ele>130.0</ele><time>2026-03-29T16:21:03.999Z</time></trkpt><trkpt lat="45.523280610043635" lon="9.294173902799994"><ele>130.0</ele><time>2026-03-29T16:21:04.999Z</time></trkpt><trkpt lat="45.52345404153672" lon="9.294095391549924"><ele>130.0</ele><time>2026-03-29T16:21:05.999Z</time></trkpt><trkpt lat="45.52362175467299" lon="9.294020589557835"><ele>130.0</ele><time>2026-03-29T16:21:06.999Z</time></trkpt><trkpt lat="45.52378819627393" lon="9.293955598829347"><ele>130.0</ele><time>2026-03-29T16:21:07.999Z</time></trkpt><trkpt lat="45.52395131068706" lon="9.293897851060622"><ele>130.66666666666669</ele><time>2026-03-29T16:21:08.999Z</time></trkpt><trkpt lat="45.52411430077267" lon="9.293852474266"><ele>131.33333333333334</ele><time>2026-03-29T16:21:09.999Z</time></trkpt><trkpt lat="45.52427930148707" lon="9.293825459015995"><ele>132.0</ele><time>2026-03-29T16:21:10.999Z</time></trkpt><trkpt lat="45.524445432126754" lon="9.293813523105602"><ele>132.0</ele><time>2026-03-29T16:21:11.999Z</time></trkpt><trkpt lat="45.52461073889936" lon="9.293814063462614"><ele>132.0</ele><time>2026-03-29T16:21:13Z</time></trkpt><trkpt lat="45.52477567259581" lon="9.293820830259287"><ele>132.0</ele><time>2026-03-29T16:21:14Z</time></trkpt><trkpt lat="45.524940655367544" lon="9.293828905947793"><ele>132.0</ele><time>2026-03-29T16:21:15Z</time></trkpt><trkpt lat="45.52510275413386" lon="9.29383825480386"><ele>132.0</ele><time>2026-03-29T16:21:16Z</time></trkpt><trkpt lat="45.52525269807249" lon="9.293846851716363"><ele>132.0</ele><time>2026-03-29T16:21:17Z</time></trkpt><trkpt lat="45.52538721537809" lon="9.293866228992972"><ele>132.0</ele><time>2026-03-29T16:21:18Z</time></trkpt><trkpt lat="45.52550640291466" lon="9.29390895119366"><ele>131.5</ele><time>2026-03-29T16:21:19Z</time></trkpt><trkpt lat="45.52560931514496" lon="9.29398370859343"><ele>131.0</ele><time>2026-03-29T16:21:20Z</time></trkpt><trkpt lat="45.52569962708002" lon="9.294106685478043"><ele>130.5</ele><time>2026-03-29T16:21:21Z</time></trkpt><trkpt lat="45.525776082097856" lon="9.294271123019218"><ele>130.0</ele><time>2026-03-29T16:21:22Z</time></trkpt><trkpt lat="45.525824304841166" lon="9.29447159145321"><ele>130.0</ele><time>2026-03-29T16:21:23Z</time></trkpt><trkpt lat="45.52591776280629" lon="9.294636831262952"><ele>130.0</ele><time>2026-03-29T16:21:24Z</time></trkpt><trkpt lat="45.52598922425407" lon="9.294835463516323"><ele>130.0</ele><time>2026-03-29T16:21:25Z</time></trkpt><trkpt lat="45.526069268394664" lon="9.295030419098634"><ele>129.66666666666669</ele><time>2026-03-29T16:21:26Z</time></trkpt><trkpt lat="45.52603523227886" lon="9.295279251563503"><ele>129.33333333333334</ele><time>2026-03-29T16:21:27Z</time></trkpt><trkpt lat="45.52604088141264" lon="9.29550427570825"><ele>129.0</ele><time>2026-03-29T16:21:28Z</time></trkpt><trkpt lat="45.52605755184617" lon="9.2957227058005"><ele>129.66666666666666</ele><time>2026-03-29T16:21:29Z</time></trkpt><trkpt lat="45.52604990461876" lon="9.295945434674609"><ele>130.33333333333331</ele><time>2026-03-29T16:21:30Z</time></trkpt><trkpt lat="45.52604273857107" lon="9.296163653035746"><ele>131.0</ele><time>2026-03-29T16:21:31Z</time></trkpt><trkpt lat="45.52602665125081" lon="9.296383481032574"><ele>131.66666666666666</ele><time>2026-03-29T16:21:32Z</time></trkpt><trkpt lat="45.5260096940949" lon="9.296602609529884"><ele>132.33333333333334</ele><time>2026-03-29T16:21:33Z</time></trkpt><trkpt lat="45.525988330364626" lon="9.296821625171704"><ele>133.0</ele><time>2026-03-29T16:21:34Z</time></trkpt><trkpt lat="45.52598039992737" lon="9.297040011194111"><ele>132.66666666666669</ele><time>2026-03-29T16:21:35Z</time></trkpt><trkpt lat="45.52595700484006" lon="9.297255905892301"><ele>132.33333333333334</ele><time>2026-03-29T16:21:36Z</time></trkpt><trkpt lat="45.525958341075565" lon="9.297470815432575"><ele>132.0</ele><time>2026-03-29T16:21:37Z</time></trkpt><trkpt lat="45.52594925427226" lon="9.297683889605317"><ele>132.0</ele><time>2026-03-29T16:21:38Z</time></trkpt><trkpt lat="45.52595462873392" lon="9.297898999647085"><ele>132.0</ele><time>2026-03-29T16:21:39Z</time></trkpt><trkpt lat="45.525963352683426" lon="9.298111387920953"><ele>132.0</ele><time>2026-03-29T16:21:40Z</time></trkpt><trkpt lat="45.525971443878014" lon="9.298324151229185"><ele>132.0</ele><time>2026-03-29T16:21:41Z</time></trkpt><trkpt lat="45.525977417172186" lon="9.298536803452663"><ele>131.75</ele><time>2026-03-29T16:21:42Z</time></trkpt><trkpt lat="45.52598480645774" lon="9.298743640287364"><ele>131.5</ele><time>2026-03-29T16:21:43Z</time></trkpt><trkpt lat="45.52599161449166" lon="9.298945504491192"><ele>131.25</ele><time>2026-03-29T16:21:44Z</time></trkpt><trkpt lat="45.525995132631486" lon="9.299144406972328"><ele>131.0</ele><time>2026-03-29T16:21:45Z</time></trkpt><trkpt lat="45.52599707473479" lon="9.299341249592864"><ele>131.0</ele><time>2026-03-29T16:21:46Z</time></trkpt><trkpt lat="45.52599800588227" lon="9.299533185364412"><ele>131.0</ele><time>2026-03-29T16:21:47Z</time></trkpt><trkpt lat="45.52600321360012" lon="9.299725824462742"><ele>131.0</ele><time>2026-03-29T16:21:48Z</time></trkpt><trkpt lat="45.52600649960029" lon="9.299917222123483"><ele>131.0</ele><time>2026-03-29T16:21:49Z</time></trkpt><trkpt lat="45.52600884833989" lon="9.30010984383798"><ele>131.25</ele><time>2026-03-29T16:21:50Z</time></trkpt><trkpt lat="45.52601009115792" lon="9.30030500155186"><ele>131.5</ele><time>2026-03-29T16:21:51Z</time></trkpt><trkpt lat="45.52601255196123" lon="9.30050446572619"><ele>131.75</ele><time>2026-03-29T16:21:52Z</time></trkpt><trkpt lat="45.52601359412137" lon="9.300701333143769"><ele>132.0</ele><time>2026-03-29T16:21:53Z</time></trkpt><trkpt lat="45.52601333139741" lon="9.300899447574057"><ele>132.25</ele><time>2026-03-29T16:21:54Z</time></trkpt><trkpt lat="45.52601462610142" lon="9.301100698858523"><ele>132.5</ele><time>2026-03-29T16:21:55Z</time></trkpt><trkpt lat="45.52601393379478" lon="9.301302658455677"><ele>132.75</ele><time>2026-03-29T16:21:56Z</time></trkpt><trkpt lat="45.526012414378954" lon="9.301505182619035"><ele>133.0</ele><time>2026-03-29T16:21:57Z</time></trkpt><trkpt lat="45.52601103397673" lon="9.301707473739135"><ele>133.0</ele><time>2026-03-29T16:21:58Z</time></trkpt><trkpt lat="45.52601006230704" lon="9.30191227083067"><ele>133.0</ele><time>2026-03-29T16:21:59Z</time></trkpt><trkpt lat="45.52600811410862" lon="9.302118420809691"><ele>133.0</ele><time>2026-03-29T16:22:00Z</time></trkpt><trkpt lat="45.5260081033676" lon="9.302325649431564"><ele>133.0</ele><time>2026-03-29T16:22:01Z</time></trkpt><trkpt lat="45.52600770961672" lon="9.302525106002385"><ele>132.5</ele><time>2026-03-29T16:22:02Z</time></trkpt><trkpt lat="45.52600547172701" lon="9.302726461944731"><ele>132.0</ele><time>2026-03-29T16:22:03Z</time></trkpt><trkpt lat="45.526008402499926" lon="9.302930060877166"><ele>131.5</ele><time>2026-03-29T16:22:04Z</time></trkpt><trkpt lat="45.52601170009279" lon="9.303132730140776"><ele>131.0</ele><time>2026-03-29T16:22:05Z</time></trkpt><trkpt lat="45.52601257042612" lon="9.303335588997225"><ele>131.0</ele><time>2026-03-29T16:22:06Z</time></trkpt><trkpt lat="45.52601559639041" lon="9.303540315696294"><ele>131.0</ele><time>2026-03-29T16:22:07Z</time></trkpt><trkpt lat="45.52601549700243" lon="9.303745195019449"><ele>131.0</ele><time>2026-03-29T16:22:08Z</time></trkpt><trkpt lat="45.52601961128005" lon="9.303950433073162"><ele>131.0</ele><time>2026-03-29T16:22:09Z</time></trkpt><trkpt lat="45.526022195205094" lon="9.304156294390946"><ele>130.75</ele><time>2026-03-29T16:22:10Z</time></trkpt><trkpt lat="45.52602626853843" lon="9.304363744106594"><ele>130.5</ele><time>2026-03-29T16:22:11Z</time></trkpt><trkpt lat="45.52603436104476" lon="9.304568492185677"><ele>130.25</ele><time>2026-03-29T16:22:12Z</time></trkpt><trkpt lat="45.52604427225294" lon="9.304775279120422"><ele>130.0</ele><time>2026-03-29T16:22:13Z</time></trkpt><trkpt lat="45.52605170794457" lon="9.304980037778167"><ele>130.75</ele><time>2026-03-29T16:22:14Z</time></trkpt><trkpt lat="45.52605691285073" lon="9.305186066557004"><ele>131.5</ele><time>2026-03-29T16:22:15Z</time></trkpt><trkpt lat="45.526060926252576" lon="9.305392772698903"><ele>132.25</ele><time>2026-03-29T16:22:16Z</time></trkpt><trkpt lat="45.52606489624669" lon="9.305600434513549"><ele>133.0</ele><time>2026-03-29T16:22:17Z</time></trkpt><trkpt lat="45.52607048864106" lon="9.305808115263089"><ele>133.0</ele><time>2026-03-29T16:22:18Z</time></trkpt><trkpt lat="45.52607527429666" lon="9.306012596633803"><ele>133.0</ele><time>2026-03-29T16:22:19Z</time></trkpt><trkpt lat="45.52607894339067" lon="9.306218413214724"><ele>133.0</ele><time>2026-03-29T16:22:20Z</time></trkpt><trkpt lat="45.52608102826261" lon="9.306425601285634"><ele>133.0</ele><time>2026-03-29T16:22:21Z</time></trkpt><trkpt lat="45.526086598987746" lon="9.306634675302737"><ele>133.0</ele><time>2026-03-29T16:22:22Z</time></trkpt><trkpt lat="45.52609260522002" lon="9.306841271101943"><ele>133.0</ele><time>2026-03-29T16:22:23Z</time></trkpt><trkpt lat="45.52609904501327" lon="9.307049104951671"><ele>133.0</ele><time>2026-03-29T16:22:24Z</time></trkpt><trkpt lat="45.52610370175692" lon="9.307255007898105"><ele>133.0</ele><time>2026-03-29T16:22:24.999Z</time></trkpt><trkpt lat="45.52611204581458" lon="9.30746413512663"><ele>132.75</ele><time>2026-03-29T16:22:25.999Z</time></trkpt><trkpt lat="45.52611595948559" lon="9.307673896815182"><ele>132.5</ele><time>2026-03-29T16:22:26.999Z</time></trkpt><trkpt lat="45.52612130572153" lon="9.307884055940873"><ele>132.25</ele><time>2026-03-29T16:22:27.999Z</time></trkpt><trkpt lat="45.52612825553124" lon="9.308093652000043"><ele>132.0</ele><time>2026-03-29T16:22:28.999Z</time></trkpt><trkpt lat="45.526132559596455" lon="9.30830266851731"><ele>132.0</ele><time>2026-03-29T16:22:29.999Z</time></trkpt><trkpt lat="45.52613632940592" lon="9.30851082617151"><ele>132.0</ele><time>2026-03-29T16:22:30.999Z</time></trkpt><trkpt lat="45.526143638808236" lon="9.308718065253817"><ele>132.0</ele><time>2026-03-29T16:22:31.999Z</time></trkpt><trkpt lat="45.52614819853896" lon="9.30891920468381"><ele>132.0</ele><time>2026-03-29T16:22:32.999Z</time></trkpt><trkpt lat="45.52615112996156" lon="9.309119253876847"><ele>132.25</ele><time>2026-03-29T16:22:33.999Z</time></trkpt><trkpt lat="45.526157127658614" lon="9.309319301668419"><ele>132.5</ele><time>2026-03-29T16:22:34.999Z</time></trkpt><trkpt lat="45.526155923536194" lon="9.30951634163194"><ele>132.75</ele><time>2026-03-29T16:22:35.999Z</time></trkpt><trkpt lat="45.526162921682875" lon="9.30971837723374"><ele>133.0</ele><time>2026-03-29T16:22:36.999Z</time></trkpt><trkpt lat="45.52616780522982" lon="9.309908233016127"><ele>132.5</ele><time>2026-03-29T16:22:37.999Z</time></trkpt><trkpt lat="45.52617403954697" lon="9.310090440344775"><ele>132.0</ele><time>2026-03-29T16:22:38.999Z</time></trkpt><trkpt lat="45.52617922137659" lon="9.310265032122683"><ele>131.5</ele><time>2026-03-29T16:22:39.999Z</time></trkpt><trkpt lat="45.526181840536445" lon="9.310429334827486"><ele>131.0</ele><time>2026-03-29T16:22:40.999Z</time></trkpt><trkpt lat="45.52618062764977" lon="9.310585178500562"><ele>130.6</ele><time>2026-03-29T16:22:41.999Z</time></trkpt><trkpt lat="45.526172602317516" lon="9.31073443612488"><ele>130.2</ele><time>2026-03-29T16:22:42.999Z</time></trkpt><trkpt lat="45.526158210886145" lon="9.310874149066805"><ele>129.8</ele><time>2026-03-29T16:22:43.999Z</time></trkpt><trkpt lat="45.52614366354469" lon="9.311010885058332"><ele>129.4</ele><time>2026-03-29T16:22:44.999Z</time></trkpt><trkpt lat="45.52614544949522" lon="9.311122566738224"><ele>129.0</ele><time>2026-03-29T16:22:45.999Z</time></trkpt><trkpt lat="45.52615864337842" lon="9.311224534223111"><ele>129.2</ele><time>2026-03-29T16:22:46.999Z</time></trkpt><trkpt lat="45.526291102291346" lon="9.311247510425511"><ele>129.4</ele><time>2026-03-29T16:22:48.999Z</time></trkpt><trkpt lat="45.52636334667009" lon="9.311160221053171"><ele>129.6</ele><time>2026-03-29T16:22:50.999Z</time></trkpt><trkpt lat="45.52639788567973" lon="9.311060969015637"><ele>129.8</ele><time>2026-03-29T16:22:51.999Z</time></trkpt><trkpt lat="45.526496412876675" lon="9.310997993216645"><ele>130.0</ele><time>2026-03-29T16:22:52.999Z</time></trkpt><trkpt lat="45.526562211977534" lon="9.310885608041268"><ele>130.0</ele><time>2026-03-29T16:22:53.999Z</time></trkpt><trkpt lat="45.52670161731688" lon="9.310874384046684"><ele>130.0</ele><time>2026-03-29T16:22:54.999Z</time></trkpt><trkpt lat="45.52682190110171" lon="9.310811349027858"><ele>130.0</ele><time>2026-03-29T16:22:55.999Z</time></trkpt><trkpt lat="45.526942400242184" lon="9.31074347185778"><ele>130.0</ele><time>2026-03-29T16:22:56.999Z</time></trkpt><trkpt lat="45.52706215128092" lon="9.310663586224837"><ele>131.0</ele><time>2026-03-29T16:22:57.999Z</time></trkpt><trkpt lat="45.527192006071864" lon="9.310582542296535"><ele>132.0</ele><time>2026-03-29T16:22:58.999Z</time></trkpt><trkpt lat="45.52731975964322" lon="9.310505784658273"><ele>133.0</ele><time>2026-03-29T16:22:59.999Z</time></trkpt><trkpt lat="45.52744837876777" lon="9.310426057152974"><ele>134.0</ele><time>2026-03-29T16:23:00.999Z</time></trkpt><trkpt lat="45.52757675680725" lon="9.310346383172517"><ele>134.0</ele><time>2026-03-29T16:23:01.999Z</time></trkpt><trkpt lat="45.527703510107386" lon="9.31027211035246"><ele>134.0</ele><time>2026-03-29T16:23:02.999Z</time></trkpt><trkpt lat="45.527829255837645" lon="9.310196887002483"><ele>134.0</ele><time>2026-03-29T16:23:03.999Z</time></trkpt><trkpt lat="45.52794644448318" lon="9.310119657495255"><ele>134.0</ele><time>2026-03-29T16:23:04.999Z</time></trkpt><trkpt lat="45.52806350745634" lon="9.310035739989988"><ele>133.5</ele><time>2026-03-29T16:23:05.999Z</time></trkpt><trkpt lat="45.52817816468673" lon="9.309943133679383"><ele>133.0</ele><time>2026-03-29T16:23:06.999Z</time></trkpt><trkpt lat="45.5282896199035" lon="9.309847713998007"><ele>132.5</ele><time>2026-03-29T16:23:07.999Z</time></trkpt><trkpt lat="45.52840109130015" lon="9.309761100034835"><ele>132.0</ele><time>2026-03-29T16:23:08.999Z</time></trkpt><trkpt lat="45.528516482439805" lon="9.309681024136882"><ele>132.0</ele><time>2026-03-29T16:23:09.999Z</time></trkpt><trkpt lat="45.52863797495384" lon="9.309609649105271"><ele>132.0</ele><time>2026-03-29T16:23:10.999Z</time></trkpt><trkpt lat="45.52876411960012" lon="9.309549551000483"><ele>132.0</ele><time>2026-03-29T16:23:11.999Z</time></trkpt><trkpt lat="45.528893143145545" lon="9.30949893785458"><ele>132.0</ele><time>2026-03-29T16:23:12.999Z</time></trkpt><trkpt lat="45.529024218009056" lon="9.30945853664369"><ele>132.0</ele><time>2026-03-29T16:23:13.999Z</time></trkpt><trkpt lat="45.52915948200645" lon="9.309424578898037"><ele>132.0</ele><time>2026-03-29T16:23:14.999Z</time></trkpt><trkpt lat="45.529294475196544" lon="9.309394964072299"><ele>132.0</ele><time>2026-03-29T16:23:15.999Z</time></trkpt><trkpt lat="45.52942455940691" lon="9.309368530230818"><ele>132.0</ele><time>2026-03-29T16:23:16.999Z</time></trkpt><trkpt lat="45.52955396453852" lon="9.309340738026252"><ele>132.5</ele><time>2026-03-29T16:23:17.999Z</time></trkpt><trkpt lat="45.5296899723247" lon="9.309315030996185"><ele>133.0</ele><time>2026-03-29T16:23:19Z</time></trkpt><trkpt lat="45.529822154288475" lon="9.309277550847316"><ele>133.5</ele><time>2026-03-29T16:23:20Z</time></trkpt><trkpt lat="45.52995020530717" lon="9.309221701502885"><ele>134.0</ele><time>2026-03-29T16:23:21Z</time></trkpt><trkpt lat="45.530077257859745" lon="9.30915064523262"><ele>134.0</ele><time>2026-03-29T16:23:22Z</time></trkpt><trkpt lat="45.53020144158573" lon="9.309070686527205"><ele>134.0</ele><time>2026-03-29T16:23:23Z</time></trkpt><trkpt lat="45.53031840072346" lon="9.308978347594945"><ele>134.0</ele><time>2026-03-29T16:23:24Z</time></trkpt><trkpt lat="45.53043303253536" lon="9.308884895150806"><ele>134.0</ele><time>2026-03-29T16:23:25Z</time></trkpt><trkpt lat="45.53054832490536" lon="9.30879015382688"><ele>133.25</ele><time>2026-03-29T16:23:26Z</time></trkpt><trkpt lat="45.530668103916625" lon="9.308696300286128"><ele>132.5</ele><time>2026-03-29T16:23:27Z</time></trkpt><trkpt lat="45.53078675859149" lon="9.308600016195252"><ele>131.75</ele><time>2026-03-29T16:23:28Z</time></trkpt><trkpt lat="45.53090621540386" lon="9.30849680673622"><ele>131.0</ele><time>2026-03-29T16:23:29Z</time></trkpt><trkpt lat="45.53102341578668" lon="9.308384782061717"><ele>131.0</ele><time>2026-03-29T16:23:30Z</time></trkpt><trkpt lat="45.53114030303851" lon="9.30826884500302"><ele>131.0</ele><time>2026-03-29T16:23:31Z</time></trkpt><trkpt lat="45.53126058326687" lon="9.308155454988613"><ele>131.0</ele><time>2026-03-29T16:23:32Z</time></trkpt><trkpt lat="45.53138024351792" lon="9.308047012951711"><ele>131.0</ele><time>2026-03-29T16:23:33Z</time></trkpt><trkpt lat="45.531499350112384" lon="9.307944815526124"><ele>132.25</ele><time>2026-03-29T16:23:34Z</time></trkpt><trkpt lat="45.53162209144703" lon="9.307845803027181"><ele>133.5</ele><time>2026-03-29T16:23:35Z</time></trkpt><trkpt lat="45.531756574112954" lon="9.307745972366485"><ele>134.75</ele><time>2026-03-29T16:23:36Z</time></trkpt><trkpt lat="45.531891146823924" lon="9.307649483936071"><ele>136.0</ele><time>2026-03-29T16:23:37Z</time></trkpt><trkpt lat="45.532025176515916" lon="9.307560777039983"><ele>136.25</ele><time>2026-03-29T16:23:38Z</time></trkpt><trkpt lat="45.532160538913196" lon="9.30748740883868"><ele>136.5</ele><time>2026-03-29T16:23:39Z</time></trkpt><trkpt lat="45.532301455549984" lon="9.307425032193764"><ele>136.75</ele><time>2026-03-29T16:23:40Z</time></trkpt><trkpt lat="45.53244510508867" lon="9.307375206903172"><ele>137.0</ele><time>2026-03-29T16:23:41Z</time></trkpt><trkpt lat="45.5325933539732" lon="9.307331358288723"><ele>137.0</ele><time>2026-03-29T16:23:42Z</time></trkpt><trkpt lat="45.53274025134967" lon="9.30728301128679"><ele>137.0</ele><time>2026-03-29T16:23:43Z</time></trkpt><trkpt lat="45.532881391756916" lon="9.307234344618687"><ele>137.0</ele><time>2026-03-29T16:23:44Z</time></trkpt><trkpt lat="45.5330255777184" lon="9.307182987026183"><ele>137.0</ele><time>2026-03-29T16:23:45Z</time></trkpt><trkpt lat="45.533168922175214" lon="9.307129269603122"><ele>135.66666666666666</ele><time>2026-03-29T16:23:46Z</time></trkpt><trkpt lat="45.53330966078189" lon="9.3070598150299"><ele>134.33333333333334</ele><time>2026-03-29T16:23:47Z</time></trkpt><trkpt lat="45.533448332366326" lon="9.306979114290332"><ele>133.0</ele><time>2026-03-29T16:23:48Z</time></trkpt><trkpt lat="45.53358875058017" lon="9.306890800480007"><ele>133.66666666666669</ele><time>2026-03-29T16:23:49Z</time></trkpt><trkpt lat="45.5337310238311" lon="9.306803406747113"><ele>134.33333333333334</ele><time>2026-03-29T16:23:50Z</time></trkpt><trkpt lat="45.53387423211775" lon="9.306720158611405"><ele>135.0</ele><time>2026-03-29T16:23:51Z</time></trkpt><trkpt lat="45.53401740489917" lon="9.306635371732067"><ele>135.0</ele><time>2026-03-29T16:23:52Z</time></trkpt><trkpt lat="45.534158143213574" lon="9.306546084690986"><ele>135.0</ele><time>2026-03-29T16:23:53Z</time></trkpt><trkpt lat="45.534298162061646" lon="9.306459273372209"><ele>135.0</ele><time>2026-03-29T16:23:54Z</time></trkpt><trkpt lat="45.53443301916404" lon="9.306373466638062"><ele>135.5</ele><time>2026-03-29T16:23:55Z</time></trkpt><trkpt lat="45.53456804621292" lon="9.306287373119684"><ele>136.0</ele><time>2026-03-29T16:23:56Z</time></trkpt><trkpt lat="45.534700222446624" lon="9.306199413614985"><ele>136.5</ele><time>2026-03-29T16:23:57Z</time></trkpt><trkpt lat="45.534826806293914" lon="9.306109730847545"><ele>137.0</ele><time>2026-03-29T16:23:58Z</time></trkpt><trkpt lat="45.534948968568045" lon="9.30601910933617"><ele>137.0</ele><time>2026-03-29T16:23:59Z</time></trkpt><trkpt lat="45.53505382406327" lon="9.305940996428001"><ele>137.0</ele><time>2026-03-29T16:24:00Z</time></trkpt><trkpt lat="45.53514554876229" lon="9.305872983577107"><ele>137.0</ele><time>2026-03-29T16:24:01Z</time></trkpt><trkpt lat="45.53524394584467" lon="9.305796912846027"><ele>137.0</ele><time>2026-03-29T16:24:02Z</time></trkpt><trkpt lat="45.53535364795649" lon="9.305706944440095"><ele>137.0</ele><time>2026-03-29T16:24:03Z</time></trkpt><trkpt lat="45.53547043317134" lon="9.305623840979091"><ele>137.0</ele><time>2026-03-29T16:24:04Z</time></trkpt><trkpt lat="45.535594775038625" lon="9.305552760353644"><ele>137.0</ele><time>2026-03-29T16:24:05Z</time></trkpt><trkpt lat="45.535727600303154" lon="9.305492440401482"><ele>137.0</ele><time>2026-03-29T16:24:06Z</time></trkpt><trkpt lat="45.53586887488877" lon="9.305445808866391"><ele>137.33333333333331</ele><time>2026-03-29T16:24:07Z</time></trkpt><trkpt lat="45.5360158999671" lon="9.305407004777129"><ele>137.66666666666666</ele><time>2026-03-29T16:24:08Z</time></trkpt><trkpt lat="45.53616544318094" lon="9.305375532516328"><ele>138.0</ele><time>2026-03-29T16:24:09Z</time></trkpt><trkpt lat="45.53631349698762" lon="9.305343420620636"><ele>138.0</ele><time>2026-03-29T16:24:10Z</time></trkpt><trkpt lat="45.536450880677876" lon="9.305312591260499"><ele>138.0</ele><time>2026-03-29T16:24:11Z</time></trkpt><trkpt lat="45.5365845964832" lon="9.30528574888161"><ele>138.0</ele><time>2026-03-29T16:24:12Z</time></trkpt><trkpt lat="45.53670554013918" lon="9.30526171332654"><ele>138.0</ele><time>2026-03-29T16:24:13Z</time></trkpt><trkpt lat="45.53681333905256" lon="9.305239698304876"><ele>138.0</ele><time>2026-03-29T16:24:14Z</time></trkpt><trkpt lat="45.53691114342416" lon="9.30523406573331"><ele>138.0</ele><time>2026-03-29T16:24:15Z</time></trkpt><trkpt lat="45.537004731469686" lon="9.305260705686916"><ele>138.0</ele><time>2026-03-29T16:24:16Z</time></trkpt><trkpt lat="45.537070180659015" lon="9.30522695547049"><ele>138.0</ele><time>2026-03-29T16:24:17Z</time></trkpt><trkpt lat="45.53713370705583" lon="9.305470858161657"><ele>138.0</ele><time>2026-03-29T16:24:18Z</time></trkpt><trkpt lat="45.53715364853142" lon="9.305626528137108"><ele>136.75</ele><time>2026-03-29T16:24:19Z</time></trkpt><trkpt lat="45.53715772129104" lon="9.305797912951222"><ele>135.5</ele><time>2026-03-29T16:24:20Z</time></trkpt><trkpt lat="45.53717236752529" lon="9.305979460633756"><ele>134.25</ele><time>2026-03-29T16:24:21Z</time></trkpt><trkpt lat="45.53721851564305" lon="9.306160759357299"><ele>133.0</ele><time>2026-03-29T16:24:22Z</time></trkpt><trkpt lat="45.53729591429938" lon="9.306319013296548"><ele>133.5</ele><time>2026-03-29T16:24:23Z</time></trkpt><trkpt lat="45.53740141346444" lon="9.3064473500142"><ele>134.0</ele><time>2026-03-29T16:24:24Z</time></trkpt><trkpt lat="45.537529706022" lon="9.30653197754712"><ele>134.5</ele><time>2026-03-29T16:24:25Z</time></trkpt><trkpt lat="45.53766787137583" lon="9.30657401756483"><ele>135.0</ele><time>2026-03-29T16:24:26Z</time></trkpt><trkpt lat="45.537799515104" lon="9.306569832874708"><ele>134.5</ele><time>2026-03-29T16:24:27Z</time></trkpt><trkpt lat="45.53792032365449" lon="9.306566525154153"><ele>134.0</ele><time>2026-03-29T16:24:28Z</time></trkpt><trkpt lat="45.538037119520425" lon="9.306611040093559"><ele>133.5</ele><time>2026-03-29T16:24:29Z</time></trkpt><trkpt lat="45.53815882252245" lon="9.306704440676953"><ele>133.0</ele><time>2026-03-29T16:24:30Z</time></trkpt><trkpt lat="45.5382632756567" lon="9.306835542492498"><ele>133.0</ele><time>2026-03-29T16:24:31Z</time></trkpt><trkpt lat="45.538336435043924" lon="9.306998809546075"><ele>133.0</ele><time>2026-03-29T16:24:31.999Z</time></trkpt><trkpt lat="45.538388659202624" lon="9.30718801605131"><ele>133.0</ele><time>2026-03-29T16:24:32.999Z</time></trkpt><trkpt lat="45.53841936993076" lon="9.307399703812264"><ele>133.0</ele><time>2026-03-29T16:24:33.999Z</time></trkpt><trkpt lat="45.538441024060056" lon="9.307623812723227"><ele>134.33333333333334</ele><time>2026-03-29T16:24:34.999Z</time></trkpt><trkpt lat="45.53846630081029" lon="9.307862692241585"><ele>135.66666666666666</ele><time>2026-03-29T16:24:35.999Z</time></trkpt><trkpt lat="45.538495849192735" lon="9.308112005860677"><ele>137.0</ele><time>2026-03-29T16:24:36.999Z</time></trkpt><trkpt lat="45.538523799076074" lon="9.308372832901295"><ele>137.33333333333331</ele><time>2026-03-29T16:24:37.999Z</time></trkpt><trkpt lat="45.53855298312005" lon="9.308631599671553"><ele>137.66666666666666</ele><time>2026-03-29T16:24:38.999Z</time></trkpt><trkpt lat="45.538586458926204" lon="9.308903802150661"><ele>138.0</ele><time>2026-03-29T16:24:39.999Z</time></trkpt><trkpt lat="45.53862195962061" lon="9.309182245174664"><ele>137.66666666666666</ele><time>2026-03-29T16:24:40.999Z</time></trkpt><trkpt lat="45.53865764524661" lon="9.309468501862238"><ele>137.33333333333331</ele><time>2026-03-29T16:24:41.999Z</time></trkpt><trkpt lat="45.538693053757115" lon="9.309760307219129"><ele>137.0</ele><time>2026-03-29T16:24:42.999Z</time></trkpt><trkpt lat="45.53872624387255" lon="9.310050384307052"><ele>137.0</ele><time>2026-03-29T16:24:43.999Z</time></trkpt><trkpt lat="45.5387601171645" lon="9.310342012136498"><ele>137.0</ele><time>2026-03-29T16:24:44.999Z</time></trkpt><trkpt lat="45.53878922602953" lon="9.310632992281938"><ele>137.0</ele><time>2026-03-29T16:24:45.999Z</time></trkpt><trkpt lat="45.53882044389624" lon="9.31093083879592"><ele>136.33333333333331</ele><time>2026-03-29T16:24:46.999Z</time></trkpt><trkpt lat="45.53885668288792" lon="9.311229082566086"><ele>135.66666666666666</ele><time>2026-03-29T16:24:47.999Z</time></trkpt><trkpt lat="45.538898454345095" lon="9.31152640704522"><ele>135.0</ele><time>2026-03-29T16:24:48.999Z</time></trkpt><trkpt lat="45.538943324984906" lon="9.311825200400003"><ele>135.0</ele><time>2026-03-29T16:24:49.999Z</time></trkpt><trkpt lat="45.53899607132961" lon="9.312124966583768"><ele>135.0</ele><time>2026-03-29T16:24:50.999Z</time></trkpt><trkpt lat="45.539060352958664" lon="9.312418834122651"><ele>135.0</ele><time>2026-03-29T16:24:51.999Z</time></trkpt><trkpt lat="45.539135733356986" lon="9.312710017522434"><ele>135.0</ele><time>2026-03-29T16:24:52.999Z</time></trkpt><trkpt lat="45.539218999012405" lon="9.31299660797211"><ele>135.0</ele><time>2026-03-29T16:24:53.999Z</time></trkpt><trkpt lat="45.53931192077265" lon="9.313278679892727"><ele>135.0</ele><time>2026-03-29T16:24:54.999Z</time></trkpt><trkpt lat="45.53941578330322" lon="9.313554660740827"><ele>135.0</ele><time>2026-03-29T16:24:55.999Z</time></trkpt><trkpt lat="45.53952403311617" lon="9.313822988640558"><ele>135.0</ele><time>2026-03-29T16:24:56.999Z</time></trkpt><trkpt lat="45.53964494182888" lon="9.314086479468518"><ele>135.0</ele><time>2026-03-29T16:24:57.999Z</time></trkpt><trkpt lat="45.539776217700364" lon="9.314337893553095"><ele>135.0</ele><time>2026-03-29T16:24:58.999Z</time></trkpt><trkpt lat="45.53991288285745" lon="9.31458529961015"><ele>135.0</ele><time>2026-03-29T16:24:59.999Z</time></trkpt><trkpt lat="45.54005545205506" lon="9.314820136242558"><ele>135.0</ele><time>2026-03-29T16:25:00.999Z</time></trkpt><trkpt lat="45.54020554622822" lon="9.315041285204055"><ele>135.33333333333334</ele><time>2026-03-29T16:25:01.999Z</time></trkpt><trkpt lat="45.54036331892647" lon="9.315247691336339"><ele>135.66666666666669</ele><time>2026-03-29T16:25:02.999Z</time></trkpt><trkpt lat="45.540528634860756" lon="9.315443755293401"><ele>136.0</ele><time>2026-03-29T16:25:03.999Z</time></trkpt><trkpt lat="45.54069771121457" lon="9.315628740151016"><ele>136.0</ele><time>2026-03-29T16:25:04.999Z</time></trkpt><trkpt lat="45.540870799539256" lon="9.31579765061066"><ele>136.0</ele><time>2026-03-29T16:25:05.999Z</time></trkpt><trkpt lat="45.541047921571206" lon="9.31595696983786"><ele>136.0</ele><time>2026-03-29T16:25:06.999Z</time></trkpt><trkpt lat="45.54122926023127" lon="9.316108112783745"><ele>136.33333333333334</ele><time>2026-03-29T16:25:07.999Z</time></trkpt><trkpt lat="45.54141593757916" lon="9.316247760570333"><ele>136.66666666666666</ele><time>2026-03-29T16:25:08.999Z</time></trkpt><trkpt lat="45.54160485073877" lon="9.316380639422785"><ele>137.0</ele><time>2026-03-29T16:25:09.999Z</time></trkpt><trkpt lat="45.541795733291615" lon="9.316508565643629"><ele>137.66666666666666</ele><time>2026-03-29T16:25:10.999Z</time></trkpt><trkpt lat="45.54198494160196" lon="9.31663675354579"><ele>138.33333333333334</ele><time>2026-03-29T16:25:11.999Z</time></trkpt><trkpt lat="45.54217640587833" lon="9.316761071672623"><ele>139.0</ele><time>2026-03-29T16:25:12.999Z</time></trkpt><trkpt lat="45.54236712381722" lon="9.316884609965214"><ele>139.33333333333334</ele><time>2026-03-29T16:25:13.999Z</time></trkpt><trkpt lat="45.542558102508885" lon="9.317006542040163"><ele>139.66666666666666</ele><time>2026-03-29T16:25:14.999Z</time></trkpt><trkpt lat="45.542749343827886" lon="9.317132119365311"><ele>140.0</ele><time>2026-03-29T16:25:15.999Z</time></trkpt><trkpt lat="45.54293829052985" lon="9.317263298595568"><ele>140.0</ele><time>2026-03-29T16:25:16.999Z</time></trkpt><trkpt lat="45.54312721409963" lon="9.317397928835822"><ele>140.0</ele><time>2026-03-29T16:25:17.999Z</time></trkpt><trkpt lat="45.54331338426248" lon="9.317540336545742"><ele>140.0</ele><time>2026-03-29T16:25:18.999Z</time></trkpt><trkpt lat="45.54349520595723" lon="9.31769115695477"><ele>140.0</ele><time>2026-03-29T16:25:19.999Z</time></trkpt><trkpt lat="45.5436707470337" lon="9.31785373790978"><ele>140.0</ele><time>2026-03-29T16:25:20.999Z</time></trkpt><trkpt lat="45.54384031527801" lon="9.318031632090777"><ele>140.0</ele><time>2026-03-29T16:25:21.999Z</time></trkpt><trkpt lat="45.54400181712915" lon="9.318219935912825"><ele>140.0</ele><time>2026-03-29T16:25:22.999Z</time></trkpt><trkpt lat="45.54416072687359" lon="9.318418597508224"><ele>140.0</ele><time>2026-03-29T16:25:23.999Z</time></trkpt><trkpt lat="45.54430935034161" lon="9.3186281391449"><ele>140.0</ele><time>2026-03-29T16:25:25Z</time></trkpt><trkpt lat="45.54445382062869" lon="9.318847683610983"><ele>140.33333333333331</ele><time>2026-03-29T16:25:26Z</time></trkpt><trkpt lat="45.544587599209045" lon="9.319078035061693"><ele>140.66666666666666</ele><time>2026-03-29T16:25:27Z</time></trkpt><trkpt lat="45.54471507885474" lon="9.319316577882901"><ele>141.0</ele><time>2026-03-29T16:25:28Z</time></trkpt><trkpt lat="45.54483656333188" lon="9.319561823695597"><ele>141.33333333333334</ele><time>2026-03-29T16:25:29Z</time></trkpt><trkpt lat="45.5449487333738" lon="9.31981476270536"><ele>141.66666666666669</ele><time>2026-03-29T16:25:30Z</time></trkpt><trkpt lat="45.54505418498546" lon="9.320077178807065"><ele>142.0</ele><time>2026-03-29T16:25:31Z</time></trkpt><trkpt lat="45.545154216305356" lon="9.320337654523623"><ele>141.33333333333334</ele><time>2026-03-29T16:25:32Z</time></trkpt><trkpt lat="45.54525619524035" lon="9.320598553704391"><ele>140.66666666666666</ele><time>2026-03-29T16:25:33Z</time></trkpt><trkpt lat="45.54535407915142" lon="9.320856984485673"><ele>140.0</ele><time>2026-03-29T16:25:34Z</time></trkpt><trkpt lat="45.54544349091484" lon="9.32111551980907"><ele>140.0</ele><time>2026-03-29T16:25:35Z</time></trkpt><trkpt lat="45.54553786828281" lon="9.321370734423601"><ele>140.0</ele><time>2026-03-29T16:25:36Z</time></trkpt><trkpt lat="45.54563514399247" lon="9.321619227780879"><ele>140.0</ele><time>2026-03-29T16:25:37Z</time></trkpt><trkpt lat="45.54573648201438" lon="9.32185847910527"><ele>140.33333333333331</ele><time>2026-03-29T16:25:38Z</time></trkpt><trkpt lat="45.545844237204385" lon="9.322092572561331"><ele>140.66666666666666</ele><time>2026-03-29T16:25:39Z</time></trkpt><trkpt lat="45.54595366853153" lon="9.322320515781152"><ele>141.0</ele><time>2026-03-29T16:25:40Z</time></trkpt><trkpt lat="45.546066848214565" lon="9.322545619643451"><ele>141.0</ele><time>2026-03-29T16:25:41Z</time></trkpt><trkpt lat="45.54617969048594" lon="9.322766601892631"><ele>141.0</ele><time>2026-03-29T16:25:42Z</time></trkpt><trkpt lat="45.54629850410374" lon="9.322985336235016"><ele>141.0</ele><time>2026-03-29T16:25:43Z</time></trkpt><trkpt lat="45.546421285142735" lon="9.323200455854096"><ele>141.33333333333334</ele><time>2026-03-29T16:25:44Z</time></trkpt><trkpt lat="45.54654370881008" lon="9.323411386148097"><ele>141.66666666666669</ele><time>2026-03-29T16:25:45Z</time></trkpt><trkpt lat="45.54666888680231" lon="9.323618546528666"><ele>142.0</ele><time>2026-03-29T16:25:46Z</time></trkpt><trkpt lat="45.54679466042203" lon="9.32381668317967"><ele>142.0</ele><time>2026-03-29T16:25:47Z</time></trkpt><trkpt lat="45.54691996156739" lon="9.324002225054922"><ele>142.0</ele><time>2026-03-29T16:25:48Z</time></trkpt><trkpt lat="45.54705442948524" lon="9.32418969622401"><ele>142.0</ele><time>2026-03-29T16:25:49Z</time></trkpt><trkpt lat="45.547188587199436" lon="9.324363700830242"><ele>142.33333333333334</ele><time>2026-03-29T16:25:50Z</time></trkpt><trkpt lat="45.54732450997014" lon="9.324536041449951"><ele>142.66666666666666</ele><time>2026-03-29T16:25:51Z</time></trkpt><trkpt lat="45.54745841489781" lon="9.32470040302527"><ele>143.0</ele><time>2026-03-29T16:25:52Z</time></trkpt><trkpt lat="45.54759519050591" lon="9.324858444705665"><ele>143.33333333333331</ele><time>2026-03-29T16:25:53Z</time></trkpt><trkpt lat="45.54772984468171" lon="9.325008426449804"><ele>143.66666666666666</ele><time>2026-03-29T16:25:54Z</time></trkpt><trkpt lat="45.54786215620846" lon="9.325152292591977"><ele>144.0</ele><time>2026-03-29T16:25:55Z</time></trkpt><trkpt lat="45.54799431781264" lon="9.325289970809347"><ele>144.33333333333334</ele><time>2026-03-29T16:25:56Z</time></trkpt><trkpt lat="45.54812591414286" lon="9.32542198412186"><ele>144.66666666666669</ele><time>2026-03-29T16:25:57Z</time></trkpt><trkpt lat="45.54825619776503" lon="9.325551500628928"><ele>145.0</ele><time>2026-03-29T16:25:58Z</time></trkpt><trkpt lat="45.54837880143292" lon="9.325658255209543"><ele>144.5</ele><time>2026-03-29T16:25:59Z</time></trkpt><trkpt lat="45.548495597186545" lon="9.325770095917127"><ele>144.0</ele><time>2026-03-29T16:26:00Z</time></trkpt><trkpt lat="45.54859926967535" lon="9.325888493094048"><ele>143.5</ele><time>2026-03-29T16:26:01Z</time></trkpt><trkpt lat="45.54868544555569" lon="9.326016523621746"><ele>143.0</ele><time>2026-03-29T16:26:02Z</time></trkpt><trkpt lat="45.54875413771991" lon="9.32615407433029"><ele>143.0</ele><time>2026-03-29T16:26:03Z</time></trkpt><trkpt lat="45.54880651964032" lon="9.326289032718377"><ele>143.0</ele><time>2026-03-29T16:26:04Z</time></trkpt><trkpt lat="45.54884716577964" lon="9.326416307969804"><ele>143.0</ele><time>2026-03-29T16:26:05Z</time></trkpt><trkpt lat="45.54886181532814" lon="9.326545231101402"><ele>143.0</ele><time>2026-03-29T16:26:06Z</time></trkpt><trkpt lat="45.548882354813124" lon="9.326662841704422"><ele>143.0</ele><time>2026-03-29T16:26:07Z</time></trkpt><trkpt lat="45.5488948112176" lon="9.326772285190055"><ele>142.99999999999997</ele><time>2026-03-29T16:26:08Z</time></trkpt><trkpt lat="45.548924927639526" lon="9.326868159773396"><ele>143.0</ele><time>2026-03-29T16:26:09Z</time></trkpt><trkpt lat="45.54893645733762" lon="9.326972016664628"><ele>143.0</ele><time>2026-03-29T16:26:10Z</time></trkpt><trkpt lat="45.54894620924711" lon="9.32707395913091"><ele>143.0</ele><time>2026-03-29T16:26:11Z</time></trkpt><trkpt lat="45.548956169864695" lon="9.32717298124567"><ele>143.0</ele><time>2026-03-29T16:26:12Z</time></trkpt><trkpt lat="45.54896228432224" lon="9.327269688770087"><ele>142.99999999999997</ele><time>2026-03-29T16:26:13Z</time></trkpt><trkpt lat="45.54896343244082" lon="9.327363306537428"><ele>143.0</ele><time>2026-03-29T16:26:14Z</time></trkpt><trkpt lat="45.54896115975862" lon="9.3274553390333"><ele>143.6</ele><time>2026-03-29T16:26:15Z</time></trkpt><trkpt lat="45.54894538207058" lon="9.32762530062848"><ele>144.20000000000002</ele><time>2026-03-29T16:26:17Z</time></trkpt><trkpt lat="45.54891715523573" lon="9.32777373961013"><ele>144.8</ele><time>2026-03-29T16:26:19Z</time></trkpt><trkpt lat="45.54887626796159" lon="9.327893543085073"><ele>145.4</ele><time>2026-03-29T16:26:21Z</time></trkpt><trkpt lat="45.54883924640741" lon="9.32799994170068"><ele>146.0</ele><time>2026-03-29T16:26:23Z</time></trkpt><trkpt lat="45.5487874421712" lon="9.32806623808799"><ele>146.16666666666666</ele><time>2026-03-29T16:26:25Z</time></trkpt><trkpt lat="45.54875272758559" lon="9.328154344158454"><ele>146.33333333333331</ele><time>2026-03-29T16:26:50.999Z</time></trkpt><trkpt lat="45.548692683827475" lon="9.328227609655768"><ele>146.5</ele><time>2026-03-29T16:27:03.999Z</time></trkpt><trkpt lat="45.54864054176536" lon="9.32831597244899"><ele>146.66666666666666</ele><time>2026-03-29T16:27:06.999Z</time></trkpt><trkpt lat="45.548585518726476" lon="9.328407371371798"><ele>146.83333333333334</ele><time>2026-03-29T16:27:08.999Z</time></trkpt><trkpt lat="45.548479844583646" lon="9.328494204398428"><ele>147.0</ele><time>2026-03-29T16:27:10.999Z</time></trkpt><trkpt lat="45.54841063460324" lon="9.328507354585385"><ele>146.6</ele><time>2026-03-29T16:27:11.999Z</time></trkpt><trkpt lat="45.54834354559768" lon="9.32851030310403"><ele>146.2</ele><time>2026-03-29T16:27:12.999Z</time></trkpt><trkpt lat="45.54824555768358" lon="9.328436550163456"><ele>145.8</ele><time>2026-03-29T16:27:14.999Z</time></trkpt><trkpt lat="45.54816103879598" lon="9.328354463270447"><ele>145.4</ele><time>2026-03-29T16:27:16.999Z</time></trkpt><trkpt lat="45.54809305117754" lon="9.328207403884665"><ele>145.0</ele><time>2026-03-29T16:27:18.999Z</time></trkpt><trkpt lat="45.548083826455176" lon="9.328102482913486"><ele>144.6</ele><time>2026-03-29T16:27:19.999Z</time></trkpt><trkpt lat="45.54805253990891" lon="9.327994862485067"><ele>144.2</ele><time>2026-03-29T16:27:20.999Z</time></trkpt><trkpt lat="45.54812890690288" lon="9.327842764872758"><ele>143.8</ele><time>2026-03-29T16:27:21.999Z</time></trkpt><trkpt lat="45.548160465833845" lon="9.32768526452532"><ele>143.4</ele><time>2026-03-29T16:27:22.999Z</time></trkpt><trkpt lat="45.548170729287975" lon="9.327537457934532"><ele>143.0</ele><time>2026-03-29T16:27:23.999Z</time></trkpt><trkpt lat="45.54815885931433" lon="9.327381126669836"><ele>143.0</ele><time>2026-03-29T16:27:24.999Z</time></trkpt><trkpt lat="45.54814712692604" lon="9.327238606513781"><ele>143.0</ele><time>2026-03-29T16:27:25.999Z</time></trkpt><trkpt lat="45.548134971321254" lon="9.327108348436015"><ele>143.0</ele><time>2026-03-29T16:27:26.999Z</time></trkpt><trkpt lat="45.54811552221526" lon="9.326940083038657"><ele>143.0</ele><time>2026-03-29T16:27:28.999Z</time></trkpt><trkpt lat="45.54809328490581" lon="9.326795141985695"><ele>143.0</ele><time>2026-03-29T16:27:31Z</time></trkpt><trkpt lat="45.548071684146535" lon="9.326607796558621"><ele>143.0</ele><time>2026-03-29T16:27:33Z</time></trkpt><trkpt lat="45.54805260393279" lon="9.326478101093903"><ele>143.0</ele><time>2026-03-29T16:27:34Z</time></trkpt><trkpt lat="45.54803721321156" lon="9.326337163653058"><ele>143.0</ele><time>2026-03-29T16:27:35Z</time></trkpt><trkpt lat="45.54803399629112" lon="9.326214474649582"><ele>143.0</ele><time>2026-03-29T16:27:36Z</time></trkpt><trkpt lat="45.548038519835295" lon="9.326081587134178"><ele>143.0</ele><time>2026-03-29T16:27:37Z</time></trkpt><trkpt lat="45.548049593383645" lon="9.325954804881412"><ele>143.0</ele><time>2026-03-29T16:27:38Z</time></trkpt><trkpt lat="45.54806113772288" lon="9.325826589796637"><ele>143.0</ele><time>2026-03-29T16:27:39Z</time></trkpt><trkpt lat="45.548076056673644" lon="9.325696367913913"><ele>143.0</ele><time>2026-03-29T16:27:40Z</time></trkpt><trkpt lat="45.5480958386033" lon="9.325561999723524"><ele>143.0</ele><time>2026-03-29T16:27:41Z</time></trkpt><trkpt lat="45.54811783685053" lon="9.325423644550368"><ele>143.0</ele><time>2026-03-29T16:27:42Z</time></trkpt><trkpt lat="45.54814027735207" lon="9.325279315335866"><ele>143.4</ele><time>2026-03-29T16:27:43Z</time></trkpt><trkpt lat="45.54816206838924" lon="9.325122842099553"><ele>143.8</ele><time>2026-03-29T16:27:44Z</time></trkpt><trkpt lat="45.5481842545338" lon="9.324972942576844"><ele>144.2</ele><time>2026-03-29T16:27:45Z</time></trkpt><trkpt lat="45.548203894119716" lon="9.324832611954903"><ele>144.6</ele><time>2026-03-29T16:27:46Z</time></trkpt><trkpt lat="45.54822225029666" lon="9.324698104968798"><ele>145.0</ele><time>2026-03-29T16:27:47Z</time></trkpt><trkpt lat="45.54824491617049" lon="9.324584272579742"><ele>145.0</ele><time>2026-03-29T16:27:48Z</time></trkpt><trkpt lat="45.548256869325" lon="9.324460395456509"><ele>145.0</ele><time>2026-03-29T16:27:49Z</time></trkpt><trkpt lat="45.54826627211389" lon="9.32434295127804"><ele>145.0</ele><time>2026-03-29T16:27:50Z</time></trkpt><trkpt lat="45.54827561890991" lon="9.324220135631563"><ele>145.0</ele><time>2026-03-29T16:27:51Z</time></trkpt><trkpt lat="45.54827648870075" lon="9.324086841993186"><ele>145.0</ele><time>2026-03-29T16:27:52Z</time></trkpt><trkpt lat="45.54826689134513" lon="9.323950689013719"><ele>145.0</ele><time>2026-03-29T16:27:53Z</time></trkpt><trkpt lat="45.54825326812082" lon="9.323808132876291"><ele>145.0</ele><time>2026-03-29T16:27:54Z</time></trkpt><trkpt lat="45.54823376105153" lon="9.323669961699142"><ele>145.0</ele><time>2026-03-29T16:27:55Z</time></trkpt><trkpt lat="45.54820721306853" lon="9.323536828934216"><ele>145.0</ele><time>2026-03-29T16:27:56Z</time></trkpt><trkpt lat="45.548181376720244" lon="9.323408577876911"><ele>145.0</ele><time>2026-03-29T16:27:57Z</time></trkpt><trkpt lat="45.54815080872773" lon="9.323279517288126"><ele>145.0</ele><time>2026-03-29T16:27:58Z</time></trkpt><trkpt lat="45.548117884447294" lon="9.323153693670099"><ele>144.4</ele><time>2026-03-29T16:27:59Z</time></trkpt><trkpt lat="45.5480876007482" lon="9.323034461058192"><ele>143.8</ele><time>2026-03-29T16:28:00Z</time></trkpt><trkpt lat="45.54806041794669" lon="9.322904396684757"><ele>143.2</ele><time>2026-03-29T16:28:01Z</time></trkpt><trkpt lat="45.548043209882884" lon="9.322755211626594"><ele>142.6</ele><time>2026-03-29T16:28:02Z</time></trkpt><trkpt lat="45.54799924239494" lon="9.322601619533382"><ele>142.0</ele><time>2026-03-29T16:28:03Z</time></trkpt><trkpt lat="45.54800372040118" lon="9.322450477600526"><ele>142.0</ele><time>2026-03-29T16:28:04Z</time></trkpt><trkpt lat="45.54798844838426" lon="9.322289425613313"><ele>142.0</ele><time>2026-03-29T16:28:05Z</time></trkpt><trkpt lat="45.547968416051205" lon="9.322120181276368"><ele>142.0</ele><time>2026-03-29T16:28:06Z</time></trkpt><trkpt lat="45.5479255298" lon="9.321949954226008"><ele>142.0</ele><time>2026-03-29T16:28:07Z</time></trkpt><trkpt lat="45.547876068084705" lon="9.321755592047369"><ele>141.66666666666669</ele><time>2026-03-29T16:28:08Z</time></trkpt><trkpt lat="45.54779178694564" lon="9.321597061614295"><ele>141.33333333333334</ele><time>2026-03-29T16:28:09Z</time></trkpt><trkpt lat="45.54780365843358" lon="9.321310791279773"><ele>141.0</ele><time>2026-03-29T16:28:10Z</time></trkpt><trkpt lat="45.54778079381816" lon="9.321071553308576"><ele>141.0</ele><time>2026-03-29T16:28:11Z</time></trkpt><trkpt lat="45.547764761822826" lon="9.320831476900214"><ele>141.0</ele><time>2026-03-29T16:28:12Z</time></trkpt><trkpt lat="45.5477497435521" lon="9.32060090742744"><ele>141.0</ele><time>2026-03-29T16:28:13Z</time></trkpt><trkpt lat="45.54773448720322" lon="9.320384042023667"><ele>140.75</ele><time>2026-03-29T16:28:14Z</time></trkpt><trkpt lat="45.54771835873179" lon="9.320175857936018"><ele>140.5</ele><time>2026-03-29T16:28:15Z</time></trkpt><trkpt lat="45.547704388051365" lon="9.31997090653001"><ele>140.25</ele><time>2026-03-29T16:28:16Z</time></trkpt><trkpt lat="45.54768980023779" lon="9.31977952020128"><ele>140.0</ele><time>2026-03-29T16:28:17Z</time></trkpt><trkpt lat="45.547676068017594" lon="9.319599198087396"><ele>140.75</ele><time>2026-03-29T16:28:18Z</time></trkpt><trkpt lat="45.54766552523883" lon="9.319424416603857"><ele>141.5</ele><time>2026-03-29T16:28:19Z</time></trkpt><trkpt lat="45.547653891029654" lon="9.319262784393521"><ele>142.25</ele><time>2026-03-29T16:28:20Z</time></trkpt><trkpt lat="45.54764156059052" lon="9.31910292400421"><ele>143.0</ele><time>2026-03-29T16:28:21Z</time></trkpt><trkpt lat="45.54762938458075" lon="9.31895358298248"><ele>142.6</ele><time>2026-03-29T16:28:22Z</time></trkpt><trkpt lat="45.54761802139275" lon="9.318810290446825"><ele>142.20000000000002</ele><time>2026-03-29T16:28:23Z</time></trkpt><trkpt lat="45.54760732821757" lon="9.318664491862751"><ele>141.8</ele><time>2026-03-29T16:28:24Z</time></trkpt><trkpt lat="45.547596950933226" lon="9.31853264256346"><ele>141.4</ele><time>2026-03-29T16:28:25Z</time></trkpt><trkpt lat="45.54758766267086" lon="9.31839952225626"><ele>141.0</ele><time>2026-03-29T16:28:26Z</time></trkpt><trkpt lat="45.54757916495216" lon="9.31826658822358"><ele>141.0</ele><time>2026-03-29T16:28:27Z</time></trkpt><trkpt lat="45.54757026611132" lon="9.318145099795705"><ele>141.0</ele><time>2026-03-29T16:28:28Z</time></trkpt><trkpt lat="45.547559568392785" lon="9.318026774693326"><ele>141.0</ele><time>2026-03-29T16:28:29Z</time></trkpt><trkpt lat="45.54754459526176" lon="9.317904404758773"><ele>141.0</ele><time>2026-03-29T16:28:30Z</time></trkpt><trkpt lat="45.54752658029715" lon="9.317781664333534"><ele>141.0</ele><time>2026-03-29T16:28:31Z</time></trkpt><trkpt lat="45.54750908390885" lon="9.317656216908448"><ele>141.0</ele><time>2026-03-29T16:28:32Z</time></trkpt><trkpt lat="45.547487420756745" lon="9.31753243908227"><ele>141.2</ele><time>2026-03-29T16:28:33Z</time></trkpt><trkpt lat="45.547461374883696" lon="9.317401837422533"><ele>141.39999999999998</ele><time>2026-03-29T16:28:34Z</time></trkpt><trkpt lat="45.547432129633115" lon="9.317272035561004"><ele>141.6</ele><time>2026-03-29T16:28:35Z</time></trkpt><trkpt lat="45.54739971528529" lon="9.317138109390854"><ele>141.79999999999998</ele><time>2026-03-29T16:28:36Z</time></trkpt><trkpt lat="45.54736464691185" lon="9.317000237363015"><ele>142.0</ele><time>2026-03-29T16:28:37Z</time></trkpt><trkpt lat="45.54733103278449" lon="9.316868182067584"><ele>142.0</ele><time>2026-03-29T16:28:38Z</time></trkpt><trkpt lat="45.547299850839615" lon="9.316744038789736"><ele>142.0</ele><time>2026-03-29T16:28:39Z</time></trkpt><trkpt lat="45.54726965367629" lon="9.31662312450508"><ele>142.0</ele><time>2026-03-29T16:28:40Z</time></trkpt><trkpt lat="45.54723999725719" lon="9.316508119466295"><ele>142.0</ele><time>2026-03-29T16:28:41Z</time></trkpt><trkpt lat="45.547214629874986" lon="9.316399503178026"><ele>142.0</ele><time>2026-03-29T16:28:41.999Z</time></trkpt><trkpt lat="45.547189521270596" lon="9.316291643659731"><ele>142.0</ele><time>2026-03-29T16:28:42.999Z</time></trkpt><trkpt lat="45.547164716563124" lon="9.316183922996846"><ele>142.0</ele><time>2026-03-29T16:28:43.999Z</time></trkpt><trkpt lat="45.54713974289284" lon="9.316079931652421"><ele>142.0</ele><time>2026-03-29T16:28:44.999Z</time></trkpt><trkpt lat="45.547112939253246" lon="9.31597340755032"><ele>142.0</ele><time>2026-03-29T16:28:45.999Z</time></trkpt><trkpt lat="45.54708484743516" lon="9.315864601517736"><ele>142.0</ele><time>2026-03-29T16:28:46.999Z</time></trkpt><trkpt lat="45.54705765713275" lon="9.315756440693189"><ele>142.0</ele><time>2026-03-29T16:28:47.999Z</time></trkpt><trkpt lat="45.54703327817449" lon="9.315653400049358"><ele>142.0</ele><time>2026-03-29T16:28:48.999Z</time></trkpt><trkpt lat="45.547006783163965" lon="9.315547644107623"><ele>142.14285714285714</ele><time>2026-03-29T16:28:49.999Z</time></trkpt><trkpt lat="45.546980550581495" lon="9.315440458088084"><ele>142.28571428571428</ele><time>2026-03-29T16:28:50.999Z</time></trkpt><trkpt lat="45.54695470207419" lon="9.31533417164926"><ele>142.42857142857142</ele><time>2026-03-29T16:28:51.999Z</time></trkpt><trkpt lat="45.54693019890495" lon="9.315234734538988"><ele>142.57142857142856</ele><time>2026-03-29T16:28:52.999Z</time></trkpt><trkpt lat="45.546905085860566" lon="9.315139347531813"><ele>142.71428571428572</ele><time>2026-03-29T16:28:53.999Z</time></trkpt><trkpt lat="45.54688251434052" lon="9.315046872137998"><ele>142.85714285714283</ele><time>2026-03-29T16:28:54.999Z</time></trkpt><trkpt lat="45.54685815742877" lon="9.314956654992407"><ele>143.0</ele><time>2026-03-29T16:28:55.999Z</time></trkpt><trkpt lat="45.54683551425628" lon="9.314871827203614"><ele>143.0</ele><time>2026-03-29T16:28:56.999Z</time></trkpt><trkpt lat="45.54681389383742" lon="9.314787361077176"><ele>143.0</ele><time>2026-03-29T16:28:57.999Z</time></trkpt><trkpt lat="45.54677127292786" lon="9.314612125651973"><ele>143.0</ele><time>2026-03-29T16:28:59.999Z</time></trkpt><trkpt lat="45.546744440209736" lon="9.314520805186135"><ele>143.0</ele><time>2026-03-29T16:29:00.999Z</time></trkpt><trkpt lat="45.54671625087479" lon="9.314421161162468"><ele>143.0</ele><time>2026-03-29T16:29:01.999Z</time></trkpt><trkpt lat="45.54669120009097" lon="9.314320274959123"><ele>143.0</ele><time>2026-03-29T16:29:02.999Z</time></trkpt><trkpt lat="45.54667111546565" lon="9.314219693527088"><ele>142.99999999999997</ele><time>2026-03-29T16:29:03.999Z</time></trkpt><trkpt lat="45.54665245920588" lon="9.314110743766777"><ele>143.0</ele><time>2026-03-29T16:29:04.999Z</time></trkpt><trkpt lat="45.54663357256069" lon="9.314002332676017"><ele>143.0</ele><time>2026-03-29T16:29:05.999Z</time></trkpt><trkpt lat="45.54661010970407" lon="9.313898751798588"><ele>143.0</ele><time>2026-03-29T16:29:06.999Z</time></trkpt><trkpt lat="45.54658442858827" lon="9.31379727061132"><ele>143.0</ele><time>2026-03-29T16:29:07.999Z</time></trkpt><trkpt lat="45.546560221613895" lon="9.313702830997626"><ele>142.99999999999997</ele><time>2026-03-29T16:29:08.999Z</time></trkpt><trkpt lat="45.546538486696015" lon="9.313613682536817"><ele>143.0</ele><time>2026-03-29T16:29:09.999Z</time></trkpt><trkpt lat="45.54651926276156" lon="9.313527986274588"><ele>142.8</ele><time>2026-03-29T16:29:10.999Z</time></trkpt><trkpt lat="45.54647836952775" lon="9.313363457490624"><ele>142.60000000000002</ele><time>2026-03-29T16:29:12.999Z</time></trkpt><trkpt lat="45.54644555698093" lon="9.313225445033682"><ele>142.39999999999998</ele><time>2026-03-29T16:29:14.999Z</time></trkpt><trkpt lat="45.54642196939" lon="9.313122553330217"><ele>142.2</ele><time>2026-03-29T16:29:16.999Z</time></trkpt><trkpt lat="45.54639573507676" lon="9.313015287403092"><ele>142.0</ele><time>2026-03-29T16:29:33.999Z</time></trkpt><trkpt lat="45.546365445762476" lon="9.312917050671569"><ele>142.0</ele><time>2026-03-29T16:29:35.999Z</time></trkpt><trkpt lat="45.54632618937265" lon="9.312726233302223"><ele>142.0</ele><time>2026-03-29T16:29:38Z</time></trkpt><trkpt lat="45.54631363613093" lon="9.312613579569783"><ele>142.0</ele><time>2026-03-29T16:29:39Z</time></trkpt><trkpt lat="45.54630901653023" lon="9.312478891861605"><ele>142.0</ele><time>2026-03-29T16:29:40Z</time></trkpt><trkpt lat="45.5463070889985" lon="9.312327871965065"><ele>142.0</ele><time>2026-03-29T16:29:41Z</time></trkpt><trkpt lat="45.54631570888078" lon="9.312181192423415"><ele>142.0</ele><time>2026-03-29T16:29:42Z</time></trkpt><trkpt lat="45.54631902245537" lon="9.312026647782725"><ele>142.0</ele><time>2026-03-29T16:29:43Z</time></trkpt><trkpt lat="45.54631748421058" lon="9.31185813592165"><ele>142.0</ele><time>2026-03-29T16:29:44Z</time></trkpt><trkpt lat="45.546315672689445" lon="9.311680192580244"><ele>142.0</ele><time>2026-03-29T16:29:45Z</time></trkpt><trkpt lat="45.546321850957" lon="9.311509538268936"><ele>142.0</ele><time>2026-03-29T16:29:46Z</time></trkpt><trkpt lat="45.5463285222504" lon="9.311335132022588"><ele>142.0</ele><time>2026-03-29T16:29:47Z</time></trkpt><trkpt lat="45.54633607863262" lon="9.311152932773629"><ele>142.0</ele><time>2026-03-29T16:29:48Z</time></trkpt><trkpt lat="45.546339603407205" lon="9.310982212060406"><ele>142.0</ele><time>2026-03-29T16:29:49Z</time></trkpt><trkpt lat="45.54634967891789" lon="9.31082590677003"><ele>142.0</ele><time>2026-03-29T16:29:50Z</time></trkpt><trkpt lat="45.546365691157774" lon="9.31066094133554"><ele>142.0</ele><time>2026-03-29T16:29:51Z</time></trkpt><trkpt lat="45.54639610919402" lon="9.310497692629605"><ele>142.0</ele><time>2026-03-29T16:29:52Z</time></trkpt><trkpt lat="45.54643666371945" lon="9.310329644128215"><ele>142.0</ele><time>2026-03-29T16:29:53Z</time></trkpt><trkpt lat="45.54648234594729" lon="9.310164856425972"><ele>141.75</ele><time>2026-03-29T16:29:54Z</time></trkpt><trkpt lat="45.54652604230076" lon="9.310003021259773"><ele>141.5</ele><time>2026-03-29T16:29:55Z</time></trkpt><trkpt lat="45.54655765902287" lon="9.30985173954287"><ele>141.25</ele><time>2026-03-29T16:29:56Z</time></trkpt><trkpt lat="45.54657303629513" lon="9.30968677922269"><ele>141.0</ele><time>2026-03-29T16:29:57Z</time></trkpt><trkpt lat="45.54654991883322" lon="9.309506181113845"><ele>141.0</ele><time>2026-03-29T16:29:58Z</time></trkpt><trkpt lat="45.54650912425734" lon="9.309315058614594"><ele>141.0</ele><time>2026-03-29T16:29:59Z</time></trkpt><trkpt lat="45.54647347152397" lon="9.309128342101568"><ele>141.0</ele><time>2026-03-29T16:30:00Z</time></trkpt><trkpt lat="45.54644602576917" lon="9.30893959939898"><ele>141.0</ele><time>2026-03-29T16:30:01Z</time></trkpt><trkpt lat="45.546401459748026" lon="9.308770339983354"><ele>141.25</ele><time>2026-03-29T16:30:02Z</time></trkpt><trkpt lat="45.546425290661055" lon="9.308584592716848"><ele>141.5</ele><time>2026-03-29T16:30:03Z</time></trkpt><trkpt lat="45.546423576027394" lon="9.308412697714738"><ele>141.75</ele><time>2026-03-29T16:30:04Z</time></trkpt><trkpt lat="45.546422070645804" lon="9.30825582866837"><ele>142.0</ele><time>2026-03-29T16:30:05Z</time></trkpt><trkpt lat="45.546423407388254" lon="9.308106522160683"><ele>142.2</ele><time>2026-03-29T16:30:06Z</time></trkpt><trkpt lat="45.546427424376006" lon="9.307958915810381"><ele>142.39999999999998</ele><time>2026-03-29T16:30:07Z</time></trkpt><trkpt lat="45.54643217316976" lon="9.30781056977161"><ele>142.60000000000002</ele><time>2026-03-29T16:30:08Z</time></trkpt><trkpt lat="45.54643591178494" lon="9.307663995248557"><ele>142.8</ele><time>2026-03-29T16:30:09Z</time></trkpt><trkpt lat="45.54643903844745" lon="9.30751306974931"><ele>143.0</ele><time>2026-03-29T16:30:10Z</time></trkpt><trkpt lat="45.546442228041855" lon="9.307359823265859"><ele>142.4</ele><time>2026-03-29T16:30:11Z</time></trkpt><trkpt lat="45.54644970504514" lon="9.307207475609465"><ele>141.8</ele><time>2026-03-29T16:30:12Z</time></trkpt><trkpt lat="45.54645555368309" lon="9.307061549799268"><ele>141.2</ele><time>2026-03-29T16:30:13Z</time></trkpt><trkpt lat="45.54645887971826" lon="9.306909407783417"><ele>140.6</ele><time>2026-03-29T16:30:14Z</time></trkpt><trkpt lat="45.546460396361766" lon="9.306758670411693"><ele>140.0</ele><time>2026-03-29T16:30:15Z</time></trkpt><trkpt lat="45.54646519450182" lon="9.306611778793364"><ele>140.0</ele><time>2026-03-29T16:30:16Z</time></trkpt><trkpt lat="45.54646791565434" lon="9.306467118059315"><ele>140.0</ele><time>2026-03-29T16:30:17Z</time></trkpt><trkpt lat="45.546471297914785" lon="9.30633161216298"><ele>140.0</ele><time>2026-03-29T16:30:18Z</time></trkpt><trkpt lat="45.54647662549372" lon="9.306203403464842"><ele>140.0</ele><time>2026-03-29T16:30:19Z</time></trkpt><trkpt lat="45.546481326734074" lon="9.306072673464364"><ele>140.0</ele><time>2026-03-29T16:30:20Z</time></trkpt><trkpt lat="45.546485995762765" lon="9.305946077415006"><ele>139.83333333333331</ele><time>2026-03-29T16:30:21Z</time></trkpt><trkpt lat="45.546494289772845" lon="9.305825101973044"><ele>139.66666666666666</ele><time>2026-03-29T16:30:22Z</time></trkpt><trkpt lat="45.54650544762293" lon="9.305714674467941"><ele>139.5</ele><time>2026-03-29T16:30:23Z</time></trkpt><trkpt lat="45.54653208506615" lon="9.305616653875804"><ele>139.33333333333334</ele><time>2026-03-29T16:30:24Z</time></trkpt><trkpt lat="45.546573227793054" lon="9.305523692788123"><ele>139.16666666666669</ele><time>2026-03-29T16:30:25Z</time></trkpt><trkpt lat="45.546587814673565" lon="9.305421649319925"><ele>139.0</ele><time>2026-03-29T16:30:26Z</time></trkpt><trkpt lat="45.546565678338744" lon="9.30530137334255"><ele>139.4</ele><time>2026-03-29T16:30:27Z</time></trkpt><trkpt lat="45.546501392839495" lon="9.305221261963753"><ele>139.8</ele><time>2026-03-29T16:30:28Z</time></trkpt><trkpt lat="45.54653196057233" lon="9.305046396391235"><ele>140.2</ele><time>2026-03-29T16:30:29Z</time></trkpt><trkpt lat="45.54654318313561" lon="9.304906674038627"><ele>140.6</ele><time>2026-03-29T16:30:30Z</time></trkpt><trkpt lat="45.5465507612451" lon="9.30475737162399"><ele>141.0</ele><time>2026-03-29T16:30:31Z</time></trkpt><trkpt lat="45.546557201477675" lon="9.304606851397761"><ele>141.4</ele><time>2026-03-29T16:30:32Z</time></trkpt><trkpt lat="45.54656376878354" lon="9.304456467024696"><ele>141.8</ele><time>2026-03-29T16:30:33Z</time></trkpt><trkpt lat="45.54657079586178" lon="9.304296605090848"><ele>142.20000000000002</ele><time>2026-03-29T16:30:34Z</time></trkpt><trkpt lat="45.54657900958537" lon="9.304138792620684"><ele>142.6</ele><time>2026-03-29T16:30:35Z</time></trkpt><trkpt lat="45.54658748811378" lon="9.303993820194668"><ele>143.0</ele><time>2026-03-29T16:30:36Z</time></trkpt><trkpt lat="45.54659161607156" lon="9.30383850269067"><ele>143.20000000000002</ele><time>2026-03-29T16:30:37Z</time></trkpt><trkpt lat="45.54659753209744" lon="9.303682992347124"><ele>143.4</ele><time>2026-03-29T16:30:38Z</time></trkpt><trkpt lat="45.5466032305717" lon="9.303526012882331"><ele>143.60000000000002</ele><time>2026-03-29T16:30:39Z</time></trkpt><trkpt lat="45.54661361254179" lon="9.303367933457798"><ele>143.8</ele><time>2026-03-29T16:30:40Z</time></trkpt><trkpt lat="45.54661158443192" lon="9.303211056589237"><ele>144.0</ele><time>2026-03-29T16:30:41Z</time></trkpt><trkpt lat="45.546602443138546" lon="9.303060250621977"><ele>144.0</ele><time>2026-03-29T16:30:42Z</time></trkpt><trkpt lat="45.54659202840643" lon="9.302921158620693"><ele>144.0</ele><time>2026-03-29T16:30:43Z</time></trkpt><trkpt lat="45.54658223121179" lon="9.30278577419783"><ele>144.0</ele><time>2026-03-29T16:30:44Z</time></trkpt><trkpt lat="45.546568349627364" lon="9.302658309812433"><ele>144.0</ele><time>2026-03-29T16:30:45Z</time></trkpt><trkpt lat="45.54655762539629" lon="9.30252618304561"><ele>144.0</ele><time>2026-03-29T16:30:46Z</time></trkpt><trkpt lat="45.54654832726331" lon="9.302395227962883"><ele>144.0</ele><time>2026-03-29T16:30:47Z</time></trkpt><trkpt lat="45.54653831420932" lon="9.302258412496396"><ele>144.0</ele><time>2026-03-29T16:30:48Z</time></trkpt><trkpt lat="45.546532931835976" lon="9.302119254269044"><ele>144.0</ele><time>2026-03-29T16:30:49Z</time></trkpt><trkpt lat="45.546534434074985" lon="9.301974739748314"><ele>144.0</ele><time>2026-03-29T16:30:50Z</time></trkpt><trkpt lat="45.546539043543085" lon="9.301828706725205"><ele>144.0</ele><time>2026-03-29T16:30:51Z</time></trkpt><trkpt lat="45.54654302780376" lon="9.301671176491162"><ele>144.0</ele><time>2026-03-29T16:30:52Z</time></trkpt><trkpt lat="45.54654852387076" lon="9.301511203068108"><ele>144.0</ele><time>2026-03-29T16:30:52.999Z</time></trkpt><trkpt lat="45.546558499366625" lon="9.301350703134833"><ele>144.0</ele><time>2026-03-29T16:30:53.999Z</time></trkpt><trkpt lat="45.546567282091104" lon="9.301189178671068"><ele>144.0</ele><time>2026-03-29T16:30:54.999Z</time></trkpt><trkpt lat="45.54657553859651" lon="9.30103585520825"><ele>144.0</ele><time>2026-03-29T16:30:55.999Z</time></trkpt><trkpt lat="45.546592051604954" lon="9.30088985001767"><ele>144.0</ele><time>2026-03-29T16:30:56.999Z</time></trkpt><trkpt lat="45.54661355499292" lon="9.300747837623172"><ele>144.0</ele><time>2026-03-29T16:30:57.999Z</time></trkpt><trkpt lat="45.54663553051754" lon="9.300596811341322"><ele>144.0</ele><time>2026-03-29T16:30:58.999Z</time></trkpt><trkpt lat="45.546662207769955" lon="9.300452989111983"><ele>144.0</ele><time>2026-03-29T16:30:59.999Z</time></trkpt><trkpt lat="45.54668835387488" lon="9.300305327155437"><ele>144.0</ele><time>2026-03-29T16:31:00.999Z</time></trkpt><trkpt lat="45.546715075013516" lon="9.3001484798363"><ele>143.8</ele><time>2026-03-29T16:31:01.999Z</time></trkpt><trkpt lat="45.54674128139111" lon="9.299986901770556"><ele>143.60000000000002</ele><time>2026-03-29T16:31:02.999Z</time></trkpt><trkpt lat="45.54675807888616" lon="9.299814699988232"><ele>143.4</ele><time>2026-03-29T16:31:03.999Z</time></trkpt><trkpt lat="45.546768089183935" lon="9.299677649728867"><ele>143.20000000000002</ele><time>2026-03-29T16:31:04.999Z</time></trkpt><trkpt lat="45.54677822566897" lon="9.29957380087112"><ele>143.0</ele><time>2026-03-29T16:31:05.999Z</time></trkpt><trkpt lat="45.54678770251294" lon="9.299483658909466"><ele>143.16666666666666</ele><time>2026-03-29T16:31:06.999Z</time></trkpt><trkpt lat="45.54678831454689" lon="9.29937551269208"><ele>143.33333333333331</ele><time>2026-03-29T16:31:08.999Z</time></trkpt><trkpt lat="45.54679399676543" lon="9.29927074872095"><ele>143.5</ele><time>2026-03-29T16:31:54Z</time></trkpt><trkpt lat="45.54679823685891" lon="9.299128761120304"><ele>143.66666666666666</ele><time>2026-03-29T16:31:56Z</time></trkpt><trkpt lat="45.54680586834007" lon="9.298967189026571"><ele>143.83333333333334</ele><time>2026-03-29T16:31:58Z</time></trkpt><trkpt lat="45.54681004673682" lon="9.29885037883007"><ele>144.0</ele><time>2026-03-29T16:31:59Z</time></trkpt><trkpt lat="45.54681133304296" lon="9.29872138836878"><ele>144.0</ele><time>2026-03-29T16:32:00Z</time></trkpt><trkpt lat="45.54680882181027" lon="9.298587204242532"><ele>144.0</ele><time>2026-03-29T16:32:01Z</time></trkpt><trkpt lat="45.546808864213766" lon="9.298454004397769"><ele>144.0</ele><time>2026-03-29T16:32:02Z</time></trkpt><trkpt lat="45.54681600495922" lon="9.2982978281071"><ele>144.0</ele><time>2026-03-29T16:32:03Z</time></trkpt><trkpt lat="45.546826810604806" lon="9.298135339631992"><ele>144.0</ele><time>2026-03-29T16:32:04Z</time></trkpt><trkpt lat="45.546832954447666" lon="9.297971936620257"><ele>144.0</ele><time>2026-03-29T16:32:05Z</time></trkpt><trkpt lat="45.54683680222382" lon="9.29780124213219"><ele>144.0</ele><time>2026-03-29T16:32:06Z</time></trkpt><trkpt lat="45.54683972797149" lon="9.29761101540156"><ele>144.0</ele><time>2026-03-29T16:32:07Z</time></trkpt><trkpt lat="45.54683388706466" lon="9.297421775449331"><ele>144.0</ele><time>2026-03-29T16:32:08Z</time></trkpt><trkpt lat="45.5468157633604" lon="9.297232216009704"><ele>144.0</ele><time>2026-03-29T16:32:09Z</time></trkpt><trkpt lat="45.54679235269036" lon="9.297043893519682"><ele>144.0</ele><time>2026-03-29T16:32:10Z</time></trkpt><trkpt lat="45.54676935906093" lon="9.296851105882327"><ele>144.0</ele><time>2026-03-29T16:32:11Z</time></trkpt><trkpt lat="45.54675017621827" lon="9.296662513012208"><ele>144.0</ele><time>2026-03-29T16:32:12Z</time></trkpt><trkpt lat="45.54673245042012" lon="9.29647044296332"><ele>144.0</ele><time>2026-03-29T16:32:13Z</time></trkpt><trkpt lat="45.54670929595021" lon="9.296270869675064"><ele>144.0</ele><time>2026-03-29T16:32:14Z</time></trkpt><trkpt lat="45.54668943271957" lon="9.29607446039871"><ele>144.0</ele><time>2026-03-29T16:32:15Z</time></trkpt><trkpt lat="45.54666888186877" lon="9.295869344151745"><ele>144.0</ele><time>2026-03-29T16:32:16Z</time></trkpt><trkpt lat="45.54664655062238" lon="9.295670913864619"><ele>143.5</ele><time>2026-03-29T16:32:17Z</time></trkpt><trkpt lat="45.546623418729254" lon="9.295459482256183"><ele>143.0</ele><time>2026-03-29T16:32:18Z</time></trkpt><trkpt lat="45.54660070715958" lon="9.295252376322729"><ele>142.5</ele><time>2026-03-29T16:32:19Z</time></trkpt><trkpt lat="45.5465795569713" lon="9.295049744574092"><ele>142.0</ele><time>2026-03-29T16:32:20Z</time></trkpt><trkpt lat="45.54656004996136" lon="9.29486154932567"><ele>142.25</ele><time>2026-03-29T16:32:21Z</time></trkpt><trkpt lat="45.546544242183714" lon="9.294679532089445"><ele>142.5</ele><time>2026-03-29T16:32:22Z</time></trkpt><trkpt lat="45.546527739910445" lon="9.294504696650602"><ele>142.75</ele><time>2026-03-29T16:32:23Z</time></trkpt><trkpt lat="45.54651198317684" lon="9.294341775087553"><ele>143.0</ele><time>2026-03-29T16:32:24Z</time></trkpt><trkpt lat="45.546504337989425" lon="9.29418549504942"><ele>143.0</ele><time>2026-03-29T16:32:25Z</time></trkpt><trkpt lat="45.54650813012579" lon="9.294033368861955"><ele>143.0</ele><time>2026-03-29T16:32:26Z</time></trkpt><trkpt lat="45.54652097747778" lon="9.293889542333552"><ele>143.0</ele><time>2026-03-29T16:32:27Z</time></trkpt><trkpt lat="45.546557941844924" lon="9.293760113949734"><ele>143.0</ele><time>2026-03-29T16:32:28Z</time></trkpt><trkpt lat="45.54661863213348" lon="9.293645314406048"><ele>143.0</ele><time>2026-03-29T16:32:29Z</time></trkpt><trkpt lat="45.546714667742634" lon="9.293554772409758"><ele>143.16666666666666</ele><time>2026-03-29T16:32:30Z</time></trkpt><trkpt lat="45.546802759135716" lon="9.29349115028074"><ele>143.33333333333331</ele><time>2026-03-29T16:32:31Z</time></trkpt><trkpt lat="45.54688742345384" lon="9.293452602769925"><ele>143.5</ele><time>2026-03-29T16:32:32Z</time></trkpt><trkpt lat="45.546945297551" lon="9.293353946608091"><ele>143.66666666666666</ele><time>2026-03-29T16:32:33Z</time></trkpt><trkpt lat="45.54699571902341" lon="9.293294069508441"><ele>143.83333333333334</ele><time>2026-03-29T16:32:34Z</time></trkpt><trkpt lat="45.54708001061878" lon="9.293232981222904"><ele>144.0</ele><time>2026-03-29T16:32:36Z</time></trkpt><trkpt lat="45.547125625721044" lon="9.293169272445759"><ele>144.4</ele><time>2026-03-29T16:32:38Z</time></trkpt><trkpt lat="45.54715342259553" lon="9.293030719577862"><ele>144.8</ele><time>2026-03-29T16:32:40Z</time></trkpt><trkpt lat="45.54713890292488" lon="9.292932883048897"><ele>145.2</ele><time>2026-03-29T16:32:41Z</time></trkpt><trkpt lat="45.54711743028198" lon="9.292825431021459"><ele>145.6</ele><time>2026-03-29T16:32:42Z</time></trkpt><trkpt lat="45.547017658312825" lon="9.292740636665442"><ele>146.0</ele><time>2026-03-29T16:32:43Z</time></trkpt><trkpt lat="45.54692093942616" lon="9.292653054252519"><ele>145.6</ele><time>2026-03-29T16:32:44Z</time></trkpt><trkpt lat="45.54683305714332" lon="9.292584937066716"><ele>145.2</ele><time>2026-03-29T16:32:45Z</time></trkpt><trkpt lat="45.54676062306607" lon="9.292534129382412"><ele>144.8</ele><time>2026-03-29T16:32:46Z</time></trkpt><trkpt lat="45.546699461684305" lon="9.292492674130632"><ele>144.4</ele><time>2026-03-29T16:32:47Z</time></trkpt><trkpt lat="45.54664698134843" lon="9.292373639170888"><ele>144.0</ele><time>2026-03-29T16:32:48.999Z</time></trkpt><trkpt lat="45.54662354584354" lon="9.292158554697199"><ele>144.0</ele><time>2026-03-29T16:32:52.999Z</time></trkpt><trkpt lat="45.54659748873524" lon="9.292066281065352"><ele>144.0</ele><time>2026-03-29T16:33:32.999Z</time></trkpt><trkpt lat="45.546529920424085" lon="9.292121621051304"><ele>144.0</ele><time>2026-03-29T17:02:16Z</time></trkpt><trkpt lat="45.54647426188351" lon="9.292197447282627"><ele>144.0</ele><time>2026-03-29T17:02:20Z</time></trkpt><trkpt lat="45.54643799776653" lon="9.292282121900316"><ele>144.0</ele><time>2026-03-29T17:02:23.999Z</time></trkpt><trkpt lat="45.54640432157813" lon="9.292370001231616"><ele>144.0</ele><time>2026-03-29T17:02:43.999Z</time></trkpt><trkpt lat="45.54644889364593" lon="9.292523913734344"><ele>143.66666666666666</ele><time>2026-03-29T17:02:45.999Z</time></trkpt><trkpt lat="45.54649294063763" lon="9.29260944574251"><ele>143.33333333333334</ele><time>2026-03-29T17:02:46.999Z</time></trkpt><trkpt lat="45.5465206779648" lon="9.292708956893053"><ele>143.0</ele><time>2026-03-29T17:02:47.999Z</time></trkpt><trkpt lat="45.546529259191104" lon="9.292820612990134"><ele>142.66666666666669</ele><time>2026-03-29T17:02:48.999Z</time></trkpt><trkpt lat="45.546532283753294" lon="9.292937835591392"><ele>142.33333333333334</ele><time>2026-03-29T17:02:49.999Z</time></trkpt><trkpt lat="45.546532862593004" lon="9.293054504731332"><ele>142.0</ele><time>2026-03-29T17:02:50.999Z</time></trkpt><trkpt lat="45.546538432444336" lon="9.293167337756822"><ele>141.79999999999998</ele><time>2026-03-29T17:02:51.999Z</time></trkpt><trkpt lat="45.54652576665728" lon="9.29327306921319"><ele>141.6</ele><time>2026-03-29T17:02:52.999Z</time></trkpt><trkpt lat="45.54657143028831" lon="9.293368255094673"><ele>141.39999999999998</ele><time>2026-03-29T17:02:53.999Z</time></trkpt><trkpt lat="45.546658460995474" lon="9.29348424438307"><ele>141.2</ele><time>2026-03-29T17:02:55.999Z</time></trkpt><trkpt lat="45.54677830289343" lon="9.293493816498199"><ele>141.0</ele><time>2026-03-29T17:02:57.999Z</time></trkpt><trkpt lat="45.5468434355273" lon="9.29345891285916"><ele>141.0</ele><time>2026-03-29T17:02:58.999Z</time></trkpt><trkpt lat="45.5469165633834" lon="9.293434480382588"><ele>141.0</ele><time>2026-03-29T17:02:59.999Z</time></trkpt><trkpt lat="45.5469788466653" lon="9.293395745900892"><ele>141.0</ele><time>2026-03-29T17:03:00.999Z</time></trkpt><trkpt lat="45.54703074606401" lon="9.293328037287694"><ele>141.0</ele><time>2026-03-29T17:03:01.999Z</time></trkpt><trkpt lat="45.5471096576491" lon="9.293227764940339"><ele>141.0</ele><time>2026-03-29T17:03:03.999Z</time></trkpt><trkpt lat="45.54717472589127" lon="9.293175005985736"><ele>141.0</ele><time>2026-03-29T17:03:05.999Z</time></trkpt><trkpt lat="45.54724910732141" lon="9.29313365168123"><ele>141.83333333333334</ele><time>2026-03-29T17:04:19.999Z</time></trkpt><trkpt lat="45.54735552782559" lon="9.293027716945378"><ele>142.66666666666666</ele><time>2026-03-29T17:04:21.999Z</time></trkpt><trkpt lat="45.54741833712339" lon="9.293005003321817"><ele>143.5</ele><time>2026-03-29T17:04:22.999Z</time></trkpt><trkpt lat="45.547484971952144" lon="9.292991591909798"><ele>144.33333333333331</ele><time>2026-03-29T17:04:23.999Z</time></trkpt><trkpt lat="45.54751758038704" lon="9.29290187208896"><ele>145.16666666666666</ele><time>2026-03-29T17:04:24.999Z</time></trkpt><trkpt lat="45.547546560310764" lon="9.292809233457431"><ele>146.0</ele><time>2026-03-29T17:04:25.999Z</time></trkpt><trkpt lat="45.5475605895797" lon="9.292692127013982"><ele>146.0</ele><time>2026-03-29T17:04:26.999Z</time></trkpt><trkpt lat="45.54756324888774" lon="9.292574138152197"><ele>146.0</ele><time>2026-03-29T17:04:27.999Z</time></trkpt><trkpt lat="45.547566411497165" lon="9.292450235417428"><ele>146.0</ele><time>2026-03-29T17:04:28.999Z</time></trkpt><trkpt lat="45.54757369631214" lon="9.292319591466972"><ele>146.0</ele><time>2026-03-29T17:04:29.999Z</time></trkpt><trkpt lat="45.54757991209625" lon="9.292185629830106"><ele>146.0</ele><time>2026-03-29T17:04:30.999Z</time></trkpt><trkpt lat="45.54758777565196" lon="9.292044656878439"><ele>145.8</ele><time>2026-03-29T17:04:31.999Z</time></trkpt><trkpt lat="45.54759130376388" lon="9.29189627277719"><ele>145.6</ele><time>2026-03-29T17:04:32.999Z</time></trkpt><trkpt lat="45.54759288531261" lon="9.291759260114798"><ele>145.4</ele><time>2026-03-29T17:04:33.999Z</time></trkpt><trkpt lat="45.54759411547683" lon="9.29162079802431"><ele>145.2</ele><time>2026-03-29T17:04:34.999Z</time></trkpt><trkpt lat="45.547595598791744" lon="9.291473487894372"><ele>145.0</ele><time>2026-03-29T17:04:35.999Z</time></trkpt><trkpt lat="45.54760071697102" lon="9.29132383627928"><ele>145.0</ele><time>2026-03-29T17:04:36.999Z</time></trkpt><trkpt lat="45.5476049404919" lon="9.291170858821218"><ele>145.0</ele><time>2026-03-29T17:04:37.999Z</time></trkpt><trkpt lat="45.54761106497804" lon="9.291020739076531"><ele>145.0</ele><time>2026-03-29T17:04:38.999Z</time></trkpt><trkpt lat="45.547615694078004" lon="9.290865807760875"><ele>145.0</ele><time>2026-03-29T17:04:39.999Z</time></trkpt><trkpt lat="45.5476222887906" lon="9.290710068110311"><ele>145.0</ele><time>2026-03-29T17:04:40.999Z</time></trkpt><trkpt lat="45.54762876688636" lon="9.290554931674468"><ele>144.6</ele><time>2026-03-29T17:04:41.999Z</time></trkpt><trkpt lat="45.547633287928484" lon="9.290397751829868"><ele>144.2</ele><time>2026-03-29T17:04:42.999Z</time></trkpt><trkpt lat="45.54764026146712" lon="9.290241372608612"><ele>143.8</ele><time>2026-03-29T17:04:43.999Z</time></trkpt><trkpt lat="45.54764537656333" lon="9.29008015510793"><ele>143.4</ele><time>2026-03-29T17:04:44.999Z</time></trkpt><trkpt lat="45.54765105524808" lon="9.289920836301189"><ele>143.0</ele><time>2026-03-29T17:04:45.999Z</time></trkpt><trkpt lat="45.54765890491796" lon="9.289758487679538"><ele>142.75</ele><time>2026-03-29T17:04:46.999Z</time></trkpt><trkpt lat="45.54766585334748" lon="9.289596039169865"><ele>142.5</ele><time>2026-03-29T17:04:47.999Z</time></trkpt><trkpt lat="45.547674689678686" lon="9.28943382131558"><ele>142.25</ele><time>2026-03-29T17:04:48.999Z</time></trkpt><trkpt lat="45.54768006454388" lon="9.289267111221028"><ele>142.0</ele><time>2026-03-29T17:04:49.999Z</time></trkpt><trkpt lat="45.54768702900661" lon="9.289112531058949"><ele>142.0</ele><time>2026-03-29T17:04:50.999Z</time></trkpt><trkpt lat="45.54769284423031" lon="9.288962819670473"><ele>142.0</ele><time>2026-03-29T17:04:51.999Z</time></trkpt><trkpt lat="45.54769898941119" lon="9.288815954750786"><ele>142.0</ele><time>2026-03-29T17:04:52.999Z</time></trkpt><trkpt lat="45.54770582887692" lon="9.288670915758521"><ele>142.0</ele><time>2026-03-29T17:04:53.999Z</time></trkpt><trkpt lat="45.547711668911596" lon="9.288523948797094"><ele>142.0</ele><time>2026-03-29T17:04:54.999Z</time></trkpt><trkpt lat="45.54771479955772" lon="9.288386194592688"><ele>141.79999999999998</ele><time>2026-03-29T17:04:55.999Z</time></trkpt><trkpt lat="45.54771791387227" lon="9.288251497636034"><ele>141.6</ele><time>2026-03-29T17:04:56.999Z</time></trkpt><trkpt lat="45.54772491466318" lon="9.28811583079487"><ele>141.39999999999998</ele><time>2026-03-29T17:04:57.999Z</time></trkpt><trkpt lat="45.54773318603148" lon="9.287970186419539"><ele>141.2</ele><time>2026-03-29T17:04:58.999Z</time></trkpt><trkpt lat="45.54774087658158" lon="9.287825133229214"><ele>141.0</ele><time>2026-03-29T17:04:59.999Z</time></trkpt><trkpt lat="45.547748972534414" lon="9.287693174314821"><ele>141.4</ele><time>2026-03-29T17:05:00.999Z</time></trkpt><trkpt lat="45.54775189543383" lon="9.28755020296148"><ele>141.8</ele><time>2026-03-29T17:05:44Z</time></trkpt><trkpt lat="45.547764859152544" lon="9.287374297271539"><ele>142.20000000000002</ele><time>2026-03-29T17:05:46Z</time></trkpt><trkpt lat="45.54777586612677" lon="9.287260139062838"><ele>142.6</ele><time>2026-03-29T17:05:47Z</time></trkpt><trkpt lat="45.547783253789476" lon="9.287127087242068"><ele>143.0</ele><time>2026-03-29T17:05:48Z</time></trkpt><trkpt lat="45.54778925806723" lon="9.28697745535525"><ele>143.0</ele><time>2026-03-29T17:05:49Z</time></trkpt><trkpt lat="45.54779720663412" lon="9.286819820842094"><ele>143.0</ele><time>2026-03-29T17:05:50Z</time></trkpt><trkpt lat="45.54780357440246" lon="9.286665127019074"><ele>143.0</ele><time>2026-03-29T17:05:51Z</time></trkpt><trkpt lat="45.54781172167576" lon="9.286502045981848"><ele>143.0</ele><time>2026-03-29T17:05:52Z</time></trkpt><trkpt lat="45.54781938261721" lon="9.286333887401874"><ele>143.0</ele><time>2026-03-29T17:05:53Z</time></trkpt><trkpt lat="45.547830350834595" lon="9.286165939289646"><ele>143.0</ele><time>2026-03-29T17:05:54Z</time></trkpt><trkpt lat="45.54784065623437" lon="9.28599266614411"><ele>143.0</ele><time>2026-03-29T17:05:55Z</time></trkpt><trkpt lat="45.54785074005184" lon="9.285830833745374"><ele>143.0</ele><time>2026-03-29T17:05:56Z</time></trkpt><trkpt lat="45.547864942377885" lon="9.285640562393146"><ele>142.75</ele><time>2026-03-29T17:05:57Z</time></trkpt><trkpt lat="45.54787468101334" lon="9.28546771882019"><ele>142.5</ele><time>2026-03-29T17:05:58Z</time></trkpt><trkpt lat="45.54788413073778" lon="9.285275220461841"><ele>142.25</ele><time>2026-03-29T17:05:59Z</time></trkpt><trkpt lat="45.547898438534034" lon="9.285080313743393"><ele>142.0</ele><time>2026-03-29T17:06:00Z</time></trkpt><trkpt lat="45.547911373436314" lon="9.284884153955735"><ele>142.0</ele><time>2026-03-29T17:06:01Z</time></trkpt><trkpt lat="45.547920304243334" lon="9.284676998833552"><ele>142.0</ele><time>2026-03-29T17:06:02Z</time></trkpt><trkpt lat="45.547929559497994" lon="9.28449576671401"><ele>142.0</ele><time>2026-03-29T17:06:03Z</time></trkpt><trkpt lat="45.54794049589007" lon="9.28430360419176"><ele>142.0</ele><time>2026-03-29T17:06:04Z</time></trkpt><trkpt lat="45.54795133664544" lon="9.284108370061585"><ele>142.0</ele><time>2026-03-29T17:06:05Z</time></trkpt><trkpt lat="45.54796320163012" lon="9.283914430973343"><ele>142.0</ele><time>2026-03-29T17:06:06Z</time></trkpt><trkpt lat="45.547973350921254" lon="9.283726817233527"><ele>142.0</ele><time>2026-03-29T17:06:07Z</time></trkpt><trkpt lat="45.547985251360245" lon="9.283532375363071"><ele>142.0</ele><time>2026-03-29T17:06:08Z</time></trkpt><trkpt lat="45.54799593182665" lon="9.283340704741251"><ele>142.0</ele><time>2026-03-29T17:06:09Z</time></trkpt><trkpt lat="45.54800541496459" lon="9.28315315854504"><ele>142.0</ele><time>2026-03-29T17:06:10Z</time></trkpt><trkpt lat="45.54801861842437" lon="9.28295896810081"><ele>142.0</ele><time>2026-03-29T17:06:11Z</time></trkpt><trkpt lat="45.54802771447422" lon="9.282761958535477"><ele>142.0</ele><time>2026-03-29T17:06:12Z</time></trkpt><trkpt lat="45.54803968473938" lon="9.282562698979765"><ele>142.0</ele><time>2026-03-29T17:06:13Z</time></trkpt><trkpt lat="45.54805019338583" lon="9.28236464587616"><ele>142.0</ele><time>2026-03-29T17:06:14Z</time></trkpt><trkpt lat="45.54805905833362" lon="9.282171784504179"><ele>142.0</ele><time>2026-03-29T17:06:15Z</time></trkpt><trkpt lat="45.54806654540762" lon="9.2819770506044"><ele>142.0</ele><time>2026-03-29T17:06:16Z</time></trkpt><trkpt lat="45.54807631523853" lon="9.281792261615252"><ele>142.0</ele><time>2026-03-29T17:06:16.999Z</time></trkpt><trkpt lat="45.548083905360755" lon="9.281609116882743"><ele>142.0</ele><time>2026-03-29T17:06:17.999Z</time></trkpt><trkpt lat="45.548091924007245" lon="9.281428236654103"><ele>142.0</ele><time>2026-03-29T17:06:18.999Z</time></trkpt><trkpt lat="45.54810122728539" lon="9.281248786836858"><ele>142.0</ele><time>2026-03-29T17:06:19.999Z</time></trkpt><trkpt lat="45.548126880257435" lon="9.281088676268393"><ele>142.0</ele><time>2026-03-29T17:06:20.999Z</time></trkpt><trkpt lat="45.54813651527465" lon="9.280916182149289"><ele>142.0</ele><time>2026-03-29T17:06:21.999Z</time></trkpt><trkpt lat="45.54814662665301" lon="9.280723390155767"><ele>142.0</ele><time>2026-03-29T17:06:22.999Z</time></trkpt><trkpt lat="45.54815657123846" lon="9.28051716394148"><ele>142.0</ele><time>2026-03-29T17:06:23.999Z</time></trkpt><trkpt lat="45.54816314245962" lon="9.280310498318435"><ele>142.0</ele><time>2026-03-29T17:06:24.999Z</time></trkpt><trkpt lat="45.548159698874194" lon="9.280108049414915"><ele>142.0</ele><time>2026-03-29T17:06:25.999Z</time></trkpt><trkpt lat="45.54817248139445" lon="9.279906320635618"><ele>142.0</ele><time>2026-03-29T17:06:26.999Z</time></trkpt><trkpt lat="45.5481824792785" lon="9.279704034611894"><ele>142.0</ele><time>2026-03-29T17:06:27.999Z</time></trkpt><trkpt lat="45.54818947212186" lon="9.279505807036136"><ele>141.5</ele><time>2026-03-29T17:06:28.999Z</time></trkpt><trkpt lat="45.548195300744474" lon="9.279331828888791"><ele>141.0</ele><time>2026-03-29T17:06:29.999Z</time></trkpt><trkpt lat="45.548201607696235" lon="9.279152920261183"><ele>140.5</ele><time>2026-03-29T17:06:30.999Z</time></trkpt><trkpt lat="45.54821249316785" lon="9.278976251977936"><ele>140.0</ele><time>2026-03-29T17:06:31.999Z</time></trkpt><trkpt lat="45.54821936839096" lon="9.27880689923838"><ele>139.75</ele><time>2026-03-29T17:06:32.999Z</time></trkpt><trkpt lat="45.54822822598263" lon="9.278644341815976"><ele>139.5</ele><time>2026-03-29T17:06:33.999Z</time></trkpt><trkpt lat="45.54823759045682" lon="9.278482678051736"><ele>139.25</ele><time>2026-03-29T17:06:34.999Z</time></trkpt><trkpt lat="45.54824124357809" lon="9.278324175369322"><ele>139.0</ele><time>2026-03-29T17:06:35.999Z</time></trkpt><trkpt lat="45.54824129120167" lon="9.278160121004504"><ele>139.5</ele><time>2026-03-29T17:06:36.999Z</time></trkpt><trkpt lat="45.548241650028" lon="9.278002051448086"><ele>140.0</ele><time>2026-03-29T17:06:37.999Z</time></trkpt><trkpt lat="45.548242068888094" lon="9.277839842574929"><ele>140.5</ele><time>2026-03-29T17:06:38.999Z</time></trkpt><trkpt lat="45.54824141599788" lon="9.277670698234285"><ele>141.0</ele><time>2026-03-29T17:06:39.999Z</time></trkpt><trkpt lat="45.54824086120935" lon="9.277499096914616"><ele>141.0</ele><time>2026-03-29T17:06:40.999Z</time></trkpt><trkpt lat="45.54824167856591" lon="9.277329375520672"><ele>141.0</ele><time>2026-03-29T17:06:41.999Z</time></trkpt><trkpt lat="45.54824396116492" lon="9.277163580255026"><ele>141.0</ele><time>2026-03-29T17:06:42.999Z</time></trkpt><trkpt lat="45.54824486928775" lon="9.27699439530958"><ele>141.0</ele><time>2026-03-29T17:06:43.999Z</time></trkpt><trkpt lat="45.54825012000078" lon="9.276828419925362"><ele>141.5</ele><time>2026-03-29T17:06:44.999Z</time></trkpt><trkpt lat="45.54825741528651" lon="9.276668867415811"><ele>142.0</ele><time>2026-03-29T17:06:45.999Z</time></trkpt><trkpt lat="45.5482642884833" lon="9.276502094861863"><ele>142.5</ele><time>2026-03-29T17:06:46.999Z</time></trkpt><trkpt lat="45.54826994689286" lon="9.276334193467116"><ele>143.0</ele><time>2026-03-29T17:06:47.999Z</time></trkpt><trkpt lat="45.54827781450496" lon="9.2761668588245"><ele>143.20000000000002</ele><time>2026-03-29T17:06:48.999Z</time></trkpt><trkpt lat="45.54828457318177" lon="9.276005152403794"><ele>143.4</ele><time>2026-03-29T17:06:49.999Z</time></trkpt><trkpt lat="45.548288272878864" lon="9.275852313867732"><ele>143.60000000000002</ele><time>2026-03-29T17:06:50.999Z</time></trkpt><trkpt lat="45.54829139906926" lon="9.27570488287686"><ele>143.8</ele><time>2026-03-29T17:06:51.999Z</time></trkpt><trkpt lat="45.54829682117828" lon="9.275556197091804"><ele>144.0</ele><time>2026-03-29T17:06:52.999Z</time></trkpt><trkpt lat="45.54830229449921" lon="9.275410421240021"><ele>144.0</ele><time>2026-03-29T17:06:53.999Z</time></trkpt><trkpt lat="45.548308277357286" lon="9.275261653228986"><ele>144.0</ele><time>2026-03-29T17:06:54.999Z</time></trkpt><trkpt lat="45.548316800231646" lon="9.275114852595026"><ele>144.0</ele><time>2026-03-29T17:06:55.999Z</time></trkpt><trkpt lat="45.54832673533798" lon="9.27495834241671"><ele>144.0</ele><time>2026-03-29T17:06:56.999Z</time></trkpt><trkpt lat="45.5483347198271" lon="9.274803018222286"><ele>144.0</ele><time>2026-03-29T17:06:57.999Z</time></trkpt><trkpt lat="45.548343360181654" lon="9.274646407352206"><ele>143.6</ele><time>2026-03-29T17:06:58.999Z</time></trkpt><trkpt lat="45.548352447788375" lon="9.274494260903511"><ele>143.2</ele><time>2026-03-29T17:06:59.999Z</time></trkpt><trkpt lat="45.548362531140434" lon="9.27434825064954"><ele>142.79999999999998</ele><time>2026-03-29T17:07:00.999Z</time></trkpt><trkpt lat="45.54837338726197" lon="9.274198572429034"><ele>142.4</ele><time>2026-03-29T17:07:01.999Z</time></trkpt><trkpt lat="45.54838348069076" lon="9.274048351734132"><ele>142.0</ele><time>2026-03-29T17:07:02.999Z</time></trkpt><trkpt lat="45.54839928922701" lon="9.27390315712566"><ele>142.0</ele><time>2026-03-29T17:07:03.999Z</time></trkpt><trkpt lat="45.548412119654046" lon="9.273754766958417"><ele>142.0</ele><time>2026-03-29T17:07:04.999Z</time></trkpt><trkpt lat="45.54842737731765" lon="9.273618468033357"><ele>142.0</ele><time>2026-03-29T17:07:05.999Z</time></trkpt><trkpt lat="45.54844931484731" lon="9.273492036140551"><ele>142.0</ele><time>2026-03-29T17:07:06.999Z</time></trkpt><trkpt lat="45.54847660644622" lon="9.27337447405769"><ele>142.0</ele><time>2026-03-29T17:07:07.999Z</time></trkpt><trkpt lat="45.548506952109534" lon="9.273261722265103"><ele>142.0</ele><time>2026-03-29T17:07:08.999Z</time></trkpt><trkpt lat="45.5485397055566" lon="9.273158246745755"><ele>142.0</ele><time>2026-03-29T17:07:09.999Z</time></trkpt><trkpt lat="45.54855860280948" lon="9.27304830273425"><ele>142.0</ele><time>2026-03-29T17:07:10.999Z</time></trkpt><trkpt lat="45.54862331483297" lon="9.272994424681004"><ele>142.0</ele><time>2026-03-29T17:07:11.999Z</time></trkpt><trkpt lat="45.548479085005184" lon="9.27284796901512"><ele>142.0</ele><time>2026-03-29T17:07:12.999Z</time></trkpt><trkpt lat="45.548451340934044" lon="9.272760084772253"><ele>142.0</ele><time>2026-03-29T17:07:13.999Z</time></trkpt><trkpt lat="45.548424132468064" lon="9.272662170532099"><ele>142.0</ele><time>2026-03-29T17:07:14.999Z</time></trkpt><trkpt lat="45.54842156185348" lon="9.272554973655456"><ele>142.0</ele><time>2026-03-29T17:07:15.999Z</time></trkpt><trkpt lat="45.548428719231715" lon="9.272449749865185"><ele>142.0</ele><time>2026-03-29T17:07:16.999Z</time></trkpt><trkpt lat="45.54843006598274" lon="9.2723478912798"><ele>142.0</ele><time>2026-03-29T17:07:17.999Z</time></trkpt><trkpt lat="45.54842005889489" lon="9.272256152842699"><ele>142.0</ele><time>2026-03-29T17:07:18.999Z</time></trkpt><trkpt lat="45.5484228655091" lon="9.272155669012145"><ele>142.0</ele><time>2026-03-29T17:07:20.999Z</time></trkpt><trkpt lat="45.54824397074046" lon="9.272149485400673"><ele>142.0</ele><time>2026-03-29T17:07:21.999Z</time></trkpt><trkpt lat="45.54814114573221" lon="9.272171870051084"><ele>142.0</ele><time>2026-03-29T17:07:22.999Z</time></trkpt><trkpt lat="45.548024460290705" lon="9.272184109040147"><ele>142.0</ele><time>2026-03-29T17:07:23.999Z</time></trkpt><trkpt lat="45.54790399749417" lon="9.272181801553401"><ele>142.0</ele><time>2026-03-29T17:07:25Z</time></trkpt><trkpt lat="45.54777867556866" lon="9.272173656343108"><ele>142.5</ele><time>2026-03-29T17:07:26Z</time></trkpt><trkpt lat="45.54765188630485" lon="9.272165221242272"><ele>143.0</ele><time>2026-03-29T17:07:27Z</time></trkpt><trkpt lat="45.54751679577534" lon="9.272159910347952"><ele>143.5</ele><time>2026-03-29T17:07:28Z</time></trkpt><trkpt lat="45.54737990953488" lon="9.27215250378125"><ele>144.0</ele><time>2026-03-29T17:07:29Z</time></trkpt><trkpt lat="45.547242266563316" lon="9.272145817119428"><ele>144.0</ele><time>2026-03-29T17:07:30Z</time></trkpt><trkpt lat="45.54710495605406" lon="9.272134052367159"><ele>144.0</ele><time>2026-03-29T17:07:31Z</time></trkpt><trkpt lat="45.54696900765691" lon="9.272121007461195"><ele>144.0</ele><time>2026-03-29T17:07:32Z</time></trkpt><trkpt lat="45.546839041086464" lon="9.272113664119903"><ele>144.0</ele><time>2026-03-29T17:07:33Z</time></trkpt><trkpt lat="45.5467210132418" lon="9.27210948896413"><ele>143.2</ele><time>2026-03-29T17:07:34Z</time></trkpt><trkpt lat="45.546611063336144" lon="9.27210499522466"><ele>142.4</ele><time>2026-03-29T17:07:35Z</time></trkpt><trkpt lat="45.54650445741474" lon="9.272099550580561"><ele>141.6</ele><time>2026-03-29T17:07:36Z</time></trkpt><trkpt lat="45.546406142664054" lon="9.272095916078607"><ele>140.8</ele><time>2026-03-29T17:07:37Z</time></trkpt><trkpt lat="45.54631131643125" lon="9.272090547451493"><ele>140.0</ele><time>2026-03-29T17:07:38Z</time></trkpt><trkpt lat="45.54622175578585" lon="9.27208558075848"><ele>139.8</ele><time>2026-03-29T17:07:39Z</time></trkpt><trkpt lat="45.54613930551635" lon="9.272080049376092"><ele>139.6</ele><time>2026-03-29T17:07:40Z</time></trkpt><trkpt lat="45.54605997407096" lon="9.27207779548788"><ele>139.4</ele><time>2026-03-29T17:07:41Z</time></trkpt><trkpt lat="45.545960093080616" lon="9.2720799955044"><ele>139.2</ele><time>2026-03-29T17:07:43Z</time></trkpt><trkpt lat="45.545909071889255" lon="9.271854915777338"><ele>139.0</ele><time>2026-03-29T17:07:54Z</time></trkpt><trkpt lat="45.545908814838" lon="9.271696230310821"><ele>139.0</ele><time>2026-03-29T17:07:56Z</time></trkpt><trkpt lat="45.54591375420515" lon="9.271550383696644"><ele>139.0</ele><time>2026-03-29T17:07:58Z</time></trkpt><trkpt lat="45.54591433875687" lon="9.271396068416765"><ele>139.0</ele><time>2026-03-29T17:08:00Z</time></trkpt><trkpt lat="45.54591261325377" lon="9.271212771009653"><ele>139.0</ele><time>2026-03-29T17:08:02Z</time></trkpt><trkpt lat="45.54591431090531" lon="9.271108496012365"><ele>139.0</ele><time>2026-03-29T17:08:03Z</time></trkpt><trkpt lat="45.54591748331647" lon="9.271010698062266"><ele>139.4</ele><time>2026-03-29T17:08:04Z</time></trkpt><trkpt lat="45.545922612696074" lon="9.270858912841849"><ele>139.8</ele><time>2026-03-29T17:08:06Z</time></trkpt><trkpt lat="45.54592203657221" lon="9.270747247206753"><ele>140.2</ele><time>2026-03-29T17:08:08Z</time></trkpt><trkpt lat="45.54595611967543" lon="9.270644102851827"><ele>140.6</ele><time>2026-03-29T17:08:10Z</time></trkpt><trkpt lat="45.546024825656055" lon="9.27054853977467"><ele>141.0</ele><time>2026-03-29T17:08:12Z</time></trkpt><trkpt lat="45.546110834510635" lon="9.270684422792016"><ele>141.0</ele><time>2026-03-29T17:08:13Z</time></trkpt><trkpt lat="45.546117926383566" lon="9.27050775025651"><ele>141.0</ele><time>2026-03-29T17:09:15.999Z</time></trkpt><trkpt lat="45.5461081746115" lon="9.27062188845598"><ele>141.0</ele><time>2026-03-29T17:09:20.999Z</time></trkpt><trkpt lat="45.54620770410375" lon="9.27066196847362"><ele>141.0</ele><time>2026-03-29T17:09:22.999Z</time></trkpt><trkpt lat="45.546350318061045" lon="9.27061558896205"><ele>142.0</ele><time>2026-03-29T17:09:24.999Z</time></trkpt><trkpt lat="45.54642218829335" lon="9.270580569210763"><ele>143.0</ele><time>2026-03-29T17:09:25.999Z</time></trkpt><trkpt lat="45.546509198721466" lon="9.2704988455546"><ele>144.0</ele><time>2026-03-29T17:09:27.999Z</time></trkpt><trkpt lat="45.5465878071807" lon="9.2704261771081"><ele>145.0</ele><time>2026-03-29T17:09:29.999Z</time></trkpt><trkpt lat="45.546687281062" lon="9.270473038036428"><ele>146.0</ele><time>2026-03-29T17:09:32.026Z</time></trkpt><trkpt lat="45.54676843649819" lon="9.270441498870005"><ele>146.0</ele><time>2026-03-29T17:09:33.025Z</time></trkpt><trkpt lat="45.54683319936252" lon="9.270428608245105"><ele>146.0</ele><time>2026-03-29T17:09:34.025Z</time></trkpt><trkpt lat="45.546962686241756" lon="9.270378286188993"><ele>146.0</ele><time>2026-03-29T17:09:35.024Z</time></trkpt><trkpt lat="45.54708118969398" lon="9.270343652975448"><ele>146.0</ele><time>2026-03-29T17:09:37.024Z</time></trkpt><trkpt lat="45.54719398277865" lon="9.270272083478222"><ele>146.0</ele><time>2026-03-29T17:09:38.023Z</time></trkpt><trkpt lat="45.54732619404723" lon="9.270200685857432"><ele>146.0</ele><time>2026-03-29T17:09:39.025Z</time></trkpt><trkpt lat="45.5474367766445" lon="9.270127506647006"><ele>146.0</ele><time>2026-03-29T17:09:40.019Z</time></trkpt><trkpt lat="45.546910463760014" lon="9.269843141933782"><ele>146.0</ele><time>2026-03-29T17:09:51.919Z</time></trkpt><trkpt lat="45.546846772596716" lon="9.269834711505231"><ele>146.0</ele><time>2026-03-29T17:10:19.235Z</time></trkpt><trkpt lat="45.54690567838104" lon="9.270273922526304"><ele>146.0</ele><time>2026-03-29T17:10:23.75Z</time></trkpt><trkpt lat="45.54686032666035" lon="9.269928635986737"><ele>146.0</ele><time>2026-03-29T17:12:32.783Z</time></trkpt><trkpt lat="45.54690567838104" lon="9.270273922526304"><ele>146.0</ele><time>2026-03-29T17:21:15.622Z</time></trkpt><trkpt lat="45.54686537037026" lon="9.269897337925192"><ele>146.0</ele><time>2026-03-29T17:21:39.312Z</time></trkpt><trkpt lat="45.54677036529021" lon="9.26993846205064"><ele>146.0</ele><time>2026-03-29T17:25:11.842Z</time></trkpt><trkpt lat="45.54690567838104" lon="9.270273922526304"><ele>146.0</ele><time>2026-03-29T17:25:18.357Z</time></trkpt><trkpt lat="45.546427549125475" lon="9.270476906051234"><ele>146.0</ele><time>2026-03-29T17:26:10.992Z</time></trkpt><trkpt lat="45.546391556141366" lon="9.270600264180066"><ele>146.0</ele><time>2026-03-29T17:26:11.992Z</time></trkpt><trkpt lat="45.546465127692095" lon="9.270569825620242"><ele>146.0</ele><time>2026-03-29T17:26:48Z</time></trkpt><trkpt lat="45.54651354546411" lon="9.270455076628384"><ele>146.0</ele><time>2026-03-29T17:26:49Z</time></trkpt><trkpt lat="45.54654896841254" lon="9.270352198253379"><ele>146.0</ele><time>2026-03-29T17:26:50Z</time></trkpt><trkpt lat="45.54654480239975" lon="9.270467751382968"><ele>146.0</ele><time>2026-03-29T17:26:51Z</time></trkpt><trkpt lat="45.546618325591346" lon="9.270467638988439"><ele>146.0</ele><time>2026-03-29T17:27:01Z</time></trkpt><trkpt lat="45.546609488262916" lon="9.270565644267192"><ele>146.0</ele><time>2026-03-29T17:27:11.013Z</time></trkpt><trkpt lat="45.54690567838104" lon="9.270273922526304"><ele>146.0</ele><time>2026-03-29T17:27:33.315Z</time></trkpt><trkpt lat="45.54693079705258" lon="9.270047103563659"><ele>146.0</ele><time>2026-03-29T17:29:03.43Z</time></trkpt><trkpt lat="45.54690567838104" lon="9.270273922526304"><ele>146.0</ele><time>2026-03-29T17:29:26.854Z</time></trkpt><trkpt lat="45.54701757422037" lon="9.270453104759842"><ele>146.0</ele><time>2026-03-29T17:29:40.998Z</time></trkpt><trkpt lat="45.547042372466244" lon="9.27054617301389"><ele>146.0</ele><time>2026-03-29T17:29:42.998Z</time></trkpt><trkpt lat="45.54692959983072" lon="9.270117954494184"><ele>146.0</ele><time>2026-03-29T17:29:45.115Z</time></trkpt><trkpt lat="45.54682023820735" lon="9.270194733913135"><ele>146.0</ele><time>2026-03-29T17:30:03.999Z</time></trkpt><trkpt lat="45.54683944909524" lon="9.270330966887407"><ele>146.0</ele><time>2026-03-29T17:30:25.019Z</time></trkpt><trkpt lat="45.54692706097434" lon="9.27033134736984"><ele>146.0</ele><time>2026-03-29T17:30:29Z</time></trkpt><trkpt lat="45.54686900099265" lon="9.270424430570927"><ele>146.0</ele><time>2026-03-29T17:30:31Z</time></trkpt><trkpt lat="45.5470067266029" lon="9.270451066418435"><ele>146.0</ele><time>2026-03-29T17:34:02Z</time></trkpt><trkpt lat="45.54682073738859" lon="9.270368955610078"><ele>146.0</ele><time>2026-03-29T18:15:23.999Z</time></trkpt><trkpt lat="45.546895315256194" lon="9.270412900294906"><ele>146.0</ele><time>2026-03-29T18:21:58.999Z</time></trkpt><trkpt lat="45.54698248489413" lon="9.27046221692552"><ele>146.0</ele><time>2026-03-29T18:22:00.999Z</time></trkpt><trkpt lat="45.54688531909681" lon="9.270226154485039"><ele>146.0</ele><time>2026-03-29T18:49:10.001Z</time></trkpt><trkpt lat="45.54692011932043" lon="9.270371455135033"><ele>146.0</ele><time>2026-03-29T18:49:14.001Z</time></trkpt></trkseg></trk></gpx>